<?xml version="1.0" encoding="UTF-8" standalone="no" ?>
<gpx xmlns="http://www.topografix.com/GPX/1/1" xmlns:xsi="http://www.w3.org/2001/XMLSchema-instance" xsi:schemaLocation="http://www.topografix.com/GPX/1/1 http://www.topografix.com/GPX/1/1/gpx.xsd" version="1.1" creator="VisuGPX - https://www.visugpx.com">
  <metadata>
    <name>2011-07-24_Marignier_Brasse</name>
    <desc><![CDATA[Une bonne ballade]]></desc>
  </metadata>
  <wpt lat="46.13252" lon="6.53453">
    <ele>787</ele>
  </wpt>
  <wpt lat="46.18599" lon="6.49754">
    <ele>864</ele>
  </wpt>
  <wpt lat="46.18357" lon="6.49939">
    <ele>864</ele>
  </wpt>
  <wpt lat="46.15697" lon="6.46991">
    <ele>887</ele>
  </wpt>
  <trk>
    <name><![CDATA[2011-07-24_Marignier_Brasse_1]]></name>
    <trkseg>
      <trkpt lat="46.05992" lon="6.37155">
        <ele>475</ele>
        <time>2011-07-24T07:07:03Z</time>
      </trkpt>
      <trkpt lat="46.05997" lon="6.37136">
        <ele>512</ele>
        <time>2011-07-24T07:07:04Z</time>
      </trkpt>
      <trkpt lat="46.05987" lon="6.37143">
        <ele>489</ele>
        <time>2011-07-24T07:09:12Z</time>
      </trkpt>
      <trkpt lat="46.05975" lon="6.37141">
        <ele>489</ele>
        <time>2011-07-24T07:09:15Z</time>
      </trkpt>
      <trkpt lat="46.05964" lon="6.37139">
        <ele>489</ele>
        <time>2011-07-24T07:09:18Z</time>
      </trkpt>
      <trkpt lat="46.05953" lon="6.37144">
        <ele>489</ele>
        <time>2011-07-24T07:09:23Z</time>
      </trkpt>
      <trkpt lat="46.05951" lon="6.37166">
        <ele>484</ele>
        <time>2011-07-24T07:09:26Z</time>
      </trkpt>
      <trkpt lat="46.05952" lon="6.37189">
        <ele>484</ele>
        <time>2011-07-24T07:09:28Z</time>
      </trkpt>
      <trkpt lat="46.05952" lon="6.37215">
        <ele>484</ele>
        <time>2011-07-24T07:09:30Z</time>
      </trkpt>
      <trkpt lat="46.05951" lon="6.37229">
        <ele>484</ele>
        <time>2011-07-24T07:09:31Z</time>
      </trkpt>
      <trkpt lat="46.0595" lon="6.37244">
        <ele>484</ele>
        <time>2011-07-24T07:09:32Z</time>
      </trkpt>
      <trkpt lat="46.05949" lon="6.3726">
        <ele>484</ele>
        <time>2011-07-24T07:09:33Z</time>
      </trkpt>
      <trkpt lat="46.05947" lon="6.37275">
        <ele>484</ele>
        <time>2011-07-24T07:09:34Z</time>
      </trkpt>
      <trkpt lat="46.05945" lon="6.3729">
        <ele>484</ele>
        <time>2011-07-24T07:09:35Z</time>
      </trkpt>
      <trkpt lat="46.05941" lon="6.37305">
        <ele>484</ele>
        <time>2011-07-24T07:09:36Z</time>
      </trkpt>
      <trkpt lat="46.05937" lon="6.37321">
        <ele>484</ele>
        <time>2011-07-24T07:09:37Z</time>
      </trkpt>
      <trkpt lat="46.05931" lon="6.37334">
        <ele>484</ele>
        <time>2011-07-24T07:09:38Z</time>
      </trkpt>
      <trkpt lat="46.05925" lon="6.37347">
        <ele>484</ele>
        <time>2011-07-24T07:09:39Z</time>
      </trkpt>
      <trkpt lat="46.05917" lon="6.37359">
        <ele>484</ele>
        <time>2011-07-24T07:09:40Z</time>
      </trkpt>
      <trkpt lat="46.05911" lon="6.3737">
        <ele>484</ele>
        <time>2011-07-24T07:09:41Z</time>
      </trkpt>
      <trkpt lat="46.05901" lon="6.37388">
        <ele>484</ele>
        <time>2011-07-24T07:09:43Z</time>
      </trkpt>
      <trkpt lat="46.05893" lon="6.37401">
        <ele>484</ele>
        <time>2011-07-24T07:09:45Z</time>
      </trkpt>
      <trkpt lat="46.05886" lon="6.3741">
        <ele>484</ele>
        <time>2011-07-24T07:09:47Z</time>
      </trkpt>
      <trkpt lat="46.05875" lon="6.37421">
        <ele>484</ele>
        <time>2011-07-24T07:09:49Z</time>
      </trkpt>
      <trkpt lat="46.0586" lon="6.37436">
        <ele>484</ele>
        <time>2011-07-24T07:09:51Z</time>
      </trkpt>
      <trkpt lat="46.05851" lon="6.37444">
        <ele>484</ele>
        <time>2011-07-24T07:09:52Z</time>
      </trkpt>
      <trkpt lat="46.05842" lon="6.37453">
        <ele>484</ele>
        <time>2011-07-24T07:09:53Z</time>
      </trkpt>
      <trkpt lat="46.05832" lon="6.37462">
        <ele>484</ele>
        <time>2011-07-24T07:09:54Z</time>
      </trkpt>
      <trkpt lat="46.05821" lon="6.37468">
        <ele>484</ele>
        <time>2011-07-24T07:09:55Z</time>
      </trkpt>
      <trkpt lat="46.05811" lon="6.37475">
        <ele>484</ele>
        <time>2011-07-24T07:09:56Z</time>
      </trkpt>
      <trkpt lat="46.058" lon="6.37481">
        <ele>484</ele>
        <time>2011-07-24T07:09:57Z</time>
      </trkpt>
      <trkpt lat="46.05789" lon="6.37486">
        <ele>484</ele>
        <time>2011-07-24T07:09:58Z</time>
      </trkpt>
      <trkpt lat="46.05779" lon="6.37489">
        <ele>484</ele>
        <time>2011-07-24T07:09:59Z</time>
      </trkpt>
      <trkpt lat="46.0577" lon="6.37493">
        <ele>484</ele>
        <time>2011-07-24T07:10:00Z</time>
      </trkpt>
      <trkpt lat="46.05754" lon="6.37499">
        <ele>484</ele>
        <time>2011-07-24T07:10:02Z</time>
      </trkpt>
      <trkpt lat="46.05743" lon="6.37506">
        <ele>484</ele>
        <time>2011-07-24T07:10:04Z</time>
      </trkpt>
      <trkpt lat="46.05733" lon="6.37508">
        <ele>484</ele>
        <time>2011-07-24T07:10:06Z</time>
      </trkpt>
      <trkpt lat="46.05721" lon="6.37514">
        <ele>484</ele>
        <time>2011-07-24T07:10:09Z</time>
      </trkpt>
      <trkpt lat="46.05721" lon="6.3753">
        <ele>484</ele>
        <time>2011-07-24T07:10:12Z</time>
      </trkpt>
      <trkpt lat="46.05723" lon="6.3755">
        <ele>484</ele>
        <time>2011-07-24T07:10:14Z</time>
      </trkpt>
      <trkpt lat="46.05728" lon="6.37576">
        <ele>484</ele>
        <time>2011-07-24T07:10:16Z</time>
      </trkpt>
      <trkpt lat="46.05734" lon="6.37592">
        <ele>484</ele>
        <time>2011-07-24T07:10:17Z</time>
      </trkpt>
      <trkpt lat="46.05741" lon="6.37608">
        <ele>484</ele>
        <time>2011-07-24T07:10:18Z</time>
      </trkpt>
      <trkpt lat="46.05749" lon="6.37629">
        <ele>484</ele>
        <time>2011-07-24T07:10:19Z</time>
      </trkpt>
      <trkpt lat="46.05756" lon="6.37646">
        <ele>477</ele>
        <time>2011-07-24T07:10:20Z</time>
      </trkpt>
      <trkpt lat="46.05763" lon="6.37663">
        <ele>477</ele>
        <time>2011-07-24T07:10:21Z</time>
      </trkpt>
      <trkpt lat="46.05771" lon="6.37678">
        <ele>477</ele>
        <time>2011-07-24T07:10:22Z</time>
      </trkpt>
      <trkpt lat="46.05778" lon="6.37693">
        <ele>477</ele>
        <time>2011-07-24T07:10:23Z</time>
      </trkpt>
      <trkpt lat="46.05783" lon="6.3771">
        <ele>477</ele>
        <time>2011-07-24T07:10:24Z</time>
      </trkpt>
      <trkpt lat="46.05788" lon="6.37727">
        <ele>477</ele>
        <time>2011-07-24T07:10:25Z</time>
      </trkpt>
      <trkpt lat="46.05792" lon="6.37745">
        <ele>477</ele>
        <time>2011-07-24T07:10:26Z</time>
      </trkpt>
      <trkpt lat="46.05793" lon="6.37766">
        <ele>477</ele>
        <time>2011-07-24T07:10:27Z</time>
      </trkpt>
      <trkpt lat="46.05795" lon="6.37788">
        <ele>477</ele>
        <time>2011-07-24T07:10:28Z</time>
      </trkpt>
      <trkpt lat="46.05797" lon="6.37808">
        <ele>477</ele>
        <time>2011-07-24T07:10:29Z</time>
      </trkpt>
      <trkpt lat="46.05798" lon="6.3783">
        <ele>477</ele>
        <time>2011-07-24T07:10:30Z</time>
      </trkpt>
      <trkpt lat="46.05801" lon="6.37851">
        <ele>477</ele>
        <time>2011-07-24T07:10:31Z</time>
      </trkpt>
      <trkpt lat="46.05806" lon="6.37871">
        <ele>477</ele>
        <time>2011-07-24T07:10:32Z</time>
      </trkpt>
      <trkpt lat="46.05813" lon="6.37893">
        <ele>477</ele>
        <time>2011-07-24T07:10:33Z</time>
      </trkpt>
      <trkpt lat="46.05821" lon="6.37913">
        <ele>477</ele>
        <time>2011-07-24T07:10:34Z</time>
      </trkpt>
      <trkpt lat="46.05831" lon="6.37933">
        <ele>477</ele>
        <time>2011-07-24T07:10:35Z</time>
      </trkpt>
      <trkpt lat="46.05841" lon="6.37953">
        <ele>477</ele>
        <time>2011-07-24T07:10:36Z</time>
      </trkpt>
      <trkpt lat="46.05853" lon="6.37973">
        <ele>477</ele>
        <time>2011-07-24T07:10:37Z</time>
      </trkpt>
      <trkpt lat="46.05864" lon="6.37993">
        <ele>477</ele>
        <time>2011-07-24T07:10:38Z</time>
      </trkpt>
      <trkpt lat="46.05876" lon="6.38012">
        <ele>477</ele>
        <time>2011-07-24T07:10:39Z</time>
      </trkpt>
      <trkpt lat="46.05887" lon="6.38032">
        <ele>477</ele>
        <time>2011-07-24T07:10:40Z</time>
      </trkpt>
      <trkpt lat="46.05898" lon="6.3805">
        <ele>482</ele>
        <time>2011-07-24T07:10:41Z</time>
      </trkpt>
      <trkpt lat="46.05908" lon="6.38065">
        <ele>482</ele>
        <time>2011-07-24T07:10:42Z</time>
      </trkpt>
      <trkpt lat="46.05916" lon="6.3808">
        <ele>482</ele>
        <time>2011-07-24T07:10:43Z</time>
      </trkpt>
      <trkpt lat="46.05922" lon="6.38094">
        <ele>482</ele>
        <time>2011-07-24T07:10:44Z</time>
      </trkpt>
      <trkpt lat="46.05928" lon="6.38107">
        <ele>482</ele>
        <time>2011-07-24T07:10:45Z</time>
      </trkpt>
      <trkpt lat="46.05936" lon="6.38125">
        <ele>482</ele>
        <time>2011-07-24T07:10:47Z</time>
      </trkpt>
      <trkpt lat="46.05938" lon="6.38148">
        <ele>482</ele>
        <time>2011-07-24T07:10:49Z</time>
      </trkpt>
      <trkpt lat="46.05933" lon="6.38161">
        <ele>476</ele>
        <time>2011-07-24T07:10:50Z</time>
      </trkpt>
      <trkpt lat="46.05924" lon="6.38176">
        <ele>476</ele>
        <time>2011-07-24T07:10:51Z</time>
      </trkpt>
      <trkpt lat="46.05913" lon="6.38193">
        <ele>476</ele>
        <time>2011-07-24T07:10:52Z</time>
      </trkpt>
      <trkpt lat="46.05904" lon="6.38209">
        <ele>476</ele>
        <time>2011-07-24T07:10:53Z</time>
      </trkpt>
      <trkpt lat="46.05893" lon="6.38227">
        <ele>476</ele>
        <time>2011-07-24T07:10:54Z</time>
      </trkpt>
      <trkpt lat="46.05884" lon="6.38245">
        <ele>476</ele>
        <time>2011-07-24T07:10:55Z</time>
      </trkpt>
      <trkpt lat="46.05875" lon="6.38263">
        <ele>476</ele>
        <time>2011-07-24T07:10:56Z</time>
      </trkpt>
      <trkpt lat="46.05866" lon="6.3828">
        <ele>476</ele>
        <time>2011-07-24T07:10:57Z</time>
      </trkpt>
      <trkpt lat="46.05858" lon="6.38295">
        <ele>476</ele>
        <time>2011-07-24T07:10:58Z</time>
      </trkpt>
      <trkpt lat="46.0585" lon="6.38311">
        <ele>476</ele>
        <time>2011-07-24T07:10:59Z</time>
      </trkpt>
      <trkpt lat="46.05844" lon="6.38327">
        <ele>476</ele>
        <time>2011-07-24T07:11:00Z</time>
      </trkpt>
      <trkpt lat="46.05838" lon="6.38344">
        <ele>476</ele>
        <time>2011-07-24T07:11:01Z</time>
      </trkpt>
      <trkpt lat="46.05832" lon="6.38362">
        <ele>476</ele>
        <time>2011-07-24T07:11:02Z</time>
      </trkpt>
      <trkpt lat="46.05828" lon="6.38381">
        <ele>476</ele>
        <time>2011-07-24T07:11:03Z</time>
      </trkpt>
      <trkpt lat="46.05824" lon="6.38401">
        <ele>476</ele>
        <time>2011-07-24T07:11:04Z</time>
      </trkpt>
      <trkpt lat="46.05823" lon="6.38421">
        <ele>476</ele>
        <time>2011-07-24T07:11:05Z</time>
      </trkpt>
      <trkpt lat="46.05821" lon="6.38443">
        <ele>476</ele>
        <time>2011-07-24T07:11:06Z</time>
      </trkpt>
      <trkpt lat="46.05821" lon="6.38464">
        <ele>476</ele>
        <time>2011-07-24T07:11:07Z</time>
      </trkpt>
      <trkpt lat="46.05821" lon="6.38488">
        <ele>476</ele>
        <time>2011-07-24T07:11:08Z</time>
      </trkpt>
      <trkpt lat="46.05823" lon="6.38512">
        <ele>476</ele>
        <time>2011-07-24T07:11:09Z</time>
      </trkpt>
      <trkpt lat="46.05824" lon="6.38537">
        <ele>476</ele>
        <time>2011-07-24T07:11:10Z</time>
      </trkpt>
      <trkpt lat="46.05828" lon="6.38562">
        <ele>476</ele>
        <time>2011-07-24T07:11:11Z</time>
      </trkpt>
      <trkpt lat="46.05832" lon="6.38588">
        <ele>476</ele>
        <time>2011-07-24T07:11:12Z</time>
      </trkpt>
      <trkpt lat="46.05838" lon="6.38613">
        <ele>476</ele>
        <time>2011-07-24T07:11:13Z</time>
      </trkpt>
      <trkpt lat="46.05845" lon="6.38639">
        <ele>476</ele>
        <time>2011-07-24T07:11:14Z</time>
      </trkpt>
      <trkpt lat="46.05853" lon="6.38664">
        <ele>476</ele>
        <time>2011-07-24T07:11:15Z</time>
      </trkpt>
      <trkpt lat="46.0586" lon="6.3869">
        <ele>476</ele>
        <time>2011-07-24T07:11:16Z</time>
      </trkpt>
      <trkpt lat="46.05867" lon="6.38715">
        <ele>476</ele>
        <time>2011-07-24T07:11:17Z</time>
      </trkpt>
      <trkpt lat="46.05874" lon="6.3874">
        <ele>476</ele>
        <time>2011-07-24T07:11:18Z</time>
      </trkpt>
      <trkpt lat="46.05881" lon="6.38764">
        <ele>476</ele>
        <time>2011-07-24T07:11:19Z</time>
      </trkpt>
      <trkpt lat="46.05889" lon="6.38788">
        <ele>476</ele>
        <time>2011-07-24T07:11:20Z</time>
      </trkpt>
      <trkpt lat="46.05899" lon="6.38812">
        <ele>476</ele>
        <time>2011-07-24T07:11:21Z</time>
      </trkpt>
      <trkpt lat="46.05911" lon="6.38835">
        <ele>476</ele>
        <time>2011-07-24T07:11:22Z</time>
      </trkpt>
      <trkpt lat="46.05925" lon="6.38858">
        <ele>476</ele>
        <time>2011-07-24T07:11:23Z</time>
      </trkpt>
      <trkpt lat="46.05939" lon="6.38879">
        <ele>476</ele>
        <time>2011-07-24T07:11:24Z</time>
      </trkpt>
      <trkpt lat="46.05953" lon="6.389">
        <ele>476</ele>
        <time>2011-07-24T07:11:25Z</time>
      </trkpt>
      <trkpt lat="46.05965" lon="6.38918">
        <ele>476</ele>
        <time>2011-07-24T07:11:26Z</time>
      </trkpt>
      <trkpt lat="46.05975" lon="6.38935">
        <ele>476</ele>
        <time>2011-07-24T07:11:27Z</time>
      </trkpt>
      <trkpt lat="46.05985" lon="6.3895">
        <ele>476</ele>
        <time>2011-07-24T07:11:28Z</time>
      </trkpt>
      <trkpt lat="46.05993" lon="6.38965">
        <ele>476</ele>
        <time>2011-07-24T07:11:29Z</time>
      </trkpt>
      <trkpt lat="46.06002" lon="6.38978">
        <ele>471</ele>
        <time>2011-07-24T07:11:30Z</time>
      </trkpt>
      <trkpt lat="46.0601" lon="6.38992">
        <ele>471</ele>
        <time>2011-07-24T07:11:31Z</time>
      </trkpt>
      <trkpt lat="46.06018" lon="6.39008">
        <ele>471</ele>
        <time>2011-07-24T07:11:32Z</time>
      </trkpt>
      <trkpt lat="46.06026" lon="6.39023">
        <ele>471</ele>
        <time>2011-07-24T07:11:33Z</time>
      </trkpt>
      <trkpt lat="46.06035" lon="6.3904">
        <ele>471</ele>
        <time>2011-07-24T07:11:34Z</time>
      </trkpt>
      <trkpt lat="46.06046" lon="6.39055">
        <ele>471</ele>
        <time>2011-07-24T07:11:35Z</time>
      </trkpt>
      <trkpt lat="46.06058" lon="6.39071">
        <ele>471</ele>
        <time>2011-07-24T07:11:36Z</time>
      </trkpt>
      <trkpt lat="46.06072" lon="6.39085">
        <ele>471</ele>
        <time>2011-07-24T07:11:37Z</time>
      </trkpt>
      <trkpt lat="46.06087" lon="6.39097">
        <ele>471</ele>
        <time>2011-07-24T07:11:38Z</time>
      </trkpt>
      <trkpt lat="46.06101" lon="6.3911">
        <ele>471</ele>
        <time>2011-07-24T07:11:39Z</time>
      </trkpt>
      <trkpt lat="46.06115" lon="6.39124">
        <ele>471</ele>
        <time>2011-07-24T07:11:40Z</time>
      </trkpt>
      <trkpt lat="46.06128" lon="6.39139">
        <ele>471</ele>
        <time>2011-07-24T07:11:41Z</time>
      </trkpt>
      <trkpt lat="46.0614" lon="6.39156">
        <ele>471</ele>
        <time>2011-07-24T07:11:42Z</time>
      </trkpt>
      <trkpt lat="46.06152" lon="6.39176">
        <ele>471</ele>
        <time>2011-07-24T07:11:43Z</time>
      </trkpt>
      <trkpt lat="46.06162" lon="6.39196">
        <ele>471</ele>
        <time>2011-07-24T07:11:44Z</time>
      </trkpt>
      <trkpt lat="46.06172" lon="6.39217">
        <ele>471</ele>
        <time>2011-07-24T07:11:45Z</time>
      </trkpt>
      <trkpt lat="46.0618" lon="6.39237">
        <ele>471</ele>
        <time>2011-07-24T07:11:46Z</time>
      </trkpt>
      <trkpt lat="46.06187" lon="6.39255">
        <ele>471</ele>
        <time>2011-07-24T07:11:47Z</time>
      </trkpt>
      <trkpt lat="46.06194" lon="6.39272">
        <ele>471</ele>
        <time>2011-07-24T07:11:48Z</time>
      </trkpt>
      <trkpt lat="46.062" lon="6.39287">
        <ele>471</ele>
        <time>2011-07-24T07:11:49Z</time>
      </trkpt>
      <trkpt lat="46.06206" lon="6.393">
        <ele>471</ele>
        <time>2011-07-24T07:11:50Z</time>
      </trkpt>
      <trkpt lat="46.06211" lon="6.39313">
        <ele>471</ele>
        <time>2011-07-24T07:11:51Z</time>
      </trkpt>
      <trkpt lat="46.06219" lon="6.39332">
        <ele>471</ele>
        <time>2011-07-24T07:11:53Z</time>
      </trkpt>
      <trkpt lat="46.06219" lon="6.39346">
        <ele>465</ele>
        <time>2011-07-24T07:11:55Z</time>
      </trkpt>
      <trkpt lat="46.0621" lon="6.39356">
        <ele>465</ele>
        <time>2011-07-24T07:11:57Z</time>
      </trkpt>
      <trkpt lat="46.062" lon="6.3936">
        <ele>465</ele>
        <time>2011-07-24T07:11:58Z</time>
      </trkpt>
      <trkpt lat="46.06189" lon="6.39362">
        <ele>465</ele>
        <time>2011-07-24T07:11:59Z</time>
      </trkpt>
      <trkpt lat="46.06177" lon="6.39364">
        <ele>465</ele>
        <time>2011-07-24T07:12:00Z</time>
      </trkpt>
      <trkpt lat="46.06165" lon="6.39368">
        <ele>465</ele>
        <time>2011-07-24T07:12:01Z</time>
      </trkpt>
      <trkpt lat="46.06154" lon="6.39371">
        <ele>465</ele>
        <time>2011-07-24T07:12:02Z</time>
      </trkpt>
      <trkpt lat="46.06143" lon="6.39375">
        <ele>465</ele>
        <time>2011-07-24T07:12:03Z</time>
      </trkpt>
      <trkpt lat="46.06133" lon="6.39378">
        <ele>465</ele>
        <time>2011-07-24T07:12:04Z</time>
      </trkpt>
      <trkpt lat="46.06123" lon="6.3938">
        <ele>465</ele>
        <time>2011-07-24T07:12:05Z</time>
      </trkpt>
      <trkpt lat="46.06112" lon="6.3938">
        <ele>465</ele>
        <time>2011-07-24T07:12:06Z</time>
      </trkpt>
      <trkpt lat="46.06102" lon="6.3938">
        <ele>460</ele>
        <time>2011-07-24T07:12:07Z</time>
      </trkpt>
      <trkpt lat="46.06092" lon="6.3938">
        <ele>460</ele>
        <time>2011-07-24T07:12:08Z</time>
      </trkpt>
      <trkpt lat="46.06082" lon="6.39378">
        <ele>460</ele>
        <time>2011-07-24T07:12:09Z</time>
      </trkpt>
      <trkpt lat="46.06072" lon="6.39376">
        <ele>460</ele>
        <time>2011-07-24T07:12:10Z</time>
      </trkpt>
      <trkpt lat="46.06058" lon="6.39371">
        <ele>460</ele>
        <time>2011-07-24T07:12:12Z</time>
      </trkpt>
      <trkpt lat="46.06046" lon="6.39367">
        <ele>460</ele>
        <time>2011-07-24T07:12:14Z</time>
      </trkpt>
      <trkpt lat="46.06037" lon="6.39371">
        <ele>460</ele>
        <time>2011-07-24T07:12:16Z</time>
      </trkpt>
      <trkpt lat="46.06036" lon="6.39389">
        <ele>460</ele>
        <time>2011-07-24T07:12:18Z</time>
      </trkpt>
      <trkpt lat="46.06039" lon="6.39415">
        <ele>460</ele>
        <time>2011-07-24T07:12:20Z</time>
      </trkpt>
      <trkpt lat="46.06042" lon="6.3943">
        <ele>460</ele>
        <time>2011-07-24T07:12:21Z</time>
      </trkpt>
      <trkpt lat="46.06043" lon="6.39444">
        <ele>460</ele>
        <time>2011-07-24T07:12:22Z</time>
      </trkpt>
      <trkpt lat="46.06045" lon="6.39459">
        <ele>460</ele>
        <time>2011-07-24T07:12:23Z</time>
      </trkpt>
      <trkpt lat="46.06046" lon="6.39474">
        <ele>460</ele>
        <time>2011-07-24T07:12:24Z</time>
      </trkpt>
      <trkpt lat="46.06046" lon="6.39488">
        <ele>460</ele>
        <time>2011-07-24T07:12:25Z</time>
      </trkpt>
      <trkpt lat="46.06045" lon="6.39502">
        <ele>460</ele>
        <time>2011-07-24T07:12:26Z</time>
      </trkpt>
      <trkpt lat="46.06043" lon="6.39516">
        <ele>460</ele>
        <time>2011-07-24T07:12:27Z</time>
      </trkpt>
      <trkpt lat="46.06043" lon="6.3953">
        <ele>460</ele>
        <time>2011-07-24T07:12:28Z</time>
      </trkpt>
      <trkpt lat="46.06041" lon="6.39544">
        <ele>460</ele>
        <time>2011-07-24T07:12:29Z</time>
      </trkpt>
      <trkpt lat="46.06037" lon="6.39567">
        <ele>460</ele>
        <time>2011-07-24T07:12:31Z</time>
      </trkpt>
      <trkpt lat="46.06033" lon="6.39585">
        <ele>460</ele>
        <time>2011-07-24T07:12:33Z</time>
      </trkpt>
      <trkpt lat="46.06026" lon="6.39598">
        <ele>460</ele>
        <time>2011-07-24T07:12:36Z</time>
      </trkpt>
      <trkpt lat="46.06016" lon="6.39601">
        <ele>460</ele>
        <time>2011-07-24T07:12:38Z</time>
      </trkpt>
      <trkpt lat="46.06005" lon="6.39604">
        <ele>460</ele>
        <time>2011-07-24T07:12:40Z</time>
      </trkpt>
      <trkpt lat="46.05996" lon="6.39617">
        <ele>460</ele>
        <time>2011-07-24T07:12:42Z</time>
      </trkpt>
      <trkpt lat="46.05989" lon="6.39643">
        <ele>465</ele>
        <time>2011-07-24T07:12:44Z</time>
      </trkpt>
      <trkpt lat="46.05984" lon="6.39654">
        <ele>465</ele>
        <time>2011-07-24T07:12:45Z</time>
      </trkpt>
      <trkpt lat="46.0598" lon="6.39667">
        <ele>465</ele>
        <time>2011-07-24T07:12:46Z</time>
      </trkpt>
      <trkpt lat="46.05977" lon="6.3968">
        <ele>465</ele>
        <time>2011-07-24T07:12:47Z</time>
      </trkpt>
      <trkpt lat="46.05971" lon="6.39694">
        <ele>465</ele>
        <time>2011-07-24T07:12:48Z</time>
      </trkpt>
      <trkpt lat="46.05966" lon="6.39707">
        <ele>465</ele>
        <time>2011-07-24T07:12:49Z</time>
      </trkpt>
      <trkpt lat="46.05961" lon="6.39721">
        <ele>465</ele>
        <time>2011-07-24T07:12:50Z</time>
      </trkpt>
      <trkpt lat="46.05958" lon="6.39733">
        <ele>465</ele>
        <time>2011-07-24T07:12:51Z</time>
      </trkpt>
      <trkpt lat="46.05953" lon="6.39757">
        <ele>465</ele>
        <time>2011-07-24T07:12:53Z</time>
      </trkpt>
      <trkpt lat="46.05948" lon="6.39793">
        <ele>465</ele>
        <time>2011-07-24T07:12:56Z</time>
      </trkpt>
      <trkpt lat="46.05953" lon="6.39806">
        <ele>465</ele>
        <time>2011-07-24T07:12:57Z</time>
      </trkpt>
      <trkpt lat="46.05958" lon="6.39827">
        <ele>465</ele>
        <time>2011-07-24T07:12:59Z</time>
      </trkpt>
      <trkpt lat="46.05963" lon="6.39848">
        <ele>465</ele>
        <time>2011-07-24T07:13:01Z</time>
      </trkpt>
      <trkpt lat="46.05965" lon="6.3987">
        <ele>471</ele>
        <time>2011-07-24T07:13:03Z</time>
      </trkpt>
      <trkpt lat="46.05968" lon="6.3991">
        <ele>471</ele>
        <time>2011-07-24T07:13:06Z</time>
      </trkpt>
      <trkpt lat="46.0597" lon="6.39928">
        <ele>471</ele>
        <time>2011-07-24T07:13:07Z</time>
      </trkpt>
      <trkpt lat="46.05971" lon="6.39943">
        <ele>471</ele>
        <time>2011-07-24T07:13:08Z</time>
      </trkpt>
      <trkpt lat="46.05968" lon="6.39964">
        <ele>464</ele>
        <time>2011-07-24T07:13:10Z</time>
      </trkpt>
      <trkpt lat="46.05968" lon="6.39978">
        <ele>464</ele>
        <time>2011-07-24T07:13:11Z</time>
      </trkpt>
      <trkpt lat="46.05965" lon="6.40001">
        <ele>464</ele>
        <time>2011-07-24T07:13:13Z</time>
      </trkpt>
      <trkpt lat="46.05968" lon="6.40025">
        <ele>464</ele>
        <time>2011-07-24T07:13:15Z</time>
      </trkpt>
      <trkpt lat="46.0597" lon="6.40038">
        <ele>464</ele>
        <time>2011-07-24T07:13:16Z</time>
      </trkpt>
      <trkpt lat="46.05973" lon="6.40051">
        <ele>464</ele>
        <time>2011-07-24T07:13:17Z</time>
      </trkpt>
      <trkpt lat="46.05977" lon="6.40063">
        <ele>464</ele>
        <time>2011-07-24T07:13:18Z</time>
      </trkpt>
      <trkpt lat="46.05984" lon="6.40085">
        <ele>459</ele>
        <time>2011-07-24T07:13:20Z</time>
      </trkpt>
      <trkpt lat="46.05988" lon="6.40104">
        <ele>459</ele>
        <time>2011-07-24T07:13:22Z</time>
      </trkpt>
      <trkpt lat="46.0599" lon="6.40122">
        <ele>459</ele>
        <time>2011-07-24T07:13:24Z</time>
      </trkpt>
      <trkpt lat="46.05992" lon="6.40143">
        <ele>459</ele>
        <time>2011-07-24T07:13:26Z</time>
      </trkpt>
      <trkpt lat="46.05998" lon="6.40166">
        <ele>465</ele>
        <time>2011-07-24T07:13:28Z</time>
      </trkpt>
      <trkpt lat="46.05997" lon="6.40223">
        <ele>465</ele>
        <time>2011-07-24T07:13:33Z</time>
      </trkpt>
      <trkpt lat="46.05992" lon="6.40235">
        <ele>465</ele>
        <time>2011-07-24T07:13:34Z</time>
      </trkpt>
      <trkpt lat="46.0599" lon="6.40252">
        <ele>471</ele>
        <time>2011-07-24T07:13:36Z</time>
      </trkpt>
      <trkpt lat="46.05991" lon="6.40269">
        <ele>471</ele>
        <time>2011-07-24T07:13:38Z</time>
      </trkpt>
      <trkpt lat="46.05993" lon="6.40288">
        <ele>471</ele>
        <time>2011-07-24T07:13:40Z</time>
      </trkpt>
      <trkpt lat="46.05992" lon="6.40305">
        <ele>471</ele>
        <time>2011-07-24T07:13:42Z</time>
      </trkpt>
      <trkpt lat="46.05998" lon="6.40318">
        <ele>471</ele>
        <time>2011-07-24T07:13:44Z</time>
      </trkpt>
      <trkpt lat="46.06003" lon="6.4033">
        <ele>471</ele>
        <time>2011-07-24T07:13:46Z</time>
      </trkpt>
      <trkpt lat="46.06008" lon="6.40343">
        <ele>471</ele>
        <time>2011-07-24T07:13:48Z</time>
      </trkpt>
      <trkpt lat="46.06028" lon="6.40375">
        <ele>471</ele>
        <time>2011-07-24T07:13:53Z</time>
      </trkpt>
      <trkpt lat="46.06036" lon="6.40388">
        <ele>471</ele>
        <time>2011-07-24T07:13:54Z</time>
      </trkpt>
      <trkpt lat="46.06043" lon="6.40397">
        <ele>471</ele>
        <time>2011-07-24T07:13:55Z</time>
      </trkpt>
      <trkpt lat="46.06045" lon="6.40416">
        <ele>471</ele>
        <time>2011-07-24T07:13:57Z</time>
      </trkpt>
      <trkpt lat="46.06048" lon="6.4044">
        <ele>471</ele>
        <time>2011-07-24T07:13:59Z</time>
      </trkpt>
      <trkpt lat="46.06053" lon="6.40463">
        <ele>471</ele>
        <time>2011-07-24T07:14:01Z</time>
      </trkpt>
      <trkpt lat="46.06061" lon="6.40484">
        <ele>471</ele>
        <time>2011-07-24T07:14:03Z</time>
      </trkpt>
      <trkpt lat="46.06067" lon="6.40504">
        <ele>471</ele>
        <time>2011-07-24T07:14:05Z</time>
      </trkpt>
      <trkpt lat="46.06074" lon="6.40521">
        <ele>471</ele>
        <time>2011-07-24T07:14:07Z</time>
      </trkpt>
      <trkpt lat="46.06078" lon="6.4054">
        <ele>471</ele>
        <time>2011-07-24T07:14:09Z</time>
      </trkpt>
      <trkpt lat="46.06083" lon="6.40559">
        <ele>471</ele>
        <time>2011-07-24T07:14:11Z</time>
      </trkpt>
      <trkpt lat="46.06091" lon="6.40576">
        <ele>471</ele>
        <time>2011-07-24T07:14:13Z</time>
      </trkpt>
      <trkpt lat="46.06095" lon="6.40593">
        <ele>471</ele>
        <time>2011-07-24T07:14:15Z</time>
      </trkpt>
      <trkpt lat="46.06092" lon="6.4061">
        <ele>471</ele>
        <time>2011-07-24T07:14:17Z</time>
      </trkpt>
      <trkpt lat="46.06092" lon="6.40624">
        <ele>471</ele>
        <time>2011-07-24T07:14:19Z</time>
      </trkpt>
      <trkpt lat="46.06095" lon="6.40642">
        <ele>471</ele>
        <time>2011-07-24T07:14:21Z</time>
      </trkpt>
      <trkpt lat="46.06096" lon="6.40669">
        <ele>471</ele>
        <time>2011-07-24T07:14:23Z</time>
      </trkpt>
      <trkpt lat="46.06095" lon="6.40693">
        <ele>471</ele>
        <time>2011-07-24T07:14:25Z</time>
      </trkpt>
      <trkpt lat="46.06098" lon="6.40712">
        <ele>471</ele>
        <time>2011-07-24T07:14:27Z</time>
      </trkpt>
      <trkpt lat="46.06103" lon="6.40724">
        <ele>471</ele>
        <time>2011-07-24T07:14:29Z</time>
      </trkpt>
      <trkpt lat="46.06108" lon="6.40738">
        <ele>471</ele>
        <time>2011-07-24T07:14:32Z</time>
      </trkpt>
      <trkpt lat="46.0611" lon="6.40759">
        <ele>465</ele>
        <time>2011-07-24T07:14:35Z</time>
      </trkpt>
      <trkpt lat="46.06112" lon="6.4078">
        <ele>465</ele>
        <time>2011-07-24T07:14:37Z</time>
      </trkpt>
      <trkpt lat="46.06114" lon="6.40793">
        <ele>465</ele>
        <time>2011-07-24T07:14:38Z</time>
      </trkpt>
      <trkpt lat="46.0612" lon="6.40813">
        <ele>465</ele>
        <time>2011-07-24T07:14:40Z</time>
      </trkpt>
      <trkpt lat="46.06122" lon="6.40831">
        <ele>465</ele>
        <time>2011-07-24T07:14:42Z</time>
      </trkpt>
      <trkpt lat="46.06123" lon="6.4085">
        <ele>465</ele>
        <time>2011-07-24T07:14:44Z</time>
      </trkpt>
      <trkpt lat="46.06127" lon="6.40869">
        <ele>465</ele>
        <time>2011-07-24T07:14:46Z</time>
      </trkpt>
      <trkpt lat="46.06125" lon="6.40889">
        <ele>465</ele>
        <time>2011-07-24T07:14:48Z</time>
      </trkpt>
      <trkpt lat="46.06127" lon="6.40908">
        <ele>465</ele>
        <time>2011-07-24T07:14:50Z</time>
      </trkpt>
      <trkpt lat="46.0613" lon="6.40927">
        <ele>459</ele>
        <time>2011-07-24T07:14:52Z</time>
      </trkpt>
      <trkpt lat="46.06136" lon="6.40964">
        <ele>459</ele>
        <time>2011-07-24T07:14:56Z</time>
      </trkpt>
      <trkpt lat="46.06139" lon="6.40981">
        <ele>459</ele>
        <time>2011-07-24T07:14:58Z</time>
      </trkpt>
      <trkpt lat="46.06145" lon="6.40997">
        <ele>448</ele>
        <time>2011-07-24T07:15:01Z</time>
      </trkpt>
      <trkpt lat="46.06147" lon="6.41011">
        <ele>448</ele>
        <time>2011-07-24T07:15:03Z</time>
      </trkpt>
      <trkpt lat="46.06152" lon="6.41023">
        <ele>459</ele>
        <time>2011-07-24T07:15:09Z</time>
      </trkpt>
      <trkpt lat="46.0615" lon="6.41039">
        <ele>459</ele>
        <time>2011-07-24T07:15:26Z</time>
      </trkpt>
      <trkpt lat="46.06149" lon="6.4106">
        <ele>459</ele>
        <time>2011-07-24T07:15:28Z</time>
      </trkpt>
      <trkpt lat="46.0615" lon="6.41074">
        <ele>459</ele>
        <time>2011-07-24T07:15:29Z</time>
      </trkpt>
      <trkpt lat="46.06155" lon="6.41102">
        <ele>465</ele>
        <time>2011-07-24T07:15:31Z</time>
      </trkpt>
      <trkpt lat="46.06158" lon="6.41129">
        <ele>465</ele>
        <time>2011-07-24T07:15:33Z</time>
      </trkpt>
      <trkpt lat="46.06155" lon="6.41154">
        <ele>465</ele>
        <time>2011-07-24T07:15:35Z</time>
      </trkpt>
      <trkpt lat="46.06153" lon="6.41175">
        <ele>465</ele>
        <time>2011-07-24T07:15:37Z</time>
      </trkpt>
      <trkpt lat="46.06157" lon="6.41189">
        <ele>465</ele>
        <time>2011-07-24T07:15:38Z</time>
      </trkpt>
      <trkpt lat="46.06161" lon="6.41211">
        <ele>465</ele>
        <time>2011-07-24T07:15:40Z</time>
      </trkpt>
      <trkpt lat="46.06168" lon="6.41228">
        <ele>465</ele>
        <time>2011-07-24T07:15:42Z</time>
      </trkpt>
      <trkpt lat="46.06177" lon="6.41244">
        <ele>465</ele>
        <time>2011-07-24T07:15:44Z</time>
      </trkpt>
      <trkpt lat="46.0618" lon="6.41262">
        <ele>465</ele>
        <time>2011-07-24T07:15:46Z</time>
      </trkpt>
      <trkpt lat="46.06181" lon="6.4128">
        <ele>465</ele>
        <time>2011-07-24T07:15:48Z</time>
      </trkpt>
      <trkpt lat="46.06181" lon="6.41297">
        <ele>465</ele>
        <time>2011-07-24T07:15:50Z</time>
      </trkpt>
      <trkpt lat="46.06185" lon="6.41365">
        <ele>465</ele>
        <time>2011-07-24T07:15:57Z</time>
      </trkpt>
      <trkpt lat="46.06188" lon="6.41388">
        <ele>465</ele>
        <time>2011-07-24T07:15:59Z</time>
      </trkpt>
      <trkpt lat="46.06192" lon="6.41408">
        <ele>465</ele>
        <time>2011-07-24T07:16:01Z</time>
      </trkpt>
      <trkpt lat="46.06195" lon="6.41428">
        <ele>473</ele>
        <time>2011-07-24T07:16:03Z</time>
      </trkpt>
      <trkpt lat="46.06195" lon="6.41448">
        <ele>473</ele>
        <time>2011-07-24T07:16:05Z</time>
      </trkpt>
      <trkpt lat="46.06199" lon="6.41468">
        <ele>473</ele>
        <time>2011-07-24T07:16:07Z</time>
      </trkpt>
      <trkpt lat="46.06202" lon="6.41488">
        <ele>473</ele>
        <time>2011-07-24T07:16:09Z</time>
      </trkpt>
      <trkpt lat="46.06207" lon="6.41503">
        <ele>473</ele>
        <time>2011-07-24T07:16:11Z</time>
      </trkpt>
      <trkpt lat="46.06211" lon="6.41518">
        <ele>473</ele>
        <time>2011-07-24T07:16:13Z</time>
      </trkpt>
      <trkpt lat="46.06214" lon="6.41536">
        <ele>473</ele>
        <time>2011-07-24T07:16:15Z</time>
      </trkpt>
      <trkpt lat="46.06217" lon="6.41553">
        <ele>473</ele>
        <time>2011-07-24T07:16:17Z</time>
      </trkpt>
      <trkpt lat="46.06217" lon="6.41569">
        <ele>473</ele>
        <time>2011-07-24T07:16:20Z</time>
      </trkpt>
      <trkpt lat="46.06218" lon="6.41584">
        <ele>473</ele>
        <time>2011-07-24T07:16:24Z</time>
      </trkpt>
      <trkpt lat="46.06217" lon="6.416">
        <ele>482</ele>
        <time>2011-07-24T07:16:29Z</time>
      </trkpt>
      <trkpt lat="46.06218" lon="6.4162">
        <ele>482</ele>
        <time>2011-07-24T07:16:32Z</time>
      </trkpt>
      <trkpt lat="46.06214" lon="6.41639">
        <ele>482</ele>
        <time>2011-07-24T07:16:34Z</time>
      </trkpt>
      <trkpt lat="46.06212" lon="6.41659">
        <ele>482</ele>
        <time>2011-07-24T07:16:36Z</time>
      </trkpt>
      <trkpt lat="46.06212" lon="6.41679">
        <ele>489</ele>
        <time>2011-07-24T07:16:38Z</time>
      </trkpt>
      <trkpt lat="46.06211" lon="6.41698">
        <ele>489</ele>
        <time>2011-07-24T07:16:40Z</time>
      </trkpt>
      <trkpt lat="46.06215" lon="6.41718">
        <ele>489</ele>
        <time>2011-07-24T07:16:44Z</time>
      </trkpt>
      <trkpt lat="46.06216" lon="6.41736">
        <ele>489</ele>
        <time>2011-07-24T07:16:46Z</time>
      </trkpt>
      <trkpt lat="46.06219" lon="6.41756">
        <ele>489</ele>
        <time>2011-07-24T07:16:48Z</time>
      </trkpt>
      <trkpt lat="46.06225" lon="6.4178">
        <ele>489</ele>
        <time>2011-07-24T07:16:50Z</time>
      </trkpt>
      <trkpt lat="46.0623" lon="6.41801">
        <ele>489</ele>
        <time>2011-07-24T07:16:52Z</time>
      </trkpt>
      <trkpt lat="46.06236" lon="6.41819">
        <ele>489</ele>
        <time>2011-07-24T07:16:54Z</time>
      </trkpt>
      <trkpt lat="46.0624" lon="6.41836">
        <ele>489</ele>
        <time>2011-07-24T07:16:56Z</time>
      </trkpt>
      <trkpt lat="46.06239" lon="6.41855">
        <ele>489</ele>
        <time>2011-07-24T07:16:58Z</time>
      </trkpt>
      <trkpt lat="46.06235" lon="6.41871">
        <ele>489</ele>
        <time>2011-07-24T07:17:00Z</time>
      </trkpt>
      <trkpt lat="46.06234" lon="6.41889">
        <ele>483</ele>
        <time>2011-07-24T07:17:02Z</time>
      </trkpt>
      <trkpt lat="46.06234" lon="6.41912">
        <ele>478</ele>
        <time>2011-07-24T07:17:04Z</time>
      </trkpt>
      <trkpt lat="46.06235" lon="6.41934">
        <ele>478</ele>
        <time>2011-07-24T07:17:06Z</time>
      </trkpt>
      <trkpt lat="46.06242" lon="6.41954">
        <ele>473</ele>
        <time>2011-07-24T07:17:08Z</time>
      </trkpt>
      <trkpt lat="46.06247" lon="6.41969">
        <ele>473</ele>
        <time>2011-07-24T07:17:10Z</time>
      </trkpt>
      <trkpt lat="46.06249" lon="6.41989">
        <ele>473</ele>
        <time>2011-07-24T07:17:12Z</time>
      </trkpt>
      <trkpt lat="46.06251" lon="6.42009">
        <ele>464</ele>
        <time>2011-07-24T07:17:14Z</time>
      </trkpt>
      <trkpt lat="46.06255" lon="6.42027">
        <ele>464</ele>
        <time>2011-07-24T07:17:16Z</time>
      </trkpt>
      <trkpt lat="46.0626" lon="6.42046">
        <ele>464</ele>
        <time>2011-07-24T07:17:18Z</time>
      </trkpt>
      <trkpt lat="46.06265" lon="6.42065">
        <ele>464</ele>
        <time>2011-07-24T07:17:20Z</time>
      </trkpt>
      <trkpt lat="46.0627" lon="6.4208">
        <ele>464</ele>
        <time>2011-07-24T07:17:22Z</time>
      </trkpt>
      <trkpt lat="46.06269" lon="6.42099">
        <ele>459</ele>
        <time>2011-07-24T07:17:24Z</time>
      </trkpt>
      <trkpt lat="46.0627" lon="6.42119">
        <ele>459</ele>
        <time>2011-07-24T07:17:26Z</time>
      </trkpt>
      <trkpt lat="46.0627" lon="6.42139">
        <ele>459</ele>
        <time>2011-07-24T07:17:28Z</time>
      </trkpt>
      <trkpt lat="46.06275" lon="6.42161">
        <ele>459</ele>
        <time>2011-07-24T07:17:30Z</time>
      </trkpt>
      <trkpt lat="46.06279" lon="6.42182">
        <ele>459</ele>
        <time>2011-07-24T07:17:32Z</time>
      </trkpt>
      <trkpt lat="46.06283" lon="6.42199">
        <ele>459</ele>
        <time>2011-07-24T07:17:34Z</time>
      </trkpt>
      <trkpt lat="46.06286" lon="6.42214">
        <ele>459</ele>
        <time>2011-07-24T07:17:36Z</time>
      </trkpt>
      <trkpt lat="46.06291" lon="6.42233">
        <ele>459</ele>
        <time>2011-07-24T07:17:38Z</time>
      </trkpt>
      <trkpt lat="46.06296" lon="6.42253">
        <ele>459</ele>
        <time>2011-07-24T07:17:40Z</time>
      </trkpt>
      <trkpt lat="46.063" lon="6.42273">
        <ele>459</ele>
        <time>2011-07-24T07:17:42Z</time>
      </trkpt>
      <trkpt lat="46.06309" lon="6.42295">
        <ele>459</ele>
        <time>2011-07-24T07:17:44Z</time>
      </trkpt>
      <trkpt lat="46.06314" lon="6.42312">
        <ele>459</ele>
        <time>2011-07-24T07:17:46Z</time>
      </trkpt>
      <trkpt lat="46.06313" lon="6.42326">
        <ele>465</ele>
        <time>2011-07-24T07:18:09Z</time>
      </trkpt>
      <trkpt lat="46.06313" lon="6.42342">
        <ele>465</ele>
        <time>2011-07-24T07:18:11Z</time>
      </trkpt>
      <trkpt lat="46.06314" lon="6.42363">
        <ele>465</ele>
        <time>2011-07-24T07:18:13Z</time>
      </trkpt>
      <trkpt lat="46.06318" lon="6.42385">
        <ele>465</ele>
        <time>2011-07-24T07:18:15Z</time>
      </trkpt>
      <trkpt lat="46.06325" lon="6.42405">
        <ele>465</ele>
        <time>2011-07-24T07:18:17Z</time>
      </trkpt>
      <trkpt lat="46.06325" lon="6.42421">
        <ele>465</ele>
        <time>2011-07-24T07:18:19Z</time>
      </trkpt>
      <trkpt lat="46.06326" lon="6.4244">
        <ele>465</ele>
        <time>2011-07-24T07:18:21Z</time>
      </trkpt>
      <trkpt lat="46.06326" lon="6.42458">
        <ele>465</ele>
        <time>2011-07-24T07:18:23Z</time>
      </trkpt>
      <trkpt lat="46.06327" lon="6.42477">
        <ele>465</ele>
        <time>2011-07-24T07:18:25Z</time>
      </trkpt>
      <trkpt lat="46.06331" lon="6.42497">
        <ele>465</ele>
        <time>2011-07-24T07:18:27Z</time>
      </trkpt>
      <trkpt lat="46.06334" lon="6.42517">
        <ele>465</ele>
        <time>2011-07-24T07:18:29Z</time>
      </trkpt>
      <trkpt lat="46.0634" lon="6.42535">
        <ele>465</ele>
        <time>2011-07-24T07:18:31Z</time>
      </trkpt>
      <trkpt lat="46.06349" lon="6.42553">
        <ele>465</ele>
        <time>2011-07-24T07:18:33Z</time>
      </trkpt>
      <trkpt lat="46.06357" lon="6.42572">
        <ele>465</ele>
        <time>2011-07-24T07:18:35Z</time>
      </trkpt>
      <trkpt lat="46.06365" lon="6.42592">
        <ele>465</ele>
        <time>2011-07-24T07:18:37Z</time>
      </trkpt>
      <trkpt lat="46.0637" lon="6.42613">
        <ele>465</ele>
        <time>2011-07-24T07:18:39Z</time>
      </trkpt>
      <trkpt lat="46.06377" lon="6.42632">
        <ele>465</ele>
        <time>2011-07-24T07:18:41Z</time>
      </trkpt>
      <trkpt lat="46.06388" lon="6.4265">
        <ele>458</ele>
        <time>2011-07-24T07:18:43Z</time>
      </trkpt>
      <trkpt lat="46.064" lon="6.42675">
        <ele>458</ele>
        <time>2011-07-24T07:18:46Z</time>
      </trkpt>
      <trkpt lat="46.06407" lon="6.42684">
        <ele>458</ele>
        <time>2011-07-24T07:18:47Z</time>
      </trkpt>
      <trkpt lat="46.06404" lon="6.42709">
        <ele>458</ele>
        <time>2011-07-24T07:18:49Z</time>
      </trkpt>
      <trkpt lat="46.064" lon="6.42728">
        <ele>458</ele>
        <time>2011-07-24T07:18:51Z</time>
      </trkpt>
      <trkpt lat="46.06399" lon="6.42751">
        <ele>458</ele>
        <time>2011-07-24T07:18:53Z</time>
      </trkpt>
      <trkpt lat="46.064" lon="6.42771">
        <ele>458</ele>
        <time>2011-07-24T07:18:55Z</time>
      </trkpt>
      <trkpt lat="46.064" lon="6.42794">
        <ele>458</ele>
        <time>2011-07-24T07:18:57Z</time>
      </trkpt>
      <trkpt lat="46.06401" lon="6.42825">
        <ele>458</ele>
        <time>2011-07-24T07:19:00Z</time>
      </trkpt>
      <trkpt lat="46.06409" lon="6.42834">
        <ele>458</ele>
        <time>2011-07-24T07:19:04Z</time>
      </trkpt>
      <trkpt lat="46.06419" lon="6.42828">
        <ele>458</ele>
        <time>2011-07-24T07:19:06Z</time>
      </trkpt>
      <trkpt lat="46.06431" lon="6.42816">
        <ele>458</ele>
        <time>2011-07-24T07:19:08Z</time>
      </trkpt>
      <trkpt lat="46.06441" lon="6.42812">
        <ele>464</ele>
        <time>2011-07-24T07:19:10Z</time>
      </trkpt>
      <trkpt lat="46.06453" lon="6.42813">
        <ele>464</ele>
        <time>2011-07-24T07:19:12Z</time>
      </trkpt>
      <trkpt lat="46.06469" lon="6.42817">
        <ele>464</ele>
        <time>2011-07-24T07:19:14Z</time>
      </trkpt>
      <trkpt lat="46.06478" lon="6.42821">
        <ele>464</ele>
        <time>2011-07-24T07:19:15Z</time>
      </trkpt>
      <trkpt lat="46.06488" lon="6.42825">
        <ele>464</ele>
        <time>2011-07-24T07:19:16Z</time>
      </trkpt>
      <trkpt lat="46.06498" lon="6.4283">
        <ele>464</ele>
        <time>2011-07-24T07:19:17Z</time>
      </trkpt>
      <trkpt lat="46.06509" lon="6.42835">
        <ele>464</ele>
        <time>2011-07-24T07:19:18Z</time>
      </trkpt>
      <trkpt lat="46.06521" lon="6.42842">
        <ele>464</ele>
        <time>2011-07-24T07:19:19Z</time>
      </trkpt>
      <trkpt lat="46.06533" lon="6.42848">
        <ele>464</ele>
        <time>2011-07-24T07:19:20Z</time>
      </trkpt>
      <trkpt lat="46.06544" lon="6.42854">
        <ele>464</ele>
        <time>2011-07-24T07:19:21Z</time>
      </trkpt>
      <trkpt lat="46.06554" lon="6.42859">
        <ele>464</ele>
        <time>2011-07-24T07:19:22Z</time>
      </trkpt>
      <trkpt lat="46.06562" lon="6.42864">
        <ele>464</ele>
        <time>2011-07-24T07:19:23Z</time>
      </trkpt>
      <trkpt lat="46.06572" lon="6.42869">
        <ele>464</ele>
        <time>2011-07-24T07:19:24Z</time>
      </trkpt>
      <trkpt lat="46.06587" lon="6.42876">
        <ele>464</ele>
        <time>2011-07-24T07:19:26Z</time>
      </trkpt>
      <trkpt lat="46.066" lon="6.42883">
        <ele>464</ele>
        <time>2011-07-24T07:19:28Z</time>
      </trkpt>
      <trkpt lat="46.06609" lon="6.42887">
        <ele>464</ele>
        <time>2011-07-24T07:19:30Z</time>
      </trkpt>
      <trkpt lat="46.06618" lon="6.42892">
        <ele>464</ele>
        <time>2011-07-24T07:19:33Z</time>
      </trkpt>
      <trkpt lat="46.06609" lon="6.42884">
        <ele>457</ele>
        <time>2011-07-24T07:38:32Z</time>
      </trkpt>
      <trkpt lat="46.06596" lon="6.42878">
        <ele>457</ele>
        <time>2011-07-24T07:38:34Z</time>
      </trkpt>
      <trkpt lat="46.0658" lon="6.42871">
        <ele>457</ele>
        <time>2011-07-24T07:38:36Z</time>
      </trkpt>
      <trkpt lat="46.06571" lon="6.42867">
        <ele>457</ele>
        <time>2011-07-24T07:38:37Z</time>
      </trkpt>
      <trkpt lat="46.06562" lon="6.42863">
        <ele>457</ele>
        <time>2011-07-24T07:38:38Z</time>
      </trkpt>
      <trkpt lat="46.06553" lon="6.42859">
        <ele>457</ele>
        <time>2011-07-24T07:38:39Z</time>
      </trkpt>
      <trkpt lat="46.06544" lon="6.42854">
        <ele>457</ele>
        <time>2011-07-24T07:38:40Z</time>
      </trkpt>
      <trkpt lat="46.06535" lon="6.4285">
        <ele>457</ele>
        <time>2011-07-24T07:38:41Z</time>
      </trkpt>
      <trkpt lat="46.06517" lon="6.42841">
        <ele>457</ele>
        <time>2011-07-24T07:38:43Z</time>
      </trkpt>
      <trkpt lat="46.06506" lon="6.42834">
        <ele>457</ele>
        <time>2011-07-24T07:38:44Z</time>
      </trkpt>
      <trkpt lat="46.06494" lon="6.42829">
        <ele>457</ele>
        <time>2011-07-24T07:38:45Z</time>
      </trkpt>
      <trkpt lat="46.06484" lon="6.42825">
        <ele>457</ele>
        <time>2011-07-24T07:38:46Z</time>
      </trkpt>
      <trkpt lat="46.06473" lon="6.4282">
        <ele>457</ele>
        <time>2011-07-24T07:38:47Z</time>
      </trkpt>
      <trkpt lat="46.06462" lon="6.42817">
        <ele>457</ele>
        <time>2011-07-24T07:38:48Z</time>
      </trkpt>
      <trkpt lat="46.06453" lon="6.42814">
        <ele>457</ele>
        <time>2011-07-24T07:38:49Z</time>
      </trkpt>
      <trkpt lat="46.06444" lon="6.42809">
        <ele>457</ele>
        <time>2011-07-24T07:38:50Z</time>
      </trkpt>
      <trkpt lat="46.06432" lon="6.42808">
        <ele>457</ele>
        <time>2011-07-24T07:38:52Z</time>
      </trkpt>
      <trkpt lat="46.06422" lon="6.42812">
        <ele>457</ele>
        <time>2011-07-24T07:38:54Z</time>
      </trkpt>
      <trkpt lat="46.06411" lon="6.42823">
        <ele>463</ele>
        <time>2011-07-24T07:38:56Z</time>
      </trkpt>
      <trkpt lat="46.06405" lon="6.42834">
        <ele>463</ele>
        <time>2011-07-24T07:38:57Z</time>
      </trkpt>
      <trkpt lat="46.064" lon="6.42846">
        <ele>463</ele>
        <time>2011-07-24T07:38:58Z</time>
      </trkpt>
      <trkpt lat="46.0639" lon="6.4287">
        <ele>463</ele>
        <time>2011-07-24T07:39:00Z</time>
      </trkpt>
      <trkpt lat="46.06374" lon="6.42899">
        <ele>463</ele>
        <time>2011-07-24T07:39:03Z</time>
      </trkpt>
      <trkpt lat="46.06368" lon="6.42914">
        <ele>463</ele>
        <time>2011-07-24T07:39:04Z</time>
      </trkpt>
      <trkpt lat="46.06359" lon="6.42928">
        <ele>463</ele>
        <time>2011-07-24T07:39:05Z</time>
      </trkpt>
      <trkpt lat="46.06351" lon="6.42944">
        <ele>463</ele>
        <time>2011-07-24T07:39:06Z</time>
      </trkpt>
      <trkpt lat="46.06345" lon="6.42963">
        <ele>463</ele>
        <time>2011-07-24T07:39:07Z</time>
      </trkpt>
      <trkpt lat="46.0634" lon="6.42979">
        <ele>463</ele>
        <time>2011-07-24T07:39:08Z</time>
      </trkpt>
      <trkpt lat="46.06337" lon="6.42995">
        <ele>463</ele>
        <time>2011-07-24T07:39:09Z</time>
      </trkpt>
      <trkpt lat="46.06337" lon="6.43011">
        <ele>463</ele>
        <time>2011-07-24T07:39:10Z</time>
      </trkpt>
      <trkpt lat="46.06333" lon="6.43037">
        <ele>463</ele>
        <time>2011-07-24T07:39:12Z</time>
      </trkpt>
      <trkpt lat="46.06331" lon="6.43052">
        <ele>463</ele>
        <time>2011-07-24T07:39:13Z</time>
      </trkpt>
      <trkpt lat="46.06333" lon="6.43067">
        <ele>463</ele>
        <time>2011-07-24T07:39:14Z</time>
      </trkpt>
      <trkpt lat="46.06337" lon="6.43081">
        <ele>463</ele>
        <time>2011-07-24T07:39:15Z</time>
      </trkpt>
      <trkpt lat="46.06342" lon="6.43094">
        <ele>463</ele>
        <time>2011-07-24T07:39:16Z</time>
      </trkpt>
      <trkpt lat="46.06347" lon="6.43108">
        <ele>463</ele>
        <time>2011-07-24T07:39:17Z</time>
      </trkpt>
      <trkpt lat="46.0635" lon="6.43124">
        <ele>463</ele>
        <time>2011-07-24T07:39:18Z</time>
      </trkpt>
      <trkpt lat="46.06353" lon="6.43139">
        <ele>463</ele>
        <time>2011-07-24T07:39:19Z</time>
      </trkpt>
      <trkpt lat="46.06357" lon="6.43155">
        <ele>463</ele>
        <time>2011-07-24T07:39:20Z</time>
      </trkpt>
      <trkpt lat="46.0636" lon="6.43171">
        <ele>463</ele>
        <time>2011-07-24T07:39:21Z</time>
      </trkpt>
      <trkpt lat="46.06364" lon="6.43187">
        <ele>463</ele>
        <time>2011-07-24T07:39:22Z</time>
      </trkpt>
      <trkpt lat="46.06368" lon="6.43201">
        <ele>463</ele>
        <time>2011-07-24T07:39:23Z</time>
      </trkpt>
      <trkpt lat="46.06372" lon="6.43215">
        <ele>463</ele>
        <time>2011-07-24T07:39:24Z</time>
      </trkpt>
      <trkpt lat="46.06374" lon="6.4323">
        <ele>468</ele>
        <time>2011-07-24T07:39:25Z</time>
      </trkpt>
      <trkpt lat="46.06376" lon="6.43253">
        <ele>468</ele>
        <time>2011-07-24T07:39:27Z</time>
      </trkpt>
      <trkpt lat="46.06382" lon="6.43297">
        <ele>468</ele>
        <time>2011-07-24T07:39:31Z</time>
      </trkpt>
      <trkpt lat="46.06375" lon="6.43319">
        <ele>462</ele>
        <time>2011-07-24T07:39:33Z</time>
      </trkpt>
      <trkpt lat="46.0637" lon="6.4333">
        <ele>462</ele>
        <time>2011-07-24T07:39:34Z</time>
      </trkpt>
      <trkpt lat="46.06365" lon="6.43342">
        <ele>457</ele>
        <time>2011-07-24T07:39:35Z</time>
      </trkpt>
      <trkpt lat="46.06361" lon="6.43355">
        <ele>457</ele>
        <time>2011-07-24T07:39:36Z</time>
      </trkpt>
      <trkpt lat="46.0636" lon="6.43369">
        <ele>457</ele>
        <time>2011-07-24T07:39:37Z</time>
      </trkpt>
      <trkpt lat="46.06362" lon="6.43383">
        <ele>457</ele>
        <time>2011-07-24T07:39:38Z</time>
      </trkpt>
      <trkpt lat="46.06362" lon="6.43399">
        <ele>457</ele>
        <time>2011-07-24T07:39:39Z</time>
      </trkpt>
      <trkpt lat="46.06364" lon="6.43412">
        <ele>457</ele>
        <time>2011-07-24T07:39:40Z</time>
      </trkpt>
      <trkpt lat="46.06365" lon="6.43449">
        <ele>457</ele>
        <time>2011-07-24T07:39:43Z</time>
      </trkpt>
      <trkpt lat="46.06371" lon="6.43464">
        <ele>457</ele>
        <time>2011-07-24T07:39:44Z</time>
      </trkpt>
      <trkpt lat="46.0637" lon="6.43491">
        <ele>457</ele>
        <time>2011-07-24T07:39:46Z</time>
      </trkpt>
      <trkpt lat="46.06367" lon="6.43506">
        <ele>457</ele>
        <time>2011-07-24T07:39:47Z</time>
      </trkpt>
      <trkpt lat="46.06365" lon="6.43519">
        <ele>463</ele>
        <time>2011-07-24T07:39:48Z</time>
      </trkpt>
      <trkpt lat="46.06364" lon="6.43532">
        <ele>463</ele>
        <time>2011-07-24T07:39:49Z</time>
      </trkpt>
      <trkpt lat="46.06364" lon="6.43546">
        <ele>463</ele>
        <time>2011-07-24T07:39:50Z</time>
      </trkpt>
      <trkpt lat="46.06354" lon="6.43591">
        <ele>463</ele>
        <time>2011-07-24T07:39:53Z</time>
      </trkpt>
      <trkpt lat="46.06352" lon="6.43607">
        <ele>463</ele>
        <time>2011-07-24T07:39:54Z</time>
      </trkpt>
      <trkpt lat="46.06348" lon="6.43625">
        <ele>463</ele>
        <time>2011-07-24T07:39:55Z</time>
      </trkpt>
      <trkpt lat="46.06346" lon="6.43638">
        <ele>463</ele>
        <time>2011-07-24T07:39:56Z</time>
      </trkpt>
      <trkpt lat="46.06342" lon="6.43653">
        <ele>463</ele>
        <time>2011-07-24T07:39:57Z</time>
      </trkpt>
      <trkpt lat="46.0634" lon="6.43665">
        <ele>463</ele>
        <time>2011-07-24T07:39:58Z</time>
      </trkpt>
      <trkpt lat="46.06339" lon="6.43689">
        <ele>463</ele>
        <time>2011-07-24T07:40:00Z</time>
      </trkpt>
      <trkpt lat="46.06338" lon="6.43709">
        <ele>463</ele>
        <time>2011-07-24T07:40:02Z</time>
      </trkpt>
      <trkpt lat="46.06335" lon="6.43726">
        <ele>469</ele>
        <time>2011-07-24T07:40:04Z</time>
      </trkpt>
      <trkpt lat="46.06325" lon="6.43751">
        <ele>469</ele>
        <time>2011-07-24T07:40:06Z</time>
      </trkpt>
      <trkpt lat="46.0632" lon="6.4377">
        <ele>469</ele>
        <time>2011-07-24T07:40:07Z</time>
      </trkpt>
      <trkpt lat="46.06314" lon="6.43788">
        <ele>469</ele>
        <time>2011-07-24T07:40:08Z</time>
      </trkpt>
      <trkpt lat="46.0631" lon="6.43805">
        <ele>469</ele>
        <time>2011-07-24T07:40:09Z</time>
      </trkpt>
      <trkpt lat="46.06305" lon="6.4382">
        <ele>469</ele>
        <time>2011-07-24T07:40:10Z</time>
      </trkpt>
      <trkpt lat="46.06297" lon="6.43844">
        <ele>469</ele>
        <time>2011-07-24T07:40:12Z</time>
      </trkpt>
      <trkpt lat="46.06293" lon="6.43858">
        <ele>469</ele>
        <time>2011-07-24T07:40:13Z</time>
      </trkpt>
      <trkpt lat="46.0629" lon="6.43872">
        <ele>469</ele>
        <time>2011-07-24T07:40:14Z</time>
      </trkpt>
      <trkpt lat="46.06288" lon="6.43885">
        <ele>469</ele>
        <time>2011-07-24T07:40:15Z</time>
      </trkpt>
      <trkpt lat="46.06286" lon="6.43904">
        <ele>469</ele>
        <time>2011-07-24T07:40:16Z</time>
      </trkpt>
      <trkpt lat="46.06284" lon="6.43922">
        <ele>469</ele>
        <time>2011-07-24T07:40:17Z</time>
      </trkpt>
      <trkpt lat="46.06284" lon="6.4394">
        <ele>469</ele>
        <time>2011-07-24T07:40:18Z</time>
      </trkpt>
      <trkpt lat="46.06283" lon="6.43958">
        <ele>469</ele>
        <time>2011-07-24T07:40:19Z</time>
      </trkpt>
      <trkpt lat="46.06283" lon="6.43976">
        <ele>469</ele>
        <time>2011-07-24T07:40:20Z</time>
      </trkpt>
      <trkpt lat="46.06281" lon="6.43992">
        <ele>469</ele>
        <time>2011-07-24T07:40:21Z</time>
      </trkpt>
      <trkpt lat="46.06277" lon="6.44008">
        <ele>469</ele>
        <time>2011-07-24T07:40:22Z</time>
      </trkpt>
      <trkpt lat="46.06272" lon="6.44025">
        <ele>469</ele>
        <time>2011-07-24T07:40:23Z</time>
      </trkpt>
      <trkpt lat="46.06267" lon="6.44043">
        <ele>469</ele>
        <time>2011-07-24T07:40:24Z</time>
      </trkpt>
      <trkpt lat="46.06263" lon="6.44059">
        <ele>469</ele>
        <time>2011-07-24T07:40:25Z</time>
      </trkpt>
      <trkpt lat="46.0626" lon="6.44074">
        <ele>469</ele>
        <time>2011-07-24T07:40:26Z</time>
      </trkpt>
      <trkpt lat="46.06259" lon="6.44088">
        <ele>469</ele>
        <time>2011-07-24T07:40:27Z</time>
      </trkpt>
      <trkpt lat="46.06257" lon="6.44108">
        <ele>469</ele>
        <time>2011-07-24T07:40:29Z</time>
      </trkpt>
      <trkpt lat="46.06257" lon="6.44129">
        <ele>469</ele>
        <time>2011-07-24T07:40:31Z</time>
      </trkpt>
      <trkpt lat="46.06266" lon="6.44145">
        <ele>469</ele>
        <time>2011-07-24T07:40:33Z</time>
      </trkpt>
      <trkpt lat="46.06274" lon="6.44158">
        <ele>469</ele>
        <time>2011-07-24T07:40:35Z</time>
      </trkpt>
      <trkpt lat="46.06271" lon="6.44178">
        <ele>469</ele>
        <time>2011-07-24T07:40:38Z</time>
      </trkpt>
      <trkpt lat="46.06262" lon="6.44196">
        <ele>469</ele>
        <time>2011-07-24T07:40:40Z</time>
      </trkpt>
      <trkpt lat="46.06257" lon="6.4421">
        <ele>469</ele>
        <time>2011-07-24T07:40:42Z</time>
      </trkpt>
      <trkpt lat="46.06262" lon="6.44224">
        <ele>469</ele>
        <time>2011-07-24T07:40:45Z</time>
      </trkpt>
      <trkpt lat="46.06273" lon="6.44229">
        <ele>469</ele>
        <time>2011-07-24T07:40:47Z</time>
      </trkpt>
      <trkpt lat="46.0628" lon="6.44238">
        <ele>469</ele>
        <time>2011-07-24T07:40:49Z</time>
      </trkpt>
      <trkpt lat="46.0628" lon="6.44256">
        <ele>469</ele>
        <time>2011-07-24T07:40:51Z</time>
      </trkpt>
      <trkpt lat="46.06277" lon="6.44269">
        <ele>469</ele>
        <time>2011-07-24T07:40:52Z</time>
      </trkpt>
      <trkpt lat="46.06273" lon="6.44283">
        <ele>469</ele>
        <time>2011-07-24T07:40:53Z</time>
      </trkpt>
      <trkpt lat="46.06269" lon="6.44298">
        <ele>469</ele>
        <time>2011-07-24T07:40:54Z</time>
      </trkpt>
      <trkpt lat="46.06264" lon="6.44312">
        <ele>469</ele>
        <time>2011-07-24T07:40:55Z</time>
      </trkpt>
      <trkpt lat="46.06259" lon="6.44326">
        <ele>469</ele>
        <time>2011-07-24T07:40:56Z</time>
      </trkpt>
      <trkpt lat="46.06255" lon="6.44341">
        <ele>475</ele>
        <time>2011-07-24T07:40:57Z</time>
      </trkpt>
      <trkpt lat="46.0625" lon="6.44354">
        <ele>475</ele>
        <time>2011-07-24T07:40:58Z</time>
      </trkpt>
      <trkpt lat="46.06246" lon="6.44368">
        <ele>475</ele>
        <time>2011-07-24T07:40:59Z</time>
      </trkpt>
      <trkpt lat="46.06242" lon="6.4438">
        <ele>475</ele>
        <time>2011-07-24T07:41:00Z</time>
      </trkpt>
      <trkpt lat="46.06234" lon="6.44398">
        <ele>475</ele>
        <time>2011-07-24T07:41:02Z</time>
      </trkpt>
      <trkpt lat="46.06232" lon="6.44413">
        <ele>481</ele>
        <time>2011-07-24T07:41:08Z</time>
      </trkpt>
      <trkpt lat="46.06239" lon="6.44425">
        <ele>481</ele>
        <time>2011-07-24T07:41:10Z</time>
      </trkpt>
      <trkpt lat="46.06251" lon="6.44442">
        <ele>481</ele>
        <time>2011-07-24T07:41:12Z</time>
      </trkpt>
      <trkpt lat="46.06259" lon="6.44452">
        <ele>481</ele>
        <time>2011-07-24T07:41:13Z</time>
      </trkpt>
      <trkpt lat="46.06268" lon="6.44459">
        <ele>481</ele>
        <time>2011-07-24T07:41:14Z</time>
      </trkpt>
      <trkpt lat="46.06278" lon="6.44465">
        <ele>481</ele>
        <time>2011-07-24T07:41:15Z</time>
      </trkpt>
      <trkpt lat="46.06287" lon="6.44469">
        <ele>481</ele>
        <time>2011-07-24T07:41:16Z</time>
      </trkpt>
      <trkpt lat="46.06297" lon="6.44472">
        <ele>481</ele>
        <time>2011-07-24T07:41:17Z</time>
      </trkpt>
      <trkpt lat="46.06306" lon="6.44473">
        <ele>481</ele>
        <time>2011-07-24T07:41:18Z</time>
      </trkpt>
      <trkpt lat="46.06316" lon="6.44473">
        <ele>481</ele>
        <time>2011-07-24T07:41:19Z</time>
      </trkpt>
      <trkpt lat="46.06331" lon="6.44474">
        <ele>481</ele>
        <time>2011-07-24T07:41:21Z</time>
      </trkpt>
      <trkpt lat="46.06341" lon="6.4448">
        <ele>481</ele>
        <time>2011-07-24T07:41:23Z</time>
      </trkpt>
      <trkpt lat="46.06345" lon="6.44495">
        <ele>474</ele>
        <time>2011-07-24T07:41:25Z</time>
      </trkpt>
      <trkpt lat="46.06344" lon="6.44509">
        <ele>474</ele>
        <time>2011-07-24T07:41:26Z</time>
      </trkpt>
      <trkpt lat="46.0634" lon="6.44526">
        <ele>474</ele>
        <time>2011-07-24T07:41:27Z</time>
      </trkpt>
      <trkpt lat="46.06335" lon="6.44547">
        <ele>474</ele>
        <time>2011-07-24T07:41:28Z</time>
      </trkpt>
      <trkpt lat="46.0633" lon="6.44567">
        <ele>474</ele>
        <time>2011-07-24T07:41:29Z</time>
      </trkpt>
      <trkpt lat="46.06324" lon="6.44587">
        <ele>474</ele>
        <time>2011-07-24T07:41:30Z</time>
      </trkpt>
      <trkpt lat="46.06317" lon="6.44605">
        <ele>469</ele>
        <time>2011-07-24T07:41:31Z</time>
      </trkpt>
      <trkpt lat="46.06311" lon="6.4462">
        <ele>469</ele>
        <time>2011-07-24T07:41:32Z</time>
      </trkpt>
      <trkpt lat="46.06309" lon="6.44635">
        <ele>469</ele>
        <time>2011-07-24T07:41:33Z</time>
      </trkpt>
      <trkpt lat="46.06307" lon="6.44649">
        <ele>469</ele>
        <time>2011-07-24T07:41:34Z</time>
      </trkpt>
      <trkpt lat="46.06305" lon="6.44665">
        <ele>469</ele>
        <time>2011-07-24T07:41:35Z</time>
      </trkpt>
      <trkpt lat="46.06303" lon="6.44681">
        <ele>469</ele>
        <time>2011-07-24T07:41:36Z</time>
      </trkpt>
      <trkpt lat="46.06303" lon="6.44696">
        <ele>469</ele>
        <time>2011-07-24T07:41:37Z</time>
      </trkpt>
      <trkpt lat="46.063" lon="6.44708">
        <ele>469</ele>
        <time>2011-07-24T07:41:38Z</time>
      </trkpt>
      <trkpt lat="46.06297" lon="6.44733">
        <ele>469</ele>
        <time>2011-07-24T07:41:40Z</time>
      </trkpt>
      <trkpt lat="46.06295" lon="6.44759">
        <ele>469</ele>
        <time>2011-07-24T07:41:42Z</time>
      </trkpt>
      <trkpt lat="46.06294" lon="6.44775">
        <ele>469</ele>
        <time>2011-07-24T07:41:44Z</time>
      </trkpt>
      <trkpt lat="46.06283" lon="6.44784">
        <ele>469</ele>
        <time>2011-07-24T07:41:48Z</time>
      </trkpt>
      <trkpt lat="46.06271" lon="6.44782">
        <ele>474</ele>
        <time>2011-07-24T07:41:50Z</time>
      </trkpt>
      <trkpt lat="46.0626" lon="6.44779">
        <ele>474</ele>
        <time>2011-07-24T07:41:52Z</time>
      </trkpt>
      <trkpt lat="46.06247" lon="6.44777">
        <ele>474</ele>
        <time>2011-07-24T07:41:54Z</time>
      </trkpt>
      <trkpt lat="46.06233" lon="6.44775">
        <ele>474</ele>
        <time>2011-07-24T07:41:56Z</time>
      </trkpt>
      <trkpt lat="46.0621" lon="6.44772">
        <ele>474</ele>
        <time>2011-07-24T07:41:59Z</time>
      </trkpt>
      <trkpt lat="46.062" lon="6.44768">
        <ele>479</ele>
        <time>2011-07-24T07:42:00Z</time>
      </trkpt>
      <trkpt lat="46.06185" lon="6.44763">
        <ele>479</ele>
        <time>2011-07-24T07:42:02Z</time>
      </trkpt>
      <trkpt lat="46.0618" lon="6.44777">
        <ele>491</ele>
        <time>2011-07-24T07:42:05Z</time>
      </trkpt>
      <trkpt lat="46.06179" lon="6.44795">
        <ele>491</ele>
        <time>2011-07-24T07:42:07Z</time>
      </trkpt>
      <trkpt lat="46.06183" lon="6.44811">
        <ele>491</ele>
        <time>2011-07-24T07:42:08Z</time>
      </trkpt>
      <trkpt lat="46.06185" lon="6.44825">
        <ele>491</ele>
        <time>2011-07-24T07:42:09Z</time>
      </trkpt>
      <trkpt lat="46.06185" lon="6.44847">
        <ele>491</ele>
        <time>2011-07-24T07:42:10Z</time>
      </trkpt>
      <trkpt lat="46.06189" lon="6.44873">
        <ele>478</ele>
        <time>2011-07-24T07:42:11Z</time>
      </trkpt>
      <trkpt lat="46.06193" lon="6.44892">
        <ele>478</ele>
        <time>2011-07-24T07:42:12Z</time>
      </trkpt>
      <trkpt lat="46.06193" lon="6.44908">
        <ele>478</ele>
        <time>2011-07-24T07:42:13Z</time>
      </trkpt>
      <trkpt lat="46.06194" lon="6.44924">
        <ele>478</ele>
        <time>2011-07-24T07:42:14Z</time>
      </trkpt>
      <trkpt lat="46.06194" lon="6.44941">
        <ele>473</ele>
        <time>2011-07-24T07:42:15Z</time>
      </trkpt>
      <trkpt lat="46.06195" lon="6.44958">
        <ele>473</ele>
        <time>2011-07-24T07:42:16Z</time>
      </trkpt>
      <trkpt lat="46.06197" lon="6.44976">
        <ele>473</ele>
        <time>2011-07-24T07:42:17Z</time>
      </trkpt>
      <trkpt lat="46.06197" lon="6.44993">
        <ele>473</ele>
        <time>2011-07-24T07:42:18Z</time>
      </trkpt>
      <trkpt lat="46.06199" lon="6.45011">
        <ele>473</ele>
        <time>2011-07-24T07:42:19Z</time>
      </trkpt>
      <trkpt lat="46.06201" lon="6.45028">
        <ele>473</ele>
        <time>2011-07-24T07:42:20Z</time>
      </trkpt>
      <trkpt lat="46.06203" lon="6.45046">
        <ele>473</ele>
        <time>2011-07-24T07:42:21Z</time>
      </trkpt>
      <trkpt lat="46.06205" lon="6.45061">
        <ele>473</ele>
        <time>2011-07-24T07:42:22Z</time>
      </trkpt>
      <trkpt lat="46.06206" lon="6.45076">
        <ele>473</ele>
        <time>2011-07-24T07:42:23Z</time>
      </trkpt>
      <trkpt lat="46.06208" lon="6.45103">
        <ele>473</ele>
        <time>2011-07-24T07:42:25Z</time>
      </trkpt>
      <trkpt lat="46.06205" lon="6.45122">
        <ele>473</ele>
        <time>2011-07-24T07:42:26Z</time>
      </trkpt>
      <trkpt lat="46.06202" lon="6.45141">
        <ele>473</ele>
        <time>2011-07-24T07:42:27Z</time>
      </trkpt>
      <trkpt lat="46.06201" lon="6.45158">
        <ele>473</ele>
        <time>2011-07-24T07:42:28Z</time>
      </trkpt>
      <trkpt lat="46.062" lon="6.45175">
        <ele>473</ele>
        <time>2011-07-24T07:42:29Z</time>
      </trkpt>
      <trkpt lat="46.06201" lon="6.45189">
        <ele>466</ele>
        <time>2011-07-24T07:42:30Z</time>
      </trkpt>
      <trkpt lat="46.06202" lon="6.45211">
        <ele>466</ele>
        <time>2011-07-24T07:42:32Z</time>
      </trkpt>
      <trkpt lat="46.06202" lon="6.4523">
        <ele>459</ele>
        <time>2011-07-24T07:42:34Z</time>
      </trkpt>
      <trkpt lat="46.06201" lon="6.45255">
        <ele>459</ele>
        <time>2011-07-24T07:42:36Z</time>
      </trkpt>
      <trkpt lat="46.06198" lon="6.45267">
        <ele>459</ele>
        <time>2011-07-24T07:42:37Z</time>
      </trkpt>
      <trkpt lat="46.06195" lon="6.45282">
        <ele>459</ele>
        <time>2011-07-24T07:42:38Z</time>
      </trkpt>
      <trkpt lat="46.0619" lon="6.45297">
        <ele>459</ele>
        <time>2011-07-24T07:42:39Z</time>
      </trkpt>
      <trkpt lat="46.06185" lon="6.45308">
        <ele>453</ele>
        <time>2011-07-24T07:42:40Z</time>
      </trkpt>
      <trkpt lat="46.06182" lon="6.45332">
        <ele>453</ele>
        <time>2011-07-24T07:42:42Z</time>
      </trkpt>
      <trkpt lat="46.06183" lon="6.45355">
        <ele>453</ele>
        <time>2011-07-24T07:42:44Z</time>
      </trkpt>
      <trkpt lat="46.06185" lon="6.45378">
        <ele>453</ele>
        <time>2011-07-24T07:42:46Z</time>
      </trkpt>
      <trkpt lat="46.06185" lon="6.454">
        <ele>453</ele>
        <time>2011-07-24T07:42:48Z</time>
      </trkpt>
      <trkpt lat="46.06183" lon="6.45422">
        <ele>453</ele>
        <time>2011-07-24T07:42:50Z</time>
      </trkpt>
      <trkpt lat="46.06188" lon="6.45433">
        <ele>453</ele>
        <time>2011-07-24T07:42:51Z</time>
      </trkpt>
      <trkpt lat="46.06194" lon="6.4545">
        <ele>453</ele>
        <time>2011-07-24T07:42:53Z</time>
      </trkpt>
      <trkpt lat="46.06199" lon="6.45467">
        <ele>461</ele>
        <time>2011-07-24T07:42:55Z</time>
      </trkpt>
      <trkpt lat="46.06202" lon="6.45485">
        <ele>461</ele>
        <time>2011-07-24T07:42:58Z</time>
      </trkpt>
      <trkpt lat="46.06207" lon="6.45502">
        <ele>470</ele>
        <time>2011-07-24T07:43:00Z</time>
      </trkpt>
      <trkpt lat="46.06207" lon="6.4552">
        <ele>470</ele>
        <time>2011-07-24T07:43:02Z</time>
      </trkpt>
      <trkpt lat="46.06212" lon="6.4553">
        <ele>478</ele>
        <time>2011-07-24T07:43:04Z</time>
      </trkpt>
      <trkpt lat="46.0622" lon="6.45542">
        <ele>478</ele>
        <time>2011-07-24T07:43:07Z</time>
      </trkpt>
      <trkpt lat="46.06233" lon="6.45544">
        <ele>478</ele>
        <time>2011-07-24T07:43:09Z</time>
      </trkpt>
      <trkpt lat="46.06242" lon="6.45552">
        <ele>478</ele>
        <time>2011-07-24T07:43:10Z</time>
      </trkpt>
      <trkpt lat="46.06252" lon="6.45564">
        <ele>478</ele>
        <time>2011-07-24T07:43:12Z</time>
      </trkpt>
      <trkpt lat="46.06264" lon="6.45577">
        <ele>478</ele>
        <time>2011-07-24T07:43:14Z</time>
      </trkpt>
      <trkpt lat="46.06275" lon="6.4559">
        <ele>467</ele>
        <time>2011-07-24T07:43:16Z</time>
      </trkpt>
      <trkpt lat="46.0629" lon="6.45602">
        <ele>467</ele>
        <time>2011-07-24T07:43:18Z</time>
      </trkpt>
      <trkpt lat="46.06299" lon="6.45607">
        <ele>467</ele>
        <time>2011-07-24T07:43:19Z</time>
      </trkpt>
      <trkpt lat="46.06315" lon="6.45626">
        <ele>467</ele>
        <time>2011-07-24T07:43:22Z</time>
      </trkpt>
      <trkpt lat="46.06328" lon="6.45634">
        <ele>467</ele>
        <time>2011-07-24T07:43:26Z</time>
      </trkpt>
      <trkpt lat="46.06341" lon="6.45631">
        <ele>467</ele>
        <time>2011-07-24T07:43:28Z</time>
      </trkpt>
      <trkpt lat="46.06358" lon="6.45625">
        <ele>467</ele>
        <time>2011-07-24T07:43:31Z</time>
      </trkpt>
      <trkpt lat="46.06369" lon="6.4562">
        <ele>467</ele>
        <time>2011-07-24T07:43:32Z</time>
      </trkpt>
      <trkpt lat="46.06379" lon="6.4562">
        <ele>467</ele>
        <time>2011-07-24T07:43:33Z</time>
      </trkpt>
      <trkpt lat="46.06389" lon="6.45621">
        <ele>467</ele>
        <time>2011-07-24T07:43:34Z</time>
      </trkpt>
      <trkpt lat="46.06408" lon="6.4562">
        <ele>467</ele>
        <time>2011-07-24T07:43:36Z</time>
      </trkpt>
      <trkpt lat="46.06431" lon="6.45618">
        <ele>467</ele>
        <time>2011-07-24T07:43:39Z</time>
      </trkpt>
      <trkpt lat="46.06442" lon="6.45617">
        <ele>467</ele>
        <time>2011-07-24T07:43:40Z</time>
      </trkpt>
      <trkpt lat="46.06468" lon="6.4561">
        <ele>467</ele>
        <time>2011-07-24T07:43:44Z</time>
      </trkpt>
      <trkpt lat="46.06481" lon="6.45615">
        <ele>467</ele>
        <time>2011-07-24T07:43:46Z</time>
      </trkpt>
      <trkpt lat="46.06486" lon="6.45629">
        <ele>467</ele>
        <time>2011-07-24T07:43:49Z</time>
      </trkpt>
      <trkpt lat="46.06482" lon="6.45644">
        <ele>467</ele>
        <time>2011-07-24T07:43:51Z</time>
      </trkpt>
      <trkpt lat="46.06477" lon="6.45665">
        <ele>467</ele>
        <time>2011-07-24T07:43:53Z</time>
      </trkpt>
      <trkpt lat="46.06472" lon="6.4569">
        <ele>461</ele>
        <time>2011-07-24T07:43:55Z</time>
      </trkpt>
      <trkpt lat="46.06474" lon="6.45715">
        <ele>461</ele>
        <time>2011-07-24T07:43:57Z</time>
      </trkpt>
      <trkpt lat="46.06477" lon="6.4573">
        <ele>461</ele>
        <time>2011-07-24T07:43:58Z</time>
      </trkpt>
      <trkpt lat="46.0648" lon="6.45745">
        <ele>461</ele>
        <time>2011-07-24T07:43:59Z</time>
      </trkpt>
      <trkpt lat="46.06484" lon="6.45761">
        <ele>461</ele>
        <time>2011-07-24T07:44:00Z</time>
      </trkpt>
      <trkpt lat="46.06488" lon="6.45778">
        <ele>461</ele>
        <time>2011-07-24T07:44:01Z</time>
      </trkpt>
      <trkpt lat="46.06492" lon="6.45796">
        <ele>461</ele>
        <time>2011-07-24T07:44:02Z</time>
      </trkpt>
      <trkpt lat="46.06496" lon="6.45813">
        <ele>461</ele>
        <time>2011-07-24T07:44:03Z</time>
      </trkpt>
      <trkpt lat="46.06499" lon="6.45829">
        <ele>461</ele>
        <time>2011-07-24T07:44:04Z</time>
      </trkpt>
      <trkpt lat="46.06503" lon="6.45845">
        <ele>461</ele>
        <time>2011-07-24T07:44:05Z</time>
      </trkpt>
      <trkpt lat="46.06504" lon="6.45858">
        <ele>461</ele>
        <time>2011-07-24T07:44:06Z</time>
      </trkpt>
      <trkpt lat="46.06502" lon="6.45882">
        <ele>461</ele>
        <time>2011-07-24T07:44:08Z</time>
      </trkpt>
      <trkpt lat="46.06486" lon="6.45906">
        <ele>461</ele>
        <time>2011-07-24T07:44:10Z</time>
      </trkpt>
      <trkpt lat="46.06474" lon="6.45919">
        <ele>461</ele>
        <time>2011-07-24T07:44:11Z</time>
      </trkpt>
      <trkpt lat="46.06462" lon="6.45931">
        <ele>461</ele>
        <time>2011-07-24T07:44:12Z</time>
      </trkpt>
      <trkpt lat="46.06452" lon="6.45942">
        <ele>461</ele>
        <time>2011-07-24T07:44:13Z</time>
      </trkpt>
      <trkpt lat="46.06446" lon="6.45953">
        <ele>461</ele>
        <time>2011-07-24T07:44:14Z</time>
      </trkpt>
      <trkpt lat="46.06441" lon="6.45967">
        <ele>461</ele>
        <time>2011-07-24T07:44:15Z</time>
      </trkpt>
      <trkpt lat="46.06437" lon="6.45984">
        <ele>461</ele>
        <time>2011-07-24T07:44:16Z</time>
      </trkpt>
      <trkpt lat="46.06436" lon="6.46007">
        <ele>461</ele>
        <time>2011-07-24T07:44:17Z</time>
      </trkpt>
      <trkpt lat="46.06436" lon="6.46029">
        <ele>461</ele>
        <time>2011-07-24T07:44:18Z</time>
      </trkpt>
      <trkpt lat="46.06433" lon="6.46049">
        <ele>461</ele>
        <time>2011-07-24T07:44:19Z</time>
      </trkpt>
      <trkpt lat="46.06432" lon="6.46068">
        <ele>461</ele>
        <time>2011-07-24T07:44:20Z</time>
      </trkpt>
      <trkpt lat="46.06434" lon="6.46088">
        <ele>461</ele>
        <time>2011-07-24T07:44:21Z</time>
      </trkpt>
      <trkpt lat="46.06436" lon="6.46111">
        <ele>461</ele>
        <time>2011-07-24T07:44:22Z</time>
      </trkpt>
      <trkpt lat="46.06442" lon="6.46138">
        <ele>461</ele>
        <time>2011-07-24T07:44:23Z</time>
      </trkpt>
      <trkpt lat="46.06449" lon="6.46164">
        <ele>461</ele>
        <time>2011-07-24T07:44:24Z</time>
      </trkpt>
      <trkpt lat="46.06456" lon="6.46187">
        <ele>461</ele>
        <time>2011-07-24T07:44:25Z</time>
      </trkpt>
      <trkpt lat="46.06462" lon="6.46209">
        <ele>461</ele>
        <time>2011-07-24T07:44:26Z</time>
      </trkpt>
      <trkpt lat="46.06466" lon="6.46231">
        <ele>461</ele>
        <time>2011-07-24T07:44:27Z</time>
      </trkpt>
      <trkpt lat="46.0647" lon="6.46254">
        <ele>461</ele>
        <time>2011-07-24T07:44:28Z</time>
      </trkpt>
      <trkpt lat="46.06473" lon="6.46279">
        <ele>461</ele>
        <time>2011-07-24T07:44:29Z</time>
      </trkpt>
      <trkpt lat="46.06477" lon="6.46303">
        <ele>461</ele>
        <time>2011-07-24T07:44:30Z</time>
      </trkpt>
      <trkpt lat="46.06483" lon="6.46327">
        <ele>461</ele>
        <time>2011-07-24T07:44:31Z</time>
      </trkpt>
      <trkpt lat="46.06488" lon="6.4635">
        <ele>461</ele>
        <time>2011-07-24T07:44:32Z</time>
      </trkpt>
      <trkpt lat="46.06493" lon="6.46373">
        <ele>461</ele>
        <time>2011-07-24T07:44:33Z</time>
      </trkpt>
      <trkpt lat="46.06497" lon="6.46394">
        <ele>461</ele>
        <time>2011-07-24T07:44:34Z</time>
      </trkpt>
      <trkpt lat="46.06502" lon="6.46414">
        <ele>461</ele>
        <time>2011-07-24T07:44:35Z</time>
      </trkpt>
      <trkpt lat="46.06507" lon="6.46434">
        <ele>461</ele>
        <time>2011-07-24T07:44:36Z</time>
      </trkpt>
      <trkpt lat="46.06512" lon="6.46454">
        <ele>461</ele>
        <time>2011-07-24T07:44:37Z</time>
      </trkpt>
      <trkpt lat="46.06516" lon="6.46474">
        <ele>461</ele>
        <time>2011-07-24T07:44:38Z</time>
      </trkpt>
      <trkpt lat="46.0652" lon="6.46492">
        <ele>461</ele>
        <time>2011-07-24T07:44:39Z</time>
      </trkpt>
      <trkpt lat="46.06524" lon="6.46509">
        <ele>461</ele>
        <time>2011-07-24T07:44:40Z</time>
      </trkpt>
      <trkpt lat="46.06527" lon="6.46523">
        <ele>461</ele>
        <time>2011-07-24T07:44:41Z</time>
      </trkpt>
      <trkpt lat="46.06529" lon="6.46545">
        <ele>461</ele>
        <time>2011-07-24T07:44:43Z</time>
      </trkpt>
      <trkpt lat="46.06531" lon="6.46564">
        <ele>461</ele>
        <time>2011-07-24T07:44:45Z</time>
      </trkpt>
      <trkpt lat="46.06531" lon="6.46579">
        <ele>461</ele>
        <time>2011-07-24T07:44:47Z</time>
      </trkpt>
      <trkpt lat="46.06519" lon="6.46592">
        <ele>461</ele>
        <time>2011-07-24T07:44:50Z</time>
      </trkpt>
      <trkpt lat="46.06501" lon="6.46596">
        <ele>461</ele>
        <time>2011-07-24T07:44:52Z</time>
      </trkpt>
      <trkpt lat="46.06489" lon="6.46597">
        <ele>461</ele>
        <time>2011-07-24T07:44:53Z</time>
      </trkpt>
      <trkpt lat="46.06479" lon="6.46598">
        <ele>461</ele>
        <time>2011-07-24T07:44:54Z</time>
      </trkpt>
      <trkpt lat="46.06469" lon="6.46598">
        <ele>461</ele>
        <time>2011-07-24T07:44:55Z</time>
      </trkpt>
      <trkpt lat="46.06455" lon="6.46598">
        <ele>461</ele>
        <time>2011-07-24T07:44:57Z</time>
      </trkpt>
      <trkpt lat="46.06446" lon="6.46603">
        <ele>461</ele>
        <time>2011-07-24T07:45:00Z</time>
      </trkpt>
      <trkpt lat="46.06446" lon="6.46621">
        <ele>461</ele>
        <time>2011-07-24T07:45:03Z</time>
      </trkpt>
      <trkpt lat="46.0645" lon="6.46637">
        <ele>461</ele>
        <time>2011-07-24T07:45:05Z</time>
      </trkpt>
      <trkpt lat="46.06452" lon="6.46651">
        <ele>461</ele>
        <time>2011-07-24T07:45:07Z</time>
      </trkpt>
      <trkpt lat="46.06452" lon="6.46664">
        <ele>461</ele>
        <time>2011-07-24T07:45:10Z</time>
      </trkpt>
      <trkpt lat="46.06454" lon="6.46682">
        <ele>461</ele>
        <time>2011-07-24T07:45:15Z</time>
      </trkpt>
      <trkpt lat="46.06457" lon="6.46695">
        <ele>461</ele>
        <time>2011-07-24T07:45:17Z</time>
      </trkpt>
      <trkpt lat="46.06456" lon="6.46712">
        <ele>461</ele>
        <time>2011-07-24T07:45:20Z</time>
      </trkpt>
      <trkpt lat="46.06449" lon="6.46727">
        <ele>461</ele>
        <time>2011-07-24T07:45:23Z</time>
      </trkpt>
      <trkpt lat="46.06444" lon="6.46739">
        <ele>461</ele>
        <time>2011-07-24T07:45:25Z</time>
      </trkpt>
      <trkpt lat="46.06438" lon="6.46749">
        <ele>461</ele>
        <time>2011-07-24T07:45:27Z</time>
      </trkpt>
      <trkpt lat="46.06432" lon="6.46761">
        <ele>461</ele>
        <time>2011-07-24T07:45:30Z</time>
      </trkpt>
      <trkpt lat="46.06432" lon="6.46774">
        <ele>466</ele>
        <time>2011-07-24T07:45:32Z</time>
      </trkpt>
      <trkpt lat="46.06438" lon="6.46786">
        <ele>466</ele>
        <time>2011-07-24T07:45:33Z</time>
      </trkpt>
      <trkpt lat="46.06443" lon="6.46798">
        <ele>466</ele>
        <time>2011-07-24T07:45:34Z</time>
      </trkpt>
      <trkpt lat="46.06452" lon="6.46818">
        <ele>466</ele>
        <time>2011-07-24T07:45:36Z</time>
      </trkpt>
      <trkpt lat="46.06456" lon="6.4683">
        <ele>466</ele>
        <time>2011-07-24T07:45:37Z</time>
      </trkpt>
      <trkpt lat="46.06459" lon="6.46846">
        <ele>466</ele>
        <time>2011-07-24T07:45:38Z</time>
      </trkpt>
      <trkpt lat="46.06461" lon="6.46863">
        <ele>466</ele>
        <time>2011-07-24T07:45:39Z</time>
      </trkpt>
      <trkpt lat="46.06463" lon="6.4688">
        <ele>466</ele>
        <time>2011-07-24T07:45:40Z</time>
      </trkpt>
      <trkpt lat="46.06466" lon="6.46896">
        <ele>466</ele>
        <time>2011-07-24T07:45:41Z</time>
      </trkpt>
      <trkpt lat="46.06468" lon="6.46912">
        <ele>466</ele>
        <time>2011-07-24T07:45:42Z</time>
      </trkpt>
      <trkpt lat="46.06471" lon="6.4693">
        <ele>466</ele>
        <time>2011-07-24T07:45:43Z</time>
      </trkpt>
      <trkpt lat="46.06474" lon="6.4695">
        <ele>466</ele>
        <time>2011-07-24T07:45:44Z</time>
      </trkpt>
      <trkpt lat="46.06476" lon="6.46969">
        <ele>466</ele>
        <time>2011-07-24T07:45:45Z</time>
      </trkpt>
      <trkpt lat="46.06478" lon="6.46988">
        <ele>466</ele>
        <time>2011-07-24T07:45:46Z</time>
      </trkpt>
      <trkpt lat="46.06481" lon="6.47007">
        <ele>466</ele>
        <time>2011-07-24T07:45:47Z</time>
      </trkpt>
      <trkpt lat="46.06484" lon="6.47025">
        <ele>466</ele>
        <time>2011-07-24T07:45:48Z</time>
      </trkpt>
      <trkpt lat="46.06487" lon="6.47043">
        <ele>466</ele>
        <time>2011-07-24T07:45:49Z</time>
      </trkpt>
      <trkpt lat="46.0649" lon="6.47061">
        <ele>466</ele>
        <time>2011-07-24T07:45:50Z</time>
      </trkpt>
      <trkpt lat="46.06492" lon="6.47078">
        <ele>466</ele>
        <time>2011-07-24T07:45:51Z</time>
      </trkpt>
      <trkpt lat="46.06493" lon="6.47094">
        <ele>466</ele>
        <time>2011-07-24T07:45:52Z</time>
      </trkpt>
      <trkpt lat="46.06496" lon="6.47111">
        <ele>466</ele>
        <time>2011-07-24T07:45:53Z</time>
      </trkpt>
      <trkpt lat="46.06497" lon="6.47128">
        <ele>466</ele>
        <time>2011-07-24T07:45:54Z</time>
      </trkpt>
      <trkpt lat="46.06499" lon="6.47143">
        <ele>466</ele>
        <time>2011-07-24T07:45:55Z</time>
      </trkpt>
      <trkpt lat="46.06502" lon="6.47159">
        <ele>466</ele>
        <time>2011-07-24T07:45:56Z</time>
      </trkpt>
      <trkpt lat="46.06505" lon="6.47174">
        <ele>466</ele>
        <time>2011-07-24T07:45:57Z</time>
      </trkpt>
      <trkpt lat="46.06508" lon="6.47199">
        <ele>466</ele>
        <time>2011-07-24T07:45:59Z</time>
      </trkpt>
      <trkpt lat="46.06515" lon="6.47225">
        <ele>466</ele>
        <time>2011-07-24T07:46:01Z</time>
      </trkpt>
      <trkpt lat="46.06518" lon="6.47237">
        <ele>466</ele>
        <time>2011-07-24T07:46:02Z</time>
      </trkpt>
      <trkpt lat="46.06521" lon="6.47251">
        <ele>466</ele>
        <time>2011-07-24T07:46:03Z</time>
      </trkpt>
      <trkpt lat="46.06524" lon="6.47265">
        <ele>466</ele>
        <time>2011-07-24T07:46:04Z</time>
      </trkpt>
      <trkpt lat="46.06526" lon="6.47278">
        <ele>466</ele>
        <time>2011-07-24T07:46:05Z</time>
      </trkpt>
      <trkpt lat="46.06526" lon="6.47291">
        <ele>466</ele>
        <time>2011-07-24T07:46:06Z</time>
      </trkpt>
      <trkpt lat="46.06525" lon="6.47307">
        <ele>466</ele>
        <time>2011-07-24T07:46:07Z</time>
      </trkpt>
      <trkpt lat="46.06522" lon="6.47322">
        <ele>466</ele>
        <time>2011-07-24T07:46:08Z</time>
      </trkpt>
      <trkpt lat="46.06521" lon="6.47338">
        <ele>466</ele>
        <time>2011-07-24T07:46:09Z</time>
      </trkpt>
      <trkpt lat="46.06518" lon="6.47351">
        <ele>466</ele>
        <time>2011-07-24T07:46:10Z</time>
      </trkpt>
      <trkpt lat="46.06517" lon="6.47367">
        <ele>466</ele>
        <time>2011-07-24T07:46:11Z</time>
      </trkpt>
      <trkpt lat="46.06515" lon="6.47386">
        <ele>466</ele>
        <time>2011-07-24T07:46:12Z</time>
      </trkpt>
      <trkpt lat="46.06512" lon="6.47402">
        <ele>459</ele>
        <time>2011-07-24T07:46:13Z</time>
      </trkpt>
      <trkpt lat="46.06513" lon="6.47419">
        <ele>459</ele>
        <time>2011-07-24T07:46:14Z</time>
      </trkpt>
      <trkpt lat="46.06511" lon="6.47434">
        <ele>459</ele>
        <time>2011-07-24T07:46:15Z</time>
      </trkpt>
      <trkpt lat="46.06514" lon="6.47451">
        <ele>454</ele>
        <time>2011-07-24T07:46:16Z</time>
      </trkpt>
      <trkpt lat="46.06516" lon="6.47472">
        <ele>454</ele>
        <time>2011-07-24T07:46:17Z</time>
      </trkpt>
      <trkpt lat="46.06519" lon="6.47493">
        <ele>454</ele>
        <time>2011-07-24T07:46:18Z</time>
      </trkpt>
      <trkpt lat="46.06521" lon="6.47513">
        <ele>459</ele>
        <time>2011-07-24T07:46:19Z</time>
      </trkpt>
      <trkpt lat="46.06522" lon="6.47534">
        <ele>459</ele>
        <time>2011-07-24T07:46:20Z</time>
      </trkpt>
      <trkpt lat="46.06524" lon="6.47555">
        <ele>459</ele>
        <time>2011-07-24T07:46:21Z</time>
      </trkpt>
      <trkpt lat="46.06525" lon="6.47574">
        <ele>459</ele>
        <time>2011-07-24T07:46:22Z</time>
      </trkpt>
      <trkpt lat="46.06526" lon="6.4759">
        <ele>459</ele>
        <time>2011-07-24T07:46:23Z</time>
      </trkpt>
      <trkpt lat="46.06528" lon="6.47605">
        <ele>465</ele>
        <time>2011-07-24T07:46:24Z</time>
      </trkpt>
      <trkpt lat="46.06528" lon="6.47619">
        <ele>465</ele>
        <time>2011-07-24T07:46:25Z</time>
      </trkpt>
      <trkpt lat="46.06532" lon="6.47633">
        <ele>465</ele>
        <time>2011-07-24T07:46:27Z</time>
      </trkpt>
      <trkpt lat="46.06532" lon="6.47647">
        <ele>465</ele>
        <time>2011-07-24T07:46:30Z</time>
      </trkpt>
      <trkpt lat="46.06534" lon="6.4766">
        <ele>465</ele>
        <time>2011-07-24T07:46:33Z</time>
      </trkpt>
      <trkpt lat="46.06537" lon="6.47681">
        <ele>465</ele>
        <time>2011-07-24T07:46:35Z</time>
      </trkpt>
      <trkpt lat="46.06541" lon="6.47694">
        <ele>465</ele>
        <time>2011-07-24T07:46:36Z</time>
      </trkpt>
      <trkpt lat="46.06544" lon="6.47708">
        <ele>465</ele>
        <time>2011-07-24T07:46:37Z</time>
      </trkpt>
      <trkpt lat="46.06546" lon="6.47722">
        <ele>465</ele>
        <time>2011-07-24T07:46:38Z</time>
      </trkpt>
      <trkpt lat="46.06546" lon="6.47738">
        <ele>465</ele>
        <time>2011-07-24T07:46:39Z</time>
      </trkpt>
      <trkpt lat="46.06545" lon="6.47754">
        <ele>465</ele>
        <time>2011-07-24T07:46:40Z</time>
      </trkpt>
      <trkpt lat="46.06546" lon="6.4777">
        <ele>471</ele>
        <time>2011-07-24T07:46:41Z</time>
      </trkpt>
      <trkpt lat="46.06546" lon="6.47785">
        <ele>471</ele>
        <time>2011-07-24T07:46:42Z</time>
      </trkpt>
      <trkpt lat="46.06547" lon="6.47801">
        <ele>471</ele>
        <time>2011-07-24T07:46:43Z</time>
      </trkpt>
      <trkpt lat="46.06549" lon="6.47817">
        <ele>471</ele>
        <time>2011-07-24T07:46:44Z</time>
      </trkpt>
      <trkpt lat="46.06551" lon="6.47834">
        <ele>471</ele>
        <time>2011-07-24T07:46:45Z</time>
      </trkpt>
      <trkpt lat="46.06554" lon="6.47851">
        <ele>471</ele>
        <time>2011-07-24T07:46:46Z</time>
      </trkpt>
      <trkpt lat="46.06556" lon="6.47867">
        <ele>471</ele>
        <time>2011-07-24T07:46:47Z</time>
      </trkpt>
      <trkpt lat="46.06557" lon="6.47883">
        <ele>471</ele>
        <time>2011-07-24T07:46:48Z</time>
      </trkpt>
      <trkpt lat="46.06559" lon="6.47899">
        <ele>471</ele>
        <time>2011-07-24T07:46:49Z</time>
      </trkpt>
      <trkpt lat="46.0656" lon="6.47915">
        <ele>471</ele>
        <time>2011-07-24T07:46:50Z</time>
      </trkpt>
      <trkpt lat="46.0656" lon="6.47931">
        <ele>471</ele>
        <time>2011-07-24T07:46:51Z</time>
      </trkpt>
      <trkpt lat="46.06561" lon="6.47946">
        <ele>471</ele>
        <time>2011-07-24T07:46:52Z</time>
      </trkpt>
      <trkpt lat="46.06561" lon="6.47961">
        <ele>471</ele>
        <time>2011-07-24T07:46:53Z</time>
      </trkpt>
      <trkpt lat="46.06562" lon="6.47977">
        <ele>471</ele>
        <time>2011-07-24T07:46:54Z</time>
      </trkpt>
      <trkpt lat="46.06565" lon="6.47993">
        <ele>471</ele>
        <time>2011-07-24T07:46:55Z</time>
      </trkpt>
      <trkpt lat="46.06567" lon="6.48006">
        <ele>476</ele>
        <time>2011-07-24T07:46:56Z</time>
      </trkpt>
      <trkpt lat="46.0657" lon="6.4803">
        <ele>476</ele>
        <time>2011-07-24T07:46:58Z</time>
      </trkpt>
      <trkpt lat="46.0657" lon="6.48052">
        <ele>476</ele>
        <time>2011-07-24T07:47:00Z</time>
      </trkpt>
      <trkpt lat="46.06569" lon="6.48077">
        <ele>481</ele>
        <time>2011-07-24T07:47:02Z</time>
      </trkpt>
      <trkpt lat="46.06567" lon="6.481">
        <ele>481</ele>
        <time>2011-07-24T07:47:04Z</time>
      </trkpt>
      <trkpt lat="46.06564" lon="6.48123">
        <ele>481</ele>
        <time>2011-07-24T07:47:06Z</time>
      </trkpt>
      <trkpt lat="46.06562" lon="6.48144">
        <ele>481</ele>
        <time>2011-07-24T07:47:08Z</time>
      </trkpt>
      <trkpt lat="46.06559" lon="6.48166">
        <ele>488</ele>
        <time>2011-07-24T07:47:10Z</time>
      </trkpt>
      <trkpt lat="46.06554" lon="6.4819">
        <ele>488</ele>
        <time>2011-07-24T07:47:12Z</time>
      </trkpt>
      <trkpt lat="46.06549" lon="6.4821">
        <ele>488</ele>
        <time>2011-07-24T07:47:14Z</time>
      </trkpt>
      <trkpt lat="46.06545" lon="6.48224">
        <ele>488</ele>
        <time>2011-07-24T07:47:16Z</time>
      </trkpt>
      <trkpt lat="46.0653" lon="6.48235">
        <ele>496</ele>
        <time>2011-07-24T07:47:19Z</time>
      </trkpt>
      <trkpt lat="46.06515" lon="6.48248">
        <ele>496</ele>
        <time>2011-07-24T07:47:22Z</time>
      </trkpt>
      <trkpt lat="46.06501" lon="6.48262">
        <ele>496</ele>
        <time>2011-07-24T07:47:24Z</time>
      </trkpt>
      <trkpt lat="46.06489" lon="6.4828">
        <ele>496</ele>
        <time>2011-07-24T07:47:26Z</time>
      </trkpt>
      <trkpt lat="46.06485" lon="6.483">
        <ele>496</ele>
        <time>2011-07-24T07:47:28Z</time>
      </trkpt>
      <trkpt lat="46.0648" lon="6.48316">
        <ele>504</ele>
        <time>2011-07-24T07:47:30Z</time>
      </trkpt>
      <trkpt lat="46.06474" lon="6.48326">
        <ele>504</ele>
        <time>2011-07-24T07:47:32Z</time>
      </trkpt>
      <trkpt lat="46.06462" lon="6.48336">
        <ele>514</ele>
        <time>2011-07-24T07:47:35Z</time>
      </trkpt>
      <trkpt lat="46.06452" lon="6.48347">
        <ele>523</ele>
        <time>2011-07-24T07:47:38Z</time>
      </trkpt>
      <trkpt lat="46.06442" lon="6.48358">
        <ele>531</ele>
        <time>2011-07-24T07:47:41Z</time>
      </trkpt>
      <trkpt lat="46.06434" lon="6.48366">
        <ele>531</ele>
        <time>2011-07-24T07:47:44Z</time>
      </trkpt>
      <trkpt lat="46.06426" lon="6.48373">
        <ele>541</ele>
        <time>2011-07-24T07:47:46Z</time>
      </trkpt>
      <trkpt lat="46.06408" lon="6.48382">
        <ele>541</ele>
        <time>2011-07-24T07:47:50Z</time>
      </trkpt>
      <trkpt lat="46.06399" lon="6.48391">
        <ele>541</ele>
        <time>2011-07-24T07:47:52Z</time>
      </trkpt>
      <trkpt lat="46.064" lon="6.48407">
        <ele>534</ele>
        <time>2011-07-24T07:47:56Z</time>
      </trkpt>
      <trkpt lat="46.06407" lon="6.48417">
        <ele>528</ele>
        <time>2011-07-24T07:47:58Z</time>
      </trkpt>
      <trkpt lat="46.06415" lon="6.48426">
        <ele>523</ele>
        <time>2011-07-24T07:48:00Z</time>
      </trkpt>
      <trkpt lat="46.06425" lon="6.48433">
        <ele>523</ele>
        <time>2011-07-24T07:48:02Z</time>
      </trkpt>
      <trkpt lat="46.0644" lon="6.48441">
        <ele>514</ele>
        <time>2011-07-24T07:48:04Z</time>
      </trkpt>
      <trkpt lat="46.06456" lon="6.48447">
        <ele>514</ele>
        <time>2011-07-24T07:48:06Z</time>
      </trkpt>
      <trkpt lat="46.06469" lon="6.48453">
        <ele>508</ele>
        <time>2011-07-24T07:48:08Z</time>
      </trkpt>
      <trkpt lat="46.06485" lon="6.48461">
        <ele>508</ele>
        <time>2011-07-24T07:48:10Z</time>
      </trkpt>
      <trkpt lat="46.06501" lon="6.48467">
        <ele>508</ele>
        <time>2011-07-24T07:48:12Z</time>
      </trkpt>
      <trkpt lat="46.06514" lon="6.48481">
        <ele>501</ele>
        <time>2011-07-24T07:48:14Z</time>
      </trkpt>
      <trkpt lat="46.06523" lon="6.48496">
        <ele>501</ele>
        <time>2011-07-24T07:48:16Z</time>
      </trkpt>
      <trkpt lat="46.06537" lon="6.48504">
        <ele>501</ele>
        <time>2011-07-24T07:48:18Z</time>
      </trkpt>
      <trkpt lat="46.06552" lon="6.48508">
        <ele>495</ele>
        <time>2011-07-24T07:48:20Z</time>
      </trkpt>
      <trkpt lat="46.06565" lon="6.48512">
        <ele>495</ele>
        <time>2011-07-24T07:48:22Z</time>
      </trkpt>
      <trkpt lat="46.06575" lon="6.48514">
        <ele>490</ele>
        <time>2011-07-24T07:48:24Z</time>
      </trkpt>
      <trkpt lat="46.06584" lon="6.48507">
        <ele>490</ele>
        <time>2011-07-24T07:48:27Z</time>
      </trkpt>
      <trkpt lat="46.06585" lon="6.48489">
        <ele>490</ele>
        <time>2011-07-24T07:48:30Z</time>
      </trkpt>
      <trkpt lat="46.06579" lon="6.48475">
        <ele>490</ele>
        <time>2011-07-24T07:48:33Z</time>
      </trkpt>
      <trkpt lat="46.0657" lon="6.48478">
        <ele>490</ele>
        <time>2011-07-24T07:48:36Z</time>
      </trkpt>
      <trkpt lat="46.06577" lon="6.48488">
        <ele>496</ele>
        <time>2011-07-24T07:59:55Z</time>
      </trkpt>
      <trkpt lat="46.06587" lon="6.48496">
        <ele>496</ele>
        <time>2011-07-24T07:59:58Z</time>
      </trkpt>
      <trkpt lat="46.06591" lon="6.4851">
        <ele>496</ele>
        <time>2011-07-24T08:00:01Z</time>
      </trkpt>
      <trkpt lat="46.06587" lon="6.48532">
        <ele>496</ele>
        <time>2011-07-24T08:00:03Z</time>
      </trkpt>
      <trkpt lat="46.06584" lon="6.48544">
        <ele>496</ele>
        <time>2011-07-24T08:00:04Z</time>
      </trkpt>
      <trkpt lat="46.06581" lon="6.48558">
        <ele>496</ele>
        <time>2011-07-24T08:00:05Z</time>
      </trkpt>
      <trkpt lat="46.06578" lon="6.48571">
        <ele>496</ele>
        <time>2011-07-24T08:00:06Z</time>
      </trkpt>
      <trkpt lat="46.06575" lon="6.48585">
        <ele>496</ele>
        <time>2011-07-24T08:00:07Z</time>
      </trkpt>
      <trkpt lat="46.06572" lon="6.486">
        <ele>491</ele>
        <time>2011-07-24T08:00:08Z</time>
      </trkpt>
      <trkpt lat="46.06569" lon="6.48614">
        <ele>491</ele>
        <time>2011-07-24T08:00:09Z</time>
      </trkpt>
      <trkpt lat="46.06566" lon="6.48627">
        <ele>491</ele>
        <time>2011-07-24T08:00:10Z</time>
      </trkpt>
      <trkpt lat="46.06562" lon="6.4864">
        <ele>491</ele>
        <time>2011-07-24T08:00:11Z</time>
      </trkpt>
      <trkpt lat="46.0656" lon="6.48655">
        <ele>491</ele>
        <time>2011-07-24T08:00:12Z</time>
      </trkpt>
      <trkpt lat="46.06556" lon="6.4867">
        <ele>491</ele>
        <time>2011-07-24T08:00:13Z</time>
      </trkpt>
      <trkpt lat="46.06552" lon="6.48685">
        <ele>491</ele>
        <time>2011-07-24T08:00:14Z</time>
      </trkpt>
      <trkpt lat="46.06549" lon="6.487">
        <ele>491</ele>
        <time>2011-07-24T08:00:15Z</time>
      </trkpt>
      <trkpt lat="46.06545" lon="6.48715">
        <ele>485</ele>
        <time>2011-07-24T08:00:16Z</time>
      </trkpt>
      <trkpt lat="46.06542" lon="6.48729">
        <ele>485</ele>
        <time>2011-07-24T08:00:17Z</time>
      </trkpt>
      <trkpt lat="46.0654" lon="6.48744">
        <ele>485</ele>
        <time>2011-07-24T08:00:18Z</time>
      </trkpt>
      <trkpt lat="46.06539" lon="6.48761">
        <ele>485</ele>
        <time>2011-07-24T08:00:19Z</time>
      </trkpt>
      <trkpt lat="46.06539" lon="6.48777">
        <ele>485</ele>
        <time>2011-07-24T08:00:20Z</time>
      </trkpt>
      <trkpt lat="46.06542" lon="6.48793">
        <ele>485</ele>
        <time>2011-07-24T08:00:21Z</time>
      </trkpt>
      <trkpt lat="46.06544" lon="6.48807">
        <ele>485</ele>
        <time>2011-07-24T08:00:22Z</time>
      </trkpt>
      <trkpt lat="46.06547" lon="6.48823">
        <ele>485</ele>
        <time>2011-07-24T08:00:23Z</time>
      </trkpt>
      <trkpt lat="46.06547" lon="6.48839">
        <ele>485</ele>
        <time>2011-07-24T08:00:24Z</time>
      </trkpt>
      <trkpt lat="46.06547" lon="6.48856">
        <ele>485</ele>
        <time>2011-07-24T08:00:25Z</time>
      </trkpt>
      <trkpt lat="46.06547" lon="6.48875">
        <ele>480</ele>
        <time>2011-07-24T08:00:26Z</time>
      </trkpt>
      <trkpt lat="46.06546" lon="6.48894">
        <ele>480</ele>
        <time>2011-07-24T08:00:27Z</time>
      </trkpt>
      <trkpt lat="46.06546" lon="6.48914">
        <ele>480</ele>
        <time>2011-07-24T08:00:28Z</time>
      </trkpt>
      <trkpt lat="46.06544" lon="6.48936">
        <ele>480</ele>
        <time>2011-07-24T08:00:29Z</time>
      </trkpt>
      <trkpt lat="46.06544" lon="6.48957">
        <ele>480</ele>
        <time>2011-07-24T08:00:30Z</time>
      </trkpt>
      <trkpt lat="46.06545" lon="6.4898">
        <ele>480</ele>
        <time>2011-07-24T08:00:31Z</time>
      </trkpt>
      <trkpt lat="46.06546" lon="6.49002">
        <ele>480</ele>
        <time>2011-07-24T08:00:32Z</time>
      </trkpt>
      <trkpt lat="46.06548" lon="6.49027">
        <ele>475</ele>
        <time>2011-07-24T08:00:33Z</time>
      </trkpt>
      <trkpt lat="46.06551" lon="6.49049">
        <ele>475</ele>
        <time>2011-07-24T08:00:34Z</time>
      </trkpt>
      <trkpt lat="46.06556" lon="6.4907">
        <ele>475</ele>
        <time>2011-07-24T08:00:35Z</time>
      </trkpt>
      <trkpt lat="46.06562" lon="6.49089">
        <ele>475</ele>
        <time>2011-07-24T08:00:36Z</time>
      </trkpt>
      <trkpt lat="46.06569" lon="6.49105">
        <ele>475</ele>
        <time>2011-07-24T08:00:37Z</time>
      </trkpt>
      <trkpt lat="46.06577" lon="6.49117">
        <ele>475</ele>
        <time>2011-07-24T08:00:38Z</time>
      </trkpt>
      <trkpt lat="46.0659" lon="6.4913">
        <ele>475</ele>
        <time>2011-07-24T08:00:39Z</time>
      </trkpt>
      <trkpt lat="46.06599" lon="6.49142">
        <ele>475</ele>
        <time>2011-07-24T08:00:40Z</time>
      </trkpt>
      <trkpt lat="46.06609" lon="6.49164">
        <ele>475</ele>
        <time>2011-07-24T08:00:42Z</time>
      </trkpt>
      <trkpt lat="46.06616" lon="6.49177">
        <ele>475</ele>
        <time>2011-07-24T08:00:43Z</time>
      </trkpt>
      <trkpt lat="46.0662" lon="6.49191">
        <ele>475</ele>
        <time>2011-07-24T08:00:44Z</time>
      </trkpt>
      <trkpt lat="46.06624" lon="6.49203">
        <ele>475</ele>
        <time>2011-07-24T08:00:45Z</time>
      </trkpt>
      <trkpt lat="46.06629" lon="6.49214">
        <ele>475</ele>
        <time>2011-07-24T08:00:46Z</time>
      </trkpt>
      <trkpt lat="46.06634" lon="6.49226">
        <ele>475</ele>
        <time>2011-07-24T08:00:47Z</time>
      </trkpt>
      <trkpt lat="46.0664" lon="6.4924">
        <ele>475</ele>
        <time>2011-07-24T08:00:48Z</time>
      </trkpt>
      <trkpt lat="46.06648" lon="6.49257">
        <ele>475</ele>
        <time>2011-07-24T08:00:49Z</time>
      </trkpt>
      <trkpt lat="46.06656" lon="6.49272">
        <ele>475</ele>
        <time>2011-07-24T08:00:50Z</time>
      </trkpt>
      <trkpt lat="46.06662" lon="6.49286">
        <ele>480</ele>
        <time>2011-07-24T08:00:51Z</time>
      </trkpt>
      <trkpt lat="46.06668" lon="6.49298">
        <ele>480</ele>
        <time>2011-07-24T08:00:52Z</time>
      </trkpt>
      <trkpt lat="46.06673" lon="6.49321">
        <ele>480</ele>
        <time>2011-07-24T08:00:54Z</time>
      </trkpt>
      <trkpt lat="46.06671" lon="6.49348">
        <ele>480</ele>
        <time>2011-07-24T08:00:56Z</time>
      </trkpt>
      <trkpt lat="46.06668" lon="6.49363">
        <ele>480</ele>
        <time>2011-07-24T08:00:57Z</time>
      </trkpt>
      <trkpt lat="46.06662" lon="6.49378">
        <ele>480</ele>
        <time>2011-07-24T08:00:58Z</time>
      </trkpt>
      <trkpt lat="46.06657" lon="6.49395">
        <ele>480</ele>
        <time>2011-07-24T08:00:59Z</time>
      </trkpt>
      <trkpt lat="46.06651" lon="6.49413">
        <ele>480</ele>
        <time>2011-07-24T08:01:00Z</time>
      </trkpt>
      <trkpt lat="46.06647" lon="6.4943">
        <ele>480</ele>
        <time>2011-07-24T08:01:01Z</time>
      </trkpt>
      <trkpt lat="46.06645" lon="6.49447">
        <ele>480</ele>
        <time>2011-07-24T08:01:02Z</time>
      </trkpt>
      <trkpt lat="46.06643" lon="6.49465">
        <ele>485</ele>
        <time>2011-07-24T08:01:03Z</time>
      </trkpt>
      <trkpt lat="46.06643" lon="6.49484">
        <ele>485</ele>
        <time>2011-07-24T08:01:04Z</time>
      </trkpt>
      <trkpt lat="46.06644" lon="6.49504">
        <ele>485</ele>
        <time>2011-07-24T08:01:05Z</time>
      </trkpt>
      <trkpt lat="46.06647" lon="6.49525">
        <ele>485</ele>
        <time>2011-07-24T08:01:06Z</time>
      </trkpt>
      <trkpt lat="46.06649" lon="6.49547">
        <ele>485</ele>
        <time>2011-07-24T08:01:07Z</time>
      </trkpt>
      <trkpt lat="46.06652" lon="6.49569">
        <ele>485</ele>
        <time>2011-07-24T08:01:08Z</time>
      </trkpt>
      <trkpt lat="46.06655" lon="6.4959">
        <ele>491</ele>
        <time>2011-07-24T08:01:09Z</time>
      </trkpt>
      <trkpt lat="46.06657" lon="6.49611">
        <ele>491</ele>
        <time>2011-07-24T08:01:10Z</time>
      </trkpt>
      <trkpt lat="46.06659" lon="6.49632">
        <ele>491</ele>
        <time>2011-07-24T08:01:11Z</time>
      </trkpt>
      <trkpt lat="46.0666" lon="6.49654">
        <ele>491</ele>
        <time>2011-07-24T08:01:12Z</time>
      </trkpt>
      <trkpt lat="46.06661" lon="6.49674">
        <ele>491</ele>
        <time>2011-07-24T08:01:13Z</time>
      </trkpt>
      <trkpt lat="46.06661" lon="6.4969">
        <ele>491</ele>
        <time>2011-07-24T08:01:14Z</time>
      </trkpt>
      <trkpt lat="46.06661" lon="6.49705">
        <ele>491</ele>
        <time>2011-07-24T08:01:15Z</time>
      </trkpt>
      <trkpt lat="46.06661" lon="6.49718">
        <ele>491</ele>
        <time>2011-07-24T08:01:16Z</time>
      </trkpt>
      <trkpt lat="46.06663" lon="6.4974">
        <ele>498</ele>
        <time>2011-07-24T08:01:18Z</time>
      </trkpt>
      <trkpt lat="46.06665" lon="6.49758">
        <ele>498</ele>
        <time>2011-07-24T08:01:20Z</time>
      </trkpt>
      <trkpt lat="46.0668" lon="6.49766">
        <ele>498</ele>
        <time>2011-07-24T08:01:23Z</time>
      </trkpt>
      <trkpt lat="46.06689" lon="6.49762">
        <ele>498</ele>
        <time>2011-07-24T08:01:24Z</time>
      </trkpt>
      <trkpt lat="46.06698" lon="6.49759">
        <ele>498</ele>
        <time>2011-07-24T08:01:25Z</time>
      </trkpt>
      <trkpt lat="46.06711" lon="6.49755">
        <ele>498</ele>
        <time>2011-07-24T08:01:27Z</time>
      </trkpt>
      <trkpt lat="46.06721" lon="6.49758">
        <ele>498</ele>
        <time>2011-07-24T08:01:29Z</time>
      </trkpt>
      <trkpt lat="46.06728" lon="6.49775">
        <ele>498</ele>
        <time>2011-07-24T08:01:31Z</time>
      </trkpt>
      <trkpt lat="46.06733" lon="6.49795">
        <ele>498</ele>
        <time>2011-07-24T08:01:33Z</time>
      </trkpt>
      <trkpt lat="46.06736" lon="6.49812">
        <ele>498</ele>
        <time>2011-07-24T08:01:35Z</time>
      </trkpt>
      <trkpt lat="46.06739" lon="6.49829">
        <ele>498</ele>
        <time>2011-07-24T08:01:37Z</time>
      </trkpt>
      <trkpt lat="46.06743" lon="6.49844">
        <ele>498</ele>
        <time>2011-07-24T08:01:39Z</time>
      </trkpt>
      <trkpt lat="46.06749" lon="6.49859">
        <ele>498</ele>
        <time>2011-07-24T08:01:41Z</time>
      </trkpt>
      <trkpt lat="46.06756" lon="6.49878">
        <ele>498</ele>
        <time>2011-07-24T08:01:43Z</time>
      </trkpt>
      <trkpt lat="46.06759" lon="6.49895">
        <ele>498</ele>
        <time>2011-07-24T08:01:45Z</time>
      </trkpt>
      <trkpt lat="46.06763" lon="6.49914">
        <ele>498</ele>
        <time>2011-07-24T08:01:47Z</time>
      </trkpt>
      <trkpt lat="46.06764" lon="6.49929">
        <ele>491</ele>
        <time>2011-07-24T08:01:49Z</time>
      </trkpt>
      <trkpt lat="46.06759" lon="6.49942">
        <ele>491</ele>
        <time>2011-07-24T08:01:51Z</time>
      </trkpt>
      <trkpt lat="46.06751" lon="6.49955">
        <ele>486</ele>
        <time>2011-07-24T08:01:54Z</time>
      </trkpt>
      <trkpt lat="46.06756" lon="6.49972">
        <ele>486</ele>
        <time>2011-07-24T08:01:57Z</time>
      </trkpt>
      <trkpt lat="46.06761" lon="6.49987">
        <ele>486</ele>
        <time>2011-07-24T08:02:00Z</time>
      </trkpt>
      <trkpt lat="46.06766" lon="6.5">
        <ele>486</ele>
        <time>2011-07-24T08:02:03Z</time>
      </trkpt>
      <trkpt lat="46.06769" lon="6.50027">
        <ele>480</ele>
        <time>2011-07-24T08:02:07Z</time>
      </trkpt>
      <trkpt lat="46.06768" lon="6.50049">
        <ele>480</ele>
        <time>2011-07-24T08:02:09Z</time>
      </trkpt>
      <trkpt lat="46.06768" lon="6.50063">
        <ele>480</ele>
        <time>2011-07-24T08:02:11Z</time>
      </trkpt>
      <trkpt lat="46.06768" lon="6.50077">
        <ele>474</ele>
        <time>2011-07-24T08:02:13Z</time>
      </trkpt>
      <trkpt lat="46.06768" lon="6.50091">
        <ele>474</ele>
        <time>2011-07-24T08:02:15Z</time>
      </trkpt>
      <trkpt lat="46.06771" lon="6.50109">
        <ele>474</ele>
        <time>2011-07-24T08:02:18Z</time>
      </trkpt>
      <trkpt lat="46.06779" lon="6.5012">
        <ele>467</ele>
        <time>2011-07-24T08:02:20Z</time>
      </trkpt>
      <trkpt lat="46.06788" lon="6.50127">
        <ele>467</ele>
        <time>2011-07-24T08:02:22Z</time>
      </trkpt>
      <trkpt lat="46.06798" lon="6.50129">
        <ele>467</ele>
        <time>2011-07-24T08:02:26Z</time>
      </trkpt>
      <trkpt lat="46.06804" lon="6.50116">
        <ele>467</ele>
        <time>2011-07-24T08:02:28Z</time>
      </trkpt>
      <trkpt lat="46.06808" lon="6.50103">
        <ele>467</ele>
        <time>2011-07-24T08:02:29Z</time>
      </trkpt>
      <trkpt lat="46.06811" lon="6.50084">
        <ele>467</ele>
        <time>2011-07-24T08:02:30Z</time>
      </trkpt>
      <trkpt lat="46.06816" lon="6.50059">
        <ele>467</ele>
        <time>2011-07-24T08:02:31Z</time>
      </trkpt>
      <trkpt lat="46.06821" lon="6.50029">
        <ele>462</ele>
        <time>2011-07-24T08:02:32Z</time>
      </trkpt>
      <trkpt lat="46.06826" lon="6.49997">
        <ele>462</ele>
        <time>2011-07-24T08:02:33Z</time>
      </trkpt>
      <trkpt lat="46.06831" lon="6.49968">
        <ele>462</ele>
        <time>2011-07-24T08:02:34Z</time>
      </trkpt>
      <trkpt lat="46.06834" lon="6.49941">
        <ele>462</ele>
        <time>2011-07-24T08:02:35Z</time>
      </trkpt>
      <trkpt lat="46.06838" lon="6.49915">
        <ele>462</ele>
        <time>2011-07-24T08:02:36Z</time>
      </trkpt>
      <trkpt lat="46.06841" lon="6.49888">
        <ele>462</ele>
        <time>2011-07-24T08:02:37Z</time>
      </trkpt>
      <trkpt lat="46.06841" lon="6.4986">
        <ele>462</ele>
        <time>2011-07-24T08:02:38Z</time>
      </trkpt>
      <trkpt lat="46.06841" lon="6.49832">
        <ele>462</ele>
        <time>2011-07-24T08:02:39Z</time>
      </trkpt>
      <trkpt lat="46.06838" lon="6.49806">
        <ele>462</ele>
        <time>2011-07-24T08:02:40Z</time>
      </trkpt>
      <trkpt lat="46.06835" lon="6.49783">
        <ele>462</ele>
        <time>2011-07-24T08:02:41Z</time>
      </trkpt>
      <trkpt lat="46.06832" lon="6.4976">
        <ele>462</ele>
        <time>2011-07-24T08:02:42Z</time>
      </trkpt>
      <trkpt lat="46.06829" lon="6.49741">
        <ele>462</ele>
        <time>2011-07-24T08:02:43Z</time>
      </trkpt>
      <trkpt lat="46.06826" lon="6.49722">
        <ele>462</ele>
        <time>2011-07-24T08:02:44Z</time>
      </trkpt>
      <trkpt lat="46.06825" lon="6.49705">
        <ele>462</ele>
        <time>2011-07-24T08:02:45Z</time>
      </trkpt>
      <trkpt lat="46.06825" lon="6.49691">
        <ele>462</ele>
        <time>2011-07-24T08:02:46Z</time>
      </trkpt>
      <trkpt lat="46.06828" lon="6.49669">
        <ele>462</ele>
        <time>2011-07-24T08:02:48Z</time>
      </trkpt>
      <trkpt lat="46.06839" lon="6.49655">
        <ele>468</ele>
        <time>2011-07-24T08:02:50Z</time>
      </trkpt>
      <trkpt lat="46.06856" lon="6.49656">
        <ele>468</ele>
        <time>2011-07-24T08:02:52Z</time>
      </trkpt>
      <trkpt lat="46.06869" lon="6.49662">
        <ele>468</ele>
        <time>2011-07-24T08:02:53Z</time>
      </trkpt>
      <trkpt lat="46.06886" lon="6.49671">
        <ele>468</ele>
        <time>2011-07-24T08:02:54Z</time>
      </trkpt>
      <trkpt lat="46.06904" lon="6.49681">
        <ele>468</ele>
        <time>2011-07-24T08:02:55Z</time>
      </trkpt>
      <trkpt lat="46.06922" lon="6.49689">
        <ele>468</ele>
        <time>2011-07-24T08:02:56Z</time>
      </trkpt>
      <trkpt lat="46.06936" lon="6.49697">
        <ele>468</ele>
        <time>2011-07-24T08:02:57Z</time>
      </trkpt>
      <trkpt lat="46.06951" lon="6.49704">
        <ele>468</ele>
        <time>2011-07-24T08:02:58Z</time>
      </trkpt>
      <trkpt lat="46.06963" lon="6.4971">
        <ele>468</ele>
        <time>2011-07-24T08:02:59Z</time>
      </trkpt>
      <trkpt lat="46.06975" lon="6.49716">
        <ele>468</ele>
        <time>2011-07-24T08:03:00Z</time>
      </trkpt>
      <trkpt lat="46.06988" lon="6.49718">
        <ele>468</ele>
        <time>2011-07-24T08:03:01Z</time>
      </trkpt>
      <trkpt lat="46.07001" lon="6.49719">
        <ele>468</ele>
        <time>2011-07-24T08:03:02Z</time>
      </trkpt>
      <trkpt lat="46.07016" lon="6.49716">
        <ele>468</ele>
        <time>2011-07-24T08:03:03Z</time>
      </trkpt>
      <trkpt lat="46.07031" lon="6.4971">
        <ele>468</ele>
        <time>2011-07-24T08:03:04Z</time>
      </trkpt>
      <trkpt lat="46.07046" lon="6.49704">
        <ele>468</ele>
        <time>2011-07-24T08:03:05Z</time>
      </trkpt>
      <trkpt lat="46.07061" lon="6.49698">
        <ele>468</ele>
        <time>2011-07-24T08:03:06Z</time>
      </trkpt>
      <trkpt lat="46.07075" lon="6.49691">
        <ele>468</ele>
        <time>2011-07-24T08:03:07Z</time>
      </trkpt>
      <trkpt lat="46.0709" lon="6.49685">
        <ele>468</ele>
        <time>2011-07-24T08:03:08Z</time>
      </trkpt>
      <trkpt lat="46.07106" lon="6.49678">
        <ele>468</ele>
        <time>2011-07-24T08:03:09Z</time>
      </trkpt>
      <trkpt lat="46.07123" lon="6.4967">
        <ele>468</ele>
        <time>2011-07-24T08:03:10Z</time>
      </trkpt>
      <trkpt lat="46.0714" lon="6.49663">
        <ele>468</ele>
        <time>2011-07-24T08:03:11Z</time>
      </trkpt>
      <trkpt lat="46.07156" lon="6.49656">
        <ele>468</ele>
        <time>2011-07-24T08:03:12Z</time>
      </trkpt>
      <trkpt lat="46.07172" lon="6.4965">
        <ele>468</ele>
        <time>2011-07-24T08:03:13Z</time>
      </trkpt>
      <trkpt lat="46.07188" lon="6.49643">
        <ele>468</ele>
        <time>2011-07-24T08:03:14Z</time>
      </trkpt>
      <trkpt lat="46.07203" lon="6.49637">
        <ele>468</ele>
        <time>2011-07-24T08:03:15Z</time>
      </trkpt>
      <trkpt lat="46.07217" lon="6.49631">
        <ele>468</ele>
        <time>2011-07-24T08:03:16Z</time>
      </trkpt>
      <trkpt lat="46.07231" lon="6.49624">
        <ele>468</ele>
        <time>2011-07-24T08:03:17Z</time>
      </trkpt>
      <trkpt lat="46.07243" lon="6.49618">
        <ele>468</ele>
        <time>2011-07-24T08:03:18Z</time>
      </trkpt>
      <trkpt lat="46.07256" lon="6.49612">
        <ele>468</ele>
        <time>2011-07-24T08:03:19Z</time>
      </trkpt>
      <trkpt lat="46.07268" lon="6.49607">
        <ele>468</ele>
        <time>2011-07-24T08:03:20Z</time>
      </trkpt>
      <trkpt lat="46.07279" lon="6.49604">
        <ele>468</ele>
        <time>2011-07-24T08:03:21Z</time>
      </trkpt>
      <trkpt lat="46.07291" lon="6.49601">
        <ele>468</ele>
        <time>2011-07-24T08:03:23Z</time>
      </trkpt>
      <trkpt lat="46.07295" lon="6.49617">
        <ele>468</ele>
        <time>2011-07-24T08:03:27Z</time>
      </trkpt>
      <trkpt lat="46.07285" lon="6.49638">
        <ele>468</ele>
        <time>2011-07-24T08:03:29Z</time>
      </trkpt>
      <trkpt lat="46.0728" lon="6.49651">
        <ele>468</ele>
        <time>2011-07-24T08:03:30Z</time>
      </trkpt>
      <trkpt lat="46.07271" lon="6.49671">
        <ele>462</ele>
        <time>2011-07-24T08:03:32Z</time>
      </trkpt>
      <trkpt lat="46.07261" lon="6.49685">
        <ele>462</ele>
        <time>2011-07-24T08:03:34Z</time>
      </trkpt>
      <trkpt lat="46.07252" lon="6.49701">
        <ele>462</ele>
        <time>2011-07-24T08:03:36Z</time>
      </trkpt>
      <trkpt lat="46.07246" lon="6.49719">
        <ele>462</ele>
        <time>2011-07-24T08:03:38Z</time>
      </trkpt>
      <trkpt lat="46.07241" lon="6.49731">
        <ele>462</ele>
        <time>2011-07-24T08:03:39Z</time>
      </trkpt>
      <trkpt lat="46.07236" lon="6.49743">
        <ele>462</ele>
        <time>2011-07-24T08:03:40Z</time>
      </trkpt>
      <trkpt lat="46.07232" lon="6.49755">
        <ele>462</ele>
        <time>2011-07-24T08:03:41Z</time>
      </trkpt>
      <trkpt lat="46.07226" lon="6.49773">
        <ele>462</ele>
        <time>2011-07-24T08:03:43Z</time>
      </trkpt>
      <trkpt lat="46.07225" lon="6.49787">
        <ele>462</ele>
        <time>2011-07-24T08:03:45Z</time>
      </trkpt>
      <trkpt lat="46.0723" lon="6.49802">
        <ele>462</ele>
        <time>2011-07-24T08:03:47Z</time>
      </trkpt>
      <trkpt lat="46.07237" lon="6.49822">
        <ele>462</ele>
        <time>2011-07-24T08:03:49Z</time>
      </trkpt>
      <trkpt lat="46.07243" lon="6.4984">
        <ele>462</ele>
        <time>2011-07-24T08:03:51Z</time>
      </trkpt>
      <trkpt lat="46.07247" lon="6.49857">
        <ele>462</ele>
        <time>2011-07-24T08:03:53Z</time>
      </trkpt>
      <trkpt lat="46.11043" lon="6.50995">
        <ele>643</ele>
        <time>2011-07-24T08:56:17Z</time>
      </trkpt>
      <trkpt lat="46.1104" lon="6.51009">
        <ele>643</ele>
        <time>2011-07-24T08:56:30Z</time>
      </trkpt>
      <trkpt lat="46.11036" lon="6.5103">
        <ele>643</ele>
        <time>2011-07-24T08:56:32Z</time>
      </trkpt>
      <trkpt lat="46.11024" lon="6.51043">
        <ele>649</ele>
        <time>2011-07-24T08:56:34Z</time>
      </trkpt>
      <trkpt lat="46.11012" lon="6.51062">
        <ele>649</ele>
        <time>2011-07-24T08:56:36Z</time>
      </trkpt>
      <trkpt lat="46.10998" lon="6.51081">
        <ele>649</ele>
        <time>2011-07-24T08:56:38Z</time>
      </trkpt>
      <trkpt lat="46.1099" lon="6.51092">
        <ele>649</ele>
        <time>2011-07-24T08:56:39Z</time>
      </trkpt>
      <trkpt lat="46.10982" lon="6.51103">
        <ele>655</ele>
        <time>2011-07-24T08:56:40Z</time>
      </trkpt>
      <trkpt lat="46.10975" lon="6.51112">
        <ele>655</ele>
        <time>2011-07-24T08:56:41Z</time>
      </trkpt>
      <trkpt lat="46.10969" lon="6.51123">
        <ele>655</ele>
        <time>2011-07-24T08:56:42Z</time>
      </trkpt>
      <trkpt lat="46.10957" lon="6.51147">
        <ele>655</ele>
        <time>2011-07-24T08:56:44Z</time>
      </trkpt>
      <trkpt lat="46.10951" lon="6.51157">
        <ele>655</ele>
        <time>2011-07-24T08:56:45Z</time>
      </trkpt>
      <trkpt lat="46.10932" lon="6.51194">
        <ele>663</ele>
        <time>2011-07-24T08:56:48Z</time>
      </trkpt>
      <trkpt lat="46.10924" lon="6.51206">
        <ele>663</ele>
        <time>2011-07-24T08:56:49Z</time>
      </trkpt>
      <trkpt lat="46.10914" lon="6.51218">
        <ele>663</ele>
        <time>2011-07-24T08:56:50Z</time>
      </trkpt>
      <trkpt lat="46.109" lon="6.51236">
        <ele>663</ele>
        <time>2011-07-24T08:56:52Z</time>
      </trkpt>
      <trkpt lat="46.10893" lon="6.51245">
        <ele>668</ele>
        <time>2011-07-24T08:56:53Z</time>
      </trkpt>
      <trkpt lat="46.10876" lon="6.51273">
        <ele>668</ele>
        <time>2011-07-24T08:56:56Z</time>
      </trkpt>
      <trkpt lat="46.10855" lon="6.513">
        <ele>677</ele>
        <time>2011-07-24T08:56:59Z</time>
      </trkpt>
      <trkpt lat="46.10848" lon="6.51311">
        <ele>677</ele>
        <time>2011-07-24T08:57:00Z</time>
      </trkpt>
      <trkpt lat="46.10841" lon="6.51321">
        <ele>677</ele>
        <time>2011-07-24T08:57:01Z</time>
      </trkpt>
      <trkpt lat="46.10835" lon="6.51332">
        <ele>677</ele>
        <time>2011-07-24T08:57:02Z</time>
      </trkpt>
      <trkpt lat="46.10831" lon="6.51345">
        <ele>677</ele>
        <time>2011-07-24T08:57:03Z</time>
      </trkpt>
      <trkpt lat="46.10827" lon="6.51359">
        <ele>677</ele>
        <time>2011-07-24T08:57:04Z</time>
      </trkpt>
      <trkpt lat="46.10822" lon="6.5137">
        <ele>677</ele>
        <time>2011-07-24T08:57:05Z</time>
      </trkpt>
      <trkpt lat="46.10816" lon="6.51384">
        <ele>677</ele>
        <time>2011-07-24T08:57:06Z</time>
      </trkpt>
      <trkpt lat="46.10809" lon="6.51396">
        <ele>682</ele>
        <time>2011-07-24T08:57:07Z</time>
      </trkpt>
      <trkpt lat="46.10802" lon="6.5141">
        <ele>682</ele>
        <time>2011-07-24T08:57:08Z</time>
      </trkpt>
      <trkpt lat="46.10795" lon="6.51423">
        <ele>689</ele>
        <time>2011-07-24T08:57:09Z</time>
      </trkpt>
      <trkpt lat="46.10788" lon="6.51436">
        <ele>689</ele>
        <time>2011-07-24T08:57:10Z</time>
      </trkpt>
      <trkpt lat="46.10782" lon="6.51448">
        <ele>689</ele>
        <time>2011-07-24T08:57:11Z</time>
      </trkpt>
      <trkpt lat="46.10775" lon="6.5146">
        <ele>695</ele>
        <time>2011-07-24T08:57:12Z</time>
      </trkpt>
      <trkpt lat="46.10768" lon="6.51471">
        <ele>695</ele>
        <time>2011-07-24T08:57:13Z</time>
      </trkpt>
      <trkpt lat="46.10762" lon="6.51482">
        <ele>695</ele>
        <time>2011-07-24T08:57:14Z</time>
      </trkpt>
      <trkpt lat="46.1076" lon="6.51497">
        <ele>703</ele>
        <time>2011-07-24T08:57:17Z</time>
      </trkpt>
      <trkpt lat="46.10767" lon="6.51509">
        <ele>709</ele>
        <time>2011-07-24T08:57:20Z</time>
      </trkpt>
      <trkpt lat="46.10762" lon="6.51528">
        <ele>715</ele>
        <time>2011-07-24T08:57:24Z</time>
      </trkpt>
      <trkpt lat="46.10754" lon="6.5154">
        <ele>715</ele>
        <time>2011-07-24T08:57:26Z</time>
      </trkpt>
      <trkpt lat="46.10745" lon="6.5155">
        <ele>715</ele>
        <time>2011-07-24T08:57:28Z</time>
      </trkpt>
      <trkpt lat="46.10736" lon="6.51555">
        <ele>724</ele>
        <time>2011-07-24T08:57:30Z</time>
      </trkpt>
      <trkpt lat="46.10728" lon="6.51564">
        <ele>724</ele>
        <time>2011-07-24T08:57:32Z</time>
      </trkpt>
      <trkpt lat="46.10719" lon="6.51577">
        <ele>724</ele>
        <time>2011-07-24T08:57:35Z</time>
      </trkpt>
      <trkpt lat="46.10712" lon="6.51586">
        <ele>724</ele>
        <time>2011-07-24T08:57:39Z</time>
      </trkpt>
      <trkpt lat="46.10705" lon="6.51598">
        <ele>724</ele>
        <time>2011-07-24T08:57:42Z</time>
      </trkpt>
      <trkpt lat="46.10697" lon="6.51606">
        <ele>724</ele>
        <time>2011-07-24T08:57:44Z</time>
      </trkpt>
      <trkpt lat="46.10688" lon="6.51615">
        <ele>724</ele>
        <time>2011-07-24T08:57:46Z</time>
      </trkpt>
      <trkpt lat="46.10676" lon="6.51627">
        <ele>724</ele>
        <time>2011-07-24T08:57:48Z</time>
      </trkpt>
      <trkpt lat="46.10664" lon="6.51635">
        <ele>724</ele>
        <time>2011-07-24T08:57:50Z</time>
      </trkpt>
      <trkpt lat="46.10654" lon="6.51642">
        <ele>724</ele>
        <time>2011-07-24T08:57:52Z</time>
      </trkpt>
      <trkpt lat="46.10645" lon="6.51651">
        <ele>724</ele>
        <time>2011-07-24T08:57:54Z</time>
      </trkpt>
      <trkpt lat="46.10635" lon="6.51658">
        <ele>724</ele>
        <time>2011-07-24T08:57:56Z</time>
      </trkpt>
      <trkpt lat="46.10627" lon="6.51668">
        <ele>724</ele>
        <time>2011-07-24T08:57:58Z</time>
      </trkpt>
      <trkpt lat="46.10619" lon="6.5168">
        <ele>717</ele>
        <time>2011-07-24T08:58:00Z</time>
      </trkpt>
      <trkpt lat="46.10611" lon="6.51696">
        <ele>717</ele>
        <time>2011-07-24T08:58:02Z</time>
      </trkpt>
      <trkpt lat="46.10598" lon="6.51714">
        <ele>717</ele>
        <time>2011-07-24T08:58:05Z</time>
      </trkpt>
      <trkpt lat="46.10579" lon="6.51739">
        <ele>717</ele>
        <time>2011-07-24T08:58:09Z</time>
      </trkpt>
      <trkpt lat="46.1057" lon="6.51747">
        <ele>717</ele>
        <time>2011-07-24T08:58:10Z</time>
      </trkpt>
      <trkpt lat="46.10559" lon="6.51752">
        <ele>712</ele>
        <time>2011-07-24T08:58:12Z</time>
      </trkpt>
      <trkpt lat="46.10548" lon="6.5176">
        <ele>712</ele>
        <time>2011-07-24T08:58:15Z</time>
      </trkpt>
      <trkpt lat="46.10539" lon="6.51767">
        <ele>705</ele>
        <time>2011-07-24T08:58:17Z</time>
      </trkpt>
      <trkpt lat="46.10528" lon="6.5178">
        <ele>705</ele>
        <time>2011-07-24T08:58:20Z</time>
      </trkpt>
      <trkpt lat="46.10515" lon="6.51792">
        <ele>705</ele>
        <time>2011-07-24T08:58:22Z</time>
      </trkpt>
      <trkpt lat="46.10503" lon="6.51802">
        <ele>705</ele>
        <time>2011-07-24T08:58:24Z</time>
      </trkpt>
      <trkpt lat="46.10493" lon="6.51813">
        <ele>705</ele>
        <time>2011-07-24T08:58:26Z</time>
      </trkpt>
      <trkpt lat="46.10481" lon="6.51828">
        <ele>705</ele>
        <time>2011-07-24T08:58:28Z</time>
      </trkpt>
      <trkpt lat="46.1047" lon="6.51843">
        <ele>705</ele>
        <time>2011-07-24T08:58:30Z</time>
      </trkpt>
      <trkpt lat="46.10459" lon="6.51861">
        <ele>705</ele>
        <time>2011-07-24T08:58:32Z</time>
      </trkpt>
      <trkpt lat="46.10449" lon="6.51876">
        <ele>705</ele>
        <time>2011-07-24T08:58:34Z</time>
      </trkpt>
      <trkpt lat="46.10439" lon="6.51887">
        <ele>705</ele>
        <time>2011-07-24T08:58:36Z</time>
      </trkpt>
      <trkpt lat="46.10428" lon="6.51898">
        <ele>705</ele>
        <time>2011-07-24T08:58:38Z</time>
      </trkpt>
      <trkpt lat="46.10418" lon="6.5191">
        <ele>705</ele>
        <time>2011-07-24T08:58:40Z</time>
      </trkpt>
      <trkpt lat="46.10409" lon="6.51925">
        <ele>705</ele>
        <time>2011-07-24T08:58:42Z</time>
      </trkpt>
      <trkpt lat="46.10402" lon="6.5194">
        <ele>705</ele>
        <time>2011-07-24T08:58:44Z</time>
      </trkpt>
      <trkpt lat="46.10395" lon="6.51955">
        <ele>705</ele>
        <time>2011-07-24T08:58:46Z</time>
      </trkpt>
      <trkpt lat="46.10386" lon="6.51971">
        <ele>705</ele>
        <time>2011-07-24T08:58:48Z</time>
      </trkpt>
      <trkpt lat="46.10379" lon="6.51984">
        <ele>705</ele>
        <time>2011-07-24T08:58:50Z</time>
      </trkpt>
      <trkpt lat="46.10371" lon="6.51998">
        <ele>705</ele>
        <time>2011-07-24T08:58:52Z</time>
      </trkpt>
      <trkpt lat="46.10361" lon="6.52011">
        <ele>700</ele>
        <time>2011-07-24T08:58:54Z</time>
      </trkpt>
      <trkpt lat="46.10354" lon="6.52026">
        <ele>700</ele>
        <time>2011-07-24T08:58:56Z</time>
      </trkpt>
      <trkpt lat="46.10344" lon="6.52046">
        <ele>700</ele>
        <time>2011-07-24T08:58:58Z</time>
      </trkpt>
      <trkpt lat="46.10342" lon="6.52073">
        <ele>705</ele>
        <time>2011-07-24T08:59:00Z</time>
      </trkpt>
      <trkpt lat="46.10339" lon="6.52088">
        <ele>705</ele>
        <time>2011-07-24T08:59:02Z</time>
      </trkpt>
      <trkpt lat="46.10339" lon="6.5211">
        <ele>705</ele>
        <time>2011-07-24T08:59:05Z</time>
      </trkpt>
      <trkpt lat="46.10349" lon="6.52125">
        <ele>712</ele>
        <time>2011-07-24T08:59:07Z</time>
      </trkpt>
      <trkpt lat="46.10356" lon="6.52135">
        <ele>717</ele>
        <time>2011-07-24T08:59:09Z</time>
      </trkpt>
      <trkpt lat="46.10365" lon="6.52138">
        <ele>717</ele>
        <time>2011-07-24T08:59:11Z</time>
      </trkpt>
      <trkpt lat="46.10376" lon="6.52123">
        <ele>723</ele>
        <time>2011-07-24T08:59:13Z</time>
      </trkpt>
      <trkpt lat="46.10384" lon="6.52113">
        <ele>723</ele>
        <time>2011-07-24T08:59:15Z</time>
      </trkpt>
      <trkpt lat="46.10375" lon="6.52126">
        <ele>731</ele>
        <time>2011-07-24T08:59:22Z</time>
      </trkpt>
      <trkpt lat="46.10368" lon="6.52143">
        <ele>731</ele>
        <time>2011-07-24T08:59:24Z</time>
      </trkpt>
      <trkpt lat="46.10362" lon="6.52159">
        <ele>739</ele>
        <time>2011-07-24T08:59:26Z</time>
      </trkpt>
      <trkpt lat="46.10359" lon="6.52178">
        <ele>739</ele>
        <time>2011-07-24T08:59:28Z</time>
      </trkpt>
      <trkpt lat="46.10357" lon="6.52199">
        <ele>749</ele>
        <time>2011-07-24T08:59:30Z</time>
      </trkpt>
      <trkpt lat="46.10355" lon="6.52219">
        <ele>749</ele>
        <time>2011-07-24T08:59:32Z</time>
      </trkpt>
      <trkpt lat="46.10352" lon="6.5224">
        <ele>756</ele>
        <time>2011-07-24T08:59:34Z</time>
      </trkpt>
      <trkpt lat="46.10346" lon="6.52262">
        <ele>756</ele>
        <time>2011-07-24T08:59:36Z</time>
      </trkpt>
      <trkpt lat="46.1034" lon="6.52286">
        <ele>763</ele>
        <time>2011-07-24T08:59:38Z</time>
      </trkpt>
      <trkpt lat="46.10337" lon="6.52307">
        <ele>763</ele>
        <time>2011-07-24T08:59:40Z</time>
      </trkpt>
      <trkpt lat="46.10334" lon="6.52329">
        <ele>771</ele>
        <time>2011-07-24T08:59:42Z</time>
      </trkpt>
      <trkpt lat="46.1033" lon="6.52349">
        <ele>771</ele>
        <time>2011-07-24T08:59:44Z</time>
      </trkpt>
      <trkpt lat="46.10327" lon="6.52367">
        <ele>779</ele>
        <time>2011-07-24T08:59:46Z</time>
      </trkpt>
      <trkpt lat="46.10325" lon="6.52381">
        <ele>779</ele>
        <time>2011-07-24T08:59:48Z</time>
      </trkpt>
      <trkpt lat="46.1032" lon="6.52394">
        <ele>792</ele>
        <time>2011-07-24T09:00:03Z</time>
      </trkpt>
      <trkpt lat="46.10316" lon="6.5241">
        <ele>792</ele>
        <time>2011-07-24T09:00:06Z</time>
      </trkpt>
      <trkpt lat="46.10313" lon="6.52427">
        <ele>798</ele>
        <time>2011-07-24T09:00:09Z</time>
      </trkpt>
      <trkpt lat="46.1031" lon="6.52442">
        <ele>798</ele>
        <time>2011-07-24T09:00:12Z</time>
      </trkpt>
      <trkpt lat="46.10308" lon="6.52455">
        <ele>803</ele>
        <time>2011-07-24T09:00:14Z</time>
      </trkpt>
      <trkpt lat="46.10306" lon="6.5247">
        <ele>803</ele>
        <time>2011-07-24T09:00:16Z</time>
      </trkpt>
      <trkpt lat="46.10304" lon="6.52489">
        <ele>810</ele>
        <time>2011-07-24T09:00:19Z</time>
      </trkpt>
      <trkpt lat="46.10304" lon="6.52506">
        <ele>810</ele>
        <time>2011-07-24T09:00:21Z</time>
      </trkpt>
      <trkpt lat="46.10304" lon="6.52524">
        <ele>815</ele>
        <time>2011-07-24T09:00:23Z</time>
      </trkpt>
      <trkpt lat="46.10302" lon="6.52542">
        <ele>815</ele>
        <time>2011-07-24T09:00:25Z</time>
      </trkpt>
      <trkpt lat="46.10298" lon="6.52558">
        <ele>821</ele>
        <time>2011-07-24T09:00:27Z</time>
      </trkpt>
      <trkpt lat="46.10293" lon="6.52572">
        <ele>821</ele>
        <time>2011-07-24T09:00:29Z</time>
      </trkpt>
      <trkpt lat="46.10287" lon="6.52588">
        <ele>821</ele>
        <time>2011-07-24T09:00:31Z</time>
      </trkpt>
      <trkpt lat="46.10281" lon="6.52604">
        <ele>821</ele>
        <time>2011-07-24T09:00:33Z</time>
      </trkpt>
      <trkpt lat="46.10277" lon="6.52616">
        <ele>821</ele>
        <time>2011-07-24T09:00:35Z</time>
      </trkpt>
      <trkpt lat="46.10274" lon="6.52631">
        <ele>821</ele>
        <time>2011-07-24T09:00:37Z</time>
      </trkpt>
      <trkpt lat="46.10272" lon="6.5265">
        <ele>821</ele>
        <time>2011-07-24T09:00:39Z</time>
      </trkpt>
      <trkpt lat="46.10269" lon="6.52671">
        <ele>821</ele>
        <time>2011-07-24T09:00:41Z</time>
      </trkpt>
      <trkpt lat="46.10267" lon="6.5269">
        <ele>821</ele>
        <time>2011-07-24T09:00:43Z</time>
      </trkpt>
      <trkpt lat="46.10264" lon="6.52709">
        <ele>821</ele>
        <time>2011-07-24T09:00:45Z</time>
      </trkpt>
      <trkpt lat="46.10259" lon="6.52729">
        <ele>827</ele>
        <time>2011-07-24T09:00:47Z</time>
      </trkpt>
      <trkpt lat="46.10254" lon="6.52748">
        <ele>827</ele>
        <time>2011-07-24T09:00:49Z</time>
      </trkpt>
      <trkpt lat="46.10251" lon="6.52764">
        <ele>827</ele>
        <time>2011-07-24T09:00:51Z</time>
      </trkpt>
      <trkpt lat="46.10247" lon="6.52781">
        <ele>827</ele>
        <time>2011-07-24T09:00:53Z</time>
      </trkpt>
      <trkpt lat="46.10244" lon="6.52799">
        <ele>833</ele>
        <time>2011-07-24T09:00:55Z</time>
      </trkpt>
      <trkpt lat="46.1024" lon="6.52817">
        <ele>833</ele>
        <time>2011-07-24T09:00:57Z</time>
      </trkpt>
      <trkpt lat="46.10239" lon="6.52832">
        <ele>833</ele>
        <time>2011-07-24T09:00:59Z</time>
      </trkpt>
      <trkpt lat="46.10236" lon="6.52848">
        <ele>833</ele>
        <time>2011-07-24T09:01:01Z</time>
      </trkpt>
      <trkpt lat="46.10235" lon="6.52861">
        <ele>833</ele>
        <time>2011-07-24T09:01:03Z</time>
      </trkpt>
      <trkpt lat="46.10241" lon="6.52873">
        <ele>846</ele>
        <time>2011-07-24T09:02:44Z</time>
      </trkpt>
      <trkpt lat="46.10249" lon="6.52879">
        <ele>846</ele>
        <time>2011-07-24T09:07:20Z</time>
      </trkpt>
      <trkpt lat="46.10258" lon="6.52871">
        <ele>846</ele>
        <time>2011-07-24T09:07:24Z</time>
      </trkpt>
      <trkpt lat="46.10267" lon="6.52861">
        <ele>846</ele>
        <time>2011-07-24T09:07:27Z</time>
      </trkpt>
      <trkpt lat="46.10276" lon="6.52852">
        <ele>846</ele>
        <time>2011-07-24T09:07:30Z</time>
      </trkpt>
      <trkpt lat="46.10285" lon="6.52847">
        <ele>846</ele>
        <time>2011-07-24T09:07:33Z</time>
      </trkpt>
      <trkpt lat="46.10294" lon="6.52841">
        <ele>852</ele>
        <time>2011-07-24T09:07:35Z</time>
      </trkpt>
      <trkpt lat="46.103" lon="6.52832">
        <ele>852</ele>
        <time>2011-07-24T09:07:37Z</time>
      </trkpt>
      <trkpt lat="46.1031" lon="6.5282">
        <ele>858</ele>
        <time>2011-07-24T09:07:40Z</time>
      </trkpt>
      <trkpt lat="46.10317" lon="6.52807">
        <ele>858</ele>
        <time>2011-07-24T09:07:42Z</time>
      </trkpt>
      <trkpt lat="46.10324" lon="6.52795">
        <ele>858</ele>
        <time>2011-07-24T09:07:44Z</time>
      </trkpt>
      <trkpt lat="46.1033" lon="6.52785">
        <ele>865</ele>
        <time>2011-07-24T09:07:46Z</time>
      </trkpt>
      <trkpt lat="46.10337" lon="6.52776">
        <ele>865</ele>
        <time>2011-07-24T09:07:48Z</time>
      </trkpt>
      <trkpt lat="46.10345" lon="6.52764">
        <ele>865</ele>
        <time>2011-07-24T09:07:51Z</time>
      </trkpt>
      <trkpt lat="46.10355" lon="6.52765">
        <ele>877</ele>
        <time>2011-07-24T09:07:56Z</time>
      </trkpt>
      <trkpt lat="46.10361" lon="6.52776">
        <ele>888</ele>
        <time>2011-07-24T09:07:59Z</time>
      </trkpt>
      <trkpt lat="46.1037" lon="6.52773">
        <ele>902</ele>
        <time>2011-07-24T09:08:07Z</time>
      </trkpt>
      <trkpt lat="46.10377" lon="6.52763">
        <ele>902</ele>
        <time>2011-07-24T09:08:11Z</time>
      </trkpt>
      <trkpt lat="46.10385" lon="6.52755">
        <ele>919</ele>
        <time>2011-07-24T09:08:20Z</time>
      </trkpt>
      <trkpt lat="46.10388" lon="6.52741">
        <ele>919</ele>
        <time>2011-07-24T09:08:49Z</time>
      </trkpt>
      <trkpt lat="46.10396" lon="6.52731">
        <ele>919</ele>
        <time>2011-07-24T09:08:52Z</time>
      </trkpt>
      <trkpt lat="46.10413" lon="6.52705">
        <ele>919</ele>
        <time>2011-07-24T09:08:57Z</time>
      </trkpt>
      <trkpt lat="46.10419" lon="6.52691">
        <ele>919</ele>
        <time>2011-07-24T09:08:59Z</time>
      </trkpt>
      <trkpt lat="46.1042" lon="6.52676">
        <ele>919</ele>
        <time>2011-07-24T09:09:02Z</time>
      </trkpt>
      <trkpt lat="46.10429" lon="6.52669">
        <ele>919</ele>
        <time>2011-07-24T09:09:06Z</time>
      </trkpt>
      <trkpt lat="46.10439" lon="6.52668">
        <ele>928</ele>
        <time>2011-07-24T09:10:06Z</time>
      </trkpt>
      <trkpt lat="46.10449" lon="6.52657">
        <ele>928</ele>
        <time>2011-07-24T09:10:11Z</time>
      </trkpt>
      <trkpt lat="46.10459" lon="6.52646">
        <ele>928</ele>
        <time>2011-07-24T09:10:14Z</time>
      </trkpt>
      <trkpt lat="46.10467" lon="6.52634">
        <ele>928</ele>
        <time>2011-07-24T09:10:17Z</time>
      </trkpt>
      <trkpt lat="46.10476" lon="6.52622">
        <ele>935</ele>
        <time>2011-07-24T09:10:19Z</time>
      </trkpt>
      <trkpt lat="46.10484" lon="6.52608">
        <ele>935</ele>
        <time>2011-07-24T09:10:21Z</time>
      </trkpt>
      <trkpt lat="46.10492" lon="6.52595">
        <ele>935</ele>
        <time>2011-07-24T09:10:23Z</time>
      </trkpt>
      <trkpt lat="46.10503" lon="6.52572">
        <ele>935</ele>
        <time>2011-07-24T09:10:27Z</time>
      </trkpt>
      <trkpt lat="46.10502" lon="6.52556">
        <ele>935</ele>
        <time>2011-07-24T09:10:29Z</time>
      </trkpt>
      <trkpt lat="46.10507" lon="6.52543">
        <ele>947</ele>
        <time>2011-07-24T09:10:31Z</time>
      </trkpt>
      <trkpt lat="46.10514" lon="6.52533">
        <ele>947</ele>
        <time>2011-07-24T09:10:33Z</time>
      </trkpt>
      <trkpt lat="46.10529" lon="6.52516">
        <ele>959</ele>
        <time>2011-07-24T09:10:39Z</time>
      </trkpt>
      <trkpt lat="46.1054" lon="6.52516">
        <ele>968</ele>
        <time>2011-07-24T09:10:48Z</time>
      </trkpt>
      <trkpt lat="46.10547" lon="6.52506">
        <ele>976</ele>
        <time>2011-07-24T09:10:52Z</time>
      </trkpt>
      <trkpt lat="46.10541" lon="6.52495">
        <ele>976</ele>
        <time>2011-07-24T09:10:58Z</time>
      </trkpt>
      <trkpt lat="46.10538" lon="6.52509">
        <ele>971</ele>
        <time>2011-07-24T09:19:56Z</time>
      </trkpt>
      <trkpt lat="46.10529" lon="6.52514">
        <ele>963</ele>
        <time>2011-07-24T09:20:01Z</time>
      </trkpt>
      <trkpt lat="46.10524" lon="6.52525">
        <ele>963</ele>
        <time>2011-07-24T09:20:06Z</time>
      </trkpt>
      <trkpt lat="46.10513" lon="6.52535">
        <ele>955</ele>
        <time>2011-07-24T09:20:11Z</time>
      </trkpt>
      <trkpt lat="46.10507" lon="6.52551">
        <ele>955</ele>
        <time>2011-07-24T09:20:14Z</time>
      </trkpt>
      <trkpt lat="46.10502" lon="6.52566">
        <ele>955</ele>
        <time>2011-07-24T09:20:18Z</time>
      </trkpt>
      <trkpt lat="46.10498" lon="6.52578">
        <ele>948</ele>
        <time>2011-07-24T09:20:22Z</time>
      </trkpt>
      <trkpt lat="46.10492" lon="6.52589">
        <ele>948</ele>
        <time>2011-07-24T09:20:25Z</time>
      </trkpt>
      <trkpt lat="46.10483" lon="6.52598">
        <ele>943</ele>
        <time>2011-07-24T09:20:28Z</time>
      </trkpt>
      <trkpt lat="46.10475" lon="6.5261">
        <ele>943</ele>
        <time>2011-07-24T09:20:31Z</time>
      </trkpt>
      <trkpt lat="46.10467" lon="6.52623">
        <ele>937</ele>
        <time>2011-07-24T09:20:35Z</time>
      </trkpt>
      <trkpt lat="46.10459" lon="6.52629">
        <ele>937</ele>
        <time>2011-07-24T09:20:38Z</time>
      </trkpt>
      <trkpt lat="46.1045" lon="6.52635">
        <ele>937</ele>
        <time>2011-07-24T09:20:42Z</time>
      </trkpt>
      <trkpt lat="46.10445" lon="6.52647">
        <ele>930</ele>
        <time>2011-07-24T09:20:45Z</time>
      </trkpt>
      <trkpt lat="46.1043" lon="6.52662">
        <ele>930</ele>
        <time>2011-07-24T09:20:51Z</time>
      </trkpt>
      <trkpt lat="46.10424" lon="6.52675">
        <ele>930</ele>
        <time>2011-07-24T09:20:54Z</time>
      </trkpt>
      <trkpt lat="46.10416" lon="6.52685">
        <ele>923</ele>
        <time>2011-07-24T09:21:01Z</time>
      </trkpt>
      <trkpt lat="46.10407" lon="6.52692">
        <ele>929</ele>
        <time>2011-07-24T09:21:06Z</time>
      </trkpt>
      <trkpt lat="46.10405" lon="6.52706">
        <ele>929</ele>
        <time>2011-07-24T09:21:14Z</time>
      </trkpt>
      <trkpt lat="46.10401" lon="6.5272">
        <ele>919</ele>
        <time>2011-07-24T09:21:19Z</time>
      </trkpt>
      <trkpt lat="46.10392" lon="6.52727">
        <ele>919</ele>
        <time>2011-07-24T09:21:27Z</time>
      </trkpt>
      <trkpt lat="46.10384" lon="6.52733">
        <ele>938</ele>
        <time>2011-07-24T09:22:10Z</time>
      </trkpt>
      <trkpt lat="46.10375" lon="6.52734">
        <ele>926</ele>
        <time>2011-07-24T09:22:25Z</time>
      </trkpt>
      <trkpt lat="46.10384" lon="6.5273">
        <ele>926</ele>
        <time>2011-07-24T09:22:42Z</time>
      </trkpt>
      <trkpt lat="46.10391" lon="6.52738">
        <ele>912</ele>
        <time>2011-07-24T09:23:26Z</time>
      </trkpt>
      <trkpt lat="46.10382" lon="6.52735">
        <ele>932</ele>
        <time>2011-07-24T09:24:20Z</time>
      </trkpt>
      <trkpt lat="46.10375" lon="6.52725">
        <ele>939</ele>
        <time>2011-07-24T09:24:31Z</time>
      </trkpt>
      <trkpt lat="46.10384" lon="6.52729">
        <ele>929</ele>
        <time>2011-07-24T09:25:01Z</time>
      </trkpt>
      <trkpt lat="46.10375" lon="6.52726">
        <ele>929</ele>
        <time>2011-07-24T09:25:26Z</time>
      </trkpt>
      <trkpt lat="46.10383" lon="6.52733">
        <ele>921</ele>
        <time>2011-07-24T09:25:42Z</time>
      </trkpt>
      <trkpt lat="46.10381" lon="6.52746">
        <ele>914</ele>
        <time>2011-07-24T09:26:01Z</time>
      </trkpt>
      <trkpt lat="46.10374" lon="6.52755">
        <ele>914</ele>
        <time>2011-07-24T09:26:31Z</time>
      </trkpt>
      <trkpt lat="46.1037" lon="6.52767">
        <ele>902</ele>
        <time>2011-07-24T09:26:43Z</time>
      </trkpt>
      <trkpt lat="46.10362" lon="6.52773">
        <ele>902</ele>
        <time>2011-07-24T09:26:50Z</time>
      </trkpt>
      <trkpt lat="46.10352" lon="6.52777">
        <ele>902</ele>
        <time>2011-07-24T09:26:55Z</time>
      </trkpt>
      <trkpt lat="46.10345" lon="6.52787">
        <ele>893</ele>
        <time>2011-07-24T09:27:01Z</time>
      </trkpt>
      <trkpt lat="46.10337" lon="6.52799">
        <ele>885</ele>
        <time>2011-07-24T09:27:14Z</time>
      </trkpt>
      <trkpt lat="46.1033" lon="6.52808">
        <ele>879</ele>
        <time>2011-07-24T09:27:20Z</time>
      </trkpt>
      <trkpt lat="46.10323" lon="6.52817">
        <ele>879</ele>
        <time>2011-07-24T09:27:32Z</time>
      </trkpt>
      <trkpt lat="46.10314" lon="6.52826">
        <ele>889</ele>
        <time>2011-07-24T09:27:49Z</time>
      </trkpt>
      <trkpt lat="46.1031" lon="6.5284">
        <ele>889</ele>
        <time>2011-07-24T09:27:59Z</time>
      </trkpt>
      <trkpt lat="46.10302" lon="6.52853">
        <ele>884</ele>
        <time>2011-07-24T09:28:04Z</time>
      </trkpt>
      <trkpt lat="46.10297" lon="6.52867">
        <ele>884</ele>
        <time>2011-07-24T09:28:08Z</time>
      </trkpt>
      <trkpt lat="46.10289" lon="6.52885">
        <ele>875</ele>
        <time>2011-07-24T09:28:13Z</time>
      </trkpt>
      <trkpt lat="46.10283" lon="6.52898">
        <ele>869</ele>
        <time>2011-07-24T09:28:16Z</time>
      </trkpt>
      <trkpt lat="46.1028" lon="6.52911">
        <ele>864</ele>
        <time>2011-07-24T09:28:20Z</time>
      </trkpt>
      <trkpt lat="46.10282" lon="6.52924">
        <ele>858</ele>
        <time>2011-07-24T09:28:24Z</time>
      </trkpt>
      <trkpt lat="46.10283" lon="6.52942">
        <ele>852</ele>
        <time>2011-07-24T09:28:27Z</time>
      </trkpt>
      <trkpt lat="46.1028" lon="6.52961">
        <ele>847</ele>
        <time>2011-07-24T09:28:31Z</time>
      </trkpt>
      <trkpt lat="46.10271" lon="6.52973">
        <ele>847</ele>
        <time>2011-07-24T09:28:33Z</time>
      </trkpt>
      <trkpt lat="46.10263" lon="6.5298">
        <ele>847</ele>
        <time>2011-07-24T09:28:35Z</time>
      </trkpt>
      <trkpt lat="46.10254" lon="6.52988">
        <ele>847</ele>
        <time>2011-07-24T09:28:37Z</time>
      </trkpt>
      <trkpt lat="46.10246" lon="6.53004">
        <ele>847</ele>
        <time>2011-07-24T09:28:40Z</time>
      </trkpt>
      <trkpt lat="46.10239" lon="6.53015">
        <ele>847</ele>
        <time>2011-07-24T09:28:42Z</time>
      </trkpt>
      <trkpt lat="46.1023" lon="6.53024">
        <ele>847</ele>
        <time>2011-07-24T09:28:44Z</time>
      </trkpt>
      <trkpt lat="46.10219" lon="6.53035">
        <ele>847</ele>
        <time>2011-07-24T09:28:47Z</time>
      </trkpt>
      <trkpt lat="46.10209" lon="6.5304">
        <ele>847</ele>
        <time>2011-07-24T09:28:50Z</time>
      </trkpt>
      <trkpt lat="46.10201" lon="6.53049">
        <ele>847</ele>
        <time>2011-07-24T09:29:14Z</time>
      </trkpt>
      <trkpt lat="46.10194" lon="6.53065">
        <ele>847</ele>
        <time>2011-07-24T09:29:17Z</time>
      </trkpt>
      <trkpt lat="46.10187" lon="6.53082">
        <ele>847</ele>
        <time>2011-07-24T09:29:19Z</time>
      </trkpt>
      <trkpt lat="46.10181" lon="6.53096">
        <ele>847</ele>
        <time>2011-07-24T09:29:21Z</time>
      </trkpt>
      <trkpt lat="46.10174" lon="6.53108">
        <ele>847</ele>
        <time>2011-07-24T09:29:23Z</time>
      </trkpt>
      <trkpt lat="46.10169" lon="6.53122">
        <ele>847</ele>
        <time>2011-07-24T09:29:26Z</time>
      </trkpt>
      <trkpt lat="46.10164" lon="6.53137">
        <ele>852</ele>
        <time>2011-07-24T09:29:29Z</time>
      </trkpt>
      <trkpt lat="46.10154" lon="6.53149">
        <ele>852</ele>
        <time>2011-07-24T09:29:32Z</time>
      </trkpt>
      <trkpt lat="46.10147" lon="6.53163">
        <ele>852</ele>
        <time>2011-07-24T09:29:34Z</time>
      </trkpt>
      <trkpt lat="46.10139" lon="6.53179">
        <ele>852</ele>
        <time>2011-07-24T09:29:36Z</time>
      </trkpt>
      <trkpt lat="46.10129" lon="6.53196">
        <ele>852</ele>
        <time>2011-07-24T09:29:38Z</time>
      </trkpt>
      <trkpt lat="46.10121" lon="6.53212">
        <ele>858</ele>
        <time>2011-07-24T09:29:40Z</time>
      </trkpt>
      <trkpt lat="46.10114" lon="6.53226">
        <ele>858</ele>
        <time>2011-07-24T09:29:42Z</time>
      </trkpt>
      <trkpt lat="46.10107" lon="6.53238">
        <ele>858</ele>
        <time>2011-07-24T09:29:46Z</time>
      </trkpt>
      <trkpt lat="46.10102" lon="6.53255">
        <ele>858</ele>
        <time>2011-07-24T09:29:50Z</time>
      </trkpt>
      <trkpt lat="46.10094" lon="6.53268">
        <ele>851</ele>
        <time>2011-07-24T09:29:53Z</time>
      </trkpt>
      <trkpt lat="46.10086" lon="6.53285">
        <ele>843</ele>
        <time>2011-07-24T09:29:56Z</time>
      </trkpt>
      <trkpt lat="46.10074" lon="6.53306">
        <ele>836</ele>
        <time>2011-07-24T09:30:00Z</time>
      </trkpt>
      <trkpt lat="46.10068" lon="6.53321">
        <ele>830</ele>
        <time>2011-07-24T09:30:03Z</time>
      </trkpt>
      <trkpt lat="46.10073" lon="6.53341">
        <ele>830</ele>
        <time>2011-07-24T09:30:08Z</time>
      </trkpt>
      <trkpt lat="46.10082" lon="6.53359">
        <ele>823</ele>
        <time>2011-07-24T09:30:10Z</time>
      </trkpt>
      <trkpt lat="46.10089" lon="6.53382">
        <ele>823</ele>
        <time>2011-07-24T09:30:12Z</time>
      </trkpt>
      <trkpt lat="46.10089" lon="6.53406">
        <ele>813</ele>
        <time>2011-07-24T09:30:14Z</time>
      </trkpt>
      <trkpt lat="46.10082" lon="6.53434">
        <ele>813</ele>
        <time>2011-07-24T09:30:16Z</time>
      </trkpt>
      <trkpt lat="46.10078" lon="6.53446">
        <ele>813</ele>
        <time>2011-07-24T09:30:17Z</time>
      </trkpt>
      <trkpt lat="46.10072" lon="6.53461">
        <ele>813</ele>
        <time>2011-07-24T09:30:18Z</time>
      </trkpt>
      <trkpt lat="46.10066" lon="6.53474">
        <ele>821</ele>
        <time>2011-07-24T09:30:19Z</time>
      </trkpt>
      <trkpt lat="46.10059" lon="6.53487">
        <ele>827</ele>
        <time>2011-07-24T09:30:20Z</time>
      </trkpt>
      <trkpt lat="46.10054" lon="6.53498">
        <ele>827</ele>
        <time>2011-07-24T09:30:21Z</time>
      </trkpt>
      <trkpt lat="46.10048" lon="6.53509">
        <ele>827</ele>
        <time>2011-07-24T09:30:22Z</time>
      </trkpt>
      <trkpt lat="46.10041" lon="6.5352">
        <ele>833</ele>
        <time>2011-07-24T09:30:23Z</time>
      </trkpt>
      <trkpt lat="46.10035" lon="6.5353">
        <ele>833</ele>
        <time>2011-07-24T09:30:24Z</time>
      </trkpt>
      <trkpt lat="46.10024" lon="6.53548">
        <ele>839</ele>
        <time>2011-07-24T09:30:26Z</time>
      </trkpt>
      <trkpt lat="46.10014" lon="6.53565">
        <ele>839</ele>
        <time>2011-07-24T09:30:28Z</time>
      </trkpt>
      <trkpt lat="46.10012" lon="6.53586">
        <ele>845</ele>
        <time>2011-07-24T09:30:30Z</time>
      </trkpt>
      <trkpt lat="46.10012" lon="6.53605">
        <ele>845</ele>
        <time>2011-07-24T09:30:32Z</time>
      </trkpt>
      <trkpt lat="46.10012" lon="6.53625">
        <ele>851</ele>
        <time>2011-07-24T09:30:34Z</time>
      </trkpt>
      <trkpt lat="46.10009" lon="6.53646">
        <ele>851</ele>
        <time>2011-07-24T09:30:36Z</time>
      </trkpt>
      <trkpt lat="46.10001" lon="6.53668">
        <ele>858</ele>
        <time>2011-07-24T09:30:38Z</time>
      </trkpt>
      <trkpt lat="46.09989" lon="6.53687">
        <ele>858</ele>
        <time>2011-07-24T09:30:40Z</time>
      </trkpt>
      <trkpt lat="46.09978" lon="6.53705">
        <ele>864</ele>
        <time>2011-07-24T09:30:42Z</time>
      </trkpt>
      <trkpt lat="46.09966" lon="6.53724">
        <ele>864</ele>
        <time>2011-07-24T09:30:44Z</time>
      </trkpt>
      <trkpt lat="46.09957" lon="6.53746">
        <ele>864</ele>
        <time>2011-07-24T09:30:46Z</time>
      </trkpt>
      <trkpt lat="46.09953" lon="6.5376">
        <ele>864</ele>
        <time>2011-07-24T09:30:47Z</time>
      </trkpt>
      <trkpt lat="46.09948" lon="6.53772">
        <ele>864</ele>
        <time>2011-07-24T09:30:48Z</time>
      </trkpt>
      <trkpt lat="46.09944" lon="6.53785">
        <ele>870</ele>
        <time>2011-07-24T09:30:49Z</time>
      </trkpt>
      <trkpt lat="46.0994" lon="6.53798">
        <ele>870</ele>
        <time>2011-07-24T09:30:50Z</time>
      </trkpt>
      <trkpt lat="46.09937" lon="6.53812">
        <ele>870</ele>
        <time>2011-07-24T09:30:51Z</time>
      </trkpt>
      <trkpt lat="46.09935" lon="6.53824">
        <ele>870</ele>
        <time>2011-07-24T09:30:52Z</time>
      </trkpt>
      <trkpt lat="46.09927" lon="6.53848">
        <ele>870</ele>
        <time>2011-07-24T09:30:54Z</time>
      </trkpt>
      <trkpt lat="46.09923" lon="6.53859">
        <ele>878</ele>
        <time>2011-07-24T09:30:55Z</time>
      </trkpt>
      <trkpt lat="46.09911" lon="6.53878">
        <ele>878</ele>
        <time>2011-07-24T09:30:57Z</time>
      </trkpt>
      <trkpt lat="46.09902" lon="6.53886">
        <ele>884</ele>
        <time>2011-07-24T09:30:58Z</time>
      </trkpt>
      <trkpt lat="46.09896" lon="6.53895">
        <ele>884</ele>
        <time>2011-07-24T09:30:59Z</time>
      </trkpt>
      <trkpt lat="46.09887" lon="6.53904">
        <ele>884</ele>
        <time>2011-07-24T09:31:00Z</time>
      </trkpt>
      <trkpt lat="46.09881" lon="6.53916">
        <ele>884</ele>
        <time>2011-07-24T09:31:01Z</time>
      </trkpt>
      <trkpt lat="46.09874" lon="6.53927">
        <ele>889</ele>
        <time>2011-07-24T09:31:02Z</time>
      </trkpt>
      <trkpt lat="46.09866" lon="6.53935">
        <ele>889</ele>
        <time>2011-07-24T09:31:03Z</time>
      </trkpt>
      <trkpt lat="46.0985" lon="6.53945">
        <ele>889</ele>
        <time>2011-07-24T09:31:05Z</time>
      </trkpt>
      <trkpt lat="46.09842" lon="6.53951">
        <ele>889</ele>
        <time>2011-07-24T09:31:06Z</time>
      </trkpt>
      <trkpt lat="46.09829" lon="6.53963">
        <ele>889</ele>
        <time>2011-07-24T09:31:08Z</time>
      </trkpt>
      <trkpt lat="46.09819" lon="6.53978">
        <ele>889</ele>
        <time>2011-07-24T09:31:10Z</time>
      </trkpt>
      <trkpt lat="46.09816" lon="6.54001">
        <ele>889</ele>
        <time>2011-07-24T09:31:12Z</time>
      </trkpt>
      <trkpt lat="46.09817" lon="6.54015">
        <ele>889</ele>
        <time>2011-07-24T09:31:13Z</time>
      </trkpt>
      <trkpt lat="46.09819" lon="6.54029">
        <ele>889</ele>
        <time>2011-07-24T09:31:14Z</time>
      </trkpt>
      <trkpt lat="46.09821" lon="6.54044">
        <ele>889</ele>
        <time>2011-07-24T09:31:15Z</time>
      </trkpt>
      <trkpt lat="46.09821" lon="6.54069">
        <ele>896</ele>
        <time>2011-07-24T09:31:17Z</time>
      </trkpt>
      <trkpt lat="46.09821" lon="6.54087">
        <ele>896</ele>
        <time>2011-07-24T09:31:19Z</time>
      </trkpt>
      <trkpt lat="46.09816" lon="6.54102">
        <ele>896</ele>
        <time>2011-07-24T09:31:22Z</time>
      </trkpt>
      <trkpt lat="46.09814" lon="6.54116">
        <ele>905</ele>
        <time>2011-07-24T09:31:26Z</time>
      </trkpt>
      <trkpt lat="46.09824" lon="6.54108">
        <ele>905</ele>
        <time>2011-07-24T09:31:30Z</time>
      </trkpt>
      <trkpt lat="46.09833" lon="6.54097">
        <ele>905</ele>
        <time>2011-07-24T09:31:32Z</time>
      </trkpt>
      <trkpt lat="46.09844" lon="6.54082">
        <ele>905</ele>
        <time>2011-07-24T09:31:34Z</time>
      </trkpt>
      <trkpt lat="46.09854" lon="6.54066">
        <ele>905</ele>
        <time>2011-07-24T09:31:36Z</time>
      </trkpt>
      <trkpt lat="46.09864" lon="6.54049">
        <ele>905</ele>
        <time>2011-07-24T09:31:38Z</time>
      </trkpt>
      <trkpt lat="46.09871" lon="6.54035">
        <ele>912</ele>
        <time>2011-07-24T09:31:40Z</time>
      </trkpt>
      <trkpt lat="46.09873" lon="6.54022">
        <ele>919</ele>
        <time>2011-07-24T09:31:52Z</time>
      </trkpt>
      <trkpt lat="46.09881" lon="6.54031">
        <ele>919</ele>
        <time>2011-07-24T09:31:57Z</time>
      </trkpt>
      <trkpt lat="46.09888" lon="6.54045">
        <ele>925</ele>
        <time>2011-07-24T09:32:03Z</time>
      </trkpt>
      <trkpt lat="46.09899" lon="6.54058">
        <ele>925</ele>
        <time>2011-07-24T09:32:09Z</time>
      </trkpt>
      <trkpt lat="46.09902" lon="6.54074">
        <ele>932</ele>
        <time>2011-07-24T09:32:13Z</time>
      </trkpt>
      <trkpt lat="46.09907" lon="6.54092">
        <ele>932</ele>
        <time>2011-07-24T09:32:17Z</time>
      </trkpt>
      <trkpt lat="46.09917" lon="6.54104">
        <ele>939</ele>
        <time>2011-07-24T09:32:20Z</time>
      </trkpt>
      <trkpt lat="46.09925" lon="6.54112">
        <ele>932</ele>
        <time>2011-07-24T09:32:28Z</time>
      </trkpt>
      <trkpt lat="46.09936" lon="6.54108">
        <ele>932</ele>
        <time>2011-07-24T09:32:34Z</time>
      </trkpt>
      <trkpt lat="46.09947" lon="6.54099">
        <ele>932</ele>
        <time>2011-07-24T09:32:36Z</time>
      </trkpt>
      <trkpt lat="46.09963" lon="6.54083">
        <ele>932</ele>
        <time>2011-07-24T09:32:38Z</time>
      </trkpt>
      <trkpt lat="46.09971" lon="6.54074">
        <ele>932</ele>
        <time>2011-07-24T09:32:39Z</time>
      </trkpt>
      <trkpt lat="46.09979" lon="6.54064">
        <ele>932</ele>
        <time>2011-07-24T09:32:40Z</time>
      </trkpt>
      <trkpt lat="46.09987" lon="6.54054">
        <ele>932</ele>
        <time>2011-07-24T09:32:41Z</time>
      </trkpt>
      <trkpt lat="46.09995" lon="6.54045">
        <ele>932</ele>
        <time>2011-07-24T09:32:42Z</time>
      </trkpt>
      <trkpt lat="46.10003" lon="6.54035">
        <ele>932</ele>
        <time>2011-07-24T09:32:43Z</time>
      </trkpt>
      <trkpt lat="46.10011" lon="6.54026">
        <ele>932</ele>
        <time>2011-07-24T09:32:44Z</time>
      </trkpt>
      <trkpt lat="46.10019" lon="6.54016">
        <ele>932</ele>
        <time>2011-07-24T09:32:45Z</time>
      </trkpt>
      <trkpt lat="46.10027" lon="6.54007">
        <ele>932</ele>
        <time>2011-07-24T09:32:46Z</time>
      </trkpt>
      <trkpt lat="46.10037" lon="6.53999">
        <ele>932</ele>
        <time>2011-07-24T09:32:47Z</time>
      </trkpt>
      <trkpt lat="46.10046" lon="6.5399">
        <ele>937</ele>
        <time>2011-07-24T09:32:48Z</time>
      </trkpt>
      <trkpt lat="46.10057" lon="6.53982">
        <ele>937</ele>
        <time>2011-07-24T09:32:49Z</time>
      </trkpt>
      <trkpt lat="46.10066" lon="6.53971">
        <ele>937</ele>
        <time>2011-07-24T09:32:50Z</time>
      </trkpt>
      <trkpt lat="46.10075" lon="6.53959">
        <ele>942</ele>
        <time>2011-07-24T09:32:51Z</time>
      </trkpt>
      <trkpt lat="46.10084" lon="6.53947">
        <ele>942</ele>
        <time>2011-07-24T09:32:52Z</time>
      </trkpt>
      <trkpt lat="46.10094" lon="6.53933">
        <ele>942</ele>
        <time>2011-07-24T09:32:53Z</time>
      </trkpt>
      <trkpt lat="46.10103" lon="6.53921">
        <ele>942</ele>
        <time>2011-07-24T09:32:54Z</time>
      </trkpt>
      <trkpt lat="46.10112" lon="6.53907">
        <ele>942</ele>
        <time>2011-07-24T09:32:55Z</time>
      </trkpt>
      <trkpt lat="46.10121" lon="6.53893">
        <ele>948</ele>
        <time>2011-07-24T09:32:56Z</time>
      </trkpt>
      <trkpt lat="46.10127" lon="6.53877">
        <ele>948</ele>
        <time>2011-07-24T09:32:57Z</time>
      </trkpt>
      <trkpt lat="46.10131" lon="6.53863">
        <ele>954</ele>
        <time>2011-07-24T09:32:58Z</time>
      </trkpt>
      <trkpt lat="46.10134" lon="6.5385">
        <ele>954</ele>
        <time>2011-07-24T09:32:59Z</time>
      </trkpt>
      <trkpt lat="46.10141" lon="6.53829">
        <ele>960</ele>
        <time>2011-07-24T09:33:01Z</time>
      </trkpt>
      <trkpt lat="46.10153" lon="6.53826">
        <ele>960</ele>
        <time>2011-07-24T09:33:03Z</time>
      </trkpt>
      <trkpt lat="46.10163" lon="6.53834">
        <ele>966</ele>
        <time>2011-07-24T09:33:06Z</time>
      </trkpt>
      <trkpt lat="46.10166" lon="6.53854">
        <ele>966</ele>
        <time>2011-07-24T09:33:08Z</time>
      </trkpt>
      <trkpt lat="46.10161" lon="6.53874">
        <ele>966</ele>
        <time>2011-07-24T09:33:10Z</time>
      </trkpt>
      <trkpt lat="46.10159" lon="6.53888">
        <ele>966</ele>
        <time>2011-07-24T09:33:11Z</time>
      </trkpt>
      <trkpt lat="46.10161" lon="6.53906">
        <ele>966</ele>
        <time>2011-07-24T09:33:12Z</time>
      </trkpt>
      <trkpt lat="46.10167" lon="6.5392">
        <ele>966</ele>
        <time>2011-07-24T09:33:13Z</time>
      </trkpt>
      <trkpt lat="46.10177" lon="6.53931">
        <ele>966</ele>
        <time>2011-07-24T09:33:14Z</time>
      </trkpt>
      <trkpt lat="46.10189" lon="6.53942">
        <ele>966</ele>
        <time>2011-07-24T09:33:15Z</time>
      </trkpt>
      <trkpt lat="46.10202" lon="6.53951">
        <ele>972</ele>
        <time>2011-07-24T09:33:16Z</time>
      </trkpt>
      <trkpt lat="46.10214" lon="6.53958">
        <ele>972</ele>
        <time>2011-07-24T09:33:17Z</time>
      </trkpt>
      <trkpt lat="46.10225" lon="6.53965">
        <ele>972</ele>
        <time>2011-07-24T09:33:18Z</time>
      </trkpt>
      <trkpt lat="46.10235" lon="6.53971">
        <ele>972</ele>
        <time>2011-07-24T09:33:19Z</time>
      </trkpt>
      <trkpt lat="46.10242" lon="6.5398">
        <ele>972</ele>
        <time>2011-07-24T09:33:20Z</time>
      </trkpt>
      <trkpt lat="46.10249" lon="6.53989">
        <ele>972</ele>
        <time>2011-07-24T09:33:21Z</time>
      </trkpt>
      <trkpt lat="46.10256" lon="6.54">
        <ele>972</ele>
        <time>2011-07-24T09:33:22Z</time>
      </trkpt>
      <trkpt lat="46.10265" lon="6.5402">
        <ele>972</ele>
        <time>2011-07-24T09:33:24Z</time>
      </trkpt>
      <trkpt lat="46.10267" lon="6.54039">
        <ele>972</ele>
        <time>2011-07-24T09:33:26Z</time>
      </trkpt>
      <trkpt lat="46.10269" lon="6.54054">
        <ele>972</ele>
        <time>2011-07-24T09:33:28Z</time>
      </trkpt>
      <trkpt lat="46.10274" lon="6.54068">
        <ele>972</ele>
        <time>2011-07-24T09:33:30Z</time>
      </trkpt>
      <trkpt lat="46.10285" lon="6.54078">
        <ele>972</ele>
        <time>2011-07-24T09:33:32Z</time>
      </trkpt>
      <trkpt lat="46.10295" lon="6.54089">
        <ele>972</ele>
        <time>2011-07-24T09:33:34Z</time>
      </trkpt>
      <trkpt lat="46.10301" lon="6.54103">
        <ele>972</ele>
        <time>2011-07-24T09:33:36Z</time>
      </trkpt>
      <trkpt lat="46.10305" lon="6.54119">
        <ele>972</ele>
        <time>2011-07-24T09:33:38Z</time>
      </trkpt>
      <trkpt lat="46.10304" lon="6.54134">
        <ele>965</ele>
        <time>2011-07-24T09:33:40Z</time>
      </trkpt>
      <trkpt lat="46.103" lon="6.54149">
        <ele>965</ele>
        <time>2011-07-24T09:33:42Z</time>
      </trkpt>
      <trkpt lat="46.10293" lon="6.54164">
        <ele>965</ele>
        <time>2011-07-24T09:33:44Z</time>
      </trkpt>
      <trkpt lat="46.10292" lon="6.54178">
        <ele>958</ele>
        <time>2011-07-24T09:33:46Z</time>
      </trkpt>
      <trkpt lat="46.10299" lon="6.54195">
        <ele>958</ele>
        <time>2011-07-24T09:33:49Z</time>
      </trkpt>
      <trkpt lat="46.10306" lon="6.54209">
        <ele>953</ele>
        <time>2011-07-24T09:33:52Z</time>
      </trkpt>
      <trkpt lat="46.10313" lon="6.54219">
        <ele>953</ele>
        <time>2011-07-24T09:33:54Z</time>
      </trkpt>
      <trkpt lat="46.10322" lon="6.5423">
        <ele>953</ele>
        <time>2011-07-24T09:33:56Z</time>
      </trkpt>
      <trkpt lat="46.10333" lon="6.54235">
        <ele>945</ele>
        <time>2011-07-24T09:33:58Z</time>
      </trkpt>
      <trkpt lat="46.10354" lon="6.54243">
        <ele>945</ele>
        <time>2011-07-24T09:34:02Z</time>
      </trkpt>
      <trkpt lat="46.10365" lon="6.54252">
        <ele>940</ele>
        <time>2011-07-24T09:34:04Z</time>
      </trkpt>
      <trkpt lat="46.10375" lon="6.5426">
        <ele>940</ele>
        <time>2011-07-24T09:34:06Z</time>
      </trkpt>
      <trkpt lat="46.10389" lon="6.54267">
        <ele>933</ele>
        <time>2011-07-24T09:34:08Z</time>
      </trkpt>
      <trkpt lat="46.10401" lon="6.54279">
        <ele>933</ele>
        <time>2011-07-24T09:34:10Z</time>
      </trkpt>
      <trkpt lat="46.10412" lon="6.54291">
        <ele>927</ele>
        <time>2011-07-24T09:34:12Z</time>
      </trkpt>
      <trkpt lat="46.10419" lon="6.54304">
        <ele>927</ele>
        <time>2011-07-24T09:34:14Z</time>
      </trkpt>
      <trkpt lat="46.10424" lon="6.54319">
        <ele>927</ele>
        <time>2011-07-24T09:34:16Z</time>
      </trkpt>
      <trkpt lat="46.10429" lon="6.54335">
        <ele>920</ele>
        <time>2011-07-24T09:34:18Z</time>
      </trkpt>
      <trkpt lat="46.10434" lon="6.54349">
        <ele>920</ele>
        <time>2011-07-24T09:34:20Z</time>
      </trkpt>
      <trkpt lat="46.10438" lon="6.54363">
        <ele>920</ele>
        <time>2011-07-24T09:34:22Z</time>
      </trkpt>
      <trkpt lat="46.10443" lon="6.54374">
        <ele>913</ele>
        <time>2011-07-24T09:34:24Z</time>
      </trkpt>
      <trkpt lat="46.10452" lon="6.54383">
        <ele>913</ele>
        <time>2011-07-24T09:34:26Z</time>
      </trkpt>
      <trkpt lat="46.10464" lon="6.54393">
        <ele>913</ele>
        <time>2011-07-24T09:34:28Z</time>
      </trkpt>
      <trkpt lat="46.10474" lon="6.54401">
        <ele>904</ele>
        <time>2011-07-24T09:34:30Z</time>
      </trkpt>
      <trkpt lat="46.1048" lon="6.54413">
        <ele>904</ele>
        <time>2011-07-24T09:34:32Z</time>
      </trkpt>
      <trkpt lat="46.10485" lon="6.54428">
        <ele>904</ele>
        <time>2011-07-24T09:34:34Z</time>
      </trkpt>
      <trkpt lat="46.10485" lon="6.54442">
        <ele>896</ele>
        <time>2011-07-24T09:34:36Z</time>
      </trkpt>
      <trkpt lat="46.10486" lon="6.54456">
        <ele>896</ele>
        <time>2011-07-24T09:34:38Z</time>
      </trkpt>
      <trkpt lat="46.10495" lon="6.54443">
        <ele>913</ele>
        <time>2011-07-24T09:35:27Z</time>
      </trkpt>
      <trkpt lat="46.10503" lon="6.54431">
        <ele>913</ele>
        <time>2011-07-24T09:35:29Z</time>
      </trkpt>
      <trkpt lat="46.1051" lon="6.54416">
        <ele>913</ele>
        <time>2011-07-24T09:35:31Z</time>
      </trkpt>
      <trkpt lat="46.10517" lon="6.54403">
        <ele>913</ele>
        <time>2011-07-24T09:35:34Z</time>
      </trkpt>
      <trkpt lat="46.10525" lon="6.54399">
        <ele>905</ele>
        <time>2011-07-24T09:35:37Z</time>
      </trkpt>
      <trkpt lat="46.10539" lon="6.54398">
        <ele>905</ele>
        <time>2011-07-24T09:35:44Z</time>
      </trkpt>
      <trkpt lat="46.10537" lon="6.54415">
        <ele>897</ele>
        <time>2011-07-24T09:35:48Z</time>
      </trkpt>
      <trkpt lat="46.10542" lon="6.54434">
        <ele>891</ele>
        <time>2011-07-24T09:35:53Z</time>
      </trkpt>
      <trkpt lat="46.10548" lon="6.5445">
        <ele>891</ele>
        <time>2011-07-24T09:35:55Z</time>
      </trkpt>
      <trkpt lat="46.10553" lon="6.54466">
        <ele>885</ele>
        <time>2011-07-24T09:35:58Z</time>
      </trkpt>
      <trkpt lat="46.10559" lon="6.54478">
        <ele>879</ele>
        <time>2011-07-24T09:36:01Z</time>
      </trkpt>
      <trkpt lat="46.10569" lon="6.54486">
        <ele>879</ele>
        <time>2011-07-24T09:36:05Z</time>
      </trkpt>
      <trkpt lat="46.1058" lon="6.54481">
        <ele>879</ele>
        <time>2011-07-24T09:36:08Z</time>
      </trkpt>
      <trkpt lat="46.10586" lon="6.54471">
        <ele>879</ele>
        <time>2011-07-24T09:36:11Z</time>
      </trkpt>
      <trkpt lat="46.1059" lon="6.54456">
        <ele>874</ele>
        <time>2011-07-24T09:36:15Z</time>
      </trkpt>
      <trkpt lat="46.10604" lon="6.5444">
        <ele>874</ele>
        <time>2011-07-24T09:36:20Z</time>
      </trkpt>
      <trkpt lat="46.10615" lon="6.54425">
        <ele>874</ele>
        <time>2011-07-24T09:36:24Z</time>
      </trkpt>
      <trkpt lat="46.10624" lon="6.54415">
        <ele>874</ele>
        <time>2011-07-24T09:36:27Z</time>
      </trkpt>
      <trkpt lat="46.10634" lon="6.5441">
        <ele>874</ele>
        <time>2011-07-24T09:36:30Z</time>
      </trkpt>
      <trkpt lat="46.10642" lon="6.54402">
        <ele>874</ele>
        <time>2011-07-24T09:36:33Z</time>
      </trkpt>
      <trkpt lat="46.10647" lon="6.54387">
        <ele>867</ele>
        <time>2011-07-24T09:36:37Z</time>
      </trkpt>
      <trkpt lat="46.10652" lon="6.54372">
        <ele>860</ele>
        <time>2011-07-24T09:36:41Z</time>
      </trkpt>
      <trkpt lat="46.10662" lon="6.54363">
        <ele>860</ele>
        <time>2011-07-24T09:36:44Z</time>
      </trkpt>
      <trkpt lat="46.10679" lon="6.54358">
        <ele>860</ele>
        <time>2011-07-24T09:36:48Z</time>
      </trkpt>
      <trkpt lat="46.10689" lon="6.54358">
        <ele>853</ele>
        <time>2011-07-24T09:36:51Z</time>
      </trkpt>
      <trkpt lat="46.10699" lon="6.54359">
        <ele>853</ele>
        <time>2011-07-24T09:36:54Z</time>
      </trkpt>
      <trkpt lat="46.10707" lon="6.54355">
        <ele>847</ele>
        <time>2011-07-24T09:36:58Z</time>
      </trkpt>
      <trkpt lat="46.10716" lon="6.54347">
        <ele>841</ele>
        <time>2011-07-24T09:37:01Z</time>
      </trkpt>
      <trkpt lat="46.10726" lon="6.54342">
        <ele>841</ele>
        <time>2011-07-24T09:37:04Z</time>
      </trkpt>
      <trkpt lat="46.10737" lon="6.54337">
        <ele>841</ele>
        <time>2011-07-24T09:37:07Z</time>
      </trkpt>
      <trkpt lat="46.10745" lon="6.54329">
        <ele>841</ele>
        <time>2011-07-24T09:37:09Z</time>
      </trkpt>
      <trkpt lat="46.10752" lon="6.54319">
        <ele>833</ele>
        <time>2011-07-24T09:37:11Z</time>
      </trkpt>
      <trkpt lat="46.10763" lon="6.54309">
        <ele>833</ele>
        <time>2011-07-24T09:37:14Z</time>
      </trkpt>
      <trkpt lat="46.10777" lon="6.54305">
        <ele>833</ele>
        <time>2011-07-24T09:37:17Z</time>
      </trkpt>
      <trkpt lat="46.10788" lon="6.54307">
        <ele>833</ele>
        <time>2011-07-24T09:37:20Z</time>
      </trkpt>
      <trkpt lat="46.10799" lon="6.543">
        <ele>827</ele>
        <time>2011-07-24T09:37:23Z</time>
      </trkpt>
      <trkpt lat="46.10808" lon="6.54286">
        <ele>827</ele>
        <time>2011-07-24T09:37:26Z</time>
      </trkpt>
      <trkpt lat="46.10813" lon="6.54275">
        <ele>819</ele>
        <time>2011-07-24T09:37:28Z</time>
      </trkpt>
      <trkpt lat="46.10821" lon="6.54263">
        <ele>819</ele>
        <time>2011-07-24T09:37:31Z</time>
      </trkpt>
      <trkpt lat="46.10828" lon="6.54252">
        <ele>812</ele>
        <time>2011-07-24T09:37:35Z</time>
      </trkpt>
      <trkpt lat="46.10837" lon="6.54246">
        <ele>812</ele>
        <time>2011-07-24T09:37:38Z</time>
      </trkpt>
      <trkpt lat="46.10824" lon="6.54248">
        <ele>805</ele>
        <time>2011-07-24T09:39:10Z</time>
      </trkpt>
      <trkpt lat="46.10816" lon="6.54257">
        <ele>805</ele>
        <time>2011-07-24T09:39:12Z</time>
      </trkpt>
      <trkpt lat="46.1081" lon="6.54267">
        <ele>805</ele>
        <time>2011-07-24T09:39:14Z</time>
      </trkpt>
      <trkpt lat="46.10802" lon="6.54282">
        <ele>805</ele>
        <time>2011-07-24T09:39:17Z</time>
      </trkpt>
      <trkpt lat="46.10793" lon="6.54294">
        <ele>812</ele>
        <time>2011-07-24T09:39:20Z</time>
      </trkpt>
      <trkpt lat="46.10783" lon="6.54301">
        <ele>812</ele>
        <time>2011-07-24T09:39:23Z</time>
      </trkpt>
      <trkpt lat="46.10773" lon="6.54301">
        <ele>812</ele>
        <time>2011-07-24T09:39:25Z</time>
      </trkpt>
      <trkpt lat="46.10762" lon="6.54301">
        <ele>812</ele>
        <time>2011-07-24T09:39:27Z</time>
      </trkpt>
      <trkpt lat="46.10754" lon="6.54305">
        <ele>817</ele>
        <time>2011-07-24T09:39:29Z</time>
      </trkpt>
      <trkpt lat="46.10746" lon="6.54317">
        <ele>817</ele>
        <time>2011-07-24T09:39:32Z</time>
      </trkpt>
      <trkpt lat="46.10736" lon="6.54328">
        <ele>817</ele>
        <time>2011-07-24T09:39:35Z</time>
      </trkpt>
      <trkpt lat="46.10725" lon="6.54336">
        <ele>824</ele>
        <time>2011-07-24T09:39:38Z</time>
      </trkpt>
      <trkpt lat="46.10714" lon="6.54345">
        <ele>824</ele>
        <time>2011-07-24T09:39:41Z</time>
      </trkpt>
      <trkpt lat="46.10707" lon="6.54354">
        <ele>832</ele>
        <time>2011-07-24T09:39:44Z</time>
      </trkpt>
      <trkpt lat="46.10697" lon="6.54359">
        <ele>832</ele>
        <time>2011-07-24T09:39:48Z</time>
      </trkpt>
      <trkpt lat="46.10688" lon="6.54359">
        <ele>842</ele>
        <time>2011-07-24T09:39:52Z</time>
      </trkpt>
      <trkpt lat="46.10679" lon="6.54359">
        <ele>842</ele>
        <time>2011-07-24T09:39:55Z</time>
      </trkpt>
      <trkpt lat="46.10666" lon="6.54362">
        <ele>850</ele>
        <time>2011-07-24T09:39:58Z</time>
      </trkpt>
      <trkpt lat="46.10655" lon="6.54369">
        <ele>850</ele>
        <time>2011-07-24T09:40:01Z</time>
      </trkpt>
      <trkpt lat="46.10642" lon="6.54386">
        <ele>860</ele>
        <time>2011-07-24T09:40:06Z</time>
      </trkpt>
      <trkpt lat="46.10635" lon="6.544">
        <ele>867</ele>
        <time>2011-07-24T09:40:11Z</time>
      </trkpt>
      <trkpt lat="46.10626" lon="6.54407">
        <ele>867</ele>
        <time>2011-07-24T09:40:14Z</time>
      </trkpt>
      <trkpt lat="46.10616" lon="6.54418">
        <ele>873</ele>
        <time>2011-07-24T09:40:17Z</time>
      </trkpt>
      <trkpt lat="46.1061" lon="6.5443">
        <ele>873</ele>
        <time>2011-07-24T09:40:19Z</time>
      </trkpt>
      <trkpt lat="46.10599" lon="6.54438">
        <ele>873</ele>
        <time>2011-07-24T09:40:22Z</time>
      </trkpt>
      <trkpt lat="46.1059" lon="6.54448">
        <ele>873</ele>
        <time>2011-07-24T09:40:25Z</time>
      </trkpt>
      <trkpt lat="46.10581" lon="6.54463">
        <ele>873</ele>
        <time>2011-07-24T09:40:28Z</time>
      </trkpt>
      <trkpt lat="46.10573" lon="6.54472">
        <ele>873</ele>
        <time>2011-07-24T09:40:30Z</time>
      </trkpt>
      <trkpt lat="46.10564" lon="6.54478">
        <ele>880</ele>
        <time>2011-07-24T09:40:33Z</time>
      </trkpt>
      <trkpt lat="46.10554" lon="6.5447">
        <ele>880</ele>
        <time>2011-07-24T09:40:37Z</time>
      </trkpt>
      <trkpt lat="46.10547" lon="6.5445">
        <ele>890</ele>
        <time>2011-07-24T09:40:44Z</time>
      </trkpt>
      <trkpt lat="46.10549" lon="6.54433">
        <ele>900</ele>
        <time>2011-07-24T09:40:46Z</time>
      </trkpt>
      <trkpt lat="46.10544" lon="6.54418">
        <ele>906</ele>
        <time>2011-07-24T09:40:48Z</time>
      </trkpt>
      <trkpt lat="46.10535" lon="6.54403">
        <ele>911</ele>
        <time>2011-07-24T09:40:51Z</time>
      </trkpt>
      <trkpt lat="46.10525" lon="6.54401">
        <ele>911</ele>
        <time>2011-07-24T09:40:56Z</time>
      </trkpt>
      <trkpt lat="46.10516" lon="6.54412">
        <ele>911</ele>
        <time>2011-07-24T09:40:59Z</time>
      </trkpt>
      <trkpt lat="46.10509" lon="6.54424">
        <ele>911</ele>
        <time>2011-07-24T09:41:01Z</time>
      </trkpt>
      <trkpt lat="46.10501" lon="6.54436">
        <ele>911</ele>
        <time>2011-07-24T09:41:03Z</time>
      </trkpt>
      <trkpt lat="46.10493" lon="6.54446">
        <ele>911</ele>
        <time>2011-07-24T09:41:05Z</time>
      </trkpt>
      <trkpt lat="46.10486" lon="6.54458">
        <ele>911</ele>
        <time>2011-07-24T09:41:10Z</time>
      </trkpt>
      <trkpt lat="46.10487" lon="6.54471">
        <ele>911</ele>
        <time>2011-07-24T09:41:13Z</time>
      </trkpt>
      <trkpt lat="46.10491" lon="6.54486">
        <ele>911</ele>
        <time>2011-07-24T09:41:15Z</time>
      </trkpt>
      <trkpt lat="46.10497" lon="6.54504">
        <ele>911</ele>
        <time>2011-07-24T09:41:17Z</time>
      </trkpt>
      <trkpt lat="46.10502" lon="6.54517">
        <ele>911</ele>
        <time>2011-07-24T09:41:19Z</time>
      </trkpt>
      <trkpt lat="46.10507" lon="6.54534">
        <ele>899</ele>
        <time>2011-07-24T09:41:21Z</time>
      </trkpt>
      <trkpt lat="46.10511" lon="6.54548">
        <ele>899</ele>
        <time>2011-07-24T09:41:23Z</time>
      </trkpt>
      <trkpt lat="46.10516" lon="6.54561">
        <ele>899</ele>
        <time>2011-07-24T09:41:25Z</time>
      </trkpt>
      <trkpt lat="46.10519" lon="6.54575">
        <ele>890</ele>
        <time>2011-07-24T09:41:27Z</time>
      </trkpt>
      <trkpt lat="46.10522" lon="6.54591">
        <ele>885</ele>
        <time>2011-07-24T09:41:30Z</time>
      </trkpt>
      <trkpt lat="46.10525" lon="6.54609">
        <ele>885</ele>
        <time>2011-07-24T09:41:33Z</time>
      </trkpt>
      <trkpt lat="46.1053" lon="6.54622">
        <ele>885</ele>
        <time>2011-07-24T09:41:35Z</time>
      </trkpt>
      <trkpt lat="46.10535" lon="6.54635">
        <ele>875</ele>
        <time>2011-07-24T09:41:38Z</time>
      </trkpt>
      <trkpt lat="46.10545" lon="6.5465">
        <ele>867</ele>
        <time>2011-07-24T09:41:41Z</time>
      </trkpt>
      <trkpt lat="46.10552" lon="6.54661">
        <ele>860</ele>
        <time>2011-07-24T09:41:43Z</time>
      </trkpt>
      <trkpt lat="46.1056" lon="6.54675">
        <ele>852</ele>
        <time>2011-07-24T09:41:46Z</time>
      </trkpt>
      <trkpt lat="46.10568" lon="6.54685">
        <ele>852</ele>
        <time>2011-07-24T09:41:48Z</time>
      </trkpt>
      <trkpt lat="46.10576" lon="6.54694">
        <ele>847</ele>
        <time>2011-07-24T09:41:50Z</time>
      </trkpt>
      <trkpt lat="46.10584" lon="6.54705">
        <ele>847</ele>
        <time>2011-07-24T09:41:52Z</time>
      </trkpt>
      <trkpt lat="46.10589" lon="6.54721">
        <ele>847</ele>
        <time>2011-07-24T09:41:54Z</time>
      </trkpt>
      <trkpt lat="46.10595" lon="6.54734">
        <ele>852</ele>
        <time>2011-07-24T09:41:56Z</time>
      </trkpt>
      <trkpt lat="46.106" lon="6.54749">
        <ele>852</ele>
        <time>2011-07-24T09:41:58Z</time>
      </trkpt>
      <trkpt lat="46.10605" lon="6.54765">
        <ele>857</ele>
        <time>2011-07-24T09:42:00Z</time>
      </trkpt>
      <trkpt lat="46.10608" lon="6.54779">
        <ele>857</ele>
        <time>2011-07-24T09:42:02Z</time>
      </trkpt>
      <trkpt lat="46.10613" lon="6.54794">
        <ele>857</ele>
        <time>2011-07-24T09:42:04Z</time>
      </trkpt>
      <trkpt lat="46.10616" lon="6.54811">
        <ele>857</ele>
        <time>2011-07-24T09:42:07Z</time>
      </trkpt>
      <trkpt lat="46.1062" lon="6.54823">
        <ele>852</ele>
        <time>2011-07-24T09:42:09Z</time>
      </trkpt>
      <trkpt lat="46.10625" lon="6.5484">
        <ele>852</ele>
        <time>2011-07-24T09:42:11Z</time>
      </trkpt>
      <trkpt lat="46.10626" lon="6.54854">
        <ele>857</ele>
        <time>2011-07-24T09:42:13Z</time>
      </trkpt>
      <trkpt lat="46.10625" lon="6.54867">
        <ele>857</ele>
        <time>2011-07-24T09:42:15Z</time>
      </trkpt>
      <trkpt lat="46.10623" lon="6.54881">
        <ele>857</ele>
        <time>2011-07-24T09:42:17Z</time>
      </trkpt>
      <trkpt lat="46.1062" lon="6.54899">
        <ele>857</ele>
        <time>2011-07-24T09:42:19Z</time>
      </trkpt>
      <trkpt lat="46.1062" lon="6.5492">
        <ele>857</ele>
        <time>2011-07-24T09:42:21Z</time>
      </trkpt>
      <trkpt lat="46.10622" lon="6.54939">
        <ele>857</ele>
        <time>2011-07-24T09:42:23Z</time>
      </trkpt>
      <trkpt lat="46.10623" lon="6.54954">
        <ele>857</ele>
        <time>2011-07-24T09:42:26Z</time>
      </trkpt>
      <trkpt lat="46.1062" lon="6.54966">
        <ele>864</ele>
        <time>2011-07-24T09:42:37Z</time>
      </trkpt>
      <trkpt lat="46.10621" lon="6.54984">
        <ele>864</ele>
        <time>2011-07-24T09:43:49Z</time>
      </trkpt>
      <trkpt lat="46.1062" lon="6.54999">
        <ele>864</ele>
        <time>2011-07-24T09:43:51Z</time>
      </trkpt>
      <trkpt lat="46.10617" lon="6.55013">
        <ele>864</ele>
        <time>2011-07-24T09:43:53Z</time>
      </trkpt>
      <trkpt lat="46.10615" lon="6.55034">
        <ele>864</ele>
        <time>2011-07-24T09:43:56Z</time>
      </trkpt>
      <trkpt lat="46.10616" lon="6.55052">
        <ele>864</ele>
        <time>2011-07-24T09:43:58Z</time>
      </trkpt>
      <trkpt lat="46.10617" lon="6.55067">
        <ele>869</ele>
        <time>2011-07-24T09:44:00Z</time>
      </trkpt>
      <trkpt lat="46.10619" lon="6.55082">
        <ele>869</ele>
        <time>2011-07-24T09:44:02Z</time>
      </trkpt>
      <trkpt lat="46.10623" lon="6.55097">
        <ele>869</ele>
        <time>2011-07-24T09:44:04Z</time>
      </trkpt>
      <trkpt lat="46.10624" lon="6.5512">
        <ele>859</ele>
        <time>2011-07-24T09:44:06Z</time>
      </trkpt>
      <trkpt lat="46.10625" lon="6.55138">
        <ele>859</ele>
        <time>2011-07-24T09:44:08Z</time>
      </trkpt>
      <trkpt lat="46.10624" lon="6.55163">
        <ele>854</ele>
        <time>2011-07-24T09:44:11Z</time>
      </trkpt>
      <trkpt lat="46.1062" lon="6.5518">
        <ele>854</ele>
        <time>2011-07-24T09:44:13Z</time>
      </trkpt>
      <trkpt lat="46.10615" lon="6.55197">
        <ele>854</ele>
        <time>2011-07-24T09:44:15Z</time>
      </trkpt>
      <trkpt lat="46.10612" lon="6.55216">
        <ele>854</ele>
        <time>2011-07-24T09:44:17Z</time>
      </trkpt>
      <trkpt lat="46.10611" lon="6.55229">
        <ele>854</ele>
        <time>2011-07-24T09:44:19Z</time>
      </trkpt>
      <trkpt lat="46.10612" lon="6.55243">
        <ele>854</ele>
        <time>2011-07-24T09:44:22Z</time>
      </trkpt>
      <trkpt lat="46.10615" lon="6.55257">
        <ele>854</ele>
        <time>2011-07-24T09:44:28Z</time>
      </trkpt>
      <trkpt lat="46.10616" lon="6.55273">
        <ele>854</ele>
        <time>2011-07-24T09:44:32Z</time>
      </trkpt>
      <trkpt lat="46.10618" lon="6.55289">
        <ele>854</ele>
        <time>2011-07-24T09:44:36Z</time>
      </trkpt>
      <trkpt lat="46.10619" lon="6.55307">
        <ele>854</ele>
        <time>2011-07-24T09:44:39Z</time>
      </trkpt>
      <trkpt lat="46.10617" lon="6.55321">
        <ele>854</ele>
        <time>2011-07-24T09:44:41Z</time>
      </trkpt>
      <trkpt lat="46.10619" lon="6.55335">
        <ele>847</ele>
        <time>2011-07-24T09:44:44Z</time>
      </trkpt>
      <trkpt lat="46.10626" lon="6.55346">
        <ele>847</ele>
        <time>2011-07-24T09:44:47Z</time>
      </trkpt>
      <trkpt lat="46.10634" lon="6.55352">
        <ele>847</ele>
        <time>2011-07-24T09:44:50Z</time>
      </trkpt>
      <trkpt lat="46.10632" lon="6.55367">
        <ele>847</ele>
        <time>2011-07-24T09:44:54Z</time>
      </trkpt>
      <trkpt lat="46.1063" lon="6.55379">
        <ele>847</ele>
        <time>2011-07-24T09:44:57Z</time>
      </trkpt>
      <trkpt lat="46.10627" lon="6.55396">
        <ele>847</ele>
        <time>2011-07-24T09:45:01Z</time>
      </trkpt>
      <trkpt lat="46.10625" lon="6.55413">
        <ele>840</ele>
        <time>2011-07-24T09:45:05Z</time>
      </trkpt>
      <trkpt lat="46.10632" lon="6.55423">
        <ele>840</ele>
        <time>2011-07-24T09:45:07Z</time>
      </trkpt>
      <trkpt lat="46.10638" lon="6.55439">
        <ele>830</ele>
        <time>2011-07-24T09:45:11Z</time>
      </trkpt>
      <trkpt lat="46.1064" lon="6.55452">
        <ele>830</ele>
        <time>2011-07-24T09:45:14Z</time>
      </trkpt>
      <trkpt lat="46.10643" lon="6.55467">
        <ele>830</ele>
        <time>2011-07-24T09:45:21Z</time>
      </trkpt>
      <trkpt lat="46.10643" lon="6.55483">
        <ele>830</ele>
        <time>2011-07-24T09:45:29Z</time>
      </trkpt>
      <trkpt lat="46.10644" lon="6.55496">
        <ele>830</ele>
        <time>2011-07-24T09:45:41Z</time>
      </trkpt>
      <trkpt lat="46.10645" lon="6.55511">
        <ele>830</ele>
        <time>2011-07-24T09:45:47Z</time>
      </trkpt>
      <trkpt lat="46.10649" lon="6.55523">
        <ele>830</ele>
        <time>2011-07-24T09:46:01Z</time>
      </trkpt>
      <trkpt lat="46.10648" lon="6.55537">
        <ele>823</ele>
        <time>2011-07-24T09:46:12Z</time>
      </trkpt>
      <trkpt lat="46.10655" lon="6.55546">
        <ele>830</ele>
        <time>2011-07-24T09:46:22Z</time>
      </trkpt>
      <trkpt lat="46.10662" lon="6.55567">
        <ele>830</ele>
        <time>2011-07-24T09:46:33Z</time>
      </trkpt>
      <trkpt lat="46.10664" lon="6.55582">
        <ele>830</ele>
        <time>2011-07-24T09:46:36Z</time>
      </trkpt>
      <trkpt lat="46.10665" lon="6.55603">
        <ele>817</ele>
        <time>2011-07-24T09:46:41Z</time>
      </trkpt>
      <trkpt lat="46.10668" lon="6.55591">
        <ele>817</ele>
        <time>2011-07-24T09:47:12Z</time>
      </trkpt>
      <trkpt lat="46.10678" lon="6.55591">
        <ele>824</ele>
        <time>2011-07-24T09:48:36Z</time>
      </trkpt>
      <trkpt lat="46.10667" lon="6.55592">
        <ele>818</ele>
        <time>2011-07-24T09:48:57Z</time>
      </trkpt>
      <trkpt lat="46.10658" lon="6.55594">
        <ele>812</ele>
        <time>2011-07-24T09:50:48Z</time>
      </trkpt>
      <trkpt lat="46.10667" lon="6.55597">
        <ele>812</ele>
        <time>2011-07-24T09:52:44Z</time>
      </trkpt>
      <trkpt lat="46.10673" lon="6.5561">
        <ele>812</ele>
        <time>2011-07-24T09:53:09Z</time>
      </trkpt>
      <trkpt lat="46.10675" lon="6.55625">
        <ele>803</ele>
        <time>2011-07-24T09:53:13Z</time>
      </trkpt>
      <trkpt lat="46.10679" lon="6.55639">
        <ele>796</ele>
        <time>2011-07-24T09:53:17Z</time>
      </trkpt>
      <trkpt lat="46.10685" lon="6.5565">
        <ele>796</ele>
        <time>2011-07-24T09:53:22Z</time>
      </trkpt>
      <trkpt lat="46.10679" lon="6.5566">
        <ele>790</ele>
        <time>2011-07-24T09:53:30Z</time>
      </trkpt>
      <trkpt lat="46.10684" lon="6.55671">
        <ele>790</ele>
        <time>2011-07-24T09:53:36Z</time>
      </trkpt>
      <trkpt lat="46.10687" lon="6.55684">
        <ele>790</ele>
        <time>2011-07-24T09:53:40Z</time>
      </trkpt>
      <trkpt lat="46.1069" lon="6.55699">
        <ele>783</ele>
        <time>2011-07-24T09:53:44Z</time>
      </trkpt>
      <trkpt lat="46.10692" lon="6.55712">
        <ele>783</ele>
        <time>2011-07-24T09:53:50Z</time>
      </trkpt>
      <trkpt lat="46.10702" lon="6.55723">
        <ele>789</ele>
        <time>2011-07-24T09:53:54Z</time>
      </trkpt>
      <trkpt lat="46.10708" lon="6.55734">
        <ele>789</ele>
        <time>2011-07-24T09:53:57Z</time>
      </trkpt>
      <trkpt lat="46.10709" lon="6.55754">
        <ele>784</ele>
        <time>2011-07-24T09:54:02Z</time>
      </trkpt>
      <trkpt lat="46.10709" lon="6.55768">
        <ele>784</ele>
        <time>2011-07-24T09:54:04Z</time>
      </trkpt>
      <trkpt lat="46.1071" lon="6.55788">
        <ele>784</ele>
        <time>2011-07-24T09:54:08Z</time>
      </trkpt>
      <trkpt lat="46.10715" lon="6.55801">
        <ele>784</ele>
        <time>2011-07-24T09:54:15Z</time>
      </trkpt>
      <trkpt lat="46.10717" lon="6.55814">
        <ele>774</ele>
        <time>2011-07-24T09:54:22Z</time>
      </trkpt>
      <trkpt lat="46.10715" lon="6.55828">
        <ele>774</ele>
        <time>2011-07-24T09:54:28Z</time>
      </trkpt>
      <trkpt lat="46.10719" lon="6.55842">
        <ele>774</ele>
        <time>2011-07-24T09:54:33Z</time>
      </trkpt>
      <trkpt lat="46.10719" lon="6.55859">
        <ele>765</ele>
        <time>2011-07-24T09:54:37Z</time>
      </trkpt>
      <trkpt lat="46.10721" lon="6.55873">
        <ele>765</ele>
        <time>2011-07-24T09:54:41Z</time>
      </trkpt>
      <trkpt lat="46.1073" lon="6.55881">
        <ele>765</ele>
        <time>2011-07-24T09:54:48Z</time>
      </trkpt>
      <trkpt lat="46.10736" lon="6.55893">
        <ele>753</ele>
        <time>2011-07-24T09:55:05Z</time>
      </trkpt>
      <trkpt lat="46.10744" lon="6.55903">
        <ele>753</ele>
        <time>2011-07-24T09:55:09Z</time>
      </trkpt>
      <trkpt lat="46.10749" lon="6.55915">
        <ele>753</ele>
        <time>2011-07-24T09:55:15Z</time>
      </trkpt>
      <trkpt lat="46.10755" lon="6.55927">
        <ele>753</ele>
        <time>2011-07-24T09:55:18Z</time>
      </trkpt>
      <trkpt lat="46.10759" lon="6.55944">
        <ele>760</ele>
        <time>2011-07-24T09:55:21Z</time>
      </trkpt>
      <trkpt lat="46.10761" lon="6.5596">
        <ele>760</ele>
        <time>2011-07-24T09:55:24Z</time>
      </trkpt>
      <trkpt lat="46.10763" lon="6.55974">
        <ele>760</ele>
        <time>2011-07-24T09:55:26Z</time>
      </trkpt>
      <trkpt lat="46.10762" lon="6.55988">
        <ele>760</ele>
        <time>2011-07-24T09:55:28Z</time>
      </trkpt>
      <trkpt lat="46.1076" lon="6.56004">
        <ele>760</ele>
        <time>2011-07-24T09:55:31Z</time>
      </trkpt>
      <trkpt lat="46.10756" lon="6.56021">
        <ele>760</ele>
        <time>2011-07-24T09:55:34Z</time>
      </trkpt>
      <trkpt lat="46.10744" lon="6.56046">
        <ele>760</ele>
        <time>2011-07-24T09:55:39Z</time>
      </trkpt>
      <trkpt lat="46.10735" lon="6.56056">
        <ele>755</ele>
        <time>2011-07-24T09:55:41Z</time>
      </trkpt>
      <trkpt lat="46.10724" lon="6.56063">
        <ele>755</ele>
        <time>2011-07-24T09:55:44Z</time>
      </trkpt>
      <trkpt lat="46.10716" lon="6.56076">
        <ele>749</ele>
        <time>2011-07-24T09:55:47Z</time>
      </trkpt>
      <trkpt lat="46.10712" lon="6.56091">
        <ele>744</ele>
        <time>2011-07-24T09:55:50Z</time>
      </trkpt>
      <trkpt lat="46.10707" lon="6.56105">
        <ele>736</ele>
        <time>2011-07-24T09:55:53Z</time>
      </trkpt>
      <trkpt lat="46.10702" lon="6.56121">
        <ele>736</ele>
        <time>2011-07-24T09:55:56Z</time>
      </trkpt>
      <trkpt lat="46.10697" lon="6.56134">
        <ele>730</ele>
        <time>2011-07-24T09:55:59Z</time>
      </trkpt>
      <trkpt lat="46.10695" lon="6.56147">
        <ele>730</ele>
        <time>2011-07-24T09:56:03Z</time>
      </trkpt>
      <trkpt lat="46.10704" lon="6.56156">
        <ele>722</ele>
        <time>2011-07-24T09:56:11Z</time>
      </trkpt>
      <trkpt lat="46.10713" lon="6.56156">
        <ele>722</ele>
        <time>2011-07-24T09:56:18Z</time>
      </trkpt>
      <trkpt lat="46.10722" lon="6.56163">
        <ele>722</ele>
        <time>2011-07-24T09:56:22Z</time>
      </trkpt>
      <trkpt lat="46.10731" lon="6.56165">
        <ele>714</ele>
        <time>2011-07-24T09:56:25Z</time>
      </trkpt>
      <trkpt lat="46.10742" lon="6.56165">
        <ele>709</ele>
        <time>2011-07-24T09:56:28Z</time>
      </trkpt>
      <trkpt lat="46.10752" lon="6.56166">
        <ele>709</ele>
        <time>2011-07-24T09:56:32Z</time>
      </trkpt>
      <trkpt lat="46.10762" lon="6.56165">
        <ele>703</ele>
        <time>2011-07-24T09:56:37Z</time>
      </trkpt>
      <trkpt lat="46.10772" lon="6.56165">
        <ele>703</ele>
        <time>2011-07-24T09:56:47Z</time>
      </trkpt>
      <trkpt lat="46.10768" lon="6.56179">
        <ele>690</ele>
        <time>2011-07-24T09:57:24Z</time>
      </trkpt>
      <trkpt lat="46.10763" lon="6.56191">
        <ele>690</ele>
        <time>2011-07-24T09:57:28Z</time>
      </trkpt>
      <trkpt lat="46.10757" lon="6.56203">
        <ele>683</ele>
        <time>2011-07-24T09:57:32Z</time>
      </trkpt>
      <trkpt lat="46.10753" lon="6.56218">
        <ele>683</ele>
        <time>2011-07-24T09:57:35Z</time>
      </trkpt>
      <trkpt lat="46.10744" lon="6.56231">
        <ele>676</ele>
        <time>2011-07-24T09:57:39Z</time>
      </trkpt>
      <trkpt lat="46.10734" lon="6.56237">
        <ele>676</ele>
        <time>2011-07-24T09:57:43Z</time>
      </trkpt>
      <trkpt lat="46.10724" lon="6.56233">
        <ele>664</ele>
        <time>2011-07-24T09:57:48Z</time>
      </trkpt>
      <trkpt lat="46.10714" lon="6.56232">
        <ele>664</ele>
        <time>2011-07-24T09:57:53Z</time>
      </trkpt>
      <trkpt lat="46.10704" lon="6.56242">
        <ele>655</ele>
        <time>2011-07-24T09:57:57Z</time>
      </trkpt>
      <trkpt lat="46.10694" lon="6.56248">
        <ele>655</ele>
        <time>2011-07-24T09:58:00Z</time>
      </trkpt>
      <trkpt lat="46.10682" lon="6.56253">
        <ele>647</ele>
        <time>2011-07-24T09:58:04Z</time>
      </trkpt>
      <trkpt lat="46.10672" lon="6.56257">
        <ele>634</ele>
        <time>2011-07-24T09:58:20Z</time>
      </trkpt>
      <trkpt lat="46.10671" lon="6.56271">
        <ele>634</ele>
        <time>2011-07-24T09:58:30Z</time>
      </trkpt>
      <trkpt lat="46.10676" lon="6.56282">
        <ele>639</ele>
        <time>2011-07-24T09:58:36Z</time>
      </trkpt>
      <trkpt lat="46.10684" lon="6.5629">
        <ele>639</ele>
        <time>2011-07-24T09:58:48Z</time>
      </trkpt>
      <trkpt lat="46.1069" lon="6.56301">
        <ele>629</ele>
        <time>2011-07-24T09:58:59Z</time>
      </trkpt>
      <trkpt lat="46.10694" lon="6.56315">
        <ele>629</ele>
        <time>2011-07-24T09:59:03Z</time>
      </trkpt>
      <trkpt lat="46.10696" lon="6.56331">
        <ele>629</ele>
        <time>2011-07-24T09:59:09Z</time>
      </trkpt>
      <trkpt lat="46.107" lon="6.56343">
        <ele>629</ele>
        <time>2011-07-24T09:59:12Z</time>
      </trkpt>
      <trkpt lat="46.10697" lon="6.56361">
        <ele>617</ele>
        <time>2011-07-24T09:59:18Z</time>
      </trkpt>
      <trkpt lat="46.10689" lon="6.56369">
        <ele>622</ele>
        <time>2011-07-24T09:59:25Z</time>
      </trkpt>
      <trkpt lat="46.10697" lon="6.56365">
        <ele>622</ele>
        <time>2011-07-24T10:02:31Z</time>
      </trkpt>
      <trkpt lat="46.10704" lon="6.56375">
        <ele>617</ele>
        <time>2011-07-24T10:09:23Z</time>
      </trkpt>
      <trkpt lat="46.10712" lon="6.56378">
        <ele>625</ele>
        <time>2011-07-24T10:09:29Z</time>
      </trkpt>
      <trkpt lat="46.10704" lon="6.56372">
        <ele>625</ele>
        <time>2011-07-24T10:10:14Z</time>
      </trkpt>
      <trkpt lat="46.10695" lon="6.5637">
        <ele>625</ele>
        <time>2011-07-24T10:10:38Z</time>
      </trkpt>
      <trkpt lat="46.10705" lon="6.56368">
        <ele>625</ele>
        <time>2011-07-24T10:11:43Z</time>
      </trkpt>
      <trkpt lat="46.10695" lon="6.5637">
        <ele>615</ele>
        <time>2011-07-24T10:13:03Z</time>
      </trkpt>
      <trkpt lat="46.10705" lon="6.56371">
        <ele>620</ele>
        <time>2011-07-24T10:13:53Z</time>
      </trkpt>
      <trkpt lat="46.10697" lon="6.56363">
        <ele>630</ele>
        <time>2011-07-24T10:14:27Z</time>
      </trkpt>
      <trkpt lat="46.10689" lon="6.56357">
        <ele>630</ele>
        <time>2011-07-24T10:14:35Z</time>
      </trkpt>
      <trkpt lat="46.10695" lon="6.56368">
        <ele>612</ele>
        <time>2011-07-24T10:15:07Z</time>
      </trkpt>
      <trkpt lat="46.10687" lon="6.56379">
        <ele>627</ele>
        <time>2011-07-24T10:17:01Z</time>
      </trkpt>
      <trkpt lat="46.10682" lon="6.56391">
        <ele>627</ele>
        <time>2011-07-24T10:17:04Z</time>
      </trkpt>
      <trkpt lat="46.10679" lon="6.56405">
        <ele>627</ele>
        <time>2011-07-24T10:17:06Z</time>
      </trkpt>
      <trkpt lat="46.10675" lon="6.56419">
        <ele>627</ele>
        <time>2011-07-24T10:17:08Z</time>
      </trkpt>
      <trkpt lat="46.10672" lon="6.56434">
        <ele>622</ele>
        <time>2011-07-24T10:17:10Z</time>
      </trkpt>
      <trkpt lat="46.10668" lon="6.56449">
        <ele>622</ele>
        <time>2011-07-24T10:17:12Z</time>
      </trkpt>
      <trkpt lat="46.10662" lon="6.56466">
        <ele>622</ele>
        <time>2011-07-24T10:17:14Z</time>
      </trkpt>
      <trkpt lat="46.10657" lon="6.56481">
        <ele>622</ele>
        <time>2011-07-24T10:17:16Z</time>
      </trkpt>
      <trkpt lat="46.10648" lon="6.56495">
        <ele>622</ele>
        <time>2011-07-24T10:17:18Z</time>
      </trkpt>
      <trkpt lat="46.10632" lon="6.56507">
        <ele>622</ele>
        <time>2011-07-24T10:17:20Z</time>
      </trkpt>
      <trkpt lat="46.10618" lon="6.56517">
        <ele>622</ele>
        <time>2011-07-24T10:17:22Z</time>
      </trkpt>
      <trkpt lat="46.10606" lon="6.56526">
        <ele>614</ele>
        <time>2011-07-24T10:17:24Z</time>
      </trkpt>
      <trkpt lat="46.10599" lon="6.56535">
        <ele>614</ele>
        <time>2011-07-24T10:17:26Z</time>
      </trkpt>
      <trkpt lat="46.1059" lon="6.56548">
        <ele>614</ele>
        <time>2011-07-24T10:17:28Z</time>
      </trkpt>
      <trkpt lat="46.10579" lon="6.56563">
        <ele>614</ele>
        <time>2011-07-24T10:17:30Z</time>
      </trkpt>
      <trkpt lat="46.10563" lon="6.56581">
        <ele>614</ele>
        <time>2011-07-24T10:17:32Z</time>
      </trkpt>
      <trkpt lat="46.10554" lon="6.56589">
        <ele>614</ele>
        <time>2011-07-24T10:17:33Z</time>
      </trkpt>
      <trkpt lat="46.10544" lon="6.56598">
        <ele>614</ele>
        <time>2011-07-24T10:17:34Z</time>
      </trkpt>
      <trkpt lat="46.10535" lon="6.56607">
        <ele>614</ele>
        <time>2011-07-24T10:17:35Z</time>
      </trkpt>
      <trkpt lat="46.10525" lon="6.56616">
        <ele>614</ele>
        <time>2011-07-24T10:17:36Z</time>
      </trkpt>
      <trkpt lat="46.10517" lon="6.56625">
        <ele>614</ele>
        <time>2011-07-24T10:17:37Z</time>
      </trkpt>
      <trkpt lat="46.10507" lon="6.56634">
        <ele>614</ele>
        <time>2011-07-24T10:17:38Z</time>
      </trkpt>
      <trkpt lat="46.10499" lon="6.56642">
        <ele>614</ele>
        <time>2011-07-24T10:17:39Z</time>
      </trkpt>
      <trkpt lat="46.10489" lon="6.56651">
        <ele>614</ele>
        <time>2011-07-24T10:17:40Z</time>
      </trkpt>
      <trkpt lat="46.1048" lon="6.56662">
        <ele>614</ele>
        <time>2011-07-24T10:17:41Z</time>
      </trkpt>
      <trkpt lat="46.10472" lon="6.56671">
        <ele>614</ele>
        <time>2011-07-24T10:17:42Z</time>
      </trkpt>
      <trkpt lat="46.10463" lon="6.5668">
        <ele>619</ele>
        <time>2011-07-24T10:17:43Z</time>
      </trkpt>
      <trkpt lat="46.10454" lon="6.56688">
        <ele>619</ele>
        <time>2011-07-24T10:17:44Z</time>
      </trkpt>
      <trkpt lat="46.10446" lon="6.56696">
        <ele>619</ele>
        <time>2011-07-24T10:17:45Z</time>
      </trkpt>
      <trkpt lat="46.10437" lon="6.56704">
        <ele>619</ele>
        <time>2011-07-24T10:17:46Z</time>
      </trkpt>
      <trkpt lat="46.10429" lon="6.56712">
        <ele>619</ele>
        <time>2011-07-24T10:17:47Z</time>
      </trkpt>
      <trkpt lat="46.10414" lon="6.56725">
        <ele>619</ele>
        <time>2011-07-24T10:17:49Z</time>
      </trkpt>
      <trkpt lat="46.10407" lon="6.56734">
        <ele>619</ele>
        <time>2011-07-24T10:17:50Z</time>
      </trkpt>
      <trkpt lat="46.10399" lon="6.56743">
        <ele>619</ele>
        <time>2011-07-24T10:17:51Z</time>
      </trkpt>
      <trkpt lat="46.10391" lon="6.56753">
        <ele>619</ele>
        <time>2011-07-24T10:17:52Z</time>
      </trkpt>
      <trkpt lat="46.10385" lon="6.56764">
        <ele>619</ele>
        <time>2011-07-24T10:17:53Z</time>
      </trkpt>
      <trkpt lat="46.10379" lon="6.56775">
        <ele>619</ele>
        <time>2011-07-24T10:17:54Z</time>
      </trkpt>
      <trkpt lat="46.10374" lon="6.56787">
        <ele>619</ele>
        <time>2011-07-24T10:17:55Z</time>
      </trkpt>
      <trkpt lat="46.10369" lon="6.56801">
        <ele>619</ele>
        <time>2011-07-24T10:17:56Z</time>
      </trkpt>
      <trkpt lat="46.10362" lon="6.56813">
        <ele>619</ele>
        <time>2011-07-24T10:17:57Z</time>
      </trkpt>
      <trkpt lat="46.10355" lon="6.56825">
        <ele>619</ele>
        <time>2011-07-24T10:17:58Z</time>
      </trkpt>
      <trkpt lat="46.10347" lon="6.56836">
        <ele>619</ele>
        <time>2011-07-24T10:17:59Z</time>
      </trkpt>
      <trkpt lat="46.10339" lon="6.56845">
        <ele>619</ele>
        <time>2011-07-24T10:18:00Z</time>
      </trkpt>
      <trkpt lat="46.1033" lon="6.56856">
        <ele>619</ele>
        <time>2011-07-24T10:18:01Z</time>
      </trkpt>
      <trkpt lat="46.10322" lon="6.56867">
        <ele>619</ele>
        <time>2011-07-24T10:18:02Z</time>
      </trkpt>
      <trkpt lat="46.10313" lon="6.56878">
        <ele>619</ele>
        <time>2011-07-24T10:18:03Z</time>
      </trkpt>
      <trkpt lat="46.10303" lon="6.56889">
        <ele>619</ele>
        <time>2011-07-24T10:18:04Z</time>
      </trkpt>
      <trkpt lat="46.10293" lon="6.56898">
        <ele>619</ele>
        <time>2011-07-24T10:18:05Z</time>
      </trkpt>
      <trkpt lat="46.10283" lon="6.56906">
        <ele>619</ele>
        <time>2011-07-24T10:18:06Z</time>
      </trkpt>
      <trkpt lat="46.10271" lon="6.56909">
        <ele>626</ele>
        <time>2011-07-24T10:18:07Z</time>
      </trkpt>
      <trkpt lat="46.10261" lon="6.56911">
        <ele>626</ele>
        <time>2011-07-24T10:18:08Z</time>
      </trkpt>
      <trkpt lat="46.10251" lon="6.5691">
        <ele>626</ele>
        <time>2011-07-24T10:18:09Z</time>
      </trkpt>
      <trkpt lat="46.10241" lon="6.5691">
        <ele>626</ele>
        <time>2011-07-24T10:18:10Z</time>
      </trkpt>
      <trkpt lat="46.10231" lon="6.56912">
        <ele>626</ele>
        <time>2011-07-24T10:18:11Z</time>
      </trkpt>
      <trkpt lat="46.10221" lon="6.56915">
        <ele>626</ele>
        <time>2011-07-24T10:18:12Z</time>
      </trkpt>
      <trkpt lat="46.10212" lon="6.56919">
        <ele>626</ele>
        <time>2011-07-24T10:18:13Z</time>
      </trkpt>
      <trkpt lat="46.10199" lon="6.56934">
        <ele>626</ele>
        <time>2011-07-24T10:18:15Z</time>
      </trkpt>
      <trkpt lat="46.10187" lon="6.56947">
        <ele>626</ele>
        <time>2011-07-24T10:18:17Z</time>
      </trkpt>
      <trkpt lat="46.10174" lon="6.56965">
        <ele>632</ele>
        <time>2011-07-24T10:18:19Z</time>
      </trkpt>
      <trkpt lat="46.10169" lon="6.56978">
        <ele>632</ele>
        <time>2011-07-24T10:18:20Z</time>
      </trkpt>
      <trkpt lat="46.10162" lon="6.56987">
        <ele>632</ele>
        <time>2011-07-24T10:18:21Z</time>
      </trkpt>
      <trkpt lat="46.10155" lon="6.56997">
        <ele>637</ele>
        <time>2011-07-24T10:18:22Z</time>
      </trkpt>
      <trkpt lat="46.10147" lon="6.57006">
        <ele>637</ele>
        <time>2011-07-24T10:18:23Z</time>
      </trkpt>
      <trkpt lat="46.10139" lon="6.57016">
        <ele>637</ele>
        <time>2011-07-24T10:18:24Z</time>
      </trkpt>
      <trkpt lat="46.10127" lon="6.57038">
        <ele>637</ele>
        <time>2011-07-24T10:18:26Z</time>
      </trkpt>
      <trkpt lat="46.10121" lon="6.5705">
        <ele>643</ele>
        <time>2011-07-24T10:18:27Z</time>
      </trkpt>
      <trkpt lat="46.10116" lon="6.57064">
        <ele>643</ele>
        <time>2011-07-24T10:18:28Z</time>
      </trkpt>
      <trkpt lat="46.10111" lon="6.57077">
        <ele>643</ele>
        <time>2011-07-24T10:18:29Z</time>
      </trkpt>
      <trkpt lat="46.10104" lon="6.5709">
        <ele>643</ele>
        <time>2011-07-24T10:18:30Z</time>
      </trkpt>
      <trkpt lat="46.10098" lon="6.57102">
        <ele>643</ele>
        <time>2011-07-24T10:18:31Z</time>
      </trkpt>
      <trkpt lat="46.10084" lon="6.57112">
        <ele>643</ele>
        <time>2011-07-24T10:18:33Z</time>
      </trkpt>
      <trkpt lat="46.10067" lon="6.57119">
        <ele>643</ele>
        <time>2011-07-24T10:18:35Z</time>
      </trkpt>
      <trkpt lat="46.10056" lon="6.57123">
        <ele>643</ele>
        <time>2011-07-24T10:18:36Z</time>
      </trkpt>
      <trkpt lat="46.10046" lon="6.57127">
        <ele>649</ele>
        <time>2011-07-24T10:18:37Z</time>
      </trkpt>
      <trkpt lat="46.10036" lon="6.57132">
        <ele>649</ele>
        <time>2011-07-24T10:18:38Z</time>
      </trkpt>
      <trkpt lat="46.10025" lon="6.57138">
        <ele>649</ele>
        <time>2011-07-24T10:18:39Z</time>
      </trkpt>
      <trkpt lat="46.10014" lon="6.57146">
        <ele>649</ele>
        <time>2011-07-24T10:18:40Z</time>
      </trkpt>
      <trkpt lat="46.10004" lon="6.57154">
        <ele>649</ele>
        <time>2011-07-24T10:18:41Z</time>
      </trkpt>
      <trkpt lat="46.09994" lon="6.57163">
        <ele>649</ele>
        <time>2011-07-24T10:18:42Z</time>
      </trkpt>
      <trkpt lat="46.09984" lon="6.57172">
        <ele>649</ele>
        <time>2011-07-24T10:18:43Z</time>
      </trkpt>
      <trkpt lat="46.09975" lon="6.57181">
        <ele>649</ele>
        <time>2011-07-24T10:18:44Z</time>
      </trkpt>
      <trkpt lat="46.09965" lon="6.57191">
        <ele>649</ele>
        <time>2011-07-24T10:18:45Z</time>
      </trkpt>
      <trkpt lat="46.09954" lon="6.57199">
        <ele>649</ele>
        <time>2011-07-24T10:18:46Z</time>
      </trkpt>
      <trkpt lat="46.09945" lon="6.57207">
        <ele>649</ele>
        <time>2011-07-24T10:18:47Z</time>
      </trkpt>
      <trkpt lat="46.09935" lon="6.57214">
        <ele>649</ele>
        <time>2011-07-24T10:18:48Z</time>
      </trkpt>
      <trkpt lat="46.09925" lon="6.57223">
        <ele>649</ele>
        <time>2011-07-24T10:18:49Z</time>
      </trkpt>
      <trkpt lat="46.09916" lon="6.57234">
        <ele>649</ele>
        <time>2011-07-24T10:18:50Z</time>
      </trkpt>
      <trkpt lat="46.09909" lon="6.57246">
        <ele>649</ele>
        <time>2011-07-24T10:18:51Z</time>
      </trkpt>
      <trkpt lat="46.09901" lon="6.5726">
        <ele>649</ele>
        <time>2011-07-24T10:18:52Z</time>
      </trkpt>
      <trkpt lat="46.09894" lon="6.57274">
        <ele>649</ele>
        <time>2011-07-24T10:18:53Z</time>
      </trkpt>
      <trkpt lat="46.09887" lon="6.57289">
        <ele>649</ele>
        <time>2011-07-24T10:18:54Z</time>
      </trkpt>
      <trkpt lat="46.09885" lon="6.57306">
        <ele>649</ele>
        <time>2011-07-24T10:18:55Z</time>
      </trkpt>
      <trkpt lat="46.09883" lon="6.57322">
        <ele>649</ele>
        <time>2011-07-24T10:18:56Z</time>
      </trkpt>
      <trkpt lat="46.09881" lon="6.57337">
        <ele>649</ele>
        <time>2011-07-24T10:18:57Z</time>
      </trkpt>
      <trkpt lat="46.09876" lon="6.57359">
        <ele>649</ele>
        <time>2011-07-24T10:18:59Z</time>
      </trkpt>
      <trkpt lat="46.09868" lon="6.57375">
        <ele>649</ele>
        <time>2011-07-24T10:19:01Z</time>
      </trkpt>
      <trkpt lat="46.09857" lon="6.57395">
        <ele>649</ele>
        <time>2011-07-24T10:19:03Z</time>
      </trkpt>
      <trkpt lat="46.09851" lon="6.57407">
        <ele>649</ele>
        <time>2011-07-24T10:19:04Z</time>
      </trkpt>
      <trkpt lat="46.09844" lon="6.5742">
        <ele>654</ele>
        <time>2011-07-24T10:19:05Z</time>
      </trkpt>
      <trkpt lat="46.09837" lon="6.57434">
        <ele>654</ele>
        <time>2011-07-24T10:19:06Z</time>
      </trkpt>
      <trkpt lat="46.09832" lon="6.57449">
        <ele>654</ele>
        <time>2011-07-24T10:19:07Z</time>
      </trkpt>
      <trkpt lat="46.09827" lon="6.57464">
        <ele>654</ele>
        <time>2011-07-24T10:19:08Z</time>
      </trkpt>
      <trkpt lat="46.09822" lon="6.57479">
        <ele>654</ele>
        <time>2011-07-24T10:19:09Z</time>
      </trkpt>
      <trkpt lat="46.09818" lon="6.57492">
        <ele>654</ele>
        <time>2011-07-24T10:19:10Z</time>
      </trkpt>
      <trkpt lat="46.09817" lon="6.57507">
        <ele>654</ele>
        <time>2011-07-24T10:19:11Z</time>
      </trkpt>
      <trkpt lat="46.09817" lon="6.5752">
        <ele>654</ele>
        <time>2011-07-24T10:19:12Z</time>
      </trkpt>
      <trkpt lat="46.09813" lon="6.57545">
        <ele>654</ele>
        <time>2011-07-24T10:19:14Z</time>
      </trkpt>
      <trkpt lat="46.0981" lon="6.57558">
        <ele>654</ele>
        <time>2011-07-24T10:19:15Z</time>
      </trkpt>
      <trkpt lat="46.09807" lon="6.57572">
        <ele>654</ele>
        <time>2011-07-24T10:19:16Z</time>
      </trkpt>
      <trkpt lat="46.09803" lon="6.57588">
        <ele>654</ele>
        <time>2011-07-24T10:19:17Z</time>
      </trkpt>
      <trkpt lat="46.09799" lon="6.57605">
        <ele>654</ele>
        <time>2011-07-24T10:19:18Z</time>
      </trkpt>
      <trkpt lat="46.09795" lon="6.57621">
        <ele>654</ele>
        <time>2011-07-24T10:19:19Z</time>
      </trkpt>
      <trkpt lat="46.09789" lon="6.57636">
        <ele>654</ele>
        <time>2011-07-24T10:19:20Z</time>
      </trkpt>
      <trkpt lat="46.09782" lon="6.5765">
        <ele>654</ele>
        <time>2011-07-24T10:19:21Z</time>
      </trkpt>
      <trkpt lat="46.09779" lon="6.57667">
        <ele>654</ele>
        <time>2011-07-24T10:19:22Z</time>
      </trkpt>
      <trkpt lat="46.09773" lon="6.5768">
        <ele>654</ele>
        <time>2011-07-24T10:19:23Z</time>
      </trkpt>
      <trkpt lat="46.09758" lon="6.57721">
        <ele>654</ele>
        <time>2011-07-24T10:19:26Z</time>
      </trkpt>
      <trkpt lat="46.09754" lon="6.57735">
        <ele>654</ele>
        <time>2011-07-24T10:19:27Z</time>
      </trkpt>
      <trkpt lat="46.09748" lon="6.57747">
        <ele>654</ele>
        <time>2011-07-24T10:19:28Z</time>
      </trkpt>
      <trkpt lat="46.0974" lon="6.5776">
        <ele>654</ele>
        <time>2011-07-24T10:19:29Z</time>
      </trkpt>
      <trkpt lat="46.09732" lon="6.5777">
        <ele>654</ele>
        <time>2011-07-24T10:19:30Z</time>
      </trkpt>
      <trkpt lat="46.09723" lon="6.5778">
        <ele>654</ele>
        <time>2011-07-24T10:19:31Z</time>
      </trkpt>
      <trkpt lat="46.09714" lon="6.57791">
        <ele>654</ele>
        <time>2011-07-24T10:19:32Z</time>
      </trkpt>
      <trkpt lat="46.09707" lon="6.57805">
        <ele>654</ele>
        <time>2011-07-24T10:19:33Z</time>
      </trkpt>
      <trkpt lat="46.09704" lon="6.57821">
        <ele>654</ele>
        <time>2011-07-24T10:19:34Z</time>
      </trkpt>
      <trkpt lat="46.09701" lon="6.57839">
        <ele>654</ele>
        <time>2011-07-24T10:19:35Z</time>
      </trkpt>
      <trkpt lat="46.09699" lon="6.57857">
        <ele>654</ele>
        <time>2011-07-24T10:19:36Z</time>
      </trkpt>
      <trkpt lat="46.09697" lon="6.57875">
        <ele>654</ele>
        <time>2011-07-24T10:19:37Z</time>
      </trkpt>
      <trkpt lat="46.09699" lon="6.57894">
        <ele>654</ele>
        <time>2011-07-24T10:19:38Z</time>
      </trkpt>
      <trkpt lat="46.097" lon="6.57911">
        <ele>654</ele>
        <time>2011-07-24T10:19:39Z</time>
      </trkpt>
      <trkpt lat="46.09701" lon="6.57928">
        <ele>654</ele>
        <time>2011-07-24T10:19:40Z</time>
      </trkpt>
      <trkpt lat="46.09702" lon="6.57945">
        <ele>659</ele>
        <time>2011-07-24T10:19:41Z</time>
      </trkpt>
      <trkpt lat="46.09702" lon="6.57961">
        <ele>659</ele>
        <time>2011-07-24T10:19:42Z</time>
      </trkpt>
      <trkpt lat="46.097" lon="6.57976">
        <ele>659</ele>
        <time>2011-07-24T10:19:43Z</time>
      </trkpt>
      <trkpt lat="46.09699" lon="6.57991">
        <ele>659</ele>
        <time>2011-07-24T10:19:44Z</time>
      </trkpt>
      <trkpt lat="46.09696" lon="6.58006">
        <ele>659</ele>
        <time>2011-07-24T10:19:45Z</time>
      </trkpt>
      <trkpt lat="46.09691" lon="6.5802">
        <ele>659</ele>
        <time>2011-07-24T10:19:46Z</time>
      </trkpt>
      <trkpt lat="46.09686" lon="6.58033">
        <ele>659</ele>
        <time>2011-07-24T10:19:47Z</time>
      </trkpt>
      <trkpt lat="46.0968" lon="6.58046">
        <ele>659</ele>
        <time>2011-07-24T10:19:48Z</time>
      </trkpt>
      <trkpt lat="46.09674" lon="6.58059">
        <ele>659</ele>
        <time>2011-07-24T10:19:49Z</time>
      </trkpt>
      <trkpt lat="46.09668" lon="6.58073">
        <ele>659</ele>
        <time>2011-07-24T10:19:50Z</time>
      </trkpt>
      <trkpt lat="46.09661" lon="6.58085">
        <ele>659</ele>
        <time>2011-07-24T10:19:51Z</time>
      </trkpt>
      <trkpt lat="46.09654" lon="6.58097">
        <ele>659</ele>
        <time>2011-07-24T10:19:52Z</time>
      </trkpt>
      <trkpt lat="46.09646" lon="6.58108">
        <ele>659</ele>
        <time>2011-07-24T10:19:53Z</time>
      </trkpt>
      <trkpt lat="46.09639" lon="6.58119">
        <ele>659</ele>
        <time>2011-07-24T10:19:54Z</time>
      </trkpt>
      <trkpt lat="46.09632" lon="6.58133">
        <ele>659</ele>
        <time>2011-07-24T10:19:55Z</time>
      </trkpt>
      <trkpt lat="46.09627" lon="6.58147">
        <ele>659</ele>
        <time>2011-07-24T10:19:56Z</time>
      </trkpt>
      <trkpt lat="46.09623" lon="6.58162">
        <ele>659</ele>
        <time>2011-07-24T10:19:57Z</time>
      </trkpt>
      <trkpt lat="46.09622" lon="6.58179">
        <ele>659</ele>
        <time>2011-07-24T10:19:58Z</time>
      </trkpt>
      <trkpt lat="46.09618" lon="6.58196">
        <ele>659</ele>
        <time>2011-07-24T10:19:59Z</time>
      </trkpt>
      <trkpt lat="46.09614" lon="6.58211">
        <ele>659</ele>
        <time>2011-07-24T10:20:00Z</time>
      </trkpt>
      <trkpt lat="46.09611" lon="6.58226">
        <ele>659</ele>
        <time>2011-07-24T10:20:01Z</time>
      </trkpt>
      <trkpt lat="46.09606" lon="6.58241">
        <ele>664</ele>
        <time>2011-07-24T10:20:02Z</time>
      </trkpt>
      <trkpt lat="46.09602" lon="6.58258">
        <ele>664</ele>
        <time>2011-07-24T10:20:03Z</time>
      </trkpt>
      <trkpt lat="46.09596" lon="6.58272">
        <ele>664</ele>
        <time>2011-07-24T10:20:04Z</time>
      </trkpt>
      <trkpt lat="46.0959" lon="6.58286">
        <ele>664</ele>
        <time>2011-07-24T10:20:05Z</time>
      </trkpt>
      <trkpt lat="46.09584" lon="6.58301">
        <ele>664</ele>
        <time>2011-07-24T10:20:06Z</time>
      </trkpt>
      <trkpt lat="46.09577" lon="6.58314">
        <ele>664</ele>
        <time>2011-07-24T10:20:07Z</time>
      </trkpt>
      <trkpt lat="46.09572" lon="6.5833">
        <ele>664</ele>
        <time>2011-07-24T10:20:08Z</time>
      </trkpt>
      <trkpt lat="46.09568" lon="6.58348">
        <ele>664</ele>
        <time>2011-07-24T10:20:09Z</time>
      </trkpt>
      <trkpt lat="46.09565" lon="6.58368">
        <ele>664</ele>
        <time>2011-07-24T10:20:10Z</time>
      </trkpt>
      <trkpt lat="46.09563" lon="6.58387">
        <ele>664</ele>
        <time>2011-07-24T10:20:11Z</time>
      </trkpt>
      <trkpt lat="46.09562" lon="6.58405">
        <ele>664</ele>
        <time>2011-07-24T10:20:12Z</time>
      </trkpt>
      <trkpt lat="46.09561" lon="6.58421">
        <ele>664</ele>
        <time>2011-07-24T10:20:13Z</time>
      </trkpt>
      <trkpt lat="46.09559" lon="6.58436">
        <ele>664</ele>
        <time>2011-07-24T10:20:14Z</time>
      </trkpt>
      <trkpt lat="46.09554" lon="6.58457">
        <ele>664</ele>
        <time>2011-07-24T10:20:16Z</time>
      </trkpt>
      <trkpt lat="46.09545" lon="6.58479">
        <ele>658</ele>
        <time>2011-07-24T10:20:18Z</time>
      </trkpt>
      <trkpt lat="46.09539" lon="6.58491">
        <ele>658</ele>
        <time>2011-07-24T10:20:19Z</time>
      </trkpt>
      <trkpt lat="46.09533" lon="6.58502">
        <ele>658</ele>
        <time>2011-07-24T10:20:20Z</time>
      </trkpt>
      <trkpt lat="46.09529" lon="6.58515">
        <ele>658</ele>
        <time>2011-07-24T10:20:21Z</time>
      </trkpt>
      <trkpt lat="46.09526" lon="6.58527">
        <ele>658</ele>
        <time>2011-07-24T10:20:22Z</time>
      </trkpt>
      <trkpt lat="46.09524" lon="6.5855">
        <ele>658</ele>
        <time>2011-07-24T10:20:24Z</time>
      </trkpt>
      <trkpt lat="46.09526" lon="6.58568">
        <ele>658</ele>
        <time>2011-07-24T10:20:26Z</time>
      </trkpt>
      <trkpt lat="46.0953" lon="6.58587">
        <ele>658</ele>
        <time>2011-07-24T10:20:28Z</time>
      </trkpt>
      <trkpt lat="46.09537" lon="6.58603">
        <ele>658</ele>
        <time>2011-07-24T10:20:30Z</time>
      </trkpt>
      <trkpt lat="46.09544" lon="6.58614">
        <ele>658</ele>
        <time>2011-07-24T10:20:32Z</time>
      </trkpt>
      <trkpt lat="46.09553" lon="6.58621">
        <ele>658</ele>
        <time>2011-07-24T10:20:34Z</time>
      </trkpt>
      <trkpt lat="46.09562" lon="6.5863">
        <ele>652</ele>
        <time>2011-07-24T10:20:37Z</time>
      </trkpt>
      <trkpt lat="46.0957" lon="6.58622">
        <ele>652</ele>
        <time>2011-07-24T10:20:40Z</time>
      </trkpt>
      <trkpt lat="46.0958" lon="6.58615">
        <ele>652</ele>
        <time>2011-07-24T10:20:44Z</time>
      </trkpt>
      <trkpt lat="46.0959" lon="6.58605">
        <ele>652</ele>
        <time>2011-07-24T10:20:48Z</time>
      </trkpt>
      <trkpt lat="46.09599" lon="6.58597">
        <ele>652</ele>
        <time>2011-07-24T10:20:51Z</time>
      </trkpt>
      <trkpt lat="46.09611" lon="6.5859">
        <ele>652</ele>
        <time>2011-07-24T10:20:56Z</time>
      </trkpt>
      <trkpt lat="46.09618" lon="6.58579">
        <ele>646</ele>
        <time>2011-07-24T10:21:00Z</time>
      </trkpt>
      <trkpt lat="46.0963" lon="6.58577">
        <ele>640</ele>
        <time>2011-07-24T10:21:04Z</time>
      </trkpt>
      <trkpt lat="46.0964" lon="6.58581">
        <ele>640</ele>
        <time>2011-07-24T10:21:07Z</time>
      </trkpt>
      <trkpt lat="46.09651" lon="6.58579">
        <ele>640</ele>
        <time>2011-07-24T10:21:18Z</time>
      </trkpt>
      <trkpt lat="46.09661" lon="6.58586">
        <ele>632</ele>
        <time>2011-07-24T10:21:22Z</time>
      </trkpt>
      <trkpt lat="46.09669" lon="6.58596">
        <ele>626</ele>
        <time>2011-07-24T10:21:26Z</time>
      </trkpt>
      <trkpt lat="46.09678" lon="6.58612">
        <ele>626</ele>
        <time>2011-07-24T10:21:29Z</time>
      </trkpt>
      <trkpt lat="46.09679" lon="6.58629">
        <ele>626</ele>
        <time>2011-07-24T10:21:32Z</time>
      </trkpt>
      <trkpt lat="46.09678" lon="6.58643">
        <ele>626</ele>
        <time>2011-07-24T10:21:35Z</time>
      </trkpt>
      <trkpt lat="46.09679" lon="6.58656">
        <ele>631</ele>
        <time>2011-07-24T10:21:38Z</time>
      </trkpt>
      <trkpt lat="46.09677" lon="6.58674">
        <ele>631</ele>
        <time>2011-07-24T10:21:41Z</time>
      </trkpt>
      <trkpt lat="46.09674" lon="6.58691">
        <ele>631</ele>
        <time>2011-07-24T10:21:44Z</time>
      </trkpt>
      <trkpt lat="46.09676" lon="6.5871">
        <ele>631</ele>
        <time>2011-07-24T10:21:48Z</time>
      </trkpt>
      <trkpt lat="46.09681" lon="6.58727">
        <ele>631</ele>
        <time>2011-07-24T10:21:50Z</time>
      </trkpt>
      <trkpt lat="46.09682" lon="6.58749">
        <ele>631</ele>
        <time>2011-07-24T10:21:52Z</time>
      </trkpt>
      <trkpt lat="46.09686" lon="6.58769">
        <ele>631</ele>
        <time>2011-07-24T10:21:54Z</time>
      </trkpt>
      <trkpt lat="46.09686" lon="6.58789">
        <ele>631</ele>
        <time>2011-07-24T10:21:56Z</time>
      </trkpt>
      <trkpt lat="46.09687" lon="6.58802">
        <ele>631</ele>
        <time>2011-07-24T10:21:58Z</time>
      </trkpt>
      <trkpt lat="46.09684" lon="6.58819">
        <ele>631</ele>
        <time>2011-07-24T10:22:00Z</time>
      </trkpt>
      <trkpt lat="46.09682" lon="6.58841">
        <ele>631</ele>
        <time>2011-07-24T10:22:02Z</time>
      </trkpt>
      <trkpt lat="46.09683" lon="6.58876">
        <ele>631</ele>
        <time>2011-07-24T10:22:06Z</time>
      </trkpt>
      <trkpt lat="46.09689" lon="6.58887">
        <ele>631</ele>
        <time>2011-07-24T10:22:07Z</time>
      </trkpt>
      <trkpt lat="46.09691" lon="6.58902">
        <ele>631</ele>
        <time>2011-07-24T10:22:09Z</time>
      </trkpt>
      <trkpt lat="46.09693" lon="6.58916">
        <ele>631</ele>
        <time>2011-07-24T10:22:11Z</time>
      </trkpt>
      <trkpt lat="46.09689" lon="6.58933">
        <ele>631</ele>
        <time>2011-07-24T10:22:13Z</time>
      </trkpt>
      <trkpt lat="46.09684" lon="6.58948">
        <ele>631</ele>
        <time>2011-07-24T10:22:15Z</time>
      </trkpt>
      <trkpt lat="46.09678" lon="6.58964">
        <ele>631</ele>
        <time>2011-07-24T10:22:17Z</time>
      </trkpt>
      <trkpt lat="46.09674" lon="6.58978">
        <ele>631</ele>
        <time>2011-07-24T10:22:19Z</time>
      </trkpt>
      <trkpt lat="46.0968" lon="6.58991">
        <ele>631</ele>
        <time>2011-07-24T10:22:23Z</time>
      </trkpt>
      <trkpt lat="46.09693" lon="6.58987">
        <ele>631</ele>
        <time>2011-07-24T10:22:25Z</time>
      </trkpt>
      <trkpt lat="46.09712" lon="6.58986">
        <ele>631</ele>
        <time>2011-07-24T10:22:27Z</time>
      </trkpt>
      <trkpt lat="46.09723" lon="6.58987">
        <ele>631</ele>
        <time>2011-07-24T10:22:28Z</time>
      </trkpt>
      <trkpt lat="46.09734" lon="6.58989">
        <ele>631</ele>
        <time>2011-07-24T10:22:29Z</time>
      </trkpt>
      <trkpt lat="46.09746" lon="6.5899">
        <ele>631</ele>
        <time>2011-07-24T10:22:30Z</time>
      </trkpt>
      <trkpt lat="46.09757" lon="6.58992">
        <ele>631</ele>
        <time>2011-07-24T10:22:31Z</time>
      </trkpt>
      <trkpt lat="46.09769" lon="6.58992">
        <ele>631</ele>
        <time>2011-07-24T10:22:32Z</time>
      </trkpt>
      <trkpt lat="46.09782" lon="6.58994">
        <ele>631</ele>
        <time>2011-07-24T10:22:33Z</time>
      </trkpt>
      <trkpt lat="46.09794" lon="6.58995">
        <ele>631</ele>
        <time>2011-07-24T10:22:34Z</time>
      </trkpt>
      <trkpt lat="46.09806" lon="6.58997">
        <ele>631</ele>
        <time>2011-07-24T10:22:35Z</time>
      </trkpt>
      <trkpt lat="46.09818" lon="6.59">
        <ele>631</ele>
        <time>2011-07-24T10:22:36Z</time>
      </trkpt>
      <trkpt lat="46.09831" lon="6.59001">
        <ele>631</ele>
        <time>2011-07-24T10:22:37Z</time>
      </trkpt>
      <trkpt lat="46.09844" lon="6.59002">
        <ele>631</ele>
        <time>2011-07-24T10:22:38Z</time>
      </trkpt>
      <trkpt lat="46.09857" lon="6.59004">
        <ele>631</ele>
        <time>2011-07-24T10:22:39Z</time>
      </trkpt>
      <trkpt lat="46.09869" lon="6.59006">
        <ele>631</ele>
        <time>2011-07-24T10:22:40Z</time>
      </trkpt>
      <trkpt lat="46.09881" lon="6.59008">
        <ele>631</ele>
        <time>2011-07-24T10:22:41Z</time>
      </trkpt>
      <trkpt lat="46.09892" lon="6.59009">
        <ele>631</ele>
        <time>2011-07-24T10:22:42Z</time>
      </trkpt>
      <trkpt lat="46.09903" lon="6.5901">
        <ele>631</ele>
        <time>2011-07-24T10:22:43Z</time>
      </trkpt>
      <trkpt lat="46.09912" lon="6.59011">
        <ele>631</ele>
        <time>2011-07-24T10:22:44Z</time>
      </trkpt>
      <trkpt lat="46.09922" lon="6.59012">
        <ele>631</ele>
        <time>2011-07-24T10:22:45Z</time>
      </trkpt>
      <trkpt lat="46.09936" lon="6.59014">
        <ele>631</ele>
        <time>2011-07-24T10:22:47Z</time>
      </trkpt>
      <trkpt lat="46.09947" lon="6.59014">
        <ele>631</ele>
        <time>2011-07-24T10:22:49Z</time>
      </trkpt>
      <trkpt lat="46.09956" lon="6.59003">
        <ele>631</ele>
        <time>2011-07-24T10:22:54Z</time>
      </trkpt>
      <trkpt lat="46.09956" lon="6.58981">
        <ele>631</ele>
        <time>2011-07-24T10:22:56Z</time>
      </trkpt>
      <trkpt lat="46.09955" lon="6.58967">
        <ele>631</ele>
        <time>2011-07-24T10:22:57Z</time>
      </trkpt>
      <trkpt lat="46.09955" lon="6.58954">
        <ele>631</ele>
        <time>2011-07-24T10:22:58Z</time>
      </trkpt>
      <trkpt lat="46.09956" lon="6.58928">
        <ele>631</ele>
        <time>2011-07-24T10:23:00Z</time>
      </trkpt>
      <trkpt lat="46.09957" lon="6.58914">
        <ele>631</ele>
        <time>2011-07-24T10:23:01Z</time>
      </trkpt>
      <trkpt lat="46.09957" lon="6.58901">
        <ele>631</ele>
        <time>2011-07-24T10:23:02Z</time>
      </trkpt>
      <trkpt lat="46.09959" lon="6.58877">
        <ele>631</ele>
        <time>2011-07-24T10:23:04Z</time>
      </trkpt>
      <trkpt lat="46.09962" lon="6.58864">
        <ele>631</ele>
        <time>2011-07-24T10:23:06Z</time>
      </trkpt>
      <trkpt lat="46.09973" lon="6.58862">
        <ele>631</ele>
        <time>2011-07-24T10:23:08Z</time>
      </trkpt>
      <trkpt lat="46.09983" lon="6.58864">
        <ele>631</ele>
        <time>2011-07-24T10:23:09Z</time>
      </trkpt>
      <trkpt lat="46.09994" lon="6.58866">
        <ele>631</ele>
        <time>2011-07-24T10:23:10Z</time>
      </trkpt>
      <trkpt lat="46.10004" lon="6.58868">
        <ele>631</ele>
        <time>2011-07-24T10:23:11Z</time>
      </trkpt>
      <trkpt lat="46.10015" lon="6.5887">
        <ele>631</ele>
        <time>2011-07-24T10:23:12Z</time>
      </trkpt>
      <trkpt lat="46.10026" lon="6.58872">
        <ele>631</ele>
        <time>2011-07-24T10:23:13Z</time>
      </trkpt>
      <trkpt lat="46.10038" lon="6.58875">
        <ele>631</ele>
        <time>2011-07-24T10:23:14Z</time>
      </trkpt>
      <trkpt lat="46.10051" lon="6.58877">
        <ele>631</ele>
        <time>2011-07-24T10:23:15Z</time>
      </trkpt>
      <trkpt lat="46.10062" lon="6.58883">
        <ele>631</ele>
        <time>2011-07-24T10:23:16Z</time>
      </trkpt>
      <trkpt lat="46.10074" lon="6.58889">
        <ele>631</ele>
        <time>2011-07-24T10:23:17Z</time>
      </trkpt>
      <trkpt lat="46.10084" lon="6.58894">
        <ele>631</ele>
        <time>2011-07-24T10:23:18Z</time>
      </trkpt>
      <trkpt lat="46.10094" lon="6.58899">
        <ele>631</ele>
        <time>2011-07-24T10:23:19Z</time>
      </trkpt>
      <trkpt lat="46.10103" lon="6.58901">
        <ele>631</ele>
        <time>2011-07-24T10:23:20Z</time>
      </trkpt>
      <trkpt lat="46.1012" lon="6.58899">
        <ele>631</ele>
        <time>2011-07-24T10:23:22Z</time>
      </trkpt>
      <trkpt lat="46.10131" lon="6.58885">
        <ele>631</ele>
        <time>2011-07-24T10:23:24Z</time>
      </trkpt>
      <trkpt lat="46.10137" lon="6.58873">
        <ele>631</ele>
        <time>2011-07-24T10:23:25Z</time>
      </trkpt>
      <trkpt lat="46.10141" lon="6.58859">
        <ele>631</ele>
        <time>2011-07-24T10:23:26Z</time>
      </trkpt>
      <trkpt lat="46.10144" lon="6.58842">
        <ele>631</ele>
        <time>2011-07-24T10:23:27Z</time>
      </trkpt>
      <trkpt lat="46.10146" lon="6.58826">
        <ele>631</ele>
        <time>2011-07-24T10:23:28Z</time>
      </trkpt>
      <trkpt lat="46.10149" lon="6.5881">
        <ele>631</ele>
        <time>2011-07-24T10:23:29Z</time>
      </trkpt>
      <trkpt lat="46.10152" lon="6.58793">
        <ele>631</ele>
        <time>2011-07-24T10:23:30Z</time>
      </trkpt>
      <trkpt lat="46.10156" lon="6.5878">
        <ele>631</ele>
        <time>2011-07-24T10:23:31Z</time>
      </trkpt>
      <trkpt lat="46.10162" lon="6.58759">
        <ele>631</ele>
        <time>2011-07-24T10:23:33Z</time>
      </trkpt>
      <trkpt lat="46.10167" lon="6.5874">
        <ele>631</ele>
        <time>2011-07-24T10:23:35Z</time>
      </trkpt>
      <trkpt lat="46.10169" lon="6.58724">
        <ele>631</ele>
        <time>2011-07-24T10:23:37Z</time>
      </trkpt>
      <trkpt lat="46.10165" lon="6.58709">
        <ele>631</ele>
        <time>2011-07-24T10:23:39Z</time>
      </trkpt>
      <trkpt lat="46.10156" lon="6.5869">
        <ele>631</ele>
        <time>2011-07-24T10:23:41Z</time>
      </trkpt>
      <trkpt lat="46.10146" lon="6.5867">
        <ele>631</ele>
        <time>2011-07-24T10:23:43Z</time>
      </trkpt>
      <trkpt lat="46.10133" lon="6.58653">
        <ele>631</ele>
        <time>2011-07-24T10:23:45Z</time>
      </trkpt>
      <trkpt lat="46.10126" lon="6.58645">
        <ele>631</ele>
        <time>2011-07-24T10:23:46Z</time>
      </trkpt>
      <trkpt lat="46.10114" lon="6.58632">
        <ele>631</ele>
        <time>2011-07-24T10:23:48Z</time>
      </trkpt>
      <trkpt lat="46.10104" lon="6.58626">
        <ele>631</ele>
        <time>2011-07-24T10:23:50Z</time>
      </trkpt>
      <trkpt lat="46.101" lon="6.58612">
        <ele>631</ele>
        <time>2011-07-24T10:23:56Z</time>
      </trkpt>
      <trkpt lat="46.10107" lon="6.58602">
        <ele>631</ele>
        <time>2011-07-24T10:23:59Z</time>
      </trkpt>
      <trkpt lat="46.10113" lon="6.5859">
        <ele>631</ele>
        <time>2011-07-24T10:24:02Z</time>
      </trkpt>
      <trkpt lat="46.10121" lon="6.58581">
        <ele>631</ele>
        <time>2011-07-24T10:24:05Z</time>
      </trkpt>
      <trkpt lat="46.10116" lon="6.58568">
        <ele>631</ele>
        <time>2011-07-24T10:24:12Z</time>
      </trkpt>
      <trkpt lat="46.10108" lon="6.58559">
        <ele>631</ele>
        <time>2011-07-24T10:24:16Z</time>
      </trkpt>
      <trkpt lat="46.10099" lon="6.58555">
        <ele>631</ele>
        <time>2011-07-24T10:24:18Z</time>
      </trkpt>
      <trkpt lat="46.10089" lon="6.58551">
        <ele>631</ele>
        <time>2011-07-24T10:24:20Z</time>
      </trkpt>
      <trkpt lat="46.10078" lon="6.58549">
        <ele>631</ele>
        <time>2011-07-24T10:24:22Z</time>
      </trkpt>
      <trkpt lat="46.10069" lon="6.5854">
        <ele>631</ele>
        <time>2011-07-24T10:24:24Z</time>
      </trkpt>
      <trkpt lat="46.10059" lon="6.58529">
        <ele>631</ele>
        <time>2011-07-24T10:24:26Z</time>
      </trkpt>
      <trkpt lat="46.10051" lon="6.58519">
        <ele>631</ele>
        <time>2011-07-24T10:24:28Z</time>
      </trkpt>
      <trkpt lat="46.10039" lon="6.5851">
        <ele>631</ele>
        <time>2011-07-24T10:24:30Z</time>
      </trkpt>
      <trkpt lat="46.10027" lon="6.58506">
        <ele>631</ele>
        <time>2011-07-24T10:24:32Z</time>
      </trkpt>
      <trkpt lat="46.10017" lon="6.58505">
        <ele>631</ele>
        <time>2011-07-24T10:24:34Z</time>
      </trkpt>
      <trkpt lat="46.10003" lon="6.58505">
        <ele>631</ele>
        <time>2011-07-24T10:24:37Z</time>
      </trkpt>
      <trkpt lat="46.09992" lon="6.58505">
        <ele>626</ele>
        <time>2011-07-24T10:24:39Z</time>
      </trkpt>
      <trkpt lat="46.09979" lon="6.58502">
        <ele>626</ele>
        <time>2011-07-24T10:24:41Z</time>
      </trkpt>
      <trkpt lat="46.09967" lon="6.58494">
        <ele>626</ele>
        <time>2011-07-24T10:24:43Z</time>
      </trkpt>
      <trkpt lat="46.09957" lon="6.58481">
        <ele>626</ele>
        <time>2011-07-24T10:24:45Z</time>
      </trkpt>
      <trkpt lat="46.09948" lon="6.58464">
        <ele>626</ele>
        <time>2011-07-24T10:24:47Z</time>
      </trkpt>
      <trkpt lat="46.09939" lon="6.58445">
        <ele>626</ele>
        <time>2011-07-24T10:24:49Z</time>
      </trkpt>
      <trkpt lat="46.09932" lon="6.58427">
        <ele>626</ele>
        <time>2011-07-24T10:24:51Z</time>
      </trkpt>
      <trkpt lat="46.09926" lon="6.58407">
        <ele>626</ele>
        <time>2011-07-24T10:24:53Z</time>
      </trkpt>
      <trkpt lat="46.09922" lon="6.58383">
        <ele>626</ele>
        <time>2011-07-24T10:24:55Z</time>
      </trkpt>
      <trkpt lat="46.09917" lon="6.5836">
        <ele>626</ele>
        <time>2011-07-24T10:24:57Z</time>
      </trkpt>
      <trkpt lat="46.09911" lon="6.58341">
        <ele>626</ele>
        <time>2011-07-24T10:24:59Z</time>
      </trkpt>
      <trkpt lat="46.09904" lon="6.58328">
        <ele>626</ele>
        <time>2011-07-24T10:25:01Z</time>
      </trkpt>
      <trkpt lat="46.09901" lon="6.58313">
        <ele>626</ele>
        <time>2011-07-24T10:25:03Z</time>
      </trkpt>
      <trkpt lat="46.09899" lon="6.58299">
        <ele>626</ele>
        <time>2011-07-24T10:25:05Z</time>
      </trkpt>
      <trkpt lat="46.09901" lon="6.58277">
        <ele>626</ele>
        <time>2011-07-24T10:25:07Z</time>
      </trkpt>
      <trkpt lat="46.09908" lon="6.58256">
        <ele>626</ele>
        <time>2011-07-24T10:25:09Z</time>
      </trkpt>
      <trkpt lat="46.09915" lon="6.58235">
        <ele>626</ele>
        <time>2011-07-24T10:25:11Z</time>
      </trkpt>
      <trkpt lat="46.09921" lon="6.58216">
        <ele>626</ele>
        <time>2011-07-24T10:25:13Z</time>
      </trkpt>
      <trkpt lat="46.09934" lon="6.58207">
        <ele>626</ele>
        <time>2011-07-24T10:25:15Z</time>
      </trkpt>
      <trkpt lat="46.09946" lon="6.58199">
        <ele>626</ele>
        <time>2011-07-24T10:25:17Z</time>
      </trkpt>
      <trkpt lat="46.09962" lon="6.58193">
        <ele>626</ele>
        <time>2011-07-24T10:25:19Z</time>
      </trkpt>
      <trkpt lat="46.09977" lon="6.58188">
        <ele>626</ele>
        <time>2011-07-24T10:25:21Z</time>
      </trkpt>
      <trkpt lat="46.09994" lon="6.58188">
        <ele>626</ele>
        <time>2011-07-24T10:25:23Z</time>
      </trkpt>
      <trkpt lat="46.10009" lon="6.58192">
        <ele>626</ele>
        <time>2011-07-24T10:25:25Z</time>
      </trkpt>
      <trkpt lat="46.10024" lon="6.58201">
        <ele>626</ele>
        <time>2011-07-24T10:25:27Z</time>
      </trkpt>
      <trkpt lat="46.10032" lon="6.58207">
        <ele>626</ele>
        <time>2011-07-24T10:25:28Z</time>
      </trkpt>
      <trkpt lat="46.10041" lon="6.58213">
        <ele>626</ele>
        <time>2011-07-24T10:25:29Z</time>
      </trkpt>
      <trkpt lat="46.1005" lon="6.58216">
        <ele>626</ele>
        <time>2011-07-24T10:25:30Z</time>
      </trkpt>
      <trkpt lat="46.10062" lon="6.5822">
        <ele>626</ele>
        <time>2011-07-24T10:25:32Z</time>
      </trkpt>
      <trkpt lat="46.10077" lon="6.58214">
        <ele>626</ele>
        <time>2011-07-24T10:25:35Z</time>
      </trkpt>
      <trkpt lat="46.10086" lon="6.58195">
        <ele>626</ele>
        <time>2011-07-24T10:25:37Z</time>
      </trkpt>
      <trkpt lat="46.10093" lon="6.58178">
        <ele>626</ele>
        <time>2011-07-24T10:25:39Z</time>
      </trkpt>
      <trkpt lat="46.10101" lon="6.58163">
        <ele>626</ele>
        <time>2011-07-24T10:25:41Z</time>
      </trkpt>
      <trkpt lat="46.10111" lon="6.58153">
        <ele>626</ele>
        <time>2011-07-24T10:25:43Z</time>
      </trkpt>
      <trkpt lat="46.10123" lon="6.58143">
        <ele>626</ele>
        <time>2011-07-24T10:25:45Z</time>
      </trkpt>
      <trkpt lat="46.10138" lon="6.58134">
        <ele>626</ele>
        <time>2011-07-24T10:25:47Z</time>
      </trkpt>
      <trkpt lat="46.10147" lon="6.58129">
        <ele>626</ele>
        <time>2011-07-24T10:25:48Z</time>
      </trkpt>
      <trkpt lat="46.10156" lon="6.58126">
        <ele>626</ele>
        <time>2011-07-24T10:25:49Z</time>
      </trkpt>
      <trkpt lat="46.10172" lon="6.58117">
        <ele>626</ele>
        <time>2011-07-24T10:25:51Z</time>
      </trkpt>
      <trkpt lat="46.10186" lon="6.58104">
        <ele>626</ele>
        <time>2011-07-24T10:25:53Z</time>
      </trkpt>
      <trkpt lat="46.10198" lon="6.58096">
        <ele>626</ele>
        <time>2011-07-24T10:25:55Z</time>
      </trkpt>
      <trkpt lat="46.10214" lon="6.5809">
        <ele>626</ele>
        <time>2011-07-24T10:25:57Z</time>
      </trkpt>
      <trkpt lat="46.10223" lon="6.58084">
        <ele>626</ele>
        <time>2011-07-24T10:25:58Z</time>
      </trkpt>
      <trkpt lat="46.10232" lon="6.58079">
        <ele>626</ele>
        <time>2011-07-24T10:25:59Z</time>
      </trkpt>
      <trkpt lat="46.1024" lon="6.58071">
        <ele>626</ele>
        <time>2011-07-24T10:26:00Z</time>
      </trkpt>
      <trkpt lat="46.10248" lon="6.58063">
        <ele>626</ele>
        <time>2011-07-24T10:26:01Z</time>
      </trkpt>
      <trkpt lat="46.10256" lon="6.58054">
        <ele>626</ele>
        <time>2011-07-24T10:26:02Z</time>
      </trkpt>
      <trkpt lat="46.10264" lon="6.58045">
        <ele>626</ele>
        <time>2011-07-24T10:26:03Z</time>
      </trkpt>
      <trkpt lat="46.10271" lon="6.58036">
        <ele>626</ele>
        <time>2011-07-24T10:26:04Z</time>
      </trkpt>
      <trkpt lat="46.10279" lon="6.58028">
        <ele>626</ele>
        <time>2011-07-24T10:26:05Z</time>
      </trkpt>
      <trkpt lat="46.10285" lon="6.58016">
        <ele>626</ele>
        <time>2011-07-24T10:26:06Z</time>
      </trkpt>
      <trkpt lat="46.10296" lon="6.57996">
        <ele>626</ele>
        <time>2011-07-24T10:26:08Z</time>
      </trkpt>
      <trkpt lat="46.10307" lon="6.57974">
        <ele>626</ele>
        <time>2011-07-24T10:26:10Z</time>
      </trkpt>
      <trkpt lat="46.10313" lon="6.57961">
        <ele>626</ele>
        <time>2011-07-24T10:26:11Z</time>
      </trkpt>
      <trkpt lat="46.10318" lon="6.5795">
        <ele>626</ele>
        <time>2011-07-24T10:26:12Z</time>
      </trkpt>
      <trkpt lat="46.10322" lon="6.57936">
        <ele>626</ele>
        <time>2011-07-24T10:26:13Z</time>
      </trkpt>
      <trkpt lat="46.10326" lon="6.57923">
        <ele>626</ele>
        <time>2011-07-24T10:26:14Z</time>
      </trkpt>
      <trkpt lat="46.10329" lon="6.57911">
        <ele>626</ele>
        <time>2011-07-24T10:26:15Z</time>
      </trkpt>
      <trkpt lat="46.10333" lon="6.57898">
        <ele>626</ele>
        <time>2011-07-24T10:26:16Z</time>
      </trkpt>
      <trkpt lat="46.10338" lon="6.57886">
        <ele>626</ele>
        <time>2011-07-24T10:26:17Z</time>
      </trkpt>
      <trkpt lat="46.10342" lon="6.57872">
        <ele>626</ele>
        <time>2011-07-24T10:26:18Z</time>
      </trkpt>
      <trkpt lat="46.10351" lon="6.57852">
        <ele>626</ele>
        <time>2011-07-24T10:26:20Z</time>
      </trkpt>
      <trkpt lat="46.10357" lon="6.57832">
        <ele>626</ele>
        <time>2011-07-24T10:26:22Z</time>
      </trkpt>
      <trkpt lat="46.10366" lon="6.57814">
        <ele>626</ele>
        <time>2011-07-24T10:26:24Z</time>
      </trkpt>
      <trkpt lat="46.10377" lon="6.578">
        <ele>626</ele>
        <time>2011-07-24T10:26:26Z</time>
      </trkpt>
      <trkpt lat="46.10391" lon="6.578">
        <ele>626</ele>
        <time>2011-07-24T10:26:28Z</time>
      </trkpt>
      <trkpt lat="46.10408" lon="6.57808">
        <ele>626</ele>
        <time>2011-07-24T10:26:30Z</time>
      </trkpt>
      <trkpt lat="46.10418" lon="6.57814">
        <ele>626</ele>
        <time>2011-07-24T10:26:31Z</time>
      </trkpt>
      <trkpt lat="46.10428" lon="6.5782">
        <ele>626</ele>
        <time>2011-07-24T10:26:32Z</time>
      </trkpt>
      <trkpt lat="46.10439" lon="6.57826">
        <ele>626</ele>
        <time>2011-07-24T10:26:33Z</time>
      </trkpt>
      <trkpt lat="46.10448" lon="6.57833">
        <ele>626</ele>
        <time>2011-07-24T10:26:34Z</time>
      </trkpt>
      <trkpt lat="46.10458" lon="6.57839">
        <ele>626</ele>
        <time>2011-07-24T10:26:35Z</time>
      </trkpt>
      <trkpt lat="46.10467" lon="6.57844">
        <ele>626</ele>
        <time>2011-07-24T10:26:36Z</time>
      </trkpt>
      <trkpt lat="46.10475" lon="6.5785">
        <ele>626</ele>
        <time>2011-07-24T10:26:37Z</time>
      </trkpt>
      <trkpt lat="46.10485" lon="6.57856">
        <ele>626</ele>
        <time>2011-07-24T10:26:38Z</time>
      </trkpt>
      <trkpt lat="46.10494" lon="6.57861">
        <ele>626</ele>
        <time>2011-07-24T10:26:39Z</time>
      </trkpt>
      <trkpt lat="46.10504" lon="6.57866">
        <ele>626</ele>
        <time>2011-07-24T10:26:40Z</time>
      </trkpt>
      <trkpt lat="46.10513" lon="6.57872">
        <ele>626</ele>
        <time>2011-07-24T10:26:41Z</time>
      </trkpt>
      <trkpt lat="46.10522" lon="6.57877">
        <ele>626</ele>
        <time>2011-07-24T10:26:42Z</time>
      </trkpt>
      <trkpt lat="46.10539" lon="6.57887">
        <ele>626</ele>
        <time>2011-07-24T10:26:44Z</time>
      </trkpt>
      <trkpt lat="46.10554" lon="6.57894">
        <ele>626</ele>
        <time>2011-07-24T10:26:46Z</time>
      </trkpt>
      <trkpt lat="46.1057" lon="6.57895">
        <ele>626</ele>
        <time>2011-07-24T10:26:48Z</time>
      </trkpt>
      <trkpt lat="46.10585" lon="6.57888">
        <ele>626</ele>
        <time>2011-07-24T10:26:50Z</time>
      </trkpt>
      <trkpt lat="46.10595" lon="6.57873">
        <ele>633</ele>
        <time>2011-07-24T10:26:52Z</time>
      </trkpt>
      <trkpt lat="46.10606" lon="6.57854">
        <ele>633</ele>
        <time>2011-07-24T10:26:54Z</time>
      </trkpt>
      <trkpt lat="46.10616" lon="6.57836">
        <ele>633</ele>
        <time>2011-07-24T10:26:56Z</time>
      </trkpt>
      <trkpt lat="46.10624" lon="6.57815">
        <ele>633</ele>
        <time>2011-07-24T10:26:58Z</time>
      </trkpt>
      <trkpt lat="46.10629" lon="6.57802">
        <ele>633</ele>
        <time>2011-07-24T10:26:59Z</time>
      </trkpt>
      <trkpt lat="46.10632" lon="6.5779">
        <ele>633</ele>
        <time>2011-07-24T10:27:00Z</time>
      </trkpt>
      <trkpt lat="46.10638" lon="6.57766">
        <ele>633</ele>
        <time>2011-07-24T10:27:02Z</time>
      </trkpt>
      <trkpt lat="46.1064" lon="6.57754">
        <ele>633</ele>
        <time>2011-07-24T10:27:03Z</time>
      </trkpt>
      <trkpt lat="46.10648" lon="6.57729">
        <ele>633</ele>
        <time>2011-07-24T10:27:05Z</time>
      </trkpt>
      <trkpt lat="46.10652" lon="6.57716">
        <ele>633</ele>
        <time>2011-07-24T10:27:06Z</time>
      </trkpt>
      <trkpt lat="46.10657" lon="6.57703">
        <ele>633</ele>
        <time>2011-07-24T10:27:07Z</time>
      </trkpt>
      <trkpt lat="46.1066" lon="6.57691">
        <ele>633</ele>
        <time>2011-07-24T10:27:08Z</time>
      </trkpt>
      <trkpt lat="46.10667" lon="6.57667">
        <ele>633</ele>
        <time>2011-07-24T10:27:10Z</time>
      </trkpt>
      <trkpt lat="46.10672" lon="6.57656">
        <ele>633</ele>
        <time>2011-07-24T10:27:11Z</time>
      </trkpt>
      <trkpt lat="46.10677" lon="6.57643">
        <ele>633</ele>
        <time>2011-07-24T10:27:12Z</time>
      </trkpt>
      <trkpt lat="46.10682" lon="6.5763">
        <ele>633</ele>
        <time>2011-07-24T10:27:13Z</time>
      </trkpt>
      <trkpt lat="46.10687" lon="6.57616">
        <ele>633</ele>
        <time>2011-07-24T10:27:14Z</time>
      </trkpt>
      <trkpt lat="46.10692" lon="6.57604">
        <ele>633</ele>
        <time>2011-07-24T10:27:15Z</time>
      </trkpt>
      <trkpt lat="46.10697" lon="6.57591">
        <ele>633</ele>
        <time>2011-07-24T10:27:16Z</time>
      </trkpt>
      <trkpt lat="46.10702" lon="6.57577">
        <ele>633</ele>
        <time>2011-07-24T10:27:17Z</time>
      </trkpt>
      <trkpt lat="46.10707" lon="6.57564">
        <ele>633</ele>
        <time>2011-07-24T10:27:18Z</time>
      </trkpt>
      <trkpt lat="46.10712" lon="6.57552">
        <ele>633</ele>
        <time>2011-07-24T10:27:19Z</time>
      </trkpt>
      <trkpt lat="46.10716" lon="6.57538">
        <ele>633</ele>
        <time>2011-07-24T10:27:20Z</time>
      </trkpt>
      <trkpt lat="46.1072" lon="6.57525">
        <ele>633</ele>
        <time>2011-07-24T10:27:21Z</time>
      </trkpt>
      <trkpt lat="46.10725" lon="6.57511">
        <ele>633</ele>
        <time>2011-07-24T10:27:22Z</time>
      </trkpt>
      <trkpt lat="46.1073" lon="6.57496">
        <ele>627</ele>
        <time>2011-07-24T10:27:23Z</time>
      </trkpt>
      <trkpt lat="46.10734" lon="6.57481">
        <ele>627</ele>
        <time>2011-07-24T10:27:24Z</time>
      </trkpt>
      <trkpt lat="46.10739" lon="6.57465">
        <ele>627</ele>
        <time>2011-07-24T10:27:25Z</time>
      </trkpt>
      <trkpt lat="46.10744" lon="6.5745">
        <ele>627</ele>
        <time>2011-07-24T10:27:26Z</time>
      </trkpt>
      <trkpt lat="46.1075" lon="6.57435">
        <ele>627</ele>
        <time>2011-07-24T10:27:27Z</time>
      </trkpt>
      <trkpt lat="46.10757" lon="6.5742">
        <ele>627</ele>
        <time>2011-07-24T10:27:28Z</time>
      </trkpt>
      <trkpt lat="46.10763" lon="6.57404">
        <ele>627</ele>
        <time>2011-07-24T10:27:29Z</time>
      </trkpt>
      <trkpt lat="46.10769" lon="6.57388">
        <ele>627</ele>
        <time>2011-07-24T10:27:30Z</time>
      </trkpt>
      <trkpt lat="46.10775" lon="6.57375">
        <ele>627</ele>
        <time>2011-07-24T10:27:31Z</time>
      </trkpt>
      <trkpt lat="46.10781" lon="6.57362">
        <ele>627</ele>
        <time>2011-07-24T10:27:32Z</time>
      </trkpt>
      <trkpt lat="46.10786" lon="6.5735">
        <ele>627</ele>
        <time>2011-07-24T10:27:33Z</time>
      </trkpt>
      <trkpt lat="46.10796" lon="6.5733">
        <ele>627</ele>
        <time>2011-07-24T10:27:35Z</time>
      </trkpt>
      <trkpt lat="46.10804" lon="6.57313">
        <ele>627</ele>
        <time>2011-07-24T10:27:37Z</time>
      </trkpt>
      <trkpt lat="46.10812" lon="6.57303">
        <ele>627</ele>
        <time>2011-07-24T10:27:39Z</time>
      </trkpt>
      <trkpt lat="46.10824" lon="6.57302">
        <ele>627</ele>
        <time>2011-07-24T10:27:42Z</time>
      </trkpt>
      <trkpt lat="46.10834" lon="6.57302">
        <ele>627</ele>
        <time>2011-07-24T10:27:46Z</time>
      </trkpt>
      <trkpt lat="46.10847" lon="6.57291">
        <ele>627</ele>
        <time>2011-07-24T10:27:54Z</time>
      </trkpt>
      <trkpt lat="46.10858" lon="6.57283">
        <ele>627</ele>
        <time>2011-07-24T10:27:56Z</time>
      </trkpt>
      <trkpt lat="46.10872" lon="6.57277">
        <ele>627</ele>
        <time>2011-07-24T10:27:58Z</time>
      </trkpt>
      <trkpt lat="46.10883" lon="6.57267">
        <ele>627</ele>
        <time>2011-07-24T10:28:00Z</time>
      </trkpt>
      <trkpt lat="46.10888" lon="6.57252">
        <ele>627</ele>
        <time>2011-07-24T10:28:02Z</time>
      </trkpt>
      <trkpt lat="46.10891" lon="6.57239">
        <ele>627</ele>
        <time>2011-07-24T10:28:04Z</time>
      </trkpt>
      <trkpt lat="46.109" lon="6.57233">
        <ele>627</ele>
        <time>2011-07-24T10:28:07Z</time>
      </trkpt>
      <trkpt lat="46.1091" lon="6.57221">
        <ele>627</ele>
        <time>2011-07-24T10:28:10Z</time>
      </trkpt>
      <trkpt lat="46.1092" lon="6.57209">
        <ele>627</ele>
        <time>2011-07-24T10:28:13Z</time>
      </trkpt>
      <trkpt lat="46.10932" lon="6.572">
        <ele>633</ele>
        <time>2011-07-24T10:28:16Z</time>
      </trkpt>
      <trkpt lat="46.1094" lon="6.57192">
        <ele>633</ele>
        <time>2011-07-24T10:28:18Z</time>
      </trkpt>
      <trkpt lat="46.10949" lon="6.57181">
        <ele>633</ele>
        <time>2011-07-24T10:28:20Z</time>
      </trkpt>
      <trkpt lat="46.10958" lon="6.57169">
        <ele>633</ele>
        <time>2011-07-24T10:28:22Z</time>
      </trkpt>
      <trkpt lat="46.10966" lon="6.57157">
        <ele>633</ele>
        <time>2011-07-24T10:28:24Z</time>
      </trkpt>
      <trkpt lat="46.10969" lon="6.57143">
        <ele>638</ele>
        <time>2011-07-24T10:28:28Z</time>
      </trkpt>
      <trkpt lat="46.10978" lon="6.57136">
        <ele>638</ele>
        <time>2011-07-24T10:28:33Z</time>
      </trkpt>
      <trkpt lat="46.10988" lon="6.57133">
        <ele>651</ele>
        <time>2011-07-24T10:28:37Z</time>
      </trkpt>
      <trkpt lat="46.10998" lon="6.57133">
        <ele>651</ele>
        <time>2011-07-24T10:28:39Z</time>
      </trkpt>
      <trkpt lat="46.11009" lon="6.57127">
        <ele>657</ele>
        <time>2011-07-24T10:28:41Z</time>
      </trkpt>
      <trkpt lat="46.11021" lon="6.57117">
        <ele>657</ele>
        <time>2011-07-24T10:28:43Z</time>
      </trkpt>
      <trkpt lat="46.11033" lon="6.57104">
        <ele>657</ele>
        <time>2011-07-24T10:28:45Z</time>
      </trkpt>
      <trkpt lat="46.11042" lon="6.57089">
        <ele>657</ele>
        <time>2011-07-24T10:28:47Z</time>
      </trkpt>
      <trkpt lat="46.11048" lon="6.57077">
        <ele>663</ele>
        <time>2011-07-24T10:28:49Z</time>
      </trkpt>
      <trkpt lat="46.11058" lon="6.57075">
        <ele>663</ele>
        <time>2011-07-24T10:28:54Z</time>
      </trkpt>
      <trkpt lat="46.1107" lon="6.57072">
        <ele>663</ele>
        <time>2011-07-24T10:28:58Z</time>
      </trkpt>
      <trkpt lat="46.1108" lon="6.57061">
        <ele>669</ele>
        <time>2011-07-24T10:29:01Z</time>
      </trkpt>
      <trkpt lat="46.1109" lon="6.57052">
        <ele>669</ele>
        <time>2011-07-24T10:29:04Z</time>
      </trkpt>
      <trkpt lat="46.11102" lon="6.57047">
        <ele>675</ele>
        <time>2011-07-24T10:29:07Z</time>
      </trkpt>
      <trkpt lat="46.11112" lon="6.57041">
        <ele>675</ele>
        <time>2011-07-24T10:29:09Z</time>
      </trkpt>
      <trkpt lat="46.11122" lon="6.57035">
        <ele>684</ele>
        <time>2011-07-24T10:29:11Z</time>
      </trkpt>
      <trkpt lat="46.11133" lon="6.57028">
        <ele>684</ele>
        <time>2011-07-24T10:29:13Z</time>
      </trkpt>
      <trkpt lat="46.11137" lon="6.57015">
        <ele>701</ele>
        <time>2011-07-24T10:29:20Z</time>
      </trkpt>
      <trkpt lat="46.11145" lon="6.57006">
        <ele>701</ele>
        <time>2011-07-24T10:29:23Z</time>
      </trkpt>
      <trkpt lat="46.11156" lon="6.56997">
        <ele>707</ele>
        <time>2011-07-24T10:29:26Z</time>
      </trkpt>
      <trkpt lat="46.11166" lon="6.56986">
        <ele>707</ele>
        <time>2011-07-24T10:29:29Z</time>
      </trkpt>
      <trkpt lat="46.11175" lon="6.56978">
        <ele>714</ele>
        <time>2011-07-24T10:29:32Z</time>
      </trkpt>
      <trkpt lat="46.11184" lon="6.56979">
        <ele>714</ele>
        <time>2011-07-24T10:30:28Z</time>
      </trkpt>
      <trkpt lat="46.11193" lon="6.5698">
        <ele>722</ele>
        <time>2011-07-24T10:30:35Z</time>
      </trkpt>
      <trkpt lat="46.11203" lon="6.56972">
        <ele>722</ele>
        <time>2011-07-24T10:30:39Z</time>
      </trkpt>
      <trkpt lat="46.11213" lon="6.56968">
        <ele>722</ele>
        <time>2011-07-24T10:30:42Z</time>
      </trkpt>
      <trkpt lat="46.11222" lon="6.56958">
        <ele>716</ele>
        <time>2011-07-24T10:30:47Z</time>
      </trkpt>
      <trkpt lat="46.1123" lon="6.56948">
        <ele>716</ele>
        <time>2011-07-24T10:30:51Z</time>
      </trkpt>
      <trkpt lat="46.11222" lon="6.56939">
        <ele>746</ele>
        <time>2011-07-24T10:33:27Z</time>
      </trkpt>
      <trkpt lat="46.11231" lon="6.56944">
        <ele>714</ele>
        <time>2011-07-24T10:34:26Z</time>
      </trkpt>
      <trkpt lat="46.11239" lon="6.56953">
        <ele>679</ele>
        <time>2011-07-24T10:35:56Z</time>
      </trkpt>
      <trkpt lat="46.11231" lon="6.56945">
        <ele>710</ele>
        <time>2011-07-24T10:36:47Z</time>
      </trkpt>
      <trkpt lat="46.11223" lon="6.56939">
        <ele>740</ele>
        <time>2011-07-24T10:37:27Z</time>
      </trkpt>
      <trkpt lat="46.1123" lon="6.56948">
        <ele>715</ele>
        <time>2011-07-24T10:38:33Z</time>
      </trkpt>
      <trkpt lat="46.11226" lon="6.56935">
        <ele>733</ele>
        <time>2011-07-24T10:45:21Z</time>
      </trkpt>
      <trkpt lat="46.11216" lon="6.56937">
        <ele>770</ele>
        <time>2011-07-24T10:45:37Z</time>
      </trkpt>
      <trkpt lat="46.11226" lon="6.56937">
        <ele>750</ele>
        <time>2011-07-24T10:46:26Z</time>
      </trkpt>
      <trkpt lat="46.11236" lon="6.5693">
        <ele>750</ele>
        <time>2011-07-24T10:46:29Z</time>
      </trkpt>
      <trkpt lat="46.11247" lon="6.56925">
        <ele>744</ele>
        <time>2011-07-24T10:46:32Z</time>
      </trkpt>
      <trkpt lat="46.11259" lon="6.56925">
        <ele>744</ele>
        <time>2011-07-24T10:46:34Z</time>
      </trkpt>
      <trkpt lat="46.1127" lon="6.56923">
        <ele>737</ele>
        <time>2011-07-24T10:46:36Z</time>
      </trkpt>
      <trkpt lat="46.1128" lon="6.56924">
        <ele>737</ele>
        <time>2011-07-24T10:46:38Z</time>
      </trkpt>
      <trkpt lat="46.1129" lon="6.56933">
        <ele>737</ele>
        <time>2011-07-24T10:46:40Z</time>
      </trkpt>
      <trkpt lat="46.11301" lon="6.56943">
        <ele>737</ele>
        <time>2011-07-24T10:46:42Z</time>
      </trkpt>
      <trkpt lat="46.11313" lon="6.56946">
        <ele>737</ele>
        <time>2011-07-24T10:46:44Z</time>
      </trkpt>
      <trkpt lat="46.11323" lon="6.56949">
        <ele>737</ele>
        <time>2011-07-24T10:46:46Z</time>
      </trkpt>
      <trkpt lat="46.11335" lon="6.5695">
        <ele>737</ele>
        <time>2011-07-24T10:46:48Z</time>
      </trkpt>
      <trkpt lat="46.11346" lon="6.56952">
        <ele>737</ele>
        <time>2011-07-24T10:46:50Z</time>
      </trkpt>
      <trkpt lat="46.11356" lon="6.56954">
        <ele>737</ele>
        <time>2011-07-24T10:46:52Z</time>
      </trkpt>
      <trkpt lat="46.11367" lon="6.56951">
        <ele>737</ele>
        <time>2011-07-24T10:46:54Z</time>
      </trkpt>
      <trkpt lat="46.11381" lon="6.56948">
        <ele>737</ele>
        <time>2011-07-24T10:46:56Z</time>
      </trkpt>
      <trkpt lat="46.11395" lon="6.56945">
        <ele>737</ele>
        <time>2011-07-24T10:46:58Z</time>
      </trkpt>
      <trkpt lat="46.11406" lon="6.56935">
        <ele>743</ele>
        <time>2011-07-24T10:47:00Z</time>
      </trkpt>
      <trkpt lat="46.11416" lon="6.56928">
        <ele>743</ele>
        <time>2011-07-24T10:47:02Z</time>
      </trkpt>
      <trkpt lat="46.11428" lon="6.56924">
        <ele>743</ele>
        <time>2011-07-24T10:47:04Z</time>
      </trkpt>
      <trkpt lat="46.1144" lon="6.56914">
        <ele>743</ele>
        <time>2011-07-24T10:47:06Z</time>
      </trkpt>
      <trkpt lat="46.11449" lon="6.56906">
        <ele>751</ele>
        <time>2011-07-24T10:47:10Z</time>
      </trkpt>
      <trkpt lat="46.11458" lon="6.56913">
        <ele>751</ele>
        <time>2011-07-24T10:47:15Z</time>
      </trkpt>
      <trkpt lat="46.11466" lon="6.5692">
        <ele>751</ele>
        <time>2011-07-24T10:47:26Z</time>
      </trkpt>
      <trkpt lat="46.11462" lon="6.56934">
        <ele>757</ele>
        <time>2011-07-24T10:47:34Z</time>
      </trkpt>
      <trkpt lat="46.11457" lon="6.56949">
        <ele>757</ele>
        <time>2011-07-24T10:47:36Z</time>
      </trkpt>
      <trkpt lat="46.11452" lon="6.56965">
        <ele>757</ele>
        <time>2011-07-24T10:47:38Z</time>
      </trkpt>
      <trkpt lat="46.11448" lon="6.56982">
        <ele>757</ele>
        <time>2011-07-24T10:47:41Z</time>
      </trkpt>
      <trkpt lat="46.11446" lon="6.56995">
        <ele>757</ele>
        <time>2011-07-24T10:47:43Z</time>
      </trkpt>
      <trkpt lat="46.11441" lon="6.57006">
        <ele>757</ele>
        <time>2011-07-24T10:47:45Z</time>
      </trkpt>
      <trkpt lat="46.11433" lon="6.57013">
        <ele>757</ele>
        <time>2011-07-24T10:47:47Z</time>
      </trkpt>
      <trkpt lat="46.11426" lon="6.57031">
        <ele>750</ele>
        <time>2011-07-24T10:47:50Z</time>
      </trkpt>
      <trkpt lat="46.11431" lon="6.57049">
        <ele>750</ele>
        <time>2011-07-24T10:47:53Z</time>
      </trkpt>
      <trkpt lat="46.11437" lon="6.5706">
        <ele>750</ele>
        <time>2011-07-24T10:47:55Z</time>
      </trkpt>
      <trkpt lat="46.11443" lon="6.57072">
        <ele>744</ele>
        <time>2011-07-24T10:47:57Z</time>
      </trkpt>
      <trkpt lat="46.11446" lon="6.57089">
        <ele>744</ele>
        <time>2011-07-24T10:47:59Z</time>
      </trkpt>
      <trkpt lat="46.1145" lon="6.57104">
        <ele>744</ele>
        <time>2011-07-24T10:48:01Z</time>
      </trkpt>
      <trkpt lat="46.11456" lon="6.57118">
        <ele>744</ele>
        <time>2011-07-24T10:48:04Z</time>
      </trkpt>
      <trkpt lat="46.11465" lon="6.57126">
        <ele>736</ele>
        <time>2011-07-24T10:48:07Z</time>
      </trkpt>
      <trkpt lat="46.11473" lon="6.57138">
        <ele>736</ele>
        <time>2011-07-24T10:48:10Z</time>
      </trkpt>
      <trkpt lat="46.11478" lon="6.5715">
        <ele>736</ele>
        <time>2011-07-24T10:48:13Z</time>
      </trkpt>
      <trkpt lat="46.11476" lon="6.57168">
        <ele>736</ele>
        <time>2011-07-24T10:48:18Z</time>
      </trkpt>
      <trkpt lat="46.11467" lon="6.57177">
        <ele>736</ele>
        <time>2011-07-24T10:48:20Z</time>
      </trkpt>
      <trkpt lat="46.11471" lon="6.57193">
        <ele>736</ele>
        <time>2011-07-24T10:48:35Z</time>
      </trkpt>
      <trkpt lat="46.11482" lon="6.57199">
        <ele>736</ele>
        <time>2011-07-24T10:48:37Z</time>
      </trkpt>
      <trkpt lat="46.11495" lon="6.57208">
        <ele>736</ele>
        <time>2011-07-24T10:48:39Z</time>
      </trkpt>
      <trkpt lat="46.11509" lon="6.57213">
        <ele>736</ele>
        <time>2011-07-24T10:48:41Z</time>
      </trkpt>
      <trkpt lat="46.11518" lon="6.57214">
        <ele>736</ele>
        <time>2011-07-24T10:48:42Z</time>
      </trkpt>
      <trkpt lat="46.11529" lon="6.57208">
        <ele>736</ele>
        <time>2011-07-24T10:48:44Z</time>
      </trkpt>
      <trkpt lat="46.11542" lon="6.57198">
        <ele>736</ele>
        <time>2011-07-24T10:48:46Z</time>
      </trkpt>
      <trkpt lat="46.11554" lon="6.5719">
        <ele>736</ele>
        <time>2011-07-24T10:48:48Z</time>
      </trkpt>
      <trkpt lat="46.11567" lon="6.57183">
        <ele>736</ele>
        <time>2011-07-24T10:48:50Z</time>
      </trkpt>
      <trkpt lat="46.11577" lon="6.5717">
        <ele>736</ele>
        <time>2011-07-24T10:48:52Z</time>
      </trkpt>
      <trkpt lat="46.11584" lon="6.57151">
        <ele>736</ele>
        <time>2011-07-24T10:48:54Z</time>
      </trkpt>
      <trkpt lat="46.11589" lon="6.57131">
        <ele>736</ele>
        <time>2011-07-24T10:48:56Z</time>
      </trkpt>
      <trkpt lat="46.11592" lon="6.57112">
        <ele>744</ele>
        <time>2011-07-24T10:48:58Z</time>
      </trkpt>
      <trkpt lat="46.11599" lon="6.57092">
        <ele>744</ele>
        <time>2011-07-24T10:49:00Z</time>
      </trkpt>
      <trkpt lat="46.1161" lon="6.5707">
        <ele>751</ele>
        <time>2011-07-24T10:49:02Z</time>
      </trkpt>
      <trkpt lat="46.11617" lon="6.57058">
        <ele>751</ele>
        <time>2011-07-24T10:49:03Z</time>
      </trkpt>
      <trkpt lat="46.11624" lon="6.57049">
        <ele>751</ele>
        <time>2011-07-24T10:49:04Z</time>
      </trkpt>
      <trkpt lat="46.1164" lon="6.57033">
        <ele>758</ele>
        <time>2011-07-24T10:49:06Z</time>
      </trkpt>
      <trkpt lat="46.11655" lon="6.57018">
        <ele>758</ele>
        <time>2011-07-24T10:49:08Z</time>
      </trkpt>
      <trkpt lat="46.11663" lon="6.57011">
        <ele>758</ele>
        <time>2011-07-24T10:49:09Z</time>
      </trkpt>
      <trkpt lat="46.11677" lon="6.56998">
        <ele>758</ele>
        <time>2011-07-24T10:49:11Z</time>
      </trkpt>
      <trkpt lat="46.1169" lon="6.56984">
        <ele>765</ele>
        <time>2011-07-24T10:49:13Z</time>
      </trkpt>
      <trkpt lat="46.11698" lon="6.56976">
        <ele>765</ele>
        <time>2011-07-24T10:49:14Z</time>
      </trkpt>
      <trkpt lat="46.11706" lon="6.56968">
        <ele>765</ele>
        <time>2011-07-24T10:49:15Z</time>
      </trkpt>
      <trkpt lat="46.11716" lon="6.5696">
        <ele>772</ele>
        <time>2011-07-24T10:49:16Z</time>
      </trkpt>
      <trkpt lat="46.11729" lon="6.56942">
        <ele>780</ele>
        <time>2011-07-24T10:49:18Z</time>
      </trkpt>
      <trkpt lat="46.1174" lon="6.56925">
        <ele>780</ele>
        <time>2011-07-24T10:49:20Z</time>
      </trkpt>
      <trkpt lat="46.11751" lon="6.56905">
        <ele>780</ele>
        <time>2011-07-24T10:49:22Z</time>
      </trkpt>
      <trkpt lat="46.11758" lon="6.56894">
        <ele>786</ele>
        <time>2011-07-24T10:49:23Z</time>
      </trkpt>
      <trkpt lat="46.11764" lon="6.56883">
        <ele>786</ele>
        <time>2011-07-24T10:49:24Z</time>
      </trkpt>
      <trkpt lat="46.11771" lon="6.56874">
        <ele>786</ele>
        <time>2011-07-24T10:49:25Z</time>
      </trkpt>
      <trkpt lat="46.11776" lon="6.56863">
        <ele>792</ele>
        <time>2011-07-24T10:49:26Z</time>
      </trkpt>
      <trkpt lat="46.11782" lon="6.56849">
        <ele>792</ele>
        <time>2011-07-24T10:49:27Z</time>
      </trkpt>
      <trkpt lat="46.1179" lon="6.56837">
        <ele>792</ele>
        <time>2011-07-24T10:49:28Z</time>
      </trkpt>
      <trkpt lat="46.11797" lon="6.56826">
        <ele>792</ele>
        <time>2011-07-24T10:49:29Z</time>
      </trkpt>
      <trkpt lat="46.11804" lon="6.56813">
        <ele>792</ele>
        <time>2011-07-24T10:49:30Z</time>
      </trkpt>
      <trkpt lat="46.11816" lon="6.56795">
        <ele>792</ele>
        <time>2011-07-24T10:49:32Z</time>
      </trkpt>
      <trkpt lat="46.11824" lon="6.56786">
        <ele>792</ele>
        <time>2011-07-24T10:49:33Z</time>
      </trkpt>
      <trkpt lat="46.11832" lon="6.56778">
        <ele>792</ele>
        <time>2011-07-24T10:49:34Z</time>
      </trkpt>
      <trkpt lat="46.11839" lon="6.56769">
        <ele>792</ele>
        <time>2011-07-24T10:49:35Z</time>
      </trkpt>
      <trkpt lat="46.11851" lon="6.56753">
        <ele>792</ele>
        <time>2011-07-24T10:49:37Z</time>
      </trkpt>
      <trkpt lat="46.11863" lon="6.56742">
        <ele>792</ele>
        <time>2011-07-24T10:49:39Z</time>
      </trkpt>
      <trkpt lat="46.11874" lon="6.56733">
        <ele>787</ele>
        <time>2011-07-24T10:49:41Z</time>
      </trkpt>
      <trkpt lat="46.11888" lon="6.56724">
        <ele>787</ele>
        <time>2011-07-24T10:49:43Z</time>
      </trkpt>
      <trkpt lat="46.11901" lon="6.56713">
        <ele>787</ele>
        <time>2011-07-24T10:49:45Z</time>
      </trkpt>
      <trkpt lat="46.11907" lon="6.56701">
        <ele>787</ele>
        <time>2011-07-24T10:49:47Z</time>
      </trkpt>
      <trkpt lat="46.1191" lon="6.56683">
        <ele>781</ele>
        <time>2011-07-24T10:49:49Z</time>
      </trkpt>
      <trkpt lat="46.11915" lon="6.5667">
        <ele>781</ele>
        <time>2011-07-24T10:49:51Z</time>
      </trkpt>
      <trkpt lat="46.11914" lon="6.56652">
        <ele>781</ele>
        <time>2011-07-24T10:49:53Z</time>
      </trkpt>
      <trkpt lat="46.11912" lon="6.5663">
        <ele>776</ele>
        <time>2011-07-24T10:49:55Z</time>
      </trkpt>
      <trkpt lat="46.11909" lon="6.56609">
        <ele>776</ele>
        <time>2011-07-24T10:49:57Z</time>
      </trkpt>
      <trkpt lat="46.11907" lon="6.56589">
        <ele>776</ele>
        <time>2011-07-24T10:49:59Z</time>
      </trkpt>
      <trkpt lat="46.11906" lon="6.56573">
        <ele>776</ele>
        <time>2011-07-24T10:50:01Z</time>
      </trkpt>
      <trkpt lat="46.11907" lon="6.56558">
        <ele>776</ele>
        <time>2011-07-24T10:50:03Z</time>
      </trkpt>
      <trkpt lat="46.11909" lon="6.56539">
        <ele>771</ele>
        <time>2011-07-24T10:50:05Z</time>
      </trkpt>
      <trkpt lat="46.11911" lon="6.56522">
        <ele>771</ele>
        <time>2011-07-24T10:50:07Z</time>
      </trkpt>
      <trkpt lat="46.11911" lon="6.56506">
        <ele>771</ele>
        <time>2011-07-24T10:50:09Z</time>
      </trkpt>
      <trkpt lat="46.11913" lon="6.56489">
        <ele>771</ele>
        <time>2011-07-24T10:50:11Z</time>
      </trkpt>
      <trkpt lat="46.11914" lon="6.56474">
        <ele>771</ele>
        <time>2011-07-24T10:50:13Z</time>
      </trkpt>
      <trkpt lat="46.11912" lon="6.56458">
        <ele>771</ele>
        <time>2011-07-24T10:50:16Z</time>
      </trkpt>
      <trkpt lat="46.11911" lon="6.56439">
        <ele>771</ele>
        <time>2011-07-24T10:50:19Z</time>
      </trkpt>
      <trkpt lat="46.11912" lon="6.56425">
        <ele>771</ele>
        <time>2011-07-24T10:50:21Z</time>
      </trkpt>
      <trkpt lat="46.11916" lon="6.5641">
        <ele>762</ele>
        <time>2011-07-24T10:50:23Z</time>
      </trkpt>
      <trkpt lat="46.11919" lon="6.56393">
        <ele>762</ele>
        <time>2011-07-24T10:50:25Z</time>
      </trkpt>
      <trkpt lat="46.1192" lon="6.56374">
        <ele>762</ele>
        <time>2011-07-24T10:50:28Z</time>
      </trkpt>
      <trkpt lat="46.11918" lon="6.5636">
        <ele>762</ele>
        <time>2011-07-24T10:50:31Z</time>
      </trkpt>
      <trkpt lat="46.11915" lon="6.56344">
        <ele>762</ele>
        <time>2011-07-24T10:50:34Z</time>
      </trkpt>
      <trkpt lat="46.11922" lon="6.56331">
        <ele>756</ele>
        <time>2011-07-24T10:50:38Z</time>
      </trkpt>
      <trkpt lat="46.11926" lon="6.56316">
        <ele>756</ele>
        <time>2011-07-24T10:50:40Z</time>
      </trkpt>
      <trkpt lat="46.11932" lon="6.56301">
        <ele>756</ele>
        <time>2011-07-24T10:50:42Z</time>
      </trkpt>
      <trkpt lat="46.11941" lon="6.5629">
        <ele>756</ele>
        <time>2011-07-24T10:50:44Z</time>
      </trkpt>
      <trkpt lat="46.11947" lon="6.56279">
        <ele>756</ele>
        <time>2011-07-24T10:50:46Z</time>
      </trkpt>
      <trkpt lat="46.11959" lon="6.56268">
        <ele>756</ele>
        <time>2011-07-24T10:50:48Z</time>
      </trkpt>
      <trkpt lat="46.11973" lon="6.56258">
        <ele>756</ele>
        <time>2011-07-24T10:50:50Z</time>
      </trkpt>
      <trkpt lat="46.11986" lon="6.56249">
        <ele>756</ele>
        <time>2011-07-24T10:50:52Z</time>
      </trkpt>
      <trkpt lat="46.11994" lon="6.56239">
        <ele>756</ele>
        <time>2011-07-24T10:50:54Z</time>
      </trkpt>
      <trkpt lat="46.12004" lon="6.56229">
        <ele>756</ele>
        <time>2011-07-24T10:50:56Z</time>
      </trkpt>
      <trkpt lat="46.12011" lon="6.56216">
        <ele>756</ele>
        <time>2011-07-24T10:50:58Z</time>
      </trkpt>
      <trkpt lat="46.12014" lon="6.562">
        <ele>756</ele>
        <time>2011-07-24T10:51:00Z</time>
      </trkpt>
      <trkpt lat="46.12012" lon="6.56179">
        <ele>748</ele>
        <time>2011-07-24T10:51:02Z</time>
      </trkpt>
      <trkpt lat="46.12012" lon="6.56156">
        <ele>748</ele>
        <time>2011-07-24T10:51:04Z</time>
      </trkpt>
      <trkpt lat="46.12016" lon="6.56144">
        <ele>748</ele>
        <time>2011-07-24T10:51:05Z</time>
      </trkpt>
      <trkpt lat="46.12021" lon="6.56121">
        <ele>741</ele>
        <time>2011-07-24T10:51:07Z</time>
      </trkpt>
      <trkpt lat="46.12023" lon="6.56098">
        <ele>741</ele>
        <time>2011-07-24T10:51:09Z</time>
      </trkpt>
      <trkpt lat="46.12026" lon="6.56076">
        <ele>741</ele>
        <time>2011-07-24T10:51:11Z</time>
      </trkpt>
      <trkpt lat="46.12031" lon="6.56055">
        <ele>741</ele>
        <time>2011-07-24T10:51:13Z</time>
      </trkpt>
      <trkpt lat="46.12037" lon="6.56038">
        <ele>741</ele>
        <time>2011-07-24T10:51:15Z</time>
      </trkpt>
      <trkpt lat="46.12048" lon="6.56028">
        <ele>736</ele>
        <time>2011-07-24T10:51:17Z</time>
      </trkpt>
      <trkpt lat="46.1208" lon="6.56005">
        <ele>729</ele>
        <time>2011-07-24T10:51:22Z</time>
      </trkpt>
      <trkpt lat="46.1209" lon="6.56004">
        <ele>729</ele>
        <time>2011-07-24T10:51:23Z</time>
      </trkpt>
      <trkpt lat="46.121" lon="6.55999">
        <ele>729</ele>
        <time>2011-07-24T10:51:24Z</time>
      </trkpt>
      <trkpt lat="46.1212" lon="6.55987">
        <ele>729</ele>
        <time>2011-07-24T10:51:27Z</time>
      </trkpt>
      <trkpt lat="46.12134" lon="6.55971">
        <ele>736</ele>
        <time>2011-07-24T10:51:29Z</time>
      </trkpt>
      <trkpt lat="46.1214" lon="6.55948">
        <ele>736</ele>
        <time>2011-07-24T10:51:31Z</time>
      </trkpt>
      <trkpt lat="46.12137" lon="6.55924">
        <ele>736</ele>
        <time>2011-07-24T10:51:33Z</time>
      </trkpt>
      <trkpt lat="46.12135" lon="6.559">
        <ele>736</ele>
        <time>2011-07-24T10:51:35Z</time>
      </trkpt>
      <trkpt lat="46.1213" lon="6.55875">
        <ele>736</ele>
        <time>2011-07-24T10:51:37Z</time>
      </trkpt>
      <trkpt lat="46.12134" lon="6.55852">
        <ele>741</ele>
        <time>2011-07-24T10:51:39Z</time>
      </trkpt>
      <trkpt lat="46.12137" lon="6.55838">
        <ele>741</ele>
        <time>2011-07-24T10:51:40Z</time>
      </trkpt>
      <trkpt lat="46.12139" lon="6.55814">
        <ele>741</ele>
        <time>2011-07-24T10:51:42Z</time>
      </trkpt>
      <trkpt lat="46.12136" lon="6.55787">
        <ele>741</ele>
        <time>2011-07-24T10:51:44Z</time>
      </trkpt>
      <trkpt lat="46.12135" lon="6.55774">
        <ele>741</ele>
        <time>2011-07-24T10:51:45Z</time>
      </trkpt>
      <trkpt lat="46.12135" lon="6.5575">
        <ele>748</ele>
        <time>2011-07-24T10:51:47Z</time>
      </trkpt>
      <trkpt lat="46.12143" lon="6.5573">
        <ele>748</ele>
        <time>2011-07-24T10:51:49Z</time>
      </trkpt>
      <trkpt lat="46.12147" lon="6.55717">
        <ele>748</ele>
        <time>2011-07-24T10:51:50Z</time>
      </trkpt>
      <trkpt lat="46.12154" lon="6.55705">
        <ele>748</ele>
        <time>2011-07-24T10:51:51Z</time>
      </trkpt>
      <trkpt lat="46.1216" lon="6.55691">
        <ele>748</ele>
        <time>2011-07-24T10:51:52Z</time>
      </trkpt>
      <trkpt lat="46.12169" lon="6.55679">
        <ele>748</ele>
        <time>2011-07-24T10:51:53Z</time>
      </trkpt>
      <trkpt lat="46.12175" lon="6.55667">
        <ele>748</ele>
        <time>2011-07-24T10:51:54Z</time>
      </trkpt>
      <trkpt lat="46.12181" lon="6.55656">
        <ele>748</ele>
        <time>2011-07-24T10:51:55Z</time>
      </trkpt>
      <trkpt lat="46.12185" lon="6.55644">
        <ele>741</ele>
        <time>2011-07-24T10:51:56Z</time>
      </trkpt>
      <trkpt lat="46.1219" lon="6.55633">
        <ele>741</ele>
        <time>2011-07-24T10:51:57Z</time>
      </trkpt>
      <trkpt lat="46.12195" lon="6.55621">
        <ele>741</ele>
        <time>2011-07-24T10:51:58Z</time>
      </trkpt>
      <trkpt lat="46.122" lon="6.55609">
        <ele>741</ele>
        <time>2011-07-24T10:51:59Z</time>
      </trkpt>
      <trkpt lat="46.12207" lon="6.5559">
        <ele>741</ele>
        <time>2011-07-24T10:52:01Z</time>
      </trkpt>
      <trkpt lat="46.12214" lon="6.55573">
        <ele>741</ele>
        <time>2011-07-24T10:52:03Z</time>
      </trkpt>
      <trkpt lat="46.12219" lon="6.55557">
        <ele>741</ele>
        <time>2011-07-24T10:52:05Z</time>
      </trkpt>
      <trkpt lat="46.12228" lon="6.55545">
        <ele>741</ele>
        <time>2011-07-24T10:52:08Z</time>
      </trkpt>
      <trkpt lat="46.12238" lon="6.5555">
        <ele>741</ele>
        <time>2011-07-24T10:52:10Z</time>
      </trkpt>
      <trkpt lat="46.1225" lon="6.55564">
        <ele>741</ele>
        <time>2011-07-24T10:52:12Z</time>
      </trkpt>
      <trkpt lat="46.1226" lon="6.55564">
        <ele>741</ele>
        <time>2011-07-24T10:52:14Z</time>
      </trkpt>
      <trkpt lat="46.1227" lon="6.55559">
        <ele>747</ele>
        <time>2011-07-24T10:52:16Z</time>
      </trkpt>
      <trkpt lat="46.12282" lon="6.55547">
        <ele>747</ele>
        <time>2011-07-24T10:52:18Z</time>
      </trkpt>
      <trkpt lat="46.12295" lon="6.55533">
        <ele>747</ele>
        <time>2011-07-24T10:52:20Z</time>
      </trkpt>
      <trkpt lat="46.12309" lon="6.55521">
        <ele>752</ele>
        <time>2011-07-24T10:52:22Z</time>
      </trkpt>
      <trkpt lat="46.12318" lon="6.55518">
        <ele>752</ele>
        <time>2011-07-24T10:52:23Z</time>
      </trkpt>
      <trkpt lat="46.12334" lon="6.55511">
        <ele>752</ele>
        <time>2011-07-24T10:52:25Z</time>
      </trkpt>
      <trkpt lat="46.12346" lon="6.55503">
        <ele>762</ele>
        <time>2011-07-24T10:52:27Z</time>
      </trkpt>
      <trkpt lat="46.12353" lon="6.55519">
        <ele>770</ele>
        <time>2011-07-24T10:52:31Z</time>
      </trkpt>
      <trkpt lat="46.12355" lon="6.55545">
        <ele>770</ele>
        <time>2011-07-24T10:52:33Z</time>
      </trkpt>
      <trkpt lat="46.12357" lon="6.55561">
        <ele>780</ele>
        <time>2011-07-24T10:52:35Z</time>
      </trkpt>
      <trkpt lat="46.12361" lon="6.55581">
        <ele>780</ele>
        <time>2011-07-24T10:52:37Z</time>
      </trkpt>
      <trkpt lat="46.12365" lon="6.55592">
        <ele>780</ele>
        <time>2011-07-24T10:52:39Z</time>
      </trkpt>
      <trkpt lat="46.12378" lon="6.55587">
        <ele>786</ele>
        <time>2011-07-24T10:52:42Z</time>
      </trkpt>
      <trkpt lat="46.12388" lon="6.55573">
        <ele>786</ele>
        <time>2011-07-24T10:52:44Z</time>
      </trkpt>
      <trkpt lat="46.124" lon="6.55575">
        <ele>786</ele>
        <time>2011-07-24T10:52:54Z</time>
      </trkpt>
      <trkpt lat="46.12411" lon="6.55585">
        <ele>786</ele>
        <time>2011-07-24T10:52:57Z</time>
      </trkpt>
      <trkpt lat="46.12422" lon="6.55595">
        <ele>786</ele>
        <time>2011-07-24T10:52:59Z</time>
      </trkpt>
      <trkpt lat="46.12432" lon="6.55606">
        <ele>793</ele>
        <time>2011-07-24T10:53:01Z</time>
      </trkpt>
      <trkpt lat="46.12443" lon="6.55614">
        <ele>793</ele>
        <time>2011-07-24T10:53:03Z</time>
      </trkpt>
      <trkpt lat="46.12453" lon="6.55621">
        <ele>793</ele>
        <time>2011-07-24T10:53:05Z</time>
      </trkpt>
      <trkpt lat="46.12463" lon="6.55628">
        <ele>802</ele>
        <time>2011-07-24T10:53:08Z</time>
      </trkpt>
      <trkpt lat="46.12473" lon="6.55628">
        <ele>821</ele>
        <time>2011-07-24T10:54:48Z</time>
      </trkpt>
      <trkpt lat="46.12483" lon="6.55638">
        <ele>821</ele>
        <time>2011-07-24T10:54:56Z</time>
      </trkpt>
      <trkpt lat="46.12492" lon="6.5564">
        <ele>811</ele>
        <time>2011-07-24T10:55:08Z</time>
      </trkpt>
      <trkpt lat="46.12483" lon="6.55636">
        <ele>811</ele>
        <time>2011-07-24T10:56:55Z</time>
      </trkpt>
      <trkpt lat="46.12493" lon="6.55629">
        <ele>821</ele>
        <time>2011-07-24T10:57:34Z</time>
      </trkpt>
      <trkpt lat="46.12502" lon="6.55625">
        <ele>821</ele>
        <time>2011-07-24T10:57:37Z</time>
      </trkpt>
      <trkpt lat="46.12508" lon="6.55613">
        <ele>821</ele>
        <time>2011-07-24T10:57:40Z</time>
      </trkpt>
      <trkpt lat="46.12513" lon="6.55598">
        <ele>821</ele>
        <time>2011-07-24T10:57:43Z</time>
      </trkpt>
      <trkpt lat="46.12517" lon="6.55584">
        <ele>829</ele>
        <time>2011-07-24T10:57:46Z</time>
      </trkpt>
      <trkpt lat="46.12516" lon="6.5557">
        <ele>829</ele>
        <time>2011-07-24T10:57:50Z</time>
      </trkpt>
      <trkpt lat="46.12521" lon="6.55556">
        <ele>829</ele>
        <time>2011-07-24T10:57:53Z</time>
      </trkpt>
      <trkpt lat="46.12521" lon="6.55541">
        <ele>836</ele>
        <time>2011-07-24T10:57:58Z</time>
      </trkpt>
      <trkpt lat="46.12525" lon="6.55527">
        <ele>836</ele>
        <time>2011-07-24T10:58:02Z</time>
      </trkpt>
      <trkpt lat="46.1253" lon="6.55511">
        <ele>841</ele>
        <time>2011-07-24T10:58:05Z</time>
      </trkpt>
      <trkpt lat="46.12536" lon="6.55495">
        <ele>841</ele>
        <time>2011-07-24T10:58:08Z</time>
      </trkpt>
      <trkpt lat="46.12541" lon="6.55478">
        <ele>841</ele>
        <time>2011-07-24T10:58:11Z</time>
      </trkpt>
      <trkpt lat="46.12544" lon="6.55465">
        <ele>841</ele>
        <time>2011-07-24T10:58:14Z</time>
      </trkpt>
      <trkpt lat="46.12558" lon="6.5545">
        <ele>841</ele>
        <time>2011-07-24T10:58:20Z</time>
      </trkpt>
      <trkpt lat="46.12574" lon="6.55453">
        <ele>841</ele>
        <time>2011-07-24T10:58:24Z</time>
      </trkpt>
      <trkpt lat="46.12588" lon="6.55455">
        <ele>841</ele>
        <time>2011-07-24T10:58:26Z</time>
      </trkpt>
      <trkpt lat="46.12598" lon="6.5546">
        <ele>841</ele>
        <time>2011-07-24T10:58:28Z</time>
      </trkpt>
      <trkpt lat="46.1261" lon="6.55463">
        <ele>841</ele>
        <time>2011-07-24T10:58:33Z</time>
      </trkpt>
      <trkpt lat="46.12619" lon="6.5547">
        <ele>841</ele>
        <time>2011-07-24T10:58:36Z</time>
      </trkpt>
      <trkpt lat="46.12628" lon="6.5546">
        <ele>855</ele>
        <time>2011-07-24T10:58:41Z</time>
      </trkpt>
      <trkpt lat="46.12635" lon="6.5545">
        <ele>855</ele>
        <time>2011-07-24T10:58:44Z</time>
      </trkpt>
      <trkpt lat="46.12634" lon="6.55432">
        <ele>865</ele>
        <time>2011-07-24T10:58:47Z</time>
      </trkpt>
      <trkpt lat="46.1264" lon="6.55421">
        <ele>865</ele>
        <time>2011-07-24T10:58:50Z</time>
      </trkpt>
      <trkpt lat="46.12651" lon="6.55406">
        <ele>872</ele>
        <time>2011-07-24T10:58:53Z</time>
      </trkpt>
      <trkpt lat="46.12659" lon="6.55395">
        <ele>872</ele>
        <time>2011-07-24T10:58:56Z</time>
      </trkpt>
      <trkpt lat="46.1267" lon="6.55389">
        <ele>878</ele>
        <time>2011-07-24T10:58:59Z</time>
      </trkpt>
      <trkpt lat="46.12678" lon="6.55383">
        <ele>885</ele>
        <time>2011-07-24T10:59:07Z</time>
      </trkpt>
      <trkpt lat="46.12681" lon="6.55367">
        <ele>897</ele>
        <time>2011-07-24T10:59:30Z</time>
      </trkpt>
      <trkpt lat="46.12691" lon="6.5535">
        <ele>897</ele>
        <time>2011-07-24T10:59:33Z</time>
      </trkpt>
      <trkpt lat="46.12703" lon="6.55336">
        <ele>897</ele>
        <time>2011-07-24T10:59:35Z</time>
      </trkpt>
      <trkpt lat="46.12714" lon="6.55321">
        <ele>897</ele>
        <time>2011-07-24T10:59:37Z</time>
      </trkpt>
      <trkpt lat="46.12723" lon="6.55303">
        <ele>897</ele>
        <time>2011-07-24T10:59:39Z</time>
      </trkpt>
      <trkpt lat="46.12733" lon="6.55285">
        <ele>903</ele>
        <time>2011-07-24T10:59:41Z</time>
      </trkpt>
      <trkpt lat="46.12739" lon="6.55275">
        <ele>903</ele>
        <time>2011-07-24T10:59:42Z</time>
      </trkpt>
      <trkpt lat="46.12751" lon="6.55255">
        <ele>903</ele>
        <time>2011-07-24T10:59:44Z</time>
      </trkpt>
      <trkpt lat="46.12761" lon="6.55236">
        <ele>903</ele>
        <time>2011-07-24T10:59:46Z</time>
      </trkpt>
      <trkpt lat="46.12769" lon="6.55213">
        <ele>903</ele>
        <time>2011-07-24T10:59:48Z</time>
      </trkpt>
      <trkpt lat="46.12777" lon="6.55194">
        <ele>903</ele>
        <time>2011-07-24T10:59:50Z</time>
      </trkpt>
      <trkpt lat="46.12783" lon="6.55182">
        <ele>909</ele>
        <time>2011-07-24T10:59:52Z</time>
      </trkpt>
      <trkpt lat="46.12792" lon="6.55174">
        <ele>909</ele>
        <time>2011-07-24T10:59:55Z</time>
      </trkpt>
      <trkpt lat="46.12798" lon="6.55164">
        <ele>917</ele>
        <time>2011-07-24T10:59:58Z</time>
      </trkpt>
      <trkpt lat="46.12809" lon="6.55154">
        <ele>917</ele>
        <time>2011-07-24T11:00:00Z</time>
      </trkpt>
      <trkpt lat="46.1282" lon="6.55147">
        <ele>917</ele>
        <time>2011-07-24T11:00:02Z</time>
      </trkpt>
      <trkpt lat="46.12833" lon="6.5514">
        <ele>917</ele>
        <time>2011-07-24T11:00:04Z</time>
      </trkpt>
      <trkpt lat="46.12844" lon="6.55135">
        <ele>922</ele>
        <time>2011-07-24T11:00:06Z</time>
      </trkpt>
      <trkpt lat="46.12856" lon="6.55128">
        <ele>922</ele>
        <time>2011-07-24T11:00:08Z</time>
      </trkpt>
      <trkpt lat="46.12866" lon="6.55116">
        <ele>922</ele>
        <time>2011-07-24T11:00:10Z</time>
      </trkpt>
      <trkpt lat="46.12876" lon="6.55105">
        <ele>929</ele>
        <time>2011-07-24T11:00:13Z</time>
      </trkpt>
      <trkpt lat="46.12884" lon="6.55097">
        <ele>929</ele>
        <time>2011-07-24T11:00:22Z</time>
      </trkpt>
      <trkpt lat="46.12892" lon="6.55091">
        <ele>929</ele>
        <time>2011-07-24T11:00:36Z</time>
      </trkpt>
      <trkpt lat="46.12885" lon="6.55082">
        <ele>938</ele>
        <time>2011-07-24T11:00:42Z</time>
      </trkpt>
      <trkpt lat="46.12879" lon="6.55071">
        <ele>938</ele>
        <time>2011-07-24T11:01:00Z</time>
      </trkpt>
      <trkpt lat="46.12891" lon="6.55065">
        <ele>938</ele>
        <time>2011-07-24T11:01:11Z</time>
      </trkpt>
      <trkpt lat="46.12901" lon="6.5506">
        <ele>930</ele>
        <time>2011-07-24T11:01:13Z</time>
      </trkpt>
      <trkpt lat="46.1291" lon="6.55052">
        <ele>930</ele>
        <time>2011-07-24T11:01:15Z</time>
      </trkpt>
      <trkpt lat="46.12922" lon="6.55042">
        <ele>930</ele>
        <time>2011-07-24T11:01:18Z</time>
      </trkpt>
      <trkpt lat="46.12931" lon="6.55035">
        <ele>930</ele>
        <time>2011-07-24T11:01:20Z</time>
      </trkpt>
      <trkpt lat="46.12941" lon="6.5503">
        <ele>924</ele>
        <time>2011-07-24T11:01:24Z</time>
      </trkpt>
      <trkpt lat="46.12949" lon="6.55025">
        <ele>924</ele>
        <time>2011-07-24T11:01:32Z</time>
      </trkpt>
      <trkpt lat="46.12959" lon="6.55014">
        <ele>924</ele>
        <time>2011-07-24T11:01:49Z</time>
      </trkpt>
      <trkpt lat="46.12971" lon="6.55004">
        <ele>924</ele>
        <time>2011-07-24T11:01:52Z</time>
      </trkpt>
      <trkpt lat="46.12979" lon="6.54997">
        <ele>919</ele>
        <time>2011-07-24T11:01:54Z</time>
      </trkpt>
      <trkpt lat="46.12989" lon="6.54988">
        <ele>919</ele>
        <time>2011-07-24T11:01:56Z</time>
      </trkpt>
      <trkpt lat="46.12999" lon="6.54979">
        <ele>919</ele>
        <time>2011-07-24T11:01:58Z</time>
      </trkpt>
      <trkpt lat="46.13009" lon="6.54971">
        <ele>919</ele>
        <time>2011-07-24T11:02:00Z</time>
      </trkpt>
      <trkpt lat="46.13017" lon="6.54964">
        <ele>919</ele>
        <time>2011-07-24T11:02:02Z</time>
      </trkpt>
      <trkpt lat="46.13024" lon="6.5495">
        <ele>919</ele>
        <time>2011-07-24T11:02:05Z</time>
      </trkpt>
      <trkpt lat="46.13034" lon="6.54946">
        <ele>926</ele>
        <time>2011-07-24T11:02:16Z</time>
      </trkpt>
      <trkpt lat="46.13043" lon="6.54941">
        <ele>937</ele>
        <time>2011-07-24T11:02:27Z</time>
      </trkpt>
      <trkpt lat="46.13033" lon="6.54946">
        <ele>952</ele>
        <time>2011-07-24T11:02:37Z</time>
      </trkpt>
      <trkpt lat="46.13042" lon="6.54941">
        <ele>930</ele>
        <time>2011-07-24T11:02:53Z</time>
      </trkpt>
      <trkpt lat="46.13046" lon="6.54928">
        <ele>930</ele>
        <time>2011-07-24T11:03:21Z</time>
      </trkpt>
      <trkpt lat="46.13056" lon="6.5493">
        <ele>942</ele>
        <time>2011-07-24T11:04:24Z</time>
      </trkpt>
      <trkpt lat="46.13046" lon="6.54931">
        <ele>942</ele>
        <time>2011-07-24T11:04:43Z</time>
      </trkpt>
      <trkpt lat="46.13043" lon="6.54919">
        <ele>937</ele>
        <time>2011-07-24T11:05:05Z</time>
      </trkpt>
      <trkpt lat="46.13042" lon="6.54902">
        <ele>937</ele>
        <time>2011-07-24T11:05:09Z</time>
      </trkpt>
      <trkpt lat="46.13037" lon="6.5489">
        <ele>937</ele>
        <time>2011-07-24T11:05:11Z</time>
      </trkpt>
      <trkpt lat="46.13033" lon="6.54876">
        <ele>937</ele>
        <time>2011-07-24T11:05:14Z</time>
      </trkpt>
      <trkpt lat="46.13027" lon="6.54862">
        <ele>937</ele>
        <time>2011-07-24T11:05:17Z</time>
      </trkpt>
      <trkpt lat="46.13022" lon="6.54848">
        <ele>937</ele>
        <time>2011-07-24T11:05:21Z</time>
      </trkpt>
      <trkpt lat="46.13021" lon="6.54834">
        <ele>927</ele>
        <time>2011-07-24T11:05:28Z</time>
      </trkpt>
      <trkpt lat="46.13024" lon="6.54819">
        <ele>927</ele>
        <time>2011-07-24T11:05:34Z</time>
      </trkpt>
      <trkpt lat="46.13028" lon="6.54806">
        <ele>927</ele>
        <time>2011-07-24T11:05:39Z</time>
      </trkpt>
      <trkpt lat="46.13034" lon="6.54796">
        <ele>927</ele>
        <time>2011-07-24T11:05:49Z</time>
      </trkpt>
      <trkpt lat="46.13039" lon="6.5478">
        <ele>927</ele>
        <time>2011-07-24T11:06:00Z</time>
      </trkpt>
      <trkpt lat="46.13042" lon="6.54768">
        <ele>927</ele>
        <time>2011-07-24T11:06:05Z</time>
      </trkpt>
      <trkpt lat="46.13047" lon="6.54753">
        <ele>920</ele>
        <time>2011-07-24T11:06:10Z</time>
      </trkpt>
      <trkpt lat="46.13057" lon="6.54746">
        <ele>920</ele>
        <time>2011-07-24T11:06:14Z</time>
      </trkpt>
      <trkpt lat="46.13067" lon="6.54745">
        <ele>914</ele>
        <time>2011-07-24T11:06:17Z</time>
      </trkpt>
      <trkpt lat="46.13074" lon="6.54735">
        <ele>914</ele>
        <time>2011-07-24T11:06:22Z</time>
      </trkpt>
      <trkpt lat="46.13075" lon="6.54721">
        <ele>914</ele>
        <time>2011-07-24T11:06:26Z</time>
      </trkpt>
      <trkpt lat="46.13083" lon="6.54709">
        <ele>914</ele>
        <time>2011-07-24T11:06:30Z</time>
      </trkpt>
      <trkpt lat="46.1309" lon="6.54696">
        <ele>914</ele>
        <time>2011-07-24T11:06:33Z</time>
      </trkpt>
      <trkpt lat="46.131" lon="6.54687">
        <ele>914</ele>
        <time>2011-07-24T11:06:36Z</time>
      </trkpt>
      <trkpt lat="46.1311" lon="6.54676">
        <ele>914</ele>
        <time>2011-07-24T11:06:38Z</time>
      </trkpt>
      <trkpt lat="46.13117" lon="6.54661">
        <ele>914</ele>
        <time>2011-07-24T11:06:40Z</time>
      </trkpt>
      <trkpt lat="46.13122" lon="6.54648">
        <ele>908</ele>
        <time>2011-07-24T11:06:43Z</time>
      </trkpt>
      <trkpt lat="46.13112" lon="6.54647">
        <ele>908</ele>
        <time>2011-07-24T11:06:47Z</time>
      </trkpt>
      <trkpt lat="46.13103" lon="6.54652">
        <ele>908</ele>
        <time>2011-07-24T11:06:52Z</time>
      </trkpt>
      <trkpt lat="46.13095" lon="6.54643">
        <ele>901</ele>
        <time>2011-07-24T11:06:58Z</time>
      </trkpt>
      <trkpt lat="46.13092" lon="6.54628">
        <ele>895</ele>
        <time>2011-07-24T11:07:02Z</time>
      </trkpt>
      <trkpt lat="46.13088" lon="6.54612">
        <ele>895</ele>
        <time>2011-07-24T11:07:06Z</time>
      </trkpt>
      <trkpt lat="46.13084" lon="6.54601">
        <ele>888</ele>
        <time>2011-07-24T11:07:10Z</time>
      </trkpt>
      <trkpt lat="46.13074" lon="6.54592">
        <ele>879</ele>
        <time>2011-07-24T11:07:40Z</time>
      </trkpt>
      <trkpt lat="46.13065" lon="6.54586">
        <ele>879</ele>
        <time>2011-07-24T11:07:43Z</time>
      </trkpt>
      <trkpt lat="46.13052" lon="6.5458">
        <ele>879</ele>
        <time>2011-07-24T11:07:46Z</time>
      </trkpt>
      <trkpt lat="46.13041" lon="6.54575">
        <ele>879</ele>
        <time>2011-07-24T11:07:49Z</time>
      </trkpt>
      <trkpt lat="46.13035" lon="6.54563">
        <ele>873</ele>
        <time>2011-07-24T11:07:52Z</time>
      </trkpt>
      <trkpt lat="46.13037" lon="6.54548">
        <ele>873</ele>
        <time>2011-07-24T11:07:54Z</time>
      </trkpt>
      <trkpt lat="46.13044" lon="6.54533">
        <ele>873</ele>
        <time>2011-07-24T11:07:56Z</time>
      </trkpt>
      <trkpt lat="46.13046" lon="6.54519">
        <ele>868</ele>
        <time>2011-07-24T11:07:58Z</time>
      </trkpt>
      <trkpt lat="46.13038" lon="6.54509">
        <ele>868</ele>
        <time>2011-07-24T11:08:00Z</time>
      </trkpt>
      <trkpt lat="46.13024" lon="6.54501">
        <ele>868</ele>
        <time>2011-07-24T11:08:02Z</time>
      </trkpt>
      <trkpt lat="46.13016" lon="6.54494">
        <ele>868</ele>
        <time>2011-07-24T11:08:03Z</time>
      </trkpt>
      <trkpt lat="46.13004" lon="6.54477">
        <ele>862</ele>
        <time>2011-07-24T11:08:05Z</time>
      </trkpt>
      <trkpt lat="46.12994" lon="6.54458">
        <ele>862</ele>
        <time>2011-07-24T11:08:07Z</time>
      </trkpt>
      <trkpt lat="46.12986" lon="6.54443">
        <ele>862</ele>
        <time>2011-07-24T11:08:09Z</time>
      </trkpt>
      <trkpt lat="46.12977" lon="6.54435">
        <ele>862</ele>
        <time>2011-07-24T11:08:11Z</time>
      </trkpt>
      <trkpt lat="46.12967" lon="6.54428">
        <ele>862</ele>
        <time>2011-07-24T11:08:15Z</time>
      </trkpt>
      <trkpt lat="46.1297" lon="6.54411">
        <ele>853</ele>
        <time>2011-07-24T11:08:22Z</time>
      </trkpt>
      <trkpt lat="46.12971" lon="6.54394">
        <ele>853</ele>
        <time>2011-07-24T11:08:25Z</time>
      </trkpt>
      <trkpt lat="46.12972" lon="6.54381">
        <ele>853</ele>
        <time>2011-07-24T11:08:29Z</time>
      </trkpt>
      <trkpt lat="46.12972" lon="6.54363">
        <ele>853</ele>
        <time>2011-07-24T11:08:41Z</time>
      </trkpt>
      <trkpt lat="46.12968" lon="6.5435">
        <ele>853</ele>
        <time>2011-07-24T11:08:43Z</time>
      </trkpt>
      <trkpt lat="46.12963" lon="6.54336">
        <ele>853</ele>
        <time>2011-07-24T11:08:46Z</time>
      </trkpt>
      <trkpt lat="46.12961" lon="6.54322">
        <ele>853</ele>
        <time>2011-07-24T11:08:55Z</time>
      </trkpt>
      <trkpt lat="46.12954" lon="6.54309">
        <ele>867</ele>
        <time>2011-07-24T11:09:30Z</time>
      </trkpt>
      <trkpt lat="46.12952" lon="6.54294">
        <ele>867</ele>
        <time>2011-07-24T11:09:32Z</time>
      </trkpt>
      <trkpt lat="46.12947" lon="6.54282">
        <ele>867</ele>
        <time>2011-07-24T11:09:34Z</time>
      </trkpt>
      <trkpt lat="46.12936" lon="6.54276">
        <ele>867</ele>
        <time>2011-07-24T11:09:37Z</time>
      </trkpt>
      <trkpt lat="46.12921" lon="6.5428">
        <ele>867</ele>
        <time>2011-07-24T11:09:40Z</time>
      </trkpt>
      <trkpt lat="46.12911" lon="6.5428">
        <ele>867</ele>
        <time>2011-07-24T11:09:42Z</time>
      </trkpt>
      <trkpt lat="46.12899" lon="6.54277">
        <ele>862</ele>
        <time>2011-07-24T11:09:44Z</time>
      </trkpt>
      <trkpt lat="46.12891" lon="6.54273">
        <ele>862</ele>
        <time>2011-07-24T11:09:46Z</time>
      </trkpt>
      <trkpt lat="46.12881" lon="6.54265">
        <ele>856</ele>
        <time>2011-07-24T11:09:49Z</time>
      </trkpt>
      <trkpt lat="46.12875" lon="6.54248">
        <ele>856</ele>
        <time>2011-07-24T11:09:52Z</time>
      </trkpt>
      <trkpt lat="46.12875" lon="6.5423">
        <ele>856</ele>
        <time>2011-07-24T11:09:54Z</time>
      </trkpt>
      <trkpt lat="46.12877" lon="6.54213">
        <ele>850</ele>
        <time>2011-07-24T11:09:56Z</time>
      </trkpt>
      <trkpt lat="46.12881" lon="6.542">
        <ele>850</ele>
        <time>2011-07-24T11:09:58Z</time>
      </trkpt>
      <trkpt lat="46.12886" lon="6.54185">
        <ele>850</ele>
        <time>2011-07-24T11:10:00Z</time>
      </trkpt>
      <trkpt lat="46.12892" lon="6.54167">
        <ele>850</ele>
        <time>2011-07-24T11:10:02Z</time>
      </trkpt>
      <trkpt lat="46.12898" lon="6.54147">
        <ele>844</ele>
        <time>2011-07-24T11:10:04Z</time>
      </trkpt>
      <trkpt lat="46.12906" lon="6.54126">
        <ele>844</ele>
        <time>2011-07-24T11:10:06Z</time>
      </trkpt>
      <trkpt lat="46.1291" lon="6.54115">
        <ele>839</ele>
        <time>2011-07-24T11:10:07Z</time>
      </trkpt>
      <trkpt lat="46.12918" lon="6.54093">
        <ele>839</ele>
        <time>2011-07-24T11:10:09Z</time>
      </trkpt>
      <trkpt lat="46.12925" lon="6.54071">
        <ele>839</ele>
        <time>2011-07-24T11:10:11Z</time>
      </trkpt>
      <trkpt lat="46.12931" lon="6.54051">
        <ele>839</ele>
        <time>2011-07-24T11:10:13Z</time>
      </trkpt>
      <trkpt lat="46.12937" lon="6.5403">
        <ele>839</ele>
        <time>2011-07-24T11:10:15Z</time>
      </trkpt>
      <trkpt lat="46.12946" lon="6.54011">
        <ele>831</ele>
        <time>2011-07-24T11:10:17Z</time>
      </trkpt>
      <trkpt lat="46.12953" lon="6.53992">
        <ele>831</ele>
        <time>2011-07-24T11:10:19Z</time>
      </trkpt>
      <trkpt lat="46.12961" lon="6.53972">
        <ele>831</ele>
        <time>2011-07-24T11:10:21Z</time>
      </trkpt>
      <trkpt lat="46.12969" lon="6.53965">
        <ele>831</ele>
        <time>2011-07-24T11:10:22Z</time>
      </trkpt>
      <trkpt lat="46.12979" lon="6.5395">
        <ele>831</ele>
        <time>2011-07-24T11:10:24Z</time>
      </trkpt>
      <trkpt lat="46.1299" lon="6.53935">
        <ele>831</ele>
        <time>2011-07-24T11:10:26Z</time>
      </trkpt>
      <trkpt lat="46.13006" lon="6.53922">
        <ele>831</ele>
        <time>2011-07-24T11:10:28Z</time>
      </trkpt>
      <trkpt lat="46.13016" lon="6.53917">
        <ele>831</ele>
        <time>2011-07-24T11:10:29Z</time>
      </trkpt>
      <trkpt lat="46.13023" lon="6.53906">
        <ele>831</ele>
        <time>2011-07-24T11:10:30Z</time>
      </trkpt>
      <trkpt lat="46.1303" lon="6.53895">
        <ele>831</ele>
        <time>2011-07-24T11:10:31Z</time>
      </trkpt>
      <trkpt lat="46.13039" lon="6.53886">
        <ele>825</ele>
        <time>2011-07-24T11:10:32Z</time>
      </trkpt>
      <trkpt lat="46.13047" lon="6.53877">
        <ele>825</ele>
        <time>2011-07-24T11:10:33Z</time>
      </trkpt>
      <trkpt lat="46.13056" lon="6.53868">
        <ele>825</ele>
        <time>2011-07-24T11:10:34Z</time>
      </trkpt>
      <trkpt lat="46.13064" lon="6.53858">
        <ele>820</ele>
        <time>2011-07-24T11:10:35Z</time>
      </trkpt>
      <trkpt lat="46.13072" lon="6.53847">
        <ele>820</ele>
        <time>2011-07-24T11:10:36Z</time>
      </trkpt>
      <trkpt lat="46.13079" lon="6.53836">
        <ele>820</ele>
        <time>2011-07-24T11:10:37Z</time>
      </trkpt>
      <trkpt lat="46.1309" lon="6.53818">
        <ele>820</ele>
        <time>2011-07-24T11:10:39Z</time>
      </trkpt>
      <trkpt lat="46.131" lon="6.53804">
        <ele>820</ele>
        <time>2011-07-24T11:10:41Z</time>
      </trkpt>
      <trkpt lat="46.1311" lon="6.5379">
        <ele>820</ele>
        <time>2011-07-24T11:10:43Z</time>
      </trkpt>
      <trkpt lat="46.13115" lon="6.53772">
        <ele>814</ele>
        <time>2011-07-24T11:10:45Z</time>
      </trkpt>
      <trkpt lat="46.1312" lon="6.53753">
        <ele>814</ele>
        <time>2011-07-24T11:10:47Z</time>
      </trkpt>
      <trkpt lat="46.13122" lon="6.53731">
        <ele>809</ele>
        <time>2011-07-24T11:10:49Z</time>
      </trkpt>
      <trkpt lat="46.13125" lon="6.53709">
        <ele>809</ele>
        <time>2011-07-24T11:10:51Z</time>
      </trkpt>
      <trkpt lat="46.1313" lon="6.53692">
        <ele>802</ele>
        <time>2011-07-24T11:10:53Z</time>
      </trkpt>
      <trkpt lat="46.13135" lon="6.53673">
        <ele>802</ele>
        <time>2011-07-24T11:10:55Z</time>
      </trkpt>
      <trkpt lat="46.13138" lon="6.53653">
        <ele>802</ele>
        <time>2011-07-24T11:10:57Z</time>
      </trkpt>
      <trkpt lat="46.13144" lon="6.53639">
        <ele>802</ele>
        <time>2011-07-24T11:10:59Z</time>
      </trkpt>
      <trkpt lat="46.1315" lon="6.53625">
        <ele>802</ele>
        <time>2011-07-24T11:11:01Z</time>
      </trkpt>
      <trkpt lat="46.13159" lon="6.53611">
        <ele>802</ele>
        <time>2011-07-24T11:11:03Z</time>
      </trkpt>
      <trkpt lat="46.13165" lon="6.53597">
        <ele>802</ele>
        <time>2011-07-24T11:11:05Z</time>
      </trkpt>
      <trkpt lat="46.1317" lon="6.53584">
        <ele>797</ele>
        <time>2011-07-24T11:11:07Z</time>
      </trkpt>
      <trkpt lat="46.13175" lon="6.53568">
        <ele>797</ele>
        <time>2011-07-24T11:11:09Z</time>
      </trkpt>
      <trkpt lat="46.13183" lon="6.5355">
        <ele>797</ele>
        <time>2011-07-24T11:11:11Z</time>
      </trkpt>
      <trkpt lat="46.13192" lon="6.53533">
        <ele>791</ele>
        <time>2011-07-24T11:11:13Z</time>
      </trkpt>
      <trkpt lat="46.13199" lon="6.53516">
        <ele>791</ele>
        <time>2011-07-24T11:11:15Z</time>
      </trkpt>
      <trkpt lat="46.13209" lon="6.53495">
        <ele>786</ele>
        <time>2011-07-24T11:11:18Z</time>
      </trkpt>
      <trkpt lat="46.13225" lon="6.53476">
        <ele>786</ele>
        <time>2011-07-24T11:11:21Z</time>
      </trkpt>
      <trkpt lat="46.13238" lon="6.53472">
        <ele>779</ele>
        <time>2011-07-24T11:11:22Z</time>
      </trkpt>
      <trkpt lat="46.13247" lon="6.53466">
        <ele>779</ele>
        <time>2011-07-24T11:11:23Z</time>
      </trkpt>
      <trkpt lat="46.13256" lon="6.53462">
        <ele>779</ele>
        <time>2011-07-24T11:11:30Z</time>
      </trkpt>
      <trkpt lat="46.13262" lon="6.53471">
        <ele>779</ele>
        <time>2011-07-24T11:12:56Z</time>
      </trkpt>
      <trkpt lat="46.13257" lon="6.53459">
        <ele>786</ele>
        <time>2011-07-24T11:13:22Z</time>
      </trkpt>
      <trkpt lat="46.1325" lon="6.5345">
        <ele>793</ele>
        <time>2011-07-24T11:18:04Z</time>
      </trkpt>
      <trkpt lat="46.13243" lon="6.5344">
        <ele>798</ele>
        <time>2011-07-24T11:19:20Z</time>
      </trkpt>
      <trkpt lat="46.13251" lon="6.53448">
        <ele>793</ele>
        <time>2011-07-24T11:20:40Z</time>
      </trkpt>
      <trkpt lat="46.13257" lon="6.53458">
        <ele>787</ele>
        <time>2011-07-24T11:21:11Z</time>
      </trkpt>
      <trkpt lat="46.13249" lon="6.5345">
        <ele>787</ele>
        <time>2011-07-24T11:21:52Z</time>
      </trkpt>
      <trkpt lat="46.1324" lon="6.53444">
        <ele>787</ele>
        <time>2011-07-24T11:23:24Z</time>
      </trkpt>
      <trkpt lat="46.13248" lon="6.53453">
        <ele>787</ele>
        <time>2011-07-24T11:23:46Z</time>
      </trkpt>
      <trkpt lat="46.13258" lon="6.53456">
        <ele>787</ele>
        <time>2011-07-24T11:24:10Z</time>
      </trkpt>
      <trkpt lat="46.13252" lon="6.53453">
        <ele>787</ele>
        <time>2011-07-24T11:25:19Z</time>
      </trkpt>
      <trkpt lat="46.13243" lon="6.5345">
        <ele>787</ele>
        <time>2011-07-24T11:25:51Z</time>
      </trkpt>
      <trkpt lat="46.13253" lon="6.53455">
        <ele>782</ele>
        <time>2011-07-24T11:28:20Z</time>
      </trkpt>
      <trkpt lat="46.13244" lon="6.53452">
        <ele>782</ele>
        <time>2011-07-24T11:30:41Z</time>
      </trkpt>
      <trkpt lat="46.13253" lon="6.5345">
        <ele>782</ele>
        <time>2011-07-24T11:31:57Z</time>
      </trkpt>
      <trkpt lat="46.1326" lon="6.53439">
        <ele>782</ele>
        <time>2011-07-24T11:32:01Z</time>
      </trkpt>
      <trkpt lat="46.13263" lon="6.53423">
        <ele>782</ele>
        <time>2011-07-24T11:32:05Z</time>
      </trkpt>
      <trkpt lat="46.13265" lon="6.53407">
        <ele>782</ele>
        <time>2011-07-24T11:32:08Z</time>
      </trkpt>
      <trkpt lat="46.13271" lon="6.53391">
        <ele>782</ele>
        <time>2011-07-24T11:32:11Z</time>
      </trkpt>
      <trkpt lat="46.1328" lon="6.5338">
        <ele>775</ele>
        <time>2011-07-24T11:32:14Z</time>
      </trkpt>
      <trkpt lat="46.13289" lon="6.53367">
        <ele>775</ele>
        <time>2011-07-24T11:32:17Z</time>
      </trkpt>
      <trkpt lat="46.13296" lon="6.53356">
        <ele>775</ele>
        <time>2011-07-24T11:32:19Z</time>
      </trkpt>
      <trkpt lat="46.13305" lon="6.53341">
        <ele>775</ele>
        <time>2011-07-24T11:32:21Z</time>
      </trkpt>
      <trkpt lat="46.13316" lon="6.53327">
        <ele>769</ele>
        <time>2011-07-24T11:32:23Z</time>
      </trkpt>
      <trkpt lat="46.13326" lon="6.53312">
        <ele>769</ele>
        <time>2011-07-24T11:32:25Z</time>
      </trkpt>
      <trkpt lat="46.13335" lon="6.53298">
        <ele>769</ele>
        <time>2011-07-24T11:32:27Z</time>
      </trkpt>
      <trkpt lat="46.13342" lon="6.53284">
        <ele>764</ele>
        <time>2011-07-24T11:32:29Z</time>
      </trkpt>
      <trkpt lat="46.1335" lon="6.53269">
        <ele>764</ele>
        <time>2011-07-24T11:32:31Z</time>
      </trkpt>
      <trkpt lat="46.1336" lon="6.53254">
        <ele>764</ele>
        <time>2011-07-24T11:32:33Z</time>
      </trkpt>
      <trkpt lat="46.13368" lon="6.5324">
        <ele>764</ele>
        <time>2011-07-24T11:32:35Z</time>
      </trkpt>
      <trkpt lat="46.13376" lon="6.53224">
        <ele>764</ele>
        <time>2011-07-24T11:32:37Z</time>
      </trkpt>
      <trkpt lat="46.13384" lon="6.5321">
        <ele>756</ele>
        <time>2011-07-24T11:32:39Z</time>
      </trkpt>
      <trkpt lat="46.13392" lon="6.53196">
        <ele>756</ele>
        <time>2011-07-24T11:32:41Z</time>
      </trkpt>
      <trkpt lat="46.134" lon="6.53183">
        <ele>751</ele>
        <time>2011-07-24T11:32:43Z</time>
      </trkpt>
      <trkpt lat="46.1341" lon="6.53165">
        <ele>751</ele>
        <time>2011-07-24T11:32:45Z</time>
      </trkpt>
      <trkpt lat="46.13418" lon="6.53147">
        <ele>751</ele>
        <time>2011-07-24T11:32:47Z</time>
      </trkpt>
      <trkpt lat="46.13426" lon="6.53125">
        <ele>745</ele>
        <time>2011-07-24T11:32:49Z</time>
      </trkpt>
      <trkpt lat="46.13438" lon="6.53107">
        <ele>745</ele>
        <time>2011-07-24T11:32:51Z</time>
      </trkpt>
      <trkpt lat="46.13445" lon="6.53097">
        <ele>745</ele>
        <time>2011-07-24T11:32:52Z</time>
      </trkpt>
      <trkpt lat="46.13455" lon="6.53077">
        <ele>745</ele>
        <time>2011-07-24T11:32:54Z</time>
      </trkpt>
      <trkpt lat="46.13464" lon="6.53059">
        <ele>739</ele>
        <time>2011-07-24T11:32:56Z</time>
      </trkpt>
      <trkpt lat="46.1347" lon="6.53038">
        <ele>739</ele>
        <time>2011-07-24T11:32:58Z</time>
      </trkpt>
      <trkpt lat="46.13478" lon="6.5302">
        <ele>739</ele>
        <time>2011-07-24T11:33:00Z</time>
      </trkpt>
      <trkpt lat="46.1349" lon="6.53002">
        <ele>739</ele>
        <time>2011-07-24T11:33:02Z</time>
      </trkpt>
      <trkpt lat="46.13496" lon="6.52989">
        <ele>739</ele>
        <time>2011-07-24T11:33:03Z</time>
      </trkpt>
      <trkpt lat="46.13502" lon="6.52975">
        <ele>734</ele>
        <time>2011-07-24T11:33:04Z</time>
      </trkpt>
      <trkpt lat="46.13508" lon="6.5296">
        <ele>734</ele>
        <time>2011-07-24T11:33:05Z</time>
      </trkpt>
      <trkpt lat="46.13513" lon="6.52945">
        <ele>734</ele>
        <time>2011-07-24T11:33:06Z</time>
      </trkpt>
      <trkpt lat="46.13518" lon="6.52928">
        <ele>734</ele>
        <time>2011-07-24T11:33:07Z</time>
      </trkpt>
      <trkpt lat="46.13523" lon="6.5291">
        <ele>734</ele>
        <time>2011-07-24T11:33:08Z</time>
      </trkpt>
      <trkpt lat="46.13527" lon="6.52892">
        <ele>734</ele>
        <time>2011-07-24T11:33:09Z</time>
      </trkpt>
      <trkpt lat="46.13531" lon="6.52876">
        <ele>734</ele>
        <time>2011-07-24T11:33:10Z</time>
      </trkpt>
      <trkpt lat="46.13535" lon="6.52861">
        <ele>734</ele>
        <time>2011-07-24T11:33:11Z</time>
      </trkpt>
      <trkpt lat="46.13538" lon="6.52845">
        <ele>734</ele>
        <time>2011-07-24T11:33:12Z</time>
      </trkpt>
      <trkpt lat="46.13541" lon="6.52831">
        <ele>734</ele>
        <time>2011-07-24T11:33:13Z</time>
      </trkpt>
      <trkpt lat="46.13543" lon="6.52817">
        <ele>734</ele>
        <time>2011-07-24T11:33:14Z</time>
      </trkpt>
      <trkpt lat="46.13546" lon="6.52803">
        <ele>734</ele>
        <time>2011-07-24T11:33:15Z</time>
      </trkpt>
      <trkpt lat="46.13548" lon="6.52779">
        <ele>734</ele>
        <time>2011-07-24T11:33:17Z</time>
      </trkpt>
      <trkpt lat="46.13548" lon="6.52765">
        <ele>734</ele>
        <time>2011-07-24T11:33:18Z</time>
      </trkpt>
      <trkpt lat="46.13548" lon="6.52752">
        <ele>734</ele>
        <time>2011-07-24T11:33:19Z</time>
      </trkpt>
      <trkpt lat="46.13547" lon="6.52738">
        <ele>729</ele>
        <time>2011-07-24T11:33:20Z</time>
      </trkpt>
      <trkpt lat="46.13546" lon="6.52725">
        <ele>729</ele>
        <time>2011-07-24T11:33:21Z</time>
      </trkpt>
      <trkpt lat="46.13545" lon="6.52711">
        <ele>729</ele>
        <time>2011-07-24T11:33:22Z</time>
      </trkpt>
      <trkpt lat="46.13545" lon="6.52687">
        <ele>729</ele>
        <time>2011-07-24T11:33:24Z</time>
      </trkpt>
      <trkpt lat="46.13548" lon="6.52665">
        <ele>729</ele>
        <time>2011-07-24T11:33:26Z</time>
      </trkpt>
      <trkpt lat="46.13555" lon="6.52644">
        <ele>723</ele>
        <time>2011-07-24T11:33:28Z</time>
      </trkpt>
      <trkpt lat="46.13561" lon="6.52619">
        <ele>723</ele>
        <time>2011-07-24T11:33:30Z</time>
      </trkpt>
      <trkpt lat="46.13563" lon="6.52605">
        <ele>723</ele>
        <time>2011-07-24T11:33:31Z</time>
      </trkpt>
      <trkpt lat="46.13564" lon="6.52591">
        <ele>718</ele>
        <time>2011-07-24T11:33:32Z</time>
      </trkpt>
      <trkpt lat="46.13566" lon="6.52577">
        <ele>718</ele>
        <time>2011-07-24T11:33:33Z</time>
      </trkpt>
      <trkpt lat="46.13568" lon="6.52562">
        <ele>718</ele>
        <time>2011-07-24T11:33:34Z</time>
      </trkpt>
      <trkpt lat="46.1357" lon="6.52548">
        <ele>713</ele>
        <time>2011-07-24T11:33:35Z</time>
      </trkpt>
      <trkpt lat="46.13574" lon="6.52534">
        <ele>713</ele>
        <time>2011-07-24T11:33:36Z</time>
      </trkpt>
      <trkpt lat="46.13578" lon="6.5252">
        <ele>713</ele>
        <time>2011-07-24T11:33:37Z</time>
      </trkpt>
      <trkpt lat="46.13582" lon="6.52507">
        <ele>713</ele>
        <time>2011-07-24T11:33:38Z</time>
      </trkpt>
      <trkpt lat="46.13586" lon="6.52492">
        <ele>713</ele>
        <time>2011-07-24T11:33:39Z</time>
      </trkpt>
      <trkpt lat="46.1359" lon="6.52478">
        <ele>707</ele>
        <time>2011-07-24T11:33:40Z</time>
      </trkpt>
      <trkpt lat="46.13595" lon="6.52464">
        <ele>707</ele>
        <time>2011-07-24T11:33:41Z</time>
      </trkpt>
      <trkpt lat="46.136" lon="6.52451">
        <ele>707</ele>
        <time>2011-07-24T11:33:42Z</time>
      </trkpt>
      <trkpt lat="46.13604" lon="6.52436">
        <ele>707</ele>
        <time>2011-07-24T11:33:43Z</time>
      </trkpt>
      <trkpt lat="46.13608" lon="6.52422">
        <ele>701</ele>
        <time>2011-07-24T11:33:44Z</time>
      </trkpt>
      <trkpt lat="46.13614" lon="6.52409">
        <ele>701</ele>
        <time>2011-07-24T11:33:45Z</time>
      </trkpt>
      <trkpt lat="46.13619" lon="6.52395">
        <ele>701</ele>
        <time>2011-07-24T11:33:46Z</time>
      </trkpt>
      <trkpt lat="46.13624" lon="6.52382">
        <ele>701</ele>
        <time>2011-07-24T11:33:47Z</time>
      </trkpt>
      <trkpt lat="46.13629" lon="6.52369">
        <ele>695</ele>
        <time>2011-07-24T11:33:48Z</time>
      </trkpt>
      <trkpt lat="46.13631" lon="6.52357">
        <ele>695</ele>
        <time>2011-07-24T11:33:49Z</time>
      </trkpt>
      <trkpt lat="46.13634" lon="6.52344">
        <ele>695</ele>
        <time>2011-07-24T11:33:50Z</time>
      </trkpt>
      <trkpt lat="46.13639" lon="6.52323">
        <ele>695</ele>
        <time>2011-07-24T11:33:52Z</time>
      </trkpt>
      <trkpt lat="46.13648" lon="6.52304">
        <ele>690</ele>
        <time>2011-07-24T11:33:54Z</time>
      </trkpt>
      <trkpt lat="46.13656" lon="6.52288">
        <ele>690</ele>
        <time>2011-07-24T11:33:56Z</time>
      </trkpt>
      <trkpt lat="46.13663" lon="6.52276">
        <ele>690</ele>
        <time>2011-07-24T11:33:58Z</time>
      </trkpt>
      <trkpt lat="46.13657" lon="6.52265">
        <ele>690</ele>
        <time>2011-07-24T11:34:01Z</time>
      </trkpt>
      <trkpt lat="46.13644" lon="6.52267">
        <ele>690</ele>
        <time>2011-07-24T11:34:03Z</time>
      </trkpt>
      <trkpt lat="46.13634" lon="6.52269">
        <ele>690</ele>
        <time>2011-07-24T11:34:04Z</time>
      </trkpt>
      <trkpt lat="46.13623" lon="6.52273">
        <ele>684</ele>
        <time>2011-07-24T11:34:05Z</time>
      </trkpt>
      <trkpt lat="46.13611" lon="6.52279">
        <ele>684</ele>
        <time>2011-07-24T11:34:06Z</time>
      </trkpt>
      <trkpt lat="46.13598" lon="6.52286">
        <ele>684</ele>
        <time>2011-07-24T11:34:07Z</time>
      </trkpt>
      <trkpt lat="46.13586" lon="6.52292">
        <ele>684</ele>
        <time>2011-07-24T11:34:08Z</time>
      </trkpt>
      <trkpt lat="46.13574" lon="6.52298">
        <ele>684</ele>
        <time>2011-07-24T11:34:09Z</time>
      </trkpt>
      <trkpt lat="46.13564" lon="6.52305">
        <ele>684</ele>
        <time>2011-07-24T11:34:10Z</time>
      </trkpt>
      <trkpt lat="46.13556" lon="6.52314">
        <ele>684</ele>
        <time>2011-07-24T11:34:11Z</time>
      </trkpt>
      <trkpt lat="46.13547" lon="6.52322">
        <ele>678</ele>
        <time>2011-07-24T11:34:12Z</time>
      </trkpt>
      <trkpt lat="46.13538" lon="6.52331">
        <ele>678</ele>
        <time>2011-07-24T11:34:13Z</time>
      </trkpt>
      <trkpt lat="46.1353" lon="6.5234">
        <ele>678</ele>
        <time>2011-07-24T11:34:14Z</time>
      </trkpt>
      <trkpt lat="46.13524" lon="6.5235">
        <ele>678</ele>
        <time>2011-07-24T11:34:15Z</time>
      </trkpt>
      <trkpt lat="46.13518" lon="6.52371">
        <ele>673</ele>
        <time>2011-07-24T11:34:17Z</time>
      </trkpt>
      <trkpt lat="46.13511" lon="6.5239">
        <ele>673</ele>
        <time>2011-07-24T11:34:19Z</time>
      </trkpt>
      <trkpt lat="46.13505" lon="6.52409">
        <ele>673</ele>
        <time>2011-07-24T11:34:21Z</time>
      </trkpt>
      <trkpt lat="46.13498" lon="6.52429">
        <ele>673</ele>
        <time>2011-07-24T11:34:23Z</time>
      </trkpt>
      <trkpt lat="46.13492" lon="6.52449">
        <ele>673</ele>
        <time>2011-07-24T11:34:25Z</time>
      </trkpt>
      <trkpt lat="46.13486" lon="6.52468">
        <ele>673</ele>
        <time>2011-07-24T11:34:27Z</time>
      </trkpt>
      <trkpt lat="46.13474" lon="6.52481">
        <ele>666</ele>
        <time>2011-07-24T11:34:29Z</time>
      </trkpt>
      <trkpt lat="46.1346" lon="6.52488">
        <ele>666</ele>
        <time>2011-07-24T11:34:31Z</time>
      </trkpt>
      <trkpt lat="46.13445" lon="6.52494">
        <ele>666</ele>
        <time>2011-07-24T11:34:33Z</time>
      </trkpt>
      <trkpt lat="46.13431" lon="6.52508">
        <ele>666</ele>
        <time>2011-07-24T11:34:35Z</time>
      </trkpt>
      <trkpt lat="46.13423" lon="6.52518">
        <ele>666</ele>
        <time>2011-07-24T11:34:36Z</time>
      </trkpt>
      <trkpt lat="46.13415" lon="6.5253">
        <ele>660</ele>
        <time>2011-07-24T11:34:37Z</time>
      </trkpt>
      <trkpt lat="46.13407" lon="6.52543">
        <ele>660</ele>
        <time>2011-07-24T11:34:38Z</time>
      </trkpt>
      <trkpt lat="46.134" lon="6.52557">
        <ele>660</ele>
        <time>2011-07-24T11:34:39Z</time>
      </trkpt>
      <trkpt lat="46.13395" lon="6.52571">
        <ele>660</ele>
        <time>2011-07-24T11:34:40Z</time>
      </trkpt>
      <trkpt lat="46.13388" lon="6.52586">
        <ele>660</ele>
        <time>2011-07-24T11:34:41Z</time>
      </trkpt>
      <trkpt lat="46.13382" lon="6.526">
        <ele>654</ele>
        <time>2011-07-24T11:34:42Z</time>
      </trkpt>
      <trkpt lat="46.13375" lon="6.52614">
        <ele>654</ele>
        <time>2011-07-24T11:34:43Z</time>
      </trkpt>
      <trkpt lat="46.13369" lon="6.52627">
        <ele>654</ele>
        <time>2011-07-24T11:34:44Z</time>
      </trkpt>
      <trkpt lat="46.13363" lon="6.5264">
        <ele>654</ele>
        <time>2011-07-24T11:34:45Z</time>
      </trkpt>
      <trkpt lat="46.13357" lon="6.52654">
        <ele>654</ele>
        <time>2011-07-24T11:34:46Z</time>
      </trkpt>
      <trkpt lat="46.1335" lon="6.52666">
        <ele>649</ele>
        <time>2011-07-24T11:34:47Z</time>
      </trkpt>
      <trkpt lat="46.13344" lon="6.52676">
        <ele>649</ele>
        <time>2011-07-24T11:34:48Z</time>
      </trkpt>
      <trkpt lat="46.13337" lon="6.52686">
        <ele>649</ele>
        <time>2011-07-24T11:34:49Z</time>
      </trkpt>
      <trkpt lat="46.1333" lon="6.52695">
        <ele>649</ele>
        <time>2011-07-24T11:34:50Z</time>
      </trkpt>
      <trkpt lat="46.13316" lon="6.5271">
        <ele>649</ele>
        <time>2011-07-24T11:34:52Z</time>
      </trkpt>
      <trkpt lat="46.133" lon="6.52713">
        <ele>642</ele>
        <time>2011-07-24T11:34:54Z</time>
      </trkpt>
      <trkpt lat="46.13287" lon="6.52707">
        <ele>642</ele>
        <time>2011-07-24T11:34:56Z</time>
      </trkpt>
      <trkpt lat="46.1328" lon="6.52693">
        <ele>642</ele>
        <time>2011-07-24T11:34:58Z</time>
      </trkpt>
      <trkpt lat="46.13272" lon="6.52682">
        <ele>642</ele>
        <time>2011-07-24T11:35:00Z</time>
      </trkpt>
      <trkpt lat="46.13263" lon="6.5268">
        <ele>642</ele>
        <time>2011-07-24T11:35:02Z</time>
      </trkpt>
      <trkpt lat="46.13255" lon="6.52692">
        <ele>642</ele>
        <time>2011-07-24T11:35:04Z</time>
      </trkpt>
      <trkpt lat="46.13255" lon="6.52712">
        <ele>642</ele>
        <time>2011-07-24T11:35:06Z</time>
      </trkpt>
      <trkpt lat="46.13253" lon="6.52737">
        <ele>642</ele>
        <time>2011-07-24T11:35:08Z</time>
      </trkpt>
      <trkpt lat="46.13251" lon="6.52752">
        <ele>642</ele>
        <time>2011-07-24T11:35:09Z</time>
      </trkpt>
      <trkpt lat="46.13248" lon="6.52767">
        <ele>642</ele>
        <time>2011-07-24T11:35:10Z</time>
      </trkpt>
      <trkpt lat="46.13244" lon="6.52781">
        <ele>642</ele>
        <time>2011-07-24T11:35:11Z</time>
      </trkpt>
      <trkpt lat="46.1324" lon="6.52794">
        <ele>642</ele>
        <time>2011-07-24T11:35:12Z</time>
      </trkpt>
      <trkpt lat="46.13235" lon="6.52807">
        <ele>642</ele>
        <time>2011-07-24T11:35:13Z</time>
      </trkpt>
      <trkpt lat="46.13225" lon="6.52826">
        <ele>642</ele>
        <time>2011-07-24T11:35:15Z</time>
      </trkpt>
      <trkpt lat="46.13215" lon="6.52838">
        <ele>642</ele>
        <time>2011-07-24T11:35:17Z</time>
      </trkpt>
      <trkpt lat="46.13205" lon="6.52848">
        <ele>642</ele>
        <time>2011-07-24T11:35:20Z</time>
      </trkpt>
      <trkpt lat="46.13205" lon="6.52861">
        <ele>642</ele>
        <time>2011-07-24T11:37:15Z</time>
      </trkpt>
      <trkpt lat="46.13212" lon="6.5287">
        <ele>652</ele>
        <time>2011-07-24T11:38:20Z</time>
      </trkpt>
      <trkpt lat="46.13214" lon="6.52857">
        <ele>637</ele>
        <time>2011-07-24T11:39:23Z</time>
      </trkpt>
      <trkpt lat="46.13204" lon="6.52857">
        <ele>612</ele>
        <time>2011-07-24T11:40:29Z</time>
      </trkpt>
      <trkpt lat="46.13213" lon="6.52861">
        <ele>649</ele>
        <time>2011-07-24T11:41:21Z</time>
      </trkpt>
      <trkpt lat="46.13205" lon="6.52868">
        <ele>637</ele>
        <time>2011-07-24T11:43:11Z</time>
      </trkpt>
      <trkpt lat="46.13215" lon="6.52869">
        <ele>637</ele>
        <time>2011-07-24T11:43:17Z</time>
      </trkpt>
      <trkpt lat="46.13224" lon="6.52857">
        <ele>637</ele>
        <time>2011-07-24T11:43:19Z</time>
      </trkpt>
      <trkpt lat="46.13233" lon="6.52843">
        <ele>637</ele>
        <time>2011-07-24T11:43:21Z</time>
      </trkpt>
      <trkpt lat="46.1324" lon="6.52826">
        <ele>637</ele>
        <time>2011-07-24T11:43:23Z</time>
      </trkpt>
      <trkpt lat="46.13248" lon="6.52807">
        <ele>637</ele>
        <time>2011-07-24T11:43:25Z</time>
      </trkpt>
      <trkpt lat="46.13253" lon="6.52795">
        <ele>637</ele>
        <time>2011-07-24T11:43:26Z</time>
      </trkpt>
      <trkpt lat="46.13257" lon="6.52782">
        <ele>637</ele>
        <time>2011-07-24T11:43:27Z</time>
      </trkpt>
      <trkpt lat="46.1326" lon="6.5277">
        <ele>637</ele>
        <time>2011-07-24T11:43:28Z</time>
      </trkpt>
      <trkpt lat="46.13266" lon="6.52748">
        <ele>637</ele>
        <time>2011-07-24T11:43:30Z</time>
      </trkpt>
      <trkpt lat="46.13273" lon="6.52729">
        <ele>637</ele>
        <time>2011-07-24T11:43:32Z</time>
      </trkpt>
      <trkpt lat="46.13282" lon="6.52708">
        <ele>637</ele>
        <time>2011-07-24T11:43:34Z</time>
      </trkpt>
      <trkpt lat="46.13285" lon="6.52695">
        <ele>637</ele>
        <time>2011-07-24T11:43:35Z</time>
      </trkpt>
      <trkpt lat="46.13288" lon="6.52682">
        <ele>637</ele>
        <time>2011-07-24T11:43:36Z</time>
      </trkpt>
      <trkpt lat="46.13291" lon="6.52667">
        <ele>637</ele>
        <time>2011-07-24T11:43:37Z</time>
      </trkpt>
      <trkpt lat="46.13295" lon="6.52654">
        <ele>637</ele>
        <time>2011-07-24T11:43:38Z</time>
      </trkpt>
      <trkpt lat="46.13299" lon="6.5264">
        <ele>637</ele>
        <time>2011-07-24T11:43:39Z</time>
      </trkpt>
      <trkpt lat="46.13303" lon="6.52628">
        <ele>637</ele>
        <time>2011-07-24T11:43:40Z</time>
      </trkpt>
      <trkpt lat="46.1331" lon="6.52605">
        <ele>643</ele>
        <time>2011-07-24T11:43:42Z</time>
      </trkpt>
      <trkpt lat="46.13317" lon="6.52581">
        <ele>643</ele>
        <time>2011-07-24T11:43:44Z</time>
      </trkpt>
      <trkpt lat="46.13325" lon="6.52558">
        <ele>643</ele>
        <time>2011-07-24T11:43:46Z</time>
      </trkpt>
      <trkpt lat="46.13328" lon="6.52544">
        <ele>643</ele>
        <time>2011-07-24T11:43:47Z</time>
      </trkpt>
      <trkpt lat="46.13332" lon="6.52531">
        <ele>643</ele>
        <time>2011-07-24T11:43:48Z</time>
      </trkpt>
      <trkpt lat="46.13335" lon="6.52518">
        <ele>643</ele>
        <time>2011-07-24T11:43:49Z</time>
      </trkpt>
      <trkpt lat="46.13339" lon="6.52505">
        <ele>643</ele>
        <time>2011-07-24T11:43:50Z</time>
      </trkpt>
      <trkpt lat="46.13343" lon="6.52492">
        <ele>643</ele>
        <time>2011-07-24T11:43:51Z</time>
      </trkpt>
      <trkpt lat="46.13346" lon="6.5248">
        <ele>643</ele>
        <time>2011-07-24T11:43:52Z</time>
      </trkpt>
      <trkpt lat="46.13349" lon="6.52467">
        <ele>643</ele>
        <time>2011-07-24T11:43:53Z</time>
      </trkpt>
      <trkpt lat="46.13355" lon="6.52445">
        <ele>643</ele>
        <time>2011-07-24T11:43:55Z</time>
      </trkpt>
      <trkpt lat="46.13357" lon="6.52432">
        <ele>643</ele>
        <time>2011-07-24T11:43:56Z</time>
      </trkpt>
      <trkpt lat="46.13361" lon="6.5241">
        <ele>643</ele>
        <time>2011-07-24T11:43:58Z</time>
      </trkpt>
      <trkpt lat="46.13364" lon="6.52393">
        <ele>643</ele>
        <time>2011-07-24T11:44:00Z</time>
      </trkpt>
      <trkpt lat="46.13368" lon="6.52377">
        <ele>643</ele>
        <time>2011-07-24T11:44:03Z</time>
      </trkpt>
      <trkpt lat="46.13366" lon="6.52364">
        <ele>643</ele>
        <time>2011-07-24T11:48:56Z</time>
      </trkpt>
      <trkpt lat="46.13368" lon="6.52347">
        <ele>643</ele>
        <time>2011-07-24T11:48:59Z</time>
      </trkpt>
      <trkpt lat="46.13373" lon="6.52331">
        <ele>643</ele>
        <time>2011-07-24T11:49:02Z</time>
      </trkpt>
      <trkpt lat="46.13381" lon="6.52337">
        <ele>643</ele>
        <time>2011-07-24T11:49:06Z</time>
      </trkpt>
      <trkpt lat="46.13387" lon="6.52347">
        <ele>643</ele>
        <time>2011-07-24T11:49:09Z</time>
      </trkpt>
      <trkpt lat="46.13382" lon="6.52332">
        <ele>643</ele>
        <time>2011-07-24T12:23:53Z</time>
      </trkpt>
      <trkpt lat="46.13377" lon="6.52321">
        <ele>643</ele>
        <time>2011-07-24T12:24:03Z</time>
      </trkpt>
      <trkpt lat="46.13388" lon="6.52308">
        <ele>643</ele>
        <time>2011-07-24T12:24:07Z</time>
      </trkpt>
      <trkpt lat="46.13399" lon="6.52296">
        <ele>648</ele>
        <time>2011-07-24T12:24:09Z</time>
      </trkpt>
      <trkpt lat="46.13409" lon="6.5228">
        <ele>648</ele>
        <time>2011-07-24T12:24:11Z</time>
      </trkpt>
      <trkpt lat="46.13418" lon="6.52269">
        <ele>648</ele>
        <time>2011-07-24T12:24:13Z</time>
      </trkpt>
      <trkpt lat="46.13428" lon="6.5227">
        <ele>648</ele>
        <time>2011-07-24T12:24:15Z</time>
      </trkpt>
      <trkpt lat="46.1343" lon="6.5229">
        <ele>648</ele>
        <time>2011-07-24T12:24:17Z</time>
      </trkpt>
      <trkpt lat="46.13428" lon="6.52313">
        <ele>648</ele>
        <time>2011-07-24T12:24:19Z</time>
      </trkpt>
      <trkpt lat="46.13433" lon="6.52336">
        <ele>648</ele>
        <time>2011-07-24T12:24:21Z</time>
      </trkpt>
      <trkpt lat="46.13438" lon="6.52348">
        <ele>648</ele>
        <time>2011-07-24T12:24:22Z</time>
      </trkpt>
      <trkpt lat="46.13443" lon="6.52359">
        <ele>648</ele>
        <time>2011-07-24T12:24:23Z</time>
      </trkpt>
      <trkpt lat="46.13448" lon="6.52371">
        <ele>653</ele>
        <time>2011-07-24T12:24:24Z</time>
      </trkpt>
      <trkpt lat="46.13451" lon="6.52394">
        <ele>653</ele>
        <time>2011-07-24T12:24:26Z</time>
      </trkpt>
      <trkpt lat="46.13452" lon="6.52408">
        <ele>653</ele>
        <time>2011-07-24T12:24:27Z</time>
      </trkpt>
      <trkpt lat="46.13453" lon="6.52431">
        <ele>653</ele>
        <time>2011-07-24T12:24:29Z</time>
      </trkpt>
      <trkpt lat="46.13454" lon="6.52454">
        <ele>653</ele>
        <time>2011-07-24T12:24:31Z</time>
      </trkpt>
      <trkpt lat="46.13453" lon="6.52472">
        <ele>659</ele>
        <time>2011-07-24T12:24:33Z</time>
      </trkpt>
      <trkpt lat="46.13451" lon="6.52486">
        <ele>659</ele>
        <time>2011-07-24T12:24:35Z</time>
      </trkpt>
      <trkpt lat="46.1346" lon="6.52499">
        <ele>659</ele>
        <time>2011-07-24T12:24:38Z</time>
      </trkpt>
      <trkpt lat="46.13476" lon="6.52492">
        <ele>659</ele>
        <time>2011-07-24T12:24:40Z</time>
      </trkpt>
      <trkpt lat="46.13484" lon="6.52485">
        <ele>659</ele>
        <time>2011-07-24T12:24:41Z</time>
      </trkpt>
      <trkpt lat="46.13493" lon="6.52473">
        <ele>665</ele>
        <time>2011-07-24T12:24:42Z</time>
      </trkpt>
      <trkpt lat="46.13499" lon="6.52457">
        <ele>665</ele>
        <time>2011-07-24T12:24:43Z</time>
      </trkpt>
      <trkpt lat="46.13505" lon="6.5244">
        <ele>665</ele>
        <time>2011-07-24T12:24:44Z</time>
      </trkpt>
      <trkpt lat="46.1351" lon="6.52423">
        <ele>665</ele>
        <time>2011-07-24T12:24:45Z</time>
      </trkpt>
      <trkpt lat="46.13514" lon="6.52408">
        <ele>665</ele>
        <time>2011-07-24T12:24:46Z</time>
      </trkpt>
      <trkpt lat="46.13518" lon="6.52392">
        <ele>670</ele>
        <time>2011-07-24T12:24:47Z</time>
      </trkpt>
      <trkpt lat="46.13523" lon="6.52375">
        <ele>670</ele>
        <time>2011-07-24T12:24:48Z</time>
      </trkpt>
      <trkpt lat="46.13527" lon="6.52358">
        <ele>670</ele>
        <time>2011-07-24T12:24:49Z</time>
      </trkpt>
      <trkpt lat="46.13533" lon="6.52344">
        <ele>670</ele>
        <time>2011-07-24T12:24:50Z</time>
      </trkpt>
      <trkpt lat="46.1354" lon="6.52331">
        <ele>670</ele>
        <time>2011-07-24T12:24:51Z</time>
      </trkpt>
      <trkpt lat="46.1355" lon="6.52318">
        <ele>670</ele>
        <time>2011-07-24T12:24:52Z</time>
      </trkpt>
      <trkpt lat="46.13562" lon="6.52306">
        <ele>670</ele>
        <time>2011-07-24T12:24:53Z</time>
      </trkpt>
      <trkpt lat="46.13575" lon="6.52296">
        <ele>670</ele>
        <time>2011-07-24T12:24:54Z</time>
      </trkpt>
      <trkpt lat="46.13588" lon="6.52287">
        <ele>676</ele>
        <time>2011-07-24T12:24:55Z</time>
      </trkpt>
      <trkpt lat="46.13602" lon="6.5228">
        <ele>676</ele>
        <time>2011-07-24T12:24:56Z</time>
      </trkpt>
      <trkpt lat="46.13615" lon="6.52273">
        <ele>676</ele>
        <time>2011-07-24T12:24:57Z</time>
      </trkpt>
      <trkpt lat="46.13626" lon="6.52269">
        <ele>676</ele>
        <time>2011-07-24T12:24:58Z</time>
      </trkpt>
      <trkpt lat="46.13643" lon="6.52272">
        <ele>676</ele>
        <time>2011-07-24T12:25:00Z</time>
      </trkpt>
      <trkpt lat="46.13649" lon="6.52289">
        <ele>676</ele>
        <time>2011-07-24T12:25:02Z</time>
      </trkpt>
      <trkpt lat="46.13641" lon="6.5231">
        <ele>681</ele>
        <time>2011-07-24T12:25:04Z</time>
      </trkpt>
      <trkpt lat="46.13636" lon="6.52322">
        <ele>681</ele>
        <time>2011-07-24T12:25:05Z</time>
      </trkpt>
      <trkpt lat="46.13631" lon="6.52337">
        <ele>681</ele>
        <time>2011-07-24T12:25:06Z</time>
      </trkpt>
      <trkpt lat="46.13627" lon="6.52353">
        <ele>681</ele>
        <time>2011-07-24T12:25:07Z</time>
      </trkpt>
      <trkpt lat="46.13622" lon="6.52369">
        <ele>681</ele>
        <time>2011-07-24T12:25:08Z</time>
      </trkpt>
      <trkpt lat="46.13616" lon="6.52385">
        <ele>681</ele>
        <time>2011-07-24T12:25:09Z</time>
      </trkpt>
      <trkpt lat="46.1361" lon="6.52402">
        <ele>688</ele>
        <time>2011-07-24T12:25:10Z</time>
      </trkpt>
      <trkpt lat="46.13604" lon="6.52419">
        <ele>688</ele>
        <time>2011-07-24T12:25:11Z</time>
      </trkpt>
      <trkpt lat="46.13598" lon="6.52437">
        <ele>688</ele>
        <time>2011-07-24T12:25:12Z</time>
      </trkpt>
      <trkpt lat="46.13591" lon="6.52456">
        <ele>695</ele>
        <time>2011-07-24T12:25:13Z</time>
      </trkpt>
      <trkpt lat="46.13584" lon="6.52477">
        <ele>695</ele>
        <time>2011-07-24T12:25:14Z</time>
      </trkpt>
      <trkpt lat="46.13578" lon="6.52498">
        <ele>695</ele>
        <time>2011-07-24T12:25:15Z</time>
      </trkpt>
      <trkpt lat="46.13573" lon="6.52517">
        <ele>701</ele>
        <time>2011-07-24T12:25:16Z</time>
      </trkpt>
      <trkpt lat="46.13568" lon="6.52534">
        <ele>701</ele>
        <time>2011-07-24T12:25:17Z</time>
      </trkpt>
      <trkpt lat="46.13563" lon="6.52552">
        <ele>701</ele>
        <time>2011-07-24T12:25:18Z</time>
      </trkpt>
      <trkpt lat="46.1356" lon="6.5257">
        <ele>707</ele>
        <time>2011-07-24T12:25:19Z</time>
      </trkpt>
      <trkpt lat="46.13558" lon="6.5259">
        <ele>707</ele>
        <time>2011-07-24T12:25:20Z</time>
      </trkpt>
      <trkpt lat="46.13556" lon="6.52611">
        <ele>707</ele>
        <time>2011-07-24T12:25:21Z</time>
      </trkpt>
      <trkpt lat="46.13553" lon="6.52631">
        <ele>713</ele>
        <time>2011-07-24T12:25:22Z</time>
      </trkpt>
      <trkpt lat="46.13549" lon="6.52647">
        <ele>713</ele>
        <time>2011-07-24T12:25:23Z</time>
      </trkpt>
      <trkpt lat="46.13545" lon="6.5266">
        <ele>713</ele>
        <time>2011-07-24T12:25:24Z</time>
      </trkpt>
      <trkpt lat="46.13541" lon="6.52674">
        <ele>713</ele>
        <time>2011-07-24T12:25:25Z</time>
      </trkpt>
      <trkpt lat="46.13539" lon="6.52688">
        <ele>719</ele>
        <time>2011-07-24T12:25:26Z</time>
      </trkpt>
      <trkpt lat="46.13538" lon="6.52703">
        <ele>719</ele>
        <time>2011-07-24T12:25:27Z</time>
      </trkpt>
      <trkpt lat="46.13538" lon="6.5272">
        <ele>719</ele>
        <time>2011-07-24T12:25:28Z</time>
      </trkpt>
      <trkpt lat="46.1354" lon="6.52738">
        <ele>719</ele>
        <time>2011-07-24T12:25:29Z</time>
      </trkpt>
      <trkpt lat="46.13541" lon="6.52758">
        <ele>719</ele>
        <time>2011-07-24T12:25:30Z</time>
      </trkpt>
      <trkpt lat="46.13541" lon="6.52779">
        <ele>724</ele>
        <time>2011-07-24T12:25:31Z</time>
      </trkpt>
      <trkpt lat="46.1354" lon="6.52799">
        <ele>724</ele>
        <time>2011-07-24T12:25:32Z</time>
      </trkpt>
      <trkpt lat="46.13537" lon="6.52821">
        <ele>724</ele>
        <time>2011-07-24T12:25:33Z</time>
      </trkpt>
      <trkpt lat="46.13533" lon="6.52843">
        <ele>724</ele>
        <time>2011-07-24T12:25:34Z</time>
      </trkpt>
      <trkpt lat="46.1353" lon="6.52863">
        <ele>724</ele>
        <time>2011-07-24T12:25:35Z</time>
      </trkpt>
      <trkpt lat="46.13525" lon="6.52882">
        <ele>724</ele>
        <time>2011-07-24T12:25:36Z</time>
      </trkpt>
      <trkpt lat="46.1352" lon="6.52901">
        <ele>724</ele>
        <time>2011-07-24T12:25:37Z</time>
      </trkpt>
      <trkpt lat="46.13516" lon="6.5292">
        <ele>724</ele>
        <time>2011-07-24T12:25:38Z</time>
      </trkpt>
      <trkpt lat="46.13511" lon="6.52938">
        <ele>724</ele>
        <time>2011-07-24T12:25:39Z</time>
      </trkpt>
      <trkpt lat="46.13506" lon="6.52956">
        <ele>724</ele>
        <time>2011-07-24T12:25:40Z</time>
      </trkpt>
      <trkpt lat="46.13501" lon="6.52974">
        <ele>724</ele>
        <time>2011-07-24T12:25:41Z</time>
      </trkpt>
      <trkpt lat="46.13495" lon="6.52991">
        <ele>724</ele>
        <time>2011-07-24T12:25:42Z</time>
      </trkpt>
      <trkpt lat="46.13488" lon="6.53005">
        <ele>724</ele>
        <time>2011-07-24T12:25:43Z</time>
      </trkpt>
      <trkpt lat="46.13481" lon="6.53018">
        <ele>731</ele>
        <time>2011-07-24T12:25:44Z</time>
      </trkpt>
      <trkpt lat="46.13476" lon="6.53029">
        <ele>731</ele>
        <time>2011-07-24T12:25:45Z</time>
      </trkpt>
      <trkpt lat="46.13471" lon="6.53041">
        <ele>731</ele>
        <time>2011-07-24T12:25:46Z</time>
      </trkpt>
      <trkpt lat="46.13466" lon="6.53053">
        <ele>731</ele>
        <time>2011-07-24T12:25:47Z</time>
      </trkpt>
      <trkpt lat="46.1346" lon="6.53064">
        <ele>737</ele>
        <time>2011-07-24T12:25:48Z</time>
      </trkpt>
      <trkpt lat="46.13455" lon="6.53078">
        <ele>737</ele>
        <time>2011-07-24T12:25:49Z</time>
      </trkpt>
      <trkpt lat="46.13449" lon="6.53092">
        <ele>737</ele>
        <time>2011-07-24T12:25:50Z</time>
      </trkpt>
      <trkpt lat="46.13444" lon="6.53106">
        <ele>737</ele>
        <time>2011-07-24T12:25:51Z</time>
      </trkpt>
      <trkpt lat="46.13438" lon="6.53121">
        <ele>737</ele>
        <time>2011-07-24T12:25:52Z</time>
      </trkpt>
      <trkpt lat="46.13432" lon="6.53135">
        <ele>743</ele>
        <time>2011-07-24T12:25:53Z</time>
      </trkpt>
      <trkpt lat="46.13424" lon="6.53149">
        <ele>743</ele>
        <time>2011-07-24T12:25:54Z</time>
      </trkpt>
      <trkpt lat="46.13416" lon="6.53162">
        <ele>743</ele>
        <time>2011-07-24T12:25:55Z</time>
      </trkpt>
      <trkpt lat="46.13409" lon="6.53176">
        <ele>743</ele>
        <time>2011-07-24T12:25:56Z</time>
      </trkpt>
      <trkpt lat="46.13402" lon="6.5319">
        <ele>743</ele>
        <time>2011-07-24T12:25:57Z</time>
      </trkpt>
      <trkpt lat="46.13395" lon="6.53205">
        <ele>749</ele>
        <time>2011-07-24T12:25:58Z</time>
      </trkpt>
      <trkpt lat="46.13388" lon="6.53219">
        <ele>749</ele>
        <time>2011-07-24T12:25:59Z</time>
      </trkpt>
      <trkpt lat="46.13383" lon="6.53233">
        <ele>749</ele>
        <time>2011-07-24T12:26:00Z</time>
      </trkpt>
      <trkpt lat="46.13377" lon="6.53249">
        <ele>749</ele>
        <time>2011-07-24T12:26:01Z</time>
      </trkpt>
      <trkpt lat="46.13365" lon="6.53264">
        <ele>749</ele>
        <time>2011-07-24T12:26:02Z</time>
      </trkpt>
      <trkpt lat="46.13354" lon="6.53277">
        <ele>755</ele>
        <time>2011-07-24T12:26:03Z</time>
      </trkpt>
      <trkpt lat="46.13347" lon="6.53292">
        <ele>755</ele>
        <time>2011-07-24T12:26:04Z</time>
      </trkpt>
      <trkpt lat="46.13339" lon="6.53304">
        <ele>755</ele>
        <time>2011-07-24T12:26:05Z</time>
      </trkpt>
      <trkpt lat="46.13331" lon="6.53316">
        <ele>761</ele>
        <time>2011-07-24T12:26:06Z</time>
      </trkpt>
      <trkpt lat="46.13323" lon="6.53327">
        <ele>761</ele>
        <time>2011-07-24T12:26:07Z</time>
      </trkpt>
      <trkpt lat="46.13314" lon="6.53338">
        <ele>761</ele>
        <time>2011-07-24T12:26:08Z</time>
      </trkpt>
      <trkpt lat="46.13306" lon="6.53349">
        <ele>761</ele>
        <time>2011-07-24T12:26:09Z</time>
      </trkpt>
      <trkpt lat="46.13298" lon="6.5336">
        <ele>761</ele>
        <time>2011-07-24T12:26:10Z</time>
      </trkpt>
      <trkpt lat="46.13292" lon="6.5337">
        <ele>767</ele>
        <time>2011-07-24T12:26:11Z</time>
      </trkpt>
      <trkpt lat="46.13281" lon="6.53386">
        <ele>767</ele>
        <time>2011-07-24T12:26:13Z</time>
      </trkpt>
      <trkpt lat="46.13269" lon="6.534">
        <ele>767</ele>
        <time>2011-07-24T12:26:15Z</time>
      </trkpt>
      <trkpt lat="46.1326" lon="6.53418">
        <ele>773</ele>
        <time>2011-07-24T12:26:17Z</time>
      </trkpt>
      <trkpt lat="46.13256" lon="6.5343">
        <ele>773</ele>
        <time>2011-07-24T12:26:18Z</time>
      </trkpt>
      <trkpt lat="46.1325" lon="6.53448">
        <ele>780</ele>
        <time>2011-07-24T12:26:20Z</time>
      </trkpt>
      <trkpt lat="46.13259" lon="6.53454">
        <ele>780</ele>
        <time>2011-07-24T12:26:47Z</time>
      </trkpt>
      <trkpt lat="46.1327" lon="6.53461">
        <ele>780</ele>
        <time>2011-07-24T12:26:51Z</time>
      </trkpt>
      <trkpt lat="46.1328" lon="6.53463">
        <ele>780</ele>
        <time>2011-07-24T12:26:54Z</time>
      </trkpt>
      <trkpt lat="46.1329" lon="6.53459">
        <ele>788</ele>
        <time>2011-07-24T12:26:57Z</time>
      </trkpt>
      <trkpt lat="46.13298" lon="6.53455">
        <ele>788</ele>
        <time>2011-07-24T12:26:59Z</time>
      </trkpt>
      <trkpt lat="46.13307" lon="6.53451">
        <ele>793</ele>
        <time>2011-07-24T12:27:01Z</time>
      </trkpt>
      <trkpt lat="46.13315" lon="6.53442">
        <ele>799</ele>
        <time>2011-07-24T12:27:32Z</time>
      </trkpt>
      <trkpt lat="46.13326" lon="6.53437">
        <ele>799</ele>
        <time>2011-07-24T12:27:35Z</time>
      </trkpt>
      <trkpt lat="46.13335" lon="6.53432">
        <ele>799</ele>
        <time>2011-07-24T12:27:37Z</time>
      </trkpt>
      <trkpt lat="46.13346" lon="6.53426">
        <ele>799</ele>
        <time>2011-07-24T12:27:39Z</time>
      </trkpt>
      <trkpt lat="46.1336" lon="6.53419">
        <ele>799</ele>
        <time>2011-07-24T12:27:41Z</time>
      </trkpt>
      <trkpt lat="46.13371" lon="6.53409">
        <ele>804</ele>
        <time>2011-07-24T12:27:43Z</time>
      </trkpt>
      <trkpt lat="46.13379" lon="6.53401">
        <ele>804</ele>
        <time>2011-07-24T12:27:45Z</time>
      </trkpt>
      <trkpt lat="46.13386" lon="6.53385">
        <ele>804</ele>
        <time>2011-07-24T12:27:48Z</time>
      </trkpt>
      <trkpt lat="46.13392" lon="6.53373">
        <ele>811</ele>
        <time>2011-07-24T12:27:50Z</time>
      </trkpt>
      <trkpt lat="46.13398" lon="6.53364">
        <ele>811</ele>
        <time>2011-07-24T12:27:52Z</time>
      </trkpt>
      <trkpt lat="46.13403" lon="6.53346">
        <ele>811</ele>
        <time>2011-07-24T12:27:55Z</time>
      </trkpt>
      <trkpt lat="46.1341" lon="6.53332">
        <ele>811</ele>
        <time>2011-07-24T12:27:59Z</time>
      </trkpt>
      <trkpt lat="46.13418" lon="6.53322">
        <ele>811</ele>
        <time>2011-07-24T12:28:03Z</time>
      </trkpt>
      <trkpt lat="46.13427" lon="6.53313">
        <ele>811</ele>
        <time>2011-07-24T12:28:06Z</time>
      </trkpt>
      <trkpt lat="46.13436" lon="6.53303">
        <ele>811</ele>
        <time>2011-07-24T12:28:09Z</time>
      </trkpt>
      <trkpt lat="46.13443" lon="6.53293">
        <ele>811</ele>
        <time>2011-07-24T12:28:11Z</time>
      </trkpt>
      <trkpt lat="46.13449" lon="6.53283">
        <ele>811</ele>
        <time>2011-07-24T12:28:13Z</time>
      </trkpt>
      <trkpt lat="46.13455" lon="6.53271">
        <ele>811</ele>
        <time>2011-07-24T12:28:15Z</time>
      </trkpt>
      <trkpt lat="46.13463" lon="6.53253">
        <ele>811</ele>
        <time>2011-07-24T12:28:17Z</time>
      </trkpt>
      <trkpt lat="46.13473" lon="6.53239">
        <ele>811</ele>
        <time>2011-07-24T12:28:19Z</time>
      </trkpt>
      <trkpt lat="46.13481" lon="6.53231">
        <ele>811</ele>
        <time>2011-07-24T12:28:21Z</time>
      </trkpt>
      <trkpt lat="46.13494" lon="6.5323">
        <ele>811</ele>
        <time>2011-07-24T12:28:24Z</time>
      </trkpt>
      <trkpt lat="46.13502" lon="6.53217">
        <ele>816</ele>
        <time>2011-07-24T12:28:26Z</time>
      </trkpt>
      <trkpt lat="46.13508" lon="6.53201">
        <ele>816</ele>
        <time>2011-07-24T12:28:29Z</time>
      </trkpt>
      <trkpt lat="46.13508" lon="6.53184">
        <ele>808</ele>
        <time>2011-07-24T12:28:32Z</time>
      </trkpt>
      <trkpt lat="46.13508" lon="6.5317">
        <ele>808</ele>
        <time>2011-07-24T12:28:35Z</time>
      </trkpt>
      <trkpt lat="46.13515" lon="6.53158">
        <ele>801</ele>
        <time>2011-07-24T12:28:38Z</time>
      </trkpt>
      <trkpt lat="46.13529" lon="6.53153">
        <ele>801</ele>
        <time>2011-07-24T12:28:41Z</time>
      </trkpt>
      <trkpt lat="46.13543" lon="6.53151">
        <ele>801</ele>
        <time>2011-07-24T12:28:43Z</time>
      </trkpt>
      <trkpt lat="46.1356" lon="6.53149">
        <ele>801</ele>
        <time>2011-07-24T12:28:45Z</time>
      </trkpt>
      <trkpt lat="46.13569" lon="6.53147">
        <ele>801</ele>
        <time>2011-07-24T12:28:46Z</time>
      </trkpt>
      <trkpt lat="46.13579" lon="6.53142">
        <ele>801</ele>
        <time>2011-07-24T12:28:47Z</time>
      </trkpt>
      <trkpt lat="46.1359" lon="6.53137">
        <ele>801</ele>
        <time>2011-07-24T12:28:48Z</time>
      </trkpt>
      <trkpt lat="46.13601" lon="6.53136">
        <ele>807</ele>
        <time>2011-07-24T12:28:49Z</time>
      </trkpt>
      <trkpt lat="46.13618" lon="6.53134">
        <ele>812</ele>
        <time>2011-07-24T12:28:51Z</time>
      </trkpt>
      <trkpt lat="46.13633" lon="6.53134">
        <ele>812</ele>
        <time>2011-07-24T12:28:53Z</time>
      </trkpt>
      <trkpt lat="46.13646" lon="6.53134">
        <ele>812</ele>
        <time>2011-07-24T12:28:55Z</time>
      </trkpt>
      <trkpt lat="46.13662" lon="6.53132">
        <ele>812</ele>
        <time>2011-07-24T12:28:57Z</time>
      </trkpt>
      <trkpt lat="46.13674" lon="6.53129">
        <ele>820</ele>
        <time>2011-07-24T12:28:59Z</time>
      </trkpt>
      <trkpt lat="46.13684" lon="6.53119">
        <ele>820</ele>
        <time>2011-07-24T12:29:01Z</time>
      </trkpt>
      <trkpt lat="46.13695" lon="6.53106">
        <ele>820</ele>
        <time>2011-07-24T12:29:03Z</time>
      </trkpt>
      <trkpt lat="46.13706" lon="6.53091">
        <ele>820</ele>
        <time>2011-07-24T12:29:05Z</time>
      </trkpt>
      <trkpt lat="46.13716" lon="6.53075">
        <ele>820</ele>
        <time>2011-07-24T12:29:07Z</time>
      </trkpt>
      <trkpt lat="46.13727" lon="6.53062">
        <ele>820</ele>
        <time>2011-07-24T12:29:09Z</time>
      </trkpt>
      <trkpt lat="46.13739" lon="6.5305">
        <ele>820</ele>
        <time>2011-07-24T12:29:11Z</time>
      </trkpt>
      <trkpt lat="46.13754" lon="6.5305">
        <ele>820</ele>
        <time>2011-07-24T12:29:13Z</time>
      </trkpt>
      <trkpt lat="46.13766" lon="6.53046">
        <ele>820</ele>
        <time>2011-07-24T12:29:15Z</time>
      </trkpt>
      <trkpt lat="46.13782" lon="6.5304">
        <ele>820</ele>
        <time>2011-07-24T12:29:17Z</time>
      </trkpt>
      <trkpt lat="46.13797" lon="6.53029">
        <ele>820</ele>
        <time>2011-07-24T12:29:19Z</time>
      </trkpt>
      <trkpt lat="46.13806" lon="6.53021">
        <ele>820</ele>
        <time>2011-07-24T12:29:20Z</time>
      </trkpt>
      <trkpt lat="46.13815" lon="6.5301">
        <ele>826</ele>
        <time>2011-07-24T12:29:22Z</time>
      </trkpt>
      <trkpt lat="46.13822" lon="6.53002">
        <ele>826</ele>
        <time>2011-07-24T12:29:24Z</time>
      </trkpt>
      <trkpt lat="46.13816" lon="6.52993">
        <ele>845</ele>
        <time>2011-07-24T12:29:45Z</time>
      </trkpt>
      <trkpt lat="46.13806" lon="6.53001">
        <ele>838</ele>
        <time>2011-07-24T12:30:17Z</time>
      </trkpt>
      <trkpt lat="46.13801" lon="6.53013">
        <ele>838</ele>
        <time>2011-07-24T12:30:19Z</time>
      </trkpt>
      <trkpt lat="46.13796" lon="6.53038">
        <ele>838</ele>
        <time>2011-07-24T12:30:21Z</time>
      </trkpt>
      <trkpt lat="46.13792" lon="6.53055">
        <ele>838</ele>
        <time>2011-07-24T12:30:22Z</time>
      </trkpt>
      <trkpt lat="46.13788" lon="6.53068">
        <ele>838</ele>
        <time>2011-07-24T12:30:23Z</time>
      </trkpt>
      <trkpt lat="46.1378" lon="6.5309">
        <ele>838</ele>
        <time>2011-07-24T12:30:25Z</time>
      </trkpt>
      <trkpt lat="46.13777" lon="6.53108">
        <ele>838</ele>
        <time>2011-07-24T12:30:27Z</time>
      </trkpt>
      <trkpt lat="46.13777" lon="6.53123">
        <ele>838</ele>
        <time>2011-07-24T12:30:30Z</time>
      </trkpt>
      <trkpt lat="46.1377" lon="6.53112">
        <ele>855</ele>
        <time>2011-07-24T12:31:26Z</time>
      </trkpt>
      <trkpt lat="46.13779" lon="6.53108">
        <ele>842</ele>
        <time>2011-07-24T12:32:10Z</time>
      </trkpt>
      <trkpt lat="46.13784" lon="6.53094">
        <ele>842</ele>
        <time>2011-07-24T12:32:14Z</time>
      </trkpt>
      <trkpt lat="46.13792" lon="6.53083">
        <ele>842</ele>
        <time>2011-07-24T12:32:17Z</time>
      </trkpt>
      <trkpt lat="46.13802" lon="6.5307">
        <ele>842</ele>
        <time>2011-07-24T12:32:20Z</time>
      </trkpt>
      <trkpt lat="46.13806" lon="6.53053">
        <ele>842</ele>
        <time>2011-07-24T12:32:23Z</time>
      </trkpt>
      <trkpt lat="46.13812" lon="6.53041">
        <ele>834</ele>
        <time>2011-07-24T12:32:26Z</time>
      </trkpt>
      <trkpt lat="46.13813" lon="6.53026">
        <ele>834</ele>
        <time>2011-07-24T12:32:28Z</time>
      </trkpt>
      <trkpt lat="46.13816" lon="6.53013">
        <ele>834</ele>
        <time>2011-07-24T12:32:31Z</time>
      </trkpt>
      <trkpt lat="46.13821" lon="6.53001">
        <ele>834</ele>
        <time>2011-07-24T12:32:34Z</time>
      </trkpt>
      <trkpt lat="46.13828" lon="6.52992">
        <ele>834</ele>
        <time>2011-07-24T12:32:58Z</time>
      </trkpt>
      <trkpt lat="46.1382" lon="6.53005">
        <ele>834</ele>
        <time>2011-07-24T12:33:08Z</time>
      </trkpt>
      <trkpt lat="46.13811" lon="6.53014">
        <ele>841</ele>
        <time>2011-07-24T12:33:10Z</time>
      </trkpt>
      <trkpt lat="46.13798" lon="6.53037">
        <ele>841</ele>
        <time>2011-07-24T12:33:12Z</time>
      </trkpt>
      <trkpt lat="46.1379" lon="6.5305">
        <ele>841</ele>
        <time>2011-07-24T12:33:13Z</time>
      </trkpt>
      <trkpt lat="46.13781" lon="6.53071">
        <ele>841</ele>
        <time>2011-07-24T12:33:15Z</time>
      </trkpt>
      <trkpt lat="46.13777" lon="6.53091">
        <ele>841</ele>
        <time>2011-07-24T12:33:17Z</time>
      </trkpt>
      <trkpt lat="46.13774" lon="6.53104">
        <ele>841</ele>
        <time>2011-07-24T12:33:19Z</time>
      </trkpt>
      <trkpt lat="46.13774" lon="6.5312">
        <ele>846</ele>
        <time>2011-07-24T12:33:22Z</time>
      </trkpt>
      <trkpt lat="46.13776" lon="6.53138">
        <ele>846</ele>
        <time>2011-07-24T12:33:25Z</time>
      </trkpt>
      <trkpt lat="46.13776" lon="6.53153">
        <ele>854</ele>
        <time>2011-07-24T12:33:28Z</time>
      </trkpt>
      <trkpt lat="46.13774" lon="6.53168">
        <ele>854</ele>
        <time>2011-07-24T12:33:31Z</time>
      </trkpt>
      <trkpt lat="46.13781" lon="6.53179">
        <ele>865</ele>
        <time>2011-07-24T12:33:34Z</time>
      </trkpt>
      <trkpt lat="46.13794" lon="6.53179">
        <ele>875</ele>
        <time>2011-07-24T12:33:37Z</time>
      </trkpt>
      <trkpt lat="46.13792" lon="6.53166">
        <ele>896</ele>
        <time>2011-07-24T12:33:53Z</time>
      </trkpt>
      <trkpt lat="46.13793" lon="6.53179">
        <ele>885</ele>
        <time>2011-07-24T12:34:18Z</time>
      </trkpt>
      <trkpt lat="46.13796" lon="6.53194">
        <ele>877</ele>
        <time>2011-07-24T12:34:23Z</time>
      </trkpt>
      <trkpt lat="46.13798" lon="6.53209">
        <ele>867</ele>
        <time>2011-07-24T12:34:31Z</time>
      </trkpt>
      <trkpt lat="46.13801" lon="6.53194">
        <ele>878</ele>
        <time>2011-07-24T12:34:44Z</time>
      </trkpt>
      <trkpt lat="46.13798" lon="6.53181">
        <ele>893</ele>
        <time>2011-07-24T12:35:50Z</time>
      </trkpt>
      <trkpt lat="46.13797" lon="6.53196">
        <ele>864</ele>
        <time>2011-07-24T12:36:23Z</time>
      </trkpt>
      <trkpt lat="46.13798" lon="6.53211">
        <ele>848</ele>
        <time>2011-07-24T12:36:30Z</time>
      </trkpt>
      <trkpt lat="46.13797" lon="6.53225">
        <ele>828</ele>
        <time>2011-07-24T12:36:52Z</time>
      </trkpt>
      <trkpt lat="46.13797" lon="6.53212">
        <ele>848</ele>
        <time>2011-07-24T12:37:02Z</time>
      </trkpt>
      <trkpt lat="46.13794" lon="6.53199">
        <ele>870</ele>
        <time>2011-07-24T12:37:19Z</time>
      </trkpt>
      <trkpt lat="46.13792" lon="6.53183">
        <ele>887</ele>
        <time>2011-07-24T12:37:49Z</time>
      </trkpt>
      <trkpt lat="46.13795" lon="6.53169">
        <ele>900</ele>
        <time>2011-07-24T12:38:25Z</time>
      </trkpt>
      <trkpt lat="46.13799" lon="6.53181">
        <ele>887</ele>
        <time>2011-07-24T12:38:36Z</time>
      </trkpt>
      <trkpt lat="46.13801" lon="6.53194">
        <ele>880</ele>
        <time>2011-07-24T12:38:39Z</time>
      </trkpt>
      <trkpt lat="46.13802" lon="6.5321">
        <ele>868</ele>
        <time>2011-07-24T12:38:42Z</time>
      </trkpt>
      <trkpt lat="46.13804" lon="6.53191">
        <ele>894</ele>
        <time>2011-07-24T12:38:54Z</time>
      </trkpt>
      <trkpt lat="46.13804" lon="6.53177">
        <ele>906</ele>
        <time>2011-07-24T12:39:00Z</time>
      </trkpt>
      <trkpt lat="46.13795" lon="6.53172">
        <ele>906</ele>
        <time>2011-07-24T12:39:31Z</time>
      </trkpt>
      <trkpt lat="46.13797" lon="6.53185">
        <ele>892</ele>
        <time>2011-07-24T12:40:49Z</time>
      </trkpt>
      <trkpt lat="46.138" lon="6.53197">
        <ele>878</ele>
        <time>2011-07-24T12:41:00Z</time>
      </trkpt>
      <trkpt lat="46.13807" lon="6.53206">
        <ele>858</ele>
        <time>2011-07-24T12:41:44Z</time>
      </trkpt>
      <trkpt lat="46.13816" lon="6.53211">
        <ele>869</ele>
        <time>2011-07-24T12:41:51Z</time>
      </trkpt>
      <trkpt lat="46.13812" lon="6.53198">
        <ele>879</ele>
        <time>2011-07-24T12:42:07Z</time>
      </trkpt>
      <trkpt lat="46.13805" lon="6.5319">
        <ele>879</ele>
        <time>2011-07-24T12:42:23Z</time>
      </trkpt>
      <trkpt lat="46.13804" lon="6.53176">
        <ele>896</ele>
        <time>2011-07-24T12:42:30Z</time>
      </trkpt>
      <trkpt lat="46.13799" lon="6.53164">
        <ele>896</ele>
        <time>2011-07-24T12:42:58Z</time>
      </trkpt>
      <trkpt lat="46.13804" lon="6.53177">
        <ele>896</ele>
        <time>2011-07-24T12:43:12Z</time>
      </trkpt>
      <trkpt lat="46.13797" lon="6.53166">
        <ele>896</ele>
        <time>2011-07-24T12:43:29Z</time>
      </trkpt>
      <trkpt lat="46.13796" lon="6.53152">
        <ele>937</ele>
        <time>2011-07-24T12:44:13Z</time>
      </trkpt>
      <trkpt lat="46.13805" lon="6.53162">
        <ele>914</ele>
        <time>2011-07-24T12:44:30Z</time>
      </trkpt>
      <trkpt lat="46.13816" lon="6.53166">
        <ele>908</ele>
        <time>2011-07-24T12:44:33Z</time>
      </trkpt>
      <trkpt lat="46.13827" lon="6.5317">
        <ele>908</ele>
        <time>2011-07-24T12:44:36Z</time>
      </trkpt>
      <trkpt lat="46.13838" lon="6.53175">
        <ele>900</ele>
        <time>2011-07-24T12:44:38Z</time>
      </trkpt>
      <trkpt lat="46.13849" lon="6.53178">
        <ele>900</ele>
        <time>2011-07-24T12:44:40Z</time>
      </trkpt>
      <trkpt lat="46.13861" lon="6.53181">
        <ele>900</ele>
        <time>2011-07-24T12:44:42Z</time>
      </trkpt>
      <trkpt lat="46.13872" lon="6.53181">
        <ele>900</ele>
        <time>2011-07-24T12:44:44Z</time>
      </trkpt>
      <trkpt lat="46.13883" lon="6.53181">
        <ele>900</ele>
        <time>2011-07-24T12:44:46Z</time>
      </trkpt>
      <trkpt lat="46.13893" lon="6.53179">
        <ele>900</ele>
        <time>2011-07-24T12:44:48Z</time>
      </trkpt>
      <trkpt lat="46.13902" lon="6.53177">
        <ele>900</ele>
        <time>2011-07-24T12:44:50Z</time>
      </trkpt>
      <trkpt lat="46.13914" lon="6.53169">
        <ele>906</ele>
        <time>2011-07-24T12:44:53Z</time>
      </trkpt>
      <trkpt lat="46.13924" lon="6.5316">
        <ele>906</ele>
        <time>2011-07-24T12:44:56Z</time>
      </trkpt>
      <trkpt lat="46.13935" lon="6.5315">
        <ele>912</ele>
        <time>2011-07-24T12:44:59Z</time>
      </trkpt>
      <trkpt lat="46.13944" lon="6.53139">
        <ele>912</ele>
        <time>2011-07-24T12:45:01Z</time>
      </trkpt>
      <trkpt lat="46.13955" lon="6.53129">
        <ele>919</ele>
        <time>2011-07-24T12:45:03Z</time>
      </trkpt>
      <trkpt lat="46.13967" lon="6.53119">
        <ele>919</ele>
        <time>2011-07-24T12:45:05Z</time>
      </trkpt>
      <trkpt lat="46.13978" lon="6.53112">
        <ele>925</ele>
        <time>2011-07-24T12:45:07Z</time>
      </trkpt>
      <trkpt lat="46.13987" lon="6.53108">
        <ele>925</ele>
        <time>2011-07-24T12:45:09Z</time>
      </trkpt>
      <trkpt lat="46.13996" lon="6.53108">
        <ele>925</ele>
        <time>2011-07-24T12:45:11Z</time>
      </trkpt>
      <trkpt lat="46.14005" lon="6.53108">
        <ele>931</ele>
        <time>2011-07-24T12:45:13Z</time>
      </trkpt>
      <trkpt lat="46.14016" lon="6.53108">
        <ele>931</ele>
        <time>2011-07-24T12:45:15Z</time>
      </trkpt>
      <trkpt lat="46.14028" lon="6.53108">
        <ele>931</ele>
        <time>2011-07-24T12:45:18Z</time>
      </trkpt>
      <trkpt lat="46.14038" lon="6.53112">
        <ele>938</ele>
        <time>2011-07-24T12:45:20Z</time>
      </trkpt>
      <trkpt lat="46.1405" lon="6.53115">
        <ele>938</ele>
        <time>2011-07-24T12:45:23Z</time>
      </trkpt>
      <trkpt lat="46.14063" lon="6.53116">
        <ele>938</ele>
        <time>2011-07-24T12:45:26Z</time>
      </trkpt>
      <trkpt lat="46.14074" lon="6.53105">
        <ele>943</ele>
        <time>2011-07-24T12:45:29Z</time>
      </trkpt>
      <trkpt lat="46.14078" lon="6.53091">
        <ele>943</ele>
        <time>2011-07-24T12:45:31Z</time>
      </trkpt>
      <trkpt lat="46.1408" lon="6.53078">
        <ele>943</ele>
        <time>2011-07-24T12:45:33Z</time>
      </trkpt>
      <trkpt lat="46.14087" lon="6.53064">
        <ele>949</ele>
        <time>2011-07-24T12:45:54Z</time>
      </trkpt>
      <trkpt lat="46.14095" lon="6.53058">
        <ele>949</ele>
        <time>2011-07-24T12:45:58Z</time>
      </trkpt>
      <trkpt lat="46.14105" lon="6.53058">
        <ele>949</ele>
        <time>2011-07-24T12:46:01Z</time>
      </trkpt>
      <trkpt lat="46.14115" lon="6.53058">
        <ele>949</ele>
        <time>2011-07-24T12:46:05Z</time>
      </trkpt>
      <trkpt lat="46.14125" lon="6.53054">
        <ele>949</ele>
        <time>2011-07-24T12:46:08Z</time>
      </trkpt>
      <trkpt lat="46.14134" lon="6.5305">
        <ele>949</ele>
        <time>2011-07-24T12:46:12Z</time>
      </trkpt>
      <trkpt lat="46.1414" lon="6.53035">
        <ele>949</ele>
        <time>2011-07-24T12:46:17Z</time>
      </trkpt>
      <trkpt lat="46.14141" lon="6.5302">
        <ele>949</ele>
        <time>2011-07-24T12:46:19Z</time>
      </trkpt>
      <trkpt lat="46.14144" lon="6.53003">
        <ele>949</ele>
        <time>2011-07-24T12:46:22Z</time>
      </trkpt>
      <trkpt lat="46.14148" lon="6.5299">
        <ele>949</ele>
        <time>2011-07-24T12:46:26Z</time>
      </trkpt>
      <trkpt lat="46.14155" lon="6.52976">
        <ele>949</ele>
        <time>2011-07-24T12:46:31Z</time>
      </trkpt>
      <trkpt lat="46.14163" lon="6.52966">
        <ele>949</ele>
        <time>2011-07-24T12:46:35Z</time>
      </trkpt>
      <trkpt lat="46.14169" lon="6.52955">
        <ele>949</ele>
        <time>2011-07-24T12:46:38Z</time>
      </trkpt>
      <trkpt lat="46.14173" lon="6.52942">
        <ele>949</ele>
        <time>2011-07-24T12:46:42Z</time>
      </trkpt>
      <trkpt lat="46.14178" lon="6.52929">
        <ele>955</ele>
        <time>2011-07-24T12:46:47Z</time>
      </trkpt>
      <trkpt lat="46.14183" lon="6.52916">
        <ele>955</ele>
        <time>2011-07-24T12:46:51Z</time>
      </trkpt>
      <trkpt lat="46.14191" lon="6.52907">
        <ele>955</ele>
        <time>2011-07-24T12:46:55Z</time>
      </trkpt>
      <trkpt lat="46.142" lon="6.52903">
        <ele>949</ele>
        <time>2011-07-24T12:47:00Z</time>
      </trkpt>
      <trkpt lat="46.14205" lon="6.52891">
        <ele>949</ele>
        <time>2011-07-24T12:47:16Z</time>
      </trkpt>
      <trkpt lat="46.14209" lon="6.52879">
        <ele>949</ele>
        <time>2011-07-24T12:47:31Z</time>
      </trkpt>
      <trkpt lat="46.14215" lon="6.52868">
        <ele>949</ele>
        <time>2011-07-24T12:47:41Z</time>
      </trkpt>
      <trkpt lat="46.14224" lon="6.52865">
        <ele>939</ele>
        <time>2011-07-24T12:47:51Z</time>
      </trkpt>
      <trkpt lat="46.14233" lon="6.52851">
        <ele>929</ele>
        <time>2011-07-24T12:48:02Z</time>
      </trkpt>
      <trkpt lat="46.1423" lon="6.52838">
        <ele>929</ele>
        <time>2011-07-24T12:48:06Z</time>
      </trkpt>
      <trkpt lat="46.14222" lon="6.52829">
        <ele>934</ele>
        <time>2011-07-24T12:48:10Z</time>
      </trkpt>
      <trkpt lat="46.14212" lon="6.52834">
        <ele>926</ele>
        <time>2011-07-24T12:48:18Z</time>
      </trkpt>
      <trkpt lat="46.14208" lon="6.52822">
        <ele>926</ele>
        <time>2011-07-24T12:48:27Z</time>
      </trkpt>
      <trkpt lat="46.14215" lon="6.52811">
        <ele>919</ele>
        <time>2011-07-24T12:48:34Z</time>
      </trkpt>
      <trkpt lat="46.14218" lon="6.52799">
        <ele>910</ele>
        <time>2011-07-24T12:48:43Z</time>
      </trkpt>
      <trkpt lat="46.14222" lon="6.52784">
        <ele>904</ele>
        <time>2011-07-24T12:48:48Z</time>
      </trkpt>
      <trkpt lat="46.14229" lon="6.52771">
        <ele>899</ele>
        <time>2011-07-24T12:48:51Z</time>
      </trkpt>
      <trkpt lat="46.14233" lon="6.52757">
        <ele>899</ele>
        <time>2011-07-24T12:48:53Z</time>
      </trkpt>
      <trkpt lat="46.14235" lon="6.52745">
        <ele>890</ele>
        <time>2011-07-24T12:48:55Z</time>
      </trkpt>
      <trkpt lat="46.14241" lon="6.52731">
        <ele>890</ele>
        <time>2011-07-24T12:48:58Z</time>
      </trkpt>
      <trkpt lat="46.14245" lon="6.52719">
        <ele>890</ele>
        <time>2011-07-24T12:49:04Z</time>
      </trkpt>
      <trkpt lat="46.1424" lon="6.52707">
        <ele>901</ele>
        <time>2011-07-24T12:49:53Z</time>
      </trkpt>
      <trkpt lat="46.1423" lon="6.52707">
        <ele>901</ele>
        <time>2011-07-24T12:50:09Z</time>
      </trkpt>
      <trkpt lat="46.14218" lon="6.5271">
        <ele>901</ele>
        <time>2011-07-24T12:50:13Z</time>
      </trkpt>
      <trkpt lat="46.14209" lon="6.52714">
        <ele>901</ele>
        <time>2011-07-24T12:50:15Z</time>
      </trkpt>
      <trkpt lat="46.14199" lon="6.52717">
        <ele>901</ele>
        <time>2011-07-24T12:50:17Z</time>
      </trkpt>
      <trkpt lat="46.14188" lon="6.52718">
        <ele>901</ele>
        <time>2011-07-24T12:50:19Z</time>
      </trkpt>
      <trkpt lat="46.14178" lon="6.52722">
        <ele>894</ele>
        <time>2011-07-24T12:50:21Z</time>
      </trkpt>
      <trkpt lat="46.1417" lon="6.52726">
        <ele>894</ele>
        <time>2011-07-24T12:50:23Z</time>
      </trkpt>
      <trkpt lat="46.14164" lon="6.52711">
        <ele>887</ele>
        <time>2011-07-24T12:50:27Z</time>
      </trkpt>
      <trkpt lat="46.14172" lon="6.52696">
        <ele>887</ele>
        <time>2011-07-24T12:50:29Z</time>
      </trkpt>
      <trkpt lat="46.14183" lon="6.52684">
        <ele>881</ele>
        <time>2011-07-24T12:50:31Z</time>
      </trkpt>
      <trkpt lat="46.14198" lon="6.52668">
        <ele>881</ele>
        <time>2011-07-24T12:50:33Z</time>
      </trkpt>
      <trkpt lat="46.14213" lon="6.52652">
        <ele>881</ele>
        <time>2011-07-24T12:50:35Z</time>
      </trkpt>
      <trkpt lat="46.14226" lon="6.52636">
        <ele>876</ele>
        <time>2011-07-24T12:50:37Z</time>
      </trkpt>
      <trkpt lat="46.14236" lon="6.52623">
        <ele>876</ele>
        <time>2011-07-24T12:50:39Z</time>
      </trkpt>
      <trkpt lat="46.14246" lon="6.52615">
        <ele>876</ele>
        <time>2011-07-24T12:50:41Z</time>
      </trkpt>
      <trkpt lat="46.14256" lon="6.52605">
        <ele>876</ele>
        <time>2011-07-24T12:50:43Z</time>
      </trkpt>
      <trkpt lat="46.14269" lon="6.52591">
        <ele>876</ele>
        <time>2011-07-24T12:50:45Z</time>
      </trkpt>
      <trkpt lat="46.14282" lon="6.52578">
        <ele>876</ele>
        <time>2011-07-24T12:50:47Z</time>
      </trkpt>
      <trkpt lat="46.14295" lon="6.52567">
        <ele>876</ele>
        <time>2011-07-24T12:50:49Z</time>
      </trkpt>
      <trkpt lat="46.14309" lon="6.52554">
        <ele>876</ele>
        <time>2011-07-24T12:50:51Z</time>
      </trkpt>
      <trkpt lat="46.14318" lon="6.52546">
        <ele>876</ele>
        <time>2011-07-24T12:50:52Z</time>
      </trkpt>
      <trkpt lat="46.14334" lon="6.52529">
        <ele>876</ele>
        <time>2011-07-24T12:50:54Z</time>
      </trkpt>
      <trkpt lat="46.14342" lon="6.52519">
        <ele>876</ele>
        <time>2011-07-24T12:50:55Z</time>
      </trkpt>
      <trkpt lat="46.14351" lon="6.52507">
        <ele>882</ele>
        <time>2011-07-24T12:50:56Z</time>
      </trkpt>
      <trkpt lat="46.14358" lon="6.52494">
        <ele>882</ele>
        <time>2011-07-24T12:50:57Z</time>
      </trkpt>
      <trkpt lat="46.14366" lon="6.52483">
        <ele>882</ele>
        <time>2011-07-24T12:50:58Z</time>
      </trkpt>
      <trkpt lat="46.14374" lon="6.52475">
        <ele>882</ele>
        <time>2011-07-24T12:50:59Z</time>
      </trkpt>
      <trkpt lat="46.14389" lon="6.52464">
        <ele>882</ele>
        <time>2011-07-24T12:51:01Z</time>
      </trkpt>
      <trkpt lat="46.14406" lon="6.52455">
        <ele>889</ele>
        <time>2011-07-24T12:51:03Z</time>
      </trkpt>
      <trkpt lat="46.14416" lon="6.5245">
        <ele>889</ele>
        <time>2011-07-24T12:51:04Z</time>
      </trkpt>
      <trkpt lat="46.14425" lon="6.52446">
        <ele>889</ele>
        <time>2011-07-24T12:51:05Z</time>
      </trkpt>
      <trkpt lat="46.14434" lon="6.52445">
        <ele>889</ele>
        <time>2011-07-24T12:51:06Z</time>
      </trkpt>
      <trkpt lat="46.14444" lon="6.52443">
        <ele>895</ele>
        <time>2011-07-24T12:51:07Z</time>
      </trkpt>
      <trkpt lat="46.14455" lon="6.5244">
        <ele>895</ele>
        <time>2011-07-24T12:51:08Z</time>
      </trkpt>
      <trkpt lat="46.14467" lon="6.52436">
        <ele>895</ele>
        <time>2011-07-24T12:51:09Z</time>
      </trkpt>
      <trkpt lat="46.14479" lon="6.52431">
        <ele>895</ele>
        <time>2011-07-24T12:51:10Z</time>
      </trkpt>
      <trkpt lat="46.14489" lon="6.52428">
        <ele>895</ele>
        <time>2011-07-24T12:51:11Z</time>
      </trkpt>
      <trkpt lat="46.14505" lon="6.52426">
        <ele>902</ele>
        <time>2011-07-24T12:51:13Z</time>
      </trkpt>
      <trkpt lat="46.14522" lon="6.52433">
        <ele>902</ele>
        <time>2011-07-24T12:51:15Z</time>
      </trkpt>
      <trkpt lat="46.14531" lon="6.52437">
        <ele>902</ele>
        <time>2011-07-24T12:51:16Z</time>
      </trkpt>
      <trkpt lat="46.14541" lon="6.52439">
        <ele>902</ele>
        <time>2011-07-24T12:51:17Z</time>
      </trkpt>
      <trkpt lat="46.14559" lon="6.52442">
        <ele>902</ele>
        <time>2011-07-24T12:51:19Z</time>
      </trkpt>
      <trkpt lat="46.14568" lon="6.52446">
        <ele>907</ele>
        <time>2011-07-24T12:51:20Z</time>
      </trkpt>
      <trkpt lat="46.14577" lon="6.52449">
        <ele>907</ele>
        <time>2011-07-24T12:51:21Z</time>
      </trkpt>
      <trkpt lat="46.14587" lon="6.52453">
        <ele>907</ele>
        <time>2011-07-24T12:51:22Z</time>
      </trkpt>
      <trkpt lat="46.14595" lon="6.52456">
        <ele>907</ele>
        <time>2011-07-24T12:51:23Z</time>
      </trkpt>
      <trkpt lat="46.14612" lon="6.52461">
        <ele>907</ele>
        <time>2011-07-24T12:51:25Z</time>
      </trkpt>
      <trkpt lat="46.1463" lon="6.52461">
        <ele>907</ele>
        <time>2011-07-24T12:51:27Z</time>
      </trkpt>
      <trkpt lat="46.1464" lon="6.5246">
        <ele>913</ele>
        <time>2011-07-24T12:51:28Z</time>
      </trkpt>
      <trkpt lat="46.14649" lon="6.5246">
        <ele>913</ele>
        <time>2011-07-24T12:51:29Z</time>
      </trkpt>
      <trkpt lat="46.14664" lon="6.52455">
        <ele>913</ele>
        <time>2011-07-24T12:51:31Z</time>
      </trkpt>
      <trkpt lat="46.14674" lon="6.52448">
        <ele>913</ele>
        <time>2011-07-24T12:51:33Z</time>
      </trkpt>
      <trkpt lat="46.14688" lon="6.52441">
        <ele>913</ele>
        <time>2011-07-24T12:51:35Z</time>
      </trkpt>
      <trkpt lat="46.14705" lon="6.52433">
        <ele>913</ele>
        <time>2011-07-24T12:51:37Z</time>
      </trkpt>
      <trkpt lat="46.14721" lon="6.52427">
        <ele>913</ele>
        <time>2011-07-24T12:51:39Z</time>
      </trkpt>
      <trkpt lat="46.14732" lon="6.52426">
        <ele>913</ele>
        <time>2011-07-24T12:51:41Z</time>
      </trkpt>
      <trkpt lat="46.14745" lon="6.52431">
        <ele>921</ele>
        <time>2011-07-24T12:51:44Z</time>
      </trkpt>
      <trkpt lat="46.14758" lon="6.52446">
        <ele>921</ele>
        <time>2011-07-24T12:51:46Z</time>
      </trkpt>
      <trkpt lat="46.14773" lon="6.52458">
        <ele>928</ele>
        <time>2011-07-24T12:51:48Z</time>
      </trkpt>
      <trkpt lat="46.14787" lon="6.52467">
        <ele>928</ele>
        <time>2011-07-24T12:51:50Z</time>
      </trkpt>
      <trkpt lat="46.148" lon="6.52477">
        <ele>928</ele>
        <time>2011-07-24T12:51:52Z</time>
      </trkpt>
      <trkpt lat="46.14811" lon="6.52481">
        <ele>933</ele>
        <time>2011-07-24T12:51:54Z</time>
      </trkpt>
      <trkpt lat="46.14825" lon="6.52491">
        <ele>939</ele>
        <time>2011-07-24T12:51:56Z</time>
      </trkpt>
      <trkpt lat="46.14839" lon="6.52498">
        <ele>939</ele>
        <time>2011-07-24T12:51:58Z</time>
      </trkpt>
      <trkpt lat="46.14853" lon="6.52499">
        <ele>939</ele>
        <time>2011-07-24T12:52:00Z</time>
      </trkpt>
      <trkpt lat="46.14866" lon="6.52499">
        <ele>939</ele>
        <time>2011-07-24T12:52:02Z</time>
      </trkpt>
      <trkpt lat="46.14878" lon="6.52505">
        <ele>939</ele>
        <time>2011-07-24T12:52:04Z</time>
      </trkpt>
      <trkpt lat="46.14888" lon="6.52521">
        <ele>939</ele>
        <time>2011-07-24T12:52:06Z</time>
      </trkpt>
      <trkpt lat="46.14893" lon="6.52538">
        <ele>939</ele>
        <time>2011-07-24T12:52:08Z</time>
      </trkpt>
      <trkpt lat="46.14898" lon="6.52551">
        <ele>939</ele>
        <time>2011-07-24T12:52:10Z</time>
      </trkpt>
      <trkpt lat="46.14905" lon="6.52565">
        <ele>939</ele>
        <time>2011-07-24T12:52:12Z</time>
      </trkpt>
      <trkpt lat="46.14915" lon="6.52581">
        <ele>939</ele>
        <time>2011-07-24T12:52:14Z</time>
      </trkpt>
      <trkpt lat="46.14925" lon="6.52594">
        <ele>939</ele>
        <time>2011-07-24T12:52:16Z</time>
      </trkpt>
      <trkpt lat="46.14934" lon="6.52601">
        <ele>945</ele>
        <time>2011-07-24T12:52:18Z</time>
      </trkpt>
      <trkpt lat="46.14943" lon="6.5261">
        <ele>945</ele>
        <time>2011-07-24T12:52:20Z</time>
      </trkpt>
      <trkpt lat="46.1495" lon="6.52618">
        <ele>945</ele>
        <time>2011-07-24T12:52:22Z</time>
      </trkpt>
      <trkpt lat="46.14959" lon="6.52631">
        <ele>951</ele>
        <time>2011-07-24T12:52:24Z</time>
      </trkpt>
      <trkpt lat="46.14971" lon="6.5264">
        <ele>951</ele>
        <time>2011-07-24T12:52:26Z</time>
      </trkpt>
      <trkpt lat="46.14983" lon="6.52652">
        <ele>957</ele>
        <time>2011-07-24T12:52:28Z</time>
      </trkpt>
      <trkpt lat="46.14995" lon="6.52658">
        <ele>957</ele>
        <time>2011-07-24T12:52:30Z</time>
      </trkpt>
      <trkpt lat="46.15009" lon="6.52667">
        <ele>957</ele>
        <time>2011-07-24T12:52:32Z</time>
      </trkpt>
      <trkpt lat="46.15018" lon="6.52673">
        <ele>957</ele>
        <time>2011-07-24T12:52:33Z</time>
      </trkpt>
      <trkpt lat="46.15027" lon="6.5268">
        <ele>957</ele>
        <time>2011-07-24T12:52:34Z</time>
      </trkpt>
      <trkpt lat="46.15036" lon="6.52687">
        <ele>963</ele>
        <time>2011-07-24T12:52:35Z</time>
      </trkpt>
      <trkpt lat="46.15046" lon="6.52702">
        <ele>963</ele>
        <time>2011-07-24T12:52:36Z</time>
      </trkpt>
      <trkpt lat="46.15055" lon="6.52716">
        <ele>963</ele>
        <time>2011-07-24T12:52:37Z</time>
      </trkpt>
      <trkpt lat="46.15077" lon="6.52755">
        <ele>963</ele>
        <time>2011-07-24T12:52:40Z</time>
      </trkpt>
      <trkpt lat="46.15084" lon="6.52773">
        <ele>954</ele>
        <time>2011-07-24T12:52:41Z</time>
      </trkpt>
      <trkpt lat="46.15092" lon="6.52784">
        <ele>954</ele>
        <time>2011-07-24T12:52:42Z</time>
      </trkpt>
      <trkpt lat="46.151" lon="6.52797">
        <ele>954</ele>
        <time>2011-07-24T12:52:43Z</time>
      </trkpt>
      <trkpt lat="46.15109" lon="6.52807">
        <ele>954</ele>
        <time>2011-07-24T12:52:44Z</time>
      </trkpt>
      <trkpt lat="46.15117" lon="6.52817">
        <ele>954</ele>
        <time>2011-07-24T12:52:45Z</time>
      </trkpt>
      <trkpt lat="46.15131" lon="6.52833">
        <ele>954</ele>
        <time>2011-07-24T12:52:47Z</time>
      </trkpt>
      <trkpt lat="46.15138" lon="6.52843">
        <ele>954</ele>
        <time>2011-07-24T12:52:49Z</time>
      </trkpt>
      <trkpt lat="46.15143" lon="6.52859">
        <ele>954</ele>
        <time>2011-07-24T12:52:51Z</time>
      </trkpt>
      <trkpt lat="46.15151" lon="6.52874">
        <ele>954</ele>
        <time>2011-07-24T12:52:53Z</time>
      </trkpt>
      <trkpt lat="46.15158" lon="6.52889">
        <ele>954</ele>
        <time>2011-07-24T12:52:55Z</time>
      </trkpt>
      <trkpt lat="46.15169" lon="6.52902">
        <ele>954</ele>
        <time>2011-07-24T12:52:57Z</time>
      </trkpt>
      <trkpt lat="46.15183" lon="6.52906">
        <ele>954</ele>
        <time>2011-07-24T12:52:59Z</time>
      </trkpt>
      <trkpt lat="46.15194" lon="6.52917">
        <ele>954</ele>
        <time>2011-07-24T12:53:01Z</time>
      </trkpt>
      <trkpt lat="46.15203" lon="6.52933">
        <ele>954</ele>
        <time>2011-07-24T12:53:03Z</time>
      </trkpt>
      <trkpt lat="46.15206" lon="6.52947">
        <ele>948</ele>
        <time>2011-07-24T12:53:04Z</time>
      </trkpt>
      <trkpt lat="46.15209" lon="6.52962">
        <ele>948</ele>
        <time>2011-07-24T12:53:05Z</time>
      </trkpt>
      <trkpt lat="46.15215" lon="6.52985">
        <ele>948</ele>
        <time>2011-07-24T12:53:07Z</time>
      </trkpt>
      <trkpt lat="46.15226" lon="6.53005">
        <ele>948</ele>
        <time>2011-07-24T12:53:09Z</time>
      </trkpt>
      <trkpt lat="46.15233" lon="6.53024">
        <ele>948</ele>
        <time>2011-07-24T12:53:11Z</time>
      </trkpt>
      <trkpt lat="46.15234" lon="6.53049">
        <ele>948</ele>
        <time>2011-07-24T12:53:13Z</time>
      </trkpt>
      <trkpt lat="46.15233" lon="6.53063">
        <ele>948</ele>
        <time>2011-07-24T12:53:14Z</time>
      </trkpt>
      <trkpt lat="46.15235" lon="6.53087">
        <ele>948</ele>
        <time>2011-07-24T12:53:16Z</time>
      </trkpt>
      <trkpt lat="46.15239" lon="6.53101">
        <ele>948</ele>
        <time>2011-07-24T12:53:17Z</time>
      </trkpt>
      <trkpt lat="46.15244" lon="6.53116">
        <ele>948</ele>
        <time>2011-07-24T12:53:18Z</time>
      </trkpt>
      <trkpt lat="46.15249" lon="6.53131">
        <ele>948</ele>
        <time>2011-07-24T12:53:19Z</time>
      </trkpt>
      <trkpt lat="46.15254" lon="6.53145">
        <ele>948</ele>
        <time>2011-07-24T12:53:20Z</time>
      </trkpt>
      <trkpt lat="46.1526" lon="6.5316">
        <ele>948</ele>
        <time>2011-07-24T12:53:21Z</time>
      </trkpt>
      <trkpt lat="46.15267" lon="6.53174">
        <ele>948</ele>
        <time>2011-07-24T12:53:22Z</time>
      </trkpt>
      <trkpt lat="46.15272" lon="6.53188">
        <ele>948</ele>
        <time>2011-07-24T12:53:23Z</time>
      </trkpt>
      <trkpt lat="46.15277" lon="6.53201">
        <ele>942</ele>
        <time>2011-07-24T12:53:24Z</time>
      </trkpt>
      <trkpt lat="46.1528" lon="6.53214">
        <ele>942</ele>
        <time>2011-07-24T12:53:25Z</time>
      </trkpt>
      <trkpt lat="46.15285" lon="6.53225">
        <ele>942</ele>
        <time>2011-07-24T12:53:26Z</time>
      </trkpt>
      <trkpt lat="46.15292" lon="6.53245">
        <ele>942</ele>
        <time>2011-07-24T12:53:28Z</time>
      </trkpt>
      <trkpt lat="46.15305" lon="6.53251">
        <ele>947</ele>
        <time>2011-07-24T12:53:30Z</time>
      </trkpt>
      <trkpt lat="46.15316" lon="6.53251">
        <ele>947</ele>
        <time>2011-07-24T12:53:32Z</time>
      </trkpt>
      <trkpt lat="46.15328" lon="6.53249">
        <ele>947</ele>
        <time>2011-07-24T12:53:34Z</time>
      </trkpt>
      <trkpt lat="46.15337" lon="6.53242">
        <ele>953</ele>
        <time>2011-07-24T12:53:36Z</time>
      </trkpt>
      <trkpt lat="46.15343" lon="6.53225">
        <ele>953</ele>
        <time>2011-07-24T12:53:38Z</time>
      </trkpt>
      <trkpt lat="46.15347" lon="6.53205">
        <ele>953</ele>
        <time>2011-07-24T12:53:40Z</time>
      </trkpt>
      <trkpt lat="46.15352" lon="6.53186">
        <ele>953</ele>
        <time>2011-07-24T12:53:42Z</time>
      </trkpt>
      <trkpt lat="46.15358" lon="6.5317">
        <ele>953</ele>
        <time>2011-07-24T12:53:44Z</time>
      </trkpt>
      <trkpt lat="46.15362" lon="6.53155">
        <ele>953</ele>
        <time>2011-07-24T12:53:46Z</time>
      </trkpt>
      <trkpt lat="46.15366" lon="6.53143">
        <ele>953</ele>
        <time>2011-07-24T12:53:48Z</time>
      </trkpt>
      <trkpt lat="46.15375" lon="6.53134">
        <ele>946</ele>
        <time>2011-07-24T12:54:03Z</time>
      </trkpt>
      <trkpt lat="46.15385" lon="6.53129">
        <ele>946</ele>
        <time>2011-07-24T12:54:05Z</time>
      </trkpt>
      <trkpt lat="46.15393" lon="6.53123">
        <ele>946</ele>
        <time>2011-07-24T12:54:07Z</time>
      </trkpt>
      <trkpt lat="46.15383" lon="6.53123">
        <ele>955</ele>
        <time>2011-07-24T12:54:22Z</time>
      </trkpt>
      <trkpt lat="46.15375" lon="6.5313">
        <ele>955</ele>
        <time>2011-07-24T12:54:26Z</time>
      </trkpt>
      <trkpt lat="46.15367" lon="6.5312">
        <ele>948</ele>
        <time>2011-07-24T12:54:32Z</time>
      </trkpt>
      <trkpt lat="46.15363" lon="6.53105">
        <ele>948</ele>
        <time>2011-07-24T12:54:34Z</time>
      </trkpt>
      <trkpt lat="46.15364" lon="6.53085">
        <ele>948</ele>
        <time>2011-07-24T12:54:36Z</time>
      </trkpt>
      <trkpt lat="46.15365" lon="6.53063">
        <ele>948</ele>
        <time>2011-07-24T12:54:38Z</time>
      </trkpt>
      <trkpt lat="46.15364" lon="6.53037">
        <ele>948</ele>
        <time>2011-07-24T12:54:40Z</time>
      </trkpt>
      <trkpt lat="46.15362" lon="6.53023">
        <ele>943</ele>
        <time>2011-07-24T12:54:41Z</time>
      </trkpt>
      <trkpt lat="46.15358" lon="6.53009">
        <ele>943</ele>
        <time>2011-07-24T12:54:42Z</time>
      </trkpt>
      <trkpt lat="46.15355" lon="6.52995">
        <ele>943</ele>
        <time>2011-07-24T12:54:43Z</time>
      </trkpt>
      <trkpt lat="46.15352" lon="6.52981">
        <ele>943</ele>
        <time>2011-07-24T12:54:44Z</time>
      </trkpt>
      <trkpt lat="46.15348" lon="6.52968">
        <ele>943</ele>
        <time>2011-07-24T12:54:45Z</time>
      </trkpt>
      <trkpt lat="46.15345" lon="6.52956">
        <ele>943</ele>
        <time>2011-07-24T12:54:46Z</time>
      </trkpt>
      <trkpt lat="46.1534" lon="6.52933">
        <ele>943</ele>
        <time>2011-07-24T12:54:48Z</time>
      </trkpt>
      <trkpt lat="46.15335" lon="6.5291">
        <ele>943</ele>
        <time>2011-07-24T12:54:50Z</time>
      </trkpt>
      <trkpt lat="46.1533" lon="6.52887">
        <ele>943</ele>
        <time>2011-07-24T12:54:52Z</time>
      </trkpt>
      <trkpt lat="46.15325" lon="6.52864">
        <ele>943</ele>
        <time>2011-07-24T12:54:54Z</time>
      </trkpt>
      <trkpt lat="46.15321" lon="6.52852">
        <ele>943</ele>
        <time>2011-07-24T12:54:55Z</time>
      </trkpt>
      <trkpt lat="46.15318" lon="6.52837">
        <ele>943</ele>
        <time>2011-07-24T12:54:56Z</time>
      </trkpt>
      <trkpt lat="46.15314" lon="6.52822">
        <ele>943</ele>
        <time>2011-07-24T12:54:57Z</time>
      </trkpt>
      <trkpt lat="46.15312" lon="6.52807">
        <ele>943</ele>
        <time>2011-07-24T12:54:58Z</time>
      </trkpt>
      <trkpt lat="46.15309" lon="6.52792">
        <ele>943</ele>
        <time>2011-07-24T12:54:59Z</time>
      </trkpt>
      <trkpt lat="46.15307" lon="6.52771">
        <ele>943</ele>
        <time>2011-07-24T12:55:01Z</time>
      </trkpt>
      <trkpt lat="46.15305" lon="6.52757">
        <ele>943</ele>
        <time>2011-07-24T12:55:02Z</time>
      </trkpt>
      <trkpt lat="46.15308" lon="6.52732">
        <ele>943</ele>
        <time>2011-07-24T12:55:04Z</time>
      </trkpt>
      <trkpt lat="46.1531" lon="6.52719">
        <ele>943</ele>
        <time>2011-07-24T12:55:05Z</time>
      </trkpt>
      <trkpt lat="46.15312" lon="6.52706">
        <ele>943</ele>
        <time>2011-07-24T12:55:06Z</time>
      </trkpt>
      <trkpt lat="46.15318" lon="6.52683">
        <ele>943</ele>
        <time>2011-07-24T12:55:08Z</time>
      </trkpt>
      <trkpt lat="46.15321" lon="6.5267">
        <ele>943</ele>
        <time>2011-07-24T12:55:09Z</time>
      </trkpt>
      <trkpt lat="46.15325" lon="6.52645">
        <ele>948</ele>
        <time>2011-07-24T12:55:11Z</time>
      </trkpt>
      <trkpt lat="46.15327" lon="6.5262">
        <ele>948</ele>
        <time>2011-07-24T12:55:13Z</time>
      </trkpt>
      <trkpt lat="46.1533" lon="6.52596">
        <ele>948</ele>
        <time>2011-07-24T12:55:15Z</time>
      </trkpt>
      <trkpt lat="46.15333" lon="6.52583">
        <ele>948</ele>
        <time>2011-07-24T12:55:16Z</time>
      </trkpt>
      <trkpt lat="46.15337" lon="6.5256">
        <ele>955</ele>
        <time>2011-07-24T12:55:18Z</time>
      </trkpt>
      <trkpt lat="46.15342" lon="6.52535">
        <ele>955</ele>
        <time>2011-07-24T12:55:20Z</time>
      </trkpt>
      <trkpt lat="46.15344" lon="6.52523">
        <ele>955</ele>
        <time>2011-07-24T12:55:21Z</time>
      </trkpt>
      <trkpt lat="46.15348" lon="6.52498">
        <ele>961</ele>
        <time>2011-07-24T12:55:23Z</time>
      </trkpt>
      <trkpt lat="46.1535" lon="6.52473">
        <ele>961</ele>
        <time>2011-07-24T12:55:25Z</time>
      </trkpt>
      <trkpt lat="46.1535" lon="6.52448">
        <ele>961</ele>
        <time>2011-07-24T12:55:27Z</time>
      </trkpt>
      <trkpt lat="46.15351" lon="6.52428">
        <ele>961</ele>
        <time>2011-07-24T12:55:29Z</time>
      </trkpt>
      <trkpt lat="46.15352" lon="6.52409">
        <ele>961</ele>
        <time>2011-07-24T12:55:31Z</time>
      </trkpt>
      <trkpt lat="46.15355" lon="6.52392">
        <ele>967</ele>
        <time>2011-07-24T12:55:34Z</time>
      </trkpt>
      <trkpt lat="46.15363" lon="6.52399">
        <ele>967</ele>
        <time>2011-07-24T12:55:39Z</time>
      </trkpt>
      <trkpt lat="46.15368" lon="6.52411">
        <ele>967</ele>
        <time>2011-07-24T12:55:42Z</time>
      </trkpt>
      <trkpt lat="46.15373" lon="6.52429">
        <ele>973</ele>
        <time>2011-07-24T12:55:45Z</time>
      </trkpt>
      <trkpt lat="46.15377" lon="6.52442">
        <ele>973</ele>
        <time>2011-07-24T12:55:47Z</time>
      </trkpt>
      <trkpt lat="46.15382" lon="6.52456">
        <ele>973</ele>
        <time>2011-07-24T12:55:49Z</time>
      </trkpt>
      <trkpt lat="46.15387" lon="6.52472">
        <ele>980</ele>
        <time>2011-07-24T12:55:51Z</time>
      </trkpt>
      <trkpt lat="46.15389" lon="6.52488">
        <ele>980</ele>
        <time>2011-07-24T12:55:53Z</time>
      </trkpt>
      <trkpt lat="46.15395" lon="6.52506">
        <ele>980</ele>
        <time>2011-07-24T12:55:55Z</time>
      </trkpt>
      <trkpt lat="46.15402" lon="6.52524">
        <ele>988</ele>
        <time>2011-07-24T12:55:57Z</time>
      </trkpt>
      <trkpt lat="46.15408" lon="6.5254">
        <ele>988</ele>
        <time>2011-07-24T12:55:59Z</time>
      </trkpt>
      <trkpt lat="46.15414" lon="6.52552">
        <ele>993</ele>
        <time>2011-07-24T12:56:01Z</time>
      </trkpt>
      <trkpt lat="46.15418" lon="6.52566">
        <ele>993</ele>
        <time>2011-07-24T12:56:03Z</time>
      </trkpt>
      <trkpt lat="46.15421" lon="6.5258">
        <ele>1003</ele>
        <time>2011-07-24T12:56:05Z</time>
      </trkpt>
      <trkpt lat="46.15423" lon="6.52596">
        <ele>1003</ele>
        <time>2011-07-24T12:56:07Z</time>
      </trkpt>
      <trkpt lat="46.1543" lon="6.5262">
        <ele>1011</ele>
        <time>2011-07-24T12:56:10Z</time>
      </trkpt>
      <trkpt lat="46.15436" lon="6.52637">
        <ele>1011</ele>
        <time>2011-07-24T12:56:12Z</time>
      </trkpt>
      <trkpt lat="46.15438" lon="6.52656">
        <ele>1011</ele>
        <time>2011-07-24T12:56:14Z</time>
      </trkpt>
      <trkpt lat="46.1544" lon="6.52673">
        <ele>1017</ele>
        <time>2011-07-24T12:56:16Z</time>
      </trkpt>
      <trkpt lat="46.1544" lon="6.52692">
        <ele>1017</ele>
        <time>2011-07-24T12:56:18Z</time>
      </trkpt>
      <trkpt lat="46.15441" lon="6.5271">
        <ele>1022</ele>
        <time>2011-07-24T12:56:20Z</time>
      </trkpt>
      <trkpt lat="46.15445" lon="6.5273">
        <ele>1022</ele>
        <time>2011-07-24T12:56:22Z</time>
      </trkpt>
      <trkpt lat="46.15449" lon="6.52749">
        <ele>1022</ele>
        <time>2011-07-24T12:56:24Z</time>
      </trkpt>
      <trkpt lat="46.15454" lon="6.52765">
        <ele>1022</ele>
        <time>2011-07-24T12:56:26Z</time>
      </trkpt>
      <trkpt lat="46.15459" lon="6.52782">
        <ele>1033</ele>
        <time>2011-07-24T12:56:29Z</time>
      </trkpt>
      <trkpt lat="46.15468" lon="6.52796">
        <ele>1033</ele>
        <time>2011-07-24T12:56:32Z</time>
      </trkpt>
      <trkpt lat="46.15474" lon="6.52808">
        <ele>1033</ele>
        <time>2011-07-24T12:56:34Z</time>
      </trkpt>
      <trkpt lat="46.15481" lon="6.52818">
        <ele>1033</ele>
        <time>2011-07-24T12:56:36Z</time>
      </trkpt>
      <trkpt lat="46.1549" lon="6.52832">
        <ele>1038</ele>
        <time>2011-07-24T12:56:38Z</time>
      </trkpt>
      <trkpt lat="46.15499" lon="6.52845">
        <ele>1038</ele>
        <time>2011-07-24T12:56:40Z</time>
      </trkpt>
      <trkpt lat="46.15507" lon="6.52859">
        <ele>1038</ele>
        <time>2011-07-24T12:56:42Z</time>
      </trkpt>
      <trkpt lat="46.15514" lon="6.52872">
        <ele>1046</ele>
        <time>2011-07-24T12:56:44Z</time>
      </trkpt>
      <trkpt lat="46.1552" lon="6.52884">
        <ele>1046</ele>
        <time>2011-07-24T12:56:46Z</time>
      </trkpt>
      <trkpt lat="46.15526" lon="6.52898">
        <ele>1046</ele>
        <time>2011-07-24T12:56:49Z</time>
      </trkpt>
      <trkpt lat="46.15536" lon="6.52907">
        <ele>1046</ele>
        <time>2011-07-24T12:56:52Z</time>
      </trkpt>
      <trkpt lat="46.15547" lon="6.529">
        <ele>1046</ele>
        <time>2011-07-24T12:56:55Z</time>
      </trkpt>
      <trkpt lat="46.15558" lon="6.52893">
        <ele>1046</ele>
        <time>2011-07-24T12:56:58Z</time>
      </trkpt>
      <trkpt lat="46.15564" lon="6.52883">
        <ele>1053</ele>
        <time>2011-07-24T12:57:01Z</time>
      </trkpt>
      <trkpt lat="46.15562" lon="6.52865">
        <ele>1053</ele>
        <time>2011-07-24T12:57:04Z</time>
      </trkpt>
      <trkpt lat="46.15558" lon="6.52851">
        <ele>1053</ele>
        <time>2011-07-24T12:57:06Z</time>
      </trkpt>
      <trkpt lat="46.15556" lon="6.52835">
        <ele>1053</ele>
        <time>2011-07-24T12:57:08Z</time>
      </trkpt>
      <trkpt lat="46.15554" lon="6.52822">
        <ele>1053</ele>
        <time>2011-07-24T12:57:11Z</time>
      </trkpt>
      <trkpt lat="46.15553" lon="6.52802">
        <ele>1053</ele>
        <time>2011-07-24T12:57:21Z</time>
      </trkpt>
      <trkpt lat="46.15549" lon="6.52784">
        <ele>1053</ele>
        <time>2011-07-24T12:57:23Z</time>
      </trkpt>
      <trkpt lat="46.15546" lon="6.52763">
        <ele>1053</ele>
        <time>2011-07-24T12:57:25Z</time>
      </trkpt>
      <trkpt lat="46.15544" lon="6.52744">
        <ele>1053</ele>
        <time>2011-07-24T12:57:27Z</time>
      </trkpt>
      <trkpt lat="46.1554" lon="6.52724">
        <ele>1053</ele>
        <time>2011-07-24T12:57:29Z</time>
      </trkpt>
      <trkpt lat="46.15538" lon="6.52704">
        <ele>1053</ele>
        <time>2011-07-24T12:57:31Z</time>
      </trkpt>
      <trkpt lat="46.15536" lon="6.52683">
        <ele>1053</ele>
        <time>2011-07-24T12:57:33Z</time>
      </trkpt>
      <trkpt lat="46.15534" lon="6.52657">
        <ele>1053</ele>
        <time>2011-07-24T12:57:35Z</time>
      </trkpt>
      <trkpt lat="46.15534" lon="6.52642">
        <ele>1059</ele>
        <time>2011-07-24T12:57:36Z</time>
      </trkpt>
      <trkpt lat="46.15535" lon="6.52629">
        <ele>1059</ele>
        <time>2011-07-24T12:57:37Z</time>
      </trkpt>
      <trkpt lat="46.15536" lon="6.52614">
        <ele>1059</ele>
        <time>2011-07-24T12:57:38Z</time>
      </trkpt>
      <trkpt lat="46.15536" lon="6.52599">
        <ele>1059</ele>
        <time>2011-07-24T12:57:39Z</time>
      </trkpt>
      <trkpt lat="46.15534" lon="6.52583">
        <ele>1059</ele>
        <time>2011-07-24T12:57:40Z</time>
      </trkpt>
      <trkpt lat="46.15533" lon="6.52567">
        <ele>1059</ele>
        <time>2011-07-24T12:57:41Z</time>
      </trkpt>
      <trkpt lat="46.1553" lon="6.52551">
        <ele>1059</ele>
        <time>2011-07-24T12:57:42Z</time>
      </trkpt>
      <trkpt lat="46.15529" lon="6.52535">
        <ele>1059</ele>
        <time>2011-07-24T12:57:43Z</time>
      </trkpt>
      <trkpt lat="46.15528" lon="6.5252">
        <ele>1059</ele>
        <time>2011-07-24T12:57:44Z</time>
      </trkpt>
      <trkpt lat="46.15528" lon="6.52506">
        <ele>1059</ele>
        <time>2011-07-24T12:57:45Z</time>
      </trkpt>
      <trkpt lat="46.15531" lon="6.52491">
        <ele>1059</ele>
        <time>2011-07-24T12:57:46Z</time>
      </trkpt>
      <trkpt lat="46.15533" lon="6.52475">
        <ele>1059</ele>
        <time>2011-07-24T12:57:47Z</time>
      </trkpt>
      <trkpt lat="46.15535" lon="6.5246">
        <ele>1064</ele>
        <time>2011-07-24T12:57:48Z</time>
      </trkpt>
      <trkpt lat="46.15536" lon="6.52446">
        <ele>1064</ele>
        <time>2011-07-24T12:57:49Z</time>
      </trkpt>
      <trkpt lat="46.15539" lon="6.52432">
        <ele>1064</ele>
        <time>2011-07-24T12:57:50Z</time>
      </trkpt>
      <trkpt lat="46.15546" lon="6.52415">
        <ele>1064</ele>
        <time>2011-07-24T12:57:52Z</time>
      </trkpt>
      <trkpt lat="46.15559" lon="6.52405">
        <ele>1064</ele>
        <time>2011-07-24T12:57:54Z</time>
      </trkpt>
      <trkpt lat="46.15569" lon="6.52396">
        <ele>1064</ele>
        <time>2011-07-24T12:57:56Z</time>
      </trkpt>
      <trkpt lat="46.15579" lon="6.52399">
        <ele>1069</ele>
        <time>2011-07-24T12:57:59Z</time>
      </trkpt>
      <trkpt lat="46.15578" lon="6.52417">
        <ele>1069</ele>
        <time>2011-07-24T12:58:02Z</time>
      </trkpt>
      <trkpt lat="46.15577" lon="6.52434">
        <ele>1069</ele>
        <time>2011-07-24T12:58:04Z</time>
      </trkpt>
      <trkpt lat="46.15577" lon="6.5245">
        <ele>1069</ele>
        <time>2011-07-24T12:58:06Z</time>
      </trkpt>
      <trkpt lat="46.15578" lon="6.52464">
        <ele>1069</ele>
        <time>2011-07-24T12:58:08Z</time>
      </trkpt>
      <trkpt lat="46.15579" lon="6.52481">
        <ele>1069</ele>
        <time>2011-07-24T12:58:11Z</time>
      </trkpt>
      <trkpt lat="46.15581" lon="6.52499">
        <ele>1069</ele>
        <time>2011-07-24T12:58:14Z</time>
      </trkpt>
      <trkpt lat="46.15583" lon="6.52515">
        <ele>1069</ele>
        <time>2011-07-24T12:58:16Z</time>
      </trkpt>
      <trkpt lat="46.15586" lon="6.52533">
        <ele>1075</ele>
        <time>2011-07-24T12:58:18Z</time>
      </trkpt>
      <trkpt lat="46.1559" lon="6.52552">
        <ele>1075</ele>
        <time>2011-07-24T12:58:20Z</time>
      </trkpt>
      <trkpt lat="46.15596" lon="6.52572">
        <ele>1075</ele>
        <time>2011-07-24T12:58:22Z</time>
      </trkpt>
      <trkpt lat="46.15604" lon="6.52595">
        <ele>1075</ele>
        <time>2011-07-24T12:58:24Z</time>
      </trkpt>
      <trkpt lat="46.15614" lon="6.52615">
        <ele>1081</ele>
        <time>2011-07-24T12:58:26Z</time>
      </trkpt>
      <trkpt lat="46.15624" lon="6.52632">
        <ele>1081</ele>
        <time>2011-07-24T12:58:28Z</time>
      </trkpt>
      <trkpt lat="46.15636" lon="6.52638">
        <ele>1081</ele>
        <time>2011-07-24T12:58:30Z</time>
      </trkpt>
      <trkpt lat="46.15647" lon="6.52628">
        <ele>1081</ele>
        <time>2011-07-24T12:58:32Z</time>
      </trkpt>
      <trkpt lat="46.15647" lon="6.5261">
        <ele>1088</ele>
        <time>2011-07-24T12:58:33Z</time>
      </trkpt>
      <trkpt lat="46.15644" lon="6.52589">
        <ele>1088</ele>
        <time>2011-07-24T12:58:34Z</time>
      </trkpt>
      <trkpt lat="46.15642" lon="6.5257">
        <ele>1088</ele>
        <time>2011-07-24T12:58:35Z</time>
      </trkpt>
      <trkpt lat="46.15642" lon="6.52552">
        <ele>1088</ele>
        <time>2011-07-24T12:58:36Z</time>
      </trkpt>
      <trkpt lat="46.15646" lon="6.52535">
        <ele>1094</ele>
        <time>2011-07-24T12:58:37Z</time>
      </trkpt>
      <trkpt lat="46.15652" lon="6.5252">
        <ele>1094</ele>
        <time>2011-07-24T12:58:38Z</time>
      </trkpt>
      <trkpt lat="46.1566" lon="6.52507">
        <ele>1094</ele>
        <time>2011-07-24T12:58:39Z</time>
      </trkpt>
      <trkpt lat="46.15669" lon="6.52495">
        <ele>1094</ele>
        <time>2011-07-24T12:58:40Z</time>
      </trkpt>
      <trkpt lat="46.15679" lon="6.52483">
        <ele>1094</ele>
        <time>2011-07-24T12:58:41Z</time>
      </trkpt>
      <trkpt lat="46.15689" lon="6.52472">
        <ele>1100</ele>
        <time>2011-07-24T12:58:42Z</time>
      </trkpt>
      <trkpt lat="46.157" lon="6.5246">
        <ele>1100</ele>
        <time>2011-07-24T12:58:43Z</time>
      </trkpt>
      <trkpt lat="46.15711" lon="6.52447">
        <ele>1100</ele>
        <time>2011-07-24T12:58:44Z</time>
      </trkpt>
      <trkpt lat="46.15722" lon="6.52435">
        <ele>1100</ele>
        <time>2011-07-24T12:58:45Z</time>
      </trkpt>
      <trkpt lat="46.15734" lon="6.52422">
        <ele>1106</ele>
        <time>2011-07-24T12:58:46Z</time>
      </trkpt>
      <trkpt lat="46.15745" lon="6.5241">
        <ele>1106</ele>
        <time>2011-07-24T12:58:47Z</time>
      </trkpt>
      <trkpt lat="46.15757" lon="6.52398">
        <ele>1106</ele>
        <time>2011-07-24T12:58:48Z</time>
      </trkpt>
      <trkpt lat="46.1577" lon="6.52387">
        <ele>1106</ele>
        <time>2011-07-24T12:58:49Z</time>
      </trkpt>
      <trkpt lat="46.15782" lon="6.52375">
        <ele>1111</ele>
        <time>2011-07-24T12:58:50Z</time>
      </trkpt>
      <trkpt lat="46.15796" lon="6.52365">
        <ele>1111</ele>
        <time>2011-07-24T12:58:51Z</time>
      </trkpt>
      <trkpt lat="46.1581" lon="6.52355">
        <ele>1111</ele>
        <time>2011-07-24T12:58:52Z</time>
      </trkpt>
      <trkpt lat="46.15825" lon="6.52344">
        <ele>1111</ele>
        <time>2011-07-24T12:58:53Z</time>
      </trkpt>
      <trkpt lat="46.1584" lon="6.52334">
        <ele>1117</ele>
        <time>2011-07-24T12:58:54Z</time>
      </trkpt>
      <trkpt lat="46.15855" lon="6.52325">
        <ele>1117</ele>
        <time>2011-07-24T12:58:55Z</time>
      </trkpt>
      <trkpt lat="46.1587" lon="6.52316">
        <ele>1117</ele>
        <time>2011-07-24T12:58:56Z</time>
      </trkpt>
      <trkpt lat="46.15883" lon="6.52308">
        <ele>1117</ele>
        <time>2011-07-24T12:58:57Z</time>
      </trkpt>
      <trkpt lat="46.15896" lon="6.52301">
        <ele>1122</ele>
        <time>2011-07-24T12:58:58Z</time>
      </trkpt>
      <trkpt lat="46.15907" lon="6.52295">
        <ele>1122</ele>
        <time>2011-07-24T12:58:59Z</time>
      </trkpt>
      <trkpt lat="46.15917" lon="6.5229">
        <ele>1122</ele>
        <time>2011-07-24T12:59:00Z</time>
      </trkpt>
      <trkpt lat="46.15926" lon="6.52287">
        <ele>1122</ele>
        <time>2011-07-24T12:59:01Z</time>
      </trkpt>
      <trkpt lat="46.15938" lon="6.52295">
        <ele>1122</ele>
        <time>2011-07-24T12:59:03Z</time>
      </trkpt>
      <trkpt lat="46.15935" lon="6.52316">
        <ele>1122</ele>
        <time>2011-07-24T12:59:05Z</time>
      </trkpt>
      <trkpt lat="46.15924" lon="6.52328">
        <ele>1122</ele>
        <time>2011-07-24T12:59:06Z</time>
      </trkpt>
      <trkpt lat="46.15911" lon="6.52338">
        <ele>1122</ele>
        <time>2011-07-24T12:59:07Z</time>
      </trkpt>
      <trkpt lat="46.15898" lon="6.5235">
        <ele>1128</ele>
        <time>2011-07-24T12:59:08Z</time>
      </trkpt>
      <trkpt lat="46.15887" lon="6.52363">
        <ele>1128</ele>
        <time>2011-07-24T12:59:09Z</time>
      </trkpt>
      <trkpt lat="46.15878" lon="6.52376">
        <ele>1128</ele>
        <time>2011-07-24T12:59:10Z</time>
      </trkpt>
      <trkpt lat="46.15871" lon="6.5239">
        <ele>1133</ele>
        <time>2011-07-24T12:59:11Z</time>
      </trkpt>
      <trkpt lat="46.15866" lon="6.52402">
        <ele>1133</ele>
        <time>2011-07-24T12:59:12Z</time>
      </trkpt>
      <trkpt lat="46.15862" lon="6.52422">
        <ele>1133</ele>
        <time>2011-07-24T12:59:14Z</time>
      </trkpt>
      <trkpt lat="46.15867" lon="6.52438">
        <ele>1133</ele>
        <time>2011-07-24T12:59:16Z</time>
      </trkpt>
      <trkpt lat="46.15885" lon="6.52455">
        <ele>1139</ele>
        <time>2011-07-24T12:59:18Z</time>
      </trkpt>
      <trkpt lat="46.15896" lon="6.52463">
        <ele>1139</ele>
        <time>2011-07-24T12:59:19Z</time>
      </trkpt>
      <trkpt lat="46.15909" lon="6.5247">
        <ele>1139</ele>
        <time>2011-07-24T12:59:20Z</time>
      </trkpt>
      <trkpt lat="46.1592" lon="6.52476">
        <ele>1146</ele>
        <time>2011-07-24T12:59:21Z</time>
      </trkpt>
      <trkpt lat="46.1593" lon="6.52481">
        <ele>1146</ele>
        <time>2011-07-24T12:59:22Z</time>
      </trkpt>
      <trkpt lat="46.15945" lon="6.52488">
        <ele>1153</ele>
        <time>2011-07-24T12:59:24Z</time>
      </trkpt>
      <trkpt lat="46.15961" lon="6.5249">
        <ele>1153</ele>
        <time>2011-07-24T12:59:26Z</time>
      </trkpt>
      <trkpt lat="46.15974" lon="6.52483">
        <ele>1163</ele>
        <time>2011-07-24T12:59:28Z</time>
      </trkpt>
      <trkpt lat="46.15982" lon="6.52476">
        <ele>1163</ele>
        <time>2011-07-24T12:59:29Z</time>
      </trkpt>
      <trkpt lat="46.15991" lon="6.5247">
        <ele>1163</ele>
        <time>2011-07-24T12:59:30Z</time>
      </trkpt>
      <trkpt lat="46.16" lon="6.52463">
        <ele>1170</ele>
        <time>2011-07-24T12:59:31Z</time>
      </trkpt>
      <trkpt lat="46.1601" lon="6.52455">
        <ele>1170</ele>
        <time>2011-07-24T12:59:32Z</time>
      </trkpt>
      <trkpt lat="46.16018" lon="6.52446">
        <ele>1170</ele>
        <time>2011-07-24T12:59:33Z</time>
      </trkpt>
      <trkpt lat="46.16026" lon="6.52437">
        <ele>1170</ele>
        <time>2011-07-24T12:59:34Z</time>
      </trkpt>
      <trkpt lat="46.16031" lon="6.52422">
        <ele>1177</ele>
        <time>2011-07-24T12:59:35Z</time>
      </trkpt>
      <trkpt lat="46.16034" lon="6.52406">
        <ele>1177</ele>
        <time>2011-07-24T12:59:36Z</time>
      </trkpt>
      <trkpt lat="46.16036" lon="6.52389">
        <ele>1177</ele>
        <time>2011-07-24T12:59:37Z</time>
      </trkpt>
      <trkpt lat="46.16036" lon="6.52368">
        <ele>1183</ele>
        <time>2011-07-24T12:59:38Z</time>
      </trkpt>
      <trkpt lat="46.16034" lon="6.52348">
        <ele>1183</ele>
        <time>2011-07-24T12:59:39Z</time>
      </trkpt>
      <trkpt lat="46.16032" lon="6.52327">
        <ele>1183</ele>
        <time>2011-07-24T12:59:40Z</time>
      </trkpt>
      <trkpt lat="46.16029" lon="6.52308">
        <ele>1183</ele>
        <time>2011-07-24T12:59:41Z</time>
      </trkpt>
      <trkpt lat="46.16029" lon="6.52289">
        <ele>1183</ele>
        <time>2011-07-24T12:59:42Z</time>
      </trkpt>
      <trkpt lat="46.16029" lon="6.5227">
        <ele>1183</ele>
        <time>2011-07-24T12:59:43Z</time>
      </trkpt>
      <trkpt lat="46.16032" lon="6.52256">
        <ele>1188</ele>
        <time>2011-07-24T12:59:44Z</time>
      </trkpt>
      <trkpt lat="46.16036" lon="6.52243">
        <ele>1188</ele>
        <time>2011-07-24T12:59:45Z</time>
      </trkpt>
      <trkpt lat="46.16041" lon="6.52233">
        <ele>1188</ele>
        <time>2011-07-24T12:59:46Z</time>
      </trkpt>
      <trkpt lat="46.16049" lon="6.52225">
        <ele>1188</ele>
        <time>2011-07-24T12:59:47Z</time>
      </trkpt>
      <trkpt lat="46.16062" lon="6.5221">
        <ele>1188</ele>
        <time>2011-07-24T12:59:49Z</time>
      </trkpt>
      <trkpt lat="46.1607" lon="6.52191">
        <ele>1188</ele>
        <time>2011-07-24T12:59:51Z</time>
      </trkpt>
      <trkpt lat="46.16077" lon="6.52168">
        <ele>1188</ele>
        <time>2011-07-24T12:59:53Z</time>
      </trkpt>
      <trkpt lat="46.16079" lon="6.52154">
        <ele>1188</ele>
        <time>2011-07-24T12:59:54Z</time>
      </trkpt>
      <trkpt lat="46.16083" lon="6.5214">
        <ele>1188</ele>
        <time>2011-07-24T12:59:55Z</time>
      </trkpt>
      <trkpt lat="46.16086" lon="6.52127">
        <ele>1188</ele>
        <time>2011-07-24T12:59:56Z</time>
      </trkpt>
      <trkpt lat="46.16089" lon="6.52113">
        <ele>1188</ele>
        <time>2011-07-24T12:59:57Z</time>
      </trkpt>
      <trkpt lat="46.16094" lon="6.521">
        <ele>1188</ele>
        <time>2011-07-24T12:59:58Z</time>
      </trkpt>
      <trkpt lat="46.16097" lon="6.52086">
        <ele>1188</ele>
        <time>2011-07-24T12:59:59Z</time>
      </trkpt>
      <trkpt lat="46.16103" lon="6.52065">
        <ele>1188</ele>
        <time>2011-07-24T13:00:01Z</time>
      </trkpt>
      <trkpt lat="46.16106" lon="6.52046">
        <ele>1188</ele>
        <time>2011-07-24T13:00:03Z</time>
      </trkpt>
      <trkpt lat="46.16108" lon="6.52031">
        <ele>1182</ele>
        <time>2011-07-24T13:00:05Z</time>
      </trkpt>
      <trkpt lat="46.16108" lon="6.52013">
        <ele>1182</ele>
        <time>2011-07-24T13:00:07Z</time>
      </trkpt>
      <trkpt lat="46.16107" lon="6.51998">
        <ele>1182</ele>
        <time>2011-07-24T13:00:09Z</time>
      </trkpt>
      <trkpt lat="46.16108" lon="6.51983">
        <ele>1182</ele>
        <time>2011-07-24T13:00:11Z</time>
      </trkpt>
      <trkpt lat="46.16107" lon="6.51968">
        <ele>1182</ele>
        <time>2011-07-24T13:00:13Z</time>
      </trkpt>
      <trkpt lat="46.16104" lon="6.51954">
        <ele>1182</ele>
        <time>2011-07-24T13:00:15Z</time>
      </trkpt>
      <trkpt lat="46.161" lon="6.51936">
        <ele>1176</ele>
        <time>2011-07-24T13:00:18Z</time>
      </trkpt>
      <trkpt lat="46.16099" lon="6.51921">
        <ele>1176</ele>
        <time>2011-07-24T13:00:20Z</time>
      </trkpt>
      <trkpt lat="46.16099" lon="6.51905">
        <ele>1176</ele>
        <time>2011-07-24T13:00:22Z</time>
      </trkpt>
      <trkpt lat="46.16104" lon="6.51889">
        <ele>1170</ele>
        <time>2011-07-24T13:00:24Z</time>
      </trkpt>
      <trkpt lat="46.16111" lon="6.51869">
        <ele>1170</ele>
        <time>2011-07-24T13:00:26Z</time>
      </trkpt>
      <trkpt lat="46.1612" lon="6.51849">
        <ele>1170</ele>
        <time>2011-07-24T13:00:28Z</time>
      </trkpt>
      <trkpt lat="46.16128" lon="6.51828">
        <ele>1163</ele>
        <time>2011-07-24T13:00:30Z</time>
      </trkpt>
      <trkpt lat="46.16134" lon="6.51806">
        <ele>1163</ele>
        <time>2011-07-24T13:00:32Z</time>
      </trkpt>
      <trkpt lat="46.16137" lon="6.51792">
        <ele>1163</ele>
        <time>2011-07-24T13:00:33Z</time>
      </trkpt>
      <trkpt lat="46.16143" lon="6.51771">
        <ele>1163</ele>
        <time>2011-07-24T13:00:35Z</time>
      </trkpt>
      <trkpt lat="46.16146" lon="6.51745">
        <ele>1163</ele>
        <time>2011-07-24T13:00:37Z</time>
      </trkpt>
      <trkpt lat="46.16149" lon="6.51724">
        <ele>1163</ele>
        <time>2011-07-24T13:00:39Z</time>
      </trkpt>
      <trkpt lat="46.16152" lon="6.51705">
        <ele>1163</ele>
        <time>2011-07-24T13:00:41Z</time>
      </trkpt>
      <trkpt lat="46.16157" lon="6.51686">
        <ele>1163</ele>
        <time>2011-07-24T13:00:43Z</time>
      </trkpt>
      <trkpt lat="46.16161" lon="6.51673">
        <ele>1158</ele>
        <time>2011-07-24T13:00:45Z</time>
      </trkpt>
      <trkpt lat="46.16171" lon="6.51658">
        <ele>1158</ele>
        <time>2011-07-24T13:00:47Z</time>
      </trkpt>
      <trkpt lat="46.16179" lon="6.51643">
        <ele>1158</ele>
        <time>2011-07-24T13:00:49Z</time>
      </trkpt>
      <trkpt lat="46.16186" lon="6.51628">
        <ele>1158</ele>
        <time>2011-07-24T13:00:52Z</time>
      </trkpt>
      <trkpt lat="46.1619" lon="6.51613">
        <ele>1158</ele>
        <time>2011-07-24T13:00:54Z</time>
      </trkpt>
      <trkpt lat="46.16197" lon="6.51597">
        <ele>1158</ele>
        <time>2011-07-24T13:00:56Z</time>
      </trkpt>
      <trkpt lat="46.16203" lon="6.51583">
        <ele>1158</ele>
        <time>2011-07-24T13:00:58Z</time>
      </trkpt>
      <trkpt lat="46.16211" lon="6.51571">
        <ele>1158</ele>
        <time>2011-07-24T13:01:00Z</time>
      </trkpt>
      <trkpt lat="46.16215" lon="6.51558">
        <ele>1158</ele>
        <time>2011-07-24T13:01:02Z</time>
      </trkpt>
      <trkpt lat="46.16222" lon="6.51545">
        <ele>1158</ele>
        <time>2011-07-24T13:01:04Z</time>
      </trkpt>
      <trkpt lat="46.16229" lon="6.51533">
        <ele>1158</ele>
        <time>2011-07-24T13:01:06Z</time>
      </trkpt>
      <trkpt lat="46.16235" lon="6.51522">
        <ele>1158</ele>
        <time>2011-07-24T13:01:08Z</time>
      </trkpt>
      <trkpt lat="46.1624" lon="6.51509">
        <ele>1158</ele>
        <time>2011-07-24T13:01:10Z</time>
      </trkpt>
      <trkpt lat="46.16247" lon="6.51495">
        <ele>1158</ele>
        <time>2011-07-24T13:01:13Z</time>
      </trkpt>
      <trkpt lat="46.16254" lon="6.51483">
        <ele>1158</ele>
        <time>2011-07-24T13:01:15Z</time>
      </trkpt>
      <trkpt lat="46.16263" lon="6.51472">
        <ele>1164</ele>
        <time>2011-07-24T13:01:18Z</time>
      </trkpt>
      <trkpt lat="46.16272" lon="6.51458">
        <ele>1169</ele>
        <time>2011-07-24T13:01:25Z</time>
      </trkpt>
      <trkpt lat="46.16278" lon="6.51445">
        <ele>1169</ele>
        <time>2011-07-24T13:01:27Z</time>
      </trkpt>
      <trkpt lat="46.16283" lon="6.51432">
        <ele>1169</ele>
        <time>2011-07-24T13:01:29Z</time>
      </trkpt>
      <trkpt lat="46.1629" lon="6.51421">
        <ele>1175</ele>
        <time>2011-07-24T13:01:31Z</time>
      </trkpt>
      <trkpt lat="46.16299" lon="6.51412">
        <ele>1175</ele>
        <time>2011-07-24T13:01:33Z</time>
      </trkpt>
      <trkpt lat="46.16316" lon="6.51398">
        <ele>1175</ele>
        <time>2011-07-24T13:01:35Z</time>
      </trkpt>
      <trkpt lat="46.16325" lon="6.51392">
        <ele>1175</ele>
        <time>2011-07-24T13:01:36Z</time>
      </trkpt>
      <trkpt lat="46.16333" lon="6.51386">
        <ele>1175</ele>
        <time>2011-07-24T13:01:37Z</time>
      </trkpt>
      <trkpt lat="46.16343" lon="6.51376">
        <ele>1175</ele>
        <time>2011-07-24T13:01:39Z</time>
      </trkpt>
      <trkpt lat="46.16355" lon="6.51364">
        <ele>1175</ele>
        <time>2011-07-24T13:01:42Z</time>
      </trkpt>
      <trkpt lat="46.16363" lon="6.51355">
        <ele>1175</ele>
        <time>2011-07-24T13:01:44Z</time>
      </trkpt>
      <trkpt lat="46.16371" lon="6.51344">
        <ele>1175</ele>
        <time>2011-07-24T13:01:46Z</time>
      </trkpt>
      <trkpt lat="46.16378" lon="6.51336">
        <ele>1175</ele>
        <time>2011-07-24T13:01:48Z</time>
      </trkpt>
      <trkpt lat="46.1639" lon="6.51324">
        <ele>1175</ele>
        <time>2011-07-24T13:01:51Z</time>
      </trkpt>
      <trkpt lat="46.16398" lon="6.51315">
        <ele>1175</ele>
        <time>2011-07-24T13:01:54Z</time>
      </trkpt>
      <trkpt lat="46.16407" lon="6.51308">
        <ele>1175</ele>
        <time>2011-07-24T13:01:57Z</time>
      </trkpt>
      <trkpt lat="46.16416" lon="6.51286">
        <ele>1175</ele>
        <time>2011-07-24T13:02:04Z</time>
      </trkpt>
      <trkpt lat="46.16426" lon="6.51272">
        <ele>1175</ele>
        <time>2011-07-24T13:02:07Z</time>
      </trkpt>
      <trkpt lat="46.16434" lon="6.51264">
        <ele>1175</ele>
        <time>2011-07-24T13:02:09Z</time>
      </trkpt>
      <trkpt lat="46.16443" lon="6.51259">
        <ele>1175</ele>
        <time>2011-07-24T13:02:12Z</time>
      </trkpt>
      <trkpt lat="46.16455" lon="6.51252">
        <ele>1175</ele>
        <time>2011-07-24T13:02:15Z</time>
      </trkpt>
      <trkpt lat="46.16465" lon="6.51249">
        <ele>1180</ele>
        <time>2011-07-24T13:02:17Z</time>
      </trkpt>
      <trkpt lat="46.16473" lon="6.51244">
        <ele>1180</ele>
        <time>2011-07-24T13:02:19Z</time>
      </trkpt>
      <trkpt lat="46.16485" lon="6.51242">
        <ele>1180</ele>
        <time>2011-07-24T13:02:21Z</time>
      </trkpt>
      <trkpt lat="46.16498" lon="6.51236">
        <ele>1180</ele>
        <time>2011-07-24T13:02:23Z</time>
      </trkpt>
      <trkpt lat="46.16508" lon="6.51227">
        <ele>1180</ele>
        <time>2011-07-24T13:02:25Z</time>
      </trkpt>
      <trkpt lat="46.16517" lon="6.51218">
        <ele>1180</ele>
        <time>2011-07-24T13:02:27Z</time>
      </trkpt>
      <trkpt lat="46.16528" lon="6.51211">
        <ele>1180</ele>
        <time>2011-07-24T13:02:30Z</time>
      </trkpt>
      <trkpt lat="46.16536" lon="6.51215">
        <ele>1180</ele>
        <time>2011-07-24T13:02:36Z</time>
      </trkpt>
      <trkpt lat="46.16542" lon="6.51226">
        <ele>1180</ele>
        <time>2011-07-24T13:02:38Z</time>
      </trkpt>
      <trkpt lat="46.16551" lon="6.51237">
        <ele>1180</ele>
        <time>2011-07-24T13:02:40Z</time>
      </trkpt>
      <trkpt lat="46.1656" lon="6.51245">
        <ele>1180</ele>
        <time>2011-07-24T13:02:42Z</time>
      </trkpt>
      <trkpt lat="46.16571" lon="6.51253">
        <ele>1180</ele>
        <time>2011-07-24T13:02:44Z</time>
      </trkpt>
      <trkpt lat="46.16581" lon="6.51263">
        <ele>1180</ele>
        <time>2011-07-24T13:02:46Z</time>
      </trkpt>
      <trkpt lat="46.16591" lon="6.51277">
        <ele>1180</ele>
        <time>2011-07-24T13:02:48Z</time>
      </trkpt>
      <trkpt lat="46.16598" lon="6.51288">
        <ele>1180</ele>
        <time>2011-07-24T13:02:50Z</time>
      </trkpt>
      <trkpt lat="46.166" lon="6.51304">
        <ele>1180</ele>
        <time>2011-07-24T13:02:53Z</time>
      </trkpt>
      <trkpt lat="46.16588" lon="6.51315">
        <ele>1180</ele>
        <time>2011-07-24T13:02:55Z</time>
      </trkpt>
      <trkpt lat="46.1658" lon="6.51321">
        <ele>1180</ele>
        <time>2011-07-24T13:02:56Z</time>
      </trkpt>
      <trkpt lat="46.16568" lon="6.51328">
        <ele>1188</ele>
        <time>2011-07-24T13:02:58Z</time>
      </trkpt>
      <trkpt lat="46.16559" lon="6.51335">
        <ele>1188</ele>
        <time>2011-07-24T13:03:01Z</time>
      </trkpt>
      <trkpt lat="46.16568" lon="6.51345">
        <ele>1188</ele>
        <time>2011-07-24T13:03:09Z</time>
      </trkpt>
      <trkpt lat="46.16569" lon="6.51359">
        <ele>1198</ele>
        <time>2011-07-24T13:03:15Z</time>
      </trkpt>
      <trkpt lat="46.16565" lon="6.51373">
        <ele>1198</ele>
        <time>2011-07-24T13:03:18Z</time>
      </trkpt>
      <trkpt lat="46.16564" lon="6.51388">
        <ele>1198</ele>
        <time>2011-07-24T13:03:21Z</time>
      </trkpt>
      <trkpt lat="46.16566" lon="6.51403">
        <ele>1198</ele>
        <time>2011-07-24T13:03:26Z</time>
      </trkpt>
      <trkpt lat="46.16569" lon="6.51417">
        <ele>1198</ele>
        <time>2011-07-24T13:03:31Z</time>
      </trkpt>
      <trkpt lat="46.16569" lon="6.51435">
        <ele>1192</ele>
        <time>2011-07-24T13:03:35Z</time>
      </trkpt>
      <trkpt lat="46.16568" lon="6.51453">
        <ele>1186</ele>
        <time>2011-07-24T13:03:38Z</time>
      </trkpt>
      <trkpt lat="46.16569" lon="6.51469">
        <ele>1186</ele>
        <time>2011-07-24T13:03:40Z</time>
      </trkpt>
      <trkpt lat="46.16565" lon="6.51489">
        <ele>1179</ele>
        <time>2011-07-24T13:03:42Z</time>
      </trkpt>
      <trkpt lat="46.16564" lon="6.51507">
        <ele>1179</ele>
        <time>2011-07-24T13:03:44Z</time>
      </trkpt>
      <trkpt lat="46.16561" lon="6.51522">
        <ele>1171</ele>
        <time>2011-07-24T13:03:47Z</time>
      </trkpt>
      <trkpt lat="46.16563" lon="6.51539">
        <ele>1171</ele>
        <time>2011-07-24T13:03:50Z</time>
      </trkpt>
      <trkpt lat="46.16561" lon="6.51554">
        <ele>1171</ele>
        <time>2011-07-24T13:03:53Z</time>
      </trkpt>
      <trkpt lat="46.16556" lon="6.51567">
        <ele>1171</ele>
        <time>2011-07-24T13:03:56Z</time>
      </trkpt>
      <trkpt lat="46.1655" lon="6.51577">
        <ele>1171</ele>
        <time>2011-07-24T13:03:59Z</time>
      </trkpt>
      <trkpt lat="46.16543" lon="6.51591">
        <ele>1177</ele>
        <time>2011-07-24T13:04:03Z</time>
      </trkpt>
      <trkpt lat="46.16539" lon="6.51604">
        <ele>1177</ele>
        <time>2011-07-24T13:04:05Z</time>
      </trkpt>
      <trkpt lat="46.16537" lon="6.5162">
        <ele>1190</ele>
        <time>2011-07-24T13:04:07Z</time>
      </trkpt>
      <trkpt lat="46.16534" lon="6.51638">
        <ele>1190</ele>
        <time>2011-07-24T13:04:10Z</time>
      </trkpt>
      <trkpt lat="46.16529" lon="6.51653">
        <ele>1190</ele>
        <time>2011-07-24T13:04:12Z</time>
      </trkpt>
      <trkpt lat="46.16526" lon="6.51668">
        <ele>1190</ele>
        <time>2011-07-24T13:04:14Z</time>
      </trkpt>
      <trkpt lat="46.16524" lon="6.51684">
        <ele>1196</ele>
        <time>2011-07-24T13:04:17Z</time>
      </trkpt>
      <trkpt lat="46.16521" lon="6.51696">
        <ele>1196</ele>
        <time>2011-07-24T13:04:21Z</time>
      </trkpt>
      <trkpt lat="46.1652" lon="6.5171">
        <ele>1202</ele>
        <time>2011-07-24T13:04:24Z</time>
      </trkpt>
      <trkpt lat="46.16519" lon="6.51727">
        <ele>1202</ele>
        <time>2011-07-24T13:04:47Z</time>
      </trkpt>
      <trkpt lat="46.16516" lon="6.51743">
        <ele>1202</ele>
        <time>2011-07-24T13:04:51Z</time>
      </trkpt>
      <trkpt lat="46.16514" lon="6.51764">
        <ele>1202</ele>
        <time>2011-07-24T13:04:55Z</time>
      </trkpt>
      <trkpt lat="46.16513" lon="6.51781">
        <ele>1202</ele>
        <time>2011-07-24T13:04:57Z</time>
      </trkpt>
      <trkpt lat="46.16512" lon="6.51797">
        <ele>1197</ele>
        <time>2011-07-24T13:04:59Z</time>
      </trkpt>
      <trkpt lat="46.16509" lon="6.5181">
        <ele>1197</ele>
        <time>2011-07-24T13:05:01Z</time>
      </trkpt>
      <trkpt lat="46.16505" lon="6.51825">
        <ele>1197</ele>
        <time>2011-07-24T13:05:03Z</time>
      </trkpt>
      <trkpt lat="46.16498" lon="6.51835">
        <ele>1197</ele>
        <time>2011-07-24T13:05:05Z</time>
      </trkpt>
      <trkpt lat="46.16492" lon="6.51849">
        <ele>1197</ele>
        <time>2011-07-24T13:05:08Z</time>
      </trkpt>
      <trkpt lat="46.16485" lon="6.51861">
        <ele>1208</ele>
        <time>2011-07-24T13:05:11Z</time>
      </trkpt>
      <trkpt lat="46.16482" lon="6.51873">
        <ele>1208</ele>
        <time>2011-07-24T13:05:15Z</time>
      </trkpt>
      <trkpt lat="46.1648" lon="6.51889">
        <ele>1208</ele>
        <time>2011-07-24T13:05:18Z</time>
      </trkpt>
      <trkpt lat="46.16475" lon="6.51902">
        <ele>1208</ele>
        <time>2011-07-24T13:05:23Z</time>
      </trkpt>
      <trkpt lat="46.1647" lon="6.51914">
        <ele>1208</ele>
        <time>2011-07-24T13:05:27Z</time>
      </trkpt>
      <trkpt lat="46.16466" lon="6.51928">
        <ele>1208</ele>
        <time>2011-07-24T13:05:31Z</time>
      </trkpt>
      <trkpt lat="46.16464" lon="6.51942">
        <ele>1208</ele>
        <time>2011-07-24T13:05:35Z</time>
      </trkpt>
      <trkpt lat="46.1646" lon="6.51953">
        <ele>1214</ele>
        <time>2011-07-24T13:05:46Z</time>
      </trkpt>
      <trkpt lat="46.16458" lon="6.51969">
        <ele>1214</ele>
        <time>2011-07-24T13:05:50Z</time>
      </trkpt>
      <trkpt lat="46.16454" lon="6.51986">
        <ele>1214</ele>
        <time>2011-07-24T13:05:53Z</time>
      </trkpt>
      <trkpt lat="46.16451" lon="6.52">
        <ele>1214</ele>
        <time>2011-07-24T13:05:59Z</time>
      </trkpt>
      <trkpt lat="46.1645" lon="6.52015">
        <ele>1224</ele>
        <time>2011-07-24T13:06:03Z</time>
      </trkpt>
      <trkpt lat="46.16448" lon="6.52029">
        <ele>1224</ele>
        <time>2011-07-24T13:06:14Z</time>
      </trkpt>
      <trkpt lat="46.16447" lon="6.52042">
        <ele>1224</ele>
        <time>2011-07-24T13:06:18Z</time>
      </trkpt>
      <trkpt lat="46.16446" lon="6.52057">
        <ele>1224</ele>
        <time>2011-07-24T13:06:23Z</time>
      </trkpt>
      <trkpt lat="46.16455" lon="6.52065">
        <ele>1231</ele>
        <time>2011-07-24T13:06:37Z</time>
      </trkpt>
      <trkpt lat="46.16453" lon="6.52078">
        <ele>1231</ele>
        <time>2011-07-24T13:07:14Z</time>
      </trkpt>
      <trkpt lat="46.16455" lon="6.52093">
        <ele>1231</ele>
        <time>2011-07-24T13:07:18Z</time>
      </trkpt>
      <trkpt lat="46.16459" lon="6.52106">
        <ele>1231</ele>
        <time>2011-07-24T13:07:20Z</time>
      </trkpt>
      <trkpt lat="46.16463" lon="6.52119">
        <ele>1231</ele>
        <time>2011-07-24T13:07:22Z</time>
      </trkpt>
      <trkpt lat="46.16464" lon="6.52133">
        <ele>1231</ele>
        <time>2011-07-24T13:07:24Z</time>
      </trkpt>
      <trkpt lat="46.1646" lon="6.52119">
        <ele>1238</ele>
        <time>2011-07-24T13:07:38Z</time>
      </trkpt>
      <trkpt lat="46.16457" lon="6.52104">
        <ele>1238</ele>
        <time>2011-07-24T13:07:42Z</time>
      </trkpt>
      <trkpt lat="46.16454" lon="6.52088">
        <ele>1238</ele>
        <time>2011-07-24T13:07:45Z</time>
      </trkpt>
      <trkpt lat="46.1645" lon="6.52073">
        <ele>1238</ele>
        <time>2011-07-24T13:07:48Z</time>
      </trkpt>
      <trkpt lat="46.16444" lon="6.52057">
        <ele>1238</ele>
        <time>2011-07-24T13:07:52Z</time>
      </trkpt>
      <trkpt lat="46.1644" lon="6.52042">
        <ele>1238</ele>
        <time>2011-07-24T13:07:56Z</time>
      </trkpt>
      <trkpt lat="46.1643" lon="6.52037">
        <ele>1238</ele>
        <time>2011-07-24T13:08:00Z</time>
      </trkpt>
      <trkpt lat="46.16429" lon="6.5205">
        <ele>1238</ele>
        <time>2011-07-24T13:08:31Z</time>
      </trkpt>
      <trkpt lat="46.16432" lon="6.52064">
        <ele>1238</ele>
        <time>2011-07-24T13:08:33Z</time>
      </trkpt>
      <trkpt lat="46.16436" lon="6.52083">
        <ele>1238</ele>
        <time>2011-07-24T13:08:35Z</time>
      </trkpt>
      <trkpt lat="46.16439" lon="6.52096">
        <ele>1238</ele>
        <time>2011-07-24T13:08:36Z</time>
      </trkpt>
      <trkpt lat="46.16441" lon="6.5211">
        <ele>1238</ele>
        <time>2011-07-24T13:08:37Z</time>
      </trkpt>
      <trkpt lat="46.16444" lon="6.52124">
        <ele>1238</ele>
        <time>2011-07-24T13:08:38Z</time>
      </trkpt>
      <trkpt lat="46.16445" lon="6.52137">
        <ele>1238</ele>
        <time>2011-07-24T13:08:39Z</time>
      </trkpt>
      <trkpt lat="46.1645" lon="6.5216">
        <ele>1238</ele>
        <time>2011-07-24T13:08:41Z</time>
      </trkpt>
      <trkpt lat="46.16455" lon="6.52182">
        <ele>1238</ele>
        <time>2011-07-24T13:08:43Z</time>
      </trkpt>
      <trkpt lat="46.16458" lon="6.52195">
        <ele>1238</ele>
        <time>2011-07-24T13:08:44Z</time>
      </trkpt>
      <trkpt lat="46.16463" lon="6.52207">
        <ele>1238</ele>
        <time>2011-07-24T13:08:45Z</time>
      </trkpt>
      <trkpt lat="46.16469" lon="6.52218">
        <ele>1244</ele>
        <time>2011-07-24T13:08:46Z</time>
      </trkpt>
      <trkpt lat="46.16476" lon="6.5223">
        <ele>1244</ele>
        <time>2011-07-24T13:08:47Z</time>
      </trkpt>
      <trkpt lat="46.16484" lon="6.52243">
        <ele>1244</ele>
        <time>2011-07-24T13:08:48Z</time>
      </trkpt>
      <trkpt lat="46.16493" lon="6.52256">
        <ele>1244</ele>
        <time>2011-07-24T13:08:49Z</time>
      </trkpt>
      <trkpt lat="46.16503" lon="6.52269">
        <ele>1250</ele>
        <time>2011-07-24T13:08:50Z</time>
      </trkpt>
      <trkpt lat="46.16513" lon="6.52279">
        <ele>1250</ele>
        <time>2011-07-24T13:08:51Z</time>
      </trkpt>
      <trkpt lat="46.16522" lon="6.5229">
        <ele>1250</ele>
        <time>2011-07-24T13:08:52Z</time>
      </trkpt>
      <trkpt lat="46.16529" lon="6.52302">
        <ele>1250</ele>
        <time>2011-07-24T13:08:53Z</time>
      </trkpt>
      <trkpt lat="46.16535" lon="6.52314">
        <ele>1250</ele>
        <time>2011-07-24T13:08:54Z</time>
      </trkpt>
      <trkpt lat="46.16543" lon="6.52327">
        <ele>1250</ele>
        <time>2011-07-24T13:08:55Z</time>
      </trkpt>
      <trkpt lat="46.16549" lon="6.5234">
        <ele>1256</ele>
        <time>2011-07-24T13:08:56Z</time>
      </trkpt>
      <trkpt lat="46.16556" lon="6.5235">
        <ele>1256</ele>
        <time>2011-07-24T13:08:57Z</time>
      </trkpt>
      <trkpt lat="46.16563" lon="6.52362">
        <ele>1256</ele>
        <time>2011-07-24T13:08:58Z</time>
      </trkpt>
      <trkpt lat="46.16569" lon="6.52374">
        <ele>1256</ele>
        <time>2011-07-24T13:08:59Z</time>
      </trkpt>
      <trkpt lat="46.16574" lon="6.52386">
        <ele>1256</ele>
        <time>2011-07-24T13:09:00Z</time>
      </trkpt>
      <trkpt lat="46.1658" lon="6.524">
        <ele>1256</ele>
        <time>2011-07-24T13:09:01Z</time>
      </trkpt>
      <trkpt lat="46.16584" lon="6.52415">
        <ele>1262</ele>
        <time>2011-07-24T13:09:02Z</time>
      </trkpt>
      <trkpt lat="46.16584" lon="6.52431">
        <ele>1262</ele>
        <time>2011-07-24T13:09:03Z</time>
      </trkpt>
      <trkpt lat="46.16587" lon="6.52447">
        <ele>1262</ele>
        <time>2011-07-24T13:09:04Z</time>
      </trkpt>
      <trkpt lat="46.1659" lon="6.52464">
        <ele>1262</ele>
        <time>2011-07-24T13:09:05Z</time>
      </trkpt>
      <trkpt lat="46.16593" lon="6.52478">
        <ele>1262</ele>
        <time>2011-07-24T13:09:06Z</time>
      </trkpt>
      <trkpt lat="46.16593" lon="6.52492">
        <ele>1262</ele>
        <time>2011-07-24T13:09:07Z</time>
      </trkpt>
      <trkpt lat="46.16598" lon="6.52534">
        <ele>1268</ele>
        <time>2011-07-24T13:09:10Z</time>
      </trkpt>
      <trkpt lat="46.16601" lon="6.5255">
        <ele>1268</ele>
        <time>2011-07-24T13:09:11Z</time>
      </trkpt>
      <trkpt lat="46.16602" lon="6.52564">
        <ele>1268</ele>
        <time>2011-07-24T13:09:12Z</time>
      </trkpt>
      <trkpt lat="46.16602" lon="6.52579">
        <ele>1268</ele>
        <time>2011-07-24T13:09:13Z</time>
      </trkpt>
      <trkpt lat="46.16604" lon="6.52596">
        <ele>1268</ele>
        <time>2011-07-24T13:09:14Z</time>
      </trkpt>
      <trkpt lat="46.16606" lon="6.52611">
        <ele>1268</ele>
        <time>2011-07-24T13:09:15Z</time>
      </trkpt>
      <trkpt lat="46.16605" lon="6.52627">
        <ele>1274</ele>
        <time>2011-07-24T13:09:16Z</time>
      </trkpt>
      <trkpt lat="46.16605" lon="6.52641">
        <ele>1274</ele>
        <time>2011-07-24T13:09:17Z</time>
      </trkpt>
      <trkpt lat="46.16605" lon="6.52655">
        <ele>1274</ele>
        <time>2011-07-24T13:09:18Z</time>
      </trkpt>
      <trkpt lat="46.16609" lon="6.52681">
        <ele>1274</ele>
        <time>2011-07-24T13:09:20Z</time>
      </trkpt>
      <trkpt lat="46.16612" lon="6.52705">
        <ele>1274</ele>
        <time>2011-07-24T13:09:22Z</time>
      </trkpt>
      <trkpt lat="46.16613" lon="6.52732">
        <ele>1274</ele>
        <time>2011-07-24T13:09:24Z</time>
      </trkpt>
      <trkpt lat="46.16613" lon="6.52749">
        <ele>1274</ele>
        <time>2011-07-24T13:09:25Z</time>
      </trkpt>
      <trkpt lat="46.16614" lon="6.52772">
        <ele>1274</ele>
        <time>2011-07-24T13:09:26Z</time>
      </trkpt>
      <trkpt lat="46.16614" lon="6.52794">
        <ele>1274</ele>
        <time>2011-07-24T13:09:27Z</time>
      </trkpt>
      <trkpt lat="46.16617" lon="6.52814">
        <ele>1274</ele>
        <time>2011-07-24T13:09:28Z</time>
      </trkpt>
      <trkpt lat="46.1662" lon="6.52834">
        <ele>1274</ele>
        <time>2011-07-24T13:09:29Z</time>
      </trkpt>
      <trkpt lat="46.16623" lon="6.52853">
        <ele>1274</ele>
        <time>2011-07-24T13:09:30Z</time>
      </trkpt>
      <trkpt lat="46.16627" lon="6.52874">
        <ele>1274</ele>
        <time>2011-07-24T13:09:31Z</time>
      </trkpt>
      <trkpt lat="46.16631" lon="6.52894">
        <ele>1274</ele>
        <time>2011-07-24T13:09:32Z</time>
      </trkpt>
      <trkpt lat="46.16634" lon="6.52914">
        <ele>1274</ele>
        <time>2011-07-24T13:09:33Z</time>
      </trkpt>
      <trkpt lat="46.16637" lon="6.52935">
        <ele>1280</ele>
        <time>2011-07-24T13:09:34Z</time>
      </trkpt>
      <trkpt lat="46.16639" lon="6.52957">
        <ele>1280</ele>
        <time>2011-07-24T13:09:35Z</time>
      </trkpt>
      <trkpt lat="46.1664" lon="6.52976">
        <ele>1280</ele>
        <time>2011-07-24T13:09:36Z</time>
      </trkpt>
      <trkpt lat="46.16644" lon="6.52995">
        <ele>1286</ele>
        <time>2011-07-24T13:09:37Z</time>
      </trkpt>
      <trkpt lat="46.16644" lon="6.53013">
        <ele>1286</ele>
        <time>2011-07-24T13:09:38Z</time>
      </trkpt>
      <trkpt lat="46.16643" lon="6.5303">
        <ele>1286</ele>
        <time>2011-07-24T13:09:39Z</time>
      </trkpt>
      <trkpt lat="46.16644" lon="6.53044">
        <ele>1286</ele>
        <time>2011-07-24T13:09:40Z</time>
      </trkpt>
      <trkpt lat="46.16647" lon="6.53058">
        <ele>1294</ele>
        <time>2011-07-24T13:09:42Z</time>
      </trkpt>
      <trkpt lat="46.16653" lon="6.5307">
        <ele>1294</ele>
        <time>2011-07-24T13:09:47Z</time>
      </trkpt>
      <trkpt lat="46.16662" lon="6.53077">
        <ele>1294</ele>
        <time>2011-07-24T13:09:53Z</time>
      </trkpt>
      <trkpt lat="46.16671" lon="6.53083">
        <ele>1294</ele>
        <time>2011-07-24T13:09:59Z</time>
      </trkpt>
      <trkpt lat="46.16681" lon="6.53084">
        <ele>1294</ele>
        <time>2011-07-24T13:10:03Z</time>
      </trkpt>
      <trkpt lat="46.16691" lon="6.53085">
        <ele>1294</ele>
        <time>2011-07-24T13:10:06Z</time>
      </trkpt>
      <trkpt lat="46.16702" lon="6.53091">
        <ele>1294</ele>
        <time>2011-07-24T13:10:09Z</time>
      </trkpt>
      <trkpt lat="46.16712" lon="6.53095">
        <ele>1294</ele>
        <time>2011-07-24T13:10:13Z</time>
      </trkpt>
      <trkpt lat="46.16712" lon="6.53081">
        <ele>1294</ele>
        <time>2011-07-24T13:10:22Z</time>
      </trkpt>
      <trkpt lat="46.16708" lon="6.53068">
        <ele>1286</ele>
        <time>2011-07-24T13:10:29Z</time>
      </trkpt>
      <trkpt lat="46.16711" lon="6.53055">
        <ele>1286</ele>
        <time>2011-07-24T13:10:33Z</time>
      </trkpt>
      <trkpt lat="46.16715" lon="6.53044">
        <ele>1301</ele>
        <time>2011-07-24T13:10:57Z</time>
      </trkpt>
      <trkpt lat="46.16722" lon="6.53053">
        <ele>1285</ele>
        <time>2011-07-24T13:11:17Z</time>
      </trkpt>
      <trkpt lat="46.16723" lon="6.53039">
        <ele>1285</ele>
        <time>2011-07-24T13:11:27Z</time>
      </trkpt>
      <trkpt lat="46.16729" lon="6.53028">
        <ele>1285</ele>
        <time>2011-07-24T13:11:30Z</time>
      </trkpt>
      <trkpt lat="46.16739" lon="6.53017">
        <ele>1285</ele>
        <time>2011-07-24T13:11:32Z</time>
      </trkpt>
      <trkpt lat="46.16748" lon="6.53005">
        <ele>1285</ele>
        <time>2011-07-24T13:11:34Z</time>
      </trkpt>
      <trkpt lat="46.16755" lon="6.52994">
        <ele>1285</ele>
        <time>2011-07-24T13:11:36Z</time>
      </trkpt>
      <trkpt lat="46.16764" lon="6.52984">
        <ele>1285</ele>
        <time>2011-07-24T13:11:38Z</time>
      </trkpt>
      <trkpt lat="46.16772" lon="6.52976">
        <ele>1285</ele>
        <time>2011-07-24T13:11:40Z</time>
      </trkpt>
      <trkpt lat="46.16778" lon="6.52965">
        <ele>1291</ele>
        <time>2011-07-24T13:11:44Z</time>
      </trkpt>
      <trkpt lat="46.16784" lon="6.52952">
        <ele>1291</ele>
        <time>2011-07-24T13:11:47Z</time>
      </trkpt>
      <trkpt lat="46.16794" lon="6.52943">
        <ele>1291</ele>
        <time>2011-07-24T13:11:50Z</time>
      </trkpt>
      <trkpt lat="46.16803" lon="6.52934">
        <ele>1291</ele>
        <time>2011-07-24T13:11:53Z</time>
      </trkpt>
      <trkpt lat="46.16813" lon="6.52923">
        <ele>1299</ele>
        <time>2011-07-24T13:11:56Z</time>
      </trkpt>
      <trkpt lat="46.16822" lon="6.52914">
        <ele>1299</ele>
        <time>2011-07-24T13:11:59Z</time>
      </trkpt>
      <trkpt lat="46.16828" lon="6.52903">
        <ele>1299</ele>
        <time>2011-07-24T13:12:02Z</time>
      </trkpt>
      <trkpt lat="46.16834" lon="6.52892">
        <ele>1299</ele>
        <time>2011-07-24T13:12:05Z</time>
      </trkpt>
      <trkpt lat="46.16842" lon="6.52878">
        <ele>1293</ele>
        <time>2011-07-24T13:12:09Z</time>
      </trkpt>
      <trkpt lat="46.1685" lon="6.52867">
        <ele>1293</ele>
        <time>2011-07-24T13:12:12Z</time>
      </trkpt>
      <trkpt lat="46.16858" lon="6.52856">
        <ele>1293</ele>
        <time>2011-07-24T13:12:15Z</time>
      </trkpt>
      <trkpt lat="46.16865" lon="6.52844">
        <ele>1293</ele>
        <time>2011-07-24T13:12:19Z</time>
      </trkpt>
      <trkpt lat="46.16867" lon="6.52828">
        <ele>1293</ele>
        <time>2011-07-24T13:12:22Z</time>
      </trkpt>
      <trkpt lat="46.16868" lon="6.52813">
        <ele>1293</ele>
        <time>2011-07-24T13:12:24Z</time>
      </trkpt>
      <trkpt lat="46.16872" lon="6.52797">
        <ele>1293</ele>
        <time>2011-07-24T13:12:26Z</time>
      </trkpt>
      <trkpt lat="46.16878" lon="6.52783">
        <ele>1293</ele>
        <time>2011-07-24T13:12:28Z</time>
      </trkpt>
      <trkpt lat="46.16883" lon="6.5277">
        <ele>1293</ele>
        <time>2011-07-24T13:12:30Z</time>
      </trkpt>
      <trkpt lat="46.16886" lon="6.52755">
        <ele>1293</ele>
        <time>2011-07-24T13:12:32Z</time>
      </trkpt>
      <trkpt lat="46.16892" lon="6.52745">
        <ele>1293</ele>
        <time>2011-07-24T13:12:35Z</time>
      </trkpt>
      <trkpt lat="46.16898" lon="6.52734">
        <ele>1284</ele>
        <time>2011-07-24T13:12:39Z</time>
      </trkpt>
      <trkpt lat="46.16901" lon="6.52721">
        <ele>1290</ele>
        <time>2011-07-24T13:13:38Z</time>
      </trkpt>
      <trkpt lat="46.16906" lon="6.52706">
        <ele>1295</ele>
        <time>2011-07-24T13:15:04Z</time>
      </trkpt>
      <trkpt lat="46.16913" lon="6.52695">
        <ele>1295</ele>
        <time>2011-07-24T13:15:08Z</time>
      </trkpt>
      <trkpt lat="46.16919" lon="6.52684">
        <ele>1286</ele>
        <time>2011-07-24T13:15:13Z</time>
      </trkpt>
      <trkpt lat="46.16924" lon="6.52671">
        <ele>1286</ele>
        <time>2011-07-24T13:15:16Z</time>
      </trkpt>
      <trkpt lat="46.1693" lon="6.52658">
        <ele>1286</ele>
        <time>2011-07-24T13:15:19Z</time>
      </trkpt>
      <trkpt lat="46.16937" lon="6.52648">
        <ele>1286</ele>
        <time>2011-07-24T13:15:22Z</time>
      </trkpt>
      <trkpt lat="46.16946" lon="6.52636">
        <ele>1286</ele>
        <time>2011-07-24T13:15:26Z</time>
      </trkpt>
      <trkpt lat="46.16955" lon="6.52627">
        <ele>1286</ele>
        <time>2011-07-24T13:15:29Z</time>
      </trkpt>
      <trkpt lat="46.16964" lon="6.52622">
        <ele>1286</ele>
        <time>2011-07-24T13:15:32Z</time>
      </trkpt>
      <trkpt lat="46.16975" lon="6.52616">
        <ele>1286</ele>
        <time>2011-07-24T13:15:36Z</time>
      </trkpt>
      <trkpt lat="46.16986" lon="6.52613">
        <ele>1286</ele>
        <time>2011-07-24T13:15:40Z</time>
      </trkpt>
      <trkpt lat="46.16995" lon="6.52605">
        <ele>1292</ele>
        <time>2011-07-24T13:15:45Z</time>
      </trkpt>
      <trkpt lat="46.17005" lon="6.52597">
        <ele>1292</ele>
        <time>2011-07-24T13:15:50Z</time>
      </trkpt>
      <trkpt lat="46.17013" lon="6.52591">
        <ele>1286</ele>
        <time>2011-07-24T13:16:00Z</time>
      </trkpt>
      <trkpt lat="46.1702" lon="6.52582">
        <ele>1286</ele>
        <time>2011-07-24T13:16:43Z</time>
      </trkpt>
      <trkpt lat="46.17028" lon="6.52576">
        <ele>1286</ele>
        <time>2011-07-24T13:16:49Z</time>
      </trkpt>
      <trkpt lat="46.17036" lon="6.52568">
        <ele>1286</ele>
        <time>2011-07-24T13:16:56Z</time>
      </trkpt>
      <trkpt lat="46.17043" lon="6.52555">
        <ele>1279</ele>
        <time>2011-07-24T13:17:05Z</time>
      </trkpt>
      <trkpt lat="46.1705" lon="6.52547">
        <ele>1279</ele>
        <time>2011-07-24T13:17:10Z</time>
      </trkpt>
      <trkpt lat="46.17059" lon="6.52543">
        <ele>1279</ele>
        <time>2011-07-24T13:17:17Z</time>
      </trkpt>
      <trkpt lat="46.17066" lon="6.52534">
        <ele>1279</ele>
        <time>2011-07-24T13:17:24Z</time>
      </trkpt>
      <trkpt lat="46.17076" lon="6.52532">
        <ele>1267</ele>
        <time>2011-07-24T13:17:35Z</time>
      </trkpt>
      <trkpt lat="46.17082" lon="6.52521">
        <ele>1267</ele>
        <time>2011-07-24T13:17:48Z</time>
      </trkpt>
      <trkpt lat="46.17089" lon="6.52509">
        <ele>1274</ele>
        <time>2011-07-24T13:18:02Z</time>
      </trkpt>
      <trkpt lat="46.17097" lon="6.52502">
        <ele>1281</ele>
        <time>2011-07-24T13:18:12Z</time>
      </trkpt>
      <trkpt lat="46.17107" lon="6.52494">
        <ele>1281</ele>
        <time>2011-07-24T13:18:19Z</time>
      </trkpt>
      <trkpt lat="46.17116" lon="6.52486">
        <ele>1281</ele>
        <time>2011-07-24T13:18:23Z</time>
      </trkpt>
      <trkpt lat="46.17124" lon="6.52477">
        <ele>1281</ele>
        <time>2011-07-24T13:18:27Z</time>
      </trkpt>
      <trkpt lat="46.17135" lon="6.52467">
        <ele>1281</ele>
        <time>2011-07-24T13:18:31Z</time>
      </trkpt>
      <trkpt lat="46.17143" lon="6.52458">
        <ele>1281</ele>
        <time>2011-07-24T13:18:35Z</time>
      </trkpt>
      <trkpt lat="46.17155" lon="6.5245">
        <ele>1281</ele>
        <time>2011-07-24T13:18:41Z</time>
      </trkpt>
      <trkpt lat="46.17167" lon="6.52454">
        <ele>1281</ele>
        <time>2011-07-24T13:18:45Z</time>
      </trkpt>
      <trkpt lat="46.17175" lon="6.52464">
        <ele>1275</ele>
        <time>2011-07-24T13:18:54Z</time>
      </trkpt>
      <trkpt lat="46.17182" lon="6.52455">
        <ele>1269</ele>
        <time>2011-07-24T13:19:08Z</time>
      </trkpt>
      <trkpt lat="46.17189" lon="6.5244">
        <ele>1269</ele>
        <time>2011-07-24T13:19:13Z</time>
      </trkpt>
      <trkpt lat="46.17195" lon="6.52429">
        <ele>1269</ele>
        <time>2011-07-24T13:19:15Z</time>
      </trkpt>
      <trkpt lat="46.17204" lon="6.52419">
        <ele>1269</ele>
        <time>2011-07-24T13:19:18Z</time>
      </trkpt>
      <trkpt lat="46.17212" lon="6.5241">
        <ele>1269</ele>
        <time>2011-07-24T13:19:23Z</time>
      </trkpt>
      <trkpt lat="46.17221" lon="6.52411">
        <ele>1269</ele>
        <time>2011-07-24T13:19:45Z</time>
      </trkpt>
      <trkpt lat="46.17226" lon="6.52428">
        <ele>1275</ele>
        <time>2011-07-24T13:19:49Z</time>
      </trkpt>
      <trkpt lat="46.17233" lon="6.52443">
        <ele>1275</ele>
        <time>2011-07-24T13:19:52Z</time>
      </trkpt>
      <trkpt lat="46.17239" lon="6.52458">
        <ele>1275</ele>
        <time>2011-07-24T13:19:55Z</time>
      </trkpt>
      <trkpt lat="46.17247" lon="6.52468">
        <ele>1275</ele>
        <time>2011-07-24T13:19:58Z</time>
      </trkpt>
      <trkpt lat="46.17257" lon="6.52478">
        <ele>1287</ele>
        <time>2011-07-24T13:20:02Z</time>
      </trkpt>
      <trkpt lat="46.17267" lon="6.52487">
        <ele>1287</ele>
        <time>2011-07-24T13:20:05Z</time>
      </trkpt>
      <trkpt lat="46.17277" lon="6.52491">
        <ele>1287</ele>
        <time>2011-07-24T13:20:07Z</time>
      </trkpt>
      <trkpt lat="46.17287" lon="6.52495">
        <ele>1294</ele>
        <time>2011-07-24T13:20:09Z</time>
      </trkpt>
      <trkpt lat="46.17295" lon="6.52499">
        <ele>1294</ele>
        <time>2011-07-24T13:20:11Z</time>
      </trkpt>
      <trkpt lat="46.17305" lon="6.52508">
        <ele>1299</ele>
        <time>2011-07-24T13:20:13Z</time>
      </trkpt>
      <trkpt lat="46.17315" lon="6.52519">
        <ele>1299</ele>
        <time>2011-07-24T13:20:15Z</time>
      </trkpt>
      <trkpt lat="46.17324" lon="6.52525">
        <ele>1299</ele>
        <time>2011-07-24T13:20:17Z</time>
      </trkpt>
      <trkpt lat="46.17333" lon="6.52523">
        <ele>1309</ele>
        <time>2011-07-24T13:20:22Z</time>
      </trkpt>
      <trkpt lat="46.1734" lon="6.52512">
        <ele>1309</ele>
        <time>2011-07-24T13:20:26Z</time>
      </trkpt>
      <trkpt lat="46.17348" lon="6.52503">
        <ele>1309</ele>
        <time>2011-07-24T13:20:46Z</time>
      </trkpt>
      <trkpt lat="46.17358" lon="6.52496">
        <ele>1309</ele>
        <time>2011-07-24T13:20:51Z</time>
      </trkpt>
      <trkpt lat="46.17369" lon="6.52485">
        <ele>1309</ele>
        <time>2011-07-24T13:20:54Z</time>
      </trkpt>
      <trkpt lat="46.17377" lon="6.52472">
        <ele>1309</ele>
        <time>2011-07-24T13:20:58Z</time>
      </trkpt>
      <trkpt lat="46.17385" lon="6.52464">
        <ele>1309</ele>
        <time>2011-07-24T13:21:00Z</time>
      </trkpt>
      <trkpt lat="46.17396" lon="6.52455">
        <ele>1309</ele>
        <time>2011-07-24T13:21:04Z</time>
      </trkpt>
      <trkpt lat="46.17407" lon="6.52446">
        <ele>1309</ele>
        <time>2011-07-24T13:21:07Z</time>
      </trkpt>
      <trkpt lat="46.17416" lon="6.52438">
        <ele>1309</ele>
        <time>2011-07-24T13:21:09Z</time>
      </trkpt>
      <trkpt lat="46.17424" lon="6.52432">
        <ele>1309</ele>
        <time>2011-07-24T13:21:11Z</time>
      </trkpt>
      <trkpt lat="46.17436" lon="6.52422">
        <ele>1309</ele>
        <time>2011-07-24T13:21:14Z</time>
      </trkpt>
      <trkpt lat="46.17443" lon="6.52412">
        <ele>1309</ele>
        <time>2011-07-24T13:21:17Z</time>
      </trkpt>
      <trkpt lat="46.17452" lon="6.52407">
        <ele>1309</ele>
        <time>2011-07-24T13:21:21Z</time>
      </trkpt>
      <trkpt lat="46.17463" lon="6.52413">
        <ele>1309</ele>
        <time>2011-07-24T13:21:24Z</time>
      </trkpt>
      <trkpt lat="46.17471" lon="6.52422">
        <ele>1309</ele>
        <time>2011-07-24T13:21:26Z</time>
      </trkpt>
      <trkpt lat="46.17482" lon="6.52432">
        <ele>1309</ele>
        <time>2011-07-24T13:21:28Z</time>
      </trkpt>
      <trkpt lat="46.17494" lon="6.52443">
        <ele>1316</ele>
        <time>2011-07-24T13:21:30Z</time>
      </trkpt>
      <trkpt lat="46.17507" lon="6.52455">
        <ele>1316</ele>
        <time>2011-07-24T13:21:32Z</time>
      </trkpt>
      <trkpt lat="46.17519" lon="6.52467">
        <ele>1323</ele>
        <time>2011-07-24T13:21:34Z</time>
      </trkpt>
      <trkpt lat="46.17529" lon="6.52483">
        <ele>1323</ele>
        <time>2011-07-24T13:21:36Z</time>
      </trkpt>
      <trkpt lat="46.17537" lon="6.52495">
        <ele>1332</ele>
        <time>2011-07-24T13:21:38Z</time>
      </trkpt>
      <trkpt lat="46.17544" lon="6.52508">
        <ele>1332</ele>
        <time>2011-07-24T13:21:40Z</time>
      </trkpt>
      <trkpt lat="46.17551" lon="6.52529">
        <ele>1342</ele>
        <time>2011-07-24T13:21:42Z</time>
      </trkpt>
      <trkpt lat="46.17557" lon="6.5255">
        <ele>1347</ele>
        <time>2011-07-24T13:21:44Z</time>
      </trkpt>
      <trkpt lat="46.1756" lon="6.5257">
        <ele>1352</ele>
        <time>2011-07-24T13:21:46Z</time>
      </trkpt>
      <trkpt lat="46.17564" lon="6.52596">
        <ele>1358</ele>
        <time>2011-07-24T13:21:48Z</time>
      </trkpt>
      <trkpt lat="46.17568" lon="6.52617">
        <ele>1364</ele>
        <time>2011-07-24T13:21:50Z</time>
      </trkpt>
      <trkpt lat="46.17568" lon="6.52633">
        <ele>1369</ele>
        <time>2011-07-24T13:21:52Z</time>
      </trkpt>
      <trkpt lat="46.17571" lon="6.52654">
        <ele>1369</ele>
        <time>2011-07-24T13:21:54Z</time>
      </trkpt>
      <trkpt lat="46.17576" lon="6.52674">
        <ele>1379</ele>
        <time>2011-07-24T13:21:56Z</time>
      </trkpt>
      <trkpt lat="46.1758" lon="6.52687">
        <ele>1385</ele>
        <time>2011-07-24T13:22:00Z</time>
      </trkpt>
      <trkpt lat="46.17585" lon="6.52704">
        <ele>1385</ele>
        <time>2011-07-24T13:22:03Z</time>
      </trkpt>
      <trkpt lat="46.17591" lon="6.52715">
        <ele>1391</ele>
        <time>2011-07-24T13:22:06Z</time>
      </trkpt>
      <trkpt lat="46.17595" lon="6.52727">
        <ele>1391</ele>
        <time>2011-07-24T13:22:09Z</time>
      </trkpt>
      <trkpt lat="46.176" lon="6.52742">
        <ele>1397</ele>
        <time>2011-07-24T13:22:12Z</time>
      </trkpt>
      <trkpt lat="46.17607" lon="6.52756">
        <ele>1397</ele>
        <time>2011-07-24T13:22:15Z</time>
      </trkpt>
      <trkpt lat="46.17602" lon="6.52772">
        <ele>1404</ele>
        <time>2011-07-24T13:22:23Z</time>
      </trkpt>
      <trkpt lat="46.1761" lon="6.52779">
        <ele>1404</ele>
        <time>2011-07-24T13:22:27Z</time>
      </trkpt>
      <trkpt lat="46.17622" lon="6.52775">
        <ele>1404</ele>
        <time>2011-07-24T13:22:29Z</time>
      </trkpt>
      <trkpt lat="46.17631" lon="6.52769">
        <ele>1404</ele>
        <time>2011-07-24T13:22:32Z</time>
      </trkpt>
      <trkpt lat="46.17639" lon="6.52754">
        <ele>1404</ele>
        <time>2011-07-24T13:22:48Z</time>
      </trkpt>
      <trkpt lat="46.17649" lon="6.52735">
        <ele>1404</ele>
        <time>2011-07-24T13:22:50Z</time>
      </trkpt>
      <trkpt lat="46.17653" lon="6.52723">
        <ele>1404</ele>
        <time>2011-07-24T13:22:51Z</time>
      </trkpt>
      <trkpt lat="46.17658" lon="6.5271">
        <ele>1404</ele>
        <time>2011-07-24T13:22:52Z</time>
      </trkpt>
      <trkpt lat="46.17663" lon="6.52694">
        <ele>1404</ele>
        <time>2011-07-24T13:22:53Z</time>
      </trkpt>
      <trkpt lat="46.17668" lon="6.5268">
        <ele>1404</ele>
        <time>2011-07-24T13:22:54Z</time>
      </trkpt>
      <trkpt lat="46.17673" lon="6.52665">
        <ele>1399</ele>
        <time>2011-07-24T13:22:55Z</time>
      </trkpt>
      <trkpt lat="46.17677" lon="6.52649">
        <ele>1399</ele>
        <time>2011-07-24T13:22:56Z</time>
      </trkpt>
      <trkpt lat="46.17682" lon="6.52636">
        <ele>1399</ele>
        <time>2011-07-24T13:22:57Z</time>
      </trkpt>
      <trkpt lat="46.17686" lon="6.52622">
        <ele>1399</ele>
        <time>2011-07-24T13:22:58Z</time>
      </trkpt>
      <trkpt lat="46.1769" lon="6.52606">
        <ele>1399</ele>
        <time>2011-07-24T13:22:59Z</time>
      </trkpt>
      <trkpt lat="46.17695" lon="6.5259">
        <ele>1399</ele>
        <time>2011-07-24T13:23:00Z</time>
      </trkpt>
      <trkpt lat="46.17699" lon="6.52574">
        <ele>1399</ele>
        <time>2011-07-24T13:23:01Z</time>
      </trkpt>
      <trkpt lat="46.17703" lon="6.52558">
        <ele>1393</ele>
        <time>2011-07-24T13:23:02Z</time>
      </trkpt>
      <trkpt lat="46.17707" lon="6.52543">
        <ele>1393</ele>
        <time>2011-07-24T13:23:03Z</time>
      </trkpt>
      <trkpt lat="46.1771" lon="6.52527">
        <ele>1393</ele>
        <time>2011-07-24T13:23:04Z</time>
      </trkpt>
      <trkpt lat="46.17714" lon="6.52513">
        <ele>1393</ele>
        <time>2011-07-24T13:23:05Z</time>
      </trkpt>
      <trkpt lat="46.17719" lon="6.52498">
        <ele>1393</ele>
        <time>2011-07-24T13:23:06Z</time>
      </trkpt>
      <trkpt lat="46.17724" lon="6.52481">
        <ele>1387</ele>
        <time>2011-07-24T13:23:07Z</time>
      </trkpt>
      <trkpt lat="46.1773" lon="6.52465">
        <ele>1387</ele>
        <time>2011-07-24T13:23:08Z</time>
      </trkpt>
      <trkpt lat="46.17735" lon="6.5245">
        <ele>1387</ele>
        <time>2011-07-24T13:23:09Z</time>
      </trkpt>
      <trkpt lat="46.1774" lon="6.52435">
        <ele>1387</ele>
        <time>2011-07-24T13:23:10Z</time>
      </trkpt>
      <trkpt lat="46.17745" lon="6.52421">
        <ele>1387</ele>
        <time>2011-07-24T13:23:11Z</time>
      </trkpt>
      <trkpt lat="46.17751" lon="6.52409">
        <ele>1387</ele>
        <time>2011-07-24T13:23:12Z</time>
      </trkpt>
      <trkpt lat="46.17759" lon="6.52393">
        <ele>1382</ele>
        <time>2011-07-24T13:23:14Z</time>
      </trkpt>
      <trkpt lat="46.17765" lon="6.5238">
        <ele>1382</ele>
        <time>2011-07-24T13:23:25Z</time>
      </trkpt>
      <trkpt lat="46.17775" lon="6.52369">
        <ele>1382</ele>
        <time>2011-07-24T13:23:29Z</time>
      </trkpt>
      <trkpt lat="46.17783" lon="6.52359">
        <ele>1382</ele>
        <time>2011-07-24T13:23:32Z</time>
      </trkpt>
      <trkpt lat="46.17795" lon="6.52347">
        <ele>1382</ele>
        <time>2011-07-24T13:23:35Z</time>
      </trkpt>
      <trkpt lat="46.17805" lon="6.52339">
        <ele>1382</ele>
        <time>2011-07-24T13:23:37Z</time>
      </trkpt>
      <trkpt lat="46.17815" lon="6.5233">
        <ele>1382</ele>
        <time>2011-07-24T13:23:40Z</time>
      </trkpt>
      <trkpt lat="46.17824" lon="6.52316">
        <ele>1374</ele>
        <time>2011-07-24T13:23:43Z</time>
      </trkpt>
      <trkpt lat="46.17834" lon="6.52303">
        <ele>1374</ele>
        <time>2011-07-24T13:23:45Z</time>
      </trkpt>
      <trkpt lat="46.17842" lon="6.52288">
        <ele>1374</ele>
        <time>2011-07-24T13:23:47Z</time>
      </trkpt>
      <trkpt lat="46.1785" lon="6.52273">
        <ele>1374</ele>
        <time>2011-07-24T13:23:49Z</time>
      </trkpt>
      <trkpt lat="46.17858" lon="6.52259">
        <ele>1369</ele>
        <time>2011-07-24T13:23:51Z</time>
      </trkpt>
      <trkpt lat="46.17866" lon="6.52243">
        <ele>1369</ele>
        <time>2011-07-24T13:23:53Z</time>
      </trkpt>
      <trkpt lat="46.17874" lon="6.52229">
        <ele>1369</ele>
        <time>2011-07-24T13:23:55Z</time>
      </trkpt>
      <trkpt lat="46.17879" lon="6.52213">
        <ele>1369</ele>
        <time>2011-07-24T13:23:57Z</time>
      </trkpt>
      <trkpt lat="46.17885" lon="6.52193">
        <ele>1369</ele>
        <time>2011-07-24T13:23:59Z</time>
      </trkpt>
      <trkpt lat="46.17892" lon="6.52178">
        <ele>1369</ele>
        <time>2011-07-24T13:24:01Z</time>
      </trkpt>
      <trkpt lat="46.17897" lon="6.52166">
        <ele>1369</ele>
        <time>2011-07-24T13:26:24Z</time>
      </trkpt>
      <trkpt lat="46.17907" lon="6.52154">
        <ele>1369</ele>
        <time>2011-07-24T13:26:27Z</time>
      </trkpt>
      <trkpt lat="46.17916" lon="6.52147">
        <ele>1369</ele>
        <time>2011-07-24T13:26:29Z</time>
      </trkpt>
      <trkpt lat="46.17928" lon="6.52142">
        <ele>1369</ele>
        <time>2011-07-24T13:26:32Z</time>
      </trkpt>
      <trkpt lat="46.17938" lon="6.52142">
        <ele>1369</ele>
        <time>2011-07-24T13:26:35Z</time>
      </trkpt>
      <trkpt lat="46.17949" lon="6.52145">
        <ele>1369</ele>
        <time>2011-07-24T13:26:37Z</time>
      </trkpt>
      <trkpt lat="46.17959" lon="6.5215">
        <ele>1369</ele>
        <time>2011-07-24T13:26:39Z</time>
      </trkpt>
      <trkpt lat="46.1797" lon="6.52156">
        <ele>1374</ele>
        <time>2011-07-24T13:26:41Z</time>
      </trkpt>
      <trkpt lat="46.17981" lon="6.52161">
        <ele>1374</ele>
        <time>2011-07-24T13:26:43Z</time>
      </trkpt>
      <trkpt lat="46.17993" lon="6.52165">
        <ele>1374</ele>
        <time>2011-07-24T13:26:45Z</time>
      </trkpt>
      <trkpt lat="46.18005" lon="6.5217">
        <ele>1380</ele>
        <time>2011-07-24T13:26:47Z</time>
      </trkpt>
      <trkpt lat="46.18018" lon="6.52174">
        <ele>1380</ele>
        <time>2011-07-24T13:26:49Z</time>
      </trkpt>
      <trkpt lat="46.18032" lon="6.52177">
        <ele>1380</ele>
        <time>2011-07-24T13:26:51Z</time>
      </trkpt>
      <trkpt lat="46.18046" lon="6.52179">
        <ele>1385</ele>
        <time>2011-07-24T13:26:53Z</time>
      </trkpt>
      <trkpt lat="46.18061" lon="6.52179">
        <ele>1385</ele>
        <time>2011-07-24T13:26:55Z</time>
      </trkpt>
      <trkpt lat="46.18076" lon="6.52179">
        <ele>1385</ele>
        <time>2011-07-24T13:26:57Z</time>
      </trkpt>
      <trkpt lat="46.18092" lon="6.5218">
        <ele>1385</ele>
        <time>2011-07-24T13:26:59Z</time>
      </trkpt>
      <trkpt lat="46.18108" lon="6.52178">
        <ele>1391</ele>
        <time>2011-07-24T13:27:01Z</time>
      </trkpt>
      <trkpt lat="46.18125" lon="6.52175">
        <ele>1391</ele>
        <time>2011-07-24T13:27:03Z</time>
      </trkpt>
      <trkpt lat="46.18142" lon="6.52171">
        <ele>1391</ele>
        <time>2011-07-24T13:27:05Z</time>
      </trkpt>
      <trkpt lat="46.1816" lon="6.52167">
        <ele>1391</ele>
        <time>2011-07-24T13:27:07Z</time>
      </trkpt>
      <trkpt lat="46.1817" lon="6.52167">
        <ele>1391</ele>
        <time>2011-07-24T13:27:08Z</time>
      </trkpt>
      <trkpt lat="46.1818" lon="6.52166">
        <ele>1391</ele>
        <time>2011-07-24T13:27:09Z</time>
      </trkpt>
      <trkpt lat="46.18191" lon="6.52166">
        <ele>1391</ele>
        <time>2011-07-24T13:27:10Z</time>
      </trkpt>
      <trkpt lat="46.18201" lon="6.52167">
        <ele>1391</ele>
        <time>2011-07-24T13:27:11Z</time>
      </trkpt>
      <trkpt lat="46.18213" lon="6.52169">
        <ele>1391</ele>
        <time>2011-07-24T13:27:12Z</time>
      </trkpt>
      <trkpt lat="46.18223" lon="6.52171">
        <ele>1391</ele>
        <time>2011-07-24T13:27:13Z</time>
      </trkpt>
      <trkpt lat="46.18233" lon="6.52172">
        <ele>1391</ele>
        <time>2011-07-24T13:27:14Z</time>
      </trkpt>
      <trkpt lat="46.18243" lon="6.52174">
        <ele>1391</ele>
        <time>2011-07-24T13:27:15Z</time>
      </trkpt>
      <trkpt lat="46.18253" lon="6.52178">
        <ele>1391</ele>
        <time>2011-07-24T13:27:16Z</time>
      </trkpt>
      <trkpt lat="46.18264" lon="6.52182">
        <ele>1384</ele>
        <time>2011-07-24T13:27:17Z</time>
      </trkpt>
      <trkpt lat="46.18273" lon="6.52185">
        <ele>1384</ele>
        <time>2011-07-24T13:27:18Z</time>
      </trkpt>
      <trkpt lat="46.1829" lon="6.52191">
        <ele>1384</ele>
        <time>2011-07-24T13:27:20Z</time>
      </trkpt>
      <trkpt lat="46.18304" lon="6.52199">
        <ele>1384</ele>
        <time>2011-07-24T13:27:22Z</time>
      </trkpt>
      <trkpt lat="46.18316" lon="6.52209">
        <ele>1379</ele>
        <time>2011-07-24T13:27:24Z</time>
      </trkpt>
      <trkpt lat="46.18323" lon="6.52223">
        <ele>1379</ele>
        <time>2011-07-24T13:27:26Z</time>
      </trkpt>
      <trkpt lat="46.18327" lon="6.52239">
        <ele>1379</ele>
        <time>2011-07-24T13:27:28Z</time>
      </trkpt>
      <trkpt lat="46.18329" lon="6.52259">
        <ele>1379</ele>
        <time>2011-07-24T13:27:30Z</time>
      </trkpt>
      <trkpt lat="46.18329" lon="6.52279">
        <ele>1379</ele>
        <time>2011-07-24T13:27:32Z</time>
      </trkpt>
      <trkpt lat="46.18327" lon="6.52301">
        <ele>1379</ele>
        <time>2011-07-24T13:27:34Z</time>
      </trkpt>
      <trkpt lat="46.18324" lon="6.52322">
        <ele>1379</ele>
        <time>2011-07-24T13:27:36Z</time>
      </trkpt>
      <trkpt lat="46.18324" lon="6.52342">
        <ele>1371</ele>
        <time>2011-07-24T13:27:38Z</time>
      </trkpt>
      <trkpt lat="46.18332" lon="6.52365">
        <ele>1371</ele>
        <time>2011-07-24T13:27:40Z</time>
      </trkpt>
      <trkpt lat="46.18342" lon="6.52386">
        <ele>1365</ele>
        <time>2011-07-24T13:27:42Z</time>
      </trkpt>
      <trkpt lat="46.18352" lon="6.52405">
        <ele>1365</ele>
        <time>2011-07-24T13:27:44Z</time>
      </trkpt>
      <trkpt lat="46.18359" lon="6.52421">
        <ele>1365</ele>
        <time>2011-07-24T13:27:46Z</time>
      </trkpt>
      <trkpt lat="46.18367" lon="6.52437">
        <ele>1365</ele>
        <time>2011-07-24T13:27:48Z</time>
      </trkpt>
      <trkpt lat="46.18375" lon="6.52453">
        <ele>1359</ele>
        <time>2011-07-24T13:27:50Z</time>
      </trkpt>
      <trkpt lat="46.18382" lon="6.52467">
        <ele>1359</ele>
        <time>2011-07-24T13:27:52Z</time>
      </trkpt>
      <trkpt lat="46.18389" lon="6.52479">
        <ele>1359</ele>
        <time>2011-07-24T13:27:54Z</time>
      </trkpt>
      <trkpt lat="46.18398" lon="6.52488">
        <ele>1359</ele>
        <time>2011-07-24T13:27:57Z</time>
      </trkpt>
      <trkpt lat="46.18407" lon="6.5249">
        <ele>1367</ele>
        <time>2011-07-24T13:28:34Z</time>
      </trkpt>
      <trkpt lat="46.18421" lon="6.52498">
        <ele>1367</ele>
        <time>2011-07-24T13:28:38Z</time>
      </trkpt>
      <trkpt lat="46.1843" lon="6.52503">
        <ele>1367</ele>
        <time>2011-07-24T13:28:39Z</time>
      </trkpt>
      <trkpt lat="46.1844" lon="6.52507">
        <ele>1367</ele>
        <time>2011-07-24T13:28:40Z</time>
      </trkpt>
      <trkpt lat="46.18456" lon="6.52516">
        <ele>1367</ele>
        <time>2011-07-24T13:28:42Z</time>
      </trkpt>
      <trkpt lat="46.18472" lon="6.52524">
        <ele>1367</ele>
        <time>2011-07-24T13:28:44Z</time>
      </trkpt>
      <trkpt lat="46.18481" lon="6.5253">
        <ele>1367</ele>
        <time>2011-07-24T13:28:45Z</time>
      </trkpt>
      <trkpt lat="46.18489" lon="6.52536">
        <ele>1367</ele>
        <time>2011-07-24T13:28:46Z</time>
      </trkpt>
      <trkpt lat="46.18498" lon="6.52543">
        <ele>1367</ele>
        <time>2011-07-24T13:28:47Z</time>
      </trkpt>
      <trkpt lat="46.18506" lon="6.5255">
        <ele>1367</ele>
        <time>2011-07-24T13:28:48Z</time>
      </trkpt>
      <trkpt lat="46.18519" lon="6.52564">
        <ele>1362</ele>
        <time>2011-07-24T13:28:50Z</time>
      </trkpt>
      <trkpt lat="46.18529" lon="6.52578">
        <ele>1362</ele>
        <time>2011-07-24T13:28:52Z</time>
      </trkpt>
      <trkpt lat="46.18534" lon="6.52595">
        <ele>1362</ele>
        <time>2011-07-24T13:28:54Z</time>
      </trkpt>
      <trkpt lat="46.18537" lon="6.52615">
        <ele>1362</ele>
        <time>2011-07-24T13:28:56Z</time>
      </trkpt>
      <trkpt lat="46.1854" lon="6.52636">
        <ele>1362</ele>
        <time>2011-07-24T13:28:58Z</time>
      </trkpt>
      <trkpt lat="46.18546" lon="6.52658">
        <ele>1362</ele>
        <time>2011-07-24T13:29:00Z</time>
      </trkpt>
      <trkpt lat="46.1855" lon="6.52671">
        <ele>1362</ele>
        <time>2011-07-24T13:29:01Z</time>
      </trkpt>
      <trkpt lat="46.1855" lon="6.52687">
        <ele>1362</ele>
        <time>2011-07-24T13:29:02Z</time>
      </trkpt>
      <trkpt lat="46.1855" lon="6.52702">
        <ele>1362</ele>
        <time>2011-07-24T13:29:03Z</time>
      </trkpt>
      <trkpt lat="46.18549" lon="6.52748">
        <ele>1356</ele>
        <time>2011-07-24T13:29:06Z</time>
      </trkpt>
      <trkpt lat="46.18547" lon="6.52764">
        <ele>1356</ele>
        <time>2011-07-24T13:29:07Z</time>
      </trkpt>
      <trkpt lat="46.18548" lon="6.52779">
        <ele>1356</ele>
        <time>2011-07-24T13:29:08Z</time>
      </trkpt>
      <trkpt lat="46.18543" lon="6.52801">
        <ele>1356</ele>
        <time>2011-07-24T13:29:10Z</time>
      </trkpt>
      <trkpt lat="46.18536" lon="6.52813">
        <ele>1351</ele>
        <time>2011-07-24T13:29:11Z</time>
      </trkpt>
      <trkpt lat="46.18535" lon="6.52835">
        <ele>1351</ele>
        <time>2011-07-24T13:29:13Z</time>
      </trkpt>
      <trkpt lat="46.18533" lon="6.52858">
        <ele>1351</ele>
        <time>2011-07-24T13:29:15Z</time>
      </trkpt>
      <trkpt lat="46.18527" lon="6.52876">
        <ele>1356</ele>
        <time>2011-07-24T13:29:17Z</time>
      </trkpt>
      <trkpt lat="46.18521" lon="6.52887">
        <ele>1356</ele>
        <time>2011-07-24T13:29:18Z</time>
      </trkpt>
      <trkpt lat="46.18516" lon="6.52898">
        <ele>1350</ele>
        <time>2011-07-24T13:29:19Z</time>
      </trkpt>
      <trkpt lat="46.18511" lon="6.5291">
        <ele>1350</ele>
        <time>2011-07-24T13:29:20Z</time>
      </trkpt>
      <trkpt lat="46.18503" lon="6.52928">
        <ele>1345</ele>
        <time>2011-07-24T13:29:22Z</time>
      </trkpt>
      <trkpt lat="46.18488" lon="6.52958">
        <ele>1345</ele>
        <time>2011-07-24T13:29:26Z</time>
      </trkpt>
      <trkpt lat="46.18483" lon="6.52969">
        <ele>1345</ele>
        <time>2011-07-24T13:29:27Z</time>
      </trkpt>
      <trkpt lat="46.18477" lon="6.52982">
        <ele>1339</ele>
        <time>2011-07-24T13:29:28Z</time>
      </trkpt>
      <trkpt lat="46.18464" lon="6.53001">
        <ele>1339</ele>
        <time>2011-07-24T13:29:30Z</time>
      </trkpt>
      <trkpt lat="46.18456" lon="6.53011">
        <ele>1333</ele>
        <time>2011-07-24T13:29:31Z</time>
      </trkpt>
      <trkpt lat="46.18447" lon="6.53022">
        <ele>1333</ele>
        <time>2011-07-24T13:29:32Z</time>
      </trkpt>
      <trkpt lat="46.18438" lon="6.5303">
        <ele>1333</ele>
        <time>2011-07-24T13:29:33Z</time>
      </trkpt>
      <trkpt lat="46.18428" lon="6.53037">
        <ele>1333</ele>
        <time>2011-07-24T13:29:34Z</time>
      </trkpt>
      <trkpt lat="46.18417" lon="6.53046">
        <ele>1333</ele>
        <time>2011-07-24T13:29:35Z</time>
      </trkpt>
      <trkpt lat="46.18407" lon="6.53054">
        <ele>1333</ele>
        <time>2011-07-24T13:29:36Z</time>
      </trkpt>
      <trkpt lat="46.18397" lon="6.53064">
        <ele>1333</ele>
        <time>2011-07-24T13:29:37Z</time>
      </trkpt>
      <trkpt lat="46.18387" lon="6.53077">
        <ele>1333</ele>
        <time>2011-07-24T13:29:38Z</time>
      </trkpt>
      <trkpt lat="46.18379" lon="6.53088">
        <ele>1333</ele>
        <time>2011-07-24T13:29:39Z</time>
      </trkpt>
      <trkpt lat="46.1837" lon="6.53097">
        <ele>1333</ele>
        <time>2011-07-24T13:29:40Z</time>
      </trkpt>
      <trkpt lat="46.18361" lon="6.53106">
        <ele>1333</ele>
        <time>2011-07-24T13:29:41Z</time>
      </trkpt>
      <trkpt lat="46.18351" lon="6.53115">
        <ele>1333</ele>
        <time>2011-07-24T13:29:42Z</time>
      </trkpt>
      <trkpt lat="46.18342" lon="6.53122">
        <ele>1338</ele>
        <time>2011-07-24T13:29:43Z</time>
      </trkpt>
      <trkpt lat="46.18334" lon="6.5313">
        <ele>1338</ele>
        <time>2011-07-24T13:29:44Z</time>
      </trkpt>
      <trkpt lat="46.18317" lon="6.53144">
        <ele>1338</ele>
        <time>2011-07-24T13:29:46Z</time>
      </trkpt>
      <trkpt lat="46.18308" lon="6.5315">
        <ele>1338</ele>
        <time>2011-07-24T13:29:47Z</time>
      </trkpt>
      <trkpt lat="46.18299" lon="6.53157">
        <ele>1338</ele>
        <time>2011-07-24T13:29:48Z</time>
      </trkpt>
      <trkpt lat="46.18287" lon="6.53163">
        <ele>1338</ele>
        <time>2011-07-24T13:29:49Z</time>
      </trkpt>
      <trkpt lat="46.18277" lon="6.5317">
        <ele>1338</ele>
        <time>2011-07-24T13:29:50Z</time>
      </trkpt>
      <trkpt lat="46.18268" lon="6.53174">
        <ele>1344</ele>
        <time>2011-07-24T13:29:51Z</time>
      </trkpt>
      <trkpt lat="46.18255" lon="6.53188">
        <ele>1344</ele>
        <time>2011-07-24T13:29:53Z</time>
      </trkpt>
      <trkpt lat="46.18248" lon="6.53197">
        <ele>1344</ele>
        <time>2011-07-24T13:29:54Z</time>
      </trkpt>
      <trkpt lat="46.18237" lon="6.53206">
        <ele>1344</ele>
        <time>2011-07-24T13:29:55Z</time>
      </trkpt>
      <trkpt lat="46.18227" lon="6.53215">
        <ele>1349</ele>
        <time>2011-07-24T13:29:56Z</time>
      </trkpt>
      <trkpt lat="46.18216" lon="6.53224">
        <ele>1349</ele>
        <time>2011-07-24T13:29:57Z</time>
      </trkpt>
      <trkpt lat="46.18206" lon="6.53235">
        <ele>1349</ele>
        <time>2011-07-24T13:29:58Z</time>
      </trkpt>
      <trkpt lat="46.18198" lon="6.53246">
        <ele>1349</ele>
        <time>2011-07-24T13:29:59Z</time>
      </trkpt>
      <trkpt lat="46.18189" lon="6.53258">
        <ele>1349</ele>
        <time>2011-07-24T13:30:00Z</time>
      </trkpt>
      <trkpt lat="46.18182" lon="6.53268">
        <ele>1349</ele>
        <time>2011-07-24T13:30:01Z</time>
      </trkpt>
      <trkpt lat="46.18176" lon="6.5328">
        <ele>1349</ele>
        <time>2011-07-24T13:30:02Z</time>
      </trkpt>
      <trkpt lat="46.1817" lon="6.5329">
        <ele>1349</ele>
        <time>2011-07-24T13:30:03Z</time>
      </trkpt>
      <trkpt lat="46.1816" lon="6.533">
        <ele>1349</ele>
        <time>2011-07-24T13:30:04Z</time>
      </trkpt>
      <trkpt lat="46.18151" lon="6.53311">
        <ele>1349</ele>
        <time>2011-07-24T13:30:05Z</time>
      </trkpt>
      <trkpt lat="46.18142" lon="6.53321">
        <ele>1349</ele>
        <time>2011-07-24T13:30:06Z</time>
      </trkpt>
      <trkpt lat="46.18134" lon="6.5333">
        <ele>1349</ele>
        <time>2011-07-24T13:30:07Z</time>
      </trkpt>
      <trkpt lat="46.18128" lon="6.53342">
        <ele>1349</ele>
        <time>2011-07-24T13:30:08Z</time>
      </trkpt>
      <trkpt lat="46.18118" lon="6.53361">
        <ele>1349</ele>
        <time>2011-07-24T13:30:10Z</time>
      </trkpt>
      <trkpt lat="46.18111" lon="6.5337">
        <ele>1349</ele>
        <time>2011-07-24T13:30:11Z</time>
      </trkpt>
      <trkpt lat="46.18103" lon="6.53376">
        <ele>1349</ele>
        <time>2011-07-24T13:30:12Z</time>
      </trkpt>
      <trkpt lat="46.18089" lon="6.53386">
        <ele>1349</ele>
        <time>2011-07-24T13:30:14Z</time>
      </trkpt>
      <trkpt lat="46.18082" lon="6.53399">
        <ele>1344</ele>
        <time>2011-07-24T13:30:16Z</time>
      </trkpt>
      <trkpt lat="46.18075" lon="6.53415">
        <ele>1344</ele>
        <time>2011-07-24T13:30:19Z</time>
      </trkpt>
      <trkpt lat="46.18069" lon="6.53433">
        <ele>1344</ele>
        <time>2011-07-24T13:30:22Z</time>
      </trkpt>
      <trkpt lat="46.18061" lon="6.53445">
        <ele>1344</ele>
        <time>2011-07-24T13:30:25Z</time>
      </trkpt>
      <trkpt lat="46.1805" lon="6.53453">
        <ele>1344</ele>
        <time>2011-07-24T13:30:28Z</time>
      </trkpt>
      <trkpt lat="46.18042" lon="6.53459">
        <ele>1344</ele>
        <time>2011-07-24T13:30:30Z</time>
      </trkpt>
      <trkpt lat="46.18032" lon="6.53463">
        <ele>1344</ele>
        <time>2011-07-24T13:30:32Z</time>
      </trkpt>
      <trkpt lat="46.18022" lon="6.5347">
        <ele>1344</ele>
        <time>2011-07-24T13:30:34Z</time>
      </trkpt>
      <trkpt lat="46.18013" lon="6.53477">
        <ele>1344</ele>
        <time>2011-07-24T13:30:36Z</time>
      </trkpt>
      <trkpt lat="46.18004" lon="6.53483">
        <ele>1344</ele>
        <time>2011-07-24T13:30:38Z</time>
      </trkpt>
      <trkpt lat="46.17994" lon="6.5349">
        <ele>1344</ele>
        <time>2011-07-24T13:30:40Z</time>
      </trkpt>
      <trkpt lat="46.17985" lon="6.53498">
        <ele>1351</ele>
        <time>2011-07-24T13:30:42Z</time>
      </trkpt>
      <trkpt lat="46.17975" lon="6.53508">
        <ele>1351</ele>
        <time>2011-07-24T13:30:44Z</time>
      </trkpt>
      <trkpt lat="46.17968" lon="6.53519">
        <ele>1351</ele>
        <time>2011-07-24T13:30:46Z</time>
      </trkpt>
      <trkpt lat="46.1796" lon="6.53531">
        <ele>1351</ele>
        <time>2011-07-24T13:30:48Z</time>
      </trkpt>
      <trkpt lat="46.17954" lon="6.53545">
        <ele>1351</ele>
        <time>2011-07-24T13:30:50Z</time>
      </trkpt>
      <trkpt lat="46.17951" lon="6.53559">
        <ele>1351</ele>
        <time>2011-07-24T13:30:52Z</time>
      </trkpt>
      <trkpt lat="46.17949" lon="6.53575">
        <ele>1356</ele>
        <time>2011-07-24T13:30:54Z</time>
      </trkpt>
      <trkpt lat="46.17946" lon="6.53589">
        <ele>1356</ele>
        <time>2011-07-24T13:30:56Z</time>
      </trkpt>
      <trkpt lat="46.17942" lon="6.53605">
        <ele>1356</ele>
        <time>2011-07-24T13:30:59Z</time>
      </trkpt>
      <trkpt lat="46.17952" lon="6.53607">
        <ele>1373</ele>
        <time>2011-07-24T13:34:24Z</time>
      </trkpt>
      <trkpt lat="46.17943" lon="6.53611">
        <ele>1366</ele>
        <time>2011-07-24T13:36:35Z</time>
      </trkpt>
      <trkpt lat="46.17946" lon="6.53594">
        <ele>1366</ele>
        <time>2011-07-24T14:10:08Z</time>
      </trkpt>
      <trkpt lat="46.17949" lon="6.53578">
        <ele>1366</ele>
        <time>2011-07-24T14:10:10Z</time>
      </trkpt>
      <trkpt lat="46.17952" lon="6.53562">
        <ele>1366</ele>
        <time>2011-07-24T14:10:12Z</time>
      </trkpt>
      <trkpt lat="46.17957" lon="6.53544">
        <ele>1366</ele>
        <time>2011-07-24T14:10:14Z</time>
      </trkpt>
      <trkpt lat="46.17964" lon="6.5353">
        <ele>1366</ele>
        <time>2011-07-24T14:10:16Z</time>
      </trkpt>
      <trkpt lat="46.17974" lon="6.53517">
        <ele>1366</ele>
        <time>2011-07-24T14:10:18Z</time>
      </trkpt>
      <trkpt lat="46.17985" lon="6.53505">
        <ele>1366</ele>
        <time>2011-07-24T14:10:20Z</time>
      </trkpt>
      <trkpt lat="46.17997" lon="6.53493">
        <ele>1366</ele>
        <time>2011-07-24T14:10:22Z</time>
      </trkpt>
      <trkpt lat="46.18008" lon="6.53484">
        <ele>1361</ele>
        <time>2011-07-24T14:10:24Z</time>
      </trkpt>
      <trkpt lat="46.18019" lon="6.53477">
        <ele>1361</ele>
        <time>2011-07-24T14:10:26Z</time>
      </trkpt>
      <trkpt lat="46.1803" lon="6.53469">
        <ele>1361</ele>
        <time>2011-07-24T14:10:28Z</time>
      </trkpt>
      <trkpt lat="46.18039" lon="6.53462">
        <ele>1355</ele>
        <time>2011-07-24T14:10:30Z</time>
      </trkpt>
      <trkpt lat="46.1805" lon="6.53456">
        <ele>1355</ele>
        <time>2011-07-24T14:10:33Z</time>
      </trkpt>
      <trkpt lat="46.18058" lon="6.53451">
        <ele>1349</ele>
        <time>2011-07-24T14:10:36Z</time>
      </trkpt>
      <trkpt lat="46.18068" lon="6.53446">
        <ele>1349</ele>
        <time>2011-07-24T14:10:41Z</time>
      </trkpt>
      <trkpt lat="46.1807" lon="6.53459">
        <ele>1343</ele>
        <time>2011-07-24T14:10:44Z</time>
      </trkpt>
      <trkpt lat="46.18065" lon="6.53477">
        <ele>1343</ele>
        <time>2011-07-24T14:10:47Z</time>
      </trkpt>
      <trkpt lat="46.18062" lon="6.53491">
        <ele>1343</ele>
        <time>2011-07-24T14:10:49Z</time>
      </trkpt>
      <trkpt lat="46.18058" lon="6.53504">
        <ele>1343</ele>
        <time>2011-07-24T14:10:51Z</time>
      </trkpt>
      <trkpt lat="46.18053" lon="6.53521">
        <ele>1343</ele>
        <time>2011-07-24T14:10:54Z</time>
      </trkpt>
      <trkpt lat="46.18059" lon="6.53533">
        <ele>1343</ele>
        <time>2011-07-24T14:10:57Z</time>
      </trkpt>
      <trkpt lat="46.18072" lon="6.53532">
        <ele>1343</ele>
        <time>2011-07-24T14:11:00Z</time>
      </trkpt>
      <trkpt lat="46.18081" lon="6.53526">
        <ele>1343</ele>
        <time>2011-07-24T14:11:02Z</time>
      </trkpt>
      <trkpt lat="46.1809" lon="6.5352">
        <ele>1343</ele>
        <time>2011-07-24T14:11:04Z</time>
      </trkpt>
      <trkpt lat="46.18103" lon="6.53516">
        <ele>1343</ele>
        <time>2011-07-24T14:11:07Z</time>
      </trkpt>
      <trkpt lat="46.18113" lon="6.5351">
        <ele>1337</ele>
        <time>2011-07-24T14:11:09Z</time>
      </trkpt>
      <trkpt lat="46.18123" lon="6.535">
        <ele>1337</ele>
        <time>2011-07-24T14:11:11Z</time>
      </trkpt>
      <trkpt lat="46.18133" lon="6.5349">
        <ele>1337</ele>
        <time>2011-07-24T14:11:13Z</time>
      </trkpt>
      <trkpt lat="46.18139" lon="6.53476">
        <ele>1337</ele>
        <time>2011-07-24T14:11:15Z</time>
      </trkpt>
      <trkpt lat="46.18143" lon="6.53458">
        <ele>1337</ele>
        <time>2011-07-24T14:11:17Z</time>
      </trkpt>
      <trkpt lat="46.18148" lon="6.53435">
        <ele>1337</ele>
        <time>2011-07-24T14:11:19Z</time>
      </trkpt>
      <trkpt lat="46.18153" lon="6.53422">
        <ele>1337</ele>
        <time>2011-07-24T14:11:20Z</time>
      </trkpt>
      <trkpt lat="46.18161" lon="6.534">
        <ele>1337</ele>
        <time>2011-07-24T14:11:22Z</time>
      </trkpt>
      <trkpt lat="46.18177" lon="6.53387">
        <ele>1337</ele>
        <time>2011-07-24T14:11:24Z</time>
      </trkpt>
      <trkpt lat="46.18193" lon="6.5338">
        <ele>1337</ele>
        <time>2011-07-24T14:11:26Z</time>
      </trkpt>
      <trkpt lat="46.18203" lon="6.53374">
        <ele>1343</ele>
        <time>2011-07-24T14:11:27Z</time>
      </trkpt>
      <trkpt lat="46.18212" lon="6.53356">
        <ele>1343</ele>
        <time>2011-07-24T14:11:29Z</time>
      </trkpt>
      <trkpt lat="46.18216" lon="6.53345">
        <ele>1343</ele>
        <time>2011-07-24T14:11:30Z</time>
      </trkpt>
      <trkpt lat="46.18223" lon="6.53321">
        <ele>1343</ele>
        <time>2011-07-24T14:11:32Z</time>
      </trkpt>
      <trkpt lat="46.18231" lon="6.53299">
        <ele>1343</ele>
        <time>2011-07-24T14:11:34Z</time>
      </trkpt>
      <trkpt lat="46.18238" lon="6.53278">
        <ele>1337</ele>
        <time>2011-07-24T14:11:36Z</time>
      </trkpt>
      <trkpt lat="46.18253" lon="6.53262">
        <ele>1337</ele>
        <time>2011-07-24T14:11:38Z</time>
      </trkpt>
      <trkpt lat="46.18264" lon="6.53257">
        <ele>1337</ele>
        <time>2011-07-24T14:11:39Z</time>
      </trkpt>
      <trkpt lat="46.18277" lon="6.53251">
        <ele>1337</ele>
        <time>2011-07-24T14:11:40Z</time>
      </trkpt>
      <trkpt lat="46.1829" lon="6.53246">
        <ele>1337</ele>
        <time>2011-07-24T14:11:41Z</time>
      </trkpt>
      <trkpt lat="46.18302" lon="6.53242">
        <ele>1337</ele>
        <time>2011-07-24T14:11:42Z</time>
      </trkpt>
      <trkpt lat="46.18314" lon="6.53236">
        <ele>1337</ele>
        <time>2011-07-24T14:11:43Z</time>
      </trkpt>
      <trkpt lat="46.18324" lon="6.5323">
        <ele>1337</ele>
        <time>2011-07-24T14:11:44Z</time>
      </trkpt>
      <trkpt lat="46.18334" lon="6.53223">
        <ele>1337</ele>
        <time>2011-07-24T14:11:45Z</time>
      </trkpt>
      <trkpt lat="46.18351" lon="6.53215">
        <ele>1337</ele>
        <time>2011-07-24T14:11:47Z</time>
      </trkpt>
      <trkpt lat="46.18368" lon="6.53209">
        <ele>1337</ele>
        <time>2011-07-24T14:11:49Z</time>
      </trkpt>
      <trkpt lat="46.18384" lon="6.53206">
        <ele>1331</ele>
        <time>2011-07-24T14:11:51Z</time>
      </trkpt>
      <trkpt lat="46.18399" lon="6.53201">
        <ele>1331</ele>
        <time>2011-07-24T14:11:53Z</time>
      </trkpt>
      <trkpt lat="46.18414" lon="6.53197">
        <ele>1331</ele>
        <time>2011-07-24T14:11:55Z</time>
      </trkpt>
      <trkpt lat="46.18425" lon="6.53191">
        <ele>1331</ele>
        <time>2011-07-24T14:11:57Z</time>
      </trkpt>
      <trkpt lat="46.18438" lon="6.53181">
        <ele>1331</ele>
        <time>2011-07-24T14:11:59Z</time>
      </trkpt>
      <trkpt lat="46.18455" lon="6.5317">
        <ele>1326</ele>
        <time>2011-07-24T14:12:01Z</time>
      </trkpt>
      <trkpt lat="46.18468" lon="6.53153">
        <ele>1326</ele>
        <time>2011-07-24T14:12:03Z</time>
      </trkpt>
      <trkpt lat="46.18483" lon="6.53139">
        <ele>1317</ele>
        <time>2011-07-24T14:12:05Z</time>
      </trkpt>
      <trkpt lat="46.18496" lon="6.53126">
        <ele>1317</ele>
        <time>2011-07-24T14:12:07Z</time>
      </trkpt>
      <trkpt lat="46.18509" lon="6.53115">
        <ele>1307</ele>
        <time>2011-07-24T14:12:09Z</time>
      </trkpt>
      <trkpt lat="46.1852" lon="6.53106">
        <ele>1300</ele>
        <time>2011-07-24T14:12:11Z</time>
      </trkpt>
      <trkpt lat="46.18529" lon="6.53095">
        <ele>1293</ele>
        <time>2011-07-24T14:12:13Z</time>
      </trkpt>
      <trkpt lat="46.18539" lon="6.53082">
        <ele>1293</ele>
        <time>2011-07-24T14:12:15Z</time>
      </trkpt>
      <trkpt lat="46.18549" lon="6.53066">
        <ele>1286</ele>
        <time>2011-07-24T14:12:17Z</time>
      </trkpt>
      <trkpt lat="46.18564" lon="6.53055">
        <ele>1286</ele>
        <time>2011-07-24T14:12:19Z</time>
      </trkpt>
      <trkpt lat="46.18574" lon="6.5305">
        <ele>1286</ele>
        <time>2011-07-24T14:12:20Z</time>
      </trkpt>
      <trkpt lat="46.18589" lon="6.53042">
        <ele>1286</ele>
        <time>2011-07-24T14:12:22Z</time>
      </trkpt>
      <trkpt lat="46.18604" lon="6.53029">
        <ele>1286</ele>
        <time>2011-07-24T14:12:24Z</time>
      </trkpt>
      <trkpt lat="46.18611" lon="6.53019">
        <ele>1286</ele>
        <time>2011-07-24T14:12:25Z</time>
      </trkpt>
      <trkpt lat="46.18617" lon="6.53008">
        <ele>1286</ele>
        <time>2011-07-24T14:12:26Z</time>
      </trkpt>
      <trkpt lat="46.18624" lon="6.52997">
        <ele>1286</ele>
        <time>2011-07-24T14:12:27Z</time>
      </trkpt>
      <trkpt lat="46.18634" lon="6.52988">
        <ele>1286</ele>
        <time>2011-07-24T14:12:28Z</time>
      </trkpt>
      <trkpt lat="46.18642" lon="6.52967">
        <ele>1277</ele>
        <time>2011-07-24T14:12:30Z</time>
      </trkpt>
      <trkpt lat="46.18656" lon="6.52952">
        <ele>1277</ele>
        <time>2011-07-24T14:12:32Z</time>
      </trkpt>
      <trkpt lat="46.18662" lon="6.52931">
        <ele>1271</ele>
        <time>2011-07-24T14:12:34Z</time>
      </trkpt>
      <trkpt lat="46.18664" lon="6.52916">
        <ele>1271</ele>
        <time>2011-07-24T14:12:35Z</time>
      </trkpt>
      <trkpt lat="46.18665" lon="6.529">
        <ele>1264</ele>
        <time>2011-07-24T14:12:36Z</time>
      </trkpt>
      <trkpt lat="46.18666" lon="6.52882">
        <ele>1264</ele>
        <time>2011-07-24T14:12:37Z</time>
      </trkpt>
      <trkpt lat="46.18668" lon="6.52866">
        <ele>1264</ele>
        <time>2011-07-24T14:12:38Z</time>
      </trkpt>
      <trkpt lat="46.18671" lon="6.52851">
        <ele>1264</ele>
        <time>2011-07-24T14:12:39Z</time>
      </trkpt>
      <trkpt lat="46.18674" lon="6.52837">
        <ele>1257</ele>
        <time>2011-07-24T14:12:40Z</time>
      </trkpt>
      <trkpt lat="46.18679" lon="6.52826">
        <ele>1257</ele>
        <time>2011-07-24T14:12:41Z</time>
      </trkpt>
      <trkpt lat="46.18682" lon="6.528">
        <ele>1257</ele>
        <time>2011-07-24T14:12:43Z</time>
      </trkpt>
      <trkpt lat="46.18685" lon="6.52787">
        <ele>1257</ele>
        <time>2011-07-24T14:12:44Z</time>
      </trkpt>
      <trkpt lat="46.18686" lon="6.52773">
        <ele>1257</ele>
        <time>2011-07-24T14:12:45Z</time>
      </trkpt>
      <trkpt lat="46.18687" lon="6.5276">
        <ele>1257</ele>
        <time>2011-07-24T14:12:46Z</time>
      </trkpt>
      <trkpt lat="46.18688" lon="6.52746">
        <ele>1251</ele>
        <time>2011-07-24T14:12:47Z</time>
      </trkpt>
      <trkpt lat="46.1869" lon="6.52722">
        <ele>1251</ele>
        <time>2011-07-24T14:12:49Z</time>
      </trkpt>
      <trkpt lat="46.18692" lon="6.52702">
        <ele>1251</ele>
        <time>2011-07-24T14:12:51Z</time>
      </trkpt>
      <trkpt lat="46.18693" lon="6.52684">
        <ele>1245</ele>
        <time>2011-07-24T14:12:53Z</time>
      </trkpt>
      <trkpt lat="46.18694" lon="6.5267">
        <ele>1245</ele>
        <time>2011-07-24T14:12:55Z</time>
      </trkpt>
      <trkpt lat="46.18695" lon="6.52656">
        <ele>1245</ele>
        <time>2011-07-24T14:12:57Z</time>
      </trkpt>
      <trkpt lat="46.18695" lon="6.52641">
        <ele>1239</ele>
        <time>2011-07-24T14:12:59Z</time>
      </trkpt>
      <trkpt lat="46.18695" lon="6.52623">
        <ele>1239</ele>
        <time>2011-07-24T14:13:01Z</time>
      </trkpt>
      <trkpt lat="46.18694" lon="6.52602">
        <ele>1239</ele>
        <time>2011-07-24T14:13:03Z</time>
      </trkpt>
      <trkpt lat="46.18694" lon="6.52578">
        <ele>1233</ele>
        <time>2011-07-24T14:13:05Z</time>
      </trkpt>
      <trkpt lat="46.18694" lon="6.52553">
        <ele>1233</ele>
        <time>2011-07-24T14:13:07Z</time>
      </trkpt>
      <trkpt lat="46.18693" lon="6.5253">
        <ele>1233</ele>
        <time>2011-07-24T14:13:09Z</time>
      </trkpt>
      <trkpt lat="46.18689" lon="6.52506">
        <ele>1227</ele>
        <time>2011-07-24T14:13:11Z</time>
      </trkpt>
      <trkpt lat="46.18687" lon="6.52493">
        <ele>1227</ele>
        <time>2011-07-24T14:13:12Z</time>
      </trkpt>
      <trkpt lat="46.18684" lon="6.52479">
        <ele>1227</ele>
        <time>2011-07-24T14:13:13Z</time>
      </trkpt>
      <trkpt lat="46.18682" lon="6.52464">
        <ele>1227</ele>
        <time>2011-07-24T14:13:14Z</time>
      </trkpt>
      <trkpt lat="46.18681" lon="6.52447">
        <ele>1221</ele>
        <time>2011-07-24T14:13:15Z</time>
      </trkpt>
      <trkpt lat="46.18679" lon="6.5243">
        <ele>1221</ele>
        <time>2011-07-24T14:13:16Z</time>
      </trkpt>
      <trkpt lat="46.18677" lon="6.52415">
        <ele>1221</ele>
        <time>2011-07-24T14:13:17Z</time>
      </trkpt>
      <trkpt lat="46.18674" lon="6.524">
        <ele>1221</ele>
        <time>2011-07-24T14:13:18Z</time>
      </trkpt>
      <trkpt lat="46.18671" lon="6.52385">
        <ele>1221</ele>
        <time>2011-07-24T14:13:19Z</time>
      </trkpt>
      <trkpt lat="46.18667" lon="6.5237">
        <ele>1215</ele>
        <time>2011-07-24T14:13:20Z</time>
      </trkpt>
      <trkpt lat="46.18663" lon="6.52355">
        <ele>1215</ele>
        <time>2011-07-24T14:13:21Z</time>
      </trkpt>
      <trkpt lat="46.18659" lon="6.5234">
        <ele>1215</ele>
        <time>2011-07-24T14:13:22Z</time>
      </trkpt>
      <trkpt lat="46.18656" lon="6.52327">
        <ele>1215</ele>
        <time>2011-07-24T14:13:23Z</time>
      </trkpt>
      <trkpt lat="46.18649" lon="6.52305">
        <ele>1208</ele>
        <time>2011-07-24T14:13:25Z</time>
      </trkpt>
      <trkpt lat="46.18642" lon="6.52287">
        <ele>1208</ele>
        <time>2011-07-24T14:13:27Z</time>
      </trkpt>
      <trkpt lat="46.18631" lon="6.52273">
        <ele>1201</ele>
        <time>2011-07-24T14:13:29Z</time>
      </trkpt>
      <trkpt lat="46.18625" lon="6.5226">
        <ele>1201</ele>
        <time>2011-07-24T14:13:31Z</time>
      </trkpt>
      <trkpt lat="46.18626" lon="6.52247">
        <ele>1196</ele>
        <time>2011-07-24T14:13:33Z</time>
      </trkpt>
      <trkpt lat="46.18637" lon="6.52233">
        <ele>1196</ele>
        <time>2011-07-24T14:13:35Z</time>
      </trkpt>
      <trkpt lat="46.18646" lon="6.52225">
        <ele>1196</ele>
        <time>2011-07-24T14:13:36Z</time>
      </trkpt>
      <trkpt lat="46.18653" lon="6.52216">
        <ele>1196</ele>
        <time>2011-07-24T14:13:37Z</time>
      </trkpt>
      <trkpt lat="46.18662" lon="6.52209">
        <ele>1196</ele>
        <time>2011-07-24T14:13:38Z</time>
      </trkpt>
      <trkpt lat="46.18671" lon="6.522">
        <ele>1196</ele>
        <time>2011-07-24T14:13:39Z</time>
      </trkpt>
      <trkpt lat="46.18681" lon="6.52193">
        <ele>1196</ele>
        <time>2011-07-24T14:13:40Z</time>
      </trkpt>
      <trkpt lat="46.18691" lon="6.52186">
        <ele>1196</ele>
        <time>2011-07-24T14:13:41Z</time>
      </trkpt>
      <trkpt lat="46.18699" lon="6.52177">
        <ele>1196</ele>
        <time>2011-07-24T14:13:42Z</time>
      </trkpt>
      <trkpt lat="46.18707" lon="6.52168">
        <ele>1196</ele>
        <time>2011-07-24T14:13:43Z</time>
      </trkpt>
      <trkpt lat="46.18714" lon="6.52158">
        <ele>1196</ele>
        <time>2011-07-24T14:13:44Z</time>
      </trkpt>
      <trkpt lat="46.18722" lon="6.52149">
        <ele>1196</ele>
        <time>2011-07-24T14:13:45Z</time>
      </trkpt>
      <trkpt lat="46.1873" lon="6.52129">
        <ele>1196</ele>
        <time>2011-07-24T14:13:47Z</time>
      </trkpt>
      <trkpt lat="46.18734" lon="6.52118">
        <ele>1196</ele>
        <time>2011-07-24T14:13:48Z</time>
      </trkpt>
      <trkpt lat="46.18736" lon="6.52103">
        <ele>1189</ele>
        <time>2011-07-24T14:13:49Z</time>
      </trkpt>
      <trkpt lat="46.18737" lon="6.52089">
        <ele>1189</ele>
        <time>2011-07-24T14:13:50Z</time>
      </trkpt>
      <trkpt lat="46.18746" lon="6.52049">
        <ele>1183</ele>
        <time>2011-07-24T14:13:53Z</time>
      </trkpt>
      <trkpt lat="46.18747" lon="6.52035">
        <ele>1183</ele>
        <time>2011-07-24T14:13:54Z</time>
      </trkpt>
      <trkpt lat="46.18748" lon="6.5201">
        <ele>1173</ele>
        <time>2011-07-24T14:13:56Z</time>
      </trkpt>
      <trkpt lat="46.18746" lon="6.51985">
        <ele>1173</ele>
        <time>2011-07-24T14:13:58Z</time>
      </trkpt>
      <trkpt lat="46.18749" lon="6.5196">
        <ele>1166</ele>
        <time>2011-07-24T14:14:00Z</time>
      </trkpt>
      <trkpt lat="46.18756" lon="6.51939">
        <ele>1166</ele>
        <time>2011-07-24T14:14:02Z</time>
      </trkpt>
      <trkpt lat="46.18762" lon="6.51921">
        <ele>1166</ele>
        <time>2011-07-24T14:14:04Z</time>
      </trkpt>
      <trkpt lat="46.18764" lon="6.51903">
        <ele>1157</ele>
        <time>2011-07-24T14:14:06Z</time>
      </trkpt>
      <trkpt lat="46.18757" lon="6.5188">
        <ele>1157</ele>
        <time>2011-07-24T14:14:08Z</time>
      </trkpt>
      <trkpt lat="46.18754" lon="6.51865">
        <ele>1157</ele>
        <time>2011-07-24T14:14:09Z</time>
      </trkpt>
      <trkpt lat="46.18751" lon="6.51849">
        <ele>1151</ele>
        <time>2011-07-24T14:14:10Z</time>
      </trkpt>
      <trkpt lat="46.18749" lon="6.51832">
        <ele>1151</ele>
        <time>2011-07-24T14:14:11Z</time>
      </trkpt>
      <trkpt lat="46.18746" lon="6.51817">
        <ele>1151</ele>
        <time>2011-07-24T14:14:12Z</time>
      </trkpt>
      <trkpt lat="46.18745" lon="6.51801">
        <ele>1146</ele>
        <time>2011-07-24T14:14:13Z</time>
      </trkpt>
      <trkpt lat="46.18743" lon="6.51788">
        <ele>1146</ele>
        <time>2011-07-24T14:14:14Z</time>
      </trkpt>
      <trkpt lat="46.1874" lon="6.51774">
        <ele>1146</ele>
        <time>2011-07-24T14:14:15Z</time>
      </trkpt>
      <trkpt lat="46.18735" lon="6.5176">
        <ele>1146</ele>
        <time>2011-07-24T14:14:16Z</time>
      </trkpt>
      <trkpt lat="46.18732" lon="6.51747">
        <ele>1146</ele>
        <time>2011-07-24T14:14:17Z</time>
      </trkpt>
      <trkpt lat="46.18728" lon="6.51733">
        <ele>1139</ele>
        <time>2011-07-24T14:14:18Z</time>
      </trkpt>
      <trkpt lat="46.18725" lon="6.51721">
        <ele>1139</ele>
        <time>2011-07-24T14:14:19Z</time>
      </trkpt>
      <trkpt lat="46.18722" lon="6.51708">
        <ele>1139</ele>
        <time>2011-07-24T14:14:20Z</time>
      </trkpt>
      <trkpt lat="46.18722" lon="6.51682">
        <ele>1133</ele>
        <time>2011-07-24T14:14:22Z</time>
      </trkpt>
      <trkpt lat="46.18725" lon="6.51667">
        <ele>1133</ele>
        <time>2011-07-24T14:14:23Z</time>
      </trkpt>
      <trkpt lat="46.18728" lon="6.51654">
        <ele>1133</ele>
        <time>2011-07-24T14:14:24Z</time>
      </trkpt>
      <trkpt lat="46.18729" lon="6.5164">
        <ele>1133</ele>
        <time>2011-07-24T14:14:25Z</time>
      </trkpt>
      <trkpt lat="46.18733" lon="6.51625">
        <ele>1127</ele>
        <time>2011-07-24T14:14:26Z</time>
      </trkpt>
      <trkpt lat="46.1874" lon="6.51604">
        <ele>1127</ele>
        <time>2011-07-24T14:14:28Z</time>
      </trkpt>
      <trkpt lat="46.18747" lon="6.51585">
        <ele>1122</ele>
        <time>2011-07-24T14:14:30Z</time>
      </trkpt>
      <trkpt lat="46.18752" lon="6.51562">
        <ele>1122</ele>
        <time>2011-07-24T14:14:32Z</time>
      </trkpt>
      <trkpt lat="46.18752" lon="6.51545">
        <ele>1122</ele>
        <time>2011-07-24T14:14:33Z</time>
      </trkpt>
      <trkpt lat="46.18752" lon="6.51529">
        <ele>1122</ele>
        <time>2011-07-24T14:14:34Z</time>
      </trkpt>
      <trkpt lat="46.18754" lon="6.51515">
        <ele>1122</ele>
        <time>2011-07-24T14:14:35Z</time>
      </trkpt>
      <trkpt lat="46.18757" lon="6.51493">
        <ele>1115</ele>
        <time>2011-07-24T14:14:37Z</time>
      </trkpt>
      <trkpt lat="46.18759" lon="6.51474">
        <ele>1115</ele>
        <time>2011-07-24T14:14:39Z</time>
      </trkpt>
      <trkpt lat="46.18757" lon="6.51456">
        <ele>1108</ele>
        <time>2011-07-24T14:14:41Z</time>
      </trkpt>
      <trkpt lat="46.18745" lon="6.51439">
        <ele>1108</ele>
        <time>2011-07-24T14:14:43Z</time>
      </trkpt>
      <trkpt lat="46.18736" lon="6.51424">
        <ele>1102</ele>
        <time>2011-07-24T14:14:45Z</time>
      </trkpt>
      <trkpt lat="46.18727" lon="6.51414">
        <ele>1102</ele>
        <time>2011-07-24T14:14:47Z</time>
      </trkpt>
      <trkpt lat="46.18739" lon="6.51415">
        <ele>1092</ele>
        <time>2011-07-24T14:15:01Z</time>
      </trkpt>
      <trkpt lat="46.18751" lon="6.51414">
        <ele>1092</ele>
        <time>2011-07-24T14:15:06Z</time>
      </trkpt>
      <trkpt lat="46.1876" lon="6.51419">
        <ele>1098</ele>
        <time>2011-07-24T14:15:10Z</time>
      </trkpt>
      <trkpt lat="46.18771" lon="6.51421">
        <ele>1098</ele>
        <time>2011-07-24T14:15:16Z</time>
      </trkpt>
      <trkpt lat="46.18782" lon="6.51418">
        <ele>1098</ele>
        <time>2011-07-24T14:15:18Z</time>
      </trkpt>
      <trkpt lat="46.1879" lon="6.51427">
        <ele>1091</ele>
        <time>2011-07-24T14:15:22Z</time>
      </trkpt>
      <trkpt lat="46.18796" lon="6.51437">
        <ele>1091</ele>
        <time>2011-07-24T14:15:27Z</time>
      </trkpt>
      <trkpt lat="46.18804" lon="6.5143">
        <ele>1073</ele>
        <time>2011-07-24T14:15:46Z</time>
      </trkpt>
      <trkpt lat="46.18798" lon="6.5144">
        <ele>1080</ele>
        <time>2011-07-24T14:16:52Z</time>
      </trkpt>
      <trkpt lat="46.18803" lon="6.51453">
        <ele>1088</ele>
        <time>2011-07-24T14:17:01Z</time>
      </trkpt>
      <trkpt lat="46.1881" lon="6.51462">
        <ele>1088</ele>
        <time>2011-07-24T14:17:04Z</time>
      </trkpt>
      <trkpt lat="46.18817" lon="6.51472">
        <ele>1088</ele>
        <time>2011-07-24T14:17:09Z</time>
      </trkpt>
      <trkpt lat="46.18818" lon="6.51485">
        <ele>1079</ele>
        <time>2011-07-24T14:17:20Z</time>
      </trkpt>
      <trkpt lat="46.18817" lon="6.51472">
        <ele>1079</ele>
        <time>2011-07-24T14:17:39Z</time>
      </trkpt>
      <trkpt lat="46.1881" lon="6.51461">
        <ele>1079</ele>
        <time>2011-07-24T14:17:45Z</time>
      </trkpt>
      <trkpt lat="46.18803" lon="6.51448">
        <ele>1095</ele>
        <time>2011-07-24T14:17:55Z</time>
      </trkpt>
      <trkpt lat="46.18795" lon="6.51443">
        <ele>1095</ele>
        <time>2011-07-24T14:18:10Z</time>
      </trkpt>
      <trkpt lat="46.18803" lon="6.51447">
        <ele>1084</ele>
        <time>2011-07-24T14:19:46Z</time>
      </trkpt>
      <trkpt lat="46.18798" lon="6.51434">
        <ele>1084</ele>
        <time>2011-07-24T14:20:24Z</time>
      </trkpt>
      <trkpt lat="46.18785" lon="6.51428">
        <ele>1084</ele>
        <time>2011-07-24T14:20:27Z</time>
      </trkpt>
      <trkpt lat="46.18775" lon="6.51422">
        <ele>1090</ele>
        <time>2011-07-24T14:20:29Z</time>
      </trkpt>
      <trkpt lat="46.18765" lon="6.51418">
        <ele>1090</ele>
        <time>2011-07-24T14:20:32Z</time>
      </trkpt>
      <trkpt lat="46.18755" lon="6.51417">
        <ele>1090</ele>
        <time>2011-07-24T14:20:35Z</time>
      </trkpt>
      <trkpt lat="46.18744" lon="6.51412">
        <ele>1098</ele>
        <time>2011-07-24T14:20:39Z</time>
      </trkpt>
      <trkpt lat="46.18735" lon="6.51409">
        <ele>1098</ele>
        <time>2011-07-24T14:20:41Z</time>
      </trkpt>
      <trkpt lat="46.1872" lon="6.514">
        <ele>1098</ele>
        <time>2011-07-24T14:20:43Z</time>
      </trkpt>
      <trkpt lat="46.18707" lon="6.51391">
        <ele>1098</ele>
        <time>2011-07-24T14:20:45Z</time>
      </trkpt>
      <trkpt lat="46.18692" lon="6.51383">
        <ele>1098</ele>
        <time>2011-07-24T14:20:47Z</time>
      </trkpt>
      <trkpt lat="46.18677" lon="6.51376">
        <ele>1098</ele>
        <time>2011-07-24T14:20:49Z</time>
      </trkpt>
      <trkpt lat="46.18666" lon="6.51371">
        <ele>1098</ele>
        <time>2011-07-24T14:20:51Z</time>
      </trkpt>
      <trkpt lat="46.18653" lon="6.51363">
        <ele>1098</ele>
        <time>2011-07-24T14:20:53Z</time>
      </trkpt>
      <trkpt lat="46.18642" lon="6.51356">
        <ele>1098</ele>
        <time>2011-07-24T14:20:55Z</time>
      </trkpt>
      <trkpt lat="46.18633" lon="6.51349">
        <ele>1098</ele>
        <time>2011-07-24T14:20:57Z</time>
      </trkpt>
      <trkpt lat="46.18636" lon="6.51334">
        <ele>1098</ele>
        <time>2011-07-24T14:21:00Z</time>
      </trkpt>
      <trkpt lat="46.18646" lon="6.51333">
        <ele>1098</ele>
        <time>2011-07-24T14:21:03Z</time>
      </trkpt>
      <trkpt lat="46.18659" lon="6.51338">
        <ele>1098</ele>
        <time>2011-07-24T14:21:05Z</time>
      </trkpt>
      <trkpt lat="46.18677" lon="6.5134">
        <ele>1092</ele>
        <time>2011-07-24T14:21:07Z</time>
      </trkpt>
      <trkpt lat="46.18694" lon="6.51341">
        <ele>1092</ele>
        <time>2011-07-24T14:21:09Z</time>
      </trkpt>
      <trkpt lat="46.18706" lon="6.5134">
        <ele>1092</ele>
        <time>2011-07-24T14:21:10Z</time>
      </trkpt>
      <trkpt lat="46.18717" lon="6.51331">
        <ele>1092</ele>
        <time>2011-07-24T14:21:12Z</time>
      </trkpt>
      <trkpt lat="46.18716" lon="6.51313">
        <ele>1084</ele>
        <time>2011-07-24T14:21:14Z</time>
      </trkpt>
      <trkpt lat="46.18709" lon="6.51296">
        <ele>1084</ele>
        <time>2011-07-24T14:21:16Z</time>
      </trkpt>
      <trkpt lat="46.18702" lon="6.5128">
        <ele>1084</ele>
        <time>2011-07-24T14:21:18Z</time>
      </trkpt>
      <trkpt lat="46.18704" lon="6.51267">
        <ele>1084</ele>
        <time>2011-07-24T14:21:21Z</time>
      </trkpt>
      <trkpt lat="46.18697" lon="6.51255">
        <ele>1103</ele>
        <time>2011-07-24T14:21:35Z</time>
      </trkpt>
      <trkpt lat="46.18706" lon="6.51257">
        <ele>1098</ele>
        <time>2011-07-24T14:21:45Z</time>
      </trkpt>
      <trkpt lat="46.18715" lon="6.51263">
        <ele>1087</ele>
        <time>2011-07-24T14:21:49Z</time>
      </trkpt>
      <trkpt lat="46.18709" lon="6.51279">
        <ele>1076</ele>
        <time>2011-07-24T14:21:56Z</time>
      </trkpt>
      <trkpt lat="46.18711" lon="6.51298">
        <ele>1076</ele>
        <time>2011-07-24T14:21:59Z</time>
      </trkpt>
      <trkpt lat="46.18715" lon="6.51311">
        <ele>1076</ele>
        <time>2011-07-24T14:22:03Z</time>
      </trkpt>
      <trkpt lat="46.1872" lon="6.51297">
        <ele>1076</ele>
        <time>2011-07-24T14:22:10Z</time>
      </trkpt>
      <trkpt lat="46.18724" lon="6.51281">
        <ele>1076</ele>
        <time>2011-07-24T14:22:13Z</time>
      </trkpt>
      <trkpt lat="46.18737" lon="6.51262">
        <ele>1076</ele>
        <time>2011-07-24T14:22:17Z</time>
      </trkpt>
      <trkpt lat="46.18746" lon="6.51252">
        <ele>1076</ele>
        <time>2011-07-24T14:22:18Z</time>
      </trkpt>
      <trkpt lat="46.18754" lon="6.51241">
        <ele>1076</ele>
        <time>2011-07-24T14:22:20Z</time>
      </trkpt>
      <trkpt lat="46.18762" lon="6.51234">
        <ele>1076</ele>
        <time>2011-07-24T14:22:23Z</time>
      </trkpt>
      <trkpt lat="46.1877" lon="6.51225">
        <ele>1076</ele>
        <time>2011-07-24T14:22:27Z</time>
      </trkpt>
      <trkpt lat="46.18769" lon="6.51208">
        <ele>1076</ele>
        <time>2011-07-24T14:22:32Z</time>
      </trkpt>
      <trkpt lat="46.18767" lon="6.51194">
        <ele>1076</ele>
        <time>2011-07-24T14:22:36Z</time>
      </trkpt>
      <trkpt lat="46.18771" lon="6.51181">
        <ele>1068</ele>
        <time>2011-07-24T14:22:40Z</time>
      </trkpt>
      <trkpt lat="46.18778" lon="6.51169">
        <ele>1068</ele>
        <time>2011-07-24T14:22:43Z</time>
      </trkpt>
      <trkpt lat="46.18784" lon="6.51156">
        <ele>1062</ele>
        <time>2011-07-24T14:23:03Z</time>
      </trkpt>
      <trkpt lat="46.1878" lon="6.51139">
        <ele>1062</ele>
        <time>2011-07-24T14:23:06Z</time>
      </trkpt>
      <trkpt lat="46.18779" lon="6.51126">
        <ele>1062</ele>
        <time>2011-07-24T14:23:08Z</time>
      </trkpt>
      <trkpt lat="46.18777" lon="6.51109">
        <ele>1052</ele>
        <time>2011-07-24T14:23:11Z</time>
      </trkpt>
      <trkpt lat="46.18782" lon="6.51096">
        <ele>1046</ele>
        <time>2011-07-24T14:23:14Z</time>
      </trkpt>
      <trkpt lat="46.18796" lon="6.51098">
        <ele>1046</ele>
        <time>2011-07-24T14:23:17Z</time>
      </trkpt>
      <trkpt lat="46.1881" lon="6.51107">
        <ele>1038</ele>
        <time>2011-07-24T14:23:19Z</time>
      </trkpt>
      <trkpt lat="46.18821" lon="6.51115">
        <ele>1032</ele>
        <time>2011-07-24T14:23:21Z</time>
      </trkpt>
      <trkpt lat="46.18831" lon="6.51127">
        <ele>1032</ele>
        <time>2011-07-24T14:23:23Z</time>
      </trkpt>
      <trkpt lat="46.18842" lon="6.51141">
        <ele>1026</ele>
        <time>2011-07-24T14:23:25Z</time>
      </trkpt>
      <trkpt lat="46.18851" lon="6.51155">
        <ele>1026</ele>
        <time>2011-07-24T14:23:27Z</time>
      </trkpt>
      <trkpt lat="46.18858" lon="6.51164">
        <ele>1026</ele>
        <time>2011-07-24T14:23:28Z</time>
      </trkpt>
      <trkpt lat="46.1887" lon="6.51179">
        <ele>1026</ele>
        <time>2011-07-24T14:23:31Z</time>
      </trkpt>
      <trkpt lat="46.1888" lon="6.51178">
        <ele>1026</ele>
        <time>2011-07-24T14:23:32Z</time>
      </trkpt>
      <trkpt lat="46.18888" lon="6.5117">
        <ele>1026</ele>
        <time>2011-07-24T14:23:34Z</time>
      </trkpt>
      <trkpt lat="46.18896" lon="6.51158">
        <ele>1026</ele>
        <time>2011-07-24T14:23:36Z</time>
      </trkpt>
      <trkpt lat="46.18908" lon="6.51149">
        <ele>1026</ele>
        <time>2011-07-24T14:23:39Z</time>
      </trkpt>
      <trkpt lat="46.18921" lon="6.51143">
        <ele>1026</ele>
        <time>2011-07-24T14:23:41Z</time>
      </trkpt>
      <trkpt lat="46.18928" lon="6.51134">
        <ele>1026</ele>
        <time>2011-07-24T14:23:45Z</time>
      </trkpt>
      <trkpt lat="46.18936" lon="6.51127">
        <ele>1026</ele>
        <time>2011-07-24T14:23:50Z</time>
      </trkpt>
      <trkpt lat="46.18946" lon="6.51127">
        <ele>1026</ele>
        <time>2011-07-24T14:23:55Z</time>
      </trkpt>
      <trkpt lat="46.18958" lon="6.51132">
        <ele>1026</ele>
        <time>2011-07-24T14:24:00Z</time>
      </trkpt>
      <trkpt lat="46.18968" lon="6.51138">
        <ele>1021</ele>
        <time>2011-07-24T14:24:04Z</time>
      </trkpt>
      <trkpt lat="46.18979" lon="6.51136">
        <ele>1021</ele>
        <time>2011-07-24T14:24:08Z</time>
      </trkpt>
      <trkpt lat="46.18988" lon="6.51141">
        <ele>1016</ele>
        <time>2011-07-24T14:24:13Z</time>
      </trkpt>
      <trkpt lat="46.18997" lon="6.51151">
        <ele>1016</ele>
        <time>2011-07-24T14:24:16Z</time>
      </trkpt>
      <trkpt lat="46.19008" lon="6.51149">
        <ele>1008</ele>
        <time>2011-07-24T14:24:20Z</time>
      </trkpt>
      <trkpt lat="46.1902" lon="6.51151">
        <ele>1008</ele>
        <time>2011-07-24T14:24:24Z</time>
      </trkpt>
      <trkpt lat="46.19034" lon="6.51149">
        <ele>1003</ele>
        <time>2011-07-24T14:24:27Z</time>
      </trkpt>
      <trkpt lat="46.19047" lon="6.51145">
        <ele>1003</ele>
        <time>2011-07-24T14:24:29Z</time>
      </trkpt>
      <trkpt lat="46.19061" lon="6.51138">
        <ele>1003</ele>
        <time>2011-07-24T14:24:31Z</time>
      </trkpt>
      <trkpt lat="46.19072" lon="6.51124">
        <ele>1003</ele>
        <time>2011-07-24T14:24:33Z</time>
      </trkpt>
      <trkpt lat="46.19077" lon="6.51101">
        <ele>1003</ele>
        <time>2011-07-24T14:24:35Z</time>
      </trkpt>
      <trkpt lat="46.19081" lon="6.51076">
        <ele>996</ele>
        <time>2011-07-24T14:24:37Z</time>
      </trkpt>
      <trkpt lat="46.19084" lon="6.51063">
        <ele>996</ele>
        <time>2011-07-24T14:24:38Z</time>
      </trkpt>
      <trkpt lat="46.19086" lon="6.5105">
        <ele>996</ele>
        <time>2011-07-24T14:24:39Z</time>
      </trkpt>
      <trkpt lat="46.1909" lon="6.51028">
        <ele>996</ele>
        <time>2011-07-24T14:24:41Z</time>
      </trkpt>
      <trkpt lat="46.19094" lon="6.51006">
        <ele>988</ele>
        <time>2011-07-24T14:24:43Z</time>
      </trkpt>
      <trkpt lat="46.19094" lon="6.50979">
        <ele>988</ele>
        <time>2011-07-24T14:24:45Z</time>
      </trkpt>
      <trkpt lat="46.19092" lon="6.50965">
        <ele>988</ele>
        <time>2011-07-24T14:24:46Z</time>
      </trkpt>
      <trkpt lat="46.19089" lon="6.50951">
        <ele>982</ele>
        <time>2011-07-24T14:24:47Z</time>
      </trkpt>
      <trkpt lat="46.19087" lon="6.50936">
        <ele>982</ele>
        <time>2011-07-24T14:24:48Z</time>
      </trkpt>
      <trkpt lat="46.19085" lon="6.50922">
        <ele>982</ele>
        <time>2011-07-24T14:24:49Z</time>
      </trkpt>
      <trkpt lat="46.19085" lon="6.50908">
        <ele>982</ele>
        <time>2011-07-24T14:24:50Z</time>
      </trkpt>
      <trkpt lat="46.19085" lon="6.50894">
        <ele>976</ele>
        <time>2011-07-24T14:24:51Z</time>
      </trkpt>
      <trkpt lat="46.19086" lon="6.5087">
        <ele>976</ele>
        <time>2011-07-24T14:24:53Z</time>
      </trkpt>
      <trkpt lat="46.19083" lon="6.50848">
        <ele>976</ele>
        <time>2011-07-24T14:24:55Z</time>
      </trkpt>
      <trkpt lat="46.19079" lon="6.50837">
        <ele>976</ele>
        <time>2011-07-24T14:24:56Z</time>
      </trkpt>
      <trkpt lat="46.19069" lon="6.50814">
        <ele>969</ele>
        <time>2011-07-24T14:24:58Z</time>
      </trkpt>
      <trkpt lat="46.19063" lon="6.50803">
        <ele>969</ele>
        <time>2011-07-24T14:24:59Z</time>
      </trkpt>
      <trkpt lat="46.19059" lon="6.5079">
        <ele>969</ele>
        <time>2011-07-24T14:25:00Z</time>
      </trkpt>
      <trkpt lat="46.19055" lon="6.50776">
        <ele>969</ele>
        <time>2011-07-24T14:25:01Z</time>
      </trkpt>
      <trkpt lat="46.19052" lon="6.50764">
        <ele>969</ele>
        <time>2011-07-24T14:25:02Z</time>
      </trkpt>
      <trkpt lat="46.19046" lon="6.50741">
        <ele>969</ele>
        <time>2011-07-24T14:25:04Z</time>
      </trkpt>
      <trkpt lat="46.19038" lon="6.50727">
        <ele>969</ele>
        <time>2011-07-24T14:25:06Z</time>
      </trkpt>
      <trkpt lat="46.19028" lon="6.50721">
        <ele>964</ele>
        <time>2011-07-24T14:25:08Z</time>
      </trkpt>
      <trkpt lat="46.19015" lon="6.50717">
        <ele>964</ele>
        <time>2011-07-24T14:25:10Z</time>
      </trkpt>
      <trkpt lat="46.19002" lon="6.50715">
        <ele>964</ele>
        <time>2011-07-24T14:25:12Z</time>
      </trkpt>
      <trkpt lat="46.18989" lon="6.5071">
        <ele>964</ele>
        <time>2011-07-24T14:25:14Z</time>
      </trkpt>
      <trkpt lat="46.18976" lon="6.50708">
        <ele>958</ele>
        <time>2011-07-24T14:25:16Z</time>
      </trkpt>
      <trkpt lat="46.18962" lon="6.5071">
        <ele>958</ele>
        <time>2011-07-24T14:25:18Z</time>
      </trkpt>
      <trkpt lat="46.18949" lon="6.50714">
        <ele>958</ele>
        <time>2011-07-24T14:25:20Z</time>
      </trkpt>
      <trkpt lat="46.18939" lon="6.50709">
        <ele>958</ele>
        <time>2011-07-24T14:25:22Z</time>
      </trkpt>
      <trkpt lat="46.18933" lon="6.50697">
        <ele>958</ele>
        <time>2011-07-24T14:25:24Z</time>
      </trkpt>
      <trkpt lat="46.18936" lon="6.50679">
        <ele>958</ele>
        <time>2011-07-24T14:25:26Z</time>
      </trkpt>
      <trkpt lat="46.18942" lon="6.50661">
        <ele>953</ele>
        <time>2011-07-24T14:25:28Z</time>
      </trkpt>
      <trkpt lat="46.18949" lon="6.50644">
        <ele>953</ele>
        <time>2011-07-24T14:25:30Z</time>
      </trkpt>
      <trkpt lat="46.18952" lon="6.50629">
        <ele>953</ele>
        <time>2011-07-24T14:25:32Z</time>
      </trkpt>
      <trkpt lat="46.1895" lon="6.50611">
        <ele>947</ele>
        <time>2011-07-24T14:25:34Z</time>
      </trkpt>
      <trkpt lat="46.18942" lon="6.50593">
        <ele>947</ele>
        <time>2011-07-24T14:25:36Z</time>
      </trkpt>
      <trkpt lat="46.18934" lon="6.50575">
        <ele>947</ele>
        <time>2011-07-24T14:25:38Z</time>
      </trkpt>
      <trkpt lat="46.18926" lon="6.50557">
        <ele>947</ele>
        <time>2011-07-24T14:25:40Z</time>
      </trkpt>
      <trkpt lat="46.1892" lon="6.5054">
        <ele>941</ele>
        <time>2011-07-24T14:25:42Z</time>
      </trkpt>
      <trkpt lat="46.18912" lon="6.50525">
        <ele>941</ele>
        <time>2011-07-24T14:25:44Z</time>
      </trkpt>
      <trkpt lat="46.18903" lon="6.50514">
        <ele>941</ele>
        <time>2011-07-24T14:25:46Z</time>
      </trkpt>
      <trkpt lat="46.18891" lon="6.50509">
        <ele>941</ele>
        <time>2011-07-24T14:25:48Z</time>
      </trkpt>
      <trkpt lat="46.18878" lon="6.50511">
        <ele>941</ele>
        <time>2011-07-24T14:25:50Z</time>
      </trkpt>
      <trkpt lat="46.18862" lon="6.50518">
        <ele>941</ele>
        <time>2011-07-24T14:25:52Z</time>
      </trkpt>
      <trkpt lat="46.18848" lon="6.50529">
        <ele>941</ele>
        <time>2011-07-24T14:25:54Z</time>
      </trkpt>
      <trkpt lat="46.18836" lon="6.50536">
        <ele>941</ele>
        <time>2011-07-24T14:25:56Z</time>
      </trkpt>
      <trkpt lat="46.18826" lon="6.50535">
        <ele>935</ele>
        <time>2011-07-24T14:25:58Z</time>
      </trkpt>
      <trkpt lat="46.18817" lon="6.5052">
        <ele>935</ele>
        <time>2011-07-24T14:26:01Z</time>
      </trkpt>
      <trkpt lat="46.18813" lon="6.50501">
        <ele>930</ele>
        <time>2011-07-24T14:26:03Z</time>
      </trkpt>
      <trkpt lat="46.1881" lon="6.50478">
        <ele>930</ele>
        <time>2011-07-24T14:26:05Z</time>
      </trkpt>
      <trkpt lat="46.18808" lon="6.50458">
        <ele>930</ele>
        <time>2011-07-24T14:26:07Z</time>
      </trkpt>
      <trkpt lat="46.18812" lon="6.50435">
        <ele>924</ele>
        <time>2011-07-24T14:26:09Z</time>
      </trkpt>
      <trkpt lat="46.18818" lon="6.50417">
        <ele>924</ele>
        <time>2011-07-24T14:26:11Z</time>
      </trkpt>
      <trkpt lat="46.18823" lon="6.50401">
        <ele>924</ele>
        <time>2011-07-24T14:26:13Z</time>
      </trkpt>
      <trkpt lat="46.18826" lon="6.50386">
        <ele>924</ele>
        <time>2011-07-24T14:26:15Z</time>
      </trkpt>
      <trkpt lat="46.18825" lon="6.5037">
        <ele>924</ele>
        <time>2011-07-24T14:26:17Z</time>
      </trkpt>
      <trkpt lat="46.18823" lon="6.50357">
        <ele>924</ele>
        <time>2011-07-24T14:26:19Z</time>
      </trkpt>
      <trkpt lat="46.1882" lon="6.50344">
        <ele>919</ele>
        <time>2011-07-24T14:26:23Z</time>
      </trkpt>
      <trkpt lat="46.18819" lon="6.50327">
        <ele>919</ele>
        <time>2011-07-24T14:26:51Z</time>
      </trkpt>
      <trkpt lat="46.18823" lon="6.50311">
        <ele>919</ele>
        <time>2011-07-24T14:26:53Z</time>
      </trkpt>
      <trkpt lat="46.18832" lon="6.50297">
        <ele>919</ele>
        <time>2011-07-24T14:26:55Z</time>
      </trkpt>
      <trkpt lat="46.18845" lon="6.50285">
        <ele>919</ele>
        <time>2011-07-24T14:26:57Z</time>
      </trkpt>
      <trkpt lat="46.18858" lon="6.50274">
        <ele>919</ele>
        <time>2011-07-24T14:26:59Z</time>
      </trkpt>
      <trkpt lat="46.18873" lon="6.50264">
        <ele>919</ele>
        <time>2011-07-24T14:27:01Z</time>
      </trkpt>
      <trkpt lat="46.18886" lon="6.50252">
        <ele>919</ele>
        <time>2011-07-24T14:27:03Z</time>
      </trkpt>
      <trkpt lat="46.18895" lon="6.50238">
        <ele>919</ele>
        <time>2011-07-24T14:27:05Z</time>
      </trkpt>
      <trkpt lat="46.18904" lon="6.50221">
        <ele>919</ele>
        <time>2011-07-24T14:27:07Z</time>
      </trkpt>
      <trkpt lat="46.18907" lon="6.50209">
        <ele>919</ele>
        <time>2011-07-24T14:27:08Z</time>
      </trkpt>
      <trkpt lat="46.18909" lon="6.50195">
        <ele>919</ele>
        <time>2011-07-24T14:27:09Z</time>
      </trkpt>
      <trkpt lat="46.1891" lon="6.50181">
        <ele>919</ele>
        <time>2011-07-24T14:27:10Z</time>
      </trkpt>
      <trkpt lat="46.18912" lon="6.50167">
        <ele>919</ele>
        <time>2011-07-24T14:27:11Z</time>
      </trkpt>
      <trkpt lat="46.18913" lon="6.5015">
        <ele>919</ele>
        <time>2011-07-24T14:27:12Z</time>
      </trkpt>
      <trkpt lat="46.18916" lon="6.50135">
        <ele>919</ele>
        <time>2011-07-24T14:27:13Z</time>
      </trkpt>
      <trkpt lat="46.18918" lon="6.50119">
        <ele>919</ele>
        <time>2011-07-24T14:27:14Z</time>
      </trkpt>
      <trkpt lat="46.18921" lon="6.50103">
        <ele>919</ele>
        <time>2011-07-24T14:27:15Z</time>
      </trkpt>
      <trkpt lat="46.18923" lon="6.50086">
        <ele>914</ele>
        <time>2011-07-24T14:27:16Z</time>
      </trkpt>
      <trkpt lat="46.18925" lon="6.50069">
        <ele>914</ele>
        <time>2011-07-24T14:27:17Z</time>
      </trkpt>
      <trkpt lat="46.18928" lon="6.50054">
        <ele>914</ele>
        <time>2011-07-24T14:27:18Z</time>
      </trkpt>
      <trkpt lat="46.1893" lon="6.50037">
        <ele>914</ele>
        <time>2011-07-24T14:27:19Z</time>
      </trkpt>
      <trkpt lat="46.18933" lon="6.50021">
        <ele>914</ele>
        <time>2011-07-24T14:27:20Z</time>
      </trkpt>
      <trkpt lat="46.18936" lon="6.50003">
        <ele>914</ele>
        <time>2011-07-24T14:27:21Z</time>
      </trkpt>
      <trkpt lat="46.18939" lon="6.49985">
        <ele>914</ele>
        <time>2011-07-24T14:27:22Z</time>
      </trkpt>
      <trkpt lat="46.18941" lon="6.49967">
        <ele>914</ele>
        <time>2011-07-24T14:27:23Z</time>
      </trkpt>
      <trkpt lat="46.18945" lon="6.4995">
        <ele>908</ele>
        <time>2011-07-24T14:27:24Z</time>
      </trkpt>
      <trkpt lat="46.18949" lon="6.49934">
        <ele>908</ele>
        <time>2011-07-24T14:27:25Z</time>
      </trkpt>
      <trkpt lat="46.18953" lon="6.49919">
        <ele>908</ele>
        <time>2011-07-24T14:27:26Z</time>
      </trkpt>
      <trkpt lat="46.18958" lon="6.49902">
        <ele>908</ele>
        <time>2011-07-24T14:27:27Z</time>
      </trkpt>
      <trkpt lat="46.18962" lon="6.49886">
        <ele>908</ele>
        <time>2011-07-24T14:27:28Z</time>
      </trkpt>
      <trkpt lat="46.18968" lon="6.49871">
        <ele>908</ele>
        <time>2011-07-24T14:27:29Z</time>
      </trkpt>
      <trkpt lat="46.18971" lon="6.49855">
        <ele>908</ele>
        <time>2011-07-24T14:27:30Z</time>
      </trkpt>
      <trkpt lat="46.18976" lon="6.4984">
        <ele>903</ele>
        <time>2011-07-24T14:27:31Z</time>
      </trkpt>
      <trkpt lat="46.18979" lon="6.49827">
        <ele>903</ele>
        <time>2011-07-24T14:27:32Z</time>
      </trkpt>
      <trkpt lat="46.1898" lon="6.49813">
        <ele>903</ele>
        <time>2011-07-24T14:27:33Z</time>
      </trkpt>
      <trkpt lat="46.18976" lon="6.49791">
        <ele>903</ele>
        <time>2011-07-24T14:27:35Z</time>
      </trkpt>
      <trkpt lat="46.18964" lon="6.49776">
        <ele>903</ele>
        <time>2011-07-24T14:27:37Z</time>
      </trkpt>
      <trkpt lat="46.18945" lon="6.49767">
        <ele>897</ele>
        <time>2011-07-24T14:27:39Z</time>
      </trkpt>
      <trkpt lat="46.18933" lon="6.49763">
        <ele>897</ele>
        <time>2011-07-24T14:27:40Z</time>
      </trkpt>
      <trkpt lat="46.1892" lon="6.4976">
        <ele>897</ele>
        <time>2011-07-24T14:27:41Z</time>
      </trkpt>
      <trkpt lat="46.18907" lon="6.49757">
        <ele>897</ele>
        <time>2011-07-24T14:27:42Z</time>
      </trkpt>
      <trkpt lat="46.18895" lon="6.49752">
        <ele>897</ele>
        <time>2011-07-24T14:27:43Z</time>
      </trkpt>
      <trkpt lat="46.18884" lon="6.49749">
        <ele>897</ele>
        <time>2011-07-24T14:27:44Z</time>
      </trkpt>
      <trkpt lat="46.18873" lon="6.49744">
        <ele>891</ele>
        <time>2011-07-24T14:27:45Z</time>
      </trkpt>
      <trkpt lat="46.18864" lon="6.49736">
        <ele>891</ele>
        <time>2011-07-24T14:27:46Z</time>
      </trkpt>
      <trkpt lat="46.18855" lon="6.49729">
        <ele>891</ele>
        <time>2011-07-24T14:27:47Z</time>
      </trkpt>
      <trkpt lat="46.18847" lon="6.49721">
        <ele>891</ele>
        <time>2011-07-24T14:27:48Z</time>
      </trkpt>
      <trkpt lat="46.18833" lon="6.49707">
        <ele>886</ele>
        <time>2011-07-24T14:27:50Z</time>
      </trkpt>
      <trkpt lat="46.18817" lon="6.49698">
        <ele>886</ele>
        <time>2011-07-24T14:27:52Z</time>
      </trkpt>
      <trkpt lat="46.188" lon="6.49692">
        <ele>886</ele>
        <time>2011-07-24T14:27:54Z</time>
      </trkpt>
      <trkpt lat="46.18783" lon="6.49688">
        <ele>886</ele>
        <time>2011-07-24T14:27:56Z</time>
      </trkpt>
      <trkpt lat="46.18772" lon="6.49685">
        <ele>886</ele>
        <time>2011-07-24T14:27:57Z</time>
      </trkpt>
      <trkpt lat="46.18762" lon="6.49682">
        <ele>886</ele>
        <time>2011-07-24T14:27:58Z</time>
      </trkpt>
      <trkpt lat="46.1875" lon="6.49681">
        <ele>886</ele>
        <time>2011-07-24T14:27:59Z</time>
      </trkpt>
      <trkpt lat="46.1874" lon="6.49681">
        <ele>886</ele>
        <time>2011-07-24T14:28:00Z</time>
      </trkpt>
      <trkpt lat="46.18731" lon="6.49682">
        <ele>886</ele>
        <time>2011-07-24T14:28:01Z</time>
      </trkpt>
      <trkpt lat="46.18714" lon="6.4969">
        <ele>880</ele>
        <time>2011-07-24T14:28:03Z</time>
      </trkpt>
      <trkpt lat="46.18697" lon="6.49693">
        <ele>880</ele>
        <time>2011-07-24T14:28:05Z</time>
      </trkpt>
      <trkpt lat="46.18682" lon="6.49703">
        <ele>880</ele>
        <time>2011-07-24T14:28:07Z</time>
      </trkpt>
      <trkpt lat="46.18674" lon="6.49708">
        <ele>880</ele>
        <time>2011-07-24T14:28:08Z</time>
      </trkpt>
      <trkpt lat="46.18665" lon="6.49714">
        <ele>880</ele>
        <time>2011-07-24T14:28:09Z</time>
      </trkpt>
      <trkpt lat="46.18656" lon="6.4972">
        <ele>880</ele>
        <time>2011-07-24T14:28:10Z</time>
      </trkpt>
      <trkpt lat="46.18646" lon="6.49725">
        <ele>880</ele>
        <time>2011-07-24T14:28:11Z</time>
      </trkpt>
      <trkpt lat="46.18631" lon="6.49728">
        <ele>873</ele>
        <time>2011-07-24T14:28:13Z</time>
      </trkpt>
      <trkpt lat="46.18617" lon="6.49722">
        <ele>873</ele>
        <time>2011-07-24T14:28:15Z</time>
      </trkpt>
      <trkpt lat="46.18608" lon="6.49713">
        <ele>873</ele>
        <time>2011-07-24T14:28:17Z</time>
      </trkpt>
      <trkpt lat="46.18599" lon="6.49703">
        <ele>864</ele>
        <time>2011-07-24T14:28:36Z</time>
      </trkpt>
      <trkpt lat="46.18601" lon="6.49717">
        <ele>864</ele>
        <time>2011-07-24T14:28:44Z</time>
      </trkpt>
      <trkpt lat="46.18602" lon="6.49742">
        <ele>864</ele>
        <time>2011-07-24T14:28:46Z</time>
      </trkpt>
      <trkpt lat="46.18599" lon="6.49754">
        <ele>864</ele>
        <time>2011-07-24T14:28:47Z</time>
      </trkpt>
      <trkpt lat="46.18357" lon="6.49939">
        <ele>864</ele>
        <time>2011-07-24T14:29:08Z</time>
      </trkpt>
      <trkpt lat="46.18357" lon="6.49939">
        <ele>857</ele>
        <time>2011-07-24T14:29:08Z</time>
      </trkpt>
      <trkpt lat="46.18347" lon="6.49949">
        <ele>857</ele>
        <time>2011-07-24T14:29:09Z</time>
      </trkpt>
      <trkpt lat="46.18342" lon="6.49963">
        <ele>857</ele>
        <time>2011-07-24T14:29:10Z</time>
      </trkpt>
      <trkpt lat="46.18331" lon="6.49972">
        <ele>857</ele>
        <time>2011-07-24T14:29:11Z</time>
      </trkpt>
      <trkpt lat="46.18316" lon="6.49978">
        <ele>857</ele>
        <time>2011-07-24T14:29:12Z</time>
      </trkpt>
      <trkpt lat="46.18306" lon="6.49987">
        <ele>857</ele>
        <time>2011-07-24T14:29:13Z</time>
      </trkpt>
      <trkpt lat="46.18293" lon="6.49993">
        <ele>857</ele>
        <time>2011-07-24T14:29:14Z</time>
      </trkpt>
      <trkpt lat="46.18284" lon="6.49998">
        <ele>857</ele>
        <time>2011-07-24T14:29:15Z</time>
      </trkpt>
      <trkpt lat="46.18274" lon="6.49999">
        <ele>857</ele>
        <time>2011-07-24T14:29:16Z</time>
      </trkpt>
      <trkpt lat="46.18263" lon="6.49997">
        <ele>857</ele>
        <time>2011-07-24T14:29:17Z</time>
      </trkpt>
      <trkpt lat="46.18253" lon="6.49988">
        <ele>862</ele>
        <time>2011-07-24T14:29:18Z</time>
      </trkpt>
      <trkpt lat="46.18243" lon="6.49974">
        <ele>862</ele>
        <time>2011-07-24T14:29:19Z</time>
      </trkpt>
      <trkpt lat="46.18234" lon="6.49959">
        <ele>862</ele>
        <time>2011-07-24T14:29:20Z</time>
      </trkpt>
      <trkpt lat="46.18226" lon="6.49942">
        <ele>862</ele>
        <time>2011-07-24T14:29:21Z</time>
      </trkpt>
      <trkpt lat="46.18221" lon="6.49923">
        <ele>868</ele>
        <time>2011-07-24T14:29:22Z</time>
      </trkpt>
      <trkpt lat="46.18216" lon="6.49905">
        <ele>868</ele>
        <time>2011-07-24T14:29:23Z</time>
      </trkpt>
      <trkpt lat="46.18211" lon="6.4989">
        <ele>868</ele>
        <time>2011-07-24T14:29:24Z</time>
      </trkpt>
      <trkpt lat="46.18206" lon="6.49876">
        <ele>868</ele>
        <time>2011-07-24T14:29:25Z</time>
      </trkpt>
      <trkpt lat="46.18201" lon="6.49864">
        <ele>868</ele>
        <time>2011-07-24T14:29:26Z</time>
      </trkpt>
      <trkpt lat="46.18194" lon="6.49854">
        <ele>868</ele>
        <time>2011-07-24T14:29:27Z</time>
      </trkpt>
      <trkpt lat="46.18179" lon="6.49843">
        <ele>868</ele>
        <time>2011-07-24T14:29:29Z</time>
      </trkpt>
      <trkpt lat="46.18161" lon="6.49835">
        <ele>868</ele>
        <time>2011-07-24T14:29:31Z</time>
      </trkpt>
      <trkpt lat="46.18153" lon="6.49829">
        <ele>868</ele>
        <time>2011-07-24T14:29:32Z</time>
      </trkpt>
      <trkpt lat="46.18141" lon="6.4982">
        <ele>868</ele>
        <time>2011-07-24T14:29:33Z</time>
      </trkpt>
      <trkpt lat="46.1813" lon="6.49822">
        <ele>863</ele>
        <time>2011-07-24T14:29:35Z</time>
      </trkpt>
      <trkpt lat="46.18121" lon="6.49816">
        <ele>863</ele>
        <time>2011-07-24T14:29:36Z</time>
      </trkpt>
      <trkpt lat="46.18112" lon="6.4981">
        <ele>863</ele>
        <time>2011-07-24T14:29:37Z</time>
      </trkpt>
      <trkpt lat="46.18102" lon="6.49805">
        <ele>863</ele>
        <time>2011-07-24T14:29:38Z</time>
      </trkpt>
      <trkpt lat="46.18093" lon="6.49791">
        <ele>863</ele>
        <time>2011-07-24T14:29:39Z</time>
      </trkpt>
      <trkpt lat="46.18085" lon="6.49772">
        <ele>863</ele>
        <time>2011-07-24T14:29:40Z</time>
      </trkpt>
      <trkpt lat="46.18079" lon="6.49749">
        <ele>863</ele>
        <time>2011-07-24T14:29:41Z</time>
      </trkpt>
      <trkpt lat="46.18072" lon="6.49727">
        <ele>863</ele>
        <time>2011-07-24T14:29:42Z</time>
      </trkpt>
      <trkpt lat="46.18064" lon="6.49707">
        <ele>863</ele>
        <time>2011-07-24T14:29:43Z</time>
      </trkpt>
      <trkpt lat="46.18056" lon="6.49691">
        <ele>863</ele>
        <time>2011-07-24T14:29:44Z</time>
      </trkpt>
      <trkpt lat="46.18045" lon="6.49676">
        <ele>863</ele>
        <time>2011-07-24T14:29:45Z</time>
      </trkpt>
      <trkpt lat="46.18034" lon="6.49662">
        <ele>863</ele>
        <time>2011-07-24T14:29:46Z</time>
      </trkpt>
      <trkpt lat="46.18022" lon="6.49646">
        <ele>863</ele>
        <time>2011-07-24T14:29:47Z</time>
      </trkpt>
      <trkpt lat="46.18008" lon="6.49632">
        <ele>863</ele>
        <time>2011-07-24T14:29:48Z</time>
      </trkpt>
      <trkpt lat="46.17994" lon="6.49619">
        <ele>863</ele>
        <time>2011-07-24T14:29:49Z</time>
      </trkpt>
      <trkpt lat="46.17982" lon="6.49607">
        <ele>863</ele>
        <time>2011-07-24T14:29:50Z</time>
      </trkpt>
      <trkpt lat="46.17969" lon="6.49596">
        <ele>863</ele>
        <time>2011-07-24T14:29:51Z</time>
      </trkpt>
      <trkpt lat="46.17957" lon="6.49586">
        <ele>863</ele>
        <time>2011-07-24T14:29:52Z</time>
      </trkpt>
      <trkpt lat="46.17946" lon="6.49578">
        <ele>863</ele>
        <time>2011-07-24T14:29:53Z</time>
      </trkpt>
      <trkpt lat="46.17934" lon="6.4957">
        <ele>863</ele>
        <time>2011-07-24T14:29:54Z</time>
      </trkpt>
      <trkpt lat="46.17924" lon="6.49564">
        <ele>863</ele>
        <time>2011-07-24T14:29:55Z</time>
      </trkpt>
      <trkpt lat="46.17911" lon="6.49559">
        <ele>863</ele>
        <time>2011-07-24T14:29:56Z</time>
      </trkpt>
      <trkpt lat="46.17896" lon="6.49554">
        <ele>863</ele>
        <time>2011-07-24T14:29:57Z</time>
      </trkpt>
      <trkpt lat="46.17882" lon="6.49549">
        <ele>863</ele>
        <time>2011-07-24T14:29:58Z</time>
      </trkpt>
      <trkpt lat="46.1787" lon="6.49544">
        <ele>863</ele>
        <time>2011-07-24T14:29:59Z</time>
      </trkpt>
      <trkpt lat="46.17859" lon="6.49536">
        <ele>863</ele>
        <time>2011-07-24T14:30:00Z</time>
      </trkpt>
      <trkpt lat="46.17848" lon="6.49523">
        <ele>857</ele>
        <time>2011-07-24T14:30:01Z</time>
      </trkpt>
      <trkpt lat="46.17837" lon="6.49506">
        <ele>857</ele>
        <time>2011-07-24T14:30:02Z</time>
      </trkpt>
      <trkpt lat="46.17829" lon="6.4949">
        <ele>857</ele>
        <time>2011-07-24T14:30:03Z</time>
      </trkpt>
      <trkpt lat="46.17822" lon="6.49473">
        <ele>857</ele>
        <time>2011-07-24T14:30:04Z</time>
      </trkpt>
      <trkpt lat="46.17813" lon="6.49454">
        <ele>851</ele>
        <time>2011-07-24T14:30:05Z</time>
      </trkpt>
      <trkpt lat="46.17804" lon="6.49434">
        <ele>851</ele>
        <time>2011-07-24T14:30:06Z</time>
      </trkpt>
      <trkpt lat="46.17796" lon="6.49414">
        <ele>851</ele>
        <time>2011-07-24T14:30:07Z</time>
      </trkpt>
      <trkpt lat="46.17789" lon="6.49394">
        <ele>851</ele>
        <time>2011-07-24T14:30:08Z</time>
      </trkpt>
      <trkpt lat="46.17783" lon="6.49375">
        <ele>851</ele>
        <time>2011-07-24T14:30:09Z</time>
      </trkpt>
      <trkpt lat="46.17776" lon="6.49356">
        <ele>845</ele>
        <time>2011-07-24T14:30:10Z</time>
      </trkpt>
      <trkpt lat="46.17771" lon="6.49339">
        <ele>845</ele>
        <time>2011-07-24T14:30:11Z</time>
      </trkpt>
      <trkpt lat="46.17765" lon="6.49322">
        <ele>845</ele>
        <time>2011-07-24T14:30:12Z</time>
      </trkpt>
      <trkpt lat="46.1776" lon="6.49305">
        <ele>845</ele>
        <time>2011-07-24T14:30:13Z</time>
      </trkpt>
      <trkpt lat="46.17755" lon="6.49288">
        <ele>845</ele>
        <time>2011-07-24T14:30:14Z</time>
      </trkpt>
      <trkpt lat="46.17751" lon="6.49271">
        <ele>845</ele>
        <time>2011-07-24T14:30:15Z</time>
      </trkpt>
      <trkpt lat="46.17748" lon="6.49254">
        <ele>845</ele>
        <time>2011-07-24T14:30:16Z</time>
      </trkpt>
      <trkpt lat="46.17746" lon="6.49237">
        <ele>845</ele>
        <time>2011-07-24T14:30:17Z</time>
      </trkpt>
      <trkpt lat="46.17745" lon="6.49221">
        <ele>845</ele>
        <time>2011-07-24T14:30:18Z</time>
      </trkpt>
      <trkpt lat="46.17743" lon="6.49208">
        <ele>845</ele>
        <time>2011-07-24T14:30:19Z</time>
      </trkpt>
      <trkpt lat="46.17741" lon="6.49195">
        <ele>845</ele>
        <time>2011-07-24T14:30:20Z</time>
      </trkpt>
      <trkpt lat="46.17736" lon="6.4917">
        <ele>845</ele>
        <time>2011-07-24T14:30:22Z</time>
      </trkpt>
      <trkpt lat="46.17732" lon="6.49151">
        <ele>840</ele>
        <time>2011-07-24T14:30:24Z</time>
      </trkpt>
      <trkpt lat="46.17728" lon="6.49137">
        <ele>840</ele>
        <time>2011-07-24T14:30:26Z</time>
      </trkpt>
      <trkpt lat="46.17725" lon="6.49123">
        <ele>840</ele>
        <time>2011-07-24T14:30:28Z</time>
      </trkpt>
      <trkpt lat="46.1772" lon="6.49109">
        <ele>840</ele>
        <time>2011-07-24T14:30:30Z</time>
      </trkpt>
      <trkpt lat="46.17717" lon="6.49097">
        <ele>840</ele>
        <time>2011-07-24T14:30:32Z</time>
      </trkpt>
      <trkpt lat="46.17713" lon="6.49081">
        <ele>840</ele>
        <time>2011-07-24T14:30:35Z</time>
      </trkpt>
      <trkpt lat="46.17705" lon="6.49071">
        <ele>840</ele>
        <time>2011-07-24T14:30:53Z</time>
      </trkpt>
      <trkpt lat="46.17705" lon="6.49087">
        <ele>840</ele>
        <time>2011-07-24T14:30:57Z</time>
      </trkpt>
      <trkpt lat="46.17711" lon="6.49102">
        <ele>840</ele>
        <time>2011-07-24T14:30:59Z</time>
      </trkpt>
      <trkpt lat="46.17717" lon="6.49119">
        <ele>840</ele>
        <time>2011-07-24T14:31:02Z</time>
      </trkpt>
      <trkpt lat="46.17728" lon="6.49135">
        <ele>840</ele>
        <time>2011-07-24T14:31:07Z</time>
      </trkpt>
      <trkpt lat="46.17736" lon="6.49148">
        <ele>828</ele>
        <time>2011-07-24T14:31:14Z</time>
      </trkpt>
      <trkpt lat="46.17743" lon="6.49135">
        <ele>828</ele>
        <time>2011-07-24T14:31:27Z</time>
      </trkpt>
      <trkpt lat="46.17745" lon="6.4912">
        <ele>828</ele>
        <time>2011-07-24T14:31:30Z</time>
      </trkpt>
      <trkpt lat="46.17749" lon="6.49104">
        <ele>828</ele>
        <time>2011-07-24T14:31:33Z</time>
      </trkpt>
      <trkpt lat="46.1775" lon="6.49087">
        <ele>828</ele>
        <time>2011-07-24T14:31:36Z</time>
      </trkpt>
      <trkpt lat="46.17751" lon="6.49069">
        <ele>828</ele>
        <time>2011-07-24T14:31:39Z</time>
      </trkpt>
      <trkpt lat="46.17748" lon="6.49051">
        <ele>828</ele>
        <time>2011-07-24T14:31:42Z</time>
      </trkpt>
      <trkpt lat="46.17745" lon="6.49038">
        <ele>834</ele>
        <time>2011-07-24T14:31:45Z</time>
      </trkpt>
      <trkpt lat="46.17743" lon="6.49018">
        <ele>834</ele>
        <time>2011-07-24T14:31:50Z</time>
      </trkpt>
      <trkpt lat="46.1774" lon="6.49002">
        <ele>834</ele>
        <time>2011-07-24T14:31:53Z</time>
      </trkpt>
      <trkpt lat="46.17738" lon="6.4899">
        <ele>834</ele>
        <time>2011-07-24T14:31:56Z</time>
      </trkpt>
      <trkpt lat="46.17728" lon="6.48977">
        <ele>849</ele>
        <time>2011-07-24T14:31:59Z</time>
      </trkpt>
      <trkpt lat="46.1772" lon="6.48965">
        <ele>857</ele>
        <time>2011-07-24T14:32:02Z</time>
      </trkpt>
      <trkpt lat="46.17715" lon="6.48952">
        <ele>863</ele>
        <time>2011-07-24T14:32:06Z</time>
      </trkpt>
      <trkpt lat="46.17714" lon="6.48939">
        <ele>863</ele>
        <time>2011-07-24T14:32:09Z</time>
      </trkpt>
      <trkpt lat="46.1771" lon="6.48926">
        <ele>874</ele>
        <time>2011-07-24T14:32:17Z</time>
      </trkpt>
      <trkpt lat="46.17705" lon="6.48913">
        <ele>874</ele>
        <time>2011-07-24T14:37:38Z</time>
      </trkpt>
      <trkpt lat="46.1771" lon="6.48925">
        <ele>868</ele>
        <time>2011-07-24T14:38:16Z</time>
      </trkpt>
      <trkpt lat="46.1771" lon="6.48939">
        <ele>868</ele>
        <time>2011-07-24T14:38:26Z</time>
      </trkpt>
      <trkpt lat="46.17707" lon="6.48952">
        <ele>868</ele>
        <time>2011-07-24T14:38:34Z</time>
      </trkpt>
      <trkpt lat="46.1771" lon="6.48965">
        <ele>868</ele>
        <time>2011-07-24T14:38:38Z</time>
      </trkpt>
      <trkpt lat="46.17715" lon="6.48978">
        <ele>863</ele>
        <time>2011-07-24T14:38:41Z</time>
      </trkpt>
      <trkpt lat="46.1772" lon="6.48989">
        <ele>863</ele>
        <time>2011-07-24T14:38:46Z</time>
      </trkpt>
      <trkpt lat="46.17726" lon="6.49">
        <ele>853</ele>
        <time>2011-07-24T14:38:50Z</time>
      </trkpt>
      <trkpt lat="46.1773" lon="6.49013">
        <ele>853</ele>
        <time>2011-07-24T14:38:55Z</time>
      </trkpt>
      <trkpt lat="46.17736" lon="6.49028">
        <ele>848</ele>
        <time>2011-07-24T14:38:59Z</time>
      </trkpt>
      <trkpt lat="46.17739" lon="6.49045">
        <ele>848</ele>
        <time>2011-07-24T14:39:02Z</time>
      </trkpt>
      <trkpt lat="46.1774" lon="6.49062">
        <ele>848</ele>
        <time>2011-07-24T14:39:07Z</time>
      </trkpt>
      <trkpt lat="46.17741" lon="6.49078">
        <ele>848</ele>
        <time>2011-07-24T14:39:12Z</time>
      </trkpt>
      <trkpt lat="46.17739" lon="6.49091">
        <ele>848</ele>
        <time>2011-07-24T14:39:16Z</time>
      </trkpt>
      <trkpt lat="46.17738" lon="6.49106">
        <ele>842</ele>
        <time>2011-07-24T14:39:20Z</time>
      </trkpt>
      <trkpt lat="46.17737" lon="6.49119">
        <ele>842</ele>
        <time>2011-07-24T14:39:24Z</time>
      </trkpt>
      <trkpt lat="46.17736" lon="6.49133">
        <ele>842</ele>
        <time>2011-07-24T14:39:28Z</time>
      </trkpt>
      <trkpt lat="46.17727" lon="6.49124">
        <ele>836</ele>
        <time>2011-07-24T14:39:37Z</time>
      </trkpt>
      <trkpt lat="46.17724" lon="6.4911">
        <ele>836</ele>
        <time>2011-07-24T14:39:39Z</time>
      </trkpt>
      <trkpt lat="46.17721" lon="6.49097">
        <ele>836</ele>
        <time>2011-07-24T14:39:41Z</time>
      </trkpt>
      <trkpt lat="46.17718" lon="6.4908">
        <ele>836</ele>
        <time>2011-07-24T14:39:44Z</time>
      </trkpt>
      <trkpt lat="46.1771" lon="6.49077">
        <ele>844</ele>
        <time>2011-07-24T14:40:16Z</time>
      </trkpt>
      <trkpt lat="46.1771" lon="6.4906">
        <ele>838</ele>
        <time>2011-07-24T14:40:28Z</time>
      </trkpt>
      <trkpt lat="46.17703" lon="6.49037">
        <ele>838</ele>
        <time>2011-07-24T14:40:30Z</time>
      </trkpt>
      <trkpt lat="46.17696" lon="6.49018">
        <ele>838</ele>
        <time>2011-07-24T14:40:31Z</time>
      </trkpt>
      <trkpt lat="46.1769" lon="6.49001">
        <ele>832</ele>
        <time>2011-07-24T14:40:32Z</time>
      </trkpt>
      <trkpt lat="46.17682" lon="6.48986">
        <ele>832</ele>
        <time>2011-07-24T14:40:33Z</time>
      </trkpt>
      <trkpt lat="46.17673" lon="6.48972">
        <ele>832</ele>
        <time>2011-07-24T14:40:34Z</time>
      </trkpt>
      <trkpt lat="46.17663" lon="6.48958">
        <ele>832</ele>
        <time>2011-07-24T14:40:35Z</time>
      </trkpt>
      <trkpt lat="46.17652" lon="6.48946">
        <ele>832</ele>
        <time>2011-07-24T14:40:36Z</time>
      </trkpt>
      <trkpt lat="46.17642" lon="6.48934">
        <ele>832</ele>
        <time>2011-07-24T14:40:37Z</time>
      </trkpt>
      <trkpt lat="46.17633" lon="6.48923">
        <ele>832</ele>
        <time>2011-07-24T14:40:38Z</time>
      </trkpt>
      <trkpt lat="46.17625" lon="6.48912">
        <ele>827</ele>
        <time>2011-07-24T14:40:39Z</time>
      </trkpt>
      <trkpt lat="46.17618" lon="6.489">
        <ele>827</ele>
        <time>2011-07-24T14:40:40Z</time>
      </trkpt>
      <trkpt lat="46.17611" lon="6.48887">
        <ele>827</ele>
        <time>2011-07-24T14:40:41Z</time>
      </trkpt>
      <trkpt lat="46.17604" lon="6.48873">
        <ele>827</ele>
        <time>2011-07-24T14:40:42Z</time>
      </trkpt>
      <trkpt lat="46.17599" lon="6.48857">
        <ele>820</ele>
        <time>2011-07-24T14:40:43Z</time>
      </trkpt>
      <trkpt lat="46.17596" lon="6.48839">
        <ele>820</ele>
        <time>2011-07-24T14:40:44Z</time>
      </trkpt>
      <trkpt lat="46.17592" lon="6.4882">
        <ele>815</ele>
        <time>2011-07-24T14:40:45Z</time>
      </trkpt>
      <trkpt lat="46.17589" lon="6.48799">
        <ele>815</ele>
        <time>2011-07-24T14:40:46Z</time>
      </trkpt>
      <trkpt lat="46.17585" lon="6.48779">
        <ele>815</ele>
        <time>2011-07-24T14:40:47Z</time>
      </trkpt>
      <trkpt lat="46.17582" lon="6.48759">
        <ele>815</ele>
        <time>2011-07-24T14:40:48Z</time>
      </trkpt>
      <trkpt lat="46.17577" lon="6.4874">
        <ele>815</ele>
        <time>2011-07-24T14:40:49Z</time>
      </trkpt>
      <trkpt lat="46.17571" lon="6.48722">
        <ele>815</ele>
        <time>2011-07-24T14:40:50Z</time>
      </trkpt>
      <trkpt lat="46.17564" lon="6.48705">
        <ele>815</ele>
        <time>2011-07-24T14:40:51Z</time>
      </trkpt>
      <trkpt lat="46.17559" lon="6.4869">
        <ele>815</ele>
        <time>2011-07-24T14:40:52Z</time>
      </trkpt>
      <trkpt lat="46.17554" lon="6.48675">
        <ele>815</ele>
        <time>2011-07-24T14:40:53Z</time>
      </trkpt>
      <trkpt lat="46.17549" lon="6.48662">
        <ele>815</ele>
        <time>2011-07-24T14:40:54Z</time>
      </trkpt>
      <trkpt lat="46.17544" lon="6.48648">
        <ele>815</ele>
        <time>2011-07-24T14:40:55Z</time>
      </trkpt>
      <trkpt lat="46.17537" lon="6.48635">
        <ele>815</ele>
        <time>2011-07-24T14:40:56Z</time>
      </trkpt>
      <trkpt lat="46.1753" lon="6.48622">
        <ele>809</ele>
        <time>2011-07-24T14:40:57Z</time>
      </trkpt>
      <trkpt lat="46.17522" lon="6.48612">
        <ele>809</ele>
        <time>2011-07-24T14:40:58Z</time>
      </trkpt>
      <trkpt lat="46.17512" lon="6.48601">
        <ele>809</ele>
        <time>2011-07-24T14:40:59Z</time>
      </trkpt>
      <trkpt lat="46.17504" lon="6.48591">
        <ele>809</ele>
        <time>2011-07-24T14:41:00Z</time>
      </trkpt>
      <trkpt lat="46.17495" lon="6.48581">
        <ele>809</ele>
        <time>2011-07-24T14:41:01Z</time>
      </trkpt>
      <trkpt lat="46.17487" lon="6.48572">
        <ele>809</ele>
        <time>2011-07-24T14:41:02Z</time>
      </trkpt>
      <trkpt lat="46.17478" lon="6.48563">
        <ele>809</ele>
        <time>2011-07-24T14:41:03Z</time>
      </trkpt>
      <trkpt lat="46.1747" lon="6.48553">
        <ele>809</ele>
        <time>2011-07-24T14:41:04Z</time>
      </trkpt>
      <trkpt lat="46.17461" lon="6.48543">
        <ele>809</ele>
        <time>2011-07-24T14:41:05Z</time>
      </trkpt>
      <trkpt lat="46.17453" lon="6.48532">
        <ele>804</ele>
        <time>2011-07-24T14:41:06Z</time>
      </trkpt>
      <trkpt lat="46.17445" lon="6.4852">
        <ele>804</ele>
        <time>2011-07-24T14:41:07Z</time>
      </trkpt>
      <trkpt lat="46.17438" lon="6.48506">
        <ele>804</ele>
        <time>2011-07-24T14:41:08Z</time>
      </trkpt>
      <trkpt lat="46.1743" lon="6.48493">
        <ele>804</ele>
        <time>2011-07-24T14:41:09Z</time>
      </trkpt>
      <trkpt lat="46.17423" lon="6.4848">
        <ele>804</ele>
        <time>2011-07-24T14:41:10Z</time>
      </trkpt>
      <trkpt lat="46.17416" lon="6.48466">
        <ele>804</ele>
        <time>2011-07-24T14:41:11Z</time>
      </trkpt>
      <trkpt lat="46.17409" lon="6.48452">
        <ele>804</ele>
        <time>2011-07-24T14:41:12Z</time>
      </trkpt>
      <trkpt lat="46.17402" lon="6.48439">
        <ele>804</ele>
        <time>2011-07-24T14:41:13Z</time>
      </trkpt>
      <trkpt lat="46.17396" lon="6.48426">
        <ele>804</ele>
        <time>2011-07-24T14:41:14Z</time>
      </trkpt>
      <trkpt lat="46.1739" lon="6.48415">
        <ele>804</ele>
        <time>2011-07-24T14:41:15Z</time>
      </trkpt>
      <trkpt lat="46.17385" lon="6.48403">
        <ele>804</ele>
        <time>2011-07-24T14:41:16Z</time>
      </trkpt>
      <trkpt lat="46.17378" lon="6.48391">
        <ele>804</ele>
        <time>2011-07-24T14:41:17Z</time>
      </trkpt>
      <trkpt lat="46.17372" lon="6.48379">
        <ele>804</ele>
        <time>2011-07-24T14:41:18Z</time>
      </trkpt>
      <trkpt lat="46.17366" lon="6.48366">
        <ele>804</ele>
        <time>2011-07-24T14:41:19Z</time>
      </trkpt>
      <trkpt lat="46.1736" lon="6.48353">
        <ele>804</ele>
        <time>2011-07-24T14:41:20Z</time>
      </trkpt>
      <trkpt lat="46.17353" lon="6.48338">
        <ele>804</ele>
        <time>2011-07-24T14:41:21Z</time>
      </trkpt>
      <trkpt lat="46.17346" lon="6.48324">
        <ele>804</ele>
        <time>2011-07-24T14:41:22Z</time>
      </trkpt>
      <trkpt lat="46.1734" lon="6.4831">
        <ele>804</ele>
        <time>2011-07-24T14:41:23Z</time>
      </trkpt>
      <trkpt lat="46.17333" lon="6.48295">
        <ele>804</ele>
        <time>2011-07-24T14:41:24Z</time>
      </trkpt>
      <trkpt lat="46.17326" lon="6.48281">
        <ele>804</ele>
        <time>2011-07-24T14:41:25Z</time>
      </trkpt>
      <trkpt lat="46.17319" lon="6.48268">
        <ele>804</ele>
        <time>2011-07-24T14:41:26Z</time>
      </trkpt>
      <trkpt lat="46.17312" lon="6.48256">
        <ele>804</ele>
        <time>2011-07-24T14:41:27Z</time>
      </trkpt>
      <trkpt lat="46.17305" lon="6.48244">
        <ele>804</ele>
        <time>2011-07-24T14:41:28Z</time>
      </trkpt>
      <trkpt lat="46.17298" lon="6.48233">
        <ele>804</ele>
        <time>2011-07-24T14:41:29Z</time>
      </trkpt>
      <trkpt lat="46.1729" lon="6.48222">
        <ele>804</ele>
        <time>2011-07-24T14:41:30Z</time>
      </trkpt>
      <trkpt lat="46.17282" lon="6.48211">
        <ele>804</ele>
        <time>2011-07-24T14:41:31Z</time>
      </trkpt>
      <trkpt lat="46.17273" lon="6.482">
        <ele>804</ele>
        <time>2011-07-24T14:41:32Z</time>
      </trkpt>
      <trkpt lat="46.17265" lon="6.48189">
        <ele>804</ele>
        <time>2011-07-24T14:41:33Z</time>
      </trkpt>
      <trkpt lat="46.17257" lon="6.48179">
        <ele>804</ele>
        <time>2011-07-24T14:41:34Z</time>
      </trkpt>
      <trkpt lat="46.17248" lon="6.48167">
        <ele>804</ele>
        <time>2011-07-24T14:41:35Z</time>
      </trkpt>
      <trkpt lat="46.1724" lon="6.48156">
        <ele>804</ele>
        <time>2011-07-24T14:41:36Z</time>
      </trkpt>
      <trkpt lat="46.17232" lon="6.48145">
        <ele>804</ele>
        <time>2011-07-24T14:41:37Z</time>
      </trkpt>
      <trkpt lat="46.17222" lon="6.48134">
        <ele>804</ele>
        <time>2011-07-24T14:41:38Z</time>
      </trkpt>
      <trkpt lat="46.17214" lon="6.48123">
        <ele>804</ele>
        <time>2011-07-24T14:41:39Z</time>
      </trkpt>
      <trkpt lat="46.17205" lon="6.48111">
        <ele>804</ele>
        <time>2011-07-24T14:41:40Z</time>
      </trkpt>
      <trkpt lat="46.17195" lon="6.481">
        <ele>804</ele>
        <time>2011-07-24T14:41:41Z</time>
      </trkpt>
      <trkpt lat="46.17185" lon="6.4809">
        <ele>804</ele>
        <time>2011-07-24T14:41:42Z</time>
      </trkpt>
      <trkpt lat="46.17175" lon="6.4808">
        <ele>804</ele>
        <time>2011-07-24T14:41:43Z</time>
      </trkpt>
      <trkpt lat="46.17164" lon="6.4807">
        <ele>804</ele>
        <time>2011-07-24T14:41:44Z</time>
      </trkpt>
      <trkpt lat="46.17154" lon="6.48059">
        <ele>804</ele>
        <time>2011-07-24T14:41:45Z</time>
      </trkpt>
      <trkpt lat="46.17144" lon="6.48049">
        <ele>804</ele>
        <time>2011-07-24T14:41:46Z</time>
      </trkpt>
      <trkpt lat="46.17136" lon="6.4804">
        <ele>804</ele>
        <time>2011-07-24T14:41:47Z</time>
      </trkpt>
      <trkpt lat="46.17128" lon="6.4803">
        <ele>804</ele>
        <time>2011-07-24T14:41:48Z</time>
      </trkpt>
      <trkpt lat="46.17122" lon="6.48019">
        <ele>804</ele>
        <time>2011-07-24T14:41:49Z</time>
      </trkpt>
      <trkpt lat="46.17119" lon="6.48006">
        <ele>804</ele>
        <time>2011-07-24T14:41:50Z</time>
      </trkpt>
      <trkpt lat="46.17117" lon="6.47991">
        <ele>804</ele>
        <time>2011-07-24T14:41:51Z</time>
      </trkpt>
      <trkpt lat="46.17117" lon="6.47976">
        <ele>799</ele>
        <time>2011-07-24T14:41:52Z</time>
      </trkpt>
      <trkpt lat="46.17116" lon="6.47959">
        <ele>799</ele>
        <time>2011-07-24T14:41:53Z</time>
      </trkpt>
      <trkpt lat="46.17116" lon="6.47944">
        <ele>799</ele>
        <time>2011-07-24T14:41:54Z</time>
      </trkpt>
      <trkpt lat="46.17116" lon="6.47928">
        <ele>799</ele>
        <time>2011-07-24T14:41:55Z</time>
      </trkpt>
      <trkpt lat="46.17115" lon="6.47914">
        <ele>799</ele>
        <time>2011-07-24T14:41:56Z</time>
      </trkpt>
      <trkpt lat="46.17113" lon="6.47899">
        <ele>799</ele>
        <time>2011-07-24T14:41:57Z</time>
      </trkpt>
      <trkpt lat="46.1711" lon="6.47885">
        <ele>799</ele>
        <time>2011-07-24T14:41:58Z</time>
      </trkpt>
      <trkpt lat="46.17106" lon="6.4787">
        <ele>799</ele>
        <time>2011-07-24T14:41:59Z</time>
      </trkpt>
      <trkpt lat="46.17099" lon="6.47857">
        <ele>799</ele>
        <time>2011-07-24T14:42:00Z</time>
      </trkpt>
      <trkpt lat="46.17091" lon="6.47843">
        <ele>799</ele>
        <time>2011-07-24T14:42:01Z</time>
      </trkpt>
      <trkpt lat="46.17082" lon="6.47829">
        <ele>799</ele>
        <time>2011-07-24T14:42:02Z</time>
      </trkpt>
      <trkpt lat="46.17072" lon="6.47817">
        <ele>799</ele>
        <time>2011-07-24T14:42:03Z</time>
      </trkpt>
      <trkpt lat="46.17062" lon="6.47804">
        <ele>799</ele>
        <time>2011-07-24T14:42:04Z</time>
      </trkpt>
      <trkpt lat="46.17051" lon="6.47793">
        <ele>799</ele>
        <time>2011-07-24T14:42:05Z</time>
      </trkpt>
      <trkpt lat="46.17038" lon="6.47784">
        <ele>799</ele>
        <time>2011-07-24T14:42:06Z</time>
      </trkpt>
      <trkpt lat="46.17025" lon="6.47778">
        <ele>799</ele>
        <time>2011-07-24T14:42:07Z</time>
      </trkpt>
      <trkpt lat="46.17012" lon="6.47774">
        <ele>794</ele>
        <time>2011-07-24T14:42:08Z</time>
      </trkpt>
      <trkpt lat="46.16999" lon="6.47771">
        <ele>794</ele>
        <time>2011-07-24T14:42:09Z</time>
      </trkpt>
      <trkpt lat="46.16987" lon="6.47767">
        <ele>794</ele>
        <time>2011-07-24T14:42:10Z</time>
      </trkpt>
      <trkpt lat="46.16976" lon="6.47763">
        <ele>794</ele>
        <time>2011-07-24T14:42:11Z</time>
      </trkpt>
      <trkpt lat="46.16965" lon="6.47757">
        <ele>794</ele>
        <time>2011-07-24T14:42:12Z</time>
      </trkpt>
      <trkpt lat="46.16955" lon="6.47751">
        <ele>788</ele>
        <time>2011-07-24T14:42:13Z</time>
      </trkpt>
      <trkpt lat="46.16943" lon="6.47742">
        <ele>788</ele>
        <time>2011-07-24T14:42:14Z</time>
      </trkpt>
      <trkpt lat="46.16934" lon="6.47732">
        <ele>788</ele>
        <time>2011-07-24T14:42:15Z</time>
      </trkpt>
      <trkpt lat="46.16926" lon="6.4772">
        <ele>788</ele>
        <time>2011-07-24T14:42:16Z</time>
      </trkpt>
      <trkpt lat="46.16919" lon="6.47707">
        <ele>788</ele>
        <time>2011-07-24T14:42:17Z</time>
      </trkpt>
      <trkpt lat="46.16913" lon="6.47694">
        <ele>788</ele>
        <time>2011-07-24T14:42:18Z</time>
      </trkpt>
      <trkpt lat="46.16909" lon="6.47683">
        <ele>788</ele>
        <time>2011-07-24T14:42:19Z</time>
      </trkpt>
      <trkpt lat="46.16901" lon="6.47662">
        <ele>783</ele>
        <time>2011-07-24T14:42:21Z</time>
      </trkpt>
      <trkpt lat="46.16898" lon="6.47641">
        <ele>783</ele>
        <time>2011-07-24T14:42:23Z</time>
      </trkpt>
      <trkpt lat="46.16898" lon="6.4762">
        <ele>783</ele>
        <time>2011-07-24T14:42:25Z</time>
      </trkpt>
      <trkpt lat="46.1689" lon="6.47602">
        <ele>783</ele>
        <time>2011-07-24T14:42:27Z</time>
      </trkpt>
      <trkpt lat="46.16872" lon="6.47596">
        <ele>783</ele>
        <time>2011-07-24T14:42:29Z</time>
      </trkpt>
      <trkpt lat="46.1686" lon="6.47595">
        <ele>789</ele>
        <time>2011-07-24T14:42:30Z</time>
      </trkpt>
      <trkpt lat="46.16849" lon="6.47594">
        <ele>789</ele>
        <time>2011-07-24T14:42:31Z</time>
      </trkpt>
      <trkpt lat="46.16838" lon="6.47595">
        <ele>789</ele>
        <time>2011-07-24T14:42:32Z</time>
      </trkpt>
      <trkpt lat="46.16822" lon="6.47596">
        <ele>789</ele>
        <time>2011-07-24T14:42:34Z</time>
      </trkpt>
      <trkpt lat="46.16804" lon="6.47603">
        <ele>789</ele>
        <time>2011-07-24T14:42:36Z</time>
      </trkpt>
      <trkpt lat="46.16795" lon="6.47606">
        <ele>789</ele>
        <time>2011-07-24T14:42:37Z</time>
      </trkpt>
      <trkpt lat="46.16785" lon="6.47609">
        <ele>789</ele>
        <time>2011-07-24T14:42:38Z</time>
      </trkpt>
      <trkpt lat="46.16775" lon="6.47609">
        <ele>789</ele>
        <time>2011-07-24T14:42:39Z</time>
      </trkpt>
      <trkpt lat="46.16757" lon="6.47605">
        <ele>789</ele>
        <time>2011-07-24T14:42:41Z</time>
      </trkpt>
      <trkpt lat="46.16748" lon="6.47598">
        <ele>789</ele>
        <time>2011-07-24T14:42:42Z</time>
      </trkpt>
      <trkpt lat="46.1674" lon="6.47589">
        <ele>789</ele>
        <time>2011-07-24T14:42:43Z</time>
      </trkpt>
      <trkpt lat="46.16732" lon="6.47578">
        <ele>789</ele>
        <time>2011-07-24T14:42:44Z</time>
      </trkpt>
      <trkpt lat="46.16727" lon="6.47564">
        <ele>789</ele>
        <time>2011-07-24T14:42:45Z</time>
      </trkpt>
      <trkpt lat="46.16724" lon="6.4755">
        <ele>789</ele>
        <time>2011-07-24T14:42:46Z</time>
      </trkpt>
      <trkpt lat="46.16723" lon="6.47534">
        <ele>789</ele>
        <time>2011-07-24T14:42:47Z</time>
      </trkpt>
      <trkpt lat="46.16723" lon="6.47516">
        <ele>789</ele>
        <time>2011-07-24T14:42:48Z</time>
      </trkpt>
      <trkpt lat="46.16723" lon="6.475">
        <ele>789</ele>
        <time>2011-07-24T14:42:49Z</time>
      </trkpt>
      <trkpt lat="46.16723" lon="6.47483">
        <ele>789</ele>
        <time>2011-07-24T14:42:50Z</time>
      </trkpt>
      <trkpt lat="46.16724" lon="6.47467">
        <ele>789</ele>
        <time>2011-07-24T14:42:51Z</time>
      </trkpt>
      <trkpt lat="46.16724" lon="6.47451">
        <ele>789</ele>
        <time>2011-07-24T14:42:52Z</time>
      </trkpt>
      <trkpt lat="46.16724" lon="6.47436">
        <ele>789</ele>
        <time>2011-07-24T14:42:53Z</time>
      </trkpt>
      <trkpt lat="46.16725" lon="6.47422">
        <ele>789</ele>
        <time>2011-07-24T14:42:54Z</time>
      </trkpt>
      <trkpt lat="46.16725" lon="6.47399">
        <ele>789</ele>
        <time>2011-07-24T14:42:56Z</time>
      </trkpt>
      <trkpt lat="46.1672" lon="6.47377">
        <ele>789</ele>
        <time>2011-07-24T14:42:58Z</time>
      </trkpt>
      <trkpt lat="46.16707" lon="6.47359">
        <ele>789</ele>
        <time>2011-07-24T14:43:00Z</time>
      </trkpt>
      <trkpt lat="46.16698" lon="6.47352">
        <ele>795</ele>
        <time>2011-07-24T14:43:01Z</time>
      </trkpt>
      <trkpt lat="46.16687" lon="6.47347">
        <ele>795</ele>
        <time>2011-07-24T14:43:02Z</time>
      </trkpt>
      <trkpt lat="46.16677" lon="6.47342">
        <ele>795</ele>
        <time>2011-07-24T14:43:03Z</time>
      </trkpt>
      <trkpt lat="46.16665" lon="6.47339">
        <ele>795</ele>
        <time>2011-07-24T14:43:04Z</time>
      </trkpt>
      <trkpt lat="46.16654" lon="6.47335">
        <ele>795</ele>
        <time>2011-07-24T14:43:05Z</time>
      </trkpt>
      <trkpt lat="46.16642" lon="6.47332">
        <ele>795</ele>
        <time>2011-07-24T14:43:06Z</time>
      </trkpt>
      <trkpt lat="46.16631" lon="6.47329">
        <ele>795</ele>
        <time>2011-07-24T14:43:07Z</time>
      </trkpt>
      <trkpt lat="46.16621" lon="6.47326">
        <ele>795</ele>
        <time>2011-07-24T14:43:08Z</time>
      </trkpt>
      <trkpt lat="46.16611" lon="6.47322">
        <ele>795</ele>
        <time>2011-07-24T14:43:09Z</time>
      </trkpt>
      <trkpt lat="46.16602" lon="6.47316">
        <ele>795</ele>
        <time>2011-07-24T14:43:10Z</time>
      </trkpt>
      <trkpt lat="46.16593" lon="6.4731">
        <ele>795</ele>
        <time>2011-07-24T14:43:11Z</time>
      </trkpt>
      <trkpt lat="46.16585" lon="6.47302">
        <ele>800</ele>
        <time>2011-07-24T14:43:12Z</time>
      </trkpt>
      <trkpt lat="46.16572" lon="6.47284">
        <ele>800</ele>
        <time>2011-07-24T14:43:14Z</time>
      </trkpt>
      <trkpt lat="46.16566" lon="6.47274">
        <ele>800</ele>
        <time>2011-07-24T14:43:15Z</time>
      </trkpt>
      <trkpt lat="46.16559" lon="6.47263">
        <ele>800</ele>
        <time>2011-07-24T14:43:16Z</time>
      </trkpt>
      <trkpt lat="46.16553" lon="6.47252">
        <ele>800</ele>
        <time>2011-07-24T14:43:17Z</time>
      </trkpt>
      <trkpt lat="46.16546" lon="6.47242">
        <ele>800</ele>
        <time>2011-07-24T14:43:18Z</time>
      </trkpt>
      <trkpt lat="46.16538" lon="6.4723">
        <ele>800</ele>
        <time>2011-07-24T14:43:19Z</time>
      </trkpt>
      <trkpt lat="46.16531" lon="6.47218">
        <ele>806</ele>
        <time>2011-07-24T14:43:20Z</time>
      </trkpt>
      <trkpt lat="46.16523" lon="6.47207">
        <ele>806</ele>
        <time>2011-07-24T14:43:21Z</time>
      </trkpt>
      <trkpt lat="46.16516" lon="6.47196">
        <ele>806</ele>
        <time>2011-07-24T14:43:22Z</time>
      </trkpt>
      <trkpt lat="46.16508" lon="6.47185">
        <ele>806</ele>
        <time>2011-07-24T14:43:23Z</time>
      </trkpt>
      <trkpt lat="46.165" lon="6.47173">
        <ele>806</ele>
        <time>2011-07-24T14:43:24Z</time>
      </trkpt>
      <trkpt lat="46.16493" lon="6.47163">
        <ele>806</ele>
        <time>2011-07-24T14:43:25Z</time>
      </trkpt>
      <trkpt lat="46.16485" lon="6.47152">
        <ele>806</ele>
        <time>2011-07-24T14:43:26Z</time>
      </trkpt>
      <trkpt lat="46.16477" lon="6.47141">
        <ele>806</ele>
        <time>2011-07-24T14:43:27Z</time>
      </trkpt>
      <trkpt lat="46.1647" lon="6.47128">
        <ele>811</ele>
        <time>2011-07-24T14:43:28Z</time>
      </trkpt>
      <trkpt lat="46.16463" lon="6.47116">
        <ele>811</ele>
        <time>2011-07-24T14:43:29Z</time>
      </trkpt>
      <trkpt lat="46.16457" lon="6.47104">
        <ele>811</ele>
        <time>2011-07-24T14:43:30Z</time>
      </trkpt>
      <trkpt lat="46.16449" lon="6.47083">
        <ele>811</ele>
        <time>2011-07-24T14:43:32Z</time>
      </trkpt>
      <trkpt lat="46.16446" lon="6.47066">
        <ele>811</ele>
        <time>2011-07-24T14:43:34Z</time>
      </trkpt>
      <trkpt lat="46.16451" lon="6.47047">
        <ele>817</ele>
        <time>2011-07-24T14:43:36Z</time>
      </trkpt>
      <trkpt lat="46.16457" lon="6.47032">
        <ele>817</ele>
        <time>2011-07-24T14:43:38Z</time>
      </trkpt>
      <trkpt lat="46.16473" lon="6.47027">
        <ele>817</ele>
        <time>2011-07-24T14:43:40Z</time>
      </trkpt>
      <trkpt lat="46.16484" lon="6.47026">
        <ele>817</ele>
        <time>2011-07-24T14:43:41Z</time>
      </trkpt>
      <trkpt lat="46.16496" lon="6.47025">
        <ele>822</ele>
        <time>2011-07-24T14:43:42Z</time>
      </trkpt>
      <trkpt lat="46.16508" lon="6.47024">
        <ele>822</ele>
        <time>2011-07-24T14:43:43Z</time>
      </trkpt>
      <trkpt lat="46.16519" lon="6.47026">
        <ele>822</ele>
        <time>2011-07-24T14:43:44Z</time>
      </trkpt>
      <trkpt lat="46.16529" lon="6.47028">
        <ele>822</ele>
        <time>2011-07-24T14:43:45Z</time>
      </trkpt>
      <trkpt lat="46.16539" lon="6.47029">
        <ele>822</ele>
        <time>2011-07-24T14:43:46Z</time>
      </trkpt>
      <trkpt lat="46.16549" lon="6.47029">
        <ele>822</ele>
        <time>2011-07-24T14:43:47Z</time>
      </trkpt>
      <trkpt lat="46.16558" lon="6.47027">
        <ele>822</ele>
        <time>2011-07-24T14:43:48Z</time>
      </trkpt>
      <trkpt lat="46.16571" lon="6.47013">
        <ele>828</ele>
        <time>2011-07-24T14:43:50Z</time>
      </trkpt>
      <trkpt lat="46.16578" lon="6.46993">
        <ele>828</ele>
        <time>2011-07-24T14:43:52Z</time>
      </trkpt>
      <trkpt lat="46.16576" lon="6.46973">
        <ele>828</ele>
        <time>2011-07-24T14:43:54Z</time>
      </trkpt>
      <trkpt lat="46.16561" lon="6.46961">
        <ele>828</ele>
        <time>2011-07-24T14:43:56Z</time>
      </trkpt>
      <trkpt lat="46.16551" lon="6.46959">
        <ele>833</ele>
        <time>2011-07-24T14:43:57Z</time>
      </trkpt>
      <trkpt lat="46.16539" lon="6.46958">
        <ele>833</ele>
        <time>2011-07-24T14:43:58Z</time>
      </trkpt>
      <trkpt lat="46.16528" lon="6.46958">
        <ele>833</ele>
        <time>2011-07-24T14:43:59Z</time>
      </trkpt>
      <trkpt lat="46.16516" lon="6.46958">
        <ele>833</ele>
        <time>2011-07-24T14:44:00Z</time>
      </trkpt>
      <trkpt lat="46.16505" lon="6.46959">
        <ele>833</ele>
        <time>2011-07-24T14:44:01Z</time>
      </trkpt>
      <trkpt lat="46.16495" lon="6.4696">
        <ele>833</ele>
        <time>2011-07-24T14:44:02Z</time>
      </trkpt>
      <trkpt lat="46.16484" lon="6.4696">
        <ele>833</ele>
        <time>2011-07-24T14:44:03Z</time>
      </trkpt>
      <trkpt lat="46.16473" lon="6.4696">
        <ele>833</ele>
        <time>2011-07-24T14:44:04Z</time>
      </trkpt>
      <trkpt lat="46.16462" lon="6.4696">
        <ele>838</ele>
        <time>2011-07-24T14:44:05Z</time>
      </trkpt>
      <trkpt lat="46.16451" lon="6.46957">
        <ele>838</ele>
        <time>2011-07-24T14:44:06Z</time>
      </trkpt>
      <trkpt lat="46.16438" lon="6.46951">
        <ele>838</ele>
        <time>2011-07-24T14:44:07Z</time>
      </trkpt>
      <trkpt lat="46.16425" lon="6.46946">
        <ele>838</ele>
        <time>2011-07-24T14:44:08Z</time>
      </trkpt>
      <trkpt lat="46.1641" lon="6.46941">
        <ele>838</ele>
        <time>2011-07-24T14:44:09Z</time>
      </trkpt>
      <trkpt lat="46.1639" lon="6.46933">
        <ele>838</ele>
        <time>2011-07-24T14:44:10Z</time>
      </trkpt>
      <trkpt lat="46.16372" lon="6.46927">
        <ele>838</ele>
        <time>2011-07-24T14:44:11Z</time>
      </trkpt>
      <trkpt lat="46.16353" lon="6.46922">
        <ele>844</ele>
        <time>2011-07-24T14:44:12Z</time>
      </trkpt>
      <trkpt lat="46.16338" lon="6.46918">
        <ele>844</ele>
        <time>2011-07-24T14:44:13Z</time>
      </trkpt>
      <trkpt lat="46.16323" lon="6.46916">
        <ele>844</ele>
        <time>2011-07-24T14:44:14Z</time>
      </trkpt>
      <trkpt lat="46.16307" lon="6.46914">
        <ele>844</ele>
        <time>2011-07-24T14:44:15Z</time>
      </trkpt>
      <trkpt lat="46.16292" lon="6.46913">
        <ele>844</ele>
        <time>2011-07-24T14:44:16Z</time>
      </trkpt>
      <trkpt lat="46.16277" lon="6.46913">
        <ele>850</ele>
        <time>2011-07-24T14:44:17Z</time>
      </trkpt>
      <trkpt lat="46.16267" lon="6.46916">
        <ele>850</ele>
        <time>2011-07-24T14:44:18Z</time>
      </trkpt>
      <trkpt lat="46.16256" lon="6.46916">
        <ele>850</ele>
        <time>2011-07-24T14:44:19Z</time>
      </trkpt>
      <trkpt lat="46.16246" lon="6.46916">
        <ele>850</ele>
        <time>2011-07-24T14:44:20Z</time>
      </trkpt>
      <trkpt lat="46.16235" lon="6.46913">
        <ele>856</ele>
        <time>2011-07-24T14:44:21Z</time>
      </trkpt>
      <trkpt lat="46.16225" lon="6.46914">
        <ele>856</ele>
        <time>2011-07-24T14:44:22Z</time>
      </trkpt>
      <trkpt lat="46.16214" lon="6.46915">
        <ele>856</ele>
        <time>2011-07-24T14:44:23Z</time>
      </trkpt>
      <trkpt lat="46.16202" lon="6.46916">
        <ele>861</ele>
        <time>2011-07-24T14:44:24Z</time>
      </trkpt>
      <trkpt lat="46.16191" lon="6.46919">
        <ele>861</ele>
        <time>2011-07-24T14:44:25Z</time>
      </trkpt>
      <trkpt lat="46.16181" lon="6.46923">
        <ele>861</ele>
        <time>2011-07-24T14:44:26Z</time>
      </trkpt>
      <trkpt lat="46.16172" lon="6.46928">
        <ele>861</ele>
        <time>2011-07-24T14:44:27Z</time>
      </trkpt>
      <trkpt lat="46.16162" lon="6.46933">
        <ele>861</ele>
        <time>2011-07-24T14:44:28Z</time>
      </trkpt>
      <trkpt lat="46.16152" lon="6.46938">
        <ele>861</ele>
        <time>2011-07-24T14:44:29Z</time>
      </trkpt>
      <trkpt lat="46.16143" lon="6.4694">
        <ele>867</ele>
        <time>2011-07-24T14:44:30Z</time>
      </trkpt>
      <trkpt lat="46.16132" lon="6.46941">
        <ele>867</ele>
        <time>2011-07-24T14:44:31Z</time>
      </trkpt>
      <trkpt lat="46.16122" lon="6.46939">
        <ele>867</ele>
        <time>2011-07-24T14:44:32Z</time>
      </trkpt>
      <trkpt lat="46.16111" lon="6.46938">
        <ele>867</ele>
        <time>2011-07-24T14:44:33Z</time>
      </trkpt>
      <trkpt lat="46.16099" lon="6.4694">
        <ele>867</ele>
        <time>2011-07-24T14:44:34Z</time>
      </trkpt>
      <trkpt lat="46.16088" lon="6.46942">
        <ele>872</ele>
        <time>2011-07-24T14:44:35Z</time>
      </trkpt>
      <trkpt lat="46.16077" lon="6.46948">
        <ele>872</ele>
        <time>2011-07-24T14:44:36Z</time>
      </trkpt>
      <trkpt lat="46.16068" lon="6.46954">
        <ele>872</ele>
        <time>2011-07-24T14:44:37Z</time>
      </trkpt>
      <trkpt lat="46.16059" lon="6.4696">
        <ele>872</ele>
        <time>2011-07-24T14:44:38Z</time>
      </trkpt>
      <trkpt lat="46.1605" lon="6.46966">
        <ele>872</ele>
        <time>2011-07-24T14:44:39Z</time>
      </trkpt>
      <trkpt lat="46.16035" lon="6.46973">
        <ele>878</ele>
        <time>2011-07-24T14:44:41Z</time>
      </trkpt>
      <trkpt lat="46.1602" lon="6.46965">
        <ele>878</ele>
        <time>2011-07-24T14:44:43Z</time>
      </trkpt>
      <trkpt lat="46.16013" lon="6.46957">
        <ele>878</ele>
        <time>2011-07-24T14:44:44Z</time>
      </trkpt>
      <trkpt lat="46.15998" lon="6.46943">
        <ele>878</ele>
        <time>2011-07-24T14:44:46Z</time>
      </trkpt>
      <trkpt lat="46.15986" lon="6.46936">
        <ele>885</ele>
        <time>2011-07-24T14:44:48Z</time>
      </trkpt>
      <trkpt lat="46.15977" lon="6.46935">
        <ele>890</ele>
        <time>2011-07-24T14:44:53Z</time>
      </trkpt>
      <trkpt lat="46.15985" lon="6.46942">
        <ele>880</ele>
        <time>2011-07-24T14:45:13Z</time>
      </trkpt>
      <trkpt lat="46.15976" lon="6.46936">
        <ele>900</ele>
        <time>2011-07-24T14:45:40Z</time>
      </trkpt>
      <trkpt lat="46.15966" lon="6.46939">
        <ele>908</ele>
        <time>2011-07-24T14:46:06Z</time>
      </trkpt>
      <trkpt lat="46.15957" lon="6.46945">
        <ele>908</ele>
        <time>2011-07-24T14:46:08Z</time>
      </trkpt>
      <trkpt lat="46.15945" lon="6.46951">
        <ele>908</ele>
        <time>2011-07-24T14:46:10Z</time>
      </trkpt>
      <trkpt lat="46.15931" lon="6.46957">
        <ele>908</ele>
        <time>2011-07-24T14:46:12Z</time>
      </trkpt>
      <trkpt lat="46.15922" lon="6.4696">
        <ele>908</ele>
        <time>2011-07-24T14:46:13Z</time>
      </trkpt>
      <trkpt lat="46.15904" lon="6.46966">
        <ele>908</ele>
        <time>2011-07-24T14:46:15Z</time>
      </trkpt>
      <trkpt lat="46.15894" lon="6.46968">
        <ele>908</ele>
        <time>2011-07-24T14:46:16Z</time>
      </trkpt>
      <trkpt lat="46.15876" lon="6.46973">
        <ele>908</ele>
        <time>2011-07-24T14:46:18Z</time>
      </trkpt>
      <trkpt lat="46.15858" lon="6.46977">
        <ele>908</ele>
        <time>2011-07-24T14:46:20Z</time>
      </trkpt>
      <trkpt lat="46.15849" lon="6.46978">
        <ele>908</ele>
        <time>2011-07-24T14:46:21Z</time>
      </trkpt>
      <trkpt lat="46.15831" lon="6.46979">
        <ele>908</ele>
        <time>2011-07-24T14:46:23Z</time>
      </trkpt>
      <trkpt lat="46.15814" lon="6.4698">
        <ele>908</ele>
        <time>2011-07-24T14:46:25Z</time>
      </trkpt>
      <trkpt lat="46.15797" lon="6.46982">
        <ele>908</ele>
        <time>2011-07-24T14:46:27Z</time>
      </trkpt>
      <trkpt lat="46.1578" lon="6.46985">
        <ele>902</ele>
        <time>2011-07-24T14:46:29Z</time>
      </trkpt>
      <trkpt lat="46.1577" lon="6.46985">
        <ele>902</ele>
        <time>2011-07-24T14:46:30Z</time>
      </trkpt>
      <trkpt lat="46.15754" lon="6.46986">
        <ele>902</ele>
        <time>2011-07-24T14:46:32Z</time>
      </trkpt>
      <trkpt lat="46.15738" lon="6.46986">
        <ele>902</ele>
        <time>2011-07-24T14:46:34Z</time>
      </trkpt>
      <trkpt lat="46.15722" lon="6.46986">
        <ele>902</ele>
        <time>2011-07-24T14:46:36Z</time>
      </trkpt>
      <trkpt lat="46.15709" lon="6.46986">
        <ele>902</ele>
        <time>2011-07-24T14:46:38Z</time>
      </trkpt>
      <trkpt lat="46.15699" lon="6.46988">
        <ele>893</ele>
        <time>2011-07-24T14:46:42Z</time>
      </trkpt>
      <trkpt lat="46.15689" lon="6.46986">
        <ele>893</ele>
        <time>2011-07-24T14:46:47Z</time>
      </trkpt>
      <trkpt lat="46.15697" lon="6.46991">
        <ele>887</ele>
        <time>2011-07-24T14:46:55Z</time>
      </trkpt>
      <trkpt lat="46.15704" lon="6.47006">
        <ele>880</ele>
        <time>2011-07-24T14:48:44Z</time>
      </trkpt>
      <trkpt lat="46.15717" lon="6.47006">
        <ele>880</ele>
        <time>2011-07-24T14:49:02Z</time>
      </trkpt>
      <trkpt lat="46.15734" lon="6.47008">
        <ele>880</ele>
        <time>2011-07-24T14:49:04Z</time>
      </trkpt>
      <trkpt lat="46.15744" lon="6.47008">
        <ele>880</ele>
        <time>2011-07-24T14:49:05Z</time>
      </trkpt>
      <trkpt lat="46.15754" lon="6.47007">
        <ele>880</ele>
        <time>2011-07-24T14:49:06Z</time>
      </trkpt>
      <trkpt lat="46.15764" lon="6.47006">
        <ele>880</ele>
        <time>2011-07-24T14:49:07Z</time>
      </trkpt>
      <trkpt lat="46.15775" lon="6.47005">
        <ele>880</ele>
        <time>2011-07-24T14:49:08Z</time>
      </trkpt>
      <trkpt lat="46.15787" lon="6.47004">
        <ele>880</ele>
        <time>2011-07-24T14:49:09Z</time>
      </trkpt>
      <trkpt lat="46.15797" lon="6.47004">
        <ele>880</ele>
        <time>2011-07-24T14:49:10Z</time>
      </trkpt>
      <trkpt lat="46.15807" lon="6.47004">
        <ele>880</ele>
        <time>2011-07-24T14:49:11Z</time>
      </trkpt>
      <trkpt lat="46.15822" lon="6.47002">
        <ele>880</ele>
        <time>2011-07-24T14:49:13Z</time>
      </trkpt>
      <trkpt lat="46.15835" lon="6.47">
        <ele>880</ele>
        <time>2011-07-24T14:49:15Z</time>
      </trkpt>
      <trkpt lat="46.15843" lon="6.46994">
        <ele>880</ele>
        <time>2011-07-24T14:49:17Z</time>
      </trkpt>
      <trkpt lat="46.15846" lon="6.46973">
        <ele>880</ele>
        <time>2011-07-24T14:49:20Z</time>
      </trkpt>
      <trkpt lat="46.15848" lon="6.46948">
        <ele>880</ele>
        <time>2011-07-24T14:49:22Z</time>
      </trkpt>
      <trkpt lat="46.15851" lon="6.46934">
        <ele>880</ele>
        <time>2011-07-24T14:49:23Z</time>
      </trkpt>
      <trkpt lat="46.15855" lon="6.46922">
        <ele>886</ele>
        <time>2011-07-24T14:49:24Z</time>
      </trkpt>
      <trkpt lat="46.15868" lon="6.46906">
        <ele>886</ele>
        <time>2011-07-24T14:49:26Z</time>
      </trkpt>
      <trkpt lat="46.15876" lon="6.46899">
        <ele>891</ele>
        <time>2011-07-24T14:49:27Z</time>
      </trkpt>
      <trkpt lat="46.1589" lon="6.46887">
        <ele>891</ele>
        <time>2011-07-24T14:49:29Z</time>
      </trkpt>
      <trkpt lat="46.15903" lon="6.46872">
        <ele>898</ele>
        <time>2011-07-24T14:49:31Z</time>
      </trkpt>
      <trkpt lat="46.15913" lon="6.4686">
        <ele>898</ele>
        <time>2011-07-24T14:49:33Z</time>
      </trkpt>
      <trkpt lat="46.15926" lon="6.46848">
        <ele>904</ele>
        <time>2011-07-24T14:49:35Z</time>
      </trkpt>
      <trkpt lat="46.15941" lon="6.46836">
        <ele>904</ele>
        <time>2011-07-24T14:49:37Z</time>
      </trkpt>
      <trkpt lat="46.15956" lon="6.46827">
        <ele>904</ele>
        <time>2011-07-24T14:49:39Z</time>
      </trkpt>
      <trkpt lat="46.1597" lon="6.46818">
        <ele>904</ele>
        <time>2011-07-24T14:49:41Z</time>
      </trkpt>
      <trkpt lat="46.15982" lon="6.46805">
        <ele>909</ele>
        <time>2011-07-24T14:49:43Z</time>
      </trkpt>
      <trkpt lat="46.15993" lon="6.46791">
        <ele>909</ele>
        <time>2011-07-24T14:49:45Z</time>
      </trkpt>
      <trkpt lat="46.16004" lon="6.46777">
        <ele>909</ele>
        <time>2011-07-24T14:49:47Z</time>
      </trkpt>
      <trkpt lat="46.16013" lon="6.46772">
        <ele>909</ele>
        <time>2011-07-24T14:49:48Z</time>
      </trkpt>
      <trkpt lat="46.16021" lon="6.46765">
        <ele>909</ele>
        <time>2011-07-24T14:49:49Z</time>
      </trkpt>
      <trkpt lat="46.16029" lon="6.46759">
        <ele>915</ele>
        <time>2011-07-24T14:49:50Z</time>
      </trkpt>
      <trkpt lat="46.16039" lon="6.4675">
        <ele>915</ele>
        <time>2011-07-24T14:49:51Z</time>
      </trkpt>
      <trkpt lat="46.16048" lon="6.46742">
        <ele>915</ele>
        <time>2011-07-24T14:49:52Z</time>
      </trkpt>
      <trkpt lat="46.16056" lon="6.46735">
        <ele>915</ele>
        <time>2011-07-24T14:49:53Z</time>
      </trkpt>
      <trkpt lat="46.16065" lon="6.4673">
        <ele>915</ele>
        <time>2011-07-24T14:49:54Z</time>
      </trkpt>
      <trkpt lat="46.16074" lon="6.46724">
        <ele>921</ele>
        <time>2011-07-24T14:49:55Z</time>
      </trkpt>
      <trkpt lat="46.16086" lon="6.46713">
        <ele>921</ele>
        <time>2011-07-24T14:49:57Z</time>
      </trkpt>
      <trkpt lat="46.16091" lon="6.46696">
        <ele>921</ele>
        <time>2011-07-24T14:49:59Z</time>
      </trkpt>
      <trkpt lat="46.16094" lon="6.46684">
        <ele>921</ele>
        <time>2011-07-24T14:50:00Z</time>
      </trkpt>
      <trkpt lat="46.16103" lon="6.46662">
        <ele>928</ele>
        <time>2011-07-24T14:50:02Z</time>
      </trkpt>
      <trkpt lat="46.1611" lon="6.46647">
        <ele>928</ele>
        <time>2011-07-24T14:50:04Z</time>
      </trkpt>
      <trkpt lat="46.1611" lon="6.46632">
        <ele>933</ele>
        <time>2011-07-24T14:50:07Z</time>
      </trkpt>
      <trkpt lat="46.16101" lon="6.46627">
        <ele>940</ele>
        <time>2011-07-24T14:50:13Z</time>
      </trkpt>
      <trkpt lat="46.16087" lon="6.46641">
        <ele>940</ele>
        <time>2011-07-24T14:50:16Z</time>
      </trkpt>
      <trkpt lat="46.16074" lon="6.46657">
        <ele>940</ele>
        <time>2011-07-24T14:50:18Z</time>
      </trkpt>
      <trkpt lat="46.16066" lon="6.46665">
        <ele>940</ele>
        <time>2011-07-24T14:50:19Z</time>
      </trkpt>
      <trkpt lat="46.16056" lon="6.4667">
        <ele>940</ele>
        <time>2011-07-24T14:50:20Z</time>
      </trkpt>
      <trkpt lat="46.16041" lon="6.46677">
        <ele>940</ele>
        <time>2011-07-24T14:50:22Z</time>
      </trkpt>
      <trkpt lat="46.16034" lon="6.4666">
        <ele>945</ele>
        <time>2011-07-24T14:50:28Z</time>
      </trkpt>
      <trkpt lat="46.16039" lon="6.46645">
        <ele>945</ele>
        <time>2011-07-24T14:50:30Z</time>
      </trkpt>
      <trkpt lat="46.16044" lon="6.46631">
        <ele>945</ele>
        <time>2011-07-24T14:50:32Z</time>
      </trkpt>
      <trkpt lat="46.1605" lon="6.46615">
        <ele>945</ele>
        <time>2011-07-24T14:50:34Z</time>
      </trkpt>
      <trkpt lat="46.16056" lon="6.46604">
        <ele>953</ele>
        <time>2011-07-24T14:50:36Z</time>
      </trkpt>
      <trkpt lat="46.1606" lon="6.4659">
        <ele>953</ele>
        <time>2011-07-24T14:50:38Z</time>
      </trkpt>
      <trkpt lat="46.16061" lon="6.46575">
        <ele>960</ele>
        <time>2011-07-24T14:50:40Z</time>
      </trkpt>
      <trkpt lat="46.16064" lon="6.46558">
        <ele>965</ele>
        <time>2011-07-24T14:50:43Z</time>
      </trkpt>
      <trkpt lat="46.16067" lon="6.46545">
        <ele>965</ele>
        <time>2011-07-24T14:50:45Z</time>
      </trkpt>
      <trkpt lat="46.16074" lon="6.46532">
        <ele>973</ele>
        <time>2011-07-24T14:50:48Z</time>
      </trkpt>
      <trkpt lat="46.16081" lon="6.46517">
        <ele>973</ele>
        <time>2011-07-24T14:50:50Z</time>
      </trkpt>
      <trkpt lat="46.16091" lon="6.46505">
        <ele>979</ele>
        <time>2011-07-24T14:50:52Z</time>
      </trkpt>
      <trkpt lat="46.16098" lon="6.46492">
        <ele>979</ele>
        <time>2011-07-24T14:50:54Z</time>
      </trkpt>
      <trkpt lat="46.16104" lon="6.46479">
        <ele>984</ele>
        <time>2011-07-24T14:50:56Z</time>
      </trkpt>
      <trkpt lat="46.16113" lon="6.46466">
        <ele>984</ele>
        <time>2011-07-24T14:50:58Z</time>
      </trkpt>
      <trkpt lat="46.16123" lon="6.4646">
        <ele>993</ele>
        <time>2011-07-24T14:51:00Z</time>
      </trkpt>
      <trkpt lat="46.16134" lon="6.46456">
        <ele>993</ele>
        <time>2011-07-24T14:51:02Z</time>
      </trkpt>
      <trkpt lat="46.16144" lon="6.46449">
        <ele>998</ele>
        <time>2011-07-24T14:51:04Z</time>
      </trkpt>
      <trkpt lat="46.16154" lon="6.46445">
        <ele>1004</ele>
        <time>2011-07-24T14:51:06Z</time>
      </trkpt>
      <trkpt lat="46.16163" lon="6.46436">
        <ele>1004</ele>
        <time>2011-07-24T14:51:08Z</time>
      </trkpt>
      <trkpt lat="46.16174" lon="6.46427">
        <ele>1004</ele>
        <time>2011-07-24T14:51:10Z</time>
      </trkpt>
      <trkpt lat="46.1618" lon="6.46415">
        <ele>1004</ele>
        <time>2011-07-24T14:51:12Z</time>
      </trkpt>
      <trkpt lat="46.16189" lon="6.46411">
        <ele>1004</ele>
        <time>2011-07-24T14:51:17Z</time>
      </trkpt>
      <trkpt lat="46.16196" lon="6.46421">
        <ele>1004</ele>
        <time>2011-07-24T14:51:20Z</time>
      </trkpt>
      <trkpt lat="46.16198" lon="6.46438">
        <ele>1010</ele>
        <time>2011-07-24T14:51:23Z</time>
      </trkpt>
      <trkpt lat="46.16199" lon="6.46455">
        <ele>1010</ele>
        <time>2011-07-24T14:51:25Z</time>
      </trkpt>
      <trkpt lat="46.16201" lon="6.4647">
        <ele>1010</ele>
        <time>2011-07-24T14:51:27Z</time>
      </trkpt>
      <trkpt lat="46.16203" lon="6.46486">
        <ele>1010</ele>
        <time>2011-07-24T14:51:29Z</time>
      </trkpt>
      <trkpt lat="46.16209" lon="6.465">
        <ele>1010</ele>
        <time>2011-07-24T14:51:31Z</time>
      </trkpt>
      <trkpt lat="46.16219" lon="6.46509">
        <ele>1010</ele>
        <time>2011-07-24T14:51:33Z</time>
      </trkpt>
      <trkpt lat="46.16227" lon="6.46516">
        <ele>1010</ele>
        <time>2011-07-24T14:51:35Z</time>
      </trkpt>
      <trkpt lat="46.16239" lon="6.46524">
        <ele>1010</ele>
        <time>2011-07-24T14:51:38Z</time>
      </trkpt>
      <trkpt lat="46.16251" lon="6.46526">
        <ele>1018</ele>
        <time>2011-07-24T14:51:41Z</time>
      </trkpt>
      <trkpt lat="46.1626" lon="6.46525">
        <ele>1018</ele>
        <time>2011-07-24T14:51:43Z</time>
      </trkpt>
      <trkpt lat="46.1627" lon="6.46523">
        <ele>1025</ele>
        <time>2011-07-24T14:51:45Z</time>
      </trkpt>
      <trkpt lat="46.16279" lon="6.46522">
        <ele>1025</ele>
        <time>2011-07-24T14:51:47Z</time>
      </trkpt>
      <trkpt lat="46.16289" lon="6.46518">
        <ele>1025</ele>
        <time>2011-07-24T14:51:49Z</time>
      </trkpt>
      <trkpt lat="46.16298" lon="6.46511">
        <ele>1033</ele>
        <time>2011-07-24T14:51:51Z</time>
      </trkpt>
      <trkpt lat="46.16309" lon="6.46506">
        <ele>1033</ele>
        <time>2011-07-24T14:51:53Z</time>
      </trkpt>
      <trkpt lat="46.16317" lon="6.465">
        <ele>1033</ele>
        <time>2011-07-24T14:51:55Z</time>
      </trkpt>
      <trkpt lat="46.16325" lon="6.46492">
        <ele>1039</ele>
        <time>2011-07-24T14:51:57Z</time>
      </trkpt>
      <trkpt lat="46.16336" lon="6.46476">
        <ele>1039</ele>
        <time>2011-07-24T14:52:00Z</time>
      </trkpt>
      <trkpt lat="46.16345" lon="6.46463">
        <ele>1039</ele>
        <time>2011-07-24T14:52:02Z</time>
      </trkpt>
      <trkpt lat="46.16351" lon="6.46451">
        <ele>1039</ele>
        <time>2011-07-24T14:52:04Z</time>
      </trkpt>
      <trkpt lat="46.16353" lon="6.46433">
        <ele>1045</ele>
        <time>2011-07-24T14:52:07Z</time>
      </trkpt>
      <trkpt lat="46.16348" lon="6.46419">
        <ele>1045</ele>
        <time>2011-07-24T14:52:10Z</time>
      </trkpt>
      <trkpt lat="46.16336" lon="6.46413">
        <ele>1045</ele>
        <time>2011-07-24T14:52:13Z</time>
      </trkpt>
      <trkpt lat="46.16324" lon="6.46407">
        <ele>1054</ele>
        <time>2011-07-24T14:52:16Z</time>
      </trkpt>
      <trkpt lat="46.16316" lon="6.46395">
        <ele>1054</ele>
        <time>2011-07-24T14:52:18Z</time>
      </trkpt>
      <trkpt lat="46.1631" lon="6.46385">
        <ele>1054</ele>
        <time>2011-07-24T14:52:20Z</time>
      </trkpt>
      <trkpt lat="46.16306" lon="6.46372">
        <ele>1060</ele>
        <time>2011-07-24T14:52:22Z</time>
      </trkpt>
      <trkpt lat="46.16305" lon="6.46359">
        <ele>1060</ele>
        <time>2011-07-24T14:52:24Z</time>
      </trkpt>
      <trkpt lat="46.16307" lon="6.46342">
        <ele>1060</ele>
        <time>2011-07-24T14:52:26Z</time>
      </trkpt>
      <trkpt lat="46.16308" lon="6.46328">
        <ele>1068</ele>
        <time>2011-07-24T14:52:28Z</time>
      </trkpt>
      <trkpt lat="46.16304" lon="6.46315">
        <ele>1075</ele>
        <time>2011-07-24T14:52:30Z</time>
      </trkpt>
      <trkpt lat="46.16305" lon="6.46297">
        <ele>1081</ele>
        <time>2011-07-24T14:52:33Z</time>
      </trkpt>
      <trkpt lat="46.16304" lon="6.46281">
        <ele>1088</ele>
        <time>2011-07-24T14:52:36Z</time>
      </trkpt>
      <trkpt lat="46.16304" lon="6.46267">
        <ele>1088</ele>
        <time>2011-07-24T14:52:38Z</time>
      </trkpt>
      <trkpt lat="46.16307" lon="6.46246">
        <ele>1093</ele>
        <time>2011-07-24T14:52:40Z</time>
      </trkpt>
      <trkpt lat="46.16309" lon="6.46231">
        <ele>1093</ele>
        <time>2011-07-24T14:52:42Z</time>
      </trkpt>
      <trkpt lat="46.1631" lon="6.46216">
        <ele>1100</ele>
        <time>2011-07-24T14:52:44Z</time>
      </trkpt>
      <trkpt lat="46.16306" lon="6.462">
        <ele>1109</ele>
        <time>2011-07-24T14:52:47Z</time>
      </trkpt>
      <trkpt lat="46.1631" lon="6.46188">
        <ele>1124</ele>
        <time>2011-07-24T14:52:55Z</time>
      </trkpt>
      <trkpt lat="46.1632" lon="6.46181">
        <ele>1129</ele>
        <time>2011-07-24T14:52:59Z</time>
      </trkpt>
      <trkpt lat="46.16325" lon="6.46168">
        <ele>1129</ele>
        <time>2011-07-24T14:53:02Z</time>
      </trkpt>
      <trkpt lat="46.16334" lon="6.46155">
        <ele>1129</ele>
        <time>2011-07-24T14:53:05Z</time>
      </trkpt>
      <trkpt lat="46.16338" lon="6.46143">
        <ele>1129</ele>
        <time>2011-07-24T14:53:08Z</time>
      </trkpt>
      <trkpt lat="46.1633" lon="6.46138">
        <ele>1119</ele>
        <time>2011-07-24T14:55:00Z</time>
      </trkpt>
      <trkpt lat="46.16338" lon="6.46143">
        <ele>1125</ele>
        <time>2011-07-24T14:57:23Z</time>
      </trkpt>
      <trkpt lat="46.16332" lon="6.46133">
        <ele>1115</ele>
        <time>2011-07-24T14:59:30Z</time>
      </trkpt>
      <trkpt lat="46.16335" lon="6.4612">
        <ele>1129</ele>
        <time>2011-07-24T15:07:23Z</time>
      </trkpt>
      <trkpt lat="46.16336" lon="6.46103">
        <ele>1129</ele>
        <time>2011-07-24T15:07:28Z</time>
      </trkpt>
      <trkpt lat="46.16335" lon="6.46089">
        <ele>1134</ele>
        <time>2011-07-24T15:07:33Z</time>
      </trkpt>
      <trkpt lat="46.16335" lon="6.46074">
        <ele>1134</ele>
        <time>2011-07-24T15:07:37Z</time>
      </trkpt>
      <trkpt lat="46.16333" lon="6.46058">
        <ele>1140</ele>
        <time>2011-07-24T15:07:41Z</time>
      </trkpt>
      <trkpt lat="46.16329" lon="6.46044">
        <ele>1140</ele>
        <time>2011-07-24T15:07:45Z</time>
      </trkpt>
      <trkpt lat="46.16335" lon="6.46034">
        <ele>1149</ele>
        <time>2011-07-24T15:08:27Z</time>
      </trkpt>
      <trkpt lat="46.16331" lon="6.46022">
        <ele>1149</ele>
        <time>2011-07-24T15:10:45Z</time>
      </trkpt>
      <trkpt lat="46.16327" lon="6.4601">
        <ele>1156</ele>
        <time>2011-07-24T15:10:54Z</time>
      </trkpt>
      <trkpt lat="46.16318" lon="6.46004">
        <ele>1138</ele>
        <time>2011-07-24T15:13:05Z</time>
      </trkpt>
      <trkpt lat="46.16327" lon="6.46007">
        <ele>1159</ele>
        <time>2011-07-24T15:14:52Z</time>
      </trkpt>
      <trkpt lat="46.16332" lon="6.46019">
        <ele>1172</ele>
        <time>2011-07-24T15:15:41Z</time>
      </trkpt>
      <trkpt lat="46.16325" lon="6.46009">
        <ele>1179</ele>
        <time>2011-07-24T15:16:59Z</time>
      </trkpt>
      <trkpt lat="46.16333" lon="6.46003">
        <ele>1149</ele>
        <time>2011-07-24T15:17:29Z</time>
      </trkpt>
      <trkpt lat="46.16335" lon="6.45989">
        <ele>1164</ele>
        <time>2011-07-24T15:17:40Z</time>
      </trkpt>
      <trkpt lat="46.1634" lon="6.45975">
        <ele>1171</ele>
        <time>2011-07-24T15:17:43Z</time>
      </trkpt>
      <trkpt lat="46.16347" lon="6.45956">
        <ele>1171</ele>
        <time>2011-07-24T15:17:46Z</time>
      </trkpt>
      <trkpt lat="46.16351" lon="6.45944">
        <ele>1181</ele>
        <time>2011-07-24T15:17:48Z</time>
      </trkpt>
      <trkpt lat="46.16354" lon="6.45926">
        <ele>1181</ele>
        <time>2011-07-24T15:17:51Z</time>
      </trkpt>
      <trkpt lat="46.16355" lon="6.4591">
        <ele>1181</ele>
        <time>2011-07-24T15:17:54Z</time>
      </trkpt>
      <trkpt lat="46.16358" lon="6.45892">
        <ele>1181</ele>
        <time>2011-07-24T15:17:58Z</time>
      </trkpt>
      <trkpt lat="46.16361" lon="6.45873">
        <ele>1181</ele>
        <time>2011-07-24T15:18:00Z</time>
      </trkpt>
      <trkpt lat="46.16367" lon="6.45857">
        <ele>1187</ele>
        <time>2011-07-24T15:18:02Z</time>
      </trkpt>
      <trkpt lat="46.16373" lon="6.4584">
        <ele>1187</ele>
        <time>2011-07-24T15:18:04Z</time>
      </trkpt>
      <trkpt lat="46.1638" lon="6.45823">
        <ele>1193</ele>
        <time>2011-07-24T15:18:06Z</time>
      </trkpt>
      <trkpt lat="46.16381" lon="6.45808">
        <ele>1193</ele>
        <time>2011-07-24T15:18:08Z</time>
      </trkpt>
      <trkpt lat="46.16383" lon="6.4579">
        <ele>1193</ele>
        <time>2011-07-24T15:18:10Z</time>
      </trkpt>
      <trkpt lat="46.16383" lon="6.45768">
        <ele>1193</ele>
        <time>2011-07-24T15:18:12Z</time>
      </trkpt>
      <trkpt lat="46.16383" lon="6.45754">
        <ele>1193</ele>
        <time>2011-07-24T15:18:14Z</time>
      </trkpt>
      <trkpt lat="46.1638" lon="6.4574">
        <ele>1202</ele>
        <time>2011-07-24T15:18:49Z</time>
      </trkpt>
      <trkpt lat="46.1638" lon="6.45725">
        <ele>1202</ele>
        <time>2011-07-24T15:18:52Z</time>
      </trkpt>
      <trkpt lat="46.16378" lon="6.45712">
        <ele>1202</ele>
        <time>2011-07-24T15:18:55Z</time>
      </trkpt>
      <trkpt lat="46.16378" lon="6.45698">
        <ele>1202</ele>
        <time>2011-07-24T15:18:59Z</time>
      </trkpt>
      <trkpt lat="46.16378" lon="6.45683">
        <ele>1202</ele>
        <time>2011-07-24T15:19:02Z</time>
      </trkpt>
      <trkpt lat="46.16377" lon="6.45666">
        <ele>1202</ele>
        <time>2011-07-24T15:19:05Z</time>
      </trkpt>
      <trkpt lat="46.16375" lon="6.45647">
        <ele>1202</ele>
        <time>2011-07-24T15:19:08Z</time>
      </trkpt>
      <trkpt lat="46.16374" lon="6.45631">
        <ele>1202</ele>
        <time>2011-07-24T15:19:10Z</time>
      </trkpt>
      <trkpt lat="46.16373" lon="6.45613">
        <ele>1202</ele>
        <time>2011-07-24T15:19:12Z</time>
      </trkpt>
      <trkpt lat="46.16372" lon="6.45598">
        <ele>1202</ele>
        <time>2011-07-24T15:19:14Z</time>
      </trkpt>
      <trkpt lat="46.16369" lon="6.45582">
        <ele>1207</ele>
        <time>2011-07-24T15:19:16Z</time>
      </trkpt>
      <trkpt lat="46.16367" lon="6.45567">
        <ele>1207</ele>
        <time>2011-07-24T15:19:18Z</time>
      </trkpt>
      <trkpt lat="46.16365" lon="6.45551">
        <ele>1207</ele>
        <time>2011-07-24T15:19:20Z</time>
      </trkpt>
      <trkpt lat="46.16357" lon="6.45535">
        <ele>1213</ele>
        <time>2011-07-24T15:19:22Z</time>
      </trkpt>
      <trkpt lat="46.16347" lon="6.4552">
        <ele>1213</ele>
        <time>2011-07-24T15:19:24Z</time>
      </trkpt>
      <trkpt lat="46.16338" lon="6.45511">
        <ele>1213</ele>
        <time>2011-07-24T15:19:26Z</time>
      </trkpt>
      <trkpt lat="46.1633" lon="6.45502">
        <ele>1213</ele>
        <time>2011-07-24T15:19:28Z</time>
      </trkpt>
      <trkpt lat="46.16323" lon="6.45492">
        <ele>1219</ele>
        <time>2011-07-24T15:19:30Z</time>
      </trkpt>
      <trkpt lat="46.16316" lon="6.45483">
        <ele>1219</ele>
        <time>2011-07-24T15:19:32Z</time>
      </trkpt>
      <trkpt lat="46.16309" lon="6.45468">
        <ele>1224</ele>
        <time>2011-07-24T15:19:35Z</time>
      </trkpt>
      <trkpt lat="46.16299" lon="6.45458">
        <ele>1224</ele>
        <time>2011-07-24T15:19:38Z</time>
      </trkpt>
      <trkpt lat="46.1629" lon="6.45446">
        <ele>1231</ele>
        <time>2011-07-24T15:19:41Z</time>
      </trkpt>
      <trkpt lat="46.16281" lon="6.45433">
        <ele>1231</ele>
        <time>2011-07-24T15:19:44Z</time>
      </trkpt>
      <trkpt lat="46.16277" lon="6.45422">
        <ele>1238</ele>
        <time>2011-07-24T15:19:46Z</time>
      </trkpt>
      <trkpt lat="46.16274" lon="6.45409">
        <ele>1238</ele>
        <time>2011-07-24T15:19:48Z</time>
      </trkpt>
      <trkpt lat="46.16277" lon="6.45395">
        <ele>1245</ele>
        <time>2011-07-24T15:19:50Z</time>
      </trkpt>
      <trkpt lat="46.1628" lon="6.45381">
        <ele>1245</ele>
        <time>2011-07-24T15:19:52Z</time>
      </trkpt>
      <trkpt lat="46.16282" lon="6.45362">
        <ele>1251</ele>
        <time>2011-07-24T15:19:55Z</time>
      </trkpt>
      <trkpt lat="46.16279" lon="6.45346">
        <ele>1251</ele>
        <time>2011-07-24T15:19:58Z</time>
      </trkpt>
      <trkpt lat="46.16268" lon="6.45341">
        <ele>1256</ele>
        <time>2011-07-24T15:20:01Z</time>
      </trkpt>
      <trkpt lat="46.16259" lon="6.4534">
        <ele>1256</ele>
        <time>2011-07-24T15:20:03Z</time>
      </trkpt>
      <trkpt lat="46.1625" lon="6.45345">
        <ele>1263</ele>
        <time>2011-07-24T15:20:05Z</time>
      </trkpt>
      <trkpt lat="46.1624" lon="6.45354">
        <ele>1263</ele>
        <time>2011-07-24T15:20:07Z</time>
      </trkpt>
      <trkpt lat="46.1623" lon="6.45368">
        <ele>1271</ele>
        <time>2011-07-24T15:20:09Z</time>
      </trkpt>
      <trkpt lat="46.16222" lon="6.4538">
        <ele>1271</ele>
        <time>2011-07-24T15:20:11Z</time>
      </trkpt>
      <trkpt lat="46.16213" lon="6.45394">
        <ele>1279</ele>
        <time>2011-07-24T15:20:13Z</time>
      </trkpt>
      <trkpt lat="46.16205" lon="6.45406">
        <ele>1279</ele>
        <time>2011-07-24T15:20:15Z</time>
      </trkpt>
      <trkpt lat="46.16196" lon="6.45418">
        <ele>1284</ele>
        <time>2011-07-24T15:20:27Z</time>
      </trkpt>
      <trkpt lat="46.16184" lon="6.45423">
        <ele>1284</ele>
        <time>2011-07-24T15:20:30Z</time>
      </trkpt>
      <trkpt lat="46.16172" lon="6.45425">
        <ele>1284</ele>
        <time>2011-07-24T15:20:32Z</time>
      </trkpt>
      <trkpt lat="46.16161" lon="6.45426">
        <ele>1284</ele>
        <time>2011-07-24T15:20:34Z</time>
      </trkpt>
      <trkpt lat="46.16149" lon="6.45426">
        <ele>1284</ele>
        <time>2011-07-24T15:20:36Z</time>
      </trkpt>
      <trkpt lat="46.16141" lon="6.45421">
        <ele>1291</ele>
        <time>2011-07-24T15:20:39Z</time>
      </trkpt>
      <trkpt lat="46.16146" lon="6.45409">
        <ele>1291</ele>
        <time>2011-07-24T15:20:43Z</time>
      </trkpt>
      <trkpt lat="46.16153" lon="6.454">
        <ele>1296</ele>
        <time>2011-07-24T15:20:55Z</time>
      </trkpt>
      <trkpt lat="46.1616" lon="6.45389">
        <ele>1296</ele>
        <time>2011-07-24T15:22:54Z</time>
      </trkpt>
      <trkpt lat="46.16163" lon="6.45377">
        <ele>1296</ele>
        <time>2011-07-24T15:22:57Z</time>
      </trkpt>
      <trkpt lat="46.16167" lon="6.45364">
        <ele>1296</ele>
        <time>2011-07-24T15:22:59Z</time>
      </trkpt>
      <trkpt lat="46.16173" lon="6.45349">
        <ele>1296</ele>
        <time>2011-07-24T15:23:01Z</time>
      </trkpt>
      <trkpt lat="46.16179" lon="6.45334">
        <ele>1296</ele>
        <time>2011-07-24T15:23:03Z</time>
      </trkpt>
      <trkpt lat="46.16185" lon="6.45317">
        <ele>1296</ele>
        <time>2011-07-24T15:23:05Z</time>
      </trkpt>
      <trkpt lat="46.16189" lon="6.45303">
        <ele>1296</ele>
        <time>2011-07-24T15:23:07Z</time>
      </trkpt>
      <trkpt lat="46.16195" lon="6.45289">
        <ele>1296</ele>
        <time>2011-07-24T15:23:09Z</time>
      </trkpt>
      <trkpt lat="46.16205" lon="6.45276">
        <ele>1296</ele>
        <time>2011-07-24T15:23:11Z</time>
      </trkpt>
      <trkpt lat="46.16214" lon="6.45264">
        <ele>1302</ele>
        <time>2011-07-24T15:23:13Z</time>
      </trkpt>
      <trkpt lat="46.16222" lon="6.45254">
        <ele>1302</ele>
        <time>2011-07-24T15:23:15Z</time>
      </trkpt>
      <trkpt lat="46.16225" lon="6.45241">
        <ele>1302</ele>
        <time>2011-07-24T15:23:17Z</time>
      </trkpt>
      <trkpt lat="46.16228" lon="6.45226">
        <ele>1302</ele>
        <time>2011-07-24T15:23:19Z</time>
      </trkpt>
      <trkpt lat="46.1623" lon="6.45208">
        <ele>1302</ele>
        <time>2011-07-24T15:23:21Z</time>
      </trkpt>
      <trkpt lat="46.16231" lon="6.4519">
        <ele>1307</ele>
        <time>2011-07-24T15:23:24Z</time>
      </trkpt>
      <trkpt lat="46.1623" lon="6.45174">
        <ele>1307</ele>
        <time>2011-07-24T15:23:27Z</time>
      </trkpt>
      <trkpt lat="46.16229" lon="6.45157">
        <ele>1307</ele>
        <time>2011-07-24T15:23:30Z</time>
      </trkpt>
      <trkpt lat="46.16227" lon="6.45141">
        <ele>1314</ele>
        <time>2011-07-24T15:23:40Z</time>
      </trkpt>
      <trkpt lat="46.16225" lon="6.45127">
        <ele>1314</ele>
        <time>2011-07-24T15:23:46Z</time>
      </trkpt>
      <trkpt lat="46.16225" lon="6.45112">
        <ele>1314</ele>
        <time>2011-07-24T15:23:50Z</time>
      </trkpt>
      <trkpt lat="46.16231" lon="6.45101">
        <ele>1314</ele>
        <time>2011-07-24T15:23:55Z</time>
      </trkpt>
      <trkpt lat="46.16239" lon="6.45093">
        <ele>1320</ele>
        <time>2011-07-24T15:24:21Z</time>
      </trkpt>
      <trkpt lat="46.16244" lon="6.45078">
        <ele>1320</ele>
        <time>2011-07-24T15:24:26Z</time>
      </trkpt>
      <trkpt lat="46.1625" lon="6.45069">
        <ele>1320</ele>
        <time>2011-07-24T15:24:42Z</time>
      </trkpt>
      <trkpt lat="46.16262" lon="6.45069">
        <ele>1320</ele>
        <time>2011-07-24T15:24:46Z</time>
      </trkpt>
      <trkpt lat="46.16274" lon="6.45067">
        <ele>1320</ele>
        <time>2011-07-24T15:24:49Z</time>
      </trkpt>
      <trkpt lat="46.16284" lon="6.45066">
        <ele>1320</ele>
        <time>2011-07-24T15:24:51Z</time>
      </trkpt>
      <trkpt lat="46.16297" lon="6.45068">
        <ele>1320</ele>
        <time>2011-07-24T15:24:54Z</time>
      </trkpt>
      <trkpt lat="46.16305" lon="6.45072">
        <ele>1320</ele>
        <time>2011-07-24T15:24:56Z</time>
      </trkpt>
      <trkpt lat="46.16314" lon="6.45076">
        <ele>1320</ele>
        <time>2011-07-24T15:24:58Z</time>
      </trkpt>
      <trkpt lat="46.16327" lon="6.45084">
        <ele>1312</ele>
        <time>2011-07-24T15:25:01Z</time>
      </trkpt>
      <trkpt lat="46.16339" lon="6.45091">
        <ele>1312</ele>
        <time>2011-07-24T15:25:04Z</time>
      </trkpt>
      <trkpt lat="46.1635" lon="6.45099">
        <ele>1306</ele>
        <time>2011-07-24T15:25:07Z</time>
      </trkpt>
      <trkpt lat="46.1636" lon="6.45109">
        <ele>1306</ele>
        <time>2011-07-24T15:25:09Z</time>
      </trkpt>
      <trkpt lat="46.16371" lon="6.45118">
        <ele>1299</ele>
        <time>2011-07-24T15:25:11Z</time>
      </trkpt>
      <trkpt lat="46.16382" lon="6.4513">
        <ele>1299</ele>
        <time>2011-07-24T15:25:13Z</time>
      </trkpt>
      <trkpt lat="46.16393" lon="6.4514">
        <ele>1299</ele>
        <time>2011-07-24T15:25:15Z</time>
      </trkpt>
      <trkpt lat="46.16405" lon="6.45145">
        <ele>1292</ele>
        <time>2011-07-24T15:25:17Z</time>
      </trkpt>
      <trkpt lat="46.16415" lon="6.45141">
        <ele>1292</ele>
        <time>2011-07-24T15:25:19Z</time>
      </trkpt>
      <trkpt lat="46.16423" lon="6.45131">
        <ele>1292</ele>
        <time>2011-07-24T15:25:21Z</time>
      </trkpt>
      <trkpt lat="46.1643" lon="6.45118">
        <ele>1292</ele>
        <time>2011-07-24T15:25:23Z</time>
      </trkpt>
      <trkpt lat="46.16439" lon="6.45108">
        <ele>1292</ele>
        <time>2011-07-24T15:25:25Z</time>
      </trkpt>
      <trkpt lat="46.16447" lon="6.45098">
        <ele>1292</ele>
        <time>2011-07-24T15:25:27Z</time>
      </trkpt>
      <trkpt lat="46.16455" lon="6.45092">
        <ele>1292</ele>
        <time>2011-07-24T15:25:29Z</time>
      </trkpt>
      <trkpt lat="46.16467" lon="6.4509">
        <ele>1287</ele>
        <time>2011-07-24T15:25:32Z</time>
      </trkpt>
      <trkpt lat="46.16476" lon="6.451">
        <ele>1287</ele>
        <time>2011-07-24T15:25:34Z</time>
      </trkpt>
      <trkpt lat="46.16484" lon="6.45115">
        <ele>1287</ele>
        <time>2011-07-24T15:25:36Z</time>
      </trkpt>
      <trkpt lat="46.16492" lon="6.45131">
        <ele>1280</ele>
        <time>2011-07-24T15:25:38Z</time>
      </trkpt>
      <trkpt lat="46.16502" lon="6.45145">
        <ele>1280</ele>
        <time>2011-07-24T15:25:40Z</time>
      </trkpt>
      <trkpt lat="46.16513" lon="6.45157">
        <ele>1280</ele>
        <time>2011-07-24T15:25:42Z</time>
      </trkpt>
      <trkpt lat="46.16523" lon="6.45168">
        <ele>1280</ele>
        <time>2011-07-24T15:25:44Z</time>
      </trkpt>
      <trkpt lat="46.1653" lon="6.45176">
        <ele>1274</ele>
        <time>2011-07-24T15:25:46Z</time>
      </trkpt>
      <trkpt lat="46.16539" lon="6.45183">
        <ele>1274</ele>
        <time>2011-07-24T15:25:49Z</time>
      </trkpt>
      <trkpt lat="46.16549" lon="6.45187">
        <ele>1268</ele>
        <time>2011-07-24T15:25:54Z</time>
      </trkpt>
      <trkpt lat="46.16557" lon="6.45193">
        <ele>1268</ele>
        <time>2011-07-24T15:26:03Z</time>
      </trkpt>
      <trkpt lat="46.16566" lon="6.45202">
        <ele>1268</ele>
        <time>2011-07-24T15:26:18Z</time>
      </trkpt>
      <trkpt lat="46.16576" lon="6.4521">
        <ele>1268</ele>
        <time>2011-07-24T15:26:21Z</time>
      </trkpt>
      <trkpt lat="46.16584" lon="6.45217">
        <ele>1268</ele>
        <time>2011-07-24T15:26:23Z</time>
      </trkpt>
      <trkpt lat="46.16596" lon="6.45228">
        <ele>1262</ele>
        <time>2011-07-24T15:26:26Z</time>
      </trkpt>
      <trkpt lat="46.16604" lon="6.45236">
        <ele>1262</ele>
        <time>2011-07-24T15:26:28Z</time>
      </trkpt>
      <trkpt lat="46.16612" lon="6.45242">
        <ele>1262</ele>
        <time>2011-07-24T15:26:30Z</time>
      </trkpt>
      <trkpt lat="46.16621" lon="6.45248">
        <ele>1262</ele>
        <time>2011-07-24T15:26:32Z</time>
      </trkpt>
      <trkpt lat="46.16629" lon="6.45254">
        <ele>1255</ele>
        <time>2011-07-24T15:26:34Z</time>
      </trkpt>
      <trkpt lat="46.16639" lon="6.45259">
        <ele>1255</ele>
        <time>2011-07-24T15:26:36Z</time>
      </trkpt>
      <trkpt lat="46.16647" lon="6.45265">
        <ele>1249</ele>
        <time>2011-07-24T15:26:38Z</time>
      </trkpt>
      <trkpt lat="46.16659" lon="6.45275">
        <ele>1249</ele>
        <time>2011-07-24T15:26:41Z</time>
      </trkpt>
      <trkpt lat="46.16667" lon="6.45282">
        <ele>1243</ele>
        <time>2011-07-24T15:26:43Z</time>
      </trkpt>
      <trkpt lat="46.16677" lon="6.4529">
        <ele>1243</ele>
        <time>2011-07-24T15:26:45Z</time>
      </trkpt>
      <trkpt lat="46.16687" lon="6.45291">
        <ele>1243</ele>
        <time>2011-07-24T15:26:47Z</time>
      </trkpt>
      <trkpt lat="46.16697" lon="6.45288">
        <ele>1238</ele>
        <time>2011-07-24T15:26:49Z</time>
      </trkpt>
      <trkpt lat="46.16704" lon="6.45278">
        <ele>1238</ele>
        <time>2011-07-24T15:26:51Z</time>
      </trkpt>
      <trkpt lat="46.16709" lon="6.45264">
        <ele>1238</ele>
        <time>2011-07-24T15:26:53Z</time>
      </trkpt>
      <trkpt lat="46.16712" lon="6.45246">
        <ele>1238</ele>
        <time>2011-07-24T15:26:55Z</time>
      </trkpt>
      <trkpt lat="46.16715" lon="6.45228">
        <ele>1238</ele>
        <time>2011-07-24T15:26:57Z</time>
      </trkpt>
      <trkpt lat="46.16727" lon="6.45219">
        <ele>1233</ele>
        <time>2011-07-24T15:26:59Z</time>
      </trkpt>
      <trkpt lat="46.16745" lon="6.45212">
        <ele>1233</ele>
        <time>2011-07-24T15:27:01Z</time>
      </trkpt>
      <trkpt lat="46.16754" lon="6.45208">
        <ele>1233</ele>
        <time>2011-07-24T15:27:02Z</time>
      </trkpt>
      <trkpt lat="46.16764" lon="6.45203">
        <ele>1233</ele>
        <time>2011-07-24T15:27:03Z</time>
      </trkpt>
      <trkpt lat="46.16775" lon="6.45198">
        <ele>1233</ele>
        <time>2011-07-24T15:27:04Z</time>
      </trkpt>
      <trkpt lat="46.16785" lon="6.45193">
        <ele>1233</ele>
        <time>2011-07-24T15:27:05Z</time>
      </trkpt>
      <trkpt lat="46.16795" lon="6.45189">
        <ele>1233</ele>
        <time>2011-07-24T15:27:06Z</time>
      </trkpt>
      <trkpt lat="46.16803" lon="6.45185">
        <ele>1233</ele>
        <time>2011-07-24T15:27:07Z</time>
      </trkpt>
      <trkpt lat="46.16818" lon="6.45178">
        <ele>1233</ele>
        <time>2011-07-24T15:27:09Z</time>
      </trkpt>
      <trkpt lat="46.16833" lon="6.45169">
        <ele>1238</ele>
        <time>2011-07-24T15:27:11Z</time>
      </trkpt>
      <trkpt lat="46.16842" lon="6.45166">
        <ele>1238</ele>
        <time>2011-07-24T15:27:12Z</time>
      </trkpt>
      <trkpt lat="46.16861" lon="6.4516">
        <ele>1238</ele>
        <time>2011-07-24T15:27:14Z</time>
      </trkpt>
      <trkpt lat="46.16878" lon="6.45153">
        <ele>1238</ele>
        <time>2011-07-24T15:27:16Z</time>
      </trkpt>
      <trkpt lat="46.16891" lon="6.45146">
        <ele>1244</ele>
        <time>2011-07-24T15:27:18Z</time>
      </trkpt>
      <trkpt lat="46.16904" lon="6.45139">
        <ele>1244</ele>
        <time>2011-07-24T15:27:20Z</time>
      </trkpt>
      <trkpt lat="46.16914" lon="6.4513">
        <ele>1244</ele>
        <time>2011-07-24T15:27:22Z</time>
      </trkpt>
      <trkpt lat="46.1692" lon="6.45118">
        <ele>1249</ele>
        <time>2011-07-24T15:27:24Z</time>
      </trkpt>
      <trkpt lat="46.16923" lon="6.45104">
        <ele>1249</ele>
        <time>2011-07-24T15:27:26Z</time>
      </trkpt>
      <trkpt lat="46.16925" lon="6.45085">
        <ele>1249</ele>
        <time>2011-07-24T15:27:28Z</time>
      </trkpt>
      <trkpt lat="46.16926" lon="6.45062">
        <ele>1249</ele>
        <time>2011-07-24T15:27:30Z</time>
      </trkpt>
      <trkpt lat="46.16925" lon="6.45049">
        <ele>1256</ele>
        <time>2011-07-24T15:27:31Z</time>
      </trkpt>
      <trkpt lat="46.16925" lon="6.45034">
        <ele>1256</ele>
        <time>2011-07-24T15:27:32Z</time>
      </trkpt>
      <trkpt lat="46.16924" lon="6.45018">
        <ele>1256</ele>
        <time>2011-07-24T15:27:33Z</time>
      </trkpt>
      <trkpt lat="46.16923" lon="6.45005">
        <ele>1256</ele>
        <time>2011-07-24T15:27:34Z</time>
      </trkpt>
      <trkpt lat="46.16926" lon="6.44984">
        <ele>1263</ele>
        <time>2011-07-24T15:27:36Z</time>
      </trkpt>
      <trkpt lat="46.16937" lon="6.44972">
        <ele>1263</ele>
        <time>2011-07-24T15:27:38Z</time>
      </trkpt>
      <trkpt lat="46.16946" lon="6.44967">
        <ele>1263</ele>
        <time>2011-07-24T15:27:39Z</time>
      </trkpt>
      <trkpt lat="46.16956" lon="6.44963">
        <ele>1268</ele>
        <time>2011-07-24T15:27:40Z</time>
      </trkpt>
      <trkpt lat="46.16966" lon="6.4496">
        <ele>1268</ele>
        <time>2011-07-24T15:27:41Z</time>
      </trkpt>
      <trkpt lat="46.16976" lon="6.44957">
        <ele>1268</ele>
        <time>2011-07-24T15:27:42Z</time>
      </trkpt>
      <trkpt lat="46.16986" lon="6.44954">
        <ele>1268</ele>
        <time>2011-07-24T15:27:43Z</time>
      </trkpt>
      <trkpt lat="46.16996" lon="6.44952">
        <ele>1268</ele>
        <time>2011-07-24T15:27:44Z</time>
      </trkpt>
      <trkpt lat="46.17013" lon="6.44949">
        <ele>1275</ele>
        <time>2011-07-24T15:27:46Z</time>
      </trkpt>
      <trkpt lat="46.17024" lon="6.44947">
        <ele>1275</ele>
        <time>2011-07-24T15:27:48Z</time>
      </trkpt>
      <trkpt lat="46.17033" lon="6.44936">
        <ele>1280</ele>
        <time>2011-07-24T15:27:52Z</time>
      </trkpt>
      <trkpt lat="46.17039" lon="6.44923">
        <ele>1280</ele>
        <time>2011-07-24T15:27:55Z</time>
      </trkpt>
      <trkpt lat="46.17047" lon="6.44912">
        <ele>1280</ele>
        <time>2011-07-24T15:27:58Z</time>
      </trkpt>
      <trkpt lat="46.17058" lon="6.44906">
        <ele>1287</ele>
        <time>2011-07-24T15:28:02Z</time>
      </trkpt>
      <trkpt lat="46.17069" lon="6.44904">
        <ele>1287</ele>
        <time>2011-07-24T15:28:05Z</time>
      </trkpt>
      <trkpt lat="46.17082" lon="6.44899">
        <ele>1287</ele>
        <time>2011-07-24T15:28:08Z</time>
      </trkpt>
      <trkpt lat="46.17091" lon="6.44893">
        <ele>1287</ele>
        <time>2011-07-24T15:28:10Z</time>
      </trkpt>
      <trkpt lat="46.17101" lon="6.44887">
        <ele>1287</ele>
        <time>2011-07-24T15:28:12Z</time>
      </trkpt>
      <trkpt lat="46.17112" lon="6.44881">
        <ele>1293</ele>
        <time>2011-07-24T15:28:15Z</time>
      </trkpt>
      <trkpt lat="46.17122" lon="6.44875">
        <ele>1293</ele>
        <time>2011-07-24T15:28:18Z</time>
      </trkpt>
      <trkpt lat="46.17137" lon="6.44873">
        <ele>1293</ele>
        <time>2011-07-24T15:28:21Z</time>
      </trkpt>
      <trkpt lat="46.1715" lon="6.4487">
        <ele>1285</ele>
        <time>2011-07-24T15:28:23Z</time>
      </trkpt>
      <trkpt lat="46.17166" lon="6.44872">
        <ele>1285</ele>
        <time>2011-07-24T15:28:25Z</time>
      </trkpt>
      <trkpt lat="46.17182" lon="6.4487">
        <ele>1278</ele>
        <time>2011-07-24T15:28:27Z</time>
      </trkpt>
      <trkpt lat="46.17199" lon="6.44861">
        <ele>1278</ele>
        <time>2011-07-24T15:28:29Z</time>
      </trkpt>
      <trkpt lat="46.17215" lon="6.44852">
        <ele>1271</ele>
        <time>2011-07-24T15:28:31Z</time>
      </trkpt>
      <trkpt lat="46.17232" lon="6.44848">
        <ele>1271</ele>
        <time>2011-07-24T15:28:33Z</time>
      </trkpt>
      <trkpt lat="46.17242" lon="6.44847">
        <ele>1265</ele>
        <time>2011-07-24T15:28:34Z</time>
      </trkpt>
      <trkpt lat="46.1726" lon="6.44846">
        <ele>1265</ele>
        <time>2011-07-24T15:28:36Z</time>
      </trkpt>
      <trkpt lat="46.17275" lon="6.44849">
        <ele>1259</ele>
        <time>2011-07-24T15:28:38Z</time>
      </trkpt>
      <trkpt lat="46.17289" lon="6.44862">
        <ele>1259</ele>
        <time>2011-07-24T15:28:40Z</time>
      </trkpt>
      <trkpt lat="46.17296" lon="6.44872">
        <ele>1259</ele>
        <time>2011-07-24T15:28:41Z</time>
      </trkpt>
      <trkpt lat="46.17303" lon="6.44882">
        <ele>1252</ele>
        <time>2011-07-24T15:28:42Z</time>
      </trkpt>
      <trkpt lat="46.1731" lon="6.44891">
        <ele>1252</ele>
        <time>2011-07-24T15:28:43Z</time>
      </trkpt>
      <trkpt lat="46.17318" lon="6.449">
        <ele>1252</ele>
        <time>2011-07-24T15:28:44Z</time>
      </trkpt>
      <trkpt lat="46.17326" lon="6.44909">
        <ele>1252</ele>
        <time>2011-07-24T15:28:45Z</time>
      </trkpt>
      <trkpt lat="46.17334" lon="6.44918">
        <ele>1247</ele>
        <time>2011-07-24T15:28:46Z</time>
      </trkpt>
      <trkpt lat="46.17341" lon="6.44927">
        <ele>1247</ele>
        <time>2011-07-24T15:28:47Z</time>
      </trkpt>
      <trkpt lat="46.17348" lon="6.44937">
        <ele>1247</ele>
        <time>2011-07-24T15:28:48Z</time>
      </trkpt>
      <trkpt lat="46.1736" lon="6.44952">
        <ele>1247</ele>
        <time>2011-07-24T15:28:50Z</time>
      </trkpt>
      <trkpt lat="46.17373" lon="6.44965">
        <ele>1247</ele>
        <time>2011-07-24T15:28:52Z</time>
      </trkpt>
      <trkpt lat="46.17388" lon="6.44972">
        <ele>1247</ele>
        <time>2011-07-24T15:28:54Z</time>
      </trkpt>
      <trkpt lat="46.17406" lon="6.44973">
        <ele>1247</ele>
        <time>2011-07-24T15:28:56Z</time>
      </trkpt>
      <trkpt lat="46.17421" lon="6.44971">
        <ele>1247</ele>
        <time>2011-07-24T15:28:58Z</time>
      </trkpt>
      <trkpt lat="46.17436" lon="6.44966">
        <ele>1247</ele>
        <time>2011-07-24T15:29:00Z</time>
      </trkpt>
      <trkpt lat="46.17452" lon="6.4496">
        <ele>1247</ele>
        <time>2011-07-24T15:29:02Z</time>
      </trkpt>
      <trkpt lat="46.17469" lon="6.44953">
        <ele>1247</ele>
        <time>2011-07-24T15:29:04Z</time>
      </trkpt>
      <trkpt lat="46.17487" lon="6.4495">
        <ele>1241</ele>
        <time>2011-07-24T15:29:06Z</time>
      </trkpt>
      <trkpt lat="46.17504" lon="6.44947">
        <ele>1241</ele>
        <time>2011-07-24T15:29:08Z</time>
      </trkpt>
      <trkpt lat="46.1752" lon="6.44941">
        <ele>1241</ele>
        <time>2011-07-24T15:29:10Z</time>
      </trkpt>
      <trkpt lat="46.17535" lon="6.44931">
        <ele>1241</ele>
        <time>2011-07-24T15:29:12Z</time>
      </trkpt>
      <trkpt lat="46.17549" lon="6.44921">
        <ele>1241</ele>
        <time>2011-07-24T15:29:14Z</time>
      </trkpt>
      <trkpt lat="46.17563" lon="6.44919">
        <ele>1241</ele>
        <time>2011-07-24T15:29:16Z</time>
      </trkpt>
      <trkpt lat="46.17578" lon="6.44921">
        <ele>1241</ele>
        <time>2011-07-24T15:29:18Z</time>
      </trkpt>
      <trkpt lat="46.17594" lon="6.44926">
        <ele>1241</ele>
        <time>2011-07-24T15:29:20Z</time>
      </trkpt>
      <trkpt lat="46.17608" lon="6.44931">
        <ele>1235</ele>
        <time>2011-07-24T15:29:22Z</time>
      </trkpt>
      <trkpt lat="46.17622" lon="6.44936">
        <ele>1235</ele>
        <time>2011-07-24T15:29:24Z</time>
      </trkpt>
      <trkpt lat="46.17634" lon="6.44942">
        <ele>1235</ele>
        <time>2011-07-24T15:29:26Z</time>
      </trkpt>
      <trkpt lat="46.17643" lon="6.44948">
        <ele>1235</ele>
        <time>2011-07-24T15:29:28Z</time>
      </trkpt>
      <trkpt lat="46.17655" lon="6.44956">
        <ele>1235</ele>
        <time>2011-07-24T15:29:30Z</time>
      </trkpt>
      <trkpt lat="46.17669" lon="6.44967">
        <ele>1228</ele>
        <time>2011-07-24T15:29:32Z</time>
      </trkpt>
      <trkpt lat="46.17684" lon="6.44975">
        <ele>1228</ele>
        <time>2011-07-24T15:29:34Z</time>
      </trkpt>
      <trkpt lat="46.17699" lon="6.44981">
        <ele>1228</ele>
        <time>2011-07-24T15:29:36Z</time>
      </trkpt>
      <trkpt lat="46.17714" lon="6.44982">
        <ele>1223</ele>
        <time>2011-07-24T15:29:38Z</time>
      </trkpt>
      <trkpt lat="46.17728" lon="6.44981">
        <ele>1223</ele>
        <time>2011-07-24T15:29:40Z</time>
      </trkpt>
      <trkpt lat="46.17743" lon="6.44976">
        <ele>1223</ele>
        <time>2011-07-24T15:29:42Z</time>
      </trkpt>
      <trkpt lat="46.1776" lon="6.44969">
        <ele>1223</ele>
        <time>2011-07-24T15:29:44Z</time>
      </trkpt>
      <trkpt lat="46.17771" lon="6.44964">
        <ele>1223</ele>
        <time>2011-07-24T15:29:45Z</time>
      </trkpt>
      <trkpt lat="46.17783" lon="6.44959">
        <ele>1217</ele>
        <time>2011-07-24T15:29:46Z</time>
      </trkpt>
      <trkpt lat="46.17796" lon="6.44954">
        <ele>1217</ele>
        <time>2011-07-24T15:29:47Z</time>
      </trkpt>
      <trkpt lat="46.1781" lon="6.44947">
        <ele>1217</ele>
        <time>2011-07-24T15:29:48Z</time>
      </trkpt>
      <trkpt lat="46.17824" lon="6.4494">
        <ele>1217</ele>
        <time>2011-07-24T15:29:49Z</time>
      </trkpt>
      <trkpt lat="46.17838" lon="6.44935">
        <ele>1217</ele>
        <time>2011-07-24T15:29:50Z</time>
      </trkpt>
      <trkpt lat="46.17852" lon="6.44928">
        <ele>1211</ele>
        <time>2011-07-24T15:29:51Z</time>
      </trkpt>
      <trkpt lat="46.17864" lon="6.44922">
        <ele>1211</ele>
        <time>2011-07-24T15:29:52Z</time>
      </trkpt>
      <trkpt lat="46.17875" lon="6.44917">
        <ele>1211</ele>
        <time>2011-07-24T15:29:53Z</time>
      </trkpt>
      <trkpt lat="46.17887" lon="6.44911">
        <ele>1211</ele>
        <time>2011-07-24T15:29:54Z</time>
      </trkpt>
      <trkpt lat="46.17898" lon="6.44907">
        <ele>1211</ele>
        <time>2011-07-24T15:29:55Z</time>
      </trkpt>
      <trkpt lat="46.1791" lon="6.44902">
        <ele>1211</ele>
        <time>2011-07-24T15:29:56Z</time>
      </trkpt>
      <trkpt lat="46.17921" lon="6.44898">
        <ele>1211</ele>
        <time>2011-07-24T15:29:57Z</time>
      </trkpt>
      <trkpt lat="46.17931" lon="6.44894">
        <ele>1211</ele>
        <time>2011-07-24T15:29:58Z</time>
      </trkpt>
      <trkpt lat="46.17941" lon="6.4489">
        <ele>1206</ele>
        <time>2011-07-24T15:29:59Z</time>
      </trkpt>
      <trkpt lat="46.1795" lon="6.44886">
        <ele>1206</ele>
        <time>2011-07-24T15:30:00Z</time>
      </trkpt>
      <trkpt lat="46.17965" lon="6.44877">
        <ele>1206</ele>
        <time>2011-07-24T15:30:02Z</time>
      </trkpt>
      <trkpt lat="46.17978" lon="6.4487">
        <ele>1206</ele>
        <time>2011-07-24T15:30:04Z</time>
      </trkpt>
      <trkpt lat="46.17988" lon="6.44863">
        <ele>1200</ele>
        <time>2011-07-24T15:30:06Z</time>
      </trkpt>
      <trkpt lat="46.17995" lon="6.44853">
        <ele>1200</ele>
        <time>2011-07-24T15:30:08Z</time>
      </trkpt>
      <trkpt lat="46.18002" lon="6.44836">
        <ele>1200</ele>
        <time>2011-07-24T15:30:11Z</time>
      </trkpt>
      <trkpt lat="46.17993" lon="6.44818">
        <ele>1200</ele>
        <time>2011-07-24T15:30:14Z</time>
      </trkpt>
      <trkpt lat="46.17978" lon="6.44807">
        <ele>1200</ele>
        <time>2011-07-24T15:30:16Z</time>
      </trkpt>
      <trkpt lat="46.17969" lon="6.44804">
        <ele>1200</ele>
        <time>2011-07-24T15:30:17Z</time>
      </trkpt>
      <trkpt lat="46.17958" lon="6.44801">
        <ele>1200</ele>
        <time>2011-07-24T15:30:18Z</time>
      </trkpt>
      <trkpt lat="46.17947" lon="6.44797">
        <ele>1200</ele>
        <time>2011-07-24T15:30:19Z</time>
      </trkpt>
      <trkpt lat="46.17936" lon="6.44795">
        <ele>1200</ele>
        <time>2011-07-24T15:30:20Z</time>
      </trkpt>
      <trkpt lat="46.17925" lon="6.44794">
        <ele>1200</ele>
        <time>2011-07-24T15:30:21Z</time>
      </trkpt>
      <trkpt lat="46.17915" lon="6.44792">
        <ele>1205</ele>
        <time>2011-07-24T15:30:22Z</time>
      </trkpt>
      <trkpt lat="46.17906" lon="6.4479">
        <ele>1205</ele>
        <time>2011-07-24T15:30:23Z</time>
      </trkpt>
      <trkpt lat="46.17896" lon="6.44787">
        <ele>1205</ele>
        <time>2011-07-24T15:30:24Z</time>
      </trkpt>
      <trkpt lat="46.17885" lon="6.44786">
        <ele>1205</ele>
        <time>2011-07-24T15:30:25Z</time>
      </trkpt>
      <trkpt lat="46.17875" lon="6.44784">
        <ele>1205</ele>
        <time>2011-07-24T15:30:26Z</time>
      </trkpt>
      <trkpt lat="46.17864" lon="6.44783">
        <ele>1205</ele>
        <time>2011-07-24T15:30:27Z</time>
      </trkpt>
      <trkpt lat="46.17854" lon="6.44782">
        <ele>1205</ele>
        <time>2011-07-24T15:30:28Z</time>
      </trkpt>
      <trkpt lat="46.17843" lon="6.4478">
        <ele>1205</ele>
        <time>2011-07-24T15:30:29Z</time>
      </trkpt>
      <trkpt lat="46.17833" lon="6.44778">
        <ele>1205</ele>
        <time>2011-07-24T15:30:30Z</time>
      </trkpt>
      <trkpt lat="46.17823" lon="6.44776">
        <ele>1205</ele>
        <time>2011-07-24T15:30:31Z</time>
      </trkpt>
      <trkpt lat="46.17813" lon="6.44774">
        <ele>1205</ele>
        <time>2011-07-24T15:30:32Z</time>
      </trkpt>
      <trkpt lat="46.17804" lon="6.44772">
        <ele>1210</ele>
        <time>2011-07-24T15:30:33Z</time>
      </trkpt>
      <trkpt lat="46.17795" lon="6.44769">
        <ele>1210</ele>
        <time>2011-07-24T15:30:34Z</time>
      </trkpt>
      <trkpt lat="46.17785" lon="6.44769">
        <ele>1210</ele>
        <time>2011-07-24T15:30:35Z</time>
      </trkpt>
      <trkpt lat="46.17769" lon="6.44766">
        <ele>1216</ele>
        <time>2011-07-24T15:30:37Z</time>
      </trkpt>
      <trkpt lat="46.17755" lon="6.44763">
        <ele>1216</ele>
        <time>2011-07-24T15:30:39Z</time>
      </trkpt>
      <trkpt lat="46.17746" lon="6.4476">
        <ele>1216</ele>
        <time>2011-07-24T15:30:41Z</time>
      </trkpt>
      <trkpt lat="46.17736" lon="6.4476">
        <ele>1216</ele>
        <time>2011-07-24T15:30:43Z</time>
      </trkpt>
      <trkpt lat="46.17722" lon="6.44763">
        <ele>1221</ele>
        <time>2011-07-24T15:30:45Z</time>
      </trkpt>
      <trkpt lat="46.17707" lon="6.44765">
        <ele>1221</ele>
        <time>2011-07-24T15:30:47Z</time>
      </trkpt>
      <trkpt lat="46.17696" lon="6.44769">
        <ele>1221</ele>
        <time>2011-07-24T15:30:49Z</time>
      </trkpt>
      <trkpt lat="46.17688" lon="6.44777">
        <ele>1226</ele>
        <time>2011-07-24T15:30:51Z</time>
      </trkpt>
      <trkpt lat="46.17683" lon="6.44788">
        <ele>1226</ele>
        <time>2011-07-24T15:30:53Z</time>
      </trkpt>
      <trkpt lat="46.1768" lon="6.44804">
        <ele>1226</ele>
        <time>2011-07-24T15:30:55Z</time>
      </trkpt>
      <trkpt lat="46.1768" lon="6.44822">
        <ele>1226</ele>
        <time>2011-07-24T15:30:57Z</time>
      </trkpt>
      <trkpt lat="46.1768" lon="6.44835">
        <ele>1226</ele>
        <time>2011-07-24T15:30:59Z</time>
      </trkpt>
      <trkpt lat="46.17679" lon="6.44853">
        <ele>1232</ele>
        <time>2011-07-24T15:31:02Z</time>
      </trkpt>
      <trkpt lat="46.17676" lon="6.44869">
        <ele>1232</ele>
        <time>2011-07-24T15:31:05Z</time>
      </trkpt>
      <trkpt lat="46.17672" lon="6.44883">
        <ele>1232</ele>
        <time>2011-07-24T15:31:08Z</time>
      </trkpt>
      <trkpt lat="46.17666" lon="6.44893">
        <ele>1232</ele>
        <time>2011-07-24T15:31:11Z</time>
      </trkpt>
      <trkpt lat="46.17657" lon="6.44904">
        <ele>1232</ele>
        <time>2011-07-24T15:31:13Z</time>
      </trkpt>
      <trkpt lat="46.1765" lon="6.44913">
        <ele>1232</ele>
        <time>2011-07-24T15:31:15Z</time>
      </trkpt>
      <trkpt lat="46.17642" lon="6.44926">
        <ele>1232</ele>
        <time>2011-07-24T15:31:18Z</time>
      </trkpt>
      <trkpt lat="46.17637" lon="6.44937">
        <ele>1232</ele>
        <time>2011-07-24T15:31:21Z</time>
      </trkpt>
      <trkpt lat="46.17645" lon="6.44928">
        <ele>1226</ele>
        <time>2011-07-24T15:32:52Z</time>
      </trkpt>
      <trkpt lat="46.17653" lon="6.4491">
        <ele>1226</ele>
        <time>2011-07-24T15:32:54Z</time>
      </trkpt>
      <trkpt lat="46.17662" lon="6.449">
        <ele>1226</ele>
        <time>2011-07-24T15:32:56Z</time>
      </trkpt>
      <trkpt lat="46.17668" lon="6.44888">
        <ele>1226</ele>
        <time>2011-07-24T15:32:59Z</time>
      </trkpt>
      <trkpt lat="46.17675" lon="6.44874">
        <ele>1226</ele>
        <time>2011-07-24T15:33:02Z</time>
      </trkpt>
      <trkpt lat="46.17677" lon="6.44859">
        <ele>1226</ele>
        <time>2011-07-24T15:33:04Z</time>
      </trkpt>
      <trkpt lat="46.17679" lon="6.44843">
        <ele>1226</ele>
        <time>2011-07-24T15:33:06Z</time>
      </trkpt>
      <trkpt lat="46.17681" lon="6.44824">
        <ele>1226</ele>
        <time>2011-07-24T15:33:08Z</time>
      </trkpt>
      <trkpt lat="46.17683" lon="6.44806">
        <ele>1226</ele>
        <time>2011-07-24T15:33:10Z</time>
      </trkpt>
      <trkpt lat="46.17686" lon="6.44789">
        <ele>1226</ele>
        <time>2011-07-24T15:33:12Z</time>
      </trkpt>
      <trkpt lat="46.17692" lon="6.44777">
        <ele>1226</ele>
        <time>2011-07-24T15:33:14Z</time>
      </trkpt>
      <trkpt lat="46.17702" lon="6.44769">
        <ele>1226</ele>
        <time>2011-07-24T15:33:16Z</time>
      </trkpt>
      <trkpt lat="46.17712" lon="6.44767">
        <ele>1226</ele>
        <time>2011-07-24T15:33:18Z</time>
      </trkpt>
      <trkpt lat="46.17722" lon="6.44766">
        <ele>1226</ele>
        <time>2011-07-24T15:33:20Z</time>
      </trkpt>
      <trkpt lat="46.17731" lon="6.4476">
        <ele>1220</ele>
        <time>2011-07-24T15:33:23Z</time>
      </trkpt>
      <trkpt lat="46.1773" lon="6.44745">
        <ele>1220</ele>
        <time>2011-07-24T15:33:26Z</time>
      </trkpt>
      <trkpt lat="46.17721" lon="6.44729">
        <ele>1220</ele>
        <time>2011-07-24T15:33:28Z</time>
      </trkpt>
      <trkpt lat="46.17712" lon="6.44707">
        <ele>1220</ele>
        <time>2011-07-24T15:33:30Z</time>
      </trkpt>
      <trkpt lat="46.17707" lon="6.44693">
        <ele>1220</ele>
        <time>2011-07-24T15:33:31Z</time>
      </trkpt>
      <trkpt lat="46.17703" lon="6.4468">
        <ele>1220</ele>
        <time>2011-07-24T15:33:32Z</time>
      </trkpt>
      <trkpt lat="46.177" lon="6.44666">
        <ele>1220</ele>
        <time>2011-07-24T15:33:33Z</time>
      </trkpt>
      <trkpt lat="46.17698" lon="6.44645">
        <ele>1220</ele>
        <time>2011-07-24T15:33:35Z</time>
      </trkpt>
      <trkpt lat="46.17694" lon="6.44626">
        <ele>1220</ele>
        <time>2011-07-24T15:33:37Z</time>
      </trkpt>
      <trkpt lat="46.17687" lon="6.44612">
        <ele>1220</ele>
        <time>2011-07-24T15:33:39Z</time>
      </trkpt>
      <trkpt lat="46.17679" lon="6.44606">
        <ele>1226</ele>
        <time>2011-07-24T15:33:47Z</time>
      </trkpt>
      <trkpt lat="46.1767" lon="6.44601">
        <ele>1226</ele>
        <time>2011-07-24T15:34:19Z</time>
      </trkpt>
      <trkpt lat="46.17652" lon="6.44588">
        <ele>1226</ele>
        <time>2011-07-24T15:34:21Z</time>
      </trkpt>
      <trkpt lat="46.17639" lon="6.44582">
        <ele>1226</ele>
        <time>2011-07-24T15:34:22Z</time>
      </trkpt>
      <trkpt lat="46.17624" lon="6.44575">
        <ele>1226</ele>
        <time>2011-07-24T15:34:23Z</time>
      </trkpt>
      <trkpt lat="46.17609" lon="6.44568">
        <ele>1232</ele>
        <time>2011-07-24T15:34:24Z</time>
      </trkpt>
      <trkpt lat="46.17594" lon="6.44563">
        <ele>1232</ele>
        <time>2011-07-24T15:34:25Z</time>
      </trkpt>
      <trkpt lat="46.1758" lon="6.44557">
        <ele>1232</ele>
        <time>2011-07-24T15:34:26Z</time>
      </trkpt>
      <trkpt lat="46.17565" lon="6.44551">
        <ele>1232</ele>
        <time>2011-07-24T15:34:27Z</time>
      </trkpt>
      <trkpt lat="46.17551" lon="6.44546">
        <ele>1232</ele>
        <time>2011-07-24T15:34:28Z</time>
      </trkpt>
      <trkpt lat="46.17537" lon="6.4454">
        <ele>1232</ele>
        <time>2011-07-24T15:34:29Z</time>
      </trkpt>
      <trkpt lat="46.17522" lon="6.44537">
        <ele>1232</ele>
        <time>2011-07-24T15:34:30Z</time>
      </trkpt>
      <trkpt lat="46.17509" lon="6.44532">
        <ele>1232</ele>
        <time>2011-07-24T15:34:31Z</time>
      </trkpt>
      <trkpt lat="46.17497" lon="6.44529">
        <ele>1232</ele>
        <time>2011-07-24T15:34:32Z</time>
      </trkpt>
      <trkpt lat="46.17487" lon="6.44526">
        <ele>1238</ele>
        <time>2011-07-24T15:34:33Z</time>
      </trkpt>
      <trkpt lat="46.17475" lon="6.44523">
        <ele>1238</ele>
        <time>2011-07-24T15:34:35Z</time>
      </trkpt>
      <trkpt lat="46.17469" lon="6.44513">
        <ele>1257</ele>
        <time>2011-07-24T15:34:46Z</time>
      </trkpt>
      <trkpt lat="46.17478" lon="6.44515">
        <ele>1264</ele>
        <time>2011-07-24T15:35:20Z</time>
      </trkpt>
      <trkpt lat="46.17487" lon="6.4452">
        <ele>1252</ele>
        <time>2011-07-24T15:35:42Z</time>
      </trkpt>
      <trkpt lat="46.17478" lon="6.44516">
        <ele>1252</ele>
        <time>2011-07-24T15:35:59Z</time>
      </trkpt>
      <trkpt lat="46.17469" lon="6.44512">
        <ele>1252</ele>
        <time>2011-07-24T15:37:10Z</time>
      </trkpt>
      <trkpt lat="46.17473" lon="6.44524">
        <ele>1252</ele>
        <time>2011-07-24T15:38:38Z</time>
      </trkpt>
      <trkpt lat="46.17482" lon="6.44518">
        <ele>1252</ele>
        <time>2011-07-24T15:39:23Z</time>
      </trkpt>
      <trkpt lat="46.17473" lon="6.44517">
        <ele>1232</ele>
        <time>2011-07-24T15:40:21Z</time>
      </trkpt>
      <trkpt lat="46.17481" lon="6.44512">
        <ele>1270</ele>
        <time>2011-07-24T15:41:16Z</time>
      </trkpt>
      <trkpt lat="46.1749" lon="6.44517">
        <ele>1252</ele>
        <time>2011-07-24T15:42:58Z</time>
      </trkpt>
      <trkpt lat="46.17481" lon="6.44513">
        <ele>1252</ele>
        <time>2011-07-24T15:44:17Z</time>
      </trkpt>
      <trkpt lat="46.17472" lon="6.44508">
        <ele>1260</ele>
        <time>2011-07-24T15:45:59Z</time>
      </trkpt>
      <trkpt lat="46.17461" lon="6.44507">
        <ele>1260</ele>
        <time>2011-07-24T15:46:03Z</time>
      </trkpt>
      <trkpt lat="46.17451" lon="6.44504">
        <ele>1260</ele>
        <time>2011-07-24T15:46:06Z</time>
      </trkpt>
      <trkpt lat="46.17438" lon="6.44507">
        <ele>1260</ele>
        <time>2011-07-24T15:46:09Z</time>
      </trkpt>
      <trkpt lat="46.17426" lon="6.44504">
        <ele>1260</ele>
        <time>2011-07-24T15:46:11Z</time>
      </trkpt>
      <trkpt lat="46.17414" lon="6.44496">
        <ele>1260</ele>
        <time>2011-07-24T15:46:13Z</time>
      </trkpt>
      <trkpt lat="46.17403" lon="6.44484">
        <ele>1255</ele>
        <time>2011-07-24T15:46:15Z</time>
      </trkpt>
      <trkpt lat="46.17395" lon="6.44466">
        <ele>1255</ele>
        <time>2011-07-24T15:46:17Z</time>
      </trkpt>
      <trkpt lat="46.17394" lon="6.4445">
        <ele>1255</ele>
        <time>2011-07-24T15:46:19Z</time>
      </trkpt>
      <trkpt lat="46.17395" lon="6.44434">
        <ele>1255</ele>
        <time>2011-07-24T15:46:21Z</time>
      </trkpt>
      <trkpt lat="46.17399" lon="6.44417">
        <ele>1248</ele>
        <time>2011-07-24T15:46:23Z</time>
      </trkpt>
      <trkpt lat="46.17404" lon="6.44398">
        <ele>1248</ele>
        <time>2011-07-24T15:46:25Z</time>
      </trkpt>
      <trkpt lat="46.17411" lon="6.44381">
        <ele>1248</ele>
        <time>2011-07-24T15:46:27Z</time>
      </trkpt>
      <trkpt lat="46.17421" lon="6.44362">
        <ele>1248</ele>
        <time>2011-07-24T15:46:29Z</time>
      </trkpt>
      <trkpt lat="46.17425" lon="6.4435">
        <ele>1248</ele>
        <time>2011-07-24T15:46:30Z</time>
      </trkpt>
      <trkpt lat="46.17433" lon="6.4433">
        <ele>1248</ele>
        <time>2011-07-24T15:46:32Z</time>
      </trkpt>
      <trkpt lat="46.17443" lon="6.44312">
        <ele>1248</ele>
        <time>2011-07-24T15:46:34Z</time>
      </trkpt>
      <trkpt lat="46.17451" lon="6.44305">
        <ele>1254</ele>
        <time>2011-07-24T15:46:35Z</time>
      </trkpt>
      <trkpt lat="46.17465" lon="6.44292">
        <ele>1254</ele>
        <time>2011-07-24T15:46:37Z</time>
      </trkpt>
      <trkpt lat="46.17477" lon="6.44278">
        <ele>1254</ele>
        <time>2011-07-24T15:46:39Z</time>
      </trkpt>
      <trkpt lat="46.17487" lon="6.44267">
        <ele>1260</ele>
        <time>2011-07-24T15:46:41Z</time>
      </trkpt>
      <trkpt lat="46.17498" lon="6.44256">
        <ele>1260</ele>
        <time>2011-07-24T15:46:43Z</time>
      </trkpt>
      <trkpt lat="46.17509" lon="6.44242">
        <ele>1260</ele>
        <time>2011-07-24T15:46:45Z</time>
      </trkpt>
      <trkpt lat="46.17517" lon="6.44229">
        <ele>1260</ele>
        <time>2011-07-24T15:46:47Z</time>
      </trkpt>
      <trkpt lat="46.17521" lon="6.44215">
        <ele>1265</ele>
        <time>2011-07-24T15:46:49Z</time>
      </trkpt>
      <trkpt lat="46.1752" lon="6.44197">
        <ele>1265</ele>
        <time>2011-07-24T15:46:52Z</time>
      </trkpt>
      <trkpt lat="46.17514" lon="6.44182">
        <ele>1265</ele>
        <time>2011-07-24T15:46:54Z</time>
      </trkpt>
      <trkpt lat="46.17502" lon="6.44171">
        <ele>1265</ele>
        <time>2011-07-24T15:46:56Z</time>
      </trkpt>
      <trkpt lat="46.17486" lon="6.44171">
        <ele>1265</ele>
        <time>2011-07-24T15:46:58Z</time>
      </trkpt>
      <trkpt lat="46.17469" lon="6.44177">
        <ele>1270</ele>
        <time>2011-07-24T15:47:00Z</time>
      </trkpt>
      <trkpt lat="46.17451" lon="6.44184">
        <ele>1270</ele>
        <time>2011-07-24T15:47:02Z</time>
      </trkpt>
      <trkpt lat="46.17434" lon="6.4419">
        <ele>1270</ele>
        <time>2011-07-24T15:47:04Z</time>
      </trkpt>
      <trkpt lat="46.17418" lon="6.44195">
        <ele>1270</ele>
        <time>2011-07-24T15:47:06Z</time>
      </trkpt>
      <trkpt lat="46.174" lon="6.442">
        <ele>1276</ele>
        <time>2011-07-24T15:47:08Z</time>
      </trkpt>
      <trkpt lat="46.17383" lon="6.44205">
        <ele>1276</ele>
        <time>2011-07-24T15:47:10Z</time>
      </trkpt>
      <trkpt lat="46.17369" lon="6.44221">
        <ele>1276</ele>
        <time>2011-07-24T15:47:12Z</time>
      </trkpt>
      <trkpt lat="46.17358" lon="6.44239">
        <ele>1281</ele>
        <time>2011-07-24T15:47:14Z</time>
      </trkpt>
      <trkpt lat="46.17346" lon="6.44257">
        <ele>1281</ele>
        <time>2011-07-24T15:47:16Z</time>
      </trkpt>
      <trkpt lat="46.17333" lon="6.4427">
        <ele>1281</ele>
        <time>2011-07-24T15:47:18Z</time>
      </trkpt>
      <trkpt lat="46.17316" lon="6.44279">
        <ele>1287</ele>
        <time>2011-07-24T15:47:20Z</time>
      </trkpt>
      <trkpt lat="46.17306" lon="6.44283">
        <ele>1287</ele>
        <time>2011-07-24T15:47:21Z</time>
      </trkpt>
      <trkpt lat="46.17295" lon="6.44288">
        <ele>1287</ele>
        <time>2011-07-24T15:47:22Z</time>
      </trkpt>
      <trkpt lat="46.17286" lon="6.44294">
        <ele>1287</ele>
        <time>2011-07-24T15:47:23Z</time>
      </trkpt>
      <trkpt lat="46.17278" lon="6.44301">
        <ele>1287</ele>
        <time>2011-07-24T15:47:24Z</time>
      </trkpt>
      <trkpt lat="46.17262" lon="6.4431">
        <ele>1287</ele>
        <time>2011-07-24T15:47:26Z</time>
      </trkpt>
      <trkpt lat="46.17253" lon="6.44315">
        <ele>1287</ele>
        <time>2011-07-24T15:47:27Z</time>
      </trkpt>
      <trkpt lat="46.17243" lon="6.44317">
        <ele>1292</ele>
        <time>2011-07-24T15:47:28Z</time>
      </trkpt>
      <trkpt lat="46.17232" lon="6.44318">
        <ele>1292</ele>
        <time>2011-07-24T15:47:29Z</time>
      </trkpt>
      <trkpt lat="46.17222" lon="6.44317">
        <ele>1292</ele>
        <time>2011-07-24T15:47:30Z</time>
      </trkpt>
      <trkpt lat="46.17207" lon="6.44316">
        <ele>1292</ele>
        <time>2011-07-24T15:47:32Z</time>
      </trkpt>
      <trkpt lat="46.17193" lon="6.44312">
        <ele>1292</ele>
        <time>2011-07-24T15:47:34Z</time>
      </trkpt>
      <trkpt lat="46.17186" lon="6.44301">
        <ele>1292</ele>
        <time>2011-07-24T15:47:36Z</time>
      </trkpt>
      <trkpt lat="46.17186" lon="6.44288">
        <ele>1300</ele>
        <time>2011-07-24T15:47:38Z</time>
      </trkpt>
      <trkpt lat="46.17199" lon="6.44274">
        <ele>1300</ele>
        <time>2011-07-24T15:47:40Z</time>
      </trkpt>
      <trkpt lat="46.17208" lon="6.44268">
        <ele>1300</ele>
        <time>2011-07-24T15:47:41Z</time>
      </trkpt>
      <trkpt lat="46.17224" lon="6.44258">
        <ele>1300</ele>
        <time>2011-07-24T15:47:43Z</time>
      </trkpt>
      <trkpt lat="46.17238" lon="6.44248">
        <ele>1306</ele>
        <time>2011-07-24T15:47:45Z</time>
      </trkpt>
      <trkpt lat="46.17247" lon="6.44239">
        <ele>1306</ele>
        <time>2011-07-24T15:47:47Z</time>
      </trkpt>
      <trkpt lat="46.17252" lon="6.44227">
        <ele>1306</ele>
        <time>2011-07-24T15:47:51Z</time>
      </trkpt>
      <trkpt lat="46.17246" lon="6.44214">
        <ele>1306</ele>
        <time>2011-07-24T15:47:58Z</time>
      </trkpt>
      <trkpt lat="46.1724" lon="6.44199">
        <ele>1312</ele>
        <time>2011-07-24T15:48:00Z</time>
      </trkpt>
      <trkpt lat="46.17236" lon="6.44187">
        <ele>1312</ele>
        <time>2011-07-24T15:48:01Z</time>
      </trkpt>
      <trkpt lat="46.17231" lon="6.44176">
        <ele>1312</ele>
        <time>2011-07-24T15:48:02Z</time>
      </trkpt>
      <trkpt lat="46.17225" lon="6.44153">
        <ele>1312</ele>
        <time>2011-07-24T15:48:04Z</time>
      </trkpt>
      <trkpt lat="46.17223" lon="6.44135">
        <ele>1312</ele>
        <time>2011-07-24T15:48:06Z</time>
      </trkpt>
      <trkpt lat="46.17212" lon="6.44133">
        <ele>1319</ele>
        <time>2011-07-24T15:48:09Z</time>
      </trkpt>
      <trkpt lat="46.17204" lon="6.4415">
        <ele>1319</ele>
        <time>2011-07-24T15:48:11Z</time>
      </trkpt>
      <trkpt lat="46.17192" lon="6.44168">
        <ele>1319</ele>
        <time>2011-07-24T15:48:13Z</time>
      </trkpt>
      <trkpt lat="46.17178" lon="6.44182">
        <ele>1325</ele>
        <time>2011-07-24T15:48:15Z</time>
      </trkpt>
      <trkpt lat="46.17164" lon="6.44192">
        <ele>1325</ele>
        <time>2011-07-24T15:48:17Z</time>
      </trkpt>
      <trkpt lat="46.17149" lon="6.442">
        <ele>1325</ele>
        <time>2011-07-24T15:48:19Z</time>
      </trkpt>
      <trkpt lat="46.17137" lon="6.44212">
        <ele>1325</ele>
        <time>2011-07-24T15:48:21Z</time>
      </trkpt>
      <trkpt lat="46.17129" lon="6.44231">
        <ele>1325</ele>
        <time>2011-07-24T15:48:23Z</time>
      </trkpt>
      <trkpt lat="46.17124" lon="6.44252">
        <ele>1331</ele>
        <time>2011-07-24T15:48:25Z</time>
      </trkpt>
      <trkpt lat="46.1712" lon="6.44272">
        <ele>1331</ele>
        <time>2011-07-24T15:48:27Z</time>
      </trkpt>
      <trkpt lat="46.17117" lon="6.4429">
        <ele>1331</ele>
        <time>2011-07-24T15:48:29Z</time>
      </trkpt>
      <trkpt lat="46.17107" lon="6.44303">
        <ele>1331</ele>
        <time>2011-07-24T15:48:31Z</time>
      </trkpt>
      <trkpt lat="46.17098" lon="6.4431">
        <ele>1331</ele>
        <time>2011-07-24T15:48:33Z</time>
      </trkpt>
      <trkpt lat="46.17086" lon="6.44315">
        <ele>1336</ele>
        <time>2011-07-24T15:48:35Z</time>
      </trkpt>
      <trkpt lat="46.17072" lon="6.44323">
        <ele>1336</ele>
        <time>2011-07-24T15:48:37Z</time>
      </trkpt>
      <trkpt lat="46.17062" lon="6.44327">
        <ele>1336</ele>
        <time>2011-07-24T15:48:39Z</time>
      </trkpt>
      <trkpt lat="46.17049" lon="6.44333">
        <ele>1343</ele>
        <time>2011-07-24T15:48:41Z</time>
      </trkpt>
      <trkpt lat="46.17034" lon="6.44338">
        <ele>1343</ele>
        <time>2011-07-24T15:48:43Z</time>
      </trkpt>
      <trkpt lat="46.17021" lon="6.44338">
        <ele>1343</ele>
        <time>2011-07-24T15:48:45Z</time>
      </trkpt>
      <trkpt lat="46.17008" lon="6.44328">
        <ele>1343</ele>
        <time>2011-07-24T15:48:47Z</time>
      </trkpt>
      <trkpt lat="46.16994" lon="6.44315">
        <ele>1351</ele>
        <time>2011-07-24T15:48:49Z</time>
      </trkpt>
      <trkpt lat="46.16979" lon="6.44312">
        <ele>1351</ele>
        <time>2011-07-24T15:48:51Z</time>
      </trkpt>
      <trkpt lat="46.16965" lon="6.44317">
        <ele>1351</ele>
        <time>2011-07-24T15:48:53Z</time>
      </trkpt>
      <trkpt lat="46.16951" lon="6.44327">
        <ele>1357</ele>
        <time>2011-07-24T15:48:55Z</time>
      </trkpt>
      <trkpt lat="46.16938" lon="6.44337">
        <ele>1357</ele>
        <time>2011-07-24T15:48:57Z</time>
      </trkpt>
      <trkpt lat="46.16926" lon="6.44345">
        <ele>1365</ele>
        <time>2011-07-24T15:48:59Z</time>
      </trkpt>
      <trkpt lat="46.16914" lon="6.44348">
        <ele>1365</ele>
        <time>2011-07-24T15:49:02Z</time>
      </trkpt>
      <trkpt lat="46.16905" lon="6.44346">
        <ele>1371</ele>
        <time>2011-07-24T15:49:15Z</time>
      </trkpt>
      <trkpt lat="46.16893" lon="6.4434">
        <ele>1371</ele>
        <time>2011-07-24T15:50:00Z</time>
      </trkpt>
      <trkpt lat="46.16883" lon="6.44336">
        <ele>1371</ele>
        <time>2011-07-24T15:50:02Z</time>
      </trkpt>
      <trkpt lat="46.1687" lon="6.4433">
        <ele>1371</ele>
        <time>2011-07-24T15:50:04Z</time>
      </trkpt>
      <trkpt lat="46.16856" lon="6.44326">
        <ele>1371</ele>
        <time>2011-07-24T15:50:06Z</time>
      </trkpt>
      <trkpt lat="46.16843" lon="6.44323">
        <ele>1371</ele>
        <time>2011-07-24T15:50:08Z</time>
      </trkpt>
      <trkpt lat="46.16832" lon="6.44321">
        <ele>1371</ele>
        <time>2011-07-24T15:50:10Z</time>
      </trkpt>
      <trkpt lat="46.16822" lon="6.4432">
        <ele>1371</ele>
        <time>2011-07-24T15:50:19Z</time>
      </trkpt>
      <trkpt lat="46.16809" lon="6.44317">
        <ele>1377</ele>
        <time>2011-07-24T15:50:36Z</time>
      </trkpt>
      <trkpt lat="46.16793" lon="6.44314">
        <ele>1377</ele>
        <time>2011-07-24T15:50:38Z</time>
      </trkpt>
      <trkpt lat="46.16777" lon="6.4431">
        <ele>1377</ele>
        <time>2011-07-24T15:50:40Z</time>
      </trkpt>
      <trkpt lat="46.16764" lon="6.44304">
        <ele>1377</ele>
        <time>2011-07-24T15:50:42Z</time>
      </trkpt>
      <trkpt lat="46.16753" lon="6.44294">
        <ele>1377</ele>
        <time>2011-07-24T15:50:44Z</time>
      </trkpt>
      <trkpt lat="46.16744" lon="6.44287">
        <ele>1372</ele>
        <time>2011-07-24T15:50:46Z</time>
      </trkpt>
      <trkpt lat="46.16735" lon="6.44283">
        <ele>1372</ele>
        <time>2011-07-24T15:50:48Z</time>
      </trkpt>
      <trkpt lat="46.16726" lon="6.44277">
        <ele>1372</ele>
        <time>2011-07-24T15:50:50Z</time>
      </trkpt>
      <trkpt lat="46.16716" lon="6.44266">
        <ele>1372</ele>
        <time>2011-07-24T15:50:52Z</time>
      </trkpt>
      <trkpt lat="46.16707" lon="6.4425">
        <ele>1365</ele>
        <time>2011-07-24T15:50:54Z</time>
      </trkpt>
      <trkpt lat="46.16697" lon="6.44233">
        <ele>1365</ele>
        <time>2011-07-24T15:50:56Z</time>
      </trkpt>
      <trkpt lat="46.16686" lon="6.44218">
        <ele>1365</ele>
        <time>2011-07-24T15:50:58Z</time>
      </trkpt>
      <trkpt lat="46.16676" lon="6.44206">
        <ele>1365</ele>
        <time>2011-07-24T15:51:00Z</time>
      </trkpt>
      <trkpt lat="46.16666" lon="6.44199">
        <ele>1365</ele>
        <time>2011-07-24T15:51:02Z</time>
      </trkpt>
      <trkpt lat="46.16652" lon="6.44194">
        <ele>1365</ele>
        <time>2011-07-24T15:51:04Z</time>
      </trkpt>
      <trkpt lat="46.16636" lon="6.44189">
        <ele>1365</ele>
        <time>2011-07-24T15:51:06Z</time>
      </trkpt>
      <trkpt lat="46.16623" lon="6.44183">
        <ele>1365</ele>
        <time>2011-07-24T15:51:08Z</time>
      </trkpt>
      <trkpt lat="46.16612" lon="6.44177">
        <ele>1365</ele>
        <time>2011-07-24T15:51:10Z</time>
      </trkpt>
      <trkpt lat="46.166" lon="6.44171">
        <ele>1365</ele>
        <time>2011-07-24T15:51:12Z</time>
      </trkpt>
      <trkpt lat="46.16588" lon="6.44164">
        <ele>1365</ele>
        <time>2011-07-24T15:51:14Z</time>
      </trkpt>
      <trkpt lat="46.16576" lon="6.44157">
        <ele>1365</ele>
        <time>2011-07-24T15:51:16Z</time>
      </trkpt>
      <trkpt lat="46.16566" lon="6.44151">
        <ele>1365</ele>
        <time>2011-07-24T15:51:18Z</time>
      </trkpt>
      <trkpt lat="46.16558" lon="6.44145">
        <ele>1365</ele>
        <time>2011-07-24T15:51:20Z</time>
      </trkpt>
      <trkpt lat="46.16549" lon="6.44137">
        <ele>1365</ele>
        <time>2011-07-24T15:51:24Z</time>
      </trkpt>
      <trkpt lat="46.16543" lon="6.44122">
        <ele>1358</ele>
        <time>2011-07-24T15:51:28Z</time>
      </trkpt>
      <trkpt lat="46.16536" lon="6.4411">
        <ele>1358</ele>
        <time>2011-07-24T15:51:31Z</time>
      </trkpt>
      <trkpt lat="46.16526" lon="6.44097">
        <ele>1352</ele>
        <time>2011-07-24T15:51:34Z</time>
      </trkpt>
      <trkpt lat="46.16518" lon="6.44084">
        <ele>1352</ele>
        <time>2011-07-24T15:51:37Z</time>
      </trkpt>
      <trkpt lat="46.16508" lon="6.44074">
        <ele>1343</ele>
        <time>2011-07-24T15:51:40Z</time>
      </trkpt>
      <trkpt lat="46.165" lon="6.44062">
        <ele>1343</ele>
        <time>2011-07-24T15:51:43Z</time>
      </trkpt>
      <trkpt lat="46.16491" lon="6.44053">
        <ele>1335</ele>
        <time>2011-07-24T15:51:46Z</time>
      </trkpt>
      <trkpt lat="46.16482" lon="6.44044">
        <ele>1329</ele>
        <time>2011-07-24T15:51:49Z</time>
      </trkpt>
      <trkpt lat="46.16475" lon="6.44035">
        <ele>1329</ele>
        <time>2011-07-24T15:51:52Z</time>
      </trkpt>
      <trkpt lat="46.16465" lon="6.44025">
        <ele>1320</ele>
        <time>2011-07-24T15:51:57Z</time>
      </trkpt>
      <trkpt lat="46.16458" lon="6.44016">
        <ele>1320</ele>
        <time>2011-07-24T15:52:02Z</time>
      </trkpt>
      <trkpt lat="46.1645" lon="6.44004">
        <ele>1320</ele>
        <time>2011-07-24T15:52:05Z</time>
      </trkpt>
      <trkpt lat="46.16445" lon="6.43993">
        <ele>1320</ele>
        <time>2011-07-24T15:52:08Z</time>
      </trkpt>
      <trkpt lat="46.16435" lon="6.43983">
        <ele>1314</ele>
        <time>2011-07-24T15:52:12Z</time>
      </trkpt>
      <trkpt lat="46.16427" lon="6.43975">
        <ele>1314</ele>
        <time>2011-07-24T15:52:15Z</time>
      </trkpt>
      <trkpt lat="46.16418" lon="6.43967">
        <ele>1308</ele>
        <time>2011-07-24T15:52:18Z</time>
      </trkpt>
      <trkpt lat="46.16412" lon="6.43955">
        <ele>1308</ele>
        <time>2011-07-24T15:52:22Z</time>
      </trkpt>
      <trkpt lat="46.16406" lon="6.43942">
        <ele>1308</ele>
        <time>2011-07-24T15:52:26Z</time>
      </trkpt>
      <trkpt lat="46.16399" lon="6.43932">
        <ele>1308</ele>
        <time>2011-07-24T15:52:30Z</time>
      </trkpt>
      <trkpt lat="46.16392" lon="6.43921">
        <ele>1301</ele>
        <time>2011-07-24T15:52:33Z</time>
      </trkpt>
      <trkpt lat="46.16383" lon="6.43914">
        <ele>1301</ele>
        <time>2011-07-24T15:52:36Z</time>
      </trkpt>
      <trkpt lat="46.16375" lon="6.43905">
        <ele>1295</ele>
        <time>2011-07-24T15:52:38Z</time>
      </trkpt>
      <trkpt lat="46.16367" lon="6.43895">
        <ele>1295</ele>
        <time>2011-07-24T15:52:40Z</time>
      </trkpt>
      <trkpt lat="46.1636" lon="6.43885">
        <ele>1295</ele>
        <time>2011-07-24T15:52:42Z</time>
      </trkpt>
      <trkpt lat="46.16357" lon="6.43872">
        <ele>1288</ele>
        <time>2011-07-24T15:52:44Z</time>
      </trkpt>
      <trkpt lat="46.16353" lon="6.43856">
        <ele>1288</ele>
        <time>2011-07-24T15:52:47Z</time>
      </trkpt>
      <trkpt lat="46.16345" lon="6.43846">
        <ele>1288</ele>
        <time>2011-07-24T15:52:50Z</time>
      </trkpt>
      <trkpt lat="46.16335" lon="6.43835">
        <ele>1277</ele>
        <time>2011-07-24T15:52:53Z</time>
      </trkpt>
      <trkpt lat="46.16327" lon="6.43823">
        <ele>1272</ele>
        <time>2011-07-24T15:52:56Z</time>
      </trkpt>
      <trkpt lat="46.16321" lon="6.4381">
        <ele>1272</ele>
        <time>2011-07-24T15:52:59Z</time>
      </trkpt>
      <trkpt lat="46.16318" lon="6.43795">
        <ele>1265</ele>
        <time>2011-07-24T15:53:02Z</time>
      </trkpt>
      <trkpt lat="46.16312" lon="6.4378">
        <ele>1259</ele>
        <time>2011-07-24T15:53:05Z</time>
      </trkpt>
      <trkpt lat="46.16306" lon="6.43769">
        <ele>1259</ele>
        <time>2011-07-24T15:53:07Z</time>
      </trkpt>
      <trkpt lat="46.16297" lon="6.43755">
        <ele>1259</ele>
        <time>2011-07-24T15:53:09Z</time>
      </trkpt>
      <trkpt lat="46.16289" lon="6.43736">
        <ele>1259</ele>
        <time>2011-07-24T15:53:11Z</time>
      </trkpt>
      <trkpt lat="46.16282" lon="6.43721">
        <ele>1259</ele>
        <time>2011-07-24T15:53:13Z</time>
      </trkpt>
      <trkpt lat="46.16276" lon="6.43704">
        <ele>1259</ele>
        <time>2011-07-24T15:53:15Z</time>
      </trkpt>
      <trkpt lat="46.16269" lon="6.43688">
        <ele>1259</ele>
        <time>2011-07-24T15:53:17Z</time>
      </trkpt>
      <trkpt lat="46.1626" lon="6.43673">
        <ele>1259</ele>
        <time>2011-07-24T15:53:19Z</time>
      </trkpt>
      <trkpt lat="46.16254" lon="6.4366">
        <ele>1259</ele>
        <time>2011-07-24T15:53:21Z</time>
      </trkpt>
      <trkpt lat="46.16247" lon="6.43647">
        <ele>1259</ele>
        <time>2011-07-24T15:53:23Z</time>
      </trkpt>
      <trkpt lat="46.1624" lon="6.43633">
        <ele>1254</ele>
        <time>2011-07-24T15:53:26Z</time>
      </trkpt>
      <trkpt lat="46.16236" lon="6.4362">
        <ele>1254</ele>
        <time>2011-07-24T15:53:34Z</time>
      </trkpt>
      <trkpt lat="46.16237" lon="6.43605">
        <ele>1254</ele>
        <time>2011-07-24T15:53:45Z</time>
      </trkpt>
      <trkpt lat="46.16233" lon="6.4359">
        <ele>1254</ele>
        <time>2011-07-24T15:53:48Z</time>
      </trkpt>
      <trkpt lat="46.16228" lon="6.43574">
        <ele>1254</ele>
        <time>2011-07-24T15:53:51Z</time>
      </trkpt>
      <trkpt lat="46.1622" lon="6.43558">
        <ele>1254</ele>
        <time>2011-07-24T15:53:54Z</time>
      </trkpt>
      <trkpt lat="46.16213" lon="6.43544">
        <ele>1254</ele>
        <time>2011-07-24T15:53:56Z</time>
      </trkpt>
      <trkpt lat="46.16209" lon="6.43532">
        <ele>1248</ele>
        <time>2011-07-24T15:53:58Z</time>
      </trkpt>
      <trkpt lat="46.16209" lon="6.43515">
        <ele>1248</ele>
        <time>2011-07-24T15:54:00Z</time>
      </trkpt>
      <trkpt lat="46.16211" lon="6.43497">
        <ele>1248</ele>
        <time>2011-07-24T15:54:02Z</time>
      </trkpt>
      <trkpt lat="46.16212" lon="6.43479">
        <ele>1248</ele>
        <time>2011-07-24T15:54:04Z</time>
      </trkpt>
      <trkpt lat="46.16213" lon="6.43461">
        <ele>1240</ele>
        <time>2011-07-24T15:54:06Z</time>
      </trkpt>
      <trkpt lat="46.16214" lon="6.43444">
        <ele>1240</ele>
        <time>2011-07-24T15:54:08Z</time>
      </trkpt>
      <trkpt lat="46.16216" lon="6.43427">
        <ele>1240</ele>
        <time>2011-07-24T15:54:10Z</time>
      </trkpt>
      <trkpt lat="46.16217" lon="6.43411">
        <ele>1232</ele>
        <time>2011-07-24T15:54:12Z</time>
      </trkpt>
      <trkpt lat="46.16219" lon="6.43394">
        <ele>1232</ele>
        <time>2011-07-24T15:54:15Z</time>
      </trkpt>
      <trkpt lat="46.16222" lon="6.43376">
        <ele>1224</ele>
        <time>2011-07-24T15:54:18Z</time>
      </trkpt>
      <trkpt lat="46.16227" lon="6.43358">
        <ele>1224</ele>
        <time>2011-07-24T15:54:21Z</time>
      </trkpt>
      <trkpt lat="46.16232" lon="6.43345">
        <ele>1217</ele>
        <time>2011-07-24T15:54:24Z</time>
      </trkpt>
      <trkpt lat="46.16233" lon="6.43331">
        <ele>1217</ele>
        <time>2011-07-24T15:54:44Z</time>
      </trkpt>
      <trkpt lat="46.1623" lon="6.43316">
        <ele>1217</ele>
        <time>2011-07-24T15:54:52Z</time>
      </trkpt>
      <trkpt lat="46.16235" lon="6.43302">
        <ele>1206</ele>
        <time>2011-07-24T15:54:57Z</time>
      </trkpt>
      <trkpt lat="46.16237" lon="6.4329">
        <ele>1200</ele>
        <time>2011-07-24T15:55:01Z</time>
      </trkpt>
      <trkpt lat="46.16238" lon="6.43275">
        <ele>1200</ele>
        <time>2011-07-24T15:55:06Z</time>
      </trkpt>
      <trkpt lat="46.16237" lon="6.43261">
        <ele>1191</ele>
        <time>2011-07-24T15:55:11Z</time>
      </trkpt>
      <trkpt lat="46.16239" lon="6.43246">
        <ele>1184</ele>
        <time>2011-07-24T15:55:15Z</time>
      </trkpt>
      <trkpt lat="46.16243" lon="6.43232">
        <ele>1179</ele>
        <time>2011-07-24T15:55:20Z</time>
      </trkpt>
      <trkpt lat="46.16244" lon="6.43218">
        <ele>1179</ele>
        <time>2011-07-24T15:55:25Z</time>
      </trkpt>
      <trkpt lat="46.16238" lon="6.43207">
        <ele>1174</ele>
        <time>2011-07-24T15:55:30Z</time>
      </trkpt>
      <trkpt lat="46.1624" lon="6.43193">
        <ele>1163</ele>
        <time>2011-07-24T15:55:37Z</time>
      </trkpt>
      <trkpt lat="46.16242" lon="6.43178">
        <ele>1163</ele>
        <time>2011-07-24T15:55:42Z</time>
      </trkpt>
      <trkpt lat="46.1624" lon="6.43161">
        <ele>1163</ele>
        <time>2011-07-24T15:55:47Z</time>
      </trkpt>
      <trkpt lat="46.16244" lon="6.43148">
        <ele>1157</ele>
        <time>2011-07-24T15:55:51Z</time>
      </trkpt>
      <trkpt lat="46.16246" lon="6.43135">
        <ele>1157</ele>
        <time>2011-07-24T15:55:54Z</time>
      </trkpt>
      <trkpt lat="46.16244" lon="6.43118">
        <ele>1151</ele>
        <time>2011-07-24T15:55:58Z</time>
      </trkpt>
      <trkpt lat="46.16246" lon="6.43104">
        <ele>1151</ele>
        <time>2011-07-24T15:56:02Z</time>
      </trkpt>
      <trkpt lat="46.16249" lon="6.43088">
        <ele>1143</ele>
        <time>2011-07-24T15:56:06Z</time>
      </trkpt>
      <trkpt lat="46.16252" lon="6.43073">
        <ele>1143</ele>
        <time>2011-07-24T15:56:09Z</time>
      </trkpt>
      <trkpt lat="46.16251" lon="6.4306">
        <ele>1143</ele>
        <time>2011-07-24T15:56:11Z</time>
      </trkpt>
      <trkpt lat="46.16253" lon="6.43043">
        <ele>1143</ele>
        <time>2011-07-24T15:56:14Z</time>
      </trkpt>
      <trkpt lat="46.16252" lon="6.43029">
        <ele>1143</ele>
        <time>2011-07-24T15:56:16Z</time>
      </trkpt>
      <trkpt lat="46.16249" lon="6.43013">
        <ele>1137</ele>
        <time>2011-07-24T15:56:18Z</time>
      </trkpt>
      <trkpt lat="46.16246" lon="6.42998">
        <ele>1137</ele>
        <time>2011-07-24T15:56:20Z</time>
      </trkpt>
      <trkpt lat="46.16241" lon="6.42983">
        <ele>1126</ele>
        <time>2011-07-24T15:56:23Z</time>
      </trkpt>
      <trkpt lat="46.16234" lon="6.42968">
        <ele>1126</ele>
        <time>2011-07-24T15:56:26Z</time>
      </trkpt>
      <trkpt lat="46.1623" lon="6.42952">
        <ele>1119</ele>
        <time>2011-07-24T15:56:29Z</time>
      </trkpt>
      <trkpt lat="46.16226" lon="6.42936">
        <ele>1119</ele>
        <time>2011-07-24T15:56:32Z</time>
      </trkpt>
      <trkpt lat="46.16223" lon="6.42922">
        <ele>1119</ele>
        <time>2011-07-24T15:56:35Z</time>
      </trkpt>
      <trkpt lat="46.16221" lon="6.42908">
        <ele>1113</ele>
        <time>2011-07-24T15:56:38Z</time>
      </trkpt>
      <trkpt lat="46.16215" lon="6.42893">
        <ele>1113</ele>
        <time>2011-07-24T15:56:41Z</time>
      </trkpt>
      <trkpt lat="46.1621" lon="6.4288">
        <ele>1106</ele>
        <time>2011-07-24T15:56:45Z</time>
      </trkpt>
      <trkpt lat="46.16201" lon="6.42881">
        <ele>1106</ele>
        <time>2011-07-24T15:56:50Z</time>
      </trkpt>
      <trkpt lat="46.16192" lon="6.42887">
        <ele>1099</ele>
        <time>2011-07-24T15:57:18Z</time>
      </trkpt>
      <trkpt lat="46.16185" lon="6.42896">
        <ele>1099</ele>
        <time>2011-07-24T15:57:43Z</time>
      </trkpt>
      <trkpt lat="46.16176" lon="6.42904">
        <ele>1099</ele>
        <time>2011-07-24T15:57:46Z</time>
      </trkpt>
      <trkpt lat="46.16168" lon="6.42912">
        <ele>1099</ele>
        <time>2011-07-24T15:57:48Z</time>
      </trkpt>
      <trkpt lat="46.16158" lon="6.42919">
        <ele>1099</ele>
        <time>2011-07-24T15:57:50Z</time>
      </trkpt>
      <trkpt lat="46.16147" lon="6.42926">
        <ele>1099</ele>
        <time>2011-07-24T15:57:52Z</time>
      </trkpt>
      <trkpt lat="46.16137" lon="6.42928">
        <ele>1099</ele>
        <time>2011-07-24T15:57:54Z</time>
      </trkpt>
      <trkpt lat="46.16124" lon="6.42928">
        <ele>1099</ele>
        <time>2011-07-24T15:57:57Z</time>
      </trkpt>
      <trkpt lat="46.16116" lon="6.42931">
        <ele>1099</ele>
        <time>2011-07-24T15:57:59Z</time>
      </trkpt>
      <trkpt lat="46.16103" lon="6.42935">
        <ele>1099</ele>
        <time>2011-07-24T15:58:02Z</time>
      </trkpt>
      <trkpt lat="46.16093" lon="6.4294">
        <ele>1099</ele>
        <time>2011-07-24T15:58:04Z</time>
      </trkpt>
      <trkpt lat="46.16081" lon="6.42945">
        <ele>1108</ele>
        <time>2011-07-24T15:58:07Z</time>
      </trkpt>
      <trkpt lat="46.16071" lon="6.42949">
        <ele>1108</ele>
        <time>2011-07-24T15:58:09Z</time>
      </trkpt>
      <trkpt lat="46.16059" lon="6.42951">
        <ele>1108</ele>
        <time>2011-07-24T15:58:11Z</time>
      </trkpt>
      <trkpt lat="46.16046" lon="6.42955">
        <ele>1108</ele>
        <time>2011-07-24T15:58:13Z</time>
      </trkpt>
      <trkpt lat="46.16031" lon="6.42958">
        <ele>1108</ele>
        <time>2011-07-24T15:58:15Z</time>
      </trkpt>
      <trkpt lat="46.16021" lon="6.42956">
        <ele>1108</ele>
        <time>2011-07-24T15:58:18Z</time>
      </trkpt>
      <trkpt lat="46.16016" lon="6.42944">
        <ele>1099</ele>
        <time>2011-07-24T15:58:34Z</time>
      </trkpt>
      <trkpt lat="46.16015" lon="6.42928">
        <ele>1099</ele>
        <time>2011-07-24T15:58:37Z</time>
      </trkpt>
      <trkpt lat="46.16011" lon="6.42909">
        <ele>1093</ele>
        <time>2011-07-24T15:58:40Z</time>
      </trkpt>
      <trkpt lat="46.16008" lon="6.42891">
        <ele>1093</ele>
        <time>2011-07-24T15:58:43Z</time>
      </trkpt>
      <trkpt lat="46.16006" lon="6.42877">
        <ele>1086</ele>
        <time>2011-07-24T15:58:45Z</time>
      </trkpt>
      <trkpt lat="46.16007" lon="6.4286">
        <ele>1080</ele>
        <time>2011-07-24T15:58:48Z</time>
      </trkpt>
      <trkpt lat="46.16016" lon="6.42855">
        <ele>1073</ele>
        <time>2011-07-24T15:58:51Z</time>
      </trkpt>
      <trkpt lat="46.16025" lon="6.42852">
        <ele>1073</ele>
        <time>2011-07-24T15:58:53Z</time>
      </trkpt>
      <trkpt lat="46.16036" lon="6.4284">
        <ele>1068</ele>
        <time>2011-07-24T15:58:56Z</time>
      </trkpt>
      <trkpt lat="46.16042" lon="6.42829">
        <ele>1068</ele>
        <time>2011-07-24T15:58:58Z</time>
      </trkpt>
      <trkpt lat="46.16048" lon="6.42817">
        <ele>1068</ele>
        <time>2011-07-24T15:59:00Z</time>
      </trkpt>
      <trkpt lat="46.16052" lon="6.42805">
        <ele>1061</ele>
        <time>2011-07-24T15:59:02Z</time>
      </trkpt>
      <trkpt lat="46.16055" lon="6.42792">
        <ele>1061</ele>
        <time>2011-07-24T15:59:04Z</time>
      </trkpt>
      <trkpt lat="46.16064" lon="6.4278">
        <ele>1053</ele>
        <time>2011-07-24T15:59:07Z</time>
      </trkpt>
      <trkpt lat="46.16076" lon="6.42773">
        <ele>1053</ele>
        <time>2011-07-24T15:59:10Z</time>
      </trkpt>
      <trkpt lat="46.16086" lon="6.42771">
        <ele>1053</ele>
        <time>2011-07-24T15:59:12Z</time>
      </trkpt>
      <trkpt lat="46.16095" lon="6.42764">
        <ele>1044</ele>
        <time>2011-07-24T15:59:14Z</time>
      </trkpt>
      <trkpt lat="46.16104" lon="6.42747">
        <ele>1044</ele>
        <time>2011-07-24T15:59:17Z</time>
      </trkpt>
      <trkpt lat="46.16111" lon="6.42737">
        <ele>1044</ele>
        <time>2011-07-24T15:59:19Z</time>
      </trkpt>
      <trkpt lat="46.16116" lon="6.42722">
        <ele>1044</ele>
        <time>2011-07-24T15:59:21Z</time>
      </trkpt>
      <trkpt lat="46.16122" lon="6.42708">
        <ele>1039</ele>
        <time>2011-07-24T15:59:23Z</time>
      </trkpt>
      <trkpt lat="46.16126" lon="6.42696">
        <ele>1039</ele>
        <time>2011-07-24T15:59:25Z</time>
      </trkpt>
      <trkpt lat="46.16128" lon="6.42679">
        <ele>1039</ele>
        <time>2011-07-24T15:59:27Z</time>
      </trkpt>
      <trkpt lat="46.16132" lon="6.42661">
        <ele>1039</ele>
        <time>2011-07-24T15:59:29Z</time>
      </trkpt>
      <trkpt lat="46.16134" lon="6.42642">
        <ele>1032</ele>
        <time>2011-07-24T15:59:31Z</time>
      </trkpt>
      <trkpt lat="46.16139" lon="6.42626">
        <ele>1032</ele>
        <time>2011-07-24T15:59:33Z</time>
      </trkpt>
      <trkpt lat="46.1614" lon="6.42611">
        <ele>1025</ele>
        <time>2011-07-24T15:59:35Z</time>
      </trkpt>
      <trkpt lat="46.16143" lon="6.42593">
        <ele>1025</ele>
        <time>2011-07-24T15:59:38Z</time>
      </trkpt>
      <trkpt lat="46.16147" lon="6.42575">
        <ele>1015</ele>
        <time>2011-07-24T15:59:41Z</time>
      </trkpt>
      <trkpt lat="46.16151" lon="6.42558">
        <ele>1007</ele>
        <time>2011-07-24T15:59:44Z</time>
      </trkpt>
      <trkpt lat="46.1615" lon="6.42544">
        <ele>1000</ele>
        <time>2011-07-24T15:59:48Z</time>
      </trkpt>
      <trkpt lat="46.16142" lon="6.4253">
        <ele>994</ele>
        <time>2011-07-24T15:59:52Z</time>
      </trkpt>
      <trkpt lat="46.16137" lon="6.42512">
        <ele>988</ele>
        <time>2011-07-24T15:59:55Z</time>
      </trkpt>
      <trkpt lat="46.16137" lon="6.42493">
        <ele>988</ele>
        <time>2011-07-24T15:59:58Z</time>
      </trkpt>
      <trkpt lat="46.16146" lon="6.42481">
        <ele>982</ele>
        <time>2011-07-24T16:00:00Z</time>
      </trkpt>
      <trkpt lat="46.16155" lon="6.42467">
        <ele>982</ele>
        <time>2011-07-24T16:00:02Z</time>
      </trkpt>
      <trkpt lat="46.16164" lon="6.42452">
        <ele>982</ele>
        <time>2011-07-24T16:00:04Z</time>
      </trkpt>
      <trkpt lat="46.16172" lon="6.42437">
        <ele>982</ele>
        <time>2011-07-24T16:00:06Z</time>
      </trkpt>
      <trkpt lat="46.16181" lon="6.42425">
        <ele>977</ele>
        <time>2011-07-24T16:00:08Z</time>
      </trkpt>
      <trkpt lat="46.16189" lon="6.4241">
        <ele>977</ele>
        <time>2011-07-24T16:00:10Z</time>
      </trkpt>
      <trkpt lat="46.16197" lon="6.42394">
        <ele>977</ele>
        <time>2011-07-24T16:00:12Z</time>
      </trkpt>
      <trkpt lat="46.16205" lon="6.42379">
        <ele>977</ele>
        <time>2011-07-24T16:00:14Z</time>
      </trkpt>
      <trkpt lat="46.16217" lon="6.42365">
        <ele>977</ele>
        <time>2011-07-24T16:00:16Z</time>
      </trkpt>
      <trkpt lat="46.16228" lon="6.42353">
        <ele>970</ele>
        <time>2011-07-24T16:00:18Z</time>
      </trkpt>
      <trkpt lat="46.16235" lon="6.42342">
        <ele>970</ele>
        <time>2011-07-24T16:00:20Z</time>
      </trkpt>
      <trkpt lat="46.16225" lon="6.42345">
        <ele>970</ele>
        <time>2011-07-24T16:00:28Z</time>
      </trkpt>
      <trkpt lat="46.16213" lon="6.42351">
        <ele>970</ele>
        <time>2011-07-24T16:00:30Z</time>
      </trkpt>
      <trkpt lat="46.16199" lon="6.42356">
        <ele>970</ele>
        <time>2011-07-24T16:00:32Z</time>
      </trkpt>
      <trkpt lat="46.16186" lon="6.42361">
        <ele>976</ele>
        <time>2011-07-24T16:00:34Z</time>
      </trkpt>
      <trkpt lat="46.1617" lon="6.42366">
        <ele>976</ele>
        <time>2011-07-24T16:00:36Z</time>
      </trkpt>
      <trkpt lat="46.16157" lon="6.42374">
        <ele>976</ele>
        <time>2011-07-24T16:00:38Z</time>
      </trkpt>
      <trkpt lat="46.16142" lon="6.42381">
        <ele>976</ele>
        <time>2011-07-24T16:00:40Z</time>
      </trkpt>
      <trkpt lat="46.16128" lon="6.4239">
        <ele>976</ele>
        <time>2011-07-24T16:00:42Z</time>
      </trkpt>
      <trkpt lat="46.16113" lon="6.42401">
        <ele>976</ele>
        <time>2011-07-24T16:00:44Z</time>
      </trkpt>
      <trkpt lat="46.16098" lon="6.42412">
        <ele>976</ele>
        <time>2011-07-24T16:00:46Z</time>
      </trkpt>
      <trkpt lat="46.16083" lon="6.42424">
        <ele>976</ele>
        <time>2011-07-24T16:00:48Z</time>
      </trkpt>
      <trkpt lat="46.16074" lon="6.4243">
        <ele>976</ele>
        <time>2011-07-24T16:00:49Z</time>
      </trkpt>
      <trkpt lat="46.1606" lon="6.42442">
        <ele>976</ele>
        <time>2011-07-24T16:00:51Z</time>
      </trkpt>
      <trkpt lat="46.16046" lon="6.42454">
        <ele>969</ele>
        <time>2011-07-24T16:00:53Z</time>
      </trkpt>
      <trkpt lat="46.16033" lon="6.42464">
        <ele>969</ele>
        <time>2011-07-24T16:00:55Z</time>
      </trkpt>
      <trkpt lat="46.16023" lon="6.42472">
        <ele>969</ele>
        <time>2011-07-24T16:00:57Z</time>
      </trkpt>
      <trkpt lat="46.16014" lon="6.42477">
        <ele>969</ele>
        <time>2011-07-24T16:00:59Z</time>
      </trkpt>
      <trkpt lat="46.16003" lon="6.42475">
        <ele>964</ele>
        <time>2011-07-24T16:01:02Z</time>
      </trkpt>
      <trkpt lat="46.15993" lon="6.42477">
        <ele>964</ele>
        <time>2011-07-24T16:01:04Z</time>
      </trkpt>
      <trkpt lat="46.15986" lon="6.4249">
        <ele>964</ele>
        <time>2011-07-24T16:01:08Z</time>
      </trkpt>
      <trkpt lat="46.15979" lon="6.42507">
        <ele>964</ele>
        <time>2011-07-24T16:01:12Z</time>
      </trkpt>
      <trkpt lat="46.1597" lon="6.42517">
        <ele>964</ele>
        <time>2011-07-24T16:01:14Z</time>
      </trkpt>
      <trkpt lat="46.1596" lon="6.4253">
        <ele>964</ele>
        <time>2011-07-24T16:01:16Z</time>
      </trkpt>
      <trkpt lat="46.1595" lon="6.42541">
        <ele>972</ele>
        <time>2011-07-24T16:01:18Z</time>
      </trkpt>
      <trkpt lat="46.15941" lon="6.42553">
        <ele>972</ele>
        <time>2011-07-24T16:01:20Z</time>
      </trkpt>
      <trkpt lat="46.15937" lon="6.42568">
        <ele>972</ele>
        <time>2011-07-24T16:01:22Z</time>
      </trkpt>
      <trkpt lat="46.15931" lon="6.42583">
        <ele>979</ele>
        <time>2011-07-24T16:01:24Z</time>
      </trkpt>
      <trkpt lat="46.15924" lon="6.42598">
        <ele>986</ele>
        <time>2011-07-24T16:01:26Z</time>
      </trkpt>
      <trkpt lat="46.15918" lon="6.4261">
        <ele>992</ele>
        <time>2011-07-24T16:01:28Z</time>
      </trkpt>
      <trkpt lat="46.15903" lon="6.42613">
        <ele>1000</ele>
        <time>2011-07-24T16:01:31Z</time>
      </trkpt>
      <trkpt lat="46.15893" lon="6.4261">
        <ele>1000</ele>
        <time>2011-07-24T16:01:33Z</time>
      </trkpt>
      <trkpt lat="46.15882" lon="6.42612">
        <ele>1009</ele>
        <time>2011-07-24T16:01:36Z</time>
      </trkpt>
      <trkpt lat="46.15874" lon="6.42623">
        <ele>1009</ele>
        <time>2011-07-24T16:01:38Z</time>
      </trkpt>
      <trkpt lat="46.15863" lon="6.4263">
        <ele>1017</ele>
        <time>2011-07-24T16:01:40Z</time>
      </trkpt>
      <trkpt lat="46.15853" lon="6.42634">
        <ele>1017</ele>
        <time>2011-07-24T16:01:42Z</time>
      </trkpt>
      <trkpt lat="46.1584" lon="6.4264">
        <ele>1017</ele>
        <time>2011-07-24T16:01:44Z</time>
      </trkpt>
      <trkpt lat="46.15824" lon="6.42643">
        <ele>1017</ele>
        <time>2011-07-24T16:01:46Z</time>
      </trkpt>
      <trkpt lat="46.15815" lon="6.42649">
        <ele>1017</ele>
        <time>2011-07-24T16:01:47Z</time>
      </trkpt>
      <trkpt lat="46.15805" lon="6.42652">
        <ele>1017</ele>
        <time>2011-07-24T16:01:48Z</time>
      </trkpt>
      <trkpt lat="46.15796" lon="6.42657">
        <ele>1017</ele>
        <time>2011-07-24T16:01:49Z</time>
      </trkpt>
      <trkpt lat="46.1578" lon="6.42668">
        <ele>1017</ele>
        <time>2011-07-24T16:01:51Z</time>
      </trkpt>
      <trkpt lat="46.15764" lon="6.4268">
        <ele>1017</ele>
        <time>2011-07-24T16:01:53Z</time>
      </trkpt>
      <trkpt lat="46.15752" lon="6.42693">
        <ele>1017</ele>
        <time>2011-07-24T16:01:55Z</time>
      </trkpt>
      <trkpt lat="46.15741" lon="6.42711">
        <ele>1023</ele>
        <time>2011-07-24T16:01:57Z</time>
      </trkpt>
      <trkpt lat="46.15735" lon="6.42721">
        <ele>1023</ele>
        <time>2011-07-24T16:01:58Z</time>
      </trkpt>
      <trkpt lat="46.15722" lon="6.42738">
        <ele>1023</ele>
        <time>2011-07-24T16:02:00Z</time>
      </trkpt>
      <trkpt lat="46.15712" lon="6.42751">
        <ele>1029</ele>
        <time>2011-07-24T16:02:02Z</time>
      </trkpt>
      <trkpt lat="46.157" lon="6.4276">
        <ele>1029</ele>
        <time>2011-07-24T16:02:04Z</time>
      </trkpt>
      <trkpt lat="46.1569" lon="6.42766">
        <ele>1029</ele>
        <time>2011-07-24T16:02:06Z</time>
      </trkpt>
      <trkpt lat="46.1568" lon="6.4277">
        <ele>1029</ele>
        <time>2011-07-24T16:02:11Z</time>
      </trkpt>
      <trkpt lat="46.15691" lon="6.42763">
        <ele>1029</ele>
        <time>2011-07-24T16:03:32Z</time>
      </trkpt>
      <trkpt lat="46.15701" lon="6.42759">
        <ele>1029</ele>
        <time>2011-07-24T16:03:35Z</time>
      </trkpt>
      <trkpt lat="46.15709" lon="6.42753">
        <ele>1029</ele>
        <time>2011-07-24T16:03:37Z</time>
      </trkpt>
      <trkpt lat="46.15718" lon="6.42744">
        <ele>1029</ele>
        <time>2011-07-24T16:03:39Z</time>
      </trkpt>
      <trkpt lat="46.15725" lon="6.42732">
        <ele>1029</ele>
        <time>2011-07-24T16:03:41Z</time>
      </trkpt>
      <trkpt lat="46.15734" lon="6.42721">
        <ele>1022</ele>
        <time>2011-07-24T16:03:43Z</time>
      </trkpt>
      <trkpt lat="46.15741" lon="6.42709">
        <ele>1022</ele>
        <time>2011-07-24T16:03:45Z</time>
      </trkpt>
      <trkpt lat="46.15748" lon="6.42696">
        <ele>1022</ele>
        <time>2011-07-24T16:03:47Z</time>
      </trkpt>
      <trkpt lat="46.15756" lon="6.42686">
        <ele>1015</ele>
        <time>2011-07-24T16:03:49Z</time>
      </trkpt>
      <trkpt lat="46.15767" lon="6.42678">
        <ele>1015</ele>
        <time>2011-07-24T16:03:51Z</time>
      </trkpt>
      <trkpt lat="46.15778" lon="6.4267">
        <ele>1015</ele>
        <time>2011-07-24T16:03:53Z</time>
      </trkpt>
      <trkpt lat="46.15789" lon="6.42662">
        <ele>1008</ele>
        <time>2011-07-24T16:03:55Z</time>
      </trkpt>
      <trkpt lat="46.158" lon="6.42656">
        <ele>1008</ele>
        <time>2011-07-24T16:03:57Z</time>
      </trkpt>
      <trkpt lat="46.15811" lon="6.42651">
        <ele>1008</ele>
        <time>2011-07-24T16:03:59Z</time>
      </trkpt>
      <trkpt lat="46.1582" lon="6.42647">
        <ele>1008</ele>
        <time>2011-07-24T16:04:01Z</time>
      </trkpt>
      <trkpt lat="46.15828" lon="6.42643">
        <ele>1008</ele>
        <time>2011-07-24T16:04:03Z</time>
      </trkpt>
      <trkpt lat="46.1584" lon="6.42639">
        <ele>1008</ele>
        <time>2011-07-24T16:04:06Z</time>
      </trkpt>
      <trkpt lat="46.15852" lon="6.42637">
        <ele>1008</ele>
        <time>2011-07-24T16:04:09Z</time>
      </trkpt>
      <trkpt lat="46.15861" lon="6.42637">
        <ele>1008</ele>
        <time>2011-07-24T16:04:12Z</time>
      </trkpt>
      <trkpt lat="46.15873" lon="6.42631">
        <ele>999</ele>
        <time>2011-07-24T16:04:16Z</time>
      </trkpt>
      <trkpt lat="46.15881" lon="6.42622">
        <ele>999</ele>
        <time>2011-07-24T16:04:19Z</time>
      </trkpt>
      <trkpt lat="46.15892" lon="6.42614">
        <ele>999</ele>
        <time>2011-07-24T16:04:23Z</time>
      </trkpt>
      <trkpt lat="46.15904" lon="6.42613">
        <ele>999</ele>
        <time>2011-07-24T16:04:26Z</time>
      </trkpt>
      <trkpt lat="46.15917" lon="6.42613">
        <ele>994</ele>
        <time>2011-07-24T16:04:29Z</time>
      </trkpt>
      <trkpt lat="46.15925" lon="6.42606">
        <ele>994</ele>
        <time>2011-07-24T16:04:31Z</time>
      </trkpt>
      <trkpt lat="46.15936" lon="6.42593">
        <ele>994</ele>
        <time>2011-07-24T16:04:33Z</time>
      </trkpt>
      <trkpt lat="46.15948" lon="6.42575">
        <ele>988</ele>
        <time>2011-07-24T16:04:36Z</time>
      </trkpt>
      <trkpt lat="46.1595" lon="6.42556">
        <ele>988</ele>
        <time>2011-07-24T16:04:38Z</time>
      </trkpt>
      <trkpt lat="46.15956" lon="6.42543">
        <ele>979</ele>
        <time>2011-07-24T16:04:40Z</time>
      </trkpt>
      <trkpt lat="46.15963" lon="6.42534">
        <ele>979</ele>
        <time>2011-07-24T16:04:42Z</time>
      </trkpt>
      <trkpt lat="46.15971" lon="6.42522">
        <ele>979</ele>
        <time>2011-07-24T16:04:44Z</time>
      </trkpt>
      <trkpt lat="46.1598" lon="6.42514">
        <ele>973</ele>
        <time>2011-07-24T16:04:46Z</time>
      </trkpt>
      <trkpt lat="46.15988" lon="6.42503">
        <ele>973</ele>
        <time>2011-07-24T16:04:49Z</time>
      </trkpt>
      <trkpt lat="46.15992" lon="6.4249">
        <ele>973</ele>
        <time>2011-07-24T16:04:53Z</time>
      </trkpt>
      <trkpt lat="46.15986" lon="6.42481">
        <ele>973</ele>
        <time>2011-07-24T16:05:18Z</time>
      </trkpt>
      <trkpt lat="46.15982" lon="6.42467">
        <ele>966</ele>
        <time>2011-07-24T16:05:35Z</time>
      </trkpt>
      <trkpt lat="46.15976" lon="6.42456">
        <ele>966</ele>
        <time>2011-07-24T16:05:38Z</time>
      </trkpt>
      <trkpt lat="46.15968" lon="6.42447">
        <ele>966</ele>
        <time>2011-07-24T16:05:42Z</time>
      </trkpt>
      <trkpt lat="46.1596" lon="6.42441">
        <ele>966</ele>
        <time>2011-07-24T16:05:48Z</time>
      </trkpt>
      <trkpt lat="46.1595" lon="6.42435">
        <ele>955</ele>
        <time>2011-07-24T16:05:53Z</time>
      </trkpt>
      <trkpt lat="46.15941" lon="6.42428">
        <ele>955</ele>
        <time>2011-07-24T16:06:01Z</time>
      </trkpt>
      <trkpt lat="46.15932" lon="6.4242">
        <ele>940</ele>
        <time>2011-07-24T16:06:12Z</time>
      </trkpt>
      <trkpt lat="46.15922" lon="6.42414">
        <ele>940</ele>
        <time>2011-07-24T16:06:18Z</time>
      </trkpt>
      <trkpt lat="46.15912" lon="6.42408">
        <ele>932</ele>
        <time>2011-07-24T16:06:22Z</time>
      </trkpt>
      <trkpt lat="46.15903" lon="6.42401">
        <ele>932</ele>
        <time>2011-07-24T16:06:26Z</time>
      </trkpt>
      <trkpt lat="46.15898" lon="6.4239">
        <ele>932</ele>
        <time>2011-07-24T16:06:34Z</time>
      </trkpt>
      <trkpt lat="46.1589" lon="6.4238">
        <ele>932</ele>
        <time>2011-07-24T16:06:43Z</time>
      </trkpt>
      <trkpt lat="46.1588" lon="6.42374">
        <ele>932</ele>
        <time>2011-07-24T16:06:48Z</time>
      </trkpt>
      <trkpt lat="46.1587" lon="6.42369">
        <ele>926</ele>
        <time>2011-07-24T16:06:53Z</time>
      </trkpt>
      <trkpt lat="46.15863" lon="6.42359">
        <ele>926</ele>
        <time>2011-07-24T16:06:59Z</time>
      </trkpt>
      <trkpt lat="46.15856" lon="6.4235">
        <ele>926</ele>
        <time>2011-07-24T16:07:04Z</time>
      </trkpt>
      <trkpt lat="46.15847" lon="6.42341">
        <ele>921</ele>
        <time>2011-07-24T16:07:09Z</time>
      </trkpt>
      <trkpt lat="46.15838" lon="6.42331">
        <ele>921</ele>
        <time>2011-07-24T16:07:13Z</time>
      </trkpt>
      <trkpt lat="46.1583" lon="6.42325">
        <ele>921</ele>
        <time>2011-07-24T16:07:16Z</time>
      </trkpt>
      <trkpt lat="46.15822" lon="6.42316">
        <ele>912</ele>
        <time>2011-07-24T16:07:19Z</time>
      </trkpt>
      <trkpt lat="46.15814" lon="6.42302">
        <ele>912</ele>
        <time>2011-07-24T16:07:22Z</time>
      </trkpt>
      <trkpt lat="46.15807" lon="6.42291">
        <ele>912</ele>
        <time>2011-07-24T16:07:25Z</time>
      </trkpt>
      <trkpt lat="46.15795" lon="6.42279">
        <ele>906</ele>
        <time>2011-07-24T16:07:28Z</time>
      </trkpt>
      <trkpt lat="46.15787" lon="6.42273">
        <ele>906</ele>
        <time>2011-07-24T16:07:30Z</time>
      </trkpt>
      <trkpt lat="46.15782" lon="6.4226">
        <ele>906</ele>
        <time>2011-07-24T16:07:34Z</time>
      </trkpt>
      <trkpt lat="46.15787" lon="6.42249">
        <ele>899</ele>
        <time>2011-07-24T16:07:38Z</time>
      </trkpt>
      <trkpt lat="46.15781" lon="6.42239">
        <ele>899</ele>
        <time>2011-07-24T16:07:45Z</time>
      </trkpt>
      <trkpt lat="46.1577" lon="6.42233">
        <ele>899</ele>
        <time>2011-07-24T16:07:49Z</time>
      </trkpt>
      <trkpt lat="46.15757" lon="6.42228">
        <ele>899</ele>
        <time>2011-07-24T16:07:51Z</time>
      </trkpt>
      <trkpt lat="46.15744" lon="6.42226">
        <ele>899</ele>
        <time>2011-07-24T16:07:53Z</time>
      </trkpt>
      <trkpt lat="46.15733" lon="6.42224">
        <ele>899</ele>
        <time>2011-07-24T16:07:55Z</time>
      </trkpt>
      <trkpt lat="46.15722" lon="6.4222">
        <ele>894</ele>
        <time>2011-07-24T16:07:58Z</time>
      </trkpt>
      <trkpt lat="46.15709" lon="6.42218">
        <ele>894</ele>
        <time>2011-07-24T16:08:02Z</time>
      </trkpt>
      <trkpt lat="46.15696" lon="6.42215">
        <ele>894</ele>
        <time>2011-07-24T16:08:05Z</time>
      </trkpt>
      <trkpt lat="46.15686" lon="6.4221">
        <ele>889</ele>
        <time>2011-07-24T16:08:07Z</time>
      </trkpt>
      <trkpt lat="46.15676" lon="6.42207">
        <ele>889</ele>
        <time>2011-07-24T16:08:09Z</time>
      </trkpt>
      <trkpt lat="46.15664" lon="6.42205">
        <ele>889</ele>
        <time>2011-07-24T16:08:11Z</time>
      </trkpt>
      <trkpt lat="46.15648" lon="6.42205">
        <ele>889</ele>
        <time>2011-07-24T16:08:13Z</time>
      </trkpt>
      <trkpt lat="46.15632" lon="6.42208">
        <ele>889</ele>
        <time>2011-07-24T16:08:15Z</time>
      </trkpt>
      <trkpt lat="46.15617" lon="6.42216">
        <ele>882</ele>
        <time>2011-07-24T16:08:17Z</time>
      </trkpt>
      <trkpt lat="46.15603" lon="6.42225">
        <ele>882</ele>
        <time>2011-07-24T16:08:19Z</time>
      </trkpt>
      <trkpt lat="46.15587" lon="6.42236">
        <ele>882</ele>
        <time>2011-07-24T16:08:21Z</time>
      </trkpt>
      <trkpt lat="46.15572" lon="6.42251">
        <ele>874</ele>
        <time>2011-07-24T16:08:23Z</time>
      </trkpt>
      <trkpt lat="46.15564" lon="6.42258">
        <ele>874</ele>
        <time>2011-07-24T16:08:24Z</time>
      </trkpt>
      <trkpt lat="46.15548" lon="6.42272">
        <ele>874</ele>
        <time>2011-07-24T16:08:26Z</time>
      </trkpt>
      <trkpt lat="46.1554" lon="6.4228">
        <ele>874</ele>
        <time>2011-07-24T16:08:27Z</time>
      </trkpt>
      <trkpt lat="46.15526" lon="6.42292">
        <ele>874</ele>
        <time>2011-07-24T16:08:29Z</time>
      </trkpt>
      <trkpt lat="46.15514" lon="6.42302">
        <ele>874</ele>
        <time>2011-07-24T16:08:31Z</time>
      </trkpt>
      <trkpt lat="46.15503" lon="6.42305">
        <ele>874</ele>
        <time>2011-07-24T16:08:33Z</time>
      </trkpt>
      <trkpt lat="46.15498" lon="6.42287">
        <ele>868</ele>
        <time>2011-07-24T16:08:36Z</time>
      </trkpt>
      <trkpt lat="46.15503" lon="6.4227">
        <ele>868</ele>
        <time>2011-07-24T16:08:38Z</time>
      </trkpt>
      <trkpt lat="46.15512" lon="6.42254">
        <ele>868</ele>
        <time>2011-07-24T16:08:40Z</time>
      </trkpt>
      <trkpt lat="46.15521" lon="6.42242">
        <ele>868</ele>
        <time>2011-07-24T16:08:42Z</time>
      </trkpt>
      <trkpt lat="46.15532" lon="6.42228">
        <ele>868</ele>
        <time>2011-07-24T16:08:44Z</time>
      </trkpt>
      <trkpt lat="46.15543" lon="6.42216">
        <ele>868</ele>
        <time>2011-07-24T16:08:46Z</time>
      </trkpt>
      <trkpt lat="46.15553" lon="6.42207">
        <ele>868</ele>
        <time>2011-07-24T16:08:48Z</time>
      </trkpt>
      <trkpt lat="46.15561" lon="6.42199">
        <ele>863</ele>
        <time>2011-07-24T16:08:50Z</time>
      </trkpt>
      <trkpt lat="46.15556" lon="6.42187">
        <ele>863</ele>
        <time>2011-07-24T16:08:55Z</time>
      </trkpt>
      <trkpt lat="46.15548" lon="6.42195">
        <ele>863</ele>
        <time>2011-07-24T16:08:57Z</time>
      </trkpt>
      <trkpt lat="46.15539" lon="6.42202">
        <ele>863</ele>
        <time>2011-07-24T16:08:59Z</time>
      </trkpt>
      <trkpt lat="46.15528" lon="6.4221">
        <ele>863</ele>
        <time>2011-07-24T16:09:01Z</time>
      </trkpt>
      <trkpt lat="46.15514" lon="6.42219">
        <ele>863</ele>
        <time>2011-07-24T16:09:03Z</time>
      </trkpt>
      <trkpt lat="46.155" lon="6.42229">
        <ele>863</ele>
        <time>2011-07-24T16:09:05Z</time>
      </trkpt>
      <trkpt lat="46.15487" lon="6.4224">
        <ele>857</ele>
        <time>2011-07-24T16:09:07Z</time>
      </trkpt>
      <trkpt lat="46.15475" lon="6.42247">
        <ele>857</ele>
        <time>2011-07-24T16:09:09Z</time>
      </trkpt>
      <trkpt lat="46.15461" lon="6.42253">
        <ele>857</ele>
        <time>2011-07-24T16:09:11Z</time>
      </trkpt>
      <trkpt lat="46.15446" lon="6.42258">
        <ele>852</ele>
        <time>2011-07-24T16:09:13Z</time>
      </trkpt>
      <trkpt lat="46.1543" lon="6.42264">
        <ele>852</ele>
        <time>2011-07-24T16:09:15Z</time>
      </trkpt>
      <trkpt lat="46.15415" lon="6.42276">
        <ele>852</ele>
        <time>2011-07-24T16:09:17Z</time>
      </trkpt>
      <trkpt lat="46.15401" lon="6.42288">
        <ele>846</ele>
        <time>2011-07-24T16:09:19Z</time>
      </trkpt>
      <trkpt lat="46.1539" lon="6.42302">
        <ele>846</ele>
        <time>2011-07-24T16:09:21Z</time>
      </trkpt>
      <trkpt lat="46.1538" lon="6.4232">
        <ele>846</ele>
        <time>2011-07-24T16:09:23Z</time>
      </trkpt>
      <trkpt lat="46.1537" lon="6.42341">
        <ele>841</ele>
        <time>2011-07-24T16:09:25Z</time>
      </trkpt>
      <trkpt lat="46.15366" lon="6.42354">
        <ele>841</ele>
        <time>2011-07-24T16:09:26Z</time>
      </trkpt>
      <trkpt lat="46.15362" lon="6.42367">
        <ele>841</ele>
        <time>2011-07-24T16:09:27Z</time>
      </trkpt>
      <trkpt lat="46.15359" lon="6.42383">
        <ele>841</ele>
        <time>2011-07-24T16:09:28Z</time>
      </trkpt>
      <trkpt lat="46.15357" lon="6.42398">
        <ele>841</ele>
        <time>2011-07-24T16:09:29Z</time>
      </trkpt>
      <trkpt lat="46.15355" lon="6.42414">
        <ele>841</ele>
        <time>2011-07-24T16:09:30Z</time>
      </trkpt>
      <trkpt lat="46.15355" lon="6.42428">
        <ele>841</ele>
        <time>2011-07-24T16:09:31Z</time>
      </trkpt>
      <trkpt lat="46.1535" lon="6.42454">
        <ele>841</ele>
        <time>2011-07-24T16:09:33Z</time>
      </trkpt>
      <trkpt lat="46.15345" lon="6.42467">
        <ele>836</ele>
        <time>2011-07-24T16:09:34Z</time>
      </trkpt>
      <trkpt lat="46.15338" lon="6.42479">
        <ele>836</ele>
        <time>2011-07-24T16:09:35Z</time>
      </trkpt>
      <trkpt lat="46.15331" lon="6.4249">
        <ele>836</ele>
        <time>2011-07-24T16:09:36Z</time>
      </trkpt>
      <trkpt lat="46.15325" lon="6.42501">
        <ele>836</ele>
        <time>2011-07-24T16:09:37Z</time>
      </trkpt>
      <trkpt lat="46.15319" lon="6.42515">
        <ele>836</ele>
        <time>2011-07-24T16:09:38Z</time>
      </trkpt>
      <trkpt lat="46.15313" lon="6.42529">
        <ele>836</ele>
        <time>2011-07-24T16:09:39Z</time>
      </trkpt>
      <trkpt lat="46.15308" lon="6.42543">
        <ele>830</ele>
        <time>2011-07-24T16:09:40Z</time>
      </trkpt>
      <trkpt lat="46.15302" lon="6.42555">
        <ele>830</ele>
        <time>2011-07-24T16:09:41Z</time>
      </trkpt>
      <trkpt lat="46.15296" lon="6.42566">
        <ele>830</ele>
        <time>2011-07-24T16:09:42Z</time>
      </trkpt>
      <trkpt lat="46.1529" lon="6.42576">
        <ele>830</ele>
        <time>2011-07-24T16:09:43Z</time>
      </trkpt>
      <trkpt lat="46.15282" lon="6.42585">
        <ele>830</ele>
        <time>2011-07-24T16:09:44Z</time>
      </trkpt>
      <trkpt lat="46.15274" lon="6.42592">
        <ele>825</ele>
        <time>2011-07-24T16:09:45Z</time>
      </trkpt>
      <trkpt lat="46.15257" lon="6.42603">
        <ele>825</ele>
        <time>2011-07-24T16:09:47Z</time>
      </trkpt>
      <trkpt lat="46.15242" lon="6.42611">
        <ele>819</ele>
        <time>2011-07-24T16:09:49Z</time>
      </trkpt>
      <trkpt lat="46.15227" lon="6.42616">
        <ele>819</ele>
        <time>2011-07-24T16:09:51Z</time>
      </trkpt>
      <trkpt lat="46.15212" lon="6.4262">
        <ele>813</ele>
        <time>2011-07-24T16:09:53Z</time>
      </trkpt>
      <trkpt lat="46.152" lon="6.42628">
        <ele>813</ele>
        <time>2011-07-24T16:09:55Z</time>
      </trkpt>
      <trkpt lat="46.15189" lon="6.42646">
        <ele>813</ele>
        <time>2011-07-24T16:09:57Z</time>
      </trkpt>
      <trkpt lat="46.15179" lon="6.42666">
        <ele>813</ele>
        <time>2011-07-24T16:09:59Z</time>
      </trkpt>
      <trkpt lat="46.15166" lon="6.4268">
        <ele>806</ele>
        <time>2011-07-24T16:10:01Z</time>
      </trkpt>
      <trkpt lat="46.15149" lon="6.4268">
        <ele>806</ele>
        <time>2011-07-24T16:10:03Z</time>
      </trkpt>
      <trkpt lat="46.15132" lon="6.42675">
        <ele>806</ele>
        <time>2011-07-24T16:10:05Z</time>
      </trkpt>
      <trkpt lat="46.15116" lon="6.42675">
        <ele>801</ele>
        <time>2011-07-24T16:10:07Z</time>
      </trkpt>
      <trkpt lat="46.15104" lon="6.42683">
        <ele>801</ele>
        <time>2011-07-24T16:10:09Z</time>
      </trkpt>
      <trkpt lat="46.15092" lon="6.42688">
        <ele>801</ele>
        <time>2011-07-24T16:10:11Z</time>
      </trkpt>
      <trkpt lat="46.15082" lon="6.42676">
        <ele>795</ele>
        <time>2011-07-24T16:10:14Z</time>
      </trkpt>
      <trkpt lat="46.15082" lon="6.42663">
        <ele>795</ele>
        <time>2011-07-24T16:10:16Z</time>
      </trkpt>
      <trkpt lat="46.15092" lon="6.42646">
        <ele>795</ele>
        <time>2011-07-24T16:10:18Z</time>
      </trkpt>
      <trkpt lat="46.15101" lon="6.42636">
        <ele>795</ele>
        <time>2011-07-24T16:10:19Z</time>
      </trkpt>
      <trkpt lat="46.15108" lon="6.42627">
        <ele>795</ele>
        <time>2011-07-24T16:10:20Z</time>
      </trkpt>
      <trkpt lat="46.15115" lon="6.42617">
        <ele>795</ele>
        <time>2011-07-24T16:10:21Z</time>
      </trkpt>
      <trkpt lat="46.15122" lon="6.42608">
        <ele>789</ele>
        <time>2011-07-24T16:10:22Z</time>
      </trkpt>
      <trkpt lat="46.15135" lon="6.42591">
        <ele>789</ele>
        <time>2011-07-24T16:10:24Z</time>
      </trkpt>
      <trkpt lat="46.15142" lon="6.42581">
        <ele>789</ele>
        <time>2011-07-24T16:10:25Z</time>
      </trkpt>
      <trkpt lat="46.15147" lon="6.42569">
        <ele>789</ele>
        <time>2011-07-24T16:10:26Z</time>
      </trkpt>
      <trkpt lat="46.15151" lon="6.42553">
        <ele>783</ele>
        <time>2011-07-24T16:10:27Z</time>
      </trkpt>
      <trkpt lat="46.15154" lon="6.42539">
        <ele>783</ele>
        <time>2011-07-24T16:10:28Z</time>
      </trkpt>
      <trkpt lat="46.15157" lon="6.42525">
        <ele>783</ele>
        <time>2011-07-24T16:10:29Z</time>
      </trkpt>
      <trkpt lat="46.1516" lon="6.42511">
        <ele>783</ele>
        <time>2011-07-24T16:10:30Z</time>
      </trkpt>
      <trkpt lat="46.15164" lon="6.42498">
        <ele>783</ele>
        <time>2011-07-24T16:10:31Z</time>
      </trkpt>
      <trkpt lat="46.15172" lon="6.42475">
        <ele>778</ele>
        <time>2011-07-24T16:10:33Z</time>
      </trkpt>
      <trkpt lat="46.1518" lon="6.42456">
        <ele>778</ele>
        <time>2011-07-24T16:10:35Z</time>
      </trkpt>
      <trkpt lat="46.15182" lon="6.4244">
        <ele>778</ele>
        <time>2011-07-24T16:10:37Z</time>
      </trkpt>
      <trkpt lat="46.15175" lon="6.4243">
        <ele>778</ele>
        <time>2011-07-24T16:10:39Z</time>
      </trkpt>
      <trkpt lat="46.15165" lon="6.42431">
        <ele>778</ele>
        <time>2011-07-24T16:10:41Z</time>
      </trkpt>
      <trkpt lat="46.15157" lon="6.42441">
        <ele>778</ele>
        <time>2011-07-24T16:10:43Z</time>
      </trkpt>
      <trkpt lat="46.15149" lon="6.42463">
        <ele>778</ele>
        <time>2011-07-24T16:10:45Z</time>
      </trkpt>
      <trkpt lat="46.1514" lon="6.42484">
        <ele>772</ele>
        <time>2011-07-24T16:10:47Z</time>
      </trkpt>
      <trkpt lat="46.15134" lon="6.42495">
        <ele>772</ele>
        <time>2011-07-24T16:10:48Z</time>
      </trkpt>
      <trkpt lat="46.15126" lon="6.42504">
        <ele>772</ele>
        <time>2011-07-24T16:10:49Z</time>
      </trkpt>
      <trkpt lat="46.15118" lon="6.42513">
        <ele>772</ele>
        <time>2011-07-24T16:10:50Z</time>
      </trkpt>
      <trkpt lat="46.15109" lon="6.42522">
        <ele>772</ele>
        <time>2011-07-24T16:10:51Z</time>
      </trkpt>
      <trkpt lat="46.15101" lon="6.42531">
        <ele>772</ele>
        <time>2011-07-24T16:10:52Z</time>
      </trkpt>
      <trkpt lat="46.15092" lon="6.42539">
        <ele>772</ele>
        <time>2011-07-24T16:10:53Z</time>
      </trkpt>
      <trkpt lat="46.15084" lon="6.42546">
        <ele>767</ele>
        <time>2011-07-24T16:10:54Z</time>
      </trkpt>
      <trkpt lat="46.15071" lon="6.4256">
        <ele>767</ele>
        <time>2011-07-24T16:10:56Z</time>
      </trkpt>
      <trkpt lat="46.15059" lon="6.42562">
        <ele>767</ele>
        <time>2011-07-24T16:10:58Z</time>
      </trkpt>
      <trkpt lat="46.15051" lon="6.42555">
        <ele>761</ele>
        <time>2011-07-24T16:11:00Z</time>
      </trkpt>
      <trkpt lat="46.15052" lon="6.42537">
        <ele>761</ele>
        <time>2011-07-24T16:11:02Z</time>
      </trkpt>
      <trkpt lat="46.15059" lon="6.42527">
        <ele>761</ele>
        <time>2011-07-24T16:11:03Z</time>
      </trkpt>
      <trkpt lat="46.15067" lon="6.42518">
        <ele>761</ele>
        <time>2011-07-24T16:11:04Z</time>
      </trkpt>
      <trkpt lat="46.15074" lon="6.42509">
        <ele>761</ele>
        <time>2011-07-24T16:11:05Z</time>
      </trkpt>
      <trkpt lat="46.15086" lon="6.42494">
        <ele>761</ele>
        <time>2011-07-24T16:11:07Z</time>
      </trkpt>
      <trkpt lat="46.1509" lon="6.42478">
        <ele>756</ele>
        <time>2011-07-24T16:11:09Z</time>
      </trkpt>
      <trkpt lat="46.15085" lon="6.42464">
        <ele>756</ele>
        <time>2011-07-24T16:11:11Z</time>
      </trkpt>
      <trkpt lat="46.15072" lon="6.4247">
        <ele>756</ele>
        <time>2011-07-24T16:11:13Z</time>
      </trkpt>
      <trkpt lat="46.15059" lon="6.4248">
        <ele>756</ele>
        <time>2011-07-24T16:11:15Z</time>
      </trkpt>
      <trkpt lat="46.15046" lon="6.42486">
        <ele>756</ele>
        <time>2011-07-24T16:11:17Z</time>
      </trkpt>
      <trkpt lat="46.15033" lon="6.4249">
        <ele>751</ele>
        <time>2011-07-24T16:11:19Z</time>
      </trkpt>
      <trkpt lat="46.15019" lon="6.42491">
        <ele>751</ele>
        <time>2011-07-24T16:11:21Z</time>
      </trkpt>
      <trkpt lat="46.15003" lon="6.42496">
        <ele>751</ele>
        <time>2011-07-24T16:11:23Z</time>
      </trkpt>
      <trkpt lat="46.14994" lon="6.42499">
        <ele>745</ele>
        <time>2011-07-24T16:11:24Z</time>
      </trkpt>
      <trkpt lat="46.14979" lon="6.42512">
        <ele>745</ele>
        <time>2011-07-24T16:11:26Z</time>
      </trkpt>
      <trkpt lat="46.14968" lon="6.42531">
        <ele>745</ele>
        <time>2011-07-24T16:11:28Z</time>
      </trkpt>
      <trkpt lat="46.14964" lon="6.42543">
        <ele>745</ele>
        <time>2011-07-24T16:11:29Z</time>
      </trkpt>
      <trkpt lat="46.14958" lon="6.42565">
        <ele>745</ele>
        <time>2011-07-24T16:11:31Z</time>
      </trkpt>
      <trkpt lat="46.1495" lon="6.42578">
        <ele>745</ele>
        <time>2011-07-24T16:11:33Z</time>
      </trkpt>
      <trkpt lat="46.14939" lon="6.42576">
        <ele>739</ele>
        <time>2011-07-24T16:11:35Z</time>
      </trkpt>
      <trkpt lat="46.14936" lon="6.4256">
        <ele>739</ele>
        <time>2011-07-24T16:11:37Z</time>
      </trkpt>
      <trkpt lat="46.14939" lon="6.42547">
        <ele>739</ele>
        <time>2011-07-24T16:11:38Z</time>
      </trkpt>
      <trkpt lat="46.14946" lon="6.42522">
        <ele>739</ele>
        <time>2011-07-24T16:11:40Z</time>
      </trkpt>
      <trkpt lat="46.14951" lon="6.42507">
        <ele>734</ele>
        <time>2011-07-24T16:11:41Z</time>
      </trkpt>
      <trkpt lat="46.14955" lon="6.42493">
        <ele>734</ele>
        <time>2011-07-24T16:11:42Z</time>
      </trkpt>
      <trkpt lat="46.1496" lon="6.42478">
        <ele>734</ele>
        <time>2011-07-24T16:11:43Z</time>
      </trkpt>
      <trkpt lat="46.14964" lon="6.42462">
        <ele>734</ele>
        <time>2011-07-24T16:11:44Z</time>
      </trkpt>
      <trkpt lat="46.14969" lon="6.42447">
        <ele>734</ele>
        <time>2011-07-24T16:11:45Z</time>
      </trkpt>
      <trkpt lat="46.14973" lon="6.42432">
        <ele>728</ele>
        <time>2011-07-24T16:11:46Z</time>
      </trkpt>
      <trkpt lat="46.14978" lon="6.42418">
        <ele>728</ele>
        <time>2011-07-24T16:11:47Z</time>
      </trkpt>
      <trkpt lat="46.14981" lon="6.42404">
        <ele>728</ele>
        <time>2011-07-24T16:11:48Z</time>
      </trkpt>
      <trkpt lat="46.14985" lon="6.4239">
        <ele>728</ele>
        <time>2011-07-24T16:11:49Z</time>
      </trkpt>
      <trkpt lat="46.14988" lon="6.42376">
        <ele>728</ele>
        <time>2011-07-24T16:11:50Z</time>
      </trkpt>
      <trkpt lat="46.14991" lon="6.42364">
        <ele>728</ele>
        <time>2011-07-24T16:11:51Z</time>
      </trkpt>
      <trkpt lat="46.14999" lon="6.42344">
        <ele>723</ele>
        <time>2011-07-24T16:11:53Z</time>
      </trkpt>
      <trkpt lat="46.15002" lon="6.42326">
        <ele>723</ele>
        <time>2011-07-24T16:11:55Z</time>
      </trkpt>
      <trkpt lat="46.14994" lon="6.42315">
        <ele>723</ele>
        <time>2011-07-24T16:11:57Z</time>
      </trkpt>
      <trkpt lat="46.14981" lon="6.4232">
        <ele>723</ele>
        <time>2011-07-24T16:11:59Z</time>
      </trkpt>
      <trkpt lat="46.14972" lon="6.42341">
        <ele>718</ele>
        <time>2011-07-24T16:12:01Z</time>
      </trkpt>
      <trkpt lat="46.14959" lon="6.42359">
        <ele>718</ele>
        <time>2011-07-24T16:12:03Z</time>
      </trkpt>
      <trkpt lat="46.1495" lon="6.42366">
        <ele>718</ele>
        <time>2011-07-24T16:12:04Z</time>
      </trkpt>
      <trkpt lat="46.14934" lon="6.42375">
        <ele>718</ele>
        <time>2011-07-24T16:12:06Z</time>
      </trkpt>
      <trkpt lat="46.14918" lon="6.42384">
        <ele>718</ele>
        <time>2011-07-24T16:12:08Z</time>
      </trkpt>
      <trkpt lat="46.1491" lon="6.4239">
        <ele>713</ele>
        <time>2011-07-24T16:12:09Z</time>
      </trkpt>
      <trkpt lat="46.14902" lon="6.42397">
        <ele>713</ele>
        <time>2011-07-24T16:12:10Z</time>
      </trkpt>
      <trkpt lat="46.14893" lon="6.42406">
        <ele>713</ele>
        <time>2011-07-24T16:12:11Z</time>
      </trkpt>
      <trkpt lat="46.14885" lon="6.42415">
        <ele>713</ele>
        <time>2011-07-24T16:12:12Z</time>
      </trkpt>
      <trkpt lat="46.14877" lon="6.42424">
        <ele>713</ele>
        <time>2011-07-24T16:12:13Z</time>
      </trkpt>
      <trkpt lat="46.14869" lon="6.42434">
        <ele>713</ele>
        <time>2011-07-24T16:12:14Z</time>
      </trkpt>
      <trkpt lat="46.14861" lon="6.42444">
        <ele>707</ele>
        <time>2011-07-24T16:12:15Z</time>
      </trkpt>
      <trkpt lat="46.14847" lon="6.42462">
        <ele>707</ele>
        <time>2011-07-24T16:12:17Z</time>
      </trkpt>
      <trkpt lat="46.1484" lon="6.42472">
        <ele>707</ele>
        <time>2011-07-24T16:12:18Z</time>
      </trkpt>
      <trkpt lat="46.14832" lon="6.42481">
        <ele>707</ele>
        <time>2011-07-24T16:12:19Z</time>
      </trkpt>
      <trkpt lat="46.14826" lon="6.42491">
        <ele>702</ele>
        <time>2011-07-24T16:12:20Z</time>
      </trkpt>
      <trkpt lat="46.14816" lon="6.42512">
        <ele>702</ele>
        <time>2011-07-24T16:12:22Z</time>
      </trkpt>
      <trkpt lat="46.14808" lon="6.42525">
        <ele>702</ele>
        <time>2011-07-24T16:12:24Z</time>
      </trkpt>
      <trkpt lat="46.14797" lon="6.42525">
        <ele>695</ele>
        <time>2011-07-24T16:12:26Z</time>
      </trkpt>
      <trkpt lat="46.14793" lon="6.42509">
        <ele>695</ele>
        <time>2011-07-24T16:12:28Z</time>
      </trkpt>
      <trkpt lat="46.14801" lon="6.4249">
        <ele>690</ele>
        <time>2011-07-24T16:12:30Z</time>
      </trkpt>
      <trkpt lat="46.14811" lon="6.42472">
        <ele>690</ele>
        <time>2011-07-24T16:12:32Z</time>
      </trkpt>
      <trkpt lat="46.14816" lon="6.42452">
        <ele>690</ele>
        <time>2011-07-24T16:12:34Z</time>
      </trkpt>
      <trkpt lat="46.1482" lon="6.42428">
        <ele>690</ele>
        <time>2011-07-24T16:12:36Z</time>
      </trkpt>
      <trkpt lat="46.14822" lon="6.42415">
        <ele>690</ele>
        <time>2011-07-24T16:12:37Z</time>
      </trkpt>
      <trkpt lat="46.14823" lon="6.42401">
        <ele>690</ele>
        <time>2011-07-24T16:12:38Z</time>
      </trkpt>
      <trkpt lat="46.14825" lon="6.42386">
        <ele>690</ele>
        <time>2011-07-24T16:12:39Z</time>
      </trkpt>
      <trkpt lat="46.14825" lon="6.42372">
        <ele>685</ele>
        <time>2011-07-24T16:12:40Z</time>
      </trkpt>
      <trkpt lat="46.14825" lon="6.42357">
        <ele>685</ele>
        <time>2011-07-24T16:12:41Z</time>
      </trkpt>
      <trkpt lat="46.14825" lon="6.42341">
        <ele>685</ele>
        <time>2011-07-24T16:12:42Z</time>
      </trkpt>
      <trkpt lat="46.14825" lon="6.42325">
        <ele>685</ele>
        <time>2011-07-24T16:12:43Z</time>
      </trkpt>
      <trkpt lat="46.14825" lon="6.42309">
        <ele>685</ele>
        <time>2011-07-24T16:12:44Z</time>
      </trkpt>
      <trkpt lat="46.14825" lon="6.42294">
        <ele>685</ele>
        <time>2011-07-24T16:12:45Z</time>
      </trkpt>
      <trkpt lat="46.14825" lon="6.42278">
        <ele>679</ele>
        <time>2011-07-24T16:12:46Z</time>
      </trkpt>
      <trkpt lat="46.14824" lon="6.42263">
        <ele>679</ele>
        <time>2011-07-24T16:12:47Z</time>
      </trkpt>
      <trkpt lat="46.14824" lon="6.42249">
        <ele>679</ele>
        <time>2011-07-24T16:12:48Z</time>
      </trkpt>
      <trkpt lat="46.14823" lon="6.42234">
        <ele>679</ele>
        <time>2011-07-24T16:12:49Z</time>
      </trkpt>
      <trkpt lat="46.14822" lon="6.42209">
        <ele>679</ele>
        <time>2011-07-24T16:12:51Z</time>
      </trkpt>
      <trkpt lat="46.14818" lon="6.42191">
        <ele>673</ele>
        <time>2011-07-24T16:12:53Z</time>
      </trkpt>
      <trkpt lat="46.14808" lon="6.4218">
        <ele>673</ele>
        <time>2011-07-24T16:12:55Z</time>
      </trkpt>
      <trkpt lat="46.14795" lon="6.42179">
        <ele>673</ele>
        <time>2011-07-24T16:12:57Z</time>
      </trkpt>
      <trkpt lat="46.14781" lon="6.42185">
        <ele>673</ele>
        <time>2011-07-24T16:12:59Z</time>
      </trkpt>
      <trkpt lat="46.14773" lon="6.42193">
        <ele>673</ele>
        <time>2011-07-24T16:13:00Z</time>
      </trkpt>
      <trkpt lat="46.14765" lon="6.42201">
        <ele>668</ele>
        <time>2011-07-24T16:13:01Z</time>
      </trkpt>
      <trkpt lat="46.14758" lon="6.4221">
        <ele>668</ele>
        <time>2011-07-24T16:13:02Z</time>
      </trkpt>
      <trkpt lat="46.1475" lon="6.42219">
        <ele>668</ele>
        <time>2011-07-24T16:13:03Z</time>
      </trkpt>
      <trkpt lat="46.14743" lon="6.42228">
        <ele>668</ele>
        <time>2011-07-24T16:13:04Z</time>
      </trkpt>
      <trkpt lat="46.14736" lon="6.42236">
        <ele>668</ele>
        <time>2011-07-24T16:13:05Z</time>
      </trkpt>
      <trkpt lat="46.14723" lon="6.42253">
        <ele>662</ele>
        <time>2011-07-24T16:13:07Z</time>
      </trkpt>
      <trkpt lat="46.1471" lon="6.4227">
        <ele>662</ele>
        <time>2011-07-24T16:13:09Z</time>
      </trkpt>
      <trkpt lat="46.14698" lon="6.42286">
        <ele>662</ele>
        <time>2011-07-24T16:13:11Z</time>
      </trkpt>
      <trkpt lat="46.14685" lon="6.423">
        <ele>657</ele>
        <time>2011-07-24T16:13:13Z</time>
      </trkpt>
      <trkpt lat="46.14674" lon="6.42312">
        <ele>657</ele>
        <time>2011-07-24T16:13:15Z</time>
      </trkpt>
      <trkpt lat="46.14662" lon="6.42319">
        <ele>657</ele>
        <time>2011-07-24T16:13:17Z</time>
      </trkpt>
      <trkpt lat="46.1465" lon="6.42318">
        <ele>657</ele>
        <time>2011-07-24T16:13:19Z</time>
      </trkpt>
      <trkpt lat="46.14638" lon="6.4231">
        <ele>648</ele>
        <time>2011-07-24T16:13:21Z</time>
      </trkpt>
      <trkpt lat="46.14625" lon="6.42302">
        <ele>648</ele>
        <time>2011-07-24T16:13:23Z</time>
      </trkpt>
      <trkpt lat="46.14614" lon="6.42295">
        <ele>648</ele>
        <time>2011-07-24T16:13:25Z</time>
      </trkpt>
      <trkpt lat="46.14604" lon="6.4229">
        <ele>648</ele>
        <time>2011-07-24T16:13:27Z</time>
      </trkpt>
      <trkpt lat="46.14594" lon="6.42288">
        <ele>648</ele>
        <time>2011-07-24T16:13:29Z</time>
      </trkpt>
      <trkpt lat="46.14585" lon="6.42286">
        <ele>648</ele>
        <time>2011-07-24T16:13:31Z</time>
      </trkpt>
      <trkpt lat="46.14576" lon="6.42283">
        <ele>648</ele>
        <time>2011-07-24T16:13:33Z</time>
      </trkpt>
      <trkpt lat="46.14564" lon="6.42274">
        <ele>642</ele>
        <time>2011-07-24T16:13:36Z</time>
      </trkpt>
      <trkpt lat="46.14552" lon="6.42265">
        <ele>642</ele>
        <time>2011-07-24T16:13:38Z</time>
      </trkpt>
      <trkpt lat="46.14539" lon="6.42248">
        <ele>642</ele>
        <time>2011-07-24T16:13:40Z</time>
      </trkpt>
      <trkpt lat="46.14529" lon="6.42227">
        <ele>642</ele>
        <time>2011-07-24T16:13:42Z</time>
      </trkpt>
      <trkpt lat="46.14516" lon="6.42206">
        <ele>636</ele>
        <time>2011-07-24T16:13:44Z</time>
      </trkpt>
      <trkpt lat="46.14508" lon="6.42195">
        <ele>636</ele>
        <time>2011-07-24T16:13:45Z</time>
      </trkpt>
      <trkpt lat="46.14499" lon="6.42186">
        <ele>636</ele>
        <time>2011-07-24T16:13:46Z</time>
      </trkpt>
      <trkpt lat="46.14489" lon="6.42177">
        <ele>636</ele>
        <time>2011-07-24T16:13:47Z</time>
      </trkpt>
      <trkpt lat="46.1448" lon="6.42168">
        <ele>636</ele>
        <time>2011-07-24T16:13:48Z</time>
      </trkpt>
      <trkpt lat="46.1447" lon="6.42158">
        <ele>636</ele>
        <time>2011-07-24T16:13:49Z</time>
      </trkpt>
      <trkpt lat="46.14461" lon="6.42149">
        <ele>630</ele>
        <time>2011-07-24T16:13:50Z</time>
      </trkpt>
      <trkpt lat="46.14452" lon="6.4214">
        <ele>630</ele>
        <time>2011-07-24T16:13:51Z</time>
      </trkpt>
      <trkpt lat="46.14442" lon="6.42131">
        <ele>630</ele>
        <time>2011-07-24T16:13:52Z</time>
      </trkpt>
      <trkpt lat="46.14432" lon="6.42123">
        <ele>630</ele>
        <time>2011-07-24T16:13:53Z</time>
      </trkpt>
      <trkpt lat="46.14422" lon="6.42115">
        <ele>630</ele>
        <time>2011-07-24T16:13:54Z</time>
      </trkpt>
      <trkpt lat="46.14412" lon="6.42105">
        <ele>630</ele>
        <time>2011-07-24T16:13:55Z</time>
      </trkpt>
      <trkpt lat="46.14403" lon="6.42095">
        <ele>625</ele>
        <time>2011-07-24T16:13:56Z</time>
      </trkpt>
      <trkpt lat="46.14393" lon="6.42086">
        <ele>625</ele>
        <time>2011-07-24T16:13:57Z</time>
      </trkpt>
      <trkpt lat="46.14384" lon="6.42077">
        <ele>625</ele>
        <time>2011-07-24T16:13:58Z</time>
      </trkpt>
      <trkpt lat="46.14375" lon="6.42068">
        <ele>625</ele>
        <time>2011-07-24T16:13:59Z</time>
      </trkpt>
      <trkpt lat="46.14366" lon="6.42059">
        <ele>625</ele>
        <time>2011-07-24T16:14:00Z</time>
      </trkpt>
      <trkpt lat="46.14358" lon="6.42051">
        <ele>625</ele>
        <time>2011-07-24T16:14:01Z</time>
      </trkpt>
      <trkpt lat="46.14349" lon="6.42043">
        <ele>620</ele>
        <time>2011-07-24T16:14:02Z</time>
      </trkpt>
      <trkpt lat="46.14341" lon="6.42035">
        <ele>620</ele>
        <time>2011-07-24T16:14:03Z</time>
      </trkpt>
      <trkpt lat="46.14333" lon="6.42026">
        <ele>620</ele>
        <time>2011-07-24T16:14:04Z</time>
      </trkpt>
      <trkpt lat="46.14324" lon="6.42017">
        <ele>620</ele>
        <time>2011-07-24T16:14:05Z</time>
      </trkpt>
      <trkpt lat="46.14316" lon="6.42006">
        <ele>620</ele>
        <time>2011-07-24T16:14:06Z</time>
      </trkpt>
      <trkpt lat="46.14309" lon="6.41995">
        <ele>620</ele>
        <time>2011-07-24T16:14:07Z</time>
      </trkpt>
      <trkpt lat="46.14303" lon="6.41985">
        <ele>620</ele>
        <time>2011-07-24T16:14:08Z</time>
      </trkpt>
      <trkpt lat="46.14294" lon="6.41967">
        <ele>615</ele>
        <time>2011-07-24T16:14:10Z</time>
      </trkpt>
      <trkpt lat="46.14288" lon="6.41953">
        <ele>615</ele>
        <time>2011-07-24T16:14:12Z</time>
      </trkpt>
      <trkpt lat="46.14286" lon="6.4194">
        <ele>615</ele>
        <time>2011-07-24T16:14:15Z</time>
      </trkpt>
      <trkpt lat="46.14294" lon="6.41936">
        <ele>615</ele>
        <time>2011-07-24T16:15:00Z</time>
      </trkpt>
      <trkpt lat="46.14286" lon="6.41943">
        <ele>615</ele>
        <time>2011-07-24T16:15:49Z</time>
      </trkpt>
      <trkpt lat="46.14283" lon="6.41931">
        <ele>607</ele>
        <time>2011-07-24T16:16:32Z</time>
      </trkpt>
      <trkpt lat="46.14285" lon="6.41915">
        <ele>607</ele>
        <time>2011-07-24T16:16:34Z</time>
      </trkpt>
      <trkpt lat="46.14288" lon="6.4189">
        <ele>607</ele>
        <time>2011-07-24T16:16:36Z</time>
      </trkpt>
      <trkpt lat="46.14288" lon="6.41876">
        <ele>607</ele>
        <time>2011-07-24T16:16:37Z</time>
      </trkpt>
      <trkpt lat="46.14288" lon="6.41861">
        <ele>607</ele>
        <time>2011-07-24T16:16:38Z</time>
      </trkpt>
      <trkpt lat="46.14285" lon="6.41845">
        <ele>607</ele>
        <time>2011-07-24T16:16:39Z</time>
      </trkpt>
      <trkpt lat="46.14283" lon="6.4183">
        <ele>607</ele>
        <time>2011-07-24T16:16:40Z</time>
      </trkpt>
      <trkpt lat="46.14279" lon="6.41816">
        <ele>607</ele>
        <time>2011-07-24T16:16:41Z</time>
      </trkpt>
      <trkpt lat="46.14275" lon="6.41801">
        <ele>607</ele>
        <time>2011-07-24T16:16:42Z</time>
      </trkpt>
      <trkpt lat="46.14271" lon="6.41786">
        <ele>607</ele>
        <time>2011-07-24T16:16:43Z</time>
      </trkpt>
      <trkpt lat="46.14266" lon="6.41771">
        <ele>607</ele>
        <time>2011-07-24T16:16:44Z</time>
      </trkpt>
      <trkpt lat="46.14262" lon="6.41756">
        <ele>607</ele>
        <time>2011-07-24T16:16:45Z</time>
      </trkpt>
      <trkpt lat="46.14258" lon="6.41741">
        <ele>607</ele>
        <time>2011-07-24T16:16:46Z</time>
      </trkpt>
      <trkpt lat="46.14255" lon="6.41727">
        <ele>607</ele>
        <time>2011-07-24T16:16:47Z</time>
      </trkpt>
      <trkpt lat="46.14251" lon="6.41712">
        <ele>607</ele>
        <time>2011-07-24T16:16:48Z</time>
      </trkpt>
      <trkpt lat="46.14248" lon="6.41696">
        <ele>607</ele>
        <time>2011-07-24T16:16:49Z</time>
      </trkpt>
      <trkpt lat="46.14246" lon="6.41681">
        <ele>607</ele>
        <time>2011-07-24T16:16:50Z</time>
      </trkpt>
      <trkpt lat="46.14243" lon="6.41666">
        <ele>607</ele>
        <time>2011-07-24T16:16:51Z</time>
      </trkpt>
      <trkpt lat="46.14241" lon="6.4165">
        <ele>607</ele>
        <time>2011-07-24T16:16:52Z</time>
      </trkpt>
      <trkpt lat="46.1424" lon="6.41636">
        <ele>607</ele>
        <time>2011-07-24T16:16:53Z</time>
      </trkpt>
      <trkpt lat="46.14238" lon="6.41622">
        <ele>607</ele>
        <time>2011-07-24T16:16:54Z</time>
      </trkpt>
      <trkpt lat="46.14236" lon="6.41606">
        <ele>607</ele>
        <time>2011-07-24T16:16:55Z</time>
      </trkpt>
      <trkpt lat="46.14235" lon="6.41591">
        <ele>607</ele>
        <time>2011-07-24T16:16:56Z</time>
      </trkpt>
      <trkpt lat="46.14233" lon="6.41575">
        <ele>607</ele>
        <time>2011-07-24T16:16:57Z</time>
      </trkpt>
      <trkpt lat="46.1423" lon="6.41557">
        <ele>607</ele>
        <time>2011-07-24T16:16:58Z</time>
      </trkpt>
      <trkpt lat="46.14228" lon="6.41539">
        <ele>607</ele>
        <time>2011-07-24T16:16:59Z</time>
      </trkpt>
      <trkpt lat="46.14226" lon="6.41519">
        <ele>607</ele>
        <time>2011-07-24T16:17:00Z</time>
      </trkpt>
      <trkpt lat="46.14224" lon="6.41499">
        <ele>607</ele>
        <time>2011-07-24T16:17:01Z</time>
      </trkpt>
      <trkpt lat="46.14221" lon="6.41478">
        <ele>607</ele>
        <time>2011-07-24T16:17:02Z</time>
      </trkpt>
      <trkpt lat="46.14219" lon="6.41456">
        <ele>607</ele>
        <time>2011-07-24T16:17:03Z</time>
      </trkpt>
      <trkpt lat="46.14216" lon="6.41431">
        <ele>607</ele>
        <time>2011-07-24T16:17:04Z</time>
      </trkpt>
      <trkpt lat="46.14213" lon="6.41405">
        <ele>607</ele>
        <time>2011-07-24T16:17:05Z</time>
      </trkpt>
      <trkpt lat="46.1421" lon="6.41375">
        <ele>607</ele>
        <time>2011-07-24T16:17:06Z</time>
      </trkpt>
      <trkpt lat="46.14206" lon="6.41342">
        <ele>607</ele>
        <time>2011-07-24T16:17:07Z</time>
      </trkpt>
      <trkpt lat="46.14203" lon="6.41311">
        <ele>607</ele>
        <time>2011-07-24T16:17:08Z</time>
      </trkpt>
      <trkpt lat="46.14199" lon="6.41282">
        <ele>607</ele>
        <time>2011-07-24T16:17:09Z</time>
      </trkpt>
      <trkpt lat="46.14196" lon="6.41255">
        <ele>607</ele>
        <time>2011-07-24T16:17:10Z</time>
      </trkpt>
      <trkpt lat="46.14193" lon="6.41228">
        <ele>607</ele>
        <time>2011-07-24T16:17:11Z</time>
      </trkpt>
      <trkpt lat="46.1419" lon="6.41202">
        <ele>607</ele>
        <time>2011-07-24T16:17:12Z</time>
      </trkpt>
      <trkpt lat="46.14186" lon="6.41176">
        <ele>607</ele>
        <time>2011-07-24T16:17:13Z</time>
      </trkpt>
      <trkpt lat="46.14184" lon="6.4115">
        <ele>607</ele>
        <time>2011-07-24T16:17:14Z</time>
      </trkpt>
      <trkpt lat="46.14181" lon="6.41123">
        <ele>607</ele>
        <time>2011-07-24T16:17:15Z</time>
      </trkpt>
      <trkpt lat="46.14178" lon="6.41097">
        <ele>607</ele>
        <time>2011-07-24T16:17:16Z</time>
      </trkpt>
      <trkpt lat="46.14175" lon="6.41072">
        <ele>607</ele>
        <time>2011-07-24T16:17:17Z</time>
      </trkpt>
      <trkpt lat="46.14172" lon="6.41047">
        <ele>607</ele>
        <time>2011-07-24T16:17:18Z</time>
      </trkpt>
      <trkpt lat="46.14169" lon="6.41023">
        <ele>607</ele>
        <time>2011-07-24T16:17:19Z</time>
      </trkpt>
      <trkpt lat="46.14166" lon="6.40999">
        <ele>612</ele>
        <time>2011-07-24T16:17:20Z</time>
      </trkpt>
      <trkpt lat="46.14163" lon="6.40976">
        <ele>612</ele>
        <time>2011-07-24T16:17:21Z</time>
      </trkpt>
      <trkpt lat="46.14161" lon="6.40953">
        <ele>612</ele>
        <time>2011-07-24T16:17:22Z</time>
      </trkpt>
      <trkpt lat="46.1416" lon="6.40931">
        <ele>612</ele>
        <time>2011-07-24T16:17:23Z</time>
      </trkpt>
      <trkpt lat="46.1416" lon="6.40908">
        <ele>612</ele>
        <time>2011-07-24T16:17:24Z</time>
      </trkpt>
      <trkpt lat="46.14161" lon="6.40884">
        <ele>612</ele>
        <time>2011-07-24T16:17:25Z</time>
      </trkpt>
      <trkpt lat="46.14164" lon="6.40861">
        <ele>612</ele>
        <time>2011-07-24T16:17:26Z</time>
      </trkpt>
      <trkpt lat="46.14166" lon="6.40839">
        <ele>612</ele>
        <time>2011-07-24T16:17:27Z</time>
      </trkpt>
      <trkpt lat="46.1417" lon="6.40819">
        <ele>612</ele>
        <time>2011-07-24T16:17:28Z</time>
      </trkpt>
      <trkpt lat="46.14171" lon="6.40797">
        <ele>612</ele>
        <time>2011-07-24T16:17:29Z</time>
      </trkpt>
      <trkpt lat="46.14174" lon="6.40776">
        <ele>612</ele>
        <time>2011-07-24T16:17:30Z</time>
      </trkpt>
      <trkpt lat="46.14176" lon="6.40756">
        <ele>612</ele>
        <time>2011-07-24T16:17:31Z</time>
      </trkpt>
      <trkpt lat="46.14179" lon="6.40737">
        <ele>612</ele>
        <time>2011-07-24T16:17:32Z</time>
      </trkpt>
      <trkpt lat="46.14181" lon="6.40719">
        <ele>612</ele>
        <time>2011-07-24T16:17:33Z</time>
      </trkpt>
      <trkpt lat="46.14184" lon="6.40701">
        <ele>612</ele>
        <time>2011-07-24T16:17:34Z</time>
      </trkpt>
      <trkpt lat="46.14186" lon="6.40686">
        <ele>612</ele>
        <time>2011-07-24T16:17:35Z</time>
      </trkpt>
      <trkpt lat="46.14189" lon="6.4067">
        <ele>612</ele>
        <time>2011-07-24T16:17:36Z</time>
      </trkpt>
      <trkpt lat="46.14191" lon="6.40656">
        <ele>612</ele>
        <time>2011-07-24T16:17:37Z</time>
      </trkpt>
      <trkpt lat="46.14193" lon="6.40642">
        <ele>612</ele>
        <time>2011-07-24T16:17:38Z</time>
      </trkpt>
      <trkpt lat="46.14195" lon="6.40628">
        <ele>612</ele>
        <time>2011-07-24T16:17:39Z</time>
      </trkpt>
      <trkpt lat="46.14198" lon="6.40616">
        <ele>612</ele>
        <time>2011-07-24T16:17:40Z</time>
      </trkpt>
      <trkpt lat="46.14206" lon="6.40597">
        <ele>612</ele>
        <time>2011-07-24T16:17:42Z</time>
      </trkpt>
      <trkpt lat="46.14213" lon="6.40586">
        <ele>612</ele>
        <time>2011-07-24T16:17:44Z</time>
      </trkpt>
      <trkpt lat="46.14215" lon="6.40573">
        <ele>612</ele>
        <time>2011-07-24T16:20:05Z</time>
      </trkpt>
      <trkpt lat="46.14207" lon="6.40582">
        <ele>637</ele>
        <time>2011-07-24T16:22:29Z</time>
      </trkpt>
      <trkpt lat="46.14201" lon="6.40592">
        <ele>649</ele>
        <time>2011-07-24T16:24:03Z</time>
      </trkpt>
      <trkpt lat="46.14207" lon="6.40582">
        <ele>635</ele>
        <time>2011-07-24T16:24:35Z</time>
      </trkpt>
      <trkpt lat="46.14213" lon="6.40572">
        <ele>619</ele>
        <time>2011-07-24T16:24:46Z</time>
      </trkpt>
      <trkpt lat="46.14222" lon="6.40573">
        <ele>627</ele>
        <time>2011-07-24T16:29:53Z</time>
      </trkpt>
      <trkpt lat="46.14228" lon="6.40563">
        <ele>614</ele>
        <time>2011-07-24T16:31:10Z</time>
      </trkpt>
      <trkpt lat="46.1422" lon="6.40572">
        <ele>627</ele>
        <time>2011-07-24T16:33:00Z</time>
      </trkpt>
      <trkpt lat="46.14211" lon="6.40564">
        <ele>627</ele>
        <time>2011-07-24T16:33:04Z</time>
      </trkpt>
      <trkpt lat="46.14205" lon="6.40555">
        <ele>620</ele>
        <time>2011-07-24T16:33:23Z</time>
      </trkpt>
      <trkpt lat="46.14203" lon="6.40537">
        <ele>620</ele>
        <time>2011-07-24T16:33:26Z</time>
      </trkpt>
      <trkpt lat="46.14206" lon="6.40514">
        <ele>620</ele>
        <time>2011-07-24T16:33:28Z</time>
      </trkpt>
      <trkpt lat="46.14208" lon="6.405">
        <ele>620</ele>
        <time>2011-07-24T16:33:29Z</time>
      </trkpt>
      <trkpt lat="46.14209" lon="6.40485">
        <ele>620</ele>
        <time>2011-07-24T16:33:30Z</time>
      </trkpt>
      <trkpt lat="46.14211" lon="6.40472">
        <ele>620</ele>
        <time>2011-07-24T16:33:31Z</time>
      </trkpt>
      <trkpt lat="46.14213" lon="6.40459">
        <ele>620</ele>
        <time>2011-07-24T16:33:32Z</time>
      </trkpt>
      <trkpt lat="46.14219" lon="6.40438">
        <ele>620</ele>
        <time>2011-07-24T16:33:34Z</time>
      </trkpt>
      <trkpt lat="46.14226" lon="6.40424">
        <ele>620</ele>
        <time>2011-07-24T16:33:36Z</time>
      </trkpt>
      <trkpt lat="46.14236" lon="6.40417">
        <ele>620</ele>
        <time>2011-07-24T16:33:38Z</time>
      </trkpt>
      <trkpt lat="46.14248" lon="6.40408">
        <ele>620</ele>
        <time>2011-07-24T16:33:40Z</time>
      </trkpt>
      <trkpt lat="46.14251" lon="6.40392">
        <ele>620</ele>
        <time>2011-07-24T16:33:42Z</time>
      </trkpt>
      <trkpt lat="46.14246" lon="6.40374">
        <ele>620</ele>
        <time>2011-07-24T16:33:44Z</time>
      </trkpt>
      <trkpt lat="46.1424" lon="6.40352">
        <ele>620</ele>
        <time>2011-07-24T16:33:46Z</time>
      </trkpt>
      <trkpt lat="46.14238" lon="6.40327">
        <ele>620</ele>
        <time>2011-07-24T16:33:48Z</time>
      </trkpt>
      <trkpt lat="46.14238" lon="6.40308">
        <ele>620</ele>
        <time>2011-07-24T16:33:50Z</time>
      </trkpt>
      <trkpt lat="46.14245" lon="6.4029">
        <ele>615</ele>
        <time>2011-07-24T16:33:52Z</time>
      </trkpt>
      <trkpt lat="46.14248" lon="6.40272">
        <ele>615</ele>
        <time>2011-07-24T16:33:54Z</time>
      </trkpt>
      <trkpt lat="46.14243" lon="6.40257">
        <ele>615</ele>
        <time>2011-07-24T16:33:56Z</time>
      </trkpt>
      <trkpt lat="46.14229" lon="6.40249">
        <ele>615</ele>
        <time>2011-07-24T16:33:58Z</time>
      </trkpt>
      <trkpt lat="46.14215" lon="6.40239">
        <ele>615</ele>
        <time>2011-07-24T16:34:00Z</time>
      </trkpt>
      <trkpt lat="46.14205" lon="6.40221">
        <ele>615</ele>
        <time>2011-07-24T16:34:02Z</time>
      </trkpt>
      <trkpt lat="46.142" lon="6.40208">
        <ele>615</ele>
        <time>2011-07-24T16:34:04Z</time>
      </trkpt>
      <trkpt lat="46.14191" lon="6.40203">
        <ele>615</ele>
        <time>2011-07-24T16:34:07Z</time>
      </trkpt>
      <trkpt lat="46.14178" lon="6.40209">
        <ele>615</ele>
        <time>2011-07-24T16:34:09Z</time>
      </trkpt>
      <trkpt lat="46.14169" lon="6.40212">
        <ele>615</ele>
        <time>2011-07-24T16:34:10Z</time>
      </trkpt>
      <trkpt lat="46.1416" lon="6.40216">
        <ele>615</ele>
        <time>2011-07-24T16:34:11Z</time>
      </trkpt>
      <trkpt lat="46.1415" lon="6.40219">
        <ele>615</ele>
        <time>2011-07-24T16:34:12Z</time>
      </trkpt>
      <trkpt lat="46.14134" lon="6.40225">
        <ele>615</ele>
        <time>2011-07-24T16:34:14Z</time>
      </trkpt>
      <trkpt lat="46.14122" lon="6.40228">
        <ele>615</ele>
        <time>2011-07-24T16:34:16Z</time>
      </trkpt>
      <trkpt lat="46.1411" lon="6.40234">
        <ele>615</ele>
        <time>2011-07-24T16:34:19Z</time>
      </trkpt>
      <trkpt lat="46.14105" lon="6.4025">
        <ele>615</ele>
        <time>2011-07-24T16:34:22Z</time>
      </trkpt>
      <trkpt lat="46.1409" lon="6.40258">
        <ele>615</ele>
        <time>2011-07-24T16:34:25Z</time>
      </trkpt>
      <trkpt lat="46.14071" lon="6.40261">
        <ele>615</ele>
        <time>2011-07-24T16:34:27Z</time>
      </trkpt>
      <trkpt lat="46.14061" lon="6.40263">
        <ele>615</ele>
        <time>2011-07-24T16:34:28Z</time>
      </trkpt>
      <trkpt lat="46.1405" lon="6.40264">
        <ele>615</ele>
        <time>2011-07-24T16:34:29Z</time>
      </trkpt>
      <trkpt lat="46.14039" lon="6.40266">
        <ele>615</ele>
        <time>2011-07-24T16:34:30Z</time>
      </trkpt>
      <trkpt lat="46.14028" lon="6.40268">
        <ele>615</ele>
        <time>2011-07-24T16:34:31Z</time>
      </trkpt>
      <trkpt lat="46.14018" lon="6.40269">
        <ele>615</ele>
        <time>2011-07-24T16:34:32Z</time>
      </trkpt>
      <trkpt lat="46.14002" lon="6.40271">
        <ele>615</ele>
        <time>2011-07-24T16:34:34Z</time>
      </trkpt>
      <trkpt lat="46.13986" lon="6.40272">
        <ele>615</ele>
        <time>2011-07-24T16:34:36Z</time>
      </trkpt>
      <trkpt lat="46.13969" lon="6.40279">
        <ele>610</ele>
        <time>2011-07-24T16:34:38Z</time>
      </trkpt>
      <trkpt lat="46.13961" lon="6.40285">
        <ele>610</ele>
        <time>2011-07-24T16:34:39Z</time>
      </trkpt>
      <trkpt lat="46.13952" lon="6.40292">
        <ele>610</ele>
        <time>2011-07-24T16:34:40Z</time>
      </trkpt>
      <trkpt lat="46.13944" lon="6.40301">
        <ele>610</ele>
        <time>2011-07-24T16:34:41Z</time>
      </trkpt>
      <trkpt lat="46.13937" lon="6.40309">
        <ele>610</ele>
        <time>2011-07-24T16:34:42Z</time>
      </trkpt>
      <trkpt lat="46.13924" lon="6.40327">
        <ele>610</ele>
        <time>2011-07-24T16:34:44Z</time>
      </trkpt>
      <trkpt lat="46.13908" lon="6.40339">
        <ele>610</ele>
        <time>2011-07-24T16:34:46Z</time>
      </trkpt>
      <trkpt lat="46.13889" lon="6.40343">
        <ele>610</ele>
        <time>2011-07-24T16:34:48Z</time>
      </trkpt>
      <trkpt lat="46.13877" lon="6.40343">
        <ele>610</ele>
        <time>2011-07-24T16:34:49Z</time>
      </trkpt>
      <trkpt lat="46.13866" lon="6.40343">
        <ele>610</ele>
        <time>2011-07-24T16:34:50Z</time>
      </trkpt>
      <trkpt lat="46.13854" lon="6.40344">
        <ele>610</ele>
        <time>2011-07-24T16:34:51Z</time>
      </trkpt>
      <trkpt lat="46.13842" lon="6.40344">
        <ele>610</ele>
        <time>2011-07-24T16:34:52Z</time>
      </trkpt>
      <trkpt lat="46.13831" lon="6.40344">
        <ele>604</ele>
        <time>2011-07-24T16:34:53Z</time>
      </trkpt>
      <trkpt lat="46.1382" lon="6.40344">
        <ele>604</ele>
        <time>2011-07-24T16:34:54Z</time>
      </trkpt>
      <trkpt lat="46.1381" lon="6.40345">
        <ele>604</ele>
        <time>2011-07-24T16:34:55Z</time>
      </trkpt>
      <trkpt lat="46.138" lon="6.40345">
        <ele>604</ele>
        <time>2011-07-24T16:34:56Z</time>
      </trkpt>
      <trkpt lat="46.13782" lon="6.40343">
        <ele>604</ele>
        <time>2011-07-24T16:34:58Z</time>
      </trkpt>
      <trkpt lat="46.13773" lon="6.4034">
        <ele>604</ele>
        <time>2011-07-24T16:34:59Z</time>
      </trkpt>
      <trkpt lat="46.13756" lon="6.40334">
        <ele>604</ele>
        <time>2011-07-24T16:35:01Z</time>
      </trkpt>
      <trkpt lat="46.13741" lon="6.40328">
        <ele>599</ele>
        <time>2011-07-24T16:35:03Z</time>
      </trkpt>
      <trkpt lat="46.13729" lon="6.40322">
        <ele>599</ele>
        <time>2011-07-24T16:35:05Z</time>
      </trkpt>
      <trkpt lat="46.13717" lon="6.40311">
        <ele>599</ele>
        <time>2011-07-24T16:35:07Z</time>
      </trkpt>
      <trkpt lat="46.13708" lon="6.40301">
        <ele>599</ele>
        <time>2011-07-24T16:35:09Z</time>
      </trkpt>
      <trkpt lat="46.13699" lon="6.40286">
        <ele>599</ele>
        <time>2011-07-24T16:35:12Z</time>
      </trkpt>
      <trkpt lat="46.13691" lon="6.40265">
        <ele>599</ele>
        <time>2011-07-24T16:35:14Z</time>
      </trkpt>
      <trkpt lat="46.13687" lon="6.40253">
        <ele>599</ele>
        <time>2011-07-24T16:35:15Z</time>
      </trkpt>
      <trkpt lat="46.13682" lon="6.40239">
        <ele>599</ele>
        <time>2011-07-24T16:35:16Z</time>
      </trkpt>
      <trkpt lat="46.13677" lon="6.40225">
        <ele>599</ele>
        <time>2011-07-24T16:35:17Z</time>
      </trkpt>
      <trkpt lat="46.13672" lon="6.4021">
        <ele>599</ele>
        <time>2011-07-24T16:35:18Z</time>
      </trkpt>
      <trkpt lat="46.13668" lon="6.40197">
        <ele>599</ele>
        <time>2011-07-24T16:35:19Z</time>
      </trkpt>
      <trkpt lat="46.13663" lon="6.40184">
        <ele>599</ele>
        <time>2011-07-24T16:35:20Z</time>
      </trkpt>
      <trkpt lat="46.13653" lon="6.40166">
        <ele>599</ele>
        <time>2011-07-24T16:35:22Z</time>
      </trkpt>
      <trkpt lat="46.13641" lon="6.40152">
        <ele>599</ele>
        <time>2011-07-24T16:35:24Z</time>
      </trkpt>
      <trkpt lat="46.13626" lon="6.40143">
        <ele>593</ele>
        <time>2011-07-24T16:35:26Z</time>
      </trkpt>
      <trkpt lat="46.13612" lon="6.40139">
        <ele>593</ele>
        <time>2011-07-24T16:35:28Z</time>
      </trkpt>
      <trkpt lat="46.13599" lon="6.4014">
        <ele>593</ele>
        <time>2011-07-24T16:35:30Z</time>
      </trkpt>
      <trkpt lat="46.13584" lon="6.40148">
        <ele>593</ele>
        <time>2011-07-24T16:35:32Z</time>
      </trkpt>
      <trkpt lat="46.13576" lon="6.40154">
        <ele>593</ele>
        <time>2011-07-24T16:35:33Z</time>
      </trkpt>
      <trkpt lat="46.13567" lon="6.40161">
        <ele>593</ele>
        <time>2011-07-24T16:35:34Z</time>
      </trkpt>
      <trkpt lat="46.13559" lon="6.40169">
        <ele>593</ele>
        <time>2011-07-24T16:35:35Z</time>
      </trkpt>
      <trkpt lat="46.13551" lon="6.40176">
        <ele>593</ele>
        <time>2011-07-24T16:35:36Z</time>
      </trkpt>
      <trkpt lat="46.13536" lon="6.40191">
        <ele>593</ele>
        <time>2011-07-24T16:35:38Z</time>
      </trkpt>
      <trkpt lat="46.13521" lon="6.40202">
        <ele>593</ele>
        <time>2011-07-24T16:35:40Z</time>
      </trkpt>
      <trkpt lat="46.13508" lon="6.4021">
        <ele>593</ele>
        <time>2011-07-24T16:35:42Z</time>
      </trkpt>
      <trkpt lat="46.13498" lon="6.40203">
        <ele>593</ele>
        <time>2011-07-24T16:35:44Z</time>
      </trkpt>
      <trkpt lat="46.13485" lon="6.40188">
        <ele>593</ele>
        <time>2011-07-24T16:35:46Z</time>
      </trkpt>
      <trkpt lat="46.1347" lon="6.40172">
        <ele>593</ele>
        <time>2011-07-24T16:35:48Z</time>
      </trkpt>
      <trkpt lat="46.13463" lon="6.40164">
        <ele>593</ele>
        <time>2011-07-24T16:35:49Z</time>
      </trkpt>
      <trkpt lat="46.13455" lon="6.40156">
        <ele>593</ele>
        <time>2011-07-24T16:35:50Z</time>
      </trkpt>
      <trkpt lat="46.13447" lon="6.40148">
        <ele>593</ele>
        <time>2011-07-24T16:35:51Z</time>
      </trkpt>
      <trkpt lat="46.13439" lon="6.4014">
        <ele>599</ele>
        <time>2011-07-24T16:35:52Z</time>
      </trkpt>
      <trkpt lat="46.1343" lon="6.40131">
        <ele>599</ele>
        <time>2011-07-24T16:35:53Z</time>
      </trkpt>
      <trkpt lat="46.13421" lon="6.40123">
        <ele>599</ele>
        <time>2011-07-24T16:35:54Z</time>
      </trkpt>
      <trkpt lat="46.13413" lon="6.40115">
        <ele>599</ele>
        <time>2011-07-24T16:35:55Z</time>
      </trkpt>
      <trkpt lat="46.13404" lon="6.40106">
        <ele>599</ele>
        <time>2011-07-24T16:35:56Z</time>
      </trkpt>
      <trkpt lat="46.13395" lon="6.40098">
        <ele>599</ele>
        <time>2011-07-24T16:35:57Z</time>
      </trkpt>
      <trkpt lat="46.13387" lon="6.4009">
        <ele>604</ele>
        <time>2011-07-24T16:35:58Z</time>
      </trkpt>
      <trkpt lat="46.13378" lon="6.40084">
        <ele>604</ele>
        <time>2011-07-24T16:35:59Z</time>
      </trkpt>
      <trkpt lat="46.13365" lon="6.40072">
        <ele>604</ele>
        <time>2011-07-24T16:36:01Z</time>
      </trkpt>
      <trkpt lat="46.13351" lon="6.40062">
        <ele>604</ele>
        <time>2011-07-24T16:36:03Z</time>
      </trkpt>
      <trkpt lat="46.13343" lon="6.40056">
        <ele>604</ele>
        <time>2011-07-24T16:36:04Z</time>
      </trkpt>
      <trkpt lat="46.13328" lon="6.40044">
        <ele>610</ele>
        <time>2011-07-24T16:36:06Z</time>
      </trkpt>
      <trkpt lat="46.13316" lon="6.40034">
        <ele>610</ele>
        <time>2011-07-24T16:36:08Z</time>
      </trkpt>
      <trkpt lat="46.13308" lon="6.40028">
        <ele>610</ele>
        <time>2011-07-24T16:36:10Z</time>
      </trkpt>
      <trkpt lat="46.13298" lon="6.40024">
        <ele>610</ele>
        <time>2011-07-24T16:36:13Z</time>
      </trkpt>
      <trkpt lat="46.13291" lon="6.40034">
        <ele>610</ele>
        <time>2011-07-24T16:36:21Z</time>
      </trkpt>
      <trkpt lat="46.1329" lon="6.40048">
        <ele>610</ele>
        <time>2011-07-24T16:36:23Z</time>
      </trkpt>
      <trkpt lat="46.13288" lon="6.40069">
        <ele>610</ele>
        <time>2011-07-24T16:36:25Z</time>
      </trkpt>
      <trkpt lat="46.13284" lon="6.40097">
        <ele>610</ele>
        <time>2011-07-24T16:36:27Z</time>
      </trkpt>
      <trkpt lat="46.13282" lon="6.40113">
        <ele>610</ele>
        <time>2011-07-24T16:36:28Z</time>
      </trkpt>
      <trkpt lat="46.1328" lon="6.4013">
        <ele>610</ele>
        <time>2011-07-24T16:36:29Z</time>
      </trkpt>
      <trkpt lat="46.13278" lon="6.40147">
        <ele>610</ele>
        <time>2011-07-24T16:36:30Z</time>
      </trkpt>
      <trkpt lat="46.13275" lon="6.40165">
        <ele>610</ele>
        <time>2011-07-24T16:36:31Z</time>
      </trkpt>
      <trkpt lat="46.13273" lon="6.40184">
        <ele>610</ele>
        <time>2011-07-24T16:36:32Z</time>
      </trkpt>
      <trkpt lat="46.1327" lon="6.40202">
        <ele>610</ele>
        <time>2011-07-24T16:36:33Z</time>
      </trkpt>
      <trkpt lat="46.13268" lon="6.4022">
        <ele>610</ele>
        <time>2011-07-24T16:36:34Z</time>
      </trkpt>
      <trkpt lat="46.13265" lon="6.40239">
        <ele>610</ele>
        <time>2011-07-24T16:36:35Z</time>
      </trkpt>
      <trkpt lat="46.13263" lon="6.40259">
        <ele>610</ele>
        <time>2011-07-24T16:36:36Z</time>
      </trkpt>
      <trkpt lat="46.13261" lon="6.4028">
        <ele>610</ele>
        <time>2011-07-24T16:36:37Z</time>
      </trkpt>
      <trkpt lat="46.13258" lon="6.40301">
        <ele>610</ele>
        <time>2011-07-24T16:36:38Z</time>
      </trkpt>
      <trkpt lat="46.13255" lon="6.40324">
        <ele>610</ele>
        <time>2011-07-24T16:36:39Z</time>
      </trkpt>
      <trkpt lat="46.13253" lon="6.40346">
        <ele>610</ele>
        <time>2011-07-24T16:36:40Z</time>
      </trkpt>
      <trkpt lat="46.13251" lon="6.40369">
        <ele>610</ele>
        <time>2011-07-24T16:36:41Z</time>
      </trkpt>
      <trkpt lat="46.13249" lon="6.40391">
        <ele>610</ele>
        <time>2011-07-24T16:36:42Z</time>
      </trkpt>
      <trkpt lat="46.13248" lon="6.40413">
        <ele>610</ele>
        <time>2011-07-24T16:36:43Z</time>
      </trkpt>
      <trkpt lat="46.13248" lon="6.40432">
        <ele>610</ele>
        <time>2011-07-24T16:36:44Z</time>
      </trkpt>
      <trkpt lat="46.13248" lon="6.4045">
        <ele>610</ele>
        <time>2011-07-24T16:36:45Z</time>
      </trkpt>
      <trkpt lat="46.13247" lon="6.40467">
        <ele>610</ele>
        <time>2011-07-24T16:36:46Z</time>
      </trkpt>
      <trkpt lat="46.13246" lon="6.40483">
        <ele>610</ele>
        <time>2011-07-24T16:36:47Z</time>
      </trkpt>
      <trkpt lat="46.13245" lon="6.40499">
        <ele>610</ele>
        <time>2011-07-24T16:36:48Z</time>
      </trkpt>
      <trkpt lat="46.13245" lon="6.40514">
        <ele>610</ele>
        <time>2011-07-24T16:36:49Z</time>
      </trkpt>
      <trkpt lat="46.13245" lon="6.40528">
        <ele>610</ele>
        <time>2011-07-24T16:36:50Z</time>
      </trkpt>
      <trkpt lat="46.13243" lon="6.40552">
        <ele>610</ele>
        <time>2011-07-24T16:36:52Z</time>
      </trkpt>
      <trkpt lat="46.13237" lon="6.40573">
        <ele>610</ele>
        <time>2011-07-24T16:36:54Z</time>
      </trkpt>
      <trkpt lat="46.13222" lon="6.40585">
        <ele>610</ele>
        <time>2011-07-24T16:36:56Z</time>
      </trkpt>
      <trkpt lat="46.13212" lon="6.40589">
        <ele>610</ele>
        <time>2011-07-24T16:36:57Z</time>
      </trkpt>
      <trkpt lat="46.13197" lon="6.4059">
        <ele>610</ele>
        <time>2011-07-24T16:36:59Z</time>
      </trkpt>
      <trkpt lat="46.13185" lon="6.40592">
        <ele>610</ele>
        <time>2011-07-24T16:37:02Z</time>
      </trkpt>
      <trkpt lat="46.13172" lon="6.40597">
        <ele>610</ele>
        <time>2011-07-24T16:37:04Z</time>
      </trkpt>
      <trkpt lat="46.13155" lon="6.40605">
        <ele>610</ele>
        <time>2011-07-24T16:37:06Z</time>
      </trkpt>
      <trkpt lat="46.13147" lon="6.40609">
        <ele>610</ele>
        <time>2011-07-24T16:37:07Z</time>
      </trkpt>
      <trkpt lat="46.13138" lon="6.40616">
        <ele>610</ele>
        <time>2011-07-24T16:37:08Z</time>
      </trkpt>
      <trkpt lat="46.13129" lon="6.40623">
        <ele>610</ele>
        <time>2011-07-24T16:37:09Z</time>
      </trkpt>
      <trkpt lat="46.1312" lon="6.4063">
        <ele>610</ele>
        <time>2011-07-24T16:37:10Z</time>
      </trkpt>
      <trkpt lat="46.13111" lon="6.40636">
        <ele>610</ele>
        <time>2011-07-24T16:37:11Z</time>
      </trkpt>
      <trkpt lat="46.13102" lon="6.4064">
        <ele>610</ele>
        <time>2011-07-24T16:37:12Z</time>
      </trkpt>
      <trkpt lat="46.13085" lon="6.40643">
        <ele>610</ele>
        <time>2011-07-24T16:37:14Z</time>
      </trkpt>
      <trkpt lat="46.13069" lon="6.40635">
        <ele>610</ele>
        <time>2011-07-24T16:37:16Z</time>
      </trkpt>
      <trkpt lat="46.13057" lon="6.4062">
        <ele>610</ele>
        <time>2011-07-24T16:37:18Z</time>
      </trkpt>
      <trkpt lat="46.13049" lon="6.40599">
        <ele>610</ele>
        <time>2011-07-24T16:37:20Z</time>
      </trkpt>
      <trkpt lat="46.13047" lon="6.40586">
        <ele>610</ele>
        <time>2011-07-24T16:37:21Z</time>
      </trkpt>
      <trkpt lat="46.13044" lon="6.40564">
        <ele>610</ele>
        <time>2011-07-24T16:37:23Z</time>
      </trkpt>
      <trkpt lat="46.13042" lon="6.40537">
        <ele>610</ele>
        <time>2011-07-24T16:37:25Z</time>
      </trkpt>
      <trkpt lat="46.13042" lon="6.40523">
        <ele>610</ele>
        <time>2011-07-24T16:37:26Z</time>
      </trkpt>
      <trkpt lat="46.13041" lon="6.40508">
        <ele>610</ele>
        <time>2011-07-24T16:37:27Z</time>
      </trkpt>
      <trkpt lat="46.1304" lon="6.40493">
        <ele>610</ele>
        <time>2011-07-24T16:37:28Z</time>
      </trkpt>
      <trkpt lat="46.13039" lon="6.40479">
        <ele>610</ele>
        <time>2011-07-24T16:37:29Z</time>
      </trkpt>
      <trkpt lat="46.13037" lon="6.40456">
        <ele>610</ele>
        <time>2011-07-24T16:37:31Z</time>
      </trkpt>
      <trkpt lat="46.13035" lon="6.40437">
        <ele>610</ele>
        <time>2011-07-24T16:37:33Z</time>
      </trkpt>
      <trkpt lat="46.13032" lon="6.40422">
        <ele>610</ele>
        <time>2011-07-24T16:37:35Z</time>
      </trkpt>
      <trkpt lat="46.13031" lon="6.40405">
        <ele>610</ele>
        <time>2011-07-24T16:37:37Z</time>
      </trkpt>
      <trkpt lat="46.13029" lon="6.40382">
        <ele>610</ele>
        <time>2011-07-24T16:37:39Z</time>
      </trkpt>
      <trkpt lat="46.13026" lon="6.40362">
        <ele>610</ele>
        <time>2011-07-24T16:37:41Z</time>
      </trkpt>
      <trkpt lat="46.13022" lon="6.40338">
        <ele>610</ele>
        <time>2011-07-24T16:37:43Z</time>
      </trkpt>
      <trkpt lat="46.13019" lon="6.40325">
        <ele>610</ele>
        <time>2011-07-24T16:37:44Z</time>
      </trkpt>
      <trkpt lat="46.13015" lon="6.40311">
        <ele>610</ele>
        <time>2011-07-24T16:37:45Z</time>
      </trkpt>
      <trkpt lat="46.13008" lon="6.4029">
        <ele>610</ele>
        <time>2011-07-24T16:37:47Z</time>
      </trkpt>
      <trkpt lat="46.13" lon="6.40277">
        <ele>610</ele>
        <time>2011-07-24T16:37:49Z</time>
      </trkpt>
      <trkpt lat="46.12986" lon="6.40278">
        <ele>610</ele>
        <time>2011-07-24T16:37:52Z</time>
      </trkpt>
      <trkpt lat="46.12974" lon="6.40292">
        <ele>610</ele>
        <time>2011-07-24T16:37:54Z</time>
      </trkpt>
      <trkpt lat="46.12967" lon="6.40303">
        <ele>610</ele>
        <time>2011-07-24T16:37:55Z</time>
      </trkpt>
      <trkpt lat="46.12961" lon="6.40314">
        <ele>610</ele>
        <time>2011-07-24T16:37:56Z</time>
      </trkpt>
      <trkpt lat="46.12954" lon="6.40325">
        <ele>610</ele>
        <time>2011-07-24T16:37:57Z</time>
      </trkpt>
      <trkpt lat="46.12943" lon="6.40344">
        <ele>610</ele>
        <time>2011-07-24T16:37:59Z</time>
      </trkpt>
      <trkpt lat="46.12936" lon="6.40361">
        <ele>610</ele>
        <time>2011-07-24T16:38:01Z</time>
      </trkpt>
      <trkpt lat="46.1293" lon="6.40374">
        <ele>610</ele>
        <time>2011-07-24T16:38:04Z</time>
      </trkpt>
      <trkpt lat="46.12934" lon="6.4036">
        <ele>610</ele>
        <time>2011-07-24T16:38:59Z</time>
      </trkpt>
      <trkpt lat="46.12942" lon="6.4035">
        <ele>610</ele>
        <time>2011-07-24T16:39:10Z</time>
      </trkpt>
      <trkpt lat="46.12951" lon="6.40337">
        <ele>610</ele>
        <time>2011-07-24T16:39:12Z</time>
      </trkpt>
      <trkpt lat="46.12957" lon="6.40327">
        <ele>610</ele>
        <time>2011-07-24T16:39:13Z</time>
      </trkpt>
      <trkpt lat="46.12964" lon="6.40316">
        <ele>610</ele>
        <time>2011-07-24T16:39:14Z</time>
      </trkpt>
      <trkpt lat="46.12972" lon="6.40305">
        <ele>610</ele>
        <time>2011-07-24T16:39:15Z</time>
      </trkpt>
      <trkpt lat="46.12979" lon="6.40293">
        <ele>610</ele>
        <time>2011-07-24T16:39:16Z</time>
      </trkpt>
      <trkpt lat="46.12986" lon="6.40283">
        <ele>610</ele>
        <time>2011-07-24T16:39:17Z</time>
      </trkpt>
      <trkpt lat="46.12997" lon="6.40273">
        <ele>610</ele>
        <time>2011-07-24T16:39:19Z</time>
      </trkpt>
      <trkpt lat="46.13004" lon="6.40282">
        <ele>610</ele>
        <time>2011-07-24T16:39:21Z</time>
      </trkpt>
      <trkpt lat="46.13007" lon="6.40296">
        <ele>610</ele>
        <time>2011-07-24T16:39:22Z</time>
      </trkpt>
      <trkpt lat="46.13012" lon="6.40314">
        <ele>610</ele>
        <time>2011-07-24T16:39:23Z</time>
      </trkpt>
      <trkpt lat="46.13017" lon="6.40334">
        <ele>610</ele>
        <time>2011-07-24T16:39:24Z</time>
      </trkpt>
      <trkpt lat="46.13022" lon="6.40354">
        <ele>610</ele>
        <time>2011-07-24T16:39:25Z</time>
      </trkpt>
      <trkpt lat="46.13026" lon="6.40376">
        <ele>610</ele>
        <time>2011-07-24T16:39:26Z</time>
      </trkpt>
      <trkpt lat="46.13028" lon="6.40398">
        <ele>610</ele>
        <time>2011-07-24T16:39:27Z</time>
      </trkpt>
      <trkpt lat="46.1303" lon="6.4042">
        <ele>610</ele>
        <time>2011-07-24T16:39:28Z</time>
      </trkpt>
      <trkpt lat="46.13032" lon="6.40441">
        <ele>610</ele>
        <time>2011-07-24T16:39:29Z</time>
      </trkpt>
      <trkpt lat="46.13034" lon="6.40461">
        <ele>610</ele>
        <time>2011-07-24T16:39:30Z</time>
      </trkpt>
      <trkpt lat="46.13037" lon="6.4048">
        <ele>610</ele>
        <time>2011-07-24T16:39:31Z</time>
      </trkpt>
      <trkpt lat="46.13039" lon="6.40499">
        <ele>610</ele>
        <time>2011-07-24T16:39:32Z</time>
      </trkpt>
      <trkpt lat="46.1304" lon="6.40519">
        <ele>610</ele>
        <time>2011-07-24T16:39:33Z</time>
      </trkpt>
      <trkpt lat="46.13041" lon="6.40537">
        <ele>610</ele>
        <time>2011-07-24T16:39:34Z</time>
      </trkpt>
      <trkpt lat="46.13042" lon="6.40555">
        <ele>610</ele>
        <time>2011-07-24T16:39:35Z</time>
      </trkpt>
      <trkpt lat="46.13044" lon="6.40571">
        <ele>610</ele>
        <time>2011-07-24T16:39:36Z</time>
      </trkpt>
      <trkpt lat="46.13046" lon="6.40586">
        <ele>610</ele>
        <time>2011-07-24T16:39:37Z</time>
      </trkpt>
      <trkpt lat="46.13048" lon="6.406">
        <ele>610</ele>
        <time>2011-07-24T16:39:38Z</time>
      </trkpt>
      <trkpt lat="46.13052" lon="6.40614">
        <ele>610</ele>
        <time>2011-07-24T16:39:39Z</time>
      </trkpt>
      <trkpt lat="46.13058" lon="6.40626">
        <ele>610</ele>
        <time>2011-07-24T16:39:40Z</time>
      </trkpt>
      <trkpt lat="46.13064" lon="6.40638">
        <ele>610</ele>
        <time>2011-07-24T16:39:41Z</time>
      </trkpt>
      <trkpt lat="46.13073" lon="6.40647">
        <ele>610</ele>
        <time>2011-07-24T16:39:42Z</time>
      </trkpt>
      <trkpt lat="46.13082" lon="6.40652">
        <ele>610</ele>
        <time>2011-07-24T16:39:43Z</time>
      </trkpt>
      <trkpt lat="46.13093" lon="6.40652">
        <ele>610</ele>
        <time>2011-07-24T16:39:44Z</time>
      </trkpt>
      <trkpt lat="46.13103" lon="6.40649">
        <ele>610</ele>
        <time>2011-07-24T16:39:45Z</time>
      </trkpt>
      <trkpt lat="46.13113" lon="6.40644">
        <ele>610</ele>
        <time>2011-07-24T16:39:46Z</time>
      </trkpt>
      <trkpt lat="46.13123" lon="6.40637">
        <ele>610</ele>
        <time>2011-07-24T16:39:47Z</time>
      </trkpt>
      <trkpt lat="46.13134" lon="6.40628">
        <ele>610</ele>
        <time>2011-07-24T16:39:48Z</time>
      </trkpt>
      <trkpt lat="46.13145" lon="6.40619">
        <ele>610</ele>
        <time>2011-07-24T16:39:49Z</time>
      </trkpt>
      <trkpt lat="46.13157" lon="6.40611">
        <ele>610</ele>
        <time>2011-07-24T16:39:50Z</time>
      </trkpt>
      <trkpt lat="46.13169" lon="6.40605">
        <ele>610</ele>
        <time>2011-07-24T16:39:51Z</time>
      </trkpt>
      <trkpt lat="46.13178" lon="6.406">
        <ele>610</ele>
        <time>2011-07-24T16:39:52Z</time>
      </trkpt>
      <trkpt lat="46.13187" lon="6.40597">
        <ele>610</ele>
        <time>2011-07-24T16:39:53Z</time>
      </trkpt>
      <trkpt lat="46.13201" lon="6.40593">
        <ele>610</ele>
        <time>2011-07-24T16:39:55Z</time>
      </trkpt>
      <trkpt lat="46.13215" lon="6.4059">
        <ele>610</ele>
        <time>2011-07-24T16:39:57Z</time>
      </trkpt>
      <trkpt lat="46.13229" lon="6.40589">
        <ele>610</ele>
        <time>2011-07-24T16:39:59Z</time>
      </trkpt>
      <trkpt lat="46.13238" lon="6.40592">
        <ele>610</ele>
        <time>2011-07-24T16:40:01Z</time>
      </trkpt>
      <trkpt lat="46.13247" lon="6.40607">
        <ele>610</ele>
        <time>2011-07-24T16:40:04Z</time>
      </trkpt>
      <trkpt lat="46.1325" lon="6.40631">
        <ele>610</ele>
        <time>2011-07-24T16:40:06Z</time>
      </trkpt>
      <trkpt lat="46.13251" lon="6.40646">
        <ele>610</ele>
        <time>2011-07-24T16:40:07Z</time>
      </trkpt>
      <trkpt lat="46.13251" lon="6.40664">
        <ele>610</ele>
        <time>2011-07-24T16:40:08Z</time>
      </trkpt>
      <trkpt lat="46.13251" lon="6.40686">
        <ele>610</ele>
        <time>2011-07-24T16:40:09Z</time>
      </trkpt>
      <trkpt lat="46.13252" lon="6.40709">
        <ele>610</ele>
        <time>2011-07-24T16:40:10Z</time>
      </trkpt>
      <trkpt lat="46.13252" lon="6.40734">
        <ele>610</ele>
        <time>2011-07-24T16:40:11Z</time>
      </trkpt>
      <trkpt lat="46.13253" lon="6.40761">
        <ele>610</ele>
        <time>2011-07-24T16:40:12Z</time>
      </trkpt>
      <trkpt lat="46.13253" lon="6.40788">
        <ele>610</ele>
        <time>2011-07-24T16:40:13Z</time>
      </trkpt>
      <trkpt lat="46.13253" lon="6.40816">
        <ele>610</ele>
        <time>2011-07-24T16:40:14Z</time>
      </trkpt>
      <trkpt lat="46.13253" lon="6.40844">
        <ele>610</ele>
        <time>2011-07-24T16:40:15Z</time>
      </trkpt>
      <trkpt lat="46.13253" lon="6.40873">
        <ele>610</ele>
        <time>2011-07-24T16:40:16Z</time>
      </trkpt>
      <trkpt lat="46.13252" lon="6.40901">
        <ele>610</ele>
        <time>2011-07-24T16:40:17Z</time>
      </trkpt>
      <trkpt lat="46.1325" lon="6.40928">
        <ele>610</ele>
        <time>2011-07-24T16:40:18Z</time>
      </trkpt>
      <trkpt lat="46.13248" lon="6.40956">
        <ele>610</ele>
        <time>2011-07-24T16:40:19Z</time>
      </trkpt>
      <trkpt lat="46.13245" lon="6.40983">
        <ele>610</ele>
        <time>2011-07-24T16:40:20Z</time>
      </trkpt>
      <trkpt lat="46.13243" lon="6.4101">
        <ele>616</ele>
        <time>2011-07-24T16:40:21Z</time>
      </trkpt>
      <trkpt lat="46.13241" lon="6.41037">
        <ele>616</ele>
        <time>2011-07-24T16:40:22Z</time>
      </trkpt>
      <trkpt lat="46.13239" lon="6.41063">
        <ele>616</ele>
        <time>2011-07-24T16:40:23Z</time>
      </trkpt>
      <trkpt lat="46.13238" lon="6.41088">
        <ele>616</ele>
        <time>2011-07-24T16:40:24Z</time>
      </trkpt>
      <trkpt lat="46.13236" lon="6.41113">
        <ele>616</ele>
        <time>2011-07-24T16:40:25Z</time>
      </trkpt>
      <trkpt lat="46.13235" lon="6.41138">
        <ele>616</ele>
        <time>2011-07-24T16:40:26Z</time>
      </trkpt>
      <trkpt lat="46.13233" lon="6.41164">
        <ele>616</ele>
        <time>2011-07-24T16:40:27Z</time>
      </trkpt>
      <trkpt lat="46.13232" lon="6.41189">
        <ele>616</ele>
        <time>2011-07-24T16:40:28Z</time>
      </trkpt>
      <trkpt lat="46.1323" lon="6.41214">
        <ele>616</ele>
        <time>2011-07-24T16:40:29Z</time>
      </trkpt>
      <trkpt lat="46.13228" lon="6.4124">
        <ele>616</ele>
        <time>2011-07-24T16:40:30Z</time>
      </trkpt>
      <trkpt lat="46.13225" lon="6.41265">
        <ele>616</ele>
        <time>2011-07-24T16:40:31Z</time>
      </trkpt>
      <trkpt lat="46.13223" lon="6.41289">
        <ele>616</ele>
        <time>2011-07-24T16:40:32Z</time>
      </trkpt>
      <trkpt lat="46.13219" lon="6.41314">
        <ele>616</ele>
        <time>2011-07-24T16:40:33Z</time>
      </trkpt>
      <trkpt lat="46.13215" lon="6.41339">
        <ele>621</ele>
        <time>2011-07-24T16:40:34Z</time>
      </trkpt>
      <trkpt lat="46.13212" lon="6.41363">
        <ele>621</ele>
        <time>2011-07-24T16:40:35Z</time>
      </trkpt>
      <trkpt lat="46.13207" lon="6.41387">
        <ele>621</ele>
        <time>2011-07-24T16:40:36Z</time>
      </trkpt>
      <trkpt lat="46.13204" lon="6.41411">
        <ele>621</ele>
        <time>2011-07-24T16:40:37Z</time>
      </trkpt>
      <trkpt lat="46.13201" lon="6.4143">
        <ele>621</ele>
        <time>2011-07-24T16:40:38Z</time>
      </trkpt>
      <trkpt lat="46.13199" lon="6.41447">
        <ele>621</ele>
        <time>2011-07-24T16:40:39Z</time>
      </trkpt>
      <trkpt lat="46.13197" lon="6.41464">
        <ele>621</ele>
        <time>2011-07-24T16:40:41Z</time>
      </trkpt>
      <trkpt lat="46.13199" lon="6.41483">
        <ele>621</ele>
        <time>2011-07-24T16:40:46Z</time>
      </trkpt>
      <trkpt lat="46.13197" lon="6.4151">
        <ele>621</ele>
        <time>2011-07-24T16:40:48Z</time>
      </trkpt>
      <trkpt lat="46.13197" lon="6.41526">
        <ele>621</ele>
        <time>2011-07-24T16:40:49Z</time>
      </trkpt>
      <trkpt lat="46.13197" lon="6.41542">
        <ele>621</ele>
        <time>2011-07-24T16:40:50Z</time>
      </trkpt>
      <trkpt lat="46.13198" lon="6.41556">
        <ele>621</ele>
        <time>2011-07-24T16:40:51Z</time>
      </trkpt>
      <trkpt lat="46.13199" lon="6.4157">
        <ele>621</ele>
        <time>2011-07-24T16:40:52Z</time>
      </trkpt>
      <trkpt lat="46.132" lon="6.41593">
        <ele>621</ele>
        <time>2011-07-24T16:40:54Z</time>
      </trkpt>
      <trkpt lat="46.13199" lon="6.41612">
        <ele>621</ele>
        <time>2011-07-24T16:40:56Z</time>
      </trkpt>
      <trkpt lat="46.13188" lon="6.41622">
        <ele>621</ele>
        <time>2011-07-24T16:40:59Z</time>
      </trkpt>
      <trkpt lat="46.13179" lon="6.41616">
        <ele>621</ele>
        <time>2011-07-24T16:41:19Z</time>
      </trkpt>
      <trkpt lat="46.13166" lon="6.41617">
        <ele>621</ele>
        <time>2011-07-24T16:41:21Z</time>
      </trkpt>
      <trkpt lat="46.1315" lon="6.41618">
        <ele>621</ele>
        <time>2011-07-24T16:41:23Z</time>
      </trkpt>
      <trkpt lat="46.13139" lon="6.41619">
        <ele>621</ele>
        <time>2011-07-24T16:41:24Z</time>
      </trkpt>
      <trkpt lat="46.13125" lon="6.41619">
        <ele>621</ele>
        <time>2011-07-24T16:41:25Z</time>
      </trkpt>
      <trkpt lat="46.13112" lon="6.4162">
        <ele>621</ele>
        <time>2011-07-24T16:41:26Z</time>
      </trkpt>
      <trkpt lat="46.13099" lon="6.41621">
        <ele>621</ele>
        <time>2011-07-24T16:41:27Z</time>
      </trkpt>
      <trkpt lat="46.13085" lon="6.41622">
        <ele>621</ele>
        <time>2011-07-24T16:41:28Z</time>
      </trkpt>
      <trkpt lat="46.13074" lon="6.41623">
        <ele>621</ele>
        <time>2011-07-24T16:41:29Z</time>
      </trkpt>
      <trkpt lat="46.13062" lon="6.41623">
        <ele>621</ele>
        <time>2011-07-24T16:41:30Z</time>
      </trkpt>
      <trkpt lat="46.13053" lon="6.41624">
        <ele>621</ele>
        <time>2011-07-24T16:41:31Z</time>
      </trkpt>
      <trkpt lat="46.13038" lon="6.41625">
        <ele>621</ele>
        <time>2011-07-24T16:41:33Z</time>
      </trkpt>
      <trkpt lat="46.13024" lon="6.4163">
        <ele>621</ele>
        <time>2011-07-24T16:41:35Z</time>
      </trkpt>
      <trkpt lat="46.13015" lon="6.41633">
        <ele>621</ele>
        <time>2011-07-24T16:41:36Z</time>
      </trkpt>
      <trkpt lat="46.13005" lon="6.41638">
        <ele>621</ele>
        <time>2011-07-24T16:41:37Z</time>
      </trkpt>
      <trkpt lat="46.12995" lon="6.41644">
        <ele>621</ele>
        <time>2011-07-24T16:41:38Z</time>
      </trkpt>
      <trkpt lat="46.12984" lon="6.4165">
        <ele>621</ele>
        <time>2011-07-24T16:41:39Z</time>
      </trkpt>
      <trkpt lat="46.12976" lon="6.41657">
        <ele>621</ele>
        <time>2011-07-24T16:41:40Z</time>
      </trkpt>
      <trkpt lat="46.12962" lon="6.41664">
        <ele>621</ele>
        <time>2011-07-24T16:41:42Z</time>
      </trkpt>
      <trkpt lat="46.12952" lon="6.41656">
        <ele>621</ele>
        <time>2011-07-24T16:41:49Z</time>
      </trkpt>
      <trkpt lat="46.12951" lon="6.41634">
        <ele>621</ele>
        <time>2011-07-24T16:41:52Z</time>
      </trkpt>
      <trkpt lat="46.12951" lon="6.41618">
        <ele>621</ele>
        <time>2011-07-24T16:41:54Z</time>
      </trkpt>
      <trkpt lat="46.1295" lon="6.41603">
        <ele>621</ele>
        <time>2011-07-24T16:41:58Z</time>
      </trkpt>
      <trkpt lat="46.12949" lon="6.41589">
        <ele>621</ele>
        <time>2011-07-24T16:42:12Z</time>
      </trkpt>
      <trkpt lat="46.12947" lon="6.41573">
        <ele>621</ele>
        <time>2011-07-24T16:42:15Z</time>
      </trkpt>
      <trkpt lat="46.12944" lon="6.41561">
        <ele>621</ele>
        <time>2011-07-24T16:42:17Z</time>
      </trkpt>
      <trkpt lat="46.12941" lon="6.41544">
        <ele>621</ele>
        <time>2011-07-24T16:42:20Z</time>
      </trkpt>
      <trkpt lat="46.12937" lon="6.41525">
        <ele>621</ele>
        <time>2011-07-24T16:42:23Z</time>
      </trkpt>
      <trkpt lat="46.12934" lon="6.41504">
        <ele>621</ele>
        <time>2011-07-24T16:42:25Z</time>
      </trkpt>
      <trkpt lat="46.1293" lon="6.41478">
        <ele>621</ele>
        <time>2011-07-24T16:42:27Z</time>
      </trkpt>
      <trkpt lat="46.12927" lon="6.41464">
        <ele>621</ele>
        <time>2011-07-24T16:42:28Z</time>
      </trkpt>
      <trkpt lat="46.12925" lon="6.41448">
        <ele>621</ele>
        <time>2011-07-24T16:42:29Z</time>
      </trkpt>
      <trkpt lat="46.12922" lon="6.41431">
        <ele>621</ele>
        <time>2011-07-24T16:42:30Z</time>
      </trkpt>
      <trkpt lat="46.1292" lon="6.41414">
        <ele>621</ele>
        <time>2011-07-24T16:42:31Z</time>
      </trkpt>
      <trkpt lat="46.12917" lon="6.41397">
        <ele>621</ele>
        <time>2011-07-24T16:42:32Z</time>
      </trkpt>
      <trkpt lat="46.12913" lon="6.41378">
        <ele>621</ele>
        <time>2011-07-24T16:42:33Z</time>
      </trkpt>
      <trkpt lat="46.12909" lon="6.41359">
        <ele>621</ele>
        <time>2011-07-24T16:42:34Z</time>
      </trkpt>
      <trkpt lat="46.12905" lon="6.41339">
        <ele>621</ele>
        <time>2011-07-24T16:42:35Z</time>
      </trkpt>
      <trkpt lat="46.12901" lon="6.41318">
        <ele>621</ele>
        <time>2011-07-24T16:42:36Z</time>
      </trkpt>
      <trkpt lat="46.12896" lon="6.41299">
        <ele>621</ele>
        <time>2011-07-24T16:42:37Z</time>
      </trkpt>
      <trkpt lat="46.12891" lon="6.41281">
        <ele>621</ele>
        <time>2011-07-24T16:42:38Z</time>
      </trkpt>
      <trkpt lat="46.12887" lon="6.41263">
        <ele>621</ele>
        <time>2011-07-24T16:42:39Z</time>
      </trkpt>
      <trkpt lat="46.12882" lon="6.41244">
        <ele>621</ele>
        <time>2011-07-24T16:42:40Z</time>
      </trkpt>
      <trkpt lat="46.12878" lon="6.41226">
        <ele>621</ele>
        <time>2011-07-24T16:42:41Z</time>
      </trkpt>
      <trkpt lat="46.12874" lon="6.4121">
        <ele>621</ele>
        <time>2011-07-24T16:42:42Z</time>
      </trkpt>
      <trkpt lat="46.12869" lon="6.41194">
        <ele>621</ele>
        <time>2011-07-24T16:42:43Z</time>
      </trkpt>
      <trkpt lat="46.12866" lon="6.4118">
        <ele>621</ele>
        <time>2011-07-24T16:42:44Z</time>
      </trkpt>
      <trkpt lat="46.12862" lon="6.41167">
        <ele>621</ele>
        <time>2011-07-24T16:42:45Z</time>
      </trkpt>
      <trkpt lat="46.12857" lon="6.41149">
        <ele>621</ele>
        <time>2011-07-24T16:42:47Z</time>
      </trkpt>
      <trkpt lat="46.12849" lon="6.41141">
        <ele>621</ele>
        <time>2011-07-24T16:42:50Z</time>
      </trkpt>
      <trkpt lat="46.12836" lon="6.41146">
        <ele>621</ele>
        <time>2011-07-24T16:42:53Z</time>
      </trkpt>
      <trkpt lat="46.12824" lon="6.41153">
        <ele>621</ele>
        <time>2011-07-24T16:42:55Z</time>
      </trkpt>
      <trkpt lat="46.12808" lon="6.41163">
        <ele>621</ele>
        <time>2011-07-24T16:42:57Z</time>
      </trkpt>
      <trkpt lat="46.12791" lon="6.41174">
        <ele>621</ele>
        <time>2011-07-24T16:42:59Z</time>
      </trkpt>
      <trkpt lat="46.12783" lon="6.4118">
        <ele>621</ele>
        <time>2011-07-24T16:43:00Z</time>
      </trkpt>
      <trkpt lat="46.12774" lon="6.41186">
        <ele>621</ele>
        <time>2011-07-24T16:43:01Z</time>
      </trkpt>
      <trkpt lat="46.12764" lon="6.41192">
        <ele>621</ele>
        <time>2011-07-24T16:43:02Z</time>
      </trkpt>
      <trkpt lat="46.12756" lon="6.41199">
        <ele>626</ele>
        <time>2011-07-24T16:43:03Z</time>
      </trkpt>
      <trkpt lat="46.12747" lon="6.41204">
        <ele>626</ele>
        <time>2011-07-24T16:43:04Z</time>
      </trkpt>
      <trkpt lat="46.12731" lon="6.41215">
        <ele>626</ele>
        <time>2011-07-24T16:43:06Z</time>
      </trkpt>
      <trkpt lat="46.12717" lon="6.41224">
        <ele>626</ele>
        <time>2011-07-24T16:43:08Z</time>
      </trkpt>
      <trkpt lat="46.12702" lon="6.41235">
        <ele>632</ele>
        <time>2011-07-24T16:43:11Z</time>
      </trkpt>
      <trkpt lat="46.12691" lon="6.41242">
        <ele>632</ele>
        <time>2011-07-24T16:43:14Z</time>
      </trkpt>
      <trkpt lat="46.12681" lon="6.4125">
        <ele>632</ele>
        <time>2011-07-24T16:43:16Z</time>
      </trkpt>
      <trkpt lat="46.12669" lon="6.41259">
        <ele>632</ele>
        <time>2011-07-24T16:43:18Z</time>
      </trkpt>
      <trkpt lat="46.12654" lon="6.41269">
        <ele>637</ele>
        <time>2011-07-24T16:43:20Z</time>
      </trkpt>
      <trkpt lat="46.12638" lon="6.41279">
        <ele>637</ele>
        <time>2011-07-24T16:43:22Z</time>
      </trkpt>
      <trkpt lat="46.12621" lon="6.4129">
        <ele>637</ele>
        <time>2011-07-24T16:43:24Z</time>
      </trkpt>
      <trkpt lat="46.12612" lon="6.41297">
        <ele>637</ele>
        <time>2011-07-24T16:43:25Z</time>
      </trkpt>
      <trkpt lat="46.12603" lon="6.41304">
        <ele>637</ele>
        <time>2011-07-24T16:43:26Z</time>
      </trkpt>
      <trkpt lat="46.12593" lon="6.41311">
        <ele>643</ele>
        <time>2011-07-24T16:43:27Z</time>
      </trkpt>
      <trkpt lat="46.12583" lon="6.41318">
        <ele>643</ele>
        <time>2011-07-24T16:43:28Z</time>
      </trkpt>
      <trkpt lat="46.12575" lon="6.41324">
        <ele>643</ele>
        <time>2011-07-24T16:43:29Z</time>
      </trkpt>
      <trkpt lat="46.12561" lon="6.41332">
        <ele>643</ele>
        <time>2011-07-24T16:43:31Z</time>
      </trkpt>
      <trkpt lat="46.12548" lon="6.4134">
        <ele>650</ele>
        <time>2011-07-24T16:43:33Z</time>
      </trkpt>
      <trkpt lat="46.12531" lon="6.4135">
        <ele>650</ele>
        <time>2011-07-24T16:43:35Z</time>
      </trkpt>
      <trkpt lat="46.12522" lon="6.41356">
        <ele>650</ele>
        <time>2011-07-24T16:43:36Z</time>
      </trkpt>
      <trkpt lat="46.12507" lon="6.41367">
        <ele>650</ele>
        <time>2011-07-24T16:43:38Z</time>
      </trkpt>
      <trkpt lat="46.12499" lon="6.41373">
        <ele>656</ele>
        <time>2011-07-24T16:43:39Z</time>
      </trkpt>
      <trkpt lat="46.12482" lon="6.41382">
        <ele>656</ele>
        <time>2011-07-24T16:43:41Z</time>
      </trkpt>
      <trkpt lat="46.12473" lon="6.41385">
        <ele>656</ele>
        <time>2011-07-24T16:43:42Z</time>
      </trkpt>
      <trkpt lat="46.12464" lon="6.4139">
        <ele>656</ele>
        <time>2011-07-24T16:43:43Z</time>
      </trkpt>
      <trkpt lat="46.12447" lon="6.41395">
        <ele>663</ele>
        <time>2011-07-24T16:43:45Z</time>
      </trkpt>
      <trkpt lat="46.12431" lon="6.41402">
        <ele>663</ele>
        <time>2011-07-24T16:43:47Z</time>
      </trkpt>
      <trkpt lat="46.12414" lon="6.41411">
        <ele>669</ele>
        <time>2011-07-24T16:43:49Z</time>
      </trkpt>
      <trkpt lat="46.12397" lon="6.4142">
        <ele>669</ele>
        <time>2011-07-24T16:43:51Z</time>
      </trkpt>
      <trkpt lat="46.12388" lon="6.41424">
        <ele>669</ele>
        <time>2011-07-24T16:43:52Z</time>
      </trkpt>
      <trkpt lat="46.1238" lon="6.4143">
        <ele>674</ele>
        <time>2011-07-24T16:43:53Z</time>
      </trkpt>
      <trkpt lat="46.1237" lon="6.41433">
        <ele>674</ele>
        <time>2011-07-24T16:43:54Z</time>
      </trkpt>
      <trkpt lat="46.12357" lon="6.41438">
        <ele>674</ele>
        <time>2011-07-24T16:43:56Z</time>
      </trkpt>
      <trkpt lat="46.12348" lon="6.41442">
        <ele>680</ele>
        <time>2011-07-24T16:43:59Z</time>
      </trkpt>
      <trkpt lat="46.12338" lon="6.4143">
        <ele>680</ele>
        <time>2011-07-24T16:44:18Z</time>
      </trkpt>
      <trkpt lat="46.12332" lon="6.4142">
        <ele>680</ele>
        <time>2011-07-24T16:44:19Z</time>
      </trkpt>
      <trkpt lat="46.12323" lon="6.41408">
        <ele>680</ele>
        <time>2011-07-24T16:44:20Z</time>
      </trkpt>
      <trkpt lat="46.12315" lon="6.41394">
        <ele>680</ele>
        <time>2011-07-24T16:44:21Z</time>
      </trkpt>
      <trkpt lat="46.12307" lon="6.4138">
        <ele>680</ele>
        <time>2011-07-24T16:44:22Z</time>
      </trkpt>
      <trkpt lat="46.12298" lon="6.41367">
        <ele>680</ele>
        <time>2011-07-24T16:44:23Z</time>
      </trkpt>
      <trkpt lat="46.1229" lon="6.41356">
        <ele>680</ele>
        <time>2011-07-24T16:44:24Z</time>
      </trkpt>
      <trkpt lat="46.12284" lon="6.41346">
        <ele>680</ele>
        <time>2011-07-24T16:44:25Z</time>
      </trkpt>
      <trkpt lat="46.12275" lon="6.41332">
        <ele>680</ele>
        <time>2011-07-24T16:44:27Z</time>
      </trkpt>
      <trkpt lat="46.12266" lon="6.41329">
        <ele>685</ele>
        <time>2011-07-24T16:44:29Z</time>
      </trkpt>
      <trkpt lat="46.12254" lon="6.41332">
        <ele>685</ele>
        <time>2011-07-24T16:44:31Z</time>
      </trkpt>
      <trkpt lat="46.12239" lon="6.41341">
        <ele>685</ele>
        <time>2011-07-24T16:44:33Z</time>
      </trkpt>
      <trkpt lat="46.1223" lon="6.41347">
        <ele>685</ele>
        <time>2011-07-24T16:44:34Z</time>
      </trkpt>
      <trkpt lat="46.1222" lon="6.4135">
        <ele>691</ele>
        <time>2011-07-24T16:44:35Z</time>
      </trkpt>
      <trkpt lat="46.1221" lon="6.41354">
        <ele>691</ele>
        <time>2011-07-24T16:44:36Z</time>
      </trkpt>
      <trkpt lat="46.122" lon="6.41357">
        <ele>691</ele>
        <time>2011-07-24T16:44:37Z</time>
      </trkpt>
      <trkpt lat="46.12191" lon="6.4136">
        <ele>691</ele>
        <time>2011-07-24T16:44:38Z</time>
      </trkpt>
      <trkpt lat="46.12182" lon="6.41367">
        <ele>691</ele>
        <time>2011-07-24T16:44:39Z</time>
      </trkpt>
      <trkpt lat="46.12174" lon="6.41374">
        <ele>697</ele>
        <time>2011-07-24T16:44:40Z</time>
      </trkpt>
      <trkpt lat="46.12166" lon="6.41383">
        <ele>697</ele>
        <time>2011-07-24T16:44:41Z</time>
      </trkpt>
      <trkpt lat="46.12157" lon="6.41399">
        <ele>697</ele>
        <time>2011-07-24T16:44:43Z</time>
      </trkpt>
      <trkpt lat="46.12146" lon="6.41406">
        <ele>697</ele>
        <time>2011-07-24T16:44:46Z</time>
      </trkpt>
      <trkpt lat="46.12143" lon="6.41389">
        <ele>704</ele>
        <time>2011-07-24T16:44:48Z</time>
      </trkpt>
      <trkpt lat="46.12146" lon="6.41368">
        <ele>704</ele>
        <time>2011-07-24T16:44:50Z</time>
      </trkpt>
      <trkpt lat="46.12147" lon="6.4135">
        <ele>704</ele>
        <time>2011-07-24T16:44:52Z</time>
      </trkpt>
      <trkpt lat="46.12148" lon="6.41336">
        <ele>710</ele>
        <time>2011-07-24T16:44:54Z</time>
      </trkpt>
      <trkpt lat="46.12146" lon="6.41351">
        <ele>710</ele>
        <time>2011-07-24T16:45:03Z</time>
      </trkpt>
      <trkpt lat="46.12145" lon="6.4137">
        <ele>710</ele>
        <time>2011-07-24T16:45:06Z</time>
      </trkpt>
      <trkpt lat="46.12145" lon="6.41386">
        <ele>710</ele>
        <time>2011-07-24T16:45:08Z</time>
      </trkpt>
      <trkpt lat="46.12147" lon="6.41403">
        <ele>710</ele>
        <time>2011-07-24T16:45:10Z</time>
      </trkpt>
      <trkpt lat="46.12152" lon="6.41415">
        <ele>710</ele>
        <time>2011-07-24T16:45:12Z</time>
      </trkpt>
      <trkpt lat="46.12155" lon="6.41434">
        <ele>710</ele>
        <time>2011-07-24T16:45:15Z</time>
      </trkpt>
      <trkpt lat="46.12152" lon="6.41452">
        <ele>710</ele>
        <time>2011-07-24T16:45:17Z</time>
      </trkpt>
      <trkpt lat="46.12148" lon="6.41474">
        <ele>710</ele>
        <time>2011-07-24T16:45:19Z</time>
      </trkpt>
      <trkpt lat="46.12144" lon="6.41491">
        <ele>710</ele>
        <time>2011-07-24T16:45:21Z</time>
      </trkpt>
      <trkpt lat="46.12135" lon="6.41502">
        <ele>710</ele>
        <time>2011-07-24T16:45:23Z</time>
      </trkpt>
      <trkpt lat="46.12119" lon="6.4152">
        <ele>710</ele>
        <time>2011-07-24T16:45:25Z</time>
      </trkpt>
      <trkpt lat="46.1211" lon="6.41532">
        <ele>710</ele>
        <time>2011-07-24T16:45:26Z</time>
      </trkpt>
      <trkpt lat="46.121" lon="6.41543">
        <ele>715</ele>
        <time>2011-07-24T16:45:27Z</time>
      </trkpt>
      <trkpt lat="46.12092" lon="6.41553">
        <ele>715</ele>
        <time>2011-07-24T16:45:28Z</time>
      </trkpt>
      <trkpt lat="46.12084" lon="6.41562">
        <ele>715</ele>
        <time>2011-07-24T16:45:29Z</time>
      </trkpt>
      <trkpt lat="46.12076" lon="6.41574">
        <ele>721</ele>
        <time>2011-07-24T16:45:30Z</time>
      </trkpt>
      <trkpt lat="46.12068" lon="6.41588">
        <ele>721</ele>
        <time>2011-07-24T16:45:31Z</time>
      </trkpt>
      <trkpt lat="46.12061" lon="6.41601">
        <ele>721</ele>
        <time>2011-07-24T16:45:32Z</time>
      </trkpt>
      <trkpt lat="46.12055" lon="6.41615">
        <ele>728</ele>
        <time>2011-07-24T16:45:33Z</time>
      </trkpt>
      <trkpt lat="46.12049" lon="6.41626">
        <ele>728</ele>
        <time>2011-07-24T16:45:34Z</time>
      </trkpt>
      <trkpt lat="46.12044" lon="6.41638">
        <ele>728</ele>
        <time>2011-07-24T16:45:35Z</time>
      </trkpt>
      <trkpt lat="46.12035" lon="6.41659">
        <ele>735</ele>
        <time>2011-07-24T16:45:37Z</time>
      </trkpt>
      <trkpt lat="46.12027" lon="6.41674">
        <ele>735</ele>
        <time>2011-07-24T16:45:39Z</time>
      </trkpt>
      <trkpt lat="46.12016" lon="6.41685">
        <ele>742</ele>
        <time>2011-07-24T16:45:41Z</time>
      </trkpt>
      <trkpt lat="46.12006" lon="6.41693">
        <ele>742</ele>
        <time>2011-07-24T16:45:43Z</time>
      </trkpt>
      <trkpt lat="46.11993" lon="6.41705">
        <ele>747</ele>
        <time>2011-07-24T16:45:45Z</time>
      </trkpt>
      <trkpt lat="46.11983" lon="6.41721">
        <ele>747</ele>
        <time>2011-07-24T16:45:47Z</time>
      </trkpt>
      <trkpt lat="46.11971" lon="6.41737">
        <ele>752</ele>
        <time>2011-07-24T16:45:49Z</time>
      </trkpt>
      <trkpt lat="46.11959" lon="6.41752">
        <ele>752</ele>
        <time>2011-07-24T16:45:51Z</time>
      </trkpt>
      <trkpt lat="46.11948" lon="6.41765">
        <ele>759</ele>
        <time>2011-07-24T16:45:53Z</time>
      </trkpt>
      <trkpt lat="46.1194" lon="6.41778">
        <ele>759</ele>
        <time>2011-07-24T16:45:55Z</time>
      </trkpt>
      <trkpt lat="46.11936" lon="6.41791">
        <ele>759</ele>
        <time>2011-07-24T16:45:57Z</time>
      </trkpt>
      <trkpt lat="46.11941" lon="6.41801">
        <ele>759</ele>
        <time>2011-07-24T16:45:59Z</time>
      </trkpt>
      <trkpt lat="46.11951" lon="6.4181">
        <ele>759</ele>
        <time>2011-07-24T16:46:01Z</time>
      </trkpt>
      <trkpt lat="46.11958" lon="6.41823">
        <ele>759</ele>
        <time>2011-07-24T16:46:04Z</time>
      </trkpt>
      <trkpt lat="46.11954" lon="6.41836">
        <ele>759</ele>
        <time>2011-07-24T16:46:07Z</time>
      </trkpt>
      <trkpt lat="46.11945" lon="6.41845">
        <ele>764</ele>
        <time>2011-07-24T16:46:10Z</time>
      </trkpt>
      <trkpt lat="46.11934" lon="6.41845">
        <ele>764</ele>
        <time>2011-07-24T16:46:12Z</time>
      </trkpt>
      <trkpt lat="46.11921" lon="6.41842">
        <ele>764</ele>
        <time>2011-07-24T16:46:14Z</time>
      </trkpt>
      <trkpt lat="46.1191" lon="6.41837">
        <ele>772</ele>
        <time>2011-07-24T16:46:16Z</time>
      </trkpt>
      <trkpt lat="46.11907" lon="6.41824">
        <ele>772</ele>
        <time>2011-07-24T16:46:19Z</time>
      </trkpt>
      <trkpt lat="46.11912" lon="6.41809">
        <ele>777</ele>
        <time>2011-07-24T16:46:30Z</time>
      </trkpt>
      <trkpt lat="46.11916" lon="6.41794">
        <ele>777</ele>
        <time>2011-07-24T16:46:32Z</time>
      </trkpt>
      <trkpt lat="46.11922" lon="6.41774">
        <ele>777</ele>
        <time>2011-07-24T16:46:34Z</time>
      </trkpt>
      <trkpt lat="46.11932" lon="6.4175">
        <ele>777</ele>
        <time>2011-07-24T16:46:36Z</time>
      </trkpt>
      <trkpt lat="46.11937" lon="6.41739">
        <ele>777</ele>
        <time>2011-07-24T16:46:37Z</time>
      </trkpt>
      <trkpt lat="46.11942" lon="6.41727">
        <ele>777</ele>
        <time>2011-07-24T16:46:38Z</time>
      </trkpt>
      <trkpt lat="46.11949" lon="6.41703">
        <ele>777</ele>
        <time>2011-07-24T16:46:40Z</time>
      </trkpt>
      <trkpt lat="46.11951" lon="6.4169">
        <ele>772</ele>
        <time>2011-07-24T16:46:41Z</time>
      </trkpt>
      <trkpt lat="46.11951" lon="6.41675">
        <ele>772</ele>
        <time>2011-07-24T16:46:42Z</time>
      </trkpt>
      <trkpt lat="46.11951" lon="6.41657">
        <ele>766</ele>
        <time>2011-07-24T16:46:43Z</time>
      </trkpt>
      <trkpt lat="46.11951" lon="6.41638">
        <ele>766</ele>
        <time>2011-07-24T16:46:44Z</time>
      </trkpt>
      <trkpt lat="46.11951" lon="6.41618">
        <ele>766</ele>
        <time>2011-07-24T16:46:45Z</time>
      </trkpt>
      <trkpt lat="46.11951" lon="6.41597">
        <ele>766</ele>
        <time>2011-07-24T16:46:46Z</time>
      </trkpt>
      <trkpt lat="46.11952" lon="6.41577">
        <ele>760</ele>
        <time>2011-07-24T16:46:47Z</time>
      </trkpt>
      <trkpt lat="46.11953" lon="6.41555">
        <ele>760</ele>
        <time>2011-07-24T16:46:48Z</time>
      </trkpt>
      <trkpt lat="46.11954" lon="6.41535">
        <ele>760</ele>
        <time>2011-07-24T16:46:49Z</time>
      </trkpt>
      <trkpt lat="46.11956" lon="6.41516">
        <ele>760</ele>
        <time>2011-07-24T16:46:50Z</time>
      </trkpt>
      <trkpt lat="46.11958" lon="6.41497">
        <ele>755</ele>
        <time>2011-07-24T16:46:51Z</time>
      </trkpt>
      <trkpt lat="46.11959" lon="6.41478">
        <ele>755</ele>
        <time>2011-07-24T16:46:52Z</time>
      </trkpt>
      <trkpt lat="46.11961" lon="6.4146">
        <ele>755</ele>
        <time>2011-07-24T16:46:53Z</time>
      </trkpt>
      <trkpt lat="46.11963" lon="6.41442">
        <ele>755</ele>
        <time>2011-07-24T16:46:54Z</time>
      </trkpt>
      <trkpt lat="46.11966" lon="6.41423">
        <ele>755</ele>
        <time>2011-07-24T16:46:55Z</time>
      </trkpt>
      <trkpt lat="46.11971" lon="6.41405">
        <ele>750</ele>
        <time>2011-07-24T16:46:56Z</time>
      </trkpt>
      <trkpt lat="46.11975" lon="6.41387">
        <ele>750</ele>
        <time>2011-07-24T16:46:57Z</time>
      </trkpt>
      <trkpt lat="46.11979" lon="6.4137">
        <ele>750</ele>
        <time>2011-07-24T16:46:58Z</time>
      </trkpt>
      <trkpt lat="46.11983" lon="6.41353">
        <ele>750</ele>
        <time>2011-07-24T16:46:59Z</time>
      </trkpt>
      <trkpt lat="46.11986" lon="6.41335">
        <ele>750</ele>
        <time>2011-07-24T16:47:00Z</time>
      </trkpt>
      <trkpt lat="46.11988" lon="6.41318">
        <ele>744</ele>
        <time>2011-07-24T16:47:01Z</time>
      </trkpt>
      <trkpt lat="46.11992" lon="6.41302">
        <ele>744</ele>
        <time>2011-07-24T16:47:02Z</time>
      </trkpt>
      <trkpt lat="46.11996" lon="6.41284">
        <ele>744</ele>
        <time>2011-07-24T16:47:03Z</time>
      </trkpt>
      <trkpt lat="46.12001" lon="6.41268">
        <ele>744</ele>
        <time>2011-07-24T16:47:04Z</time>
      </trkpt>
      <trkpt lat="46.12006" lon="6.41252">
        <ele>744</ele>
        <time>2011-07-24T16:47:05Z</time>
      </trkpt>
      <trkpt lat="46.12011" lon="6.41235">
        <ele>738</ele>
        <time>2011-07-24T16:47:06Z</time>
      </trkpt>
      <trkpt lat="46.12016" lon="6.4122">
        <ele>738</ele>
        <time>2011-07-24T16:47:07Z</time>
      </trkpt>
      <trkpt lat="46.12021" lon="6.41205">
        <ele>738</ele>
        <time>2011-07-24T16:47:08Z</time>
      </trkpt>
      <trkpt lat="46.12025" lon="6.4119">
        <ele>738</ele>
        <time>2011-07-24T16:47:09Z</time>
      </trkpt>
      <trkpt lat="46.12029" lon="6.41175">
        <ele>738</ele>
        <time>2011-07-24T16:47:10Z</time>
      </trkpt>
      <trkpt lat="46.12034" lon="6.41162">
        <ele>738</ele>
        <time>2011-07-24T16:47:11Z</time>
      </trkpt>
      <trkpt lat="46.12038" lon="6.41149">
        <ele>738</ele>
        <time>2011-07-24T16:47:12Z</time>
      </trkpt>
      <trkpt lat="46.12042" lon="6.41136">
        <ele>733</ele>
        <time>2011-07-24T16:47:13Z</time>
      </trkpt>
      <trkpt lat="46.12045" lon="6.41123">
        <ele>733</ele>
        <time>2011-07-24T16:47:14Z</time>
      </trkpt>
      <trkpt lat="46.12049" lon="6.41111">
        <ele>733</ele>
        <time>2011-07-24T16:47:15Z</time>
      </trkpt>
      <trkpt lat="46.12052" lon="6.41098">
        <ele>733</ele>
        <time>2011-07-24T16:47:16Z</time>
      </trkpt>
      <trkpt lat="46.12054" lon="6.41085">
        <ele>733</ele>
        <time>2011-07-24T16:47:17Z</time>
      </trkpt>
      <trkpt lat="46.12057" lon="6.41073">
        <ele>733</ele>
        <time>2011-07-24T16:47:18Z</time>
      </trkpt>
      <trkpt lat="46.1206" lon="6.41059">
        <ele>727</ele>
        <time>2011-07-24T16:47:19Z</time>
      </trkpt>
      <trkpt lat="46.12063" lon="6.41044">
        <ele>727</ele>
        <time>2011-07-24T16:47:20Z</time>
      </trkpt>
      <trkpt lat="46.12067" lon="6.4103">
        <ele>727</ele>
        <time>2011-07-24T16:47:21Z</time>
      </trkpt>
      <trkpt lat="46.12074" lon="6.41014">
        <ele>727</ele>
        <time>2011-07-24T16:47:22Z</time>
      </trkpt>
      <trkpt lat="46.1208" lon="6.41">
        <ele>727</ele>
        <time>2011-07-24T16:47:23Z</time>
      </trkpt>
      <trkpt lat="46.12086" lon="6.40987">
        <ele>727</ele>
        <time>2011-07-24T16:47:24Z</time>
      </trkpt>
      <trkpt lat="46.12092" lon="6.40973">
        <ele>722</ele>
        <time>2011-07-24T16:47:25Z</time>
      </trkpt>
      <trkpt lat="46.12098" lon="6.40961">
        <ele>722</ele>
        <time>2011-07-24T16:47:26Z</time>
      </trkpt>
      <trkpt lat="46.12104" lon="6.40948">
        <ele>722</ele>
        <time>2011-07-24T16:47:27Z</time>
      </trkpt>
      <trkpt lat="46.12109" lon="6.40935">
        <ele>722</ele>
        <time>2011-07-24T16:47:28Z</time>
      </trkpt>
      <trkpt lat="46.12114" lon="6.40924">
        <ele>722</ele>
        <time>2011-07-24T16:47:29Z</time>
      </trkpt>
      <trkpt lat="46.12124" lon="6.40902">
        <ele>722</ele>
        <time>2011-07-24T16:47:31Z</time>
      </trkpt>
      <trkpt lat="46.12132" lon="6.40882">
        <ele>722</ele>
        <time>2011-07-24T16:47:33Z</time>
      </trkpt>
      <trkpt lat="46.12139" lon="6.40867">
        <ele>722</ele>
        <time>2011-07-24T16:47:35Z</time>
      </trkpt>
      <trkpt lat="46.12144" lon="6.40855">
        <ele>722</ele>
        <time>2011-07-24T16:47:37Z</time>
      </trkpt>
      <trkpt lat="46.12147" lon="6.40839">
        <ele>717</ele>
        <time>2011-07-24T16:47:40Z</time>
      </trkpt>
      <trkpt lat="46.12141" lon="6.40827">
        <ele>717</ele>
        <time>2011-07-24T16:47:42Z</time>
      </trkpt>
      <trkpt lat="46.12129" lon="6.40807">
        <ele>717</ele>
        <time>2011-07-24T16:47:44Z</time>
      </trkpt>
      <trkpt lat="46.12122" lon="6.40795">
        <ele>717</ele>
        <time>2011-07-24T16:47:45Z</time>
      </trkpt>
      <trkpt lat="46.12114" lon="6.40782">
        <ele>717</ele>
        <time>2011-07-24T16:47:46Z</time>
      </trkpt>
      <trkpt lat="46.12104" lon="6.40767">
        <ele>717</ele>
        <time>2011-07-24T16:47:47Z</time>
      </trkpt>
      <trkpt lat="46.12095" lon="6.40752">
        <ele>717</ele>
        <time>2011-07-24T16:47:48Z</time>
      </trkpt>
      <trkpt lat="46.12085" lon="6.40736">
        <ele>717</ele>
        <time>2011-07-24T16:47:49Z</time>
      </trkpt>
      <trkpt lat="46.12075" lon="6.40718">
        <ele>717</ele>
        <time>2011-07-24T16:47:50Z</time>
      </trkpt>
      <trkpt lat="46.12067" lon="6.40698">
        <ele>717</ele>
        <time>2011-07-24T16:47:51Z</time>
      </trkpt>
      <trkpt lat="46.12058" lon="6.40678">
        <ele>717</ele>
        <time>2011-07-24T16:47:52Z</time>
      </trkpt>
      <trkpt lat="46.12049" lon="6.40656">
        <ele>717</ele>
        <time>2011-07-24T16:47:53Z</time>
      </trkpt>
      <trkpt lat="46.12039" lon="6.40634">
        <ele>717</ele>
        <time>2011-07-24T16:47:54Z</time>
      </trkpt>
      <trkpt lat="46.12029" lon="6.40612">
        <ele>723</ele>
        <time>2011-07-24T16:47:55Z</time>
      </trkpt>
      <trkpt lat="46.12021" lon="6.4059">
        <ele>723</ele>
        <time>2011-07-24T16:47:56Z</time>
      </trkpt>
      <trkpt lat="46.12011" lon="6.40571">
        <ele>723</ele>
        <time>2011-07-24T16:47:57Z</time>
      </trkpt>
      <trkpt lat="46.12003" lon="6.40552">
        <ele>723</ele>
        <time>2011-07-24T16:47:58Z</time>
      </trkpt>
      <trkpt lat="46.11996" lon="6.40536">
        <ele>723</ele>
        <time>2011-07-24T16:47:59Z</time>
      </trkpt>
      <trkpt lat="46.11987" lon="6.40521">
        <ele>728</ele>
        <time>2011-07-24T16:48:00Z</time>
      </trkpt>
      <trkpt lat="46.11979" lon="6.40511">
        <ele>728</ele>
        <time>2011-07-24T16:48:01Z</time>
      </trkpt>
      <trkpt lat="46.11971" lon="6.40502">
        <ele>728</ele>
        <time>2011-07-24T16:48:02Z</time>
      </trkpt>
      <trkpt lat="46.11962" lon="6.40497">
        <ele>728</ele>
        <time>2011-07-24T16:48:03Z</time>
      </trkpt>
      <trkpt lat="46.11951" lon="6.40498">
        <ele>728</ele>
        <time>2011-07-24T16:48:04Z</time>
      </trkpt>
      <trkpt lat="46.11939" lon="6.40502">
        <ele>728</ele>
        <time>2011-07-24T16:48:05Z</time>
      </trkpt>
      <trkpt lat="46.11925" lon="6.40511">
        <ele>728</ele>
        <time>2011-07-24T16:48:06Z</time>
      </trkpt>
      <trkpt lat="46.11912" lon="6.40522">
        <ele>728</ele>
        <time>2011-07-24T16:48:07Z</time>
      </trkpt>
      <trkpt lat="46.119" lon="6.40534">
        <ele>728</ele>
        <time>2011-07-24T16:48:08Z</time>
      </trkpt>
      <trkpt lat="46.11887" lon="6.40545">
        <ele>728</ele>
        <time>2011-07-24T16:48:09Z</time>
      </trkpt>
      <trkpt lat="46.11874" lon="6.40554">
        <ele>728</ele>
        <time>2011-07-24T16:48:10Z</time>
      </trkpt>
      <trkpt lat="46.11861" lon="6.40561">
        <ele>728</ele>
        <time>2011-07-24T16:48:11Z</time>
      </trkpt>
      <trkpt lat="46.11848" lon="6.40567">
        <ele>728</ele>
        <time>2011-07-24T16:48:12Z</time>
      </trkpt>
      <trkpt lat="46.11835" lon="6.40572">
        <ele>728</ele>
        <time>2011-07-24T16:48:13Z</time>
      </trkpt>
      <trkpt lat="46.11821" lon="6.40573">
        <ele>728</ele>
        <time>2011-07-24T16:48:14Z</time>
      </trkpt>
      <trkpt lat="46.11806" lon="6.40575">
        <ele>728</ele>
        <time>2011-07-24T16:48:15Z</time>
      </trkpt>
      <trkpt lat="46.11792" lon="6.40577">
        <ele>728</ele>
        <time>2011-07-24T16:48:16Z</time>
      </trkpt>
      <trkpt lat="46.11777" lon="6.40581">
        <ele>728</ele>
        <time>2011-07-24T16:48:17Z</time>
      </trkpt>
      <trkpt lat="46.11762" lon="6.40586">
        <ele>728</ele>
        <time>2011-07-24T16:48:18Z</time>
      </trkpt>
      <trkpt lat="46.11748" lon="6.40592">
        <ele>728</ele>
        <time>2011-07-24T16:48:19Z</time>
      </trkpt>
      <trkpt lat="46.11736" lon="6.40598">
        <ele>728</ele>
        <time>2011-07-24T16:48:20Z</time>
      </trkpt>
      <trkpt lat="46.11724" lon="6.40604">
        <ele>728</ele>
        <time>2011-07-24T16:48:21Z</time>
      </trkpt>
      <trkpt lat="46.11714" lon="6.40608">
        <ele>728</ele>
        <time>2011-07-24T16:48:22Z</time>
      </trkpt>
      <trkpt lat="46.11704" lon="6.40608">
        <ele>728</ele>
        <time>2011-07-24T16:48:23Z</time>
      </trkpt>
      <trkpt lat="46.11691" lon="6.40598">
        <ele>728</ele>
        <time>2011-07-24T16:48:25Z</time>
      </trkpt>
      <trkpt lat="46.11692" lon="6.4057">
        <ele>728</ele>
        <time>2011-07-24T16:48:27Z</time>
      </trkpt>
      <trkpt lat="46.11696" lon="6.40555">
        <ele>728</ele>
        <time>2011-07-24T16:48:28Z</time>
      </trkpt>
      <trkpt lat="46.11702" lon="6.40539">
        <ele>728</ele>
        <time>2011-07-24T16:48:29Z</time>
      </trkpt>
      <trkpt lat="46.11706" lon="6.40526">
        <ele>728</ele>
        <time>2011-07-24T16:48:30Z</time>
      </trkpt>
      <trkpt lat="46.11709" lon="6.40512">
        <ele>728</ele>
        <time>2011-07-24T16:48:31Z</time>
      </trkpt>
      <trkpt lat="46.1171" lon="6.40498">
        <ele>728</ele>
        <time>2011-07-24T16:48:32Z</time>
      </trkpt>
      <trkpt lat="46.11709" lon="6.40484">
        <ele>728</ele>
        <time>2011-07-24T16:48:33Z</time>
      </trkpt>
      <trkpt lat="46.11699" lon="6.40461">
        <ele>728</ele>
        <time>2011-07-24T16:48:35Z</time>
      </trkpt>
      <trkpt lat="46.11693" lon="6.40452">
        <ele>728</ele>
        <time>2011-07-24T16:48:36Z</time>
      </trkpt>
      <trkpt lat="46.11678" lon="6.40445">
        <ele>728</ele>
        <time>2011-07-24T16:48:38Z</time>
      </trkpt>
      <trkpt lat="46.11668" lon="6.4045">
        <ele>728</ele>
        <time>2011-07-24T16:48:39Z</time>
      </trkpt>
      <trkpt lat="46.11659" lon="6.40457">
        <ele>733</ele>
        <time>2011-07-24T16:48:40Z</time>
      </trkpt>
      <trkpt lat="46.11649" lon="6.40467">
        <ele>733</ele>
        <time>2011-07-24T16:48:41Z</time>
      </trkpt>
      <trkpt lat="46.11638" lon="6.40479">
        <ele>733</ele>
        <time>2011-07-24T16:48:42Z</time>
      </trkpt>
      <trkpt lat="46.11626" lon="6.40492">
        <ele>733</ele>
        <time>2011-07-24T16:48:43Z</time>
      </trkpt>
      <trkpt lat="46.11614" lon="6.40506">
        <ele>733</ele>
        <time>2011-07-24T16:48:44Z</time>
      </trkpt>
      <trkpt lat="46.11604" lon="6.4052">
        <ele>733</ele>
        <time>2011-07-24T16:48:45Z</time>
      </trkpt>
      <trkpt lat="46.11594" lon="6.40535">
        <ele>739</ele>
        <time>2011-07-24T16:48:46Z</time>
      </trkpt>
      <trkpt lat="46.11586" lon="6.4055">
        <ele>739</ele>
        <time>2011-07-24T16:48:47Z</time>
      </trkpt>
      <trkpt lat="46.11579" lon="6.40564">
        <ele>739</ele>
        <time>2011-07-24T16:48:48Z</time>
      </trkpt>
      <trkpt lat="46.11573" lon="6.40576">
        <ele>739</ele>
        <time>2011-07-24T16:48:49Z</time>
      </trkpt>
      <trkpt lat="46.11559" lon="6.4059">
        <ele>739</ele>
        <time>2011-07-24T16:48:51Z</time>
      </trkpt>
      <trkpt lat="46.11542" lon="6.40587">
        <ele>739</ele>
        <time>2011-07-24T16:48:53Z</time>
      </trkpt>
      <trkpt lat="46.11534" lon="6.4058">
        <ele>745</ele>
        <time>2011-07-24T16:48:54Z</time>
      </trkpt>
      <trkpt lat="46.11526" lon="6.40561">
        <ele>745</ele>
        <time>2011-07-24T16:48:56Z</time>
      </trkpt>
      <trkpt lat="46.11525" lon="6.40547">
        <ele>745</ele>
        <time>2011-07-24T16:48:57Z</time>
      </trkpt>
      <trkpt lat="46.11524" lon="6.40532">
        <ele>745</ele>
        <time>2011-07-24T16:48:58Z</time>
      </trkpt>
      <trkpt lat="46.11522" lon="6.40518">
        <ele>745</ele>
        <time>2011-07-24T16:48:59Z</time>
      </trkpt>
      <trkpt lat="46.11518" lon="6.40503">
        <ele>745</ele>
        <time>2011-07-24T16:49:00Z</time>
      </trkpt>
      <trkpt lat="46.1151" lon="6.4049">
        <ele>750</ele>
        <time>2011-07-24T16:49:01Z</time>
      </trkpt>
      <trkpt lat="46.11502" lon="6.40478">
        <ele>750</ele>
        <time>2011-07-24T16:49:02Z</time>
      </trkpt>
      <trkpt lat="46.1149" lon="6.40467">
        <ele>750</ele>
        <time>2011-07-24T16:49:03Z</time>
      </trkpt>
      <trkpt lat="46.11479" lon="6.40457">
        <ele>750</ele>
        <time>2011-07-24T16:49:04Z</time>
      </trkpt>
      <trkpt lat="46.11467" lon="6.40449">
        <ele>750</ele>
        <time>2011-07-24T16:49:05Z</time>
      </trkpt>
      <trkpt lat="46.11455" lon="6.40443">
        <ele>750</ele>
        <time>2011-07-24T16:49:06Z</time>
      </trkpt>
      <trkpt lat="46.11441" lon="6.40439">
        <ele>756</ele>
        <time>2011-07-24T16:49:07Z</time>
      </trkpt>
      <trkpt lat="46.11428" lon="6.40434">
        <ele>756</ele>
        <time>2011-07-24T16:49:08Z</time>
      </trkpt>
      <trkpt lat="46.11415" lon="6.40428">
        <ele>756</ele>
        <time>2011-07-24T16:49:09Z</time>
      </trkpt>
      <trkpt lat="46.11402" lon="6.40422">
        <ele>756</ele>
        <time>2011-07-24T16:49:10Z</time>
      </trkpt>
      <trkpt lat="46.1139" lon="6.40416">
        <ele>762</ele>
        <time>2011-07-24T16:49:11Z</time>
      </trkpt>
      <trkpt lat="46.11381" lon="6.40409">
        <ele>762</ele>
        <time>2011-07-24T16:49:12Z</time>
      </trkpt>
      <trkpt lat="46.11378" lon="6.40383">
        <ele>762</ele>
        <time>2011-07-24T16:49:14Z</time>
      </trkpt>
      <trkpt lat="46.11383" lon="6.40366">
        <ele>762</ele>
        <time>2011-07-24T16:49:15Z</time>
      </trkpt>
      <trkpt lat="46.11387" lon="6.40347">
        <ele>762</ele>
        <time>2011-07-24T16:49:16Z</time>
      </trkpt>
      <trkpt lat="46.11389" lon="6.4033">
        <ele>767</ele>
        <time>2011-07-24T16:49:17Z</time>
      </trkpt>
      <trkpt lat="46.11388" lon="6.40314">
        <ele>767</ele>
        <time>2011-07-24T16:49:18Z</time>
      </trkpt>
      <trkpt lat="46.11386" lon="6.40297">
        <ele>767</ele>
        <time>2011-07-24T16:49:19Z</time>
      </trkpt>
      <trkpt lat="46.11381" lon="6.40279">
        <ele>767</ele>
        <time>2011-07-24T16:49:20Z</time>
      </trkpt>
      <trkpt lat="46.11375" lon="6.40258">
        <ele>767</ele>
        <time>2011-07-24T16:49:21Z</time>
      </trkpt>
      <trkpt lat="46.11371" lon="6.40237">
        <ele>767</ele>
        <time>2011-07-24T16:49:22Z</time>
      </trkpt>
      <trkpt lat="46.11366" lon="6.40213">
        <ele>767</ele>
        <time>2011-07-24T16:49:23Z</time>
      </trkpt>
      <trkpt lat="46.11363" lon="6.40189">
        <ele>767</ele>
        <time>2011-07-24T16:49:24Z</time>
      </trkpt>
      <trkpt lat="46.11361" lon="6.40163">
        <ele>773</ele>
        <time>2011-07-24T16:49:25Z</time>
      </trkpt>
      <trkpt lat="46.1136" lon="6.40138">
        <ele>773</ele>
        <time>2011-07-24T16:49:26Z</time>
      </trkpt>
      <trkpt lat="46.1136" lon="6.40113">
        <ele>773</ele>
        <time>2011-07-24T16:49:27Z</time>
      </trkpt>
      <trkpt lat="46.11359" lon="6.40092">
        <ele>779</ele>
        <time>2011-07-24T16:49:28Z</time>
      </trkpt>
      <trkpt lat="46.11356" lon="6.40073">
        <ele>779</ele>
        <time>2011-07-24T16:49:29Z</time>
      </trkpt>
      <trkpt lat="46.11353" lon="6.40055">
        <ele>779</ele>
        <time>2011-07-24T16:49:30Z</time>
      </trkpt>
      <trkpt lat="46.11348" lon="6.40037">
        <ele>779</ele>
        <time>2011-07-24T16:49:31Z</time>
      </trkpt>
      <trkpt lat="46.1134" lon="6.40022">
        <ele>779</ele>
        <time>2011-07-24T16:49:32Z</time>
      </trkpt>
      <trkpt lat="46.11328" lon="6.40009">
        <ele>784</ele>
        <time>2011-07-24T16:49:33Z</time>
      </trkpt>
      <trkpt lat="46.11314" lon="6.39996">
        <ele>784</ele>
        <time>2011-07-24T16:49:34Z</time>
      </trkpt>
      <trkpt lat="46.11299" lon="6.39983">
        <ele>784</ele>
        <time>2011-07-24T16:49:35Z</time>
      </trkpt>
      <trkpt lat="46.11282" lon="6.39971">
        <ele>784</ele>
        <time>2011-07-24T16:49:36Z</time>
      </trkpt>
      <trkpt lat="46.11266" lon="6.39957">
        <ele>784</ele>
        <time>2011-07-24T16:49:37Z</time>
      </trkpt>
      <trkpt lat="46.11251" lon="6.39945">
        <ele>790</ele>
        <time>2011-07-24T16:49:38Z</time>
      </trkpt>
      <trkpt lat="46.11236" lon="6.39933">
        <ele>790</ele>
        <time>2011-07-24T16:49:39Z</time>
      </trkpt>
      <trkpt lat="46.11222" lon="6.39924">
        <ele>790</ele>
        <time>2011-07-24T16:49:40Z</time>
      </trkpt>
      <trkpt lat="46.11208" lon="6.39916">
        <ele>790</ele>
        <time>2011-07-24T16:49:41Z</time>
      </trkpt>
      <trkpt lat="46.11195" lon="6.39907">
        <ele>796</ele>
        <time>2011-07-24T16:49:42Z</time>
      </trkpt>
      <trkpt lat="46.11182" lon="6.39899">
        <ele>796</ele>
        <time>2011-07-24T16:49:43Z</time>
      </trkpt>
      <trkpt lat="46.1117" lon="6.39889">
        <ele>796</ele>
        <time>2011-07-24T16:49:44Z</time>
      </trkpt>
      <trkpt lat="46.11159" lon="6.39878">
        <ele>796</ele>
        <time>2011-07-24T16:49:45Z</time>
      </trkpt>
      <trkpt lat="46.11149" lon="6.39867">
        <ele>801</ele>
        <time>2011-07-24T16:49:46Z</time>
      </trkpt>
      <trkpt lat="46.1114" lon="6.39857">
        <ele>801</ele>
        <time>2011-07-24T16:49:47Z</time>
      </trkpt>
      <trkpt lat="46.11132" lon="6.39846">
        <ele>801</ele>
        <time>2011-07-24T16:49:48Z</time>
      </trkpt>
      <trkpt lat="46.11127" lon="6.39832">
        <ele>801</ele>
        <time>2011-07-24T16:49:49Z</time>
      </trkpt>
      <trkpt lat="46.11122" lon="6.39821">
        <ele>801</ele>
        <time>2011-07-24T16:49:50Z</time>
      </trkpt>
      <trkpt lat="46.11117" lon="6.398">
        <ele>801</ele>
        <time>2011-07-24T16:49:52Z</time>
      </trkpt>
      <trkpt lat="46.11113" lon="6.39787">
        <ele>801</ele>
        <time>2011-07-24T16:49:54Z</time>
      </trkpt>
      <trkpt lat="46.111" lon="6.39792">
        <ele>807</ele>
        <time>2011-07-24T16:49:57Z</time>
      </trkpt>
      <trkpt lat="46.11095" lon="6.3981">
        <ele>807</ele>
        <time>2011-07-24T16:49:59Z</time>
      </trkpt>
      <trkpt lat="46.1109" lon="6.39832">
        <ele>807</ele>
        <time>2011-07-24T16:50:01Z</time>
      </trkpt>
      <trkpt lat="46.11085" lon="6.39851">
        <ele>807</ele>
        <time>2011-07-24T16:50:03Z</time>
      </trkpt>
      <trkpt lat="46.11081" lon="6.39865">
        <ele>807</ele>
        <time>2011-07-24T16:50:05Z</time>
      </trkpt>
      <trkpt lat="46.11082" lon="6.39882">
        <ele>813</ele>
        <time>2011-07-24T16:50:08Z</time>
      </trkpt>
      <trkpt lat="46.1108" lon="6.39899">
        <ele>813</ele>
        <time>2011-07-24T16:50:11Z</time>
      </trkpt>
      <trkpt lat="46.11078" lon="6.39912">
        <ele>813</ele>
        <time>2011-07-24T16:50:13Z</time>
      </trkpt>
      <trkpt lat="46.11075" lon="6.39926">
        <ele>813</ele>
        <time>2011-07-24T16:50:15Z</time>
      </trkpt>
      <trkpt lat="46.11072" lon="6.39942">
        <ele>813</ele>
        <time>2011-07-24T16:50:17Z</time>
      </trkpt>
      <trkpt lat="46.11066" lon="6.3996">
        <ele>813</ele>
        <time>2011-07-24T16:50:19Z</time>
      </trkpt>
      <trkpt lat="46.11056" lon="6.39981">
        <ele>813</ele>
        <time>2011-07-24T16:50:21Z</time>
      </trkpt>
      <trkpt lat="46.11048" lon="6.39994">
        <ele>813</ele>
        <time>2011-07-24T16:50:22Z</time>
      </trkpt>
      <trkpt lat="46.1104" lon="6.40007">
        <ele>813</ele>
        <time>2011-07-24T16:50:23Z</time>
      </trkpt>
      <trkpt lat="46.11032" lon="6.40022">
        <ele>813</ele>
        <time>2011-07-24T16:50:24Z</time>
      </trkpt>
      <trkpt lat="46.11023" lon="6.40036">
        <ele>813</ele>
        <time>2011-07-24T16:50:25Z</time>
      </trkpt>
      <trkpt lat="46.11015" lon="6.40052">
        <ele>813</ele>
        <time>2011-07-24T16:50:26Z</time>
      </trkpt>
      <trkpt lat="46.11007" lon="6.40069">
        <ele>818</ele>
        <time>2011-07-24T16:50:27Z</time>
      </trkpt>
      <trkpt lat="46.11" lon="6.40085">
        <ele>818</ele>
        <time>2011-07-24T16:50:28Z</time>
      </trkpt>
      <trkpt lat="46.10993" lon="6.40103">
        <ele>818</ele>
        <time>2011-07-24T16:50:29Z</time>
      </trkpt>
      <trkpt lat="46.10987" lon="6.40121">
        <ele>818</ele>
        <time>2011-07-24T16:50:30Z</time>
      </trkpt>
      <trkpt lat="46.10982" lon="6.40141">
        <ele>818</ele>
        <time>2011-07-24T16:50:31Z</time>
      </trkpt>
      <trkpt lat="46.10977" lon="6.4016">
        <ele>818</ele>
        <time>2011-07-24T16:50:32Z</time>
      </trkpt>
      <trkpt lat="46.10973" lon="6.40179">
        <ele>818</ele>
        <time>2011-07-24T16:50:33Z</time>
      </trkpt>
      <trkpt lat="46.10968" lon="6.40196">
        <ele>824</ele>
        <time>2011-07-24T16:50:34Z</time>
      </trkpt>
      <trkpt lat="46.10964" lon="6.40212">
        <ele>824</ele>
        <time>2011-07-24T16:50:35Z</time>
      </trkpt>
      <trkpt lat="46.1096" lon="6.40227">
        <ele>824</ele>
        <time>2011-07-24T16:50:36Z</time>
      </trkpt>
      <trkpt lat="46.10955" lon="6.4024">
        <ele>824</ele>
        <time>2011-07-24T16:50:37Z</time>
      </trkpt>
      <trkpt lat="46.10948" lon="6.40253">
        <ele>824</ele>
        <time>2011-07-24T16:50:38Z</time>
      </trkpt>
      <trkpt lat="46.1094" lon="6.40266">
        <ele>824</ele>
        <time>2011-07-24T16:50:39Z</time>
      </trkpt>
      <trkpt lat="46.10931" lon="6.4028">
        <ele>824</ele>
        <time>2011-07-24T16:50:40Z</time>
      </trkpt>
      <trkpt lat="46.1092" lon="6.40292">
        <ele>824</ele>
        <time>2011-07-24T16:50:41Z</time>
      </trkpt>
      <trkpt lat="46.10908" lon="6.40305">
        <ele>830</ele>
        <time>2011-07-24T16:50:42Z</time>
      </trkpt>
      <trkpt lat="46.10895" lon="6.40318">
        <ele>830</ele>
        <time>2011-07-24T16:50:43Z</time>
      </trkpt>
      <trkpt lat="46.1088" lon="6.40333">
        <ele>830</ele>
        <time>2011-07-24T16:50:44Z</time>
      </trkpt>
      <trkpt lat="46.10865" lon="6.40348">
        <ele>830</ele>
        <time>2011-07-24T16:50:45Z</time>
      </trkpt>
      <trkpt lat="46.10851" lon="6.40363">
        <ele>830</ele>
        <time>2011-07-24T16:50:46Z</time>
      </trkpt>
      <trkpt lat="46.10837" lon="6.40378">
        <ele>835</ele>
        <time>2011-07-24T16:50:47Z</time>
      </trkpt>
      <trkpt lat="46.10825" lon="6.40392">
        <ele>835</ele>
        <time>2011-07-24T16:50:48Z</time>
      </trkpt>
      <trkpt lat="46.10813" lon="6.40408">
        <ele>835</ele>
        <time>2011-07-24T16:50:49Z</time>
      </trkpt>
      <trkpt lat="46.10802" lon="6.40423">
        <ele>835</ele>
        <time>2011-07-24T16:50:50Z</time>
      </trkpt>
      <trkpt lat="46.1079" lon="6.4044">
        <ele>840</ele>
        <time>2011-07-24T16:50:51Z</time>
      </trkpt>
      <trkpt lat="46.10779" lon="6.40458">
        <ele>840</ele>
        <time>2011-07-24T16:50:52Z</time>
      </trkpt>
      <trkpt lat="46.10768" lon="6.40477">
        <ele>840</ele>
        <time>2011-07-24T16:50:53Z</time>
      </trkpt>
      <trkpt lat="46.10758" lon="6.40498">
        <ele>840</ele>
        <time>2011-07-24T16:50:54Z</time>
      </trkpt>
      <trkpt lat="46.10747" lon="6.40519">
        <ele>840</ele>
        <time>2011-07-24T16:50:55Z</time>
      </trkpt>
      <trkpt lat="46.10739" lon="6.40542">
        <ele>847</ele>
        <time>2011-07-24T16:50:56Z</time>
      </trkpt>
      <trkpt lat="46.1073" lon="6.40566">
        <ele>847</ele>
        <time>2011-07-24T16:50:57Z</time>
      </trkpt>
      <trkpt lat="46.10722" lon="6.40591">
        <ele>847</ele>
        <time>2011-07-24T16:50:58Z</time>
      </trkpt>
      <trkpt lat="46.10715" lon="6.40616">
        <ele>847</ele>
        <time>2011-07-24T16:50:59Z</time>
      </trkpt>
      <trkpt lat="46.10708" lon="6.40638">
        <ele>853</ele>
        <time>2011-07-24T16:51:00Z</time>
      </trkpt>
      <trkpt lat="46.10702" lon="6.40658">
        <ele>853</ele>
        <time>2011-07-24T16:51:01Z</time>
      </trkpt>
      <trkpt lat="46.10698" lon="6.40676">
        <ele>853</ele>
        <time>2011-07-24T16:51:02Z</time>
      </trkpt>
      <trkpt lat="46.10694" lon="6.40691">
        <ele>858</ele>
        <time>2011-07-24T16:51:03Z</time>
      </trkpt>
      <trkpt lat="46.10692" lon="6.40704">
        <ele>858</ele>
        <time>2011-07-24T16:51:04Z</time>
      </trkpt>
      <trkpt lat="46.1069" lon="6.40723">
        <ele>858</ele>
        <time>2011-07-24T16:51:06Z</time>
      </trkpt>
      <trkpt lat="46.10687" lon="6.4074">
        <ele>864</ele>
        <time>2011-07-24T16:51:08Z</time>
      </trkpt>
      <trkpt lat="46.10677" lon="6.40754">
        <ele>864</ele>
        <time>2011-07-24T16:51:10Z</time>
      </trkpt>
      <trkpt lat="46.10665" lon="6.40775">
        <ele>872</ele>
        <time>2011-07-24T16:51:12Z</time>
      </trkpt>
      <trkpt lat="46.10656" lon="6.40785">
        <ele>872</ele>
        <time>2011-07-24T16:51:13Z</time>
      </trkpt>
      <trkpt lat="46.10645" lon="6.40797">
        <ele>872</ele>
        <time>2011-07-24T16:51:14Z</time>
      </trkpt>
      <trkpt lat="46.10632" lon="6.4081">
        <ele>872</ele>
        <time>2011-07-24T16:51:15Z</time>
      </trkpt>
      <trkpt lat="46.10619" lon="6.40821">
        <ele>872</ele>
        <time>2011-07-24T16:51:16Z</time>
      </trkpt>
      <trkpt lat="46.10604" lon="6.40834">
        <ele>872</ele>
        <time>2011-07-24T16:51:17Z</time>
      </trkpt>
      <trkpt lat="46.10591" lon="6.40847">
        <ele>872</ele>
        <time>2011-07-24T16:51:18Z</time>
      </trkpt>
      <trkpt lat="46.1058" lon="6.4086">
        <ele>872</ele>
        <time>2011-07-24T16:51:19Z</time>
      </trkpt>
      <trkpt lat="46.1057" lon="6.40872">
        <ele>878</ele>
        <time>2011-07-24T16:51:20Z</time>
      </trkpt>
      <trkpt lat="46.10562" lon="6.4088">
        <ele>878</ele>
        <time>2011-07-24T16:51:21Z</time>
      </trkpt>
      <trkpt lat="46.10552" lon="6.40885">
        <ele>878</ele>
        <time>2011-07-24T16:51:22Z</time>
      </trkpt>
      <trkpt lat="46.1054" lon="6.40886">
        <ele>878</ele>
        <time>2011-07-24T16:51:24Z</time>
      </trkpt>
      <trkpt lat="46.1052" lon="6.40876">
        <ele>878</ele>
        <time>2011-07-24T16:51:26Z</time>
      </trkpt>
      <trkpt lat="46.10511" lon="6.40867">
        <ele>878</ele>
        <time>2011-07-24T16:51:27Z</time>
      </trkpt>
      <trkpt lat="46.105" lon="6.40862">
        <ele>878</ele>
        <time>2011-07-24T16:51:28Z</time>
      </trkpt>
      <trkpt lat="46.1049" lon="6.40858">
        <ele>878</ele>
        <time>2011-07-24T16:51:29Z</time>
      </trkpt>
      <trkpt lat="46.1048" lon="6.40853">
        <ele>885</ele>
        <time>2011-07-24T16:51:30Z</time>
      </trkpt>
      <trkpt lat="46.1047" lon="6.40852">
        <ele>885</ele>
        <time>2011-07-24T16:51:31Z</time>
      </trkpt>
      <trkpt lat="46.10458" lon="6.40855">
        <ele>891</ele>
        <time>2011-07-24T16:51:32Z</time>
      </trkpt>
      <trkpt lat="46.10447" lon="6.4086">
        <ele>891</ele>
        <time>2011-07-24T16:51:33Z</time>
      </trkpt>
      <trkpt lat="46.10427" lon="6.40872">
        <ele>898</ele>
        <time>2011-07-24T16:51:35Z</time>
      </trkpt>
      <trkpt lat="46.10414" lon="6.40882">
        <ele>898</ele>
        <time>2011-07-24T16:51:36Z</time>
      </trkpt>
      <trkpt lat="46.10403" lon="6.40893">
        <ele>904</ele>
        <time>2011-07-24T16:51:37Z</time>
      </trkpt>
      <trkpt lat="46.10392" lon="6.40903">
        <ele>904</ele>
        <time>2011-07-24T16:51:38Z</time>
      </trkpt>
      <trkpt lat="46.10381" lon="6.40909">
        <ele>910</ele>
        <time>2011-07-24T16:51:39Z</time>
      </trkpt>
      <trkpt lat="46.10371" lon="6.40912">
        <ele>910</ele>
        <time>2011-07-24T16:51:40Z</time>
      </trkpt>
      <trkpt lat="46.10353" lon="6.40914">
        <ele>918</ele>
        <time>2011-07-24T16:51:42Z</time>
      </trkpt>
      <trkpt lat="46.10342" lon="6.40912">
        <ele>918</ele>
        <time>2011-07-24T16:51:43Z</time>
      </trkpt>
      <trkpt lat="46.10332" lon="6.40909">
        <ele>918</ele>
        <time>2011-07-24T16:51:44Z</time>
      </trkpt>
      <trkpt lat="46.10324" lon="6.40903">
        <ele>926</ele>
        <time>2011-07-24T16:51:45Z</time>
      </trkpt>
      <trkpt lat="46.1031" lon="6.40893">
        <ele>934</ele>
        <time>2011-07-24T16:51:47Z</time>
      </trkpt>
      <trkpt lat="46.10294" lon="6.40888">
        <ele>939</ele>
        <time>2011-07-24T16:51:49Z</time>
      </trkpt>
      <trkpt lat="46.10275" lon="6.40883">
        <ele>945</ele>
        <time>2011-07-24T16:51:51Z</time>
      </trkpt>
      <trkpt lat="46.10265" lon="6.40882">
        <ele>945</ele>
        <time>2011-07-24T16:51:52Z</time>
      </trkpt>
      <trkpt lat="46.10251" lon="6.40878">
        <ele>945</ele>
        <time>2011-07-24T16:51:53Z</time>
      </trkpt>
      <trkpt lat="46.10236" lon="6.40873">
        <ele>933</ele>
        <time>2011-07-24T16:51:54Z</time>
      </trkpt>
      <trkpt lat="46.10224" lon="6.4087">
        <ele>933</ele>
        <time>2011-07-24T16:51:55Z</time>
      </trkpt>
      <trkpt lat="46.10213" lon="6.40869">
        <ele>927</ele>
        <time>2011-07-24T16:51:56Z</time>
      </trkpt>
      <trkpt lat="46.10202" lon="6.4087">
        <ele>927</ele>
        <time>2011-07-24T16:51:57Z</time>
      </trkpt>
      <trkpt lat="46.10192" lon="6.40871">
        <ele>920</ele>
        <time>2011-07-24T16:51:58Z</time>
      </trkpt>
      <trkpt lat="46.10181" lon="6.40872">
        <ele>920</ele>
        <time>2011-07-24T16:51:59Z</time>
      </trkpt>
      <trkpt lat="46.10171" lon="6.40871">
        <ele>920</ele>
        <time>2011-07-24T16:52:00Z</time>
      </trkpt>
      <trkpt lat="46.1016" lon="6.4087">
        <ele>920</ele>
        <time>2011-07-24T16:52:01Z</time>
      </trkpt>
      <trkpt lat="46.10144" lon="6.40873">
        <ele>920</ele>
        <time>2011-07-24T16:52:03Z</time>
      </trkpt>
      <trkpt lat="46.10129" lon="6.4088">
        <ele>920</ele>
        <time>2011-07-24T16:52:05Z</time>
      </trkpt>
      <trkpt lat="46.1012" lon="6.40884">
        <ele>920</ele>
        <time>2011-07-24T16:52:07Z</time>
      </trkpt>
      <trkpt lat="46.10111" lon="6.40899">
        <ele>920</ele>
        <time>2011-07-24T16:52:09Z</time>
      </trkpt>
      <trkpt lat="46.10102" lon="6.40921">
        <ele>920</ele>
        <time>2011-07-24T16:52:11Z</time>
      </trkpt>
      <trkpt lat="46.10094" lon="6.40934">
        <ele>920</ele>
        <time>2011-07-24T16:52:12Z</time>
      </trkpt>
      <trkpt lat="46.10086" lon="6.40947">
        <ele>920</ele>
        <time>2011-07-24T16:52:13Z</time>
      </trkpt>
      <trkpt lat="46.10069" lon="6.40963">
        <ele>920</ele>
        <time>2011-07-24T16:52:14Z</time>
      </trkpt>
      <trkpt lat="46.10054" lon="6.40982">
        <ele>920</ele>
        <time>2011-07-24T16:52:15Z</time>
      </trkpt>
      <trkpt lat="46.10046" lon="6.40995">
        <ele>920</ele>
        <time>2011-07-24T16:52:16Z</time>
      </trkpt>
      <trkpt lat="46.10037" lon="6.41007">
        <ele>920</ele>
        <time>2011-07-24T16:52:17Z</time>
      </trkpt>
      <trkpt lat="46.10027" lon="6.41015">
        <ele>920</ele>
        <time>2011-07-24T16:52:18Z</time>
      </trkpt>
      <trkpt lat="46.10014" lon="6.4102">
        <ele>926</ele>
        <time>2011-07-24T16:52:19Z</time>
      </trkpt>
      <trkpt lat="46.10006" lon="6.41012">
        <ele>926</ele>
        <time>2011-07-24T16:52:20Z</time>
      </trkpt>
      <trkpt lat="46.09989" lon="6.41011">
        <ele>926</ele>
        <time>2011-07-24T16:52:22Z</time>
      </trkpt>
      <trkpt lat="46.09979" lon="6.41008">
        <ele>926</ele>
        <time>2011-07-24T16:52:23Z</time>
      </trkpt>
      <trkpt lat="46.09967" lon="6.41005">
        <ele>937</ele>
        <time>2011-07-24T16:52:25Z</time>
      </trkpt>
      <trkpt lat="46.09959" lon="6.40997">
        <ele>945</ele>
        <time>2011-07-24T16:52:35Z</time>
      </trkpt>
      <trkpt lat="46.09969" lon="6.40995">
        <ele>945</ele>
        <time>2011-07-24T16:55:33Z</time>
      </trkpt>
      <trkpt lat="46.09961" lon="6.41004">
        <ele>952</ele>
        <time>2011-07-24T16:57:33Z</time>
      </trkpt>
      <trkpt lat="46.0995" lon="6.41">
        <ele>952</ele>
        <time>2011-07-24T16:57:52Z</time>
      </trkpt>
      <trkpt lat="46.09939" lon="6.41003">
        <ele>952</ele>
        <time>2011-07-24T16:57:55Z</time>
      </trkpt>
      <trkpt lat="46.09931" lon="6.41009">
        <ele>952</ele>
        <time>2011-07-24T16:57:57Z</time>
      </trkpt>
      <trkpt lat="46.09922" lon="6.41018">
        <ele>952</ele>
        <time>2011-07-24T16:57:59Z</time>
      </trkpt>
      <trkpt lat="46.09915" lon="6.41038">
        <ele>952</ele>
        <time>2011-07-24T16:58:03Z</time>
      </trkpt>
      <trkpt lat="46.09922" lon="6.41053">
        <ele>945</ele>
        <time>2011-07-24T16:58:06Z</time>
      </trkpt>
      <trkpt lat="46.09924" lon="6.41069">
        <ele>945</ele>
        <time>2011-07-24T16:58:08Z</time>
      </trkpt>
      <trkpt lat="46.09924" lon="6.41085">
        <ele>938</ele>
        <time>2011-07-24T16:58:10Z</time>
      </trkpt>
      <trkpt lat="46.09921" lon="6.411">
        <ele>938</ele>
        <time>2011-07-24T16:58:13Z</time>
      </trkpt>
      <trkpt lat="46.09916" lon="6.41116">
        <ele>938</ele>
        <time>2011-07-24T16:58:16Z</time>
      </trkpt>
      <trkpt lat="46.09914" lon="6.41131">
        <ele>933</ele>
        <time>2011-07-24T16:58:19Z</time>
      </trkpt>
      <trkpt lat="46.09916" lon="6.41147">
        <ele>928</ele>
        <time>2011-07-24T16:58:21Z</time>
      </trkpt>
      <trkpt lat="46.09919" lon="6.41162">
        <ele>922</ele>
        <time>2011-07-24T16:58:24Z</time>
      </trkpt>
      <trkpt lat="46.09919" lon="6.41175">
        <ele>922</ele>
        <time>2011-07-24T16:58:28Z</time>
      </trkpt>
      <trkpt lat="46.09922" lon="6.41191">
        <ele>912</ele>
        <time>2011-07-24T16:58:32Z</time>
      </trkpt>
      <trkpt lat="46.09924" lon="6.41206">
        <ele>912</ele>
        <time>2011-07-24T16:58:35Z</time>
      </trkpt>
      <trkpt lat="46.09922" lon="6.41218">
        <ele>905</ele>
        <time>2011-07-24T16:58:41Z</time>
      </trkpt>
      <trkpt lat="46.0992" lon="6.41233">
        <ele>905</ele>
        <time>2011-07-24T16:58:45Z</time>
      </trkpt>
      <trkpt lat="46.09922" lon="6.41249">
        <ele>899</ele>
        <time>2011-07-24T16:58:48Z</time>
      </trkpt>
      <trkpt lat="46.09923" lon="6.41264">
        <ele>899</ele>
        <time>2011-07-24T16:58:51Z</time>
      </trkpt>
      <trkpt lat="46.09926" lon="6.4128">
        <ele>893</ele>
        <time>2011-07-24T16:58:55Z</time>
      </trkpt>
      <trkpt lat="46.09926" lon="6.41295">
        <ele>893</ele>
        <time>2011-07-24T16:59:01Z</time>
      </trkpt>
      <trkpt lat="46.09916" lon="6.41295">
        <ele>893</ele>
        <time>2011-07-24T16:59:17Z</time>
      </trkpt>
      <trkpt lat="46.09906" lon="6.41291">
        <ele>893</ele>
        <time>2011-07-24T16:59:23Z</time>
      </trkpt>
      <trkpt lat="46.09897" lon="6.41288">
        <ele>893</ele>
        <time>2011-07-24T16:59:28Z</time>
      </trkpt>
      <trkpt lat="46.09887" lon="6.41284">
        <ele>893</ele>
        <time>2011-07-24T16:59:33Z</time>
      </trkpt>
      <trkpt lat="46.09882" lon="6.41272">
        <ele>893</ele>
        <time>2011-07-24T16:59:38Z</time>
      </trkpt>
      <trkpt lat="46.0988" lon="6.4126">
        <ele>886</ele>
        <time>2011-07-24T16:59:42Z</time>
      </trkpt>
      <trkpt lat="46.09877" lon="6.41245">
        <ele>886</ele>
        <time>2011-07-24T16:59:48Z</time>
      </trkpt>
      <trkpt lat="46.09872" lon="6.41232">
        <ele>880</ele>
        <time>2011-07-24T16:59:57Z</time>
      </trkpt>
      <trkpt lat="46.09865" lon="6.41218">
        <ele>880</ele>
        <time>2011-07-24T17:00:01Z</time>
      </trkpt>
      <trkpt lat="46.09856" lon="6.41209">
        <ele>880</ele>
        <time>2011-07-24T17:00:05Z</time>
      </trkpt>
      <trkpt lat="46.09844" lon="6.41208">
        <ele>880</ele>
        <time>2011-07-24T17:00:12Z</time>
      </trkpt>
      <trkpt lat="46.09834" lon="6.412">
        <ele>869</ele>
        <time>2011-07-24T17:00:27Z</time>
      </trkpt>
      <trkpt lat="46.09832" lon="6.41187">
        <ele>861</ele>
        <time>2011-07-24T17:00:33Z</time>
      </trkpt>
      <trkpt lat="46.09825" lon="6.41176">
        <ele>861</ele>
        <time>2011-07-24T17:00:37Z</time>
      </trkpt>
      <trkpt lat="46.09815" lon="6.41168">
        <ele>867</ele>
        <time>2011-07-24T17:00:40Z</time>
      </trkpt>
      <trkpt lat="46.09808" lon="6.41158">
        <ele>867</ele>
        <time>2011-07-24T17:00:44Z</time>
      </trkpt>
      <trkpt lat="46.09797" lon="6.41151">
        <ele>855</ele>
        <time>2011-07-24T17:00:51Z</time>
      </trkpt>
      <trkpt lat="46.09795" lon="6.41138">
        <ele>844</ele>
        <time>2011-07-24T17:00:57Z</time>
      </trkpt>
      <trkpt lat="46.09786" lon="6.4113">
        <ele>838</ele>
        <time>2011-07-24T17:01:04Z</time>
      </trkpt>
      <trkpt lat="46.09778" lon="6.4112">
        <ele>832</ele>
        <time>2011-07-24T17:01:08Z</time>
      </trkpt>
      <trkpt lat="46.0977" lon="6.41112">
        <ele>832</ele>
        <time>2011-07-24T17:01:17Z</time>
      </trkpt>
      <trkpt lat="46.09762" lon="6.41103">
        <ele>845</ele>
        <time>2011-07-24T17:01:27Z</time>
      </trkpt>
      <trkpt lat="46.09754" lon="6.41108">
        <ele>845</ele>
        <time>2011-07-24T17:01:59Z</time>
      </trkpt>
      <trkpt lat="46.09745" lon="6.41118">
        <ele>845</ele>
        <time>2011-07-24T17:02:02Z</time>
      </trkpt>
      <trkpt lat="46.09741" lon="6.41132">
        <ele>833</ele>
        <time>2011-07-24T17:02:05Z</time>
      </trkpt>
      <trkpt lat="46.09736" lon="6.41144">
        <ele>825</ele>
        <time>2011-07-24T17:02:09Z</time>
      </trkpt>
      <trkpt lat="46.09726" lon="6.41154">
        <ele>825</ele>
        <time>2011-07-24T17:02:12Z</time>
      </trkpt>
      <trkpt lat="46.09717" lon="6.41164">
        <ele>813</ele>
        <time>2011-07-24T17:02:17Z</time>
      </trkpt>
      <trkpt lat="46.0971" lon="6.41173">
        <ele>813</ele>
        <time>2011-07-24T17:02:19Z</time>
      </trkpt>
      <trkpt lat="46.09702" lon="6.41183">
        <ele>813</ele>
        <time>2011-07-24T17:02:21Z</time>
      </trkpt>
      <trkpt lat="46.09694" lon="6.41196">
        <ele>805</ele>
        <time>2011-07-24T17:02:24Z</time>
      </trkpt>
      <trkpt lat="46.09687" lon="6.41208">
        <ele>805</ele>
        <time>2011-07-24T17:02:28Z</time>
      </trkpt>
      <trkpt lat="46.09684" lon="6.4122">
        <ele>798</ele>
        <time>2011-07-24T17:02:33Z</time>
      </trkpt>
      <trkpt lat="46.09678" lon="6.41233">
        <ele>798</ele>
        <time>2011-07-24T17:02:40Z</time>
      </trkpt>
      <trkpt lat="46.09668" lon="6.41227">
        <ele>789</ele>
        <time>2011-07-24T17:02:48Z</time>
      </trkpt>
      <trkpt lat="46.09657" lon="6.41224">
        <ele>783</ele>
        <time>2011-07-24T17:02:53Z</time>
      </trkpt>
      <trkpt lat="46.09648" lon="6.4122">
        <ele>783</ele>
        <time>2011-07-24T17:02:57Z</time>
      </trkpt>
      <trkpt lat="46.09637" lon="6.41216">
        <ele>776</ele>
        <time>2011-07-24T17:03:01Z</time>
      </trkpt>
      <trkpt lat="46.09627" lon="6.41213">
        <ele>776</ele>
        <time>2011-07-24T17:03:04Z</time>
      </trkpt>
      <trkpt lat="46.09617" lon="6.41213">
        <ele>776</ele>
        <time>2011-07-24T17:03:08Z</time>
      </trkpt>
      <trkpt lat="46.09609" lon="6.41218">
        <ele>767</ele>
        <time>2011-07-24T17:03:13Z</time>
      </trkpt>
      <trkpt lat="46.09596" lon="6.41222">
        <ele>767</ele>
        <time>2011-07-24T17:03:16Z</time>
      </trkpt>
      <trkpt lat="46.09585" lon="6.41226">
        <ele>767</ele>
        <time>2011-07-24T17:03:18Z</time>
      </trkpt>
      <trkpt lat="46.09572" lon="6.41229">
        <ele>759</ele>
        <time>2011-07-24T17:03:21Z</time>
      </trkpt>
      <trkpt lat="46.09563" lon="6.41233">
        <ele>759</ele>
        <time>2011-07-24T17:03:23Z</time>
      </trkpt>
      <trkpt lat="46.09551" lon="6.41235">
        <ele>754</ele>
        <time>2011-07-24T17:03:26Z</time>
      </trkpt>
      <trkpt lat="46.09541" lon="6.41235">
        <ele>754</ele>
        <time>2011-07-24T17:03:46Z</time>
      </trkpt>
      <trkpt lat="46.09532" lon="6.41232">
        <ele>754</ele>
        <time>2011-07-24T17:03:50Z</time>
      </trkpt>
      <trkpt lat="46.09522" lon="6.41234">
        <ele>748</ele>
        <time>2011-07-24T17:03:53Z</time>
      </trkpt>
      <trkpt lat="46.09511" lon="6.41241">
        <ele>748</ele>
        <time>2011-07-24T17:03:56Z</time>
      </trkpt>
      <trkpt lat="46.09503" lon="6.41249">
        <ele>748</ele>
        <time>2011-07-24T17:03:58Z</time>
      </trkpt>
      <trkpt lat="46.09493" lon="6.41257">
        <ele>748</ele>
        <time>2011-07-24T17:04:01Z</time>
      </trkpt>
      <trkpt lat="46.09483" lon="6.41263">
        <ele>748</ele>
        <time>2011-07-24T17:04:04Z</time>
      </trkpt>
      <trkpt lat="46.09474" lon="6.41259">
        <ele>748</ele>
        <time>2011-07-24T17:04:07Z</time>
      </trkpt>
      <trkpt lat="46.09472" lon="6.41242">
        <ele>748</ele>
        <time>2011-07-24T17:04:10Z</time>
      </trkpt>
      <trkpt lat="46.0947" lon="6.41228">
        <ele>748</ele>
        <time>2011-07-24T17:04:55Z</time>
      </trkpt>
      <trkpt lat="46.09458" lon="6.41228">
        <ele>748</ele>
        <time>2011-07-24T17:04:58Z</time>
      </trkpt>
      <trkpt lat="46.09446" lon="6.41227">
        <ele>748</ele>
        <time>2011-07-24T17:05:01Z</time>
      </trkpt>
      <trkpt lat="46.09434" lon="6.41227">
        <ele>748</ele>
        <time>2011-07-24T17:05:04Z</time>
      </trkpt>
      <trkpt lat="46.09422" lon="6.41231">
        <ele>739</ele>
        <time>2011-07-24T17:05:07Z</time>
      </trkpt>
      <trkpt lat="46.09414" lon="6.4122">
        <ele>727</ele>
        <time>2011-07-24T17:05:11Z</time>
      </trkpt>
      <trkpt lat="46.09404" lon="6.41215">
        <ele>722</ele>
        <time>2011-07-24T17:05:15Z</time>
      </trkpt>
      <trkpt lat="46.09396" lon="6.41208">
        <ele>722</ele>
        <time>2011-07-24T17:05:18Z</time>
      </trkpt>
      <trkpt lat="46.09387" lon="6.41199">
        <ele>714</ele>
        <time>2011-07-24T17:05:20Z</time>
      </trkpt>
      <trkpt lat="46.0938" lon="6.41187">
        <ele>706</ele>
        <time>2011-07-24T17:05:23Z</time>
      </trkpt>
      <trkpt lat="46.0937" lon="6.41179">
        <ele>701</ele>
        <time>2011-07-24T17:05:27Z</time>
      </trkpt>
      <trkpt lat="46.09361" lon="6.41184">
        <ele>701</ele>
        <time>2011-07-24T17:05:33Z</time>
      </trkpt>
      <trkpt lat="46.09352" lon="6.41186">
        <ele>701</ele>
        <time>2011-07-24T17:05:38Z</time>
      </trkpt>
      <trkpt lat="46.09343" lon="6.4118">
        <ele>694</ele>
        <time>2011-07-24T17:05:43Z</time>
      </trkpt>
      <trkpt lat="46.09333" lon="6.41178">
        <ele>694</ele>
        <time>2011-07-24T17:05:48Z</time>
      </trkpt>
      <trkpt lat="46.09322" lon="6.41174">
        <ele>683</ele>
        <time>2011-07-24T17:05:53Z</time>
      </trkpt>
      <trkpt lat="46.09313" lon="6.41171">
        <ele>683</ele>
        <time>2011-07-24T17:05:58Z</time>
      </trkpt>
      <trkpt lat="46.09304" lon="6.41172">
        <ele>683</ele>
        <time>2011-07-24T17:06:03Z</time>
      </trkpt>
      <trkpt lat="46.09293" lon="6.4118">
        <ele>692</ele>
        <time>2011-07-24T17:06:06Z</time>
      </trkpt>
      <trkpt lat="46.09286" lon="6.4119">
        <ele>692</ele>
        <time>2011-07-24T17:06:10Z</time>
      </trkpt>
      <trkpt lat="46.0928" lon="6.41179">
        <ele>685</ele>
        <time>2011-07-24T17:06:15Z</time>
      </trkpt>
      <trkpt lat="46.09272" lon="6.41168">
        <ele>680</ele>
        <time>2011-07-24T17:06:19Z</time>
      </trkpt>
      <trkpt lat="46.09261" lon="6.41165">
        <ele>674</ele>
        <time>2011-07-24T17:06:23Z</time>
      </trkpt>
      <trkpt lat="46.09252" lon="6.41154">
        <ele>668</ele>
        <time>2011-07-24T17:06:27Z</time>
      </trkpt>
      <trkpt lat="46.09242" lon="6.41142">
        <ele>662</ele>
        <time>2011-07-24T17:06:30Z</time>
      </trkpt>
      <trkpt lat="46.09234" lon="6.41134">
        <ele>662</ele>
        <time>2011-07-24T17:06:32Z</time>
      </trkpt>
      <trkpt lat="46.09227" lon="6.41126">
        <ele>662</ele>
        <time>2011-07-24T17:06:34Z</time>
      </trkpt>
      <trkpt lat="46.09216" lon="6.41124">
        <ele>647</ele>
        <time>2011-07-24T17:06:39Z</time>
      </trkpt>
      <trkpt lat="46.09205" lon="6.41122">
        <ele>641</ele>
        <time>2011-07-24T17:06:44Z</time>
      </trkpt>
      <trkpt lat="46.09194" lon="6.41127">
        <ele>641</ele>
        <time>2011-07-24T17:06:48Z</time>
      </trkpt>
      <trkpt lat="46.09185" lon="6.41128">
        <ele>635</ele>
        <time>2011-07-24T17:06:51Z</time>
      </trkpt>
      <trkpt lat="46.09175" lon="6.41123">
        <ele>635</ele>
        <time>2011-07-24T17:06:54Z</time>
      </trkpt>
      <trkpt lat="46.09165" lon="6.41123">
        <ele>624</ele>
        <time>2011-07-24T17:06:57Z</time>
      </trkpt>
      <trkpt lat="46.09153" lon="6.41126">
        <ele>624</ele>
        <time>2011-07-24T17:07:00Z</time>
      </trkpt>
      <trkpt lat="46.09144" lon="6.41134">
        <ele>618</ele>
        <time>2011-07-24T17:07:03Z</time>
      </trkpt>
      <trkpt lat="46.09133" lon="6.41142">
        <ele>618</ele>
        <time>2011-07-24T17:07:06Z</time>
      </trkpt>
      <trkpt lat="46.09121" lon="6.41138">
        <ele>618</ele>
        <time>2011-07-24T17:07:10Z</time>
      </trkpt>
      <trkpt lat="46.09111" lon="6.41136">
        <ele>618</ele>
        <time>2011-07-24T17:07:12Z</time>
      </trkpt>
      <trkpt lat="46.09102" lon="6.41132">
        <ele>611</ele>
        <time>2011-07-24T17:07:14Z</time>
      </trkpt>
      <trkpt lat="46.09091" lon="6.4113">
        <ele>611</ele>
        <time>2011-07-24T17:07:16Z</time>
      </trkpt>
      <trkpt lat="46.09081" lon="6.41125">
        <ele>611</ele>
        <time>2011-07-24T17:07:20Z</time>
      </trkpt>
      <trkpt lat="46.09071" lon="6.41124">
        <ele>605</ele>
        <time>2011-07-24T17:07:25Z</time>
      </trkpt>
      <trkpt lat="46.09061" lon="6.41127">
        <ele>600</ele>
        <time>2011-07-24T17:07:30Z</time>
      </trkpt>
      <trkpt lat="46.0905" lon="6.41129">
        <ele>600</ele>
        <time>2011-07-24T17:07:34Z</time>
      </trkpt>
      <trkpt lat="46.09041" lon="6.41129">
        <ele>600</ele>
        <time>2011-07-24T17:07:37Z</time>
      </trkpt>
      <trkpt lat="46.09031" lon="6.4113">
        <ele>600</ele>
        <time>2011-07-24T17:07:40Z</time>
      </trkpt>
      <trkpt lat="46.09021" lon="6.41125">
        <ele>593</ele>
        <time>2011-07-24T17:07:44Z</time>
      </trkpt>
      <trkpt lat="46.0901" lon="6.4112">
        <ele>593</ele>
        <time>2011-07-24T17:07:47Z</time>
      </trkpt>
      <trkpt lat="46.09001" lon="6.41119">
        <ele>593</ele>
        <time>2011-07-24T17:07:49Z</time>
      </trkpt>
      <trkpt lat="46.08987" lon="6.4112">
        <ele>593</ele>
        <time>2011-07-24T17:07:52Z</time>
      </trkpt>
      <trkpt lat="46.08977" lon="6.41121">
        <ele>587</ele>
        <time>2011-07-24T17:07:56Z</time>
      </trkpt>
      <trkpt lat="46.08966" lon="6.4112">
        <ele>579</ele>
        <time>2011-07-24T17:08:04Z</time>
      </trkpt>
      <trkpt lat="46.08953" lon="6.41119">
        <ele>574</ele>
        <time>2011-07-24T17:08:09Z</time>
      </trkpt>
      <trkpt lat="46.08945" lon="6.41108">
        <ele>574</ele>
        <time>2011-07-24T17:08:13Z</time>
      </trkpt>
      <trkpt lat="46.08934" lon="6.41109">
        <ele>568</ele>
        <time>2011-07-24T17:08:16Z</time>
      </trkpt>
      <trkpt lat="46.08926" lon="6.41117">
        <ele>560</ele>
        <time>2011-07-24T17:08:20Z</time>
      </trkpt>
      <trkpt lat="46.08921" lon="6.4113">
        <ele>560</ele>
        <time>2011-07-24T17:08:23Z</time>
      </trkpt>
      <trkpt lat="46.08911" lon="6.41136">
        <ele>550</ele>
        <time>2011-07-24T17:08:27Z</time>
      </trkpt>
      <trkpt lat="46.08899" lon="6.41129">
        <ele>550</ele>
        <time>2011-07-24T17:08:30Z</time>
      </trkpt>
      <trkpt lat="46.08889" lon="6.41128">
        <ele>544</ele>
        <time>2011-07-24T17:08:33Z</time>
      </trkpt>
      <trkpt lat="46.08877" lon="6.41134">
        <ele>544</ele>
        <time>2011-07-24T17:08:36Z</time>
      </trkpt>
      <trkpt lat="46.08867" lon="6.41138">
        <ele>544</ele>
        <time>2011-07-24T17:08:38Z</time>
      </trkpt>
      <trkpt lat="46.08858" lon="6.4114">
        <ele>538</ele>
        <time>2011-07-24T17:08:40Z</time>
      </trkpt>
      <trkpt lat="46.08849" lon="6.41145">
        <ele>538</ele>
        <time>2011-07-24T17:08:42Z</time>
      </trkpt>
      <trkpt lat="46.08836" lon="6.41148">
        <ele>532</ele>
        <time>2011-07-24T17:08:45Z</time>
      </trkpt>
      <trkpt lat="46.08827" lon="6.41151">
        <ele>532</ele>
        <time>2011-07-24T17:08:47Z</time>
      </trkpt>
      <trkpt lat="46.08817" lon="6.41155">
        <ele>532</ele>
        <time>2011-07-24T17:08:49Z</time>
      </trkpt>
      <trkpt lat="46.08807" lon="6.41156">
        <ele>526</ele>
        <time>2011-07-24T17:08:51Z</time>
      </trkpt>
      <trkpt lat="46.08798" lon="6.41155">
        <ele>526</ele>
        <time>2011-07-24T17:08:53Z</time>
      </trkpt>
      <trkpt lat="46.08787" lon="6.4115">
        <ele>526</ele>
        <time>2011-07-24T17:08:56Z</time>
      </trkpt>
      <trkpt lat="46.08778" lon="6.41147">
        <ele>519</ele>
        <time>2011-07-24T17:08:59Z</time>
      </trkpt>
      <trkpt lat="46.08767" lon="6.41144">
        <ele>519</ele>
        <time>2011-07-24T17:09:03Z</time>
      </trkpt>
      <trkpt lat="46.08761" lon="6.41158">
        <ele>519</ele>
        <time>2011-07-24T17:11:18Z</time>
      </trkpt>
      <trkpt lat="46.08756" lon="6.41181">
        <ele>519</ele>
        <time>2011-07-24T17:11:20Z</time>
      </trkpt>
      <trkpt lat="46.08754" lon="6.41193">
        <ele>519</ele>
        <time>2011-07-24T17:11:21Z</time>
      </trkpt>
      <trkpt lat="46.08751" lon="6.41206">
        <ele>519</ele>
        <time>2011-07-24T17:11:22Z</time>
      </trkpt>
      <trkpt lat="46.08746" lon="6.41218">
        <ele>519</ele>
        <time>2011-07-24T17:11:23Z</time>
      </trkpt>
      <trkpt lat="46.0874" lon="6.4123">
        <ele>519</ele>
        <time>2011-07-24T17:11:24Z</time>
      </trkpt>
      <trkpt lat="46.08734" lon="6.4124">
        <ele>519</ele>
        <time>2011-07-24T17:11:25Z</time>
      </trkpt>
      <trkpt lat="46.08722" lon="6.41257">
        <ele>519</ele>
        <time>2011-07-24T17:11:27Z</time>
      </trkpt>
      <trkpt lat="46.08716" lon="6.41271">
        <ele>519</ele>
        <time>2011-07-24T17:11:29Z</time>
      </trkpt>
      <trkpt lat="46.08714" lon="6.4129">
        <ele>519</ele>
        <time>2011-07-24T17:11:31Z</time>
      </trkpt>
      <trkpt lat="46.08708" lon="6.41302">
        <ele>519</ele>
        <time>2011-07-24T17:11:34Z</time>
      </trkpt>
      <trkpt lat="46.08697" lon="6.41299">
        <ele>513</ele>
        <time>2011-07-24T17:11:36Z</time>
      </trkpt>
      <trkpt lat="46.08686" lon="6.41295">
        <ele>513</ele>
        <time>2011-07-24T17:11:38Z</time>
      </trkpt>
      <trkpt lat="46.08676" lon="6.41284">
        <ele>506</ele>
        <time>2011-07-24T17:11:41Z</time>
      </trkpt>
      <trkpt lat="46.08672" lon="6.41269">
        <ele>506</ele>
        <time>2011-07-24T17:11:43Z</time>
      </trkpt>
      <trkpt lat="46.08671" lon="6.41243">
        <ele>506</ele>
        <time>2011-07-24T17:11:45Z</time>
      </trkpt>
      <trkpt lat="46.08669" lon="6.41218">
        <ele>500</ele>
        <time>2011-07-24T17:11:47Z</time>
      </trkpt>
      <trkpt lat="46.08669" lon="6.41197">
        <ele>500</ele>
        <time>2011-07-24T17:11:49Z</time>
      </trkpt>
      <trkpt lat="46.08669" lon="6.41178">
        <ele>500</ele>
        <time>2011-07-24T17:11:51Z</time>
      </trkpt>
      <trkpt lat="46.08665" lon="6.41164">
        <ele>500</ele>
        <time>2011-07-24T17:11:54Z</time>
      </trkpt>
      <trkpt lat="46.08656" lon="6.41174">
        <ele>493</ele>
        <time>2011-07-24T17:11:58Z</time>
      </trkpt>
      <trkpt lat="46.08644" lon="6.41187">
        <ele>493</ele>
        <time>2011-07-24T17:12:00Z</time>
      </trkpt>
      <trkpt lat="46.08629" lon="6.41193">
        <ele>493</ele>
        <time>2011-07-24T17:12:02Z</time>
      </trkpt>
      <trkpt lat="46.08614" lon="6.41199">
        <ele>493</ele>
        <time>2011-07-24T17:12:04Z</time>
      </trkpt>
      <trkpt lat="46.086" lon="6.41206">
        <ele>486</ele>
        <time>2011-07-24T17:12:06Z</time>
      </trkpt>
      <trkpt lat="46.08586" lon="6.41206">
        <ele>486</ele>
        <time>2011-07-24T17:12:08Z</time>
      </trkpt>
      <trkpt lat="46.08569" lon="6.41196">
        <ele>486</ele>
        <time>2011-07-24T17:12:10Z</time>
      </trkpt>
      <trkpt lat="46.08559" lon="6.41189">
        <ele>486</ele>
        <time>2011-07-24T17:12:11Z</time>
      </trkpt>
      <trkpt lat="46.08549" lon="6.41181">
        <ele>486</ele>
        <time>2011-07-24T17:12:12Z</time>
      </trkpt>
      <trkpt lat="46.08539" lon="6.41173">
        <ele>480</ele>
        <time>2011-07-24T17:12:13Z</time>
      </trkpt>
      <trkpt lat="46.08531" lon="6.41167">
        <ele>480</ele>
        <time>2011-07-24T17:12:14Z</time>
      </trkpt>
      <trkpt lat="46.08522" lon="6.4116">
        <ele>480</ele>
        <time>2011-07-24T17:12:15Z</time>
      </trkpt>
      <trkpt lat="46.08513" lon="6.41154">
        <ele>474</ele>
        <time>2011-07-24T17:12:16Z</time>
      </trkpt>
      <trkpt lat="46.08504" lon="6.41147">
        <ele>474</ele>
        <time>2011-07-24T17:12:17Z</time>
      </trkpt>
      <trkpt lat="46.08496" lon="6.41141">
        <ele>474</ele>
        <time>2011-07-24T17:12:18Z</time>
      </trkpt>
      <trkpt lat="46.08488" lon="6.41135">
        <ele>474</ele>
        <time>2011-07-24T17:12:19Z</time>
      </trkpt>
      <trkpt lat="46.0848" lon="6.41129">
        <ele>468</ele>
        <time>2011-07-24T17:12:20Z</time>
      </trkpt>
      <trkpt lat="46.08465" lon="6.4112">
        <ele>468</ele>
        <time>2011-07-24T17:12:22Z</time>
      </trkpt>
      <trkpt lat="46.08456" lon="6.41114">
        <ele>463</ele>
        <time>2011-07-24T17:12:24Z</time>
      </trkpt>
      <trkpt lat="46.08452" lon="6.41103">
        <ele>463</ele>
        <time>2011-07-24T17:12:27Z</time>
      </trkpt>
      <trkpt lat="46.08454" lon="6.41085">
        <ele>463</ele>
        <time>2011-07-24T17:12:30Z</time>
      </trkpt>
      <trkpt lat="46.08458" lon="6.41064">
        <ele>463</ele>
        <time>2011-07-24T17:12:32Z</time>
      </trkpt>
      <trkpt lat="46.08461" lon="6.4105">
        <ele>463</ele>
        <time>2011-07-24T17:12:33Z</time>
      </trkpt>
      <trkpt lat="46.08463" lon="6.41035">
        <ele>463</ele>
        <time>2011-07-24T17:12:34Z</time>
      </trkpt>
      <trkpt lat="46.08465" lon="6.41021">
        <ele>463</ele>
        <time>2011-07-24T17:12:35Z</time>
      </trkpt>
      <trkpt lat="46.08467" lon="6.41007">
        <ele>463</ele>
        <time>2011-07-24T17:12:36Z</time>
      </trkpt>
      <trkpt lat="46.08473" lon="6.40984">
        <ele>463</ele>
        <time>2011-07-24T17:12:38Z</time>
      </trkpt>
      <trkpt lat="46.08476" lon="6.40963">
        <ele>463</ele>
        <time>2011-07-24T17:12:40Z</time>
      </trkpt>
      <trkpt lat="46.08477" lon="6.40939">
        <ele>463</ele>
        <time>2011-07-24T17:12:42Z</time>
      </trkpt>
      <trkpt lat="46.08479" lon="6.40923">
        <ele>463</ele>
        <time>2011-07-24T17:12:43Z</time>
      </trkpt>
      <trkpt lat="46.08482" lon="6.40905">
        <ele>463</ele>
        <time>2011-07-24T17:12:44Z</time>
      </trkpt>
      <trkpt lat="46.08484" lon="6.40885">
        <ele>463</ele>
        <time>2011-07-24T17:12:45Z</time>
      </trkpt>
      <trkpt lat="46.08487" lon="6.40863">
        <ele>463</ele>
        <time>2011-07-24T17:12:46Z</time>
      </trkpt>
      <trkpt lat="46.08489" lon="6.40841">
        <ele>463</ele>
        <time>2011-07-24T17:12:47Z</time>
      </trkpt>
      <trkpt lat="46.08491" lon="6.40819">
        <ele>463</ele>
        <time>2011-07-24T17:12:48Z</time>
      </trkpt>
      <trkpt lat="46.08492" lon="6.40795">
        <ele>463</ele>
        <time>2011-07-24T17:12:49Z</time>
      </trkpt>
      <trkpt lat="46.08494" lon="6.40774">
        <ele>463</ele>
        <time>2011-07-24T17:12:50Z</time>
      </trkpt>
      <trkpt lat="46.08496" lon="6.40755">
        <ele>463</ele>
        <time>2011-07-24T17:12:51Z</time>
      </trkpt>
      <trkpt lat="46.08497" lon="6.40739">
        <ele>463</ele>
        <time>2011-07-24T17:12:52Z</time>
      </trkpt>
      <trkpt lat="46.08497" lon="6.40718">
        <ele>463</ele>
        <time>2011-07-24T17:12:54Z</time>
      </trkpt>
      <trkpt lat="46.08494" lon="6.40705">
        <ele>463</ele>
        <time>2011-07-24T17:12:57Z</time>
      </trkpt>
      <trkpt lat="46.08495" lon="6.40686">
        <ele>463</ele>
        <time>2011-07-24T17:13:00Z</time>
      </trkpt>
      <trkpt lat="46.08496" lon="6.40671">
        <ele>463</ele>
        <time>2011-07-24T17:13:01Z</time>
      </trkpt>
      <trkpt lat="46.08499" lon="6.40654">
        <ele>463</ele>
        <time>2011-07-24T17:13:02Z</time>
      </trkpt>
      <trkpt lat="46.08501" lon="6.40635">
        <ele>463</ele>
        <time>2011-07-24T17:13:03Z</time>
      </trkpt>
      <trkpt lat="46.08503" lon="6.40616">
        <ele>463</ele>
        <time>2011-07-24T17:13:04Z</time>
      </trkpt>
      <trkpt lat="46.08504" lon="6.40594">
        <ele>463</ele>
        <time>2011-07-24T17:13:05Z</time>
      </trkpt>
      <trkpt lat="46.08506" lon="6.40573">
        <ele>463</ele>
        <time>2011-07-24T17:13:06Z</time>
      </trkpt>
      <trkpt lat="46.08509" lon="6.40554">
        <ele>463</ele>
        <time>2011-07-24T17:13:07Z</time>
      </trkpt>
      <trkpt lat="46.08511" lon="6.40536">
        <ele>463</ele>
        <time>2011-07-24T17:13:08Z</time>
      </trkpt>
      <trkpt lat="46.08512" lon="6.40519">
        <ele>463</ele>
        <time>2011-07-24T17:13:09Z</time>
      </trkpt>
      <trkpt lat="46.08514" lon="6.40502">
        <ele>463</ele>
        <time>2011-07-24T17:13:10Z</time>
      </trkpt>
      <trkpt lat="46.08517" lon="6.40488">
        <ele>463</ele>
        <time>2011-07-24T17:13:11Z</time>
      </trkpt>
      <trkpt lat="46.08519" lon="6.40472">
        <ele>457</ele>
        <time>2011-07-24T17:13:12Z</time>
      </trkpt>
      <trkpt lat="46.08521" lon="6.40457">
        <ele>457</ele>
        <time>2011-07-24T17:13:13Z</time>
      </trkpt>
      <trkpt lat="46.08522" lon="6.40441">
        <ele>457</ele>
        <time>2011-07-24T17:13:14Z</time>
      </trkpt>
      <trkpt lat="46.08524" lon="6.40428">
        <ele>457</ele>
        <time>2011-07-24T17:13:15Z</time>
      </trkpt>
      <trkpt lat="46.08526" lon="6.40414">
        <ele>457</ele>
        <time>2011-07-24T17:13:16Z</time>
      </trkpt>
      <trkpt lat="46.08527" lon="6.40401">
        <ele>457</ele>
        <time>2011-07-24T17:13:17Z</time>
      </trkpt>
      <trkpt lat="46.08529" lon="6.40377">
        <ele>457</ele>
        <time>2011-07-24T17:13:19Z</time>
      </trkpt>
      <trkpt lat="46.08532" lon="6.40353">
        <ele>457</ele>
        <time>2011-07-24T17:13:21Z</time>
      </trkpt>
      <trkpt lat="46.08535" lon="6.40339">
        <ele>457</ele>
        <time>2011-07-24T17:13:22Z</time>
      </trkpt>
      <trkpt lat="46.08539" lon="6.40326">
        <ele>457</ele>
        <time>2011-07-24T17:13:23Z</time>
      </trkpt>
      <trkpt lat="46.08544" lon="6.40314">
        <ele>457</ele>
        <time>2011-07-24T17:13:24Z</time>
      </trkpt>
      <trkpt lat="46.08557" lon="6.40293">
        <ele>452</ele>
        <time>2011-07-24T17:13:26Z</time>
      </trkpt>
      <trkpt lat="46.08564" lon="6.40281">
        <ele>452</ele>
        <time>2011-07-24T17:13:27Z</time>
      </trkpt>
      <trkpt lat="46.08574" lon="6.4027">
        <ele>452</ele>
        <time>2011-07-24T17:13:28Z</time>
      </trkpt>
      <trkpt lat="46.08584" lon="6.40259">
        <ele>452</ele>
        <time>2011-07-24T17:13:29Z</time>
      </trkpt>
      <trkpt lat="46.08594" lon="6.40247">
        <ele>452</ele>
        <time>2011-07-24T17:13:30Z</time>
      </trkpt>
      <trkpt lat="46.08604" lon="6.40237">
        <ele>452</ele>
        <time>2011-07-24T17:13:31Z</time>
      </trkpt>
      <trkpt lat="46.08614" lon="6.40228">
        <ele>452</ele>
        <time>2011-07-24T17:13:32Z</time>
      </trkpt>
      <trkpt lat="46.08622" lon="6.40217">
        <ele>452</ele>
        <time>2011-07-24T17:13:33Z</time>
      </trkpt>
      <trkpt lat="46.08629" lon="6.40206">
        <ele>452</ele>
        <time>2011-07-24T17:13:34Z</time>
      </trkpt>
      <trkpt lat="46.08637" lon="6.40193">
        <ele>452</ele>
        <time>2011-07-24T17:13:35Z</time>
      </trkpt>
      <trkpt lat="46.08644" lon="6.40179">
        <ele>452</ele>
        <time>2011-07-24T17:13:36Z</time>
      </trkpt>
      <trkpt lat="46.08651" lon="6.40164">
        <ele>452</ele>
        <time>2011-07-24T17:13:37Z</time>
      </trkpt>
      <trkpt lat="46.08658" lon="6.40149">
        <ele>452</ele>
        <time>2011-07-24T17:13:38Z</time>
      </trkpt>
      <trkpt lat="46.08665" lon="6.40131">
        <ele>452</ele>
        <time>2011-07-24T17:13:39Z</time>
      </trkpt>
      <trkpt lat="46.08671" lon="6.40113">
        <ele>452</ele>
        <time>2011-07-24T17:13:40Z</time>
      </trkpt>
      <trkpt lat="46.08676" lon="6.40095">
        <ele>452</ele>
        <time>2011-07-24T17:13:41Z</time>
      </trkpt>
      <trkpt lat="46.08681" lon="6.40077">
        <ele>452</ele>
        <time>2011-07-24T17:13:42Z</time>
      </trkpt>
      <trkpt lat="46.08686" lon="6.4006">
        <ele>452</ele>
        <time>2011-07-24T17:13:43Z</time>
      </trkpt>
      <trkpt lat="46.08691" lon="6.40046">
        <ele>452</ele>
        <time>2011-07-24T17:13:44Z</time>
      </trkpt>
      <trkpt lat="46.08694" lon="6.40033">
        <ele>452</ele>
        <time>2011-07-24T17:13:45Z</time>
      </trkpt>
      <trkpt lat="46.08699" lon="6.40009">
        <ele>452</ele>
        <time>2011-07-24T17:13:47Z</time>
      </trkpt>
      <trkpt lat="46.08701" lon="6.39996">
        <ele>452</ele>
        <time>2011-07-24T17:13:48Z</time>
      </trkpt>
      <trkpt lat="46.08702" lon="6.39973">
        <ele>457</ele>
        <time>2011-07-24T17:13:50Z</time>
      </trkpt>
      <trkpt lat="46.08695" lon="6.3996">
        <ele>457</ele>
        <time>2011-07-24T17:13:52Z</time>
      </trkpt>
      <trkpt lat="46.08681" lon="6.39958">
        <ele>457</ele>
        <time>2011-07-24T17:13:55Z</time>
      </trkpt>
      <trkpt lat="46.08669" lon="6.39969">
        <ele>457</ele>
        <time>2011-07-24T17:13:58Z</time>
      </trkpt>
      <trkpt lat="46.0866" lon="6.39987">
        <ele>457</ele>
        <time>2011-07-24T17:14:00Z</time>
      </trkpt>
      <trkpt lat="46.0865" lon="6.40003">
        <ele>457</ele>
        <time>2011-07-24T17:14:02Z</time>
      </trkpt>
      <trkpt lat="46.0864" lon="6.40012">
        <ele>457</ele>
        <time>2011-07-24T17:14:04Z</time>
      </trkpt>
      <trkpt lat="46.0863" lon="6.40019">
        <ele>457</ele>
        <time>2011-07-24T17:14:07Z</time>
      </trkpt>
      <trkpt lat="46.08617" lon="6.40028">
        <ele>457</ele>
        <time>2011-07-24T17:14:09Z</time>
      </trkpt>
      <trkpt lat="46.08609" lon="6.40036">
        <ele>457</ele>
        <time>2011-07-24T17:14:10Z</time>
      </trkpt>
      <trkpt lat="46.08601" lon="6.40044">
        <ele>457</ele>
        <time>2011-07-24T17:14:11Z</time>
      </trkpt>
      <trkpt lat="46.08593" lon="6.40052">
        <ele>457</ele>
        <time>2011-07-24T17:14:12Z</time>
      </trkpt>
      <trkpt lat="46.0858" lon="6.40067">
        <ele>457</ele>
        <time>2011-07-24T17:14:14Z</time>
      </trkpt>
      <trkpt lat="46.08565" lon="6.40078">
        <ele>457</ele>
        <time>2011-07-24T17:14:16Z</time>
      </trkpt>
      <trkpt lat="46.08554" lon="6.40087">
        <ele>452</ele>
        <time>2011-07-24T17:14:18Z</time>
      </trkpt>
      <trkpt lat="46.08542" lon="6.40096">
        <ele>452</ele>
        <time>2011-07-24T17:14:20Z</time>
      </trkpt>
      <trkpt lat="46.08531" lon="6.40107">
        <ele>452</ele>
        <time>2011-07-24T17:14:22Z</time>
      </trkpt>
      <trkpt lat="46.08517" lon="6.40121">
        <ele>452</ele>
        <time>2011-07-24T17:14:24Z</time>
      </trkpt>
      <trkpt lat="46.08509" lon="6.40127">
        <ele>452</ele>
        <time>2011-07-24T17:14:25Z</time>
      </trkpt>
      <trkpt lat="46.08494" lon="6.4014">
        <ele>452</ele>
        <time>2011-07-24T17:14:27Z</time>
      </trkpt>
      <trkpt lat="46.08486" lon="6.40147">
        <ele>452</ele>
        <time>2011-07-24T17:14:28Z</time>
      </trkpt>
      <trkpt lat="46.08477" lon="6.40153">
        <ele>452</ele>
        <time>2011-07-24T17:14:29Z</time>
      </trkpt>
      <trkpt lat="46.08469" lon="6.4016">
        <ele>452</ele>
        <time>2011-07-24T17:14:30Z</time>
      </trkpt>
      <trkpt lat="46.08461" lon="6.40167">
        <ele>452</ele>
        <time>2011-07-24T17:14:31Z</time>
      </trkpt>
      <trkpt lat="46.08453" lon="6.40174">
        <ele>452</ele>
        <time>2011-07-24T17:14:32Z</time>
      </trkpt>
      <trkpt lat="46.08439" lon="6.40184">
        <ele>452</ele>
        <time>2011-07-24T17:14:34Z</time>
      </trkpt>
      <trkpt lat="46.08427" lon="6.40196">
        <ele>452</ele>
        <time>2011-07-24T17:14:36Z</time>
      </trkpt>
      <trkpt lat="46.08417" lon="6.40205">
        <ele>452</ele>
        <time>2011-07-24T17:14:38Z</time>
      </trkpt>
      <trkpt lat="46.08409" lon="6.40211">
        <ele>452</ele>
        <time>2011-07-24T17:14:42Z</time>
      </trkpt>
      <trkpt lat="46.084" lon="6.40208">
        <ele>461</ele>
        <time>2011-07-24T17:14:50Z</time>
      </trkpt>
      <trkpt lat="46.08392" lon="6.40221">
        <ele>461</ele>
        <time>2011-07-24T17:14:58Z</time>
      </trkpt>
      <trkpt lat="46.0838" lon="6.40227">
        <ele>461</ele>
        <time>2011-07-24T17:15:01Z</time>
      </trkpt>
      <trkpt lat="46.08371" lon="6.40229">
        <ele>455</ele>
        <time>2011-07-24T17:15:05Z</time>
      </trkpt>
      <trkpt lat="46.08367" lon="6.40245">
        <ele>455</ele>
        <time>2011-07-24T17:15:12Z</time>
      </trkpt>
      <trkpt lat="46.08357" lon="6.40257">
        <ele>455</ele>
        <time>2011-07-24T17:15:14Z</time>
      </trkpt>
      <trkpt lat="46.08345" lon="6.4027">
        <ele>455</ele>
        <time>2011-07-24T17:15:16Z</time>
      </trkpt>
      <trkpt lat="46.08333" lon="6.40281">
        <ele>455</ele>
        <time>2011-07-24T17:15:18Z</time>
      </trkpt>
      <trkpt lat="46.0832" lon="6.40292">
        <ele>455</ele>
        <time>2011-07-24T17:15:20Z</time>
      </trkpt>
      <trkpt lat="46.08304" lon="6.40305">
        <ele>455</ele>
        <time>2011-07-24T17:15:22Z</time>
      </trkpt>
      <trkpt lat="46.08291" lon="6.40316">
        <ele>455</ele>
        <time>2011-07-24T17:15:24Z</time>
      </trkpt>
      <trkpt lat="46.08281" lon="6.40324">
        <ele>455</ele>
        <time>2011-07-24T17:15:26Z</time>
      </trkpt>
      <trkpt lat="46.08271" lon="6.40334">
        <ele>455</ele>
        <time>2011-07-24T17:15:28Z</time>
      </trkpt>
      <trkpt lat="46.08259" lon="6.40343">
        <ele>455</ele>
        <time>2011-07-24T17:15:30Z</time>
      </trkpt>
      <trkpt lat="46.08251" lon="6.4035">
        <ele>455</ele>
        <time>2011-07-24T17:15:33Z</time>
      </trkpt>
      <trkpt lat="46.08238" lon="6.40361">
        <ele>449</ele>
        <time>2011-07-24T17:15:40Z</time>
      </trkpt>
      <trkpt lat="46.08227" lon="6.4037">
        <ele>449</ele>
        <time>2011-07-24T17:15:42Z</time>
      </trkpt>
      <trkpt lat="46.08214" lon="6.40382">
        <ele>449</ele>
        <time>2011-07-24T17:15:44Z</time>
      </trkpt>
      <trkpt lat="46.08199" lon="6.40388">
        <ele>449</ele>
        <time>2011-07-24T17:15:46Z</time>
      </trkpt>
      <trkpt lat="46.08186" lon="6.4038">
        <ele>449</ele>
        <time>2011-07-24T17:15:48Z</time>
      </trkpt>
      <trkpt lat="46.08174" lon="6.40363">
        <ele>449</ele>
        <time>2011-07-24T17:15:50Z</time>
      </trkpt>
      <trkpt lat="46.08161" lon="6.40347">
        <ele>449</ele>
        <time>2011-07-24T17:15:52Z</time>
      </trkpt>
      <trkpt lat="46.0815" lon="6.40332">
        <ele>449</ele>
        <time>2011-07-24T17:15:54Z</time>
      </trkpt>
      <trkpt lat="46.08137" lon="6.40314">
        <ele>449</ele>
        <time>2011-07-24T17:15:56Z</time>
      </trkpt>
      <trkpt lat="46.08129" lon="6.40305">
        <ele>449</ele>
        <time>2011-07-24T17:15:57Z</time>
      </trkpt>
      <trkpt lat="46.08122" lon="6.40295">
        <ele>449</ele>
        <time>2011-07-24T17:15:58Z</time>
      </trkpt>
      <trkpt lat="46.08115" lon="6.40286">
        <ele>449</ele>
        <time>2011-07-24T17:15:59Z</time>
      </trkpt>
      <trkpt lat="46.08107" lon="6.40277">
        <ele>449</ele>
        <time>2011-07-24T17:16:00Z</time>
      </trkpt>
      <trkpt lat="46.081" lon="6.40269">
        <ele>449</ele>
        <time>2011-07-24T17:16:01Z</time>
      </trkpt>
      <trkpt lat="46.08091" lon="6.40261">
        <ele>449</ele>
        <time>2011-07-24T17:16:02Z</time>
      </trkpt>
      <trkpt lat="46.08082" lon="6.40252">
        <ele>449</ele>
        <time>2011-07-24T17:16:03Z</time>
      </trkpt>
      <trkpt lat="46.08074" lon="6.40243">
        <ele>449</ele>
        <time>2011-07-24T17:16:04Z</time>
      </trkpt>
      <trkpt lat="46.08065" lon="6.40235">
        <ele>449</ele>
        <time>2011-07-24T17:16:05Z</time>
      </trkpt>
      <trkpt lat="46.08057" lon="6.40228">
        <ele>449</ele>
        <time>2011-07-24T17:16:06Z</time>
      </trkpt>
      <trkpt lat="46.08044" lon="6.40216">
        <ele>449</ele>
        <time>2011-07-24T17:16:08Z</time>
      </trkpt>
      <trkpt lat="46.08034" lon="6.40205">
        <ele>449</ele>
        <time>2011-07-24T17:16:10Z</time>
      </trkpt>
      <trkpt lat="46.08027" lon="6.40193">
        <ele>449</ele>
        <time>2011-07-24T17:16:12Z</time>
      </trkpt>
      <trkpt lat="46.08016" lon="6.40186">
        <ele>449</ele>
        <time>2011-07-24T17:16:14Z</time>
      </trkpt>
      <trkpt lat="46.08002" lon="6.40184">
        <ele>449</ele>
        <time>2011-07-24T17:16:16Z</time>
      </trkpt>
      <trkpt lat="46.07992" lon="6.40183">
        <ele>449</ele>
        <time>2011-07-24T17:16:17Z</time>
      </trkpt>
      <trkpt lat="46.07982" lon="6.40182">
        <ele>449</ele>
        <time>2011-07-24T17:16:18Z</time>
      </trkpt>
      <trkpt lat="46.07972" lon="6.40182">
        <ele>449</ele>
        <time>2011-07-24T17:16:19Z</time>
      </trkpt>
      <trkpt lat="46.07962" lon="6.40182">
        <ele>449</ele>
        <time>2011-07-24T17:16:20Z</time>
      </trkpt>
      <trkpt lat="46.07952" lon="6.40181">
        <ele>449</ele>
        <time>2011-07-24T17:16:21Z</time>
      </trkpt>
      <trkpt lat="46.07935" lon="6.40182">
        <ele>449</ele>
        <time>2011-07-24T17:16:23Z</time>
      </trkpt>
      <trkpt lat="46.0792" lon="6.40182">
        <ele>449</ele>
        <time>2011-07-24T17:16:25Z</time>
      </trkpt>
      <trkpt lat="46.07909" lon="6.40176">
        <ele>449</ele>
        <time>2011-07-24T17:16:27Z</time>
      </trkpt>
      <trkpt lat="46.07904" lon="6.40165">
        <ele>449</ele>
        <time>2011-07-24T17:16:29Z</time>
      </trkpt>
      <trkpt lat="46.07908" lon="6.4014">
        <ele>449</ele>
        <time>2011-07-24T17:16:31Z</time>
      </trkpt>
      <trkpt lat="46.07912" lon="6.40124">
        <ele>449</ele>
        <time>2011-07-24T17:16:32Z</time>
      </trkpt>
      <trkpt lat="46.07915" lon="6.40104">
        <ele>449</ele>
        <time>2011-07-24T17:16:33Z</time>
      </trkpt>
      <trkpt lat="46.0792" lon="6.40084">
        <ele>449</ele>
        <time>2011-07-24T17:16:34Z</time>
      </trkpt>
      <trkpt lat="46.07923" lon="6.40063">
        <ele>449</ele>
        <time>2011-07-24T17:16:35Z</time>
      </trkpt>
      <trkpt lat="46.07925" lon="6.40045">
        <ele>455</ele>
        <time>2011-07-24T17:16:36Z</time>
      </trkpt>
      <trkpt lat="46.07929" lon="6.40029">
        <ele>455</ele>
        <time>2011-07-24T17:16:37Z</time>
      </trkpt>
      <trkpt lat="46.0793" lon="6.40016">
        <ele>455</ele>
        <time>2011-07-24T17:16:38Z</time>
      </trkpt>
      <trkpt lat="46.07932" lon="6.39994">
        <ele>455</ele>
        <time>2011-07-24T17:16:40Z</time>
      </trkpt>
      <trkpt lat="46.07932" lon="6.3998">
        <ele>455</ele>
        <time>2011-07-24T17:16:42Z</time>
      </trkpt>
      <trkpt lat="46.07924" lon="6.39972">
        <ele>455</ele>
        <time>2011-07-24T17:16:47Z</time>
      </trkpt>
      <trkpt lat="46.07914" lon="6.39977">
        <ele>455</ele>
        <time>2011-07-24T17:16:50Z</time>
      </trkpt>
      <trkpt lat="46.07904" lon="6.39981">
        <ele>455</ele>
        <time>2011-07-24T17:16:52Z</time>
      </trkpt>
      <trkpt lat="46.07895" lon="6.3998">
        <ele>455</ele>
        <time>2011-07-24T17:16:54Z</time>
      </trkpt>
      <trkpt lat="46.07884" lon="6.39979">
        <ele>455</ele>
        <time>2011-07-24T17:16:56Z</time>
      </trkpt>
      <trkpt lat="46.07874" lon="6.39977">
        <ele>455</ele>
        <time>2011-07-24T17:16:58Z</time>
      </trkpt>
      <trkpt lat="46.07862" lon="6.39975">
        <ele>455</ele>
        <time>2011-07-24T17:17:00Z</time>
      </trkpt>
      <trkpt lat="46.07847" lon="6.39973">
        <ele>455</ele>
        <time>2011-07-24T17:17:02Z</time>
      </trkpt>
      <trkpt lat="46.07835" lon="6.39972">
        <ele>455</ele>
        <time>2011-07-24T17:17:04Z</time>
      </trkpt>
      <trkpt lat="46.07824" lon="6.39968">
        <ele>455</ele>
        <time>2011-07-24T17:17:06Z</time>
      </trkpt>
      <trkpt lat="46.07813" lon="6.39965">
        <ele>455</ele>
        <time>2011-07-24T17:17:08Z</time>
      </trkpt>
      <trkpt lat="46.07802" lon="6.39962">
        <ele>455</ele>
        <time>2011-07-24T17:17:10Z</time>
      </trkpt>
      <trkpt lat="46.07789" lon="6.39956">
        <ele>455</ele>
        <time>2011-07-24T17:17:12Z</time>
      </trkpt>
      <trkpt lat="46.07776" lon="6.3995">
        <ele>455</ele>
        <time>2011-07-24T17:17:14Z</time>
      </trkpt>
      <trkpt lat="46.07763" lon="6.39944">
        <ele>455</ele>
        <time>2011-07-24T17:17:16Z</time>
      </trkpt>
      <trkpt lat="46.07751" lon="6.39938">
        <ele>455</ele>
        <time>2011-07-24T17:17:18Z</time>
      </trkpt>
      <trkpt lat="46.07742" lon="6.39934">
        <ele>455</ele>
        <time>2011-07-24T17:17:20Z</time>
      </trkpt>
      <trkpt lat="46.07733" lon="6.39928">
        <ele>455</ele>
        <time>2011-07-24T17:17:22Z</time>
      </trkpt>
      <trkpt lat="46.07722" lon="6.39923">
        <ele>455</ele>
        <time>2011-07-24T17:17:24Z</time>
      </trkpt>
      <trkpt lat="46.0771" lon="6.39915">
        <ele>455</ele>
        <time>2011-07-24T17:17:26Z</time>
      </trkpt>
      <trkpt lat="46.07696" lon="6.39908">
        <ele>455</ele>
        <time>2011-07-24T17:17:28Z</time>
      </trkpt>
      <trkpt lat="46.07681" lon="6.39898">
        <ele>455</ele>
        <time>2011-07-24T17:17:30Z</time>
      </trkpt>
      <trkpt lat="46.07666" lon="6.39887">
        <ele>455</ele>
        <time>2011-07-24T17:17:32Z</time>
      </trkpt>
      <trkpt lat="46.07651" lon="6.39876">
        <ele>460</ele>
        <time>2011-07-24T17:17:34Z</time>
      </trkpt>
      <trkpt lat="46.07637" lon="6.39865">
        <ele>460</ele>
        <time>2011-07-24T17:17:36Z</time>
      </trkpt>
      <trkpt lat="46.07622" lon="6.39851">
        <ele>460</ele>
        <time>2011-07-24T17:17:38Z</time>
      </trkpt>
      <trkpt lat="46.07608" lon="6.39839">
        <ele>460</ele>
        <time>2011-07-24T17:17:40Z</time>
      </trkpt>
      <trkpt lat="46.07595" lon="6.39826">
        <ele>460</ele>
        <time>2011-07-24T17:17:42Z</time>
      </trkpt>
      <trkpt lat="46.07583" lon="6.39813">
        <ele>460</ele>
        <time>2011-07-24T17:17:44Z</time>
      </trkpt>
      <trkpt lat="46.07571" lon="6.39801">
        <ele>460</ele>
        <time>2011-07-24T17:17:46Z</time>
      </trkpt>
      <trkpt lat="46.07561" lon="6.3979">
        <ele>460</ele>
        <time>2011-07-24T17:17:48Z</time>
      </trkpt>
      <trkpt lat="46.07552" lon="6.39782">
        <ele>460</ele>
        <time>2011-07-24T17:17:50Z</time>
      </trkpt>
      <trkpt lat="46.07544" lon="6.39773">
        <ele>460</ele>
        <time>2011-07-24T17:17:52Z</time>
      </trkpt>
      <trkpt lat="46.07534" lon="6.39765">
        <ele>460</ele>
        <time>2011-07-24T17:17:54Z</time>
      </trkpt>
      <trkpt lat="46.07526" lon="6.39758">
        <ele>460</ele>
        <time>2011-07-24T17:17:56Z</time>
      </trkpt>
      <trkpt lat="46.07522" lon="6.39743">
        <ele>460</ele>
        <time>2011-07-24T17:18:01Z</time>
      </trkpt>
      <trkpt lat="46.07518" lon="6.39731">
        <ele>460</ele>
        <time>2011-07-24T17:18:05Z</time>
      </trkpt>
      <trkpt lat="46.0751" lon="6.39724">
        <ele>460</ele>
        <time>2011-07-24T17:18:07Z</time>
      </trkpt>
      <trkpt lat="46.075" lon="6.39715">
        <ele>460</ele>
        <time>2011-07-24T17:18:09Z</time>
      </trkpt>
      <trkpt lat="46.0749" lon="6.39705">
        <ele>460</ele>
        <time>2011-07-24T17:18:11Z</time>
      </trkpt>
      <trkpt lat="46.0748" lon="6.397">
        <ele>460</ele>
        <time>2011-07-24T17:18:15Z</time>
      </trkpt>
      <trkpt lat="46.07472" lon="6.39688">
        <ele>460</ele>
        <time>2011-07-24T17:18:19Z</time>
      </trkpt>
      <trkpt lat="46.07463" lon="6.39677">
        <ele>460</ele>
        <time>2011-07-24T17:18:21Z</time>
      </trkpt>
      <trkpt lat="46.07449" lon="6.39664">
        <ele>460</ele>
        <time>2011-07-24T17:18:23Z</time>
      </trkpt>
      <trkpt lat="46.07433" lon="6.39649">
        <ele>460</ele>
        <time>2011-07-24T17:18:25Z</time>
      </trkpt>
      <trkpt lat="46.07423" lon="6.39641">
        <ele>460</ele>
        <time>2011-07-24T17:18:26Z</time>
      </trkpt>
      <trkpt lat="46.07413" lon="6.39633">
        <ele>460</ele>
        <time>2011-07-24T17:18:27Z</time>
      </trkpt>
      <trkpt lat="46.07403" lon="6.39625">
        <ele>460</ele>
        <time>2011-07-24T17:18:28Z</time>
      </trkpt>
      <trkpt lat="46.07393" lon="6.39616">
        <ele>460</ele>
        <time>2011-07-24T17:18:29Z</time>
      </trkpt>
      <trkpt lat="46.07383" lon="6.39608">
        <ele>460</ele>
        <time>2011-07-24T17:18:30Z</time>
      </trkpt>
      <trkpt lat="46.07374" lon="6.396">
        <ele>460</ele>
        <time>2011-07-24T17:18:31Z</time>
      </trkpt>
      <trkpt lat="46.07363" lon="6.39591">
        <ele>460</ele>
        <time>2011-07-24T17:18:32Z</time>
      </trkpt>
      <trkpt lat="46.07353" lon="6.39582">
        <ele>460</ele>
        <time>2011-07-24T17:18:33Z</time>
      </trkpt>
      <trkpt lat="46.07343" lon="6.39573">
        <ele>460</ele>
        <time>2011-07-24T17:18:34Z</time>
      </trkpt>
      <trkpt lat="46.07333" lon="6.39565">
        <ele>460</ele>
        <time>2011-07-24T17:18:35Z</time>
      </trkpt>
      <trkpt lat="46.07323" lon="6.39557">
        <ele>460</ele>
        <time>2011-07-24T17:18:36Z</time>
      </trkpt>
      <trkpt lat="46.07314" lon="6.39551">
        <ele>460</ele>
        <time>2011-07-24T17:18:37Z</time>
      </trkpt>
      <trkpt lat="46.07307" lon="6.39542">
        <ele>460</ele>
        <time>2011-07-24T17:18:39Z</time>
      </trkpt>
      <trkpt lat="46.07303" lon="6.3953">
        <ele>460</ele>
        <time>2011-07-24T17:18:51Z</time>
      </trkpt>
      <trkpt lat="46.07286" lon="6.39517">
        <ele>460</ele>
        <time>2011-07-24T17:18:53Z</time>
      </trkpt>
      <trkpt lat="46.07275" lon="6.39507">
        <ele>460</ele>
        <time>2011-07-24T17:18:54Z</time>
      </trkpt>
      <trkpt lat="46.07263" lon="6.39496">
        <ele>460</ele>
        <time>2011-07-24T17:18:55Z</time>
      </trkpt>
      <trkpt lat="46.0725" lon="6.39485">
        <ele>460</ele>
        <time>2011-07-24T17:18:56Z</time>
      </trkpt>
      <trkpt lat="46.07236" lon="6.39472">
        <ele>460</ele>
        <time>2011-07-24T17:18:57Z</time>
      </trkpt>
      <trkpt lat="46.07224" lon="6.39459">
        <ele>460</ele>
        <time>2011-07-24T17:18:58Z</time>
      </trkpt>
      <trkpt lat="46.0721" lon="6.39445">
        <ele>460</ele>
        <time>2011-07-24T17:18:59Z</time>
      </trkpt>
      <trkpt lat="46.07196" lon="6.39431">
        <ele>460</ele>
        <time>2011-07-24T17:19:00Z</time>
      </trkpt>
      <trkpt lat="46.07181" lon="6.39415">
        <ele>460</ele>
        <time>2011-07-24T17:19:01Z</time>
      </trkpt>
      <trkpt lat="46.07166" lon="6.39401">
        <ele>460</ele>
        <time>2011-07-24T17:19:02Z</time>
      </trkpt>
      <trkpt lat="46.07151" lon="6.39386">
        <ele>465</ele>
        <time>2011-07-24T17:19:03Z</time>
      </trkpt>
      <trkpt lat="46.07136" lon="6.39371">
        <ele>465</ele>
        <time>2011-07-24T17:19:04Z</time>
      </trkpt>
      <trkpt lat="46.07121" lon="6.39356">
        <ele>465</ele>
        <time>2011-07-24T17:19:05Z</time>
      </trkpt>
      <trkpt lat="46.07107" lon="6.39342">
        <ele>465</ele>
        <time>2011-07-24T17:19:06Z</time>
      </trkpt>
      <trkpt lat="46.07093" lon="6.39327">
        <ele>465</ele>
        <time>2011-07-24T17:19:07Z</time>
      </trkpt>
      <trkpt lat="46.07079" lon="6.39314">
        <ele>465</ele>
        <time>2011-07-24T17:19:08Z</time>
      </trkpt>
      <trkpt lat="46.07064" lon="6.393">
        <ele>465</ele>
        <time>2011-07-24T17:19:09Z</time>
      </trkpt>
      <trkpt lat="46.0705" lon="6.39284">
        <ele>465</ele>
        <time>2011-07-24T17:19:10Z</time>
      </trkpt>
      <trkpt lat="46.07035" lon="6.3927">
        <ele>465</ele>
        <time>2011-07-24T17:19:11Z</time>
      </trkpt>
      <trkpt lat="46.0702" lon="6.39256">
        <ele>465</ele>
        <time>2011-07-24T17:19:12Z</time>
      </trkpt>
      <trkpt lat="46.07005" lon="6.39241">
        <ele>465</ele>
        <time>2011-07-24T17:19:13Z</time>
      </trkpt>
      <trkpt lat="46.0699" lon="6.39226">
        <ele>465</ele>
        <time>2011-07-24T17:19:14Z</time>
      </trkpt>
      <trkpt lat="46.06975" lon="6.39212">
        <ele>465</ele>
        <time>2011-07-24T17:19:15Z</time>
      </trkpt>
      <trkpt lat="46.06959" lon="6.39197">
        <ele>465</ele>
        <time>2011-07-24T17:19:16Z</time>
      </trkpt>
      <trkpt lat="46.06944" lon="6.39182">
        <ele>465</ele>
        <time>2011-07-24T17:19:17Z</time>
      </trkpt>
      <trkpt lat="46.06929" lon="6.39167">
        <ele>465</ele>
        <time>2011-07-24T17:19:18Z</time>
      </trkpt>
      <trkpt lat="46.06913" lon="6.39151">
        <ele>465</ele>
        <time>2011-07-24T17:19:19Z</time>
      </trkpt>
      <trkpt lat="46.06898" lon="6.39136">
        <ele>465</ele>
        <time>2011-07-24T17:19:20Z</time>
      </trkpt>
      <trkpt lat="46.06883" lon="6.39121">
        <ele>465</ele>
        <time>2011-07-24T17:19:21Z</time>
      </trkpt>
      <trkpt lat="46.06868" lon="6.39106">
        <ele>465</ele>
        <time>2011-07-24T17:19:22Z</time>
      </trkpt>
      <trkpt lat="46.06853" lon="6.39091">
        <ele>465</ele>
        <time>2011-07-24T17:19:23Z</time>
      </trkpt>
      <trkpt lat="46.06837" lon="6.39077">
        <ele>465</ele>
        <time>2011-07-24T17:19:24Z</time>
      </trkpt>
      <trkpt lat="46.06821" lon="6.39062">
        <ele>465</ele>
        <time>2011-07-24T17:19:25Z</time>
      </trkpt>
      <trkpt lat="46.06805" lon="6.39047">
        <ele>465</ele>
        <time>2011-07-24T17:19:26Z</time>
      </trkpt>
      <trkpt lat="46.06791" lon="6.39032">
        <ele>465</ele>
        <time>2011-07-24T17:19:27Z</time>
      </trkpt>
      <trkpt lat="46.06776" lon="6.39017">
        <ele>465</ele>
        <time>2011-07-24T17:19:28Z</time>
      </trkpt>
      <trkpt lat="46.06762" lon="6.39002">
        <ele>465</ele>
        <time>2011-07-24T17:19:29Z</time>
      </trkpt>
      <trkpt lat="46.06747" lon="6.38988">
        <ele>465</ele>
        <time>2011-07-24T17:19:30Z</time>
      </trkpt>
      <trkpt lat="46.06733" lon="6.38974">
        <ele>465</ele>
        <time>2011-07-24T17:19:31Z</time>
      </trkpt>
      <trkpt lat="46.06718" lon="6.3896">
        <ele>465</ele>
        <time>2011-07-24T17:19:32Z</time>
      </trkpt>
      <trkpt lat="46.06704" lon="6.38946">
        <ele>465</ele>
        <time>2011-07-24T17:19:33Z</time>
      </trkpt>
      <trkpt lat="46.06689" lon="6.38931">
        <ele>465</ele>
        <time>2011-07-24T17:19:34Z</time>
      </trkpt>
      <trkpt lat="46.06675" lon="6.38918">
        <ele>465</ele>
        <time>2011-07-24T17:19:35Z</time>
      </trkpt>
      <trkpt lat="46.06661" lon="6.38904">
        <ele>471</ele>
        <time>2011-07-24T17:19:36Z</time>
      </trkpt>
      <trkpt lat="46.06647" lon="6.3889">
        <ele>471</ele>
        <time>2011-07-24T17:19:37Z</time>
      </trkpt>
      <trkpt lat="46.06632" lon="6.38876">
        <ele>471</ele>
        <time>2011-07-24T17:19:38Z</time>
      </trkpt>
      <trkpt lat="46.06617" lon="6.38861">
        <ele>471</ele>
        <time>2011-07-24T17:19:39Z</time>
      </trkpt>
      <trkpt lat="46.06603" lon="6.38848">
        <ele>471</ele>
        <time>2011-07-24T17:19:40Z</time>
      </trkpt>
      <trkpt lat="46.06588" lon="6.38833">
        <ele>471</ele>
        <time>2011-07-24T17:19:41Z</time>
      </trkpt>
      <trkpt lat="46.06574" lon="6.38819">
        <ele>471</ele>
        <time>2011-07-24T17:19:42Z</time>
      </trkpt>
      <trkpt lat="46.06559" lon="6.38805">
        <ele>471</ele>
        <time>2011-07-24T17:19:43Z</time>
      </trkpt>
      <trkpt lat="46.06545" lon="6.3879">
        <ele>471</ele>
        <time>2011-07-24T17:19:44Z</time>
      </trkpt>
      <trkpt lat="46.06529" lon="6.38776">
        <ele>471</ele>
        <time>2011-07-24T17:19:45Z</time>
      </trkpt>
      <trkpt lat="46.06514" lon="6.38762">
        <ele>471</ele>
        <time>2011-07-24T17:19:46Z</time>
      </trkpt>
      <trkpt lat="46.065" lon="6.38747">
        <ele>471</ele>
        <time>2011-07-24T17:19:47Z</time>
      </trkpt>
      <trkpt lat="46.06484" lon="6.38733">
        <ele>471</ele>
        <time>2011-07-24T17:19:48Z</time>
      </trkpt>
      <trkpt lat="46.06469" lon="6.38717">
        <ele>471</ele>
        <time>2011-07-24T17:19:49Z</time>
      </trkpt>
      <trkpt lat="46.06454" lon="6.38703">
        <ele>471</ele>
        <time>2011-07-24T17:19:50Z</time>
      </trkpt>
      <trkpt lat="46.06439" lon="6.38689">
        <ele>471</ele>
        <time>2011-07-24T17:19:51Z</time>
      </trkpt>
      <trkpt lat="46.06424" lon="6.38674">
        <ele>471</ele>
        <time>2011-07-24T17:19:52Z</time>
      </trkpt>
      <trkpt lat="46.06409" lon="6.3866">
        <ele>471</ele>
        <time>2011-07-24T17:19:53Z</time>
      </trkpt>
      <trkpt lat="46.06395" lon="6.38647">
        <ele>471</ele>
        <time>2011-07-24T17:19:54Z</time>
      </trkpt>
      <trkpt lat="46.06381" lon="6.38633">
        <ele>471</ele>
        <time>2011-07-24T17:19:55Z</time>
      </trkpt>
      <trkpt lat="46.06367" lon="6.3862">
        <ele>471</ele>
        <time>2011-07-24T17:19:56Z</time>
      </trkpt>
      <trkpt lat="46.06354" lon="6.38606">
        <ele>471</ele>
        <time>2011-07-24T17:19:57Z</time>
      </trkpt>
      <trkpt lat="46.0634" lon="6.38593">
        <ele>471</ele>
        <time>2011-07-24T17:19:58Z</time>
      </trkpt>
      <trkpt lat="46.06326" lon="6.38579">
        <ele>471</ele>
        <time>2011-07-24T17:19:59Z</time>
      </trkpt>
      <trkpt lat="46.06312" lon="6.38565">
        <ele>471</ele>
        <time>2011-07-24T17:20:00Z</time>
      </trkpt>
      <trkpt lat="46.06297" lon="6.3855">
        <ele>476</ele>
        <time>2011-07-24T17:20:01Z</time>
      </trkpt>
      <trkpt lat="46.06282" lon="6.38536">
        <ele>476</ele>
        <time>2011-07-24T17:20:02Z</time>
      </trkpt>
      <trkpt lat="46.06267" lon="6.38521">
        <ele>476</ele>
        <time>2011-07-24T17:20:03Z</time>
      </trkpt>
      <trkpt lat="46.0625" lon="6.38505">
        <ele>476</ele>
        <time>2011-07-24T17:20:04Z</time>
      </trkpt>
      <trkpt lat="46.06236" lon="6.38491">
        <ele>476</ele>
        <time>2011-07-24T17:20:05Z</time>
      </trkpt>
      <trkpt lat="46.06222" lon="6.38478">
        <ele>476</ele>
        <time>2011-07-24T17:20:06Z</time>
      </trkpt>
      <trkpt lat="46.0621" lon="6.38465">
        <ele>476</ele>
        <time>2011-07-24T17:20:07Z</time>
      </trkpt>
      <trkpt lat="46.06199" lon="6.38455">
        <ele>476</ele>
        <time>2011-07-24T17:20:08Z</time>
      </trkpt>
      <trkpt lat="46.06189" lon="6.38444">
        <ele>476</ele>
        <time>2011-07-24T17:20:09Z</time>
      </trkpt>
      <trkpt lat="46.06181" lon="6.38435">
        <ele>476</ele>
        <time>2011-07-24T17:20:10Z</time>
      </trkpt>
      <trkpt lat="46.06173" lon="6.38426">
        <ele>476</ele>
        <time>2011-07-24T17:20:11Z</time>
      </trkpt>
      <trkpt lat="46.06164" lon="6.38417">
        <ele>482</ele>
        <time>2011-07-24T17:20:12Z</time>
      </trkpt>
      <trkpt lat="46.06158" lon="6.38408">
        <ele>482</ele>
        <time>2011-07-24T17:20:13Z</time>
      </trkpt>
      <trkpt lat="46.06153" lon="6.38396">
        <ele>482</ele>
        <time>2011-07-24T17:20:14Z</time>
      </trkpt>
      <trkpt lat="46.06151" lon="6.38382">
        <ele>482</ele>
        <time>2011-07-24T17:20:15Z</time>
      </trkpt>
      <trkpt lat="46.06149" lon="6.38365">
        <ele>482</ele>
        <time>2011-07-24T17:20:16Z</time>
      </trkpt>
      <trkpt lat="46.06151" lon="6.38346">
        <ele>482</ele>
        <time>2011-07-24T17:20:17Z</time>
      </trkpt>
      <trkpt lat="46.06152" lon="6.38327">
        <ele>482</ele>
        <time>2011-07-24T17:20:18Z</time>
      </trkpt>
      <trkpt lat="46.06152" lon="6.38307">
        <ele>482</ele>
        <time>2011-07-24T17:20:19Z</time>
      </trkpt>
      <trkpt lat="46.06152" lon="6.38286">
        <ele>482</ele>
        <time>2011-07-24T17:20:20Z</time>
      </trkpt>
      <trkpt lat="46.06151" lon="6.38265">
        <ele>482</ele>
        <time>2011-07-24T17:20:21Z</time>
      </trkpt>
      <trkpt lat="46.0615" lon="6.38243">
        <ele>482</ele>
        <time>2011-07-24T17:20:22Z</time>
      </trkpt>
      <trkpt lat="46.0615" lon="6.38222">
        <ele>482</ele>
        <time>2011-07-24T17:20:23Z</time>
      </trkpt>
      <trkpt lat="46.0615" lon="6.38199">
        <ele>482</ele>
        <time>2011-07-24T17:20:24Z</time>
      </trkpt>
      <trkpt lat="46.06149" lon="6.38177">
        <ele>482</ele>
        <time>2011-07-24T17:20:25Z</time>
      </trkpt>
      <trkpt lat="46.06148" lon="6.38154">
        <ele>482</ele>
        <time>2011-07-24T17:20:26Z</time>
      </trkpt>
      <trkpt lat="46.06146" lon="6.38132">
        <ele>482</ele>
        <time>2011-07-24T17:20:27Z</time>
      </trkpt>
      <trkpt lat="46.06144" lon="6.38108">
        <ele>482</ele>
        <time>2011-07-24T17:20:28Z</time>
      </trkpt>
      <trkpt lat="46.06141" lon="6.38085">
        <ele>482</ele>
        <time>2011-07-24T17:20:29Z</time>
      </trkpt>
      <trkpt lat="46.06138" lon="6.38061">
        <ele>482</ele>
        <time>2011-07-24T17:20:30Z</time>
      </trkpt>
      <trkpt lat="46.06134" lon="6.38036">
        <ele>482</ele>
        <time>2011-07-24T17:20:31Z</time>
      </trkpt>
      <trkpt lat="46.06129" lon="6.38011">
        <ele>482</ele>
        <time>2011-07-24T17:20:32Z</time>
      </trkpt>
      <trkpt lat="46.06123" lon="6.37985">
        <ele>482</ele>
        <time>2011-07-24T17:20:33Z</time>
      </trkpt>
      <trkpt lat="46.06117" lon="6.37961">
        <ele>482</ele>
        <time>2011-07-24T17:20:34Z</time>
      </trkpt>
      <trkpt lat="46.0611" lon="6.37938">
        <ele>482</ele>
        <time>2011-07-24T17:20:35Z</time>
      </trkpt>
      <trkpt lat="46.06103" lon="6.37914">
        <ele>482</ele>
        <time>2011-07-24T17:20:36Z</time>
      </trkpt>
      <trkpt lat="46.06097" lon="6.37892">
        <ele>482</ele>
        <time>2011-07-24T17:20:37Z</time>
      </trkpt>
      <trkpt lat="46.0609" lon="6.37869">
        <ele>482</ele>
        <time>2011-07-24T17:20:38Z</time>
      </trkpt>
      <trkpt lat="46.06085" lon="6.37847">
        <ele>482</ele>
        <time>2011-07-24T17:20:39Z</time>
      </trkpt>
      <trkpt lat="46.06078" lon="6.37825">
        <ele>482</ele>
        <time>2011-07-24T17:20:40Z</time>
      </trkpt>
      <trkpt lat="46.0607" lon="6.37802">
        <ele>482</ele>
        <time>2011-07-24T17:20:41Z</time>
      </trkpt>
      <trkpt lat="46.06062" lon="6.37781">
        <ele>482</ele>
        <time>2011-07-24T17:20:42Z</time>
      </trkpt>
      <trkpt lat="46.06053" lon="6.37759">
        <ele>482</ele>
        <time>2011-07-24T17:20:43Z</time>
      </trkpt>
      <trkpt lat="46.06044" lon="6.37737">
        <ele>482</ele>
        <time>2011-07-24T17:20:44Z</time>
      </trkpt>
      <trkpt lat="46.06034" lon="6.37715">
        <ele>482</ele>
        <time>2011-07-24T17:20:45Z</time>
      </trkpt>
      <trkpt lat="46.06024" lon="6.37693">
        <ele>482</ele>
        <time>2011-07-24T17:20:46Z</time>
      </trkpt>
      <trkpt lat="46.06013" lon="6.37671">
        <ele>482</ele>
        <time>2011-07-24T17:20:47Z</time>
      </trkpt>
      <trkpt lat="46.06003" lon="6.37649">
        <ele>482</ele>
        <time>2011-07-24T17:20:48Z</time>
      </trkpt>
      <trkpt lat="46.05992" lon="6.37628">
        <ele>482</ele>
        <time>2011-07-24T17:20:49Z</time>
      </trkpt>
      <trkpt lat="46.05983" lon="6.37607">
        <ele>482</ele>
        <time>2011-07-24T17:20:50Z</time>
      </trkpt>
      <trkpt lat="46.05973" lon="6.37587">
        <ele>482</ele>
        <time>2011-07-24T17:20:51Z</time>
      </trkpt>
      <trkpt lat="46.05964" lon="6.37566">
        <ele>482</ele>
        <time>2011-07-24T17:20:52Z</time>
      </trkpt>
      <trkpt lat="46.05955" lon="6.37546">
        <ele>482</ele>
        <time>2011-07-24T17:20:53Z</time>
      </trkpt>
      <trkpt lat="46.05946" lon="6.37527">
        <ele>482</ele>
        <time>2011-07-24T17:20:54Z</time>
      </trkpt>
      <trkpt lat="46.05938" lon="6.37509">
        <ele>482</ele>
        <time>2011-07-24T17:20:55Z</time>
      </trkpt>
      <trkpt lat="46.0593" lon="6.37492">
        <ele>482</ele>
        <time>2011-07-24T17:20:56Z</time>
      </trkpt>
      <trkpt lat="46.05922" lon="6.37477">
        <ele>482</ele>
        <time>2011-07-24T17:20:57Z</time>
      </trkpt>
      <trkpt lat="46.05916" lon="6.37463">
        <ele>482</ele>
        <time>2011-07-24T17:20:58Z</time>
      </trkpt>
      <trkpt lat="46.0591" lon="6.37449">
        <ele>482</ele>
        <time>2011-07-24T17:20:59Z</time>
      </trkpt>
      <trkpt lat="46.05905" lon="6.37437">
        <ele>482</ele>
        <time>2011-07-24T17:21:00Z</time>
      </trkpt>
      <trkpt lat="46.05896" lon="6.37418">
        <ele>482</ele>
        <time>2011-07-24T17:21:02Z</time>
      </trkpt>
      <trkpt lat="46.05891" lon="6.37401">
        <ele>487</ele>
        <time>2011-07-24T17:21:04Z</time>
      </trkpt>
      <trkpt lat="46.05897" lon="6.37383">
        <ele>487</ele>
        <time>2011-07-24T17:21:06Z</time>
      </trkpt>
      <trkpt lat="46.05903" lon="6.37373">
        <ele>487</ele>
        <time>2011-07-24T17:21:07Z</time>
      </trkpt>
      <trkpt lat="46.0591" lon="6.37361">
        <ele>487</ele>
        <time>2011-07-24T17:21:08Z</time>
      </trkpt>
      <trkpt lat="46.05919" lon="6.37351">
        <ele>487</ele>
        <time>2011-07-24T17:21:09Z</time>
      </trkpt>
      <trkpt lat="46.05927" lon="6.37342">
        <ele>487</ele>
        <time>2011-07-24T17:21:10Z</time>
      </trkpt>
      <trkpt lat="46.0594" lon="6.3733">
        <ele>487</ele>
        <time>2011-07-24T17:21:12Z</time>
      </trkpt>
      <trkpt lat="46.05949" lon="6.37328">
        <ele>487</ele>
        <time>2011-07-24T17:21:13Z</time>
      </trkpt>
      <trkpt lat="46.05958" lon="6.37337">
        <ele>487</ele>
        <time>2011-07-24T17:21:16Z</time>
      </trkpt>
      <trkpt lat="46.05953" lon="6.37349">
        <ele>487</ele>
        <time>2011-07-24T17:21:19Z</time>
      </trkpt>
    </trkseg>
  </trk>
</gpx>